<?xml version="1.0" encoding="UTF-8" standalone="no" ?>
<gpx xmlns="http://www.topografix.com/GPX/1/1" xmlns:xsi="http://www.w3.org/2001/XMLSchema-instance" xsi:schemaLocation="http://www.topografix.com/GPX/1/1 http://www.topografix.com/GPX/1/1/gpx.xsd" version="1.1" creator="VisuGPX - https://www.visugpx.com">
  <metadata>
    <name>Tour à Vassieux depuis Les Faures avec Flora</name>
  </metadata>
  <trk>
    <name><![CDATA[Tour à Vassieux depuis Les Faures avec Flora_1]]></name>
    <trkseg>
      <trkpt lat="44.90382" lon="5.4284">
        <ele>855</ele>
        <time>2022-09-22T09:18:38.405Z</time>
      </trkpt>
      <trkpt lat="44.90382" lon="5.4284">
        <ele>855</ele>
        <time>2022-09-22T09:18:39.407Z</time>
      </trkpt>
      <trkpt lat="44.90382" lon="5.4284">
        <ele>855</ele>
        <time>2022-09-22T09:18:40.408Z</time>
      </trkpt>
      <trkpt lat="44.90382" lon="5.4284">
        <ele>855</ele>
        <time>2022-09-22T09:18:41.408Z</time>
      </trkpt>
      <trkpt lat="44.90382" lon="5.4284">
        <ele>855</ele>
        <time>2022-09-22T09:18:42.407Z</time>
      </trkpt>
      <trkpt lat="44.90382" lon="5.4284">
        <ele>855</ele>
        <time>2022-09-22T09:18:43.408Z</time>
      </trkpt>
      <trkpt lat="44.90382" lon="5.4284">
        <ele>855</ele>
        <time>2022-09-22T09:18:44.408Z</time>
      </trkpt>
      <trkpt lat="44.90382" lon="5.4284">
        <ele>855</ele>
        <time>2022-09-22T09:18:45.408Z</time>
      </trkpt>
      <trkpt lat="44.90382" lon="5.4284">
        <ele>855</ele>
        <time>2022-09-22T09:18:46.407Z</time>
      </trkpt>
      <trkpt lat="44.90382" lon="5.4284">
        <ele>855</ele>
        <time>2022-09-22T09:18:47.408Z</time>
      </trkpt>
      <trkpt lat="44.90382" lon="5.4284">
        <ele>854</ele>
        <time>2022-09-22T09:18:48.408Z</time>
      </trkpt>
      <trkpt lat="44.90382" lon="5.42841">
        <ele>854</ele>
        <time>2022-09-22T09:18:49.408Z</time>
      </trkpt>
      <trkpt lat="44.90382" lon="5.42841">
        <ele>854</ele>
        <time>2022-09-22T09:18:50.408Z</time>
      </trkpt>
      <trkpt lat="44.90382" lon="5.42841">
        <ele>854</ele>
        <time>2022-09-22T09:18:51.408Z</time>
      </trkpt>
      <trkpt lat="44.90382" lon="5.42841">
        <ele>854</ele>
        <time>2022-09-22T09:18:52.408Z</time>
      </trkpt>
      <trkpt lat="44.90382" lon="5.42841">
        <ele>854</ele>
        <time>2022-09-22T09:18:53.408Z</time>
      </trkpt>
      <trkpt lat="44.90382" lon="5.4284">
        <ele>854</ele>
        <time>2022-09-22T09:18:54.408Z</time>
      </trkpt>
      <trkpt lat="44.90382" lon="5.42837">
        <ele>854</ele>
        <time>2022-09-22T09:18:55.408Z</time>
      </trkpt>
      <trkpt lat="44.90382" lon="5.42834">
        <ele>854</ele>
        <time>2022-09-22T09:18:56.408Z</time>
      </trkpt>
      <trkpt lat="44.90383" lon="5.42832">
        <ele>854</ele>
        <time>2022-09-22T09:18:57.408Z</time>
      </trkpt>
      <trkpt lat="44.90383" lon="5.4283">
        <ele>854</ele>
        <time>2022-09-22T09:18:58.408Z</time>
      </trkpt>
      <trkpt lat="44.90383" lon="5.42829">
        <ele>854</ele>
        <time>2022-09-22T09:18:59.408Z</time>
      </trkpt>
      <trkpt lat="44.90384" lon="5.42828">
        <ele>854</ele>
        <time>2022-09-22T09:19:00.408Z</time>
      </trkpt>
      <trkpt lat="44.90383" lon="5.42826">
        <ele>854</ele>
        <time>2022-09-22T09:19:01.408Z</time>
      </trkpt>
      <trkpt lat="44.90384" lon="5.42826">
        <ele>854</ele>
        <time>2022-09-22T09:19:02.408Z</time>
      </trkpt>
      <trkpt lat="44.90384" lon="5.42824">
        <ele>855</ele>
        <time>2022-09-22T09:19:03.408Z</time>
      </trkpt>
      <trkpt lat="44.90384" lon="5.42822">
        <ele>855</ele>
        <time>2022-09-22T09:19:04.407Z</time>
      </trkpt>
      <trkpt lat="44.90385" lon="5.4282">
        <ele>855</ele>
        <time>2022-09-22T09:19:05.408Z</time>
      </trkpt>
      <trkpt lat="44.90386" lon="5.42818">
        <ele>855</ele>
        <time>2022-09-22T09:19:06.408Z</time>
      </trkpt>
      <trkpt lat="44.90387" lon="5.42816">
        <ele>855</ele>
        <time>2022-09-22T09:19:07.408Z</time>
      </trkpt>
      <trkpt lat="44.90388" lon="5.42814">
        <ele>855</ele>
        <time>2022-09-22T09:19:08.408Z</time>
      </trkpt>
      <trkpt lat="44.90389" lon="5.42812">
        <ele>855</ele>
        <time>2022-09-22T09:19:09.408Z</time>
      </trkpt>
      <trkpt lat="44.9039" lon="5.4281">
        <ele>855</ele>
        <time>2022-09-22T09:19:10.407Z</time>
      </trkpt>
      <trkpt lat="44.90391" lon="5.42807">
        <ele>855</ele>
        <time>2022-09-22T09:19:11.408Z</time>
      </trkpt>
      <trkpt lat="44.90391" lon="5.42805">
        <ele>855</ele>
        <time>2022-09-22T09:19:12.408Z</time>
      </trkpt>
      <trkpt lat="44.90392" lon="5.42802">
        <ele>855</ele>
        <time>2022-09-22T09:19:13.408Z</time>
      </trkpt>
      <trkpt lat="44.90393" lon="5.42801">
        <ele>856</ele>
        <time>2022-09-22T09:19:14.408Z</time>
      </trkpt>
      <trkpt lat="44.90395" lon="5.42798">
        <ele>856</ele>
        <time>2022-09-22T09:19:15.407Z</time>
      </trkpt>
      <trkpt lat="44.90397" lon="5.42797">
        <ele>856</ele>
        <time>2022-09-22T09:19:16.408Z</time>
      </trkpt>
      <trkpt lat="44.90401" lon="5.42797">
        <ele>857</ele>
        <time>2022-09-22T09:19:17.408Z</time>
      </trkpt>
      <trkpt lat="44.90404" lon="5.42797">
        <ele>857</ele>
        <time>2022-09-22T09:19:18.407Z</time>
      </trkpt>
      <trkpt lat="44.90405" lon="5.42798">
        <ele>857</ele>
        <time>2022-09-22T09:19:19.408Z</time>
      </trkpt>
      <trkpt lat="44.90408" lon="5.42799">
        <ele>857</ele>
        <time>2022-09-22T09:19:20.408Z</time>
      </trkpt>
      <trkpt lat="44.9041" lon="5.42799">
        <ele>857</ele>
        <time>2022-09-22T09:19:21.408Z</time>
      </trkpt>
      <trkpt lat="44.90412" lon="5.428">
        <ele>857</ele>
        <time>2022-09-22T09:19:22.408Z</time>
      </trkpt>
      <trkpt lat="44.90414" lon="5.42801">
        <ele>857</ele>
        <time>2022-09-22T09:19:23.408Z</time>
      </trkpt>
      <trkpt lat="44.90416" lon="5.42802">
        <ele>857</ele>
        <time>2022-09-22T09:19:24.408Z</time>
      </trkpt>
      <trkpt lat="44.90418" lon="5.42803">
        <ele>858</ele>
        <time>2022-09-22T09:19:25.408Z</time>
      </trkpt>
      <trkpt lat="44.9042" lon="5.42805">
        <ele>858</ele>
        <time>2022-09-22T09:19:26.408Z</time>
      </trkpt>
      <trkpt lat="44.90422" lon="5.42806">
        <ele>858</ele>
        <time>2022-09-22T09:19:27.408Z</time>
      </trkpt>
      <trkpt lat="44.90425" lon="5.42808">
        <ele>858</ele>
        <time>2022-09-22T09:19:28.408Z</time>
      </trkpt>
      <trkpt lat="44.90427" lon="5.42808">
        <ele>858</ele>
        <time>2022-09-22T09:19:29.408Z</time>
      </trkpt>
      <trkpt lat="44.9043" lon="5.42809">
        <ele>858</ele>
        <time>2022-09-22T09:19:30.408Z</time>
      </trkpt>
      <trkpt lat="44.90432" lon="5.4281">
        <ele>858</ele>
        <time>2022-09-22T09:19:31.408Z</time>
      </trkpt>
      <trkpt lat="44.90434" lon="5.42811">
        <ele>857</ele>
        <time>2022-09-22T09:19:32.408Z</time>
      </trkpt>
      <trkpt lat="44.90437" lon="5.42812">
        <ele>857</ele>
        <time>2022-09-22T09:19:33.407Z</time>
      </trkpt>
      <trkpt lat="44.90439" lon="5.42813">
        <ele>857</ele>
        <time>2022-09-22T09:19:34.408Z</time>
      </trkpt>
      <trkpt lat="44.90442" lon="5.42815">
        <ele>857</ele>
        <time>2022-09-22T09:19:35.408Z</time>
      </trkpt>
      <trkpt lat="44.90444" lon="5.42815">
        <ele>857</ele>
        <time>2022-09-22T09:19:36.408Z</time>
      </trkpt>
      <trkpt lat="44.90445" lon="5.42816">
        <ele>857</ele>
        <time>2022-09-22T09:19:37.408Z</time>
      </trkpt>
      <trkpt lat="44.90447" lon="5.42817">
        <ele>857</ele>
        <time>2022-09-22T09:19:38.408Z</time>
      </trkpt>
      <trkpt lat="44.90449" lon="5.42818">
        <ele>857</ele>
        <time>2022-09-22T09:19:39.408Z</time>
      </trkpt>
      <trkpt lat="44.9045" lon="5.42818">
        <ele>856</ele>
        <time>2022-09-22T09:19:40.408Z</time>
      </trkpt>
      <trkpt lat="44.90451" lon="5.42819">
        <ele>856</ele>
        <time>2022-09-22T09:19:41.407Z</time>
      </trkpt>
      <trkpt lat="44.90451" lon="5.4282">
        <ele>856</ele>
        <time>2022-09-22T09:19:42.408Z</time>
      </trkpt>
      <trkpt lat="44.90452" lon="5.42821">
        <ele>856</ele>
        <time>2022-09-22T09:19:43.407Z</time>
      </trkpt>
      <trkpt lat="44.90453" lon="5.42822">
        <ele>857</ele>
        <time>2022-09-22T09:19:44.408Z</time>
      </trkpt>
      <trkpt lat="44.90453" lon="5.42823">
        <ele>857</ele>
        <time>2022-09-22T09:19:45.408Z</time>
      </trkpt>
      <trkpt lat="44.90454" lon="5.42823">
        <ele>857</ele>
        <time>2022-09-22T09:19:46.408Z</time>
      </trkpt>
      <trkpt lat="44.90454" lon="5.42823">
        <ele>858</ele>
        <time>2022-09-22T09:19:47.408Z</time>
      </trkpt>
      <trkpt lat="44.90453" lon="5.42823">
        <ele>857</ele>
        <time>2022-09-22T09:19:48.408Z</time>
      </trkpt>
      <trkpt lat="44.90458" lon="5.42823">
        <ele>855</ele>
        <time>2022-09-22T09:20:18.522Z</time>
      </trkpt>
      <trkpt lat="44.9046" lon="5.42824">
        <ele>855</ele>
        <time>2022-09-22T09:20:19.521Z</time>
      </trkpt>
      <trkpt lat="44.90462" lon="5.42825">
        <ele>855</ele>
        <time>2022-09-22T09:20:20.521Z</time>
      </trkpt>
      <trkpt lat="44.90464" lon="5.42826">
        <ele>855</ele>
        <time>2022-09-22T09:20:21.522Z</time>
      </trkpt>
      <trkpt lat="44.90466" lon="5.42826">
        <ele>855</ele>
        <time>2022-09-22T09:20:22.522Z</time>
      </trkpt>
      <trkpt lat="44.90469" lon="5.42827">
        <ele>856</ele>
        <time>2022-09-22T09:20:23.522Z</time>
      </trkpt>
      <trkpt lat="44.90471" lon="5.42828">
        <ele>856</ele>
        <time>2022-09-22T09:20:24.521Z</time>
      </trkpt>
      <trkpt lat="44.90473" lon="5.42828">
        <ele>856</ele>
        <time>2022-09-22T09:20:25.522Z</time>
      </trkpt>
      <trkpt lat="44.90474" lon="5.42828">
        <ele>856</ele>
        <time>2022-09-22T09:20:26.521Z</time>
      </trkpt>
      <trkpt lat="44.90476" lon="5.42829">
        <ele>856</ele>
        <time>2022-09-22T09:20:27.522Z</time>
      </trkpt>
      <trkpt lat="44.90477" lon="5.4283">
        <ele>856</ele>
        <time>2022-09-22T09:20:28.522Z</time>
      </trkpt>
      <trkpt lat="44.90479" lon="5.42831">
        <ele>856</ele>
        <time>2022-09-22T09:20:29.522Z</time>
      </trkpt>
      <trkpt lat="44.9048" lon="5.42832">
        <ele>856</ele>
        <time>2022-09-22T09:20:30.522Z</time>
      </trkpt>
      <trkpt lat="44.90481" lon="5.42833">
        <ele>856</ele>
        <time>2022-09-22T09:20:31.522Z</time>
      </trkpt>
      <trkpt lat="44.90482" lon="5.42834">
        <ele>855</ele>
        <time>2022-09-22T09:20:32.522Z</time>
      </trkpt>
      <trkpt lat="44.90484" lon="5.42835">
        <ele>856</ele>
        <time>2022-09-22T09:20:33.522Z</time>
      </trkpt>
      <trkpt lat="44.90485" lon="5.42835">
        <ele>856</ele>
        <time>2022-09-22T09:20:34.522Z</time>
      </trkpt>
      <trkpt lat="44.90486" lon="5.42836">
        <ele>856</ele>
        <time>2022-09-22T09:20:35.522Z</time>
      </trkpt>
      <trkpt lat="44.90488" lon="5.42836">
        <ele>856</ele>
        <time>2022-09-22T09:20:36.522Z</time>
      </trkpt>
      <trkpt lat="44.9049" lon="5.42837">
        <ele>855</ele>
        <time>2022-09-22T09:20:37.522Z</time>
      </trkpt>
      <trkpt lat="44.90492" lon="5.42838">
        <ele>855</ele>
        <time>2022-09-22T09:20:38.521Z</time>
      </trkpt>
      <trkpt lat="44.90493" lon="5.42838">
        <ele>855</ele>
        <time>2022-09-22T09:20:39.522Z</time>
      </trkpt>
      <trkpt lat="44.90496" lon="5.42839">
        <ele>855</ele>
        <time>2022-09-22T09:20:40.522Z</time>
      </trkpt>
      <trkpt lat="44.90498" lon="5.4284">
        <ele>855</ele>
        <time>2022-09-22T09:20:41.522Z</time>
      </trkpt>
      <trkpt lat="44.90501" lon="5.42841">
        <ele>855</ele>
        <time>2022-09-22T09:20:42.522Z</time>
      </trkpt>
      <trkpt lat="44.90503" lon="5.42841">
        <ele>855</ele>
        <time>2022-09-22T09:20:43.522Z</time>
      </trkpt>
      <trkpt lat="44.90505" lon="5.42842">
        <ele>855</ele>
        <time>2022-09-22T09:20:44.522Z</time>
      </trkpt>
      <trkpt lat="44.90507" lon="5.42843">
        <ele>855</ele>
        <time>2022-09-22T09:20:45.522Z</time>
      </trkpt>
      <trkpt lat="44.90509" lon="5.42843">
        <ele>855</ele>
        <time>2022-09-22T09:20:46.522Z</time>
      </trkpt>
      <trkpt lat="44.90511" lon="5.42844">
        <ele>855</ele>
        <time>2022-09-22T09:20:47.521Z</time>
      </trkpt>
      <trkpt lat="44.90514" lon="5.42845">
        <ele>855</ele>
        <time>2022-09-22T09:20:48.522Z</time>
      </trkpt>
      <trkpt lat="44.90516" lon="5.42846">
        <ele>855</ele>
        <time>2022-09-22T09:20:49.522Z</time>
      </trkpt>
      <trkpt lat="44.90518" lon="5.42847">
        <ele>855</ele>
        <time>2022-09-22T09:20:50.521Z</time>
      </trkpt>
      <trkpt lat="44.9052" lon="5.42848">
        <ele>855</ele>
        <time>2022-09-22T09:20:51.522Z</time>
      </trkpt>
      <trkpt lat="44.90523" lon="5.42849">
        <ele>855</ele>
        <time>2022-09-22T09:20:52.522Z</time>
      </trkpt>
      <trkpt lat="44.90525" lon="5.4285">
        <ele>855</ele>
        <time>2022-09-22T09:20:53.522Z</time>
      </trkpt>
      <trkpt lat="44.90527" lon="5.4285">
        <ele>855</ele>
        <time>2022-09-22T09:20:54.521Z</time>
      </trkpt>
      <trkpt lat="44.9053" lon="5.42851">
        <ele>855</ele>
        <time>2022-09-22T09:20:55.522Z</time>
      </trkpt>
      <trkpt lat="44.90533" lon="5.42852">
        <ele>855</ele>
        <time>2022-09-22T09:20:56.522Z</time>
      </trkpt>
      <trkpt lat="44.90536" lon="5.42854">
        <ele>855</ele>
        <time>2022-09-22T09:20:57.521Z</time>
      </trkpt>
      <trkpt lat="44.90539" lon="5.42855">
        <ele>856</ele>
        <time>2022-09-22T09:20:58.522Z</time>
      </trkpt>
      <trkpt lat="44.90541" lon="5.42856">
        <ele>856</ele>
        <time>2022-09-22T09:20:59.522Z</time>
      </trkpt>
      <trkpt lat="44.90545" lon="5.42858">
        <ele>856</ele>
        <time>2022-09-22T09:21:00.522Z</time>
      </trkpt>
      <trkpt lat="44.90547" lon="5.42859">
        <ele>857</ele>
        <time>2022-09-22T09:21:01.522Z</time>
      </trkpt>
      <trkpt lat="44.9055" lon="5.4286">
        <ele>857</ele>
        <time>2022-09-22T09:21:02.521Z</time>
      </trkpt>
      <trkpt lat="44.90553" lon="5.42861">
        <ele>857</ele>
        <time>2022-09-22T09:21:03.522Z</time>
      </trkpt>
      <trkpt lat="44.90555" lon="5.42862">
        <ele>857</ele>
        <time>2022-09-22T09:21:04.522Z</time>
      </trkpt>
      <trkpt lat="44.90559" lon="5.42864">
        <ele>858</ele>
        <time>2022-09-22T09:21:05.522Z</time>
      </trkpt>
      <trkpt lat="44.90561" lon="5.42865">
        <ele>858</ele>
        <time>2022-09-22T09:21:06.522Z</time>
      </trkpt>
      <trkpt lat="44.90564" lon="5.42866">
        <ele>858</ele>
        <time>2022-09-22T09:21:07.522Z</time>
      </trkpt>
      <trkpt lat="44.90566" lon="5.42867">
        <ele>858</ele>
        <time>2022-09-22T09:21:08.522Z</time>
      </trkpt>
      <trkpt lat="44.90569" lon="5.42868">
        <ele>858</ele>
        <time>2022-09-22T09:21:09.522Z</time>
      </trkpt>
      <trkpt lat="44.90572" lon="5.42869">
        <ele>858</ele>
        <time>2022-09-22T09:21:10.521Z</time>
      </trkpt>
      <trkpt lat="44.90575" lon="5.4287">
        <ele>858</ele>
        <time>2022-09-22T09:21:11.522Z</time>
      </trkpt>
      <trkpt lat="44.90577" lon="5.42871">
        <ele>858</ele>
        <time>2022-09-22T09:21:12.521Z</time>
      </trkpt>
      <trkpt lat="44.90579" lon="5.42872">
        <ele>857</ele>
        <time>2022-09-22T09:21:13.522Z</time>
      </trkpt>
      <trkpt lat="44.90582" lon="5.42873">
        <ele>857</ele>
        <time>2022-09-22T09:21:14.522Z</time>
      </trkpt>
      <trkpt lat="44.90585" lon="5.42874">
        <ele>857</ele>
        <time>2022-09-22T09:21:15.522Z</time>
      </trkpt>
      <trkpt lat="44.90587" lon="5.42875">
        <ele>857</ele>
        <time>2022-09-22T09:21:16.521Z</time>
      </trkpt>
      <trkpt lat="44.9059" lon="5.42876">
        <ele>857</ele>
        <time>2022-09-22T09:21:17.522Z</time>
      </trkpt>
      <trkpt lat="44.90593" lon="5.42878">
        <ele>857</ele>
        <time>2022-09-22T09:21:18.522Z</time>
      </trkpt>
      <trkpt lat="44.90596" lon="5.42879">
        <ele>857</ele>
        <time>2022-09-22T09:21:19.521Z</time>
      </trkpt>
      <trkpt lat="44.90599" lon="5.4288">
        <ele>857</ele>
        <time>2022-09-22T09:21:20.521Z</time>
      </trkpt>
      <trkpt lat="44.90601" lon="5.4288">
        <ele>857</ele>
        <time>2022-09-22T09:21:21.522Z</time>
      </trkpt>
      <trkpt lat="44.90604" lon="5.42881">
        <ele>857</ele>
        <time>2022-09-22T09:21:22.521Z</time>
      </trkpt>
      <trkpt lat="44.90608" lon="5.42883">
        <ele>857</ele>
        <time>2022-09-22T09:21:23.521Z</time>
      </trkpt>
      <trkpt lat="44.90611" lon="5.42884">
        <ele>857</ele>
        <time>2022-09-22T09:21:24.522Z</time>
      </trkpt>
      <trkpt lat="44.90613" lon="5.42885">
        <ele>858</ele>
        <time>2022-09-22T09:21:25.522Z</time>
      </trkpt>
      <trkpt lat="44.90616" lon="5.42886">
        <ele>858</ele>
        <time>2022-09-22T09:21:26.521Z</time>
      </trkpt>
      <trkpt lat="44.90619" lon="5.42887">
        <ele>858</ele>
        <time>2022-09-22T09:21:27.521Z</time>
      </trkpt>
      <trkpt lat="44.90623" lon="5.42888">
        <ele>858</ele>
        <time>2022-09-22T09:21:28.522Z</time>
      </trkpt>
      <trkpt lat="44.90626" lon="5.42889">
        <ele>857</ele>
        <time>2022-09-22T09:21:29.522Z</time>
      </trkpt>
      <trkpt lat="44.90629" lon="5.4289">
        <ele>857</ele>
        <time>2022-09-22T09:21:30.521Z</time>
      </trkpt>
      <trkpt lat="44.90633" lon="5.42892">
        <ele>857</ele>
        <time>2022-09-22T09:21:31.522Z</time>
      </trkpt>
      <trkpt lat="44.90637" lon="5.42893">
        <ele>858</ele>
        <time>2022-09-22T09:21:32.522Z</time>
      </trkpt>
      <trkpt lat="44.90642" lon="5.42895">
        <ele>858</ele>
        <time>2022-09-22T09:21:33.522Z</time>
      </trkpt>
      <trkpt lat="44.90646" lon="5.42897">
        <ele>859</ele>
        <time>2022-09-22T09:21:34.522Z</time>
      </trkpt>
      <trkpt lat="44.9065" lon="5.42899">
        <ele>859</ele>
        <time>2022-09-22T09:21:35.522Z</time>
      </trkpt>
      <trkpt lat="44.90656" lon="5.42901">
        <ele>860</ele>
        <time>2022-09-22T09:21:36.521Z</time>
      </trkpt>
      <trkpt lat="44.90661" lon="5.42903">
        <ele>859</ele>
        <time>2022-09-22T09:21:37.522Z</time>
      </trkpt>
      <trkpt lat="44.90665" lon="5.42904">
        <ele>859</ele>
        <time>2022-09-22T09:21:38.522Z</time>
      </trkpt>
      <trkpt lat="44.90672" lon="5.42907">
        <ele>859</ele>
        <time>2022-09-22T09:21:39.522Z</time>
      </trkpt>
      <trkpt lat="44.90677" lon="5.42908">
        <ele>858</ele>
        <time>2022-09-22T09:21:40.522Z</time>
      </trkpt>
      <trkpt lat="44.90684" lon="5.42909">
        <ele>858</ele>
        <time>2022-09-22T09:21:41.522Z</time>
      </trkpt>
      <trkpt lat="44.90689" lon="5.4291">
        <ele>858</ele>
        <time>2022-09-22T09:21:42.521Z</time>
      </trkpt>
      <trkpt lat="44.90695" lon="5.42911">
        <ele>857</ele>
        <time>2022-09-22T09:21:43.522Z</time>
      </trkpt>
      <trkpt lat="44.907" lon="5.42911">
        <ele>857</ele>
        <time>2022-09-22T09:21:44.522Z</time>
      </trkpt>
      <trkpt lat="44.90707" lon="5.42912">
        <ele>856</ele>
        <time>2022-09-22T09:21:45.522Z</time>
      </trkpt>
      <trkpt lat="44.90714" lon="5.42912">
        <ele>856</ele>
        <time>2022-09-22T09:21:46.521Z</time>
      </trkpt>
      <trkpt lat="44.90721" lon="5.42912">
        <ele>855</ele>
        <time>2022-09-22T09:21:47.521Z</time>
      </trkpt>
      <trkpt lat="44.90728" lon="5.42912">
        <ele>855</ele>
        <time>2022-09-22T09:21:48.522Z</time>
      </trkpt>
      <trkpt lat="44.90734" lon="5.42911">
        <ele>854</ele>
        <time>2022-09-22T09:21:49.521Z</time>
      </trkpt>
      <trkpt lat="44.90744" lon="5.4291">
        <ele>854</ele>
        <time>2022-09-22T09:21:50.522Z</time>
      </trkpt>
      <trkpt lat="44.90752" lon="5.42908">
        <ele>854</ele>
        <time>2022-09-22T09:21:51.522Z</time>
      </trkpt>
      <trkpt lat="44.9076" lon="5.42906">
        <ele>854</ele>
        <time>2022-09-22T09:21:52.522Z</time>
      </trkpt>
      <trkpt lat="44.90766" lon="5.42905">
        <ele>853</ele>
        <time>2022-09-22T09:21:53.522Z</time>
      </trkpt>
      <trkpt lat="44.90775" lon="5.42901">
        <ele>853</ele>
        <time>2022-09-22T09:21:54.522Z</time>
      </trkpt>
      <trkpt lat="44.90782" lon="5.42899">
        <ele>853</ele>
        <time>2022-09-22T09:21:55.522Z</time>
      </trkpt>
      <trkpt lat="44.90789" lon="5.42896">
        <ele>852</ele>
        <time>2022-09-22T09:21:56.521Z</time>
      </trkpt>
      <trkpt lat="44.90796" lon="5.42892">
        <ele>852</ele>
        <time>2022-09-22T09:21:57.521Z</time>
      </trkpt>
      <trkpt lat="44.90803" lon="5.42887">
        <ele>852</ele>
        <time>2022-09-22T09:21:58.521Z</time>
      </trkpt>
      <trkpt lat="44.90809" lon="5.42882">
        <ele>852</ele>
        <time>2022-09-22T09:21:59.522Z</time>
      </trkpt>
      <trkpt lat="44.90815" lon="5.42878">
        <ele>852</ele>
        <time>2022-09-22T09:22:00.522Z</time>
      </trkpt>
      <trkpt lat="44.90821" lon="5.42875">
        <ele>852</ele>
        <time>2022-09-22T09:22:01.522Z</time>
      </trkpt>
      <trkpt lat="44.90826" lon="5.42872">
        <ele>852</ele>
        <time>2022-09-22T09:22:02.522Z</time>
      </trkpt>
      <trkpt lat="44.90831" lon="5.42869">
        <ele>852</ele>
        <time>2022-09-22T09:22:03.522Z</time>
      </trkpt>
      <trkpt lat="44.90837" lon="5.42866">
        <ele>852</ele>
        <time>2022-09-22T09:22:04.522Z</time>
      </trkpt>
      <trkpt lat="44.90842" lon="5.42864">
        <ele>852</ele>
        <time>2022-09-22T09:22:05.522Z</time>
      </trkpt>
      <trkpt lat="44.90847" lon="5.42863">
        <ele>852</ele>
        <time>2022-09-22T09:22:06.522Z</time>
      </trkpt>
      <trkpt lat="44.90852" lon="5.42865">
        <ele>851</ele>
        <time>2022-09-22T09:22:07.522Z</time>
      </trkpt>
      <trkpt lat="44.90859" lon="5.42865">
        <ele>851</ele>
        <time>2022-09-22T09:22:08.522Z</time>
      </trkpt>
      <trkpt lat="44.90866" lon="5.42866">
        <ele>850</ele>
        <time>2022-09-22T09:22:09.522Z</time>
      </trkpt>
      <trkpt lat="44.90871" lon="5.42866">
        <ele>850</ele>
        <time>2022-09-22T09:22:10.522Z</time>
      </trkpt>
      <trkpt lat="44.90876" lon="5.42867">
        <ele>849</ele>
        <time>2022-09-22T09:22:11.522Z</time>
      </trkpt>
      <trkpt lat="44.90883" lon="5.42869">
        <ele>849</ele>
        <time>2022-09-22T09:22:12.522Z</time>
      </trkpt>
      <trkpt lat="44.9089" lon="5.42871">
        <ele>848</ele>
        <time>2022-09-22T09:22:13.521Z</time>
      </trkpt>
      <trkpt lat="44.90897" lon="5.42872">
        <ele>847</ele>
        <time>2022-09-22T09:22:14.522Z</time>
      </trkpt>
      <trkpt lat="44.90905" lon="5.42872">
        <ele>847</ele>
        <time>2022-09-22T09:22:15.522Z</time>
      </trkpt>
      <trkpt lat="44.90911" lon="5.42871">
        <ele>846</ele>
        <time>2022-09-22T09:22:16.522Z</time>
      </trkpt>
      <trkpt lat="44.90922" lon="5.42869">
        <ele>845</ele>
        <time>2022-09-22T09:22:17.522Z</time>
      </trkpt>
      <trkpt lat="44.90931" lon="5.42866">
        <ele>845</ele>
        <time>2022-09-22T09:22:18.522Z</time>
      </trkpt>
      <trkpt lat="44.9094" lon="5.42863">
        <ele>844</ele>
        <time>2022-09-22T09:22:19.521Z</time>
      </trkpt>
      <trkpt lat="44.90947" lon="5.42861">
        <ele>844</ele>
        <time>2022-09-22T09:22:20.522Z</time>
      </trkpt>
      <trkpt lat="44.90956" lon="5.42859">
        <ele>843</ele>
        <time>2022-09-22T09:22:21.521Z</time>
      </trkpt>
      <trkpt lat="44.90967" lon="5.42858">
        <ele>842</ele>
        <time>2022-09-22T09:22:22.522Z</time>
      </trkpt>
      <trkpt lat="44.90976" lon="5.42857">
        <ele>841</ele>
        <time>2022-09-22T09:22:23.521Z</time>
      </trkpt>
      <trkpt lat="44.90984" lon="5.42857">
        <ele>841</ele>
        <time>2022-09-22T09:22:24.521Z</time>
      </trkpt>
      <trkpt lat="44.90991" lon="5.42856">
        <ele>840</ele>
        <time>2022-09-22T09:22:25.522Z</time>
      </trkpt>
      <trkpt lat="44.91001" lon="5.42854">
        <ele>839</ele>
        <time>2022-09-22T09:22:26.522Z</time>
      </trkpt>
      <trkpt lat="44.91009" lon="5.42852">
        <ele>839</ele>
        <time>2022-09-22T09:22:27.522Z</time>
      </trkpt>
      <trkpt lat="44.91017" lon="5.42851">
        <ele>839</ele>
        <time>2022-09-22T09:22:28.521Z</time>
      </trkpt>
      <trkpt lat="44.91024" lon="5.4285">
        <ele>838</ele>
        <time>2022-09-22T09:22:29.522Z</time>
      </trkpt>
      <trkpt lat="44.91032" lon="5.42849">
        <ele>838</ele>
        <time>2022-09-22T09:22:30.522Z</time>
      </trkpt>
      <trkpt lat="44.91039" lon="5.42849">
        <ele>837</ele>
        <time>2022-09-22T09:22:31.522Z</time>
      </trkpt>
      <trkpt lat="44.91046" lon="5.4285">
        <ele>837</ele>
        <time>2022-09-22T09:22:32.522Z</time>
      </trkpt>
      <trkpt lat="44.91053" lon="5.42849">
        <ele>837</ele>
        <time>2022-09-22T09:22:33.521Z</time>
      </trkpt>
      <trkpt lat="44.9106" lon="5.4285">
        <ele>836</ele>
        <time>2022-09-22T09:22:34.521Z</time>
      </trkpt>
      <trkpt lat="44.91067" lon="5.4285">
        <ele>835</ele>
        <time>2022-09-22T09:22:35.522Z</time>
      </trkpt>
      <trkpt lat="44.91073" lon="5.42851">
        <ele>835</ele>
        <time>2022-09-22T09:22:36.522Z</time>
      </trkpt>
      <trkpt lat="44.91078" lon="5.42852">
        <ele>834</ele>
        <time>2022-09-22T09:22:37.522Z</time>
      </trkpt>
      <trkpt lat="44.91084" lon="5.42854">
        <ele>834</ele>
        <time>2022-09-22T09:22:38.522Z</time>
      </trkpt>
      <trkpt lat="44.91089" lon="5.42855">
        <ele>833</ele>
        <time>2022-09-22T09:22:39.521Z</time>
      </trkpt>
      <trkpt lat="44.91096" lon="5.42857">
        <ele>833</ele>
        <time>2022-09-22T09:22:40.522Z</time>
      </trkpt>
      <trkpt lat="44.91102" lon="5.42858">
        <ele>832</ele>
        <time>2022-09-22T09:22:41.522Z</time>
      </trkpt>
      <trkpt lat="44.91107" lon="5.42859">
        <ele>832</ele>
        <time>2022-09-22T09:22:42.522Z</time>
      </trkpt>
      <trkpt lat="44.91114" lon="5.4286">
        <ele>831</ele>
        <time>2022-09-22T09:22:43.522Z</time>
      </trkpt>
      <trkpt lat="44.9112" lon="5.42861">
        <ele>831</ele>
        <time>2022-09-22T09:22:44.522Z</time>
      </trkpt>
      <trkpt lat="44.91128" lon="5.42862">
        <ele>830</ele>
        <time>2022-09-22T09:22:45.522Z</time>
      </trkpt>
      <trkpt lat="44.91133" lon="5.42863">
        <ele>829</ele>
        <time>2022-09-22T09:22:46.522Z</time>
      </trkpt>
      <trkpt lat="44.91139" lon="5.42863">
        <ele>828</ele>
        <time>2022-09-22T09:22:47.522Z</time>
      </trkpt>
      <trkpt lat="44.91143" lon="5.42863">
        <ele>827</ele>
        <time>2022-09-22T09:22:48.521Z</time>
      </trkpt>
      <trkpt lat="44.91149" lon="5.42864">
        <ele>826</ele>
        <time>2022-09-22T09:22:49.522Z</time>
      </trkpt>
      <trkpt lat="44.91155" lon="5.42865">
        <ele>826</ele>
        <time>2022-09-22T09:22:50.522Z</time>
      </trkpt>
      <trkpt lat="44.91161" lon="5.42867">
        <ele>825</ele>
        <time>2022-09-22T09:22:51.522Z</time>
      </trkpt>
      <trkpt lat="44.91166" lon="5.42868">
        <ele>825</ele>
        <time>2022-09-22T09:22:52.522Z</time>
      </trkpt>
      <trkpt lat="44.91171" lon="5.4287">
        <ele>824</ele>
        <time>2022-09-22T09:22:53.521Z</time>
      </trkpt>
      <trkpt lat="44.91178" lon="5.42872">
        <ele>824</ele>
        <time>2022-09-22T09:22:54.521Z</time>
      </trkpt>
      <trkpt lat="44.91182" lon="5.42874">
        <ele>824</ele>
        <time>2022-09-22T09:22:55.522Z</time>
      </trkpt>
      <trkpt lat="44.91187" lon="5.42876">
        <ele>824</ele>
        <time>2022-09-22T09:22:56.522Z</time>
      </trkpt>
      <trkpt lat="44.9119" lon="5.42877">
        <ele>824</ele>
        <time>2022-09-22T09:22:57.522Z</time>
      </trkpt>
      <trkpt lat="44.91193" lon="5.4288">
        <ele>824</ele>
        <time>2022-09-22T09:22:58.522Z</time>
      </trkpt>
      <trkpt lat="44.91198" lon="5.42883">
        <ele>824</ele>
        <time>2022-09-22T09:22:59.522Z</time>
      </trkpt>
      <trkpt lat="44.91201" lon="5.42885">
        <ele>823</ele>
        <time>2022-09-22T09:23:00.522Z</time>
      </trkpt>
      <trkpt lat="44.91205" lon="5.42887">
        <ele>823</ele>
        <time>2022-09-22T09:23:01.522Z</time>
      </trkpt>
      <trkpt lat="44.91207" lon="5.42889">
        <ele>823</ele>
        <time>2022-09-22T09:23:02.522Z</time>
      </trkpt>
      <trkpt lat="44.91211" lon="5.42893">
        <ele>824</ele>
        <time>2022-09-22T09:23:03.522Z</time>
      </trkpt>
      <trkpt lat="44.91214" lon="5.42895">
        <ele>824</ele>
        <time>2022-09-22T09:23:04.522Z</time>
      </trkpt>
      <trkpt lat="44.91217" lon="5.42898">
        <ele>823</ele>
        <time>2022-09-22T09:23:05.521Z</time>
      </trkpt>
      <trkpt lat="44.91219" lon="5.42901">
        <ele>823</ele>
        <time>2022-09-22T09:23:06.522Z</time>
      </trkpt>
      <trkpt lat="44.91222" lon="5.42904">
        <ele>823</ele>
        <time>2022-09-22T09:23:07.522Z</time>
      </trkpt>
      <trkpt lat="44.91226" lon="5.42908">
        <ele>823</ele>
        <time>2022-09-22T09:23:08.521Z</time>
      </trkpt>
      <trkpt lat="44.91229" lon="5.42911">
        <ele>823</ele>
        <time>2022-09-22T09:23:09.521Z</time>
      </trkpt>
      <trkpt lat="44.91231" lon="5.42914">
        <ele>823</ele>
        <time>2022-09-22T09:23:10.521Z</time>
      </trkpt>
      <trkpt lat="44.91233" lon="5.42917">
        <ele>823</ele>
        <time>2022-09-22T09:23:11.522Z</time>
      </trkpt>
      <trkpt lat="44.91237" lon="5.4292">
        <ele>824</ele>
        <time>2022-09-22T09:23:12.522Z</time>
      </trkpt>
      <trkpt lat="44.9124" lon="5.42923">
        <ele>824</ele>
        <time>2022-09-22T09:23:13.521Z</time>
      </trkpt>
      <trkpt lat="44.91243" lon="5.42926">
        <ele>824</ele>
        <time>2022-09-22T09:23:14.522Z</time>
      </trkpt>
      <trkpt lat="44.91246" lon="5.42929">
        <ele>824</ele>
        <time>2022-09-22T09:23:15.521Z</time>
      </trkpt>
      <trkpt lat="44.91248" lon="5.42931">
        <ele>824</ele>
        <time>2022-09-22T09:23:16.521Z</time>
      </trkpt>
      <trkpt lat="44.91251" lon="5.42934">
        <ele>824</ele>
        <time>2022-09-22T09:23:17.522Z</time>
      </trkpt>
      <trkpt lat="44.91254" lon="5.42938">
        <ele>824</ele>
        <time>2022-09-22T09:23:18.522Z</time>
      </trkpt>
      <trkpt lat="44.91257" lon="5.42941">
        <ele>824</ele>
        <time>2022-09-22T09:23:19.522Z</time>
      </trkpt>
      <trkpt lat="44.9126" lon="5.42944">
        <ele>825</ele>
        <time>2022-09-22T09:23:20.522Z</time>
      </trkpt>
      <trkpt lat="44.91263" lon="5.42947">
        <ele>825</ele>
        <time>2022-09-22T09:23:21.521Z</time>
      </trkpt>
      <trkpt lat="44.91266" lon="5.42951">
        <ele>825</ele>
        <time>2022-09-22T09:23:22.522Z</time>
      </trkpt>
      <trkpt lat="44.91268" lon="5.42954">
        <ele>825</ele>
        <time>2022-09-22T09:23:23.521Z</time>
      </trkpt>
      <trkpt lat="44.91271" lon="5.42957">
        <ele>825</ele>
        <time>2022-09-22T09:23:24.521Z</time>
      </trkpt>
      <trkpt lat="44.91274" lon="5.4296">
        <ele>825</ele>
        <time>2022-09-22T09:23:25.522Z</time>
      </trkpt>
      <trkpt lat="44.91277" lon="5.42962">
        <ele>825</ele>
        <time>2022-09-22T09:23:26.522Z</time>
      </trkpt>
      <trkpt lat="44.91281" lon="5.42966">
        <ele>825</ele>
        <time>2022-09-22T09:23:27.522Z</time>
      </trkpt>
      <trkpt lat="44.91283" lon="5.42969">
        <ele>826</ele>
        <time>2022-09-22T09:23:28.522Z</time>
      </trkpt>
      <trkpt lat="44.91286" lon="5.42971">
        <ele>826</ele>
        <time>2022-09-22T09:23:29.522Z</time>
      </trkpt>
      <trkpt lat="44.91289" lon="5.42973">
        <ele>826</ele>
        <time>2022-09-22T09:23:30.522Z</time>
      </trkpt>
      <trkpt lat="44.91292" lon="5.42976">
        <ele>826</ele>
        <time>2022-09-22T09:23:31.522Z</time>
      </trkpt>
      <trkpt lat="44.91296" lon="5.42979">
        <ele>827</ele>
        <time>2022-09-22T09:23:32.522Z</time>
      </trkpt>
      <trkpt lat="44.91298" lon="5.42981">
        <ele>826</ele>
        <time>2022-09-22T09:23:33.522Z</time>
      </trkpt>
      <trkpt lat="44.91301" lon="5.42984">
        <ele>826</ele>
        <time>2022-09-22T09:23:34.522Z</time>
      </trkpt>
      <trkpt lat="44.91304" lon="5.42987">
        <ele>827</ele>
        <time>2022-09-22T09:23:35.521Z</time>
      </trkpt>
      <trkpt lat="44.91307" lon="5.4299">
        <ele>826</ele>
        <time>2022-09-22T09:23:36.522Z</time>
      </trkpt>
      <trkpt lat="44.9131" lon="5.42992">
        <ele>826</ele>
        <time>2022-09-22T09:23:37.522Z</time>
      </trkpt>
      <trkpt lat="44.91312" lon="5.42995">
        <ele>827</ele>
        <time>2022-09-22T09:23:38.521Z</time>
      </trkpt>
      <trkpt lat="44.91315" lon="5.42997">
        <ele>827</ele>
        <time>2022-09-22T09:23:39.522Z</time>
      </trkpt>
      <trkpt lat="44.91319" lon="5.43">
        <ele>827</ele>
        <time>2022-09-22T09:23:40.522Z</time>
      </trkpt>
      <trkpt lat="44.91322" lon="5.43003">
        <ele>827</ele>
        <time>2022-09-22T09:23:41.522Z</time>
      </trkpt>
      <trkpt lat="44.91324" lon="5.43005">
        <ele>827</ele>
        <time>2022-09-22T09:23:42.522Z</time>
      </trkpt>
      <trkpt lat="44.91327" lon="5.43008">
        <ele>827</ele>
        <time>2022-09-22T09:23:43.521Z</time>
      </trkpt>
      <trkpt lat="44.9133" lon="5.43011">
        <ele>828</ele>
        <time>2022-09-22T09:23:44.522Z</time>
      </trkpt>
      <trkpt lat="44.91333" lon="5.43014">
        <ele>828</ele>
        <time>2022-09-22T09:23:45.522Z</time>
      </trkpt>
      <trkpt lat="44.91336" lon="5.43017">
        <ele>828</ele>
        <time>2022-09-22T09:23:46.522Z</time>
      </trkpt>
      <trkpt lat="44.91338" lon="5.4302">
        <ele>828</ele>
        <time>2022-09-22T09:23:47.522Z</time>
      </trkpt>
      <trkpt lat="44.91341" lon="5.43023">
        <ele>828</ele>
        <time>2022-09-22T09:23:48.522Z</time>
      </trkpt>
      <trkpt lat="44.91344" lon="5.43025">
        <ele>828</ele>
        <time>2022-09-22T09:23:49.522Z</time>
      </trkpt>
      <trkpt lat="44.91347" lon="5.43028">
        <ele>827</ele>
        <time>2022-09-22T09:23:50.521Z</time>
      </trkpt>
      <trkpt lat="44.91349" lon="5.43031">
        <ele>827</ele>
        <time>2022-09-22T09:23:51.521Z</time>
      </trkpt>
      <trkpt lat="44.91352" lon="5.43034">
        <ele>827</ele>
        <time>2022-09-22T09:23:52.521Z</time>
      </trkpt>
      <trkpt lat="44.91355" lon="5.43037">
        <ele>827</ele>
        <time>2022-09-22T09:23:53.522Z</time>
      </trkpt>
      <trkpt lat="44.91357" lon="5.43039">
        <ele>827</ele>
        <time>2022-09-22T09:23:54.521Z</time>
      </trkpt>
      <trkpt lat="44.9136" lon="5.43042">
        <ele>827</ele>
        <time>2022-09-22T09:23:55.521Z</time>
      </trkpt>
      <trkpt lat="44.91362" lon="5.43044">
        <ele>827</ele>
        <time>2022-09-22T09:23:56.521Z</time>
      </trkpt>
      <trkpt lat="44.91364" lon="5.43047">
        <ele>827</ele>
        <time>2022-09-22T09:23:57.521Z</time>
      </trkpt>
      <trkpt lat="44.91367" lon="5.4305">
        <ele>827</ele>
        <time>2022-09-22T09:23:58.522Z</time>
      </trkpt>
      <trkpt lat="44.91369" lon="5.43053">
        <ele>827</ele>
        <time>2022-09-22T09:23:59.521Z</time>
      </trkpt>
      <trkpt lat="44.91372" lon="5.43055">
        <ele>828</ele>
        <time>2022-09-22T09:24:00.522Z</time>
      </trkpt>
      <trkpt lat="44.91374" lon="5.43058">
        <ele>828</ele>
        <time>2022-09-22T09:24:01.522Z</time>
      </trkpt>
      <trkpt lat="44.91377" lon="5.43061">
        <ele>828</ele>
        <time>2022-09-22T09:24:02.521Z</time>
      </trkpt>
      <trkpt lat="44.91379" lon="5.43064">
        <ele>828</ele>
        <time>2022-09-22T09:24:03.522Z</time>
      </trkpt>
      <trkpt lat="44.91381" lon="5.43066">
        <ele>829</ele>
        <time>2022-09-22T09:24:04.522Z</time>
      </trkpt>
      <trkpt lat="44.91383" lon="5.43069">
        <ele>829</ele>
        <time>2022-09-22T09:24:05.522Z</time>
      </trkpt>
      <trkpt lat="44.91385" lon="5.43071">
        <ele>828</ele>
        <time>2022-09-22T09:24:06.522Z</time>
      </trkpt>
      <trkpt lat="44.91387" lon="5.43073">
        <ele>828</ele>
        <time>2022-09-22T09:24:07.522Z</time>
      </trkpt>
      <trkpt lat="44.9139" lon="5.43076">
        <ele>828</ele>
        <time>2022-09-22T09:24:08.522Z</time>
      </trkpt>
      <trkpt lat="44.91392" lon="5.43078">
        <ele>829</ele>
        <time>2022-09-22T09:24:09.522Z</time>
      </trkpt>
      <trkpt lat="44.91395" lon="5.43081">
        <ele>829</ele>
        <time>2022-09-22T09:24:10.522Z</time>
      </trkpt>
      <trkpt lat="44.91396" lon="5.43083">
        <ele>828</ele>
        <time>2022-09-22T09:24:11.522Z</time>
      </trkpt>
      <trkpt lat="44.91399" lon="5.43086">
        <ele>828</ele>
        <time>2022-09-22T09:24:12.522Z</time>
      </trkpt>
      <trkpt lat="44.91401" lon="5.43088">
        <ele>829</ele>
        <time>2022-09-22T09:24:13.522Z</time>
      </trkpt>
      <trkpt lat="44.91403" lon="5.4309">
        <ele>829</ele>
        <time>2022-09-22T09:24:14.522Z</time>
      </trkpt>
      <trkpt lat="44.91405" lon="5.43093">
        <ele>829</ele>
        <time>2022-09-22T09:24:15.522Z</time>
      </trkpt>
      <trkpt lat="44.91407" lon="5.43095">
        <ele>830</ele>
        <time>2022-09-22T09:24:16.521Z</time>
      </trkpt>
      <trkpt lat="44.91409" lon="5.43097">
        <ele>830</ele>
        <time>2022-09-22T09:24:17.521Z</time>
      </trkpt>
      <trkpt lat="44.91411" lon="5.431">
        <ele>830</ele>
        <time>2022-09-22T09:24:18.521Z</time>
      </trkpt>
      <trkpt lat="44.91413" lon="5.43102">
        <ele>830</ele>
        <time>2022-09-22T09:24:19.522Z</time>
      </trkpt>
      <trkpt lat="44.91415" lon="5.43104">
        <ele>830</ele>
        <time>2022-09-22T09:24:20.522Z</time>
      </trkpt>
      <trkpt lat="44.91418" lon="5.43107">
        <ele>830</ele>
        <time>2022-09-22T09:24:21.522Z</time>
      </trkpt>
      <trkpt lat="44.9142" lon="5.43109">
        <ele>830</ele>
        <time>2022-09-22T09:24:22.522Z</time>
      </trkpt>
      <trkpt lat="44.91422" lon="5.43111">
        <ele>830</ele>
        <time>2022-09-22T09:24:23.522Z</time>
      </trkpt>
      <trkpt lat="44.91424" lon="5.43113">
        <ele>830</ele>
        <time>2022-09-22T09:24:24.522Z</time>
      </trkpt>
      <trkpt lat="44.91426" lon="5.43115">
        <ele>831</ele>
        <time>2022-09-22T09:24:25.521Z</time>
      </trkpt>
      <trkpt lat="44.91428" lon="5.43117">
        <ele>831</ele>
        <time>2022-09-22T09:24:26.521Z</time>
      </trkpt>
      <trkpt lat="44.91431" lon="5.4312">
        <ele>831</ele>
        <time>2022-09-22T09:24:27.522Z</time>
      </trkpt>
      <trkpt lat="44.91433" lon="5.43122">
        <ele>832</ele>
        <time>2022-09-22T09:24:28.522Z</time>
      </trkpt>
      <trkpt lat="44.91435" lon="5.43124">
        <ele>832</ele>
        <time>2022-09-22T09:24:29.522Z</time>
      </trkpt>
      <trkpt lat="44.91436" lon="5.43126">
        <ele>832</ele>
        <time>2022-09-22T09:24:30.522Z</time>
      </trkpt>
      <trkpt lat="44.91438" lon="5.43128">
        <ele>832</ele>
        <time>2022-09-22T09:24:31.522Z</time>
      </trkpt>
      <trkpt lat="44.9144" lon="5.43131">
        <ele>833</ele>
        <time>2022-09-22T09:24:32.522Z</time>
      </trkpt>
      <trkpt lat="44.91442" lon="5.43133">
        <ele>833</ele>
        <time>2022-09-22T09:24:33.522Z</time>
      </trkpt>
      <trkpt lat="44.91444" lon="5.43135">
        <ele>833</ele>
        <time>2022-09-22T09:24:34.522Z</time>
      </trkpt>
      <trkpt lat="44.91446" lon="5.43137">
        <ele>834</ele>
        <time>2022-09-22T09:24:35.521Z</time>
      </trkpt>
      <trkpt lat="44.91448" lon="5.43139">
        <ele>834</ele>
        <time>2022-09-22T09:24:36.522Z</time>
      </trkpt>
      <trkpt lat="44.9145" lon="5.43141">
        <ele>834</ele>
        <time>2022-09-22T09:24:37.522Z</time>
      </trkpt>
      <trkpt lat="44.91452" lon="5.43143">
        <ele>834</ele>
        <time>2022-09-22T09:24:38.522Z</time>
      </trkpt>
      <trkpt lat="44.91454" lon="5.43145">
        <ele>835</ele>
        <time>2022-09-22T09:24:39.522Z</time>
      </trkpt>
      <trkpt lat="44.91455" lon="5.43147">
        <ele>836</ele>
        <time>2022-09-22T09:24:40.521Z</time>
      </trkpt>
      <trkpt lat="44.91457" lon="5.43149">
        <ele>836</ele>
        <time>2022-09-22T09:24:41.521Z</time>
      </trkpt>
      <trkpt lat="44.91458" lon="5.43151">
        <ele>837</ele>
        <time>2022-09-22T09:24:42.522Z</time>
      </trkpt>
      <trkpt lat="44.9146" lon="5.43153">
        <ele>837</ele>
        <time>2022-09-22T09:24:43.522Z</time>
      </trkpt>
      <trkpt lat="44.91462" lon="5.43155">
        <ele>837</ele>
        <time>2022-09-22T09:24:44.522Z</time>
      </trkpt>
      <trkpt lat="44.91463" lon="5.43156">
        <ele>837</ele>
        <time>2022-09-22T09:24:45.522Z</time>
      </trkpt>
      <trkpt lat="44.91464" lon="5.43158">
        <ele>837</ele>
        <time>2022-09-22T09:24:46.522Z</time>
      </trkpt>
      <trkpt lat="44.91466" lon="5.4316">
        <ele>836</ele>
        <time>2022-09-22T09:24:47.522Z</time>
      </trkpt>
      <trkpt lat="44.91467" lon="5.43161">
        <ele>836</ele>
        <time>2022-09-22T09:24:48.521Z</time>
      </trkpt>
      <trkpt lat="44.91469" lon="5.43163">
        <ele>836</ele>
        <time>2022-09-22T09:24:49.522Z</time>
      </trkpt>
      <trkpt lat="44.9147" lon="5.43165">
        <ele>836</ele>
        <time>2022-09-22T09:24:50.522Z</time>
      </trkpt>
      <trkpt lat="44.91472" lon="5.43167">
        <ele>836</ele>
        <time>2022-09-22T09:24:51.522Z</time>
      </trkpt>
      <trkpt lat="44.91474" lon="5.43168">
        <ele>836</ele>
        <time>2022-09-22T09:24:52.521Z</time>
      </trkpt>
      <trkpt lat="44.91475" lon="5.4317">
        <ele>836</ele>
        <time>2022-09-22T09:24:53.522Z</time>
      </trkpt>
      <trkpt lat="44.91477" lon="5.43172">
        <ele>835</ele>
        <time>2022-09-22T09:24:54.521Z</time>
      </trkpt>
      <trkpt lat="44.91479" lon="5.43174">
        <ele>835</ele>
        <time>2022-09-22T09:24:55.522Z</time>
      </trkpt>
      <trkpt lat="44.91481" lon="5.43176">
        <ele>835</ele>
        <time>2022-09-22T09:24:56.521Z</time>
      </trkpt>
      <trkpt lat="44.91483" lon="5.43178">
        <ele>835</ele>
        <time>2022-09-22T09:24:57.521Z</time>
      </trkpt>
      <trkpt lat="44.91484" lon="5.4318">
        <ele>835</ele>
        <time>2022-09-22T09:24:58.522Z</time>
      </trkpt>
      <trkpt lat="44.91486" lon="5.43181">
        <ele>836</ele>
        <time>2022-09-22T09:24:59.522Z</time>
      </trkpt>
      <trkpt lat="44.91488" lon="5.43183">
        <ele>836</ele>
        <time>2022-09-22T09:25:00.521Z</time>
      </trkpt>
      <trkpt lat="44.91489" lon="5.43185">
        <ele>837</ele>
        <time>2022-09-22T09:25:01.522Z</time>
      </trkpt>
      <trkpt lat="44.91491" lon="5.43187">
        <ele>837</ele>
        <time>2022-09-22T09:25:02.522Z</time>
      </trkpt>
      <trkpt lat="44.91493" lon="5.43189">
        <ele>837</ele>
        <time>2022-09-22T09:25:03.522Z</time>
      </trkpt>
      <trkpt lat="44.91494" lon="5.4319">
        <ele>837</ele>
        <time>2022-09-22T09:25:04.521Z</time>
      </trkpt>
      <trkpt lat="44.91496" lon="5.43192">
        <ele>837</ele>
        <time>2022-09-22T09:25:05.522Z</time>
      </trkpt>
      <trkpt lat="44.91498" lon="5.43194">
        <ele>838</ele>
        <time>2022-09-22T09:25:06.521Z</time>
      </trkpt>
      <trkpt lat="44.91499" lon="5.43196">
        <ele>838</ele>
        <time>2022-09-22T09:25:07.521Z</time>
      </trkpt>
      <trkpt lat="44.91501" lon="5.43197">
        <ele>838</ele>
        <time>2022-09-22T09:25:08.522Z</time>
      </trkpt>
      <trkpt lat="44.91502" lon="5.43199">
        <ele>838</ele>
        <time>2022-09-22T09:25:09.522Z</time>
      </trkpt>
      <trkpt lat="44.91504" lon="5.43201">
        <ele>837</ele>
        <time>2022-09-22T09:25:10.522Z</time>
      </trkpt>
      <trkpt lat="44.91505" lon="5.43202">
        <ele>837</ele>
        <time>2022-09-22T09:25:11.521Z</time>
      </trkpt>
      <trkpt lat="44.91507" lon="5.43205">
        <ele>838</ele>
        <time>2022-09-22T09:25:12.522Z</time>
      </trkpt>
      <trkpt lat="44.91508" lon="5.43206">
        <ele>838</ele>
        <time>2022-09-22T09:25:13.522Z</time>
      </trkpt>
      <trkpt lat="44.9151" lon="5.43208">
        <ele>838</ele>
        <time>2022-09-22T09:25:14.522Z</time>
      </trkpt>
      <trkpt lat="44.91512" lon="5.4321">
        <ele>838</ele>
        <time>2022-09-22T09:25:15.521Z</time>
      </trkpt>
      <trkpt lat="44.91513" lon="5.43212">
        <ele>838</ele>
        <time>2022-09-22T09:25:16.521Z</time>
      </trkpt>
      <trkpt lat="44.91515" lon="5.43214">
        <ele>839</ele>
        <time>2022-09-22T09:25:17.522Z</time>
      </trkpt>
      <trkpt lat="44.91516" lon="5.43215">
        <ele>839</ele>
        <time>2022-09-22T09:25:18.522Z</time>
      </trkpt>
      <trkpt lat="44.91518" lon="5.43217">
        <ele>840</ele>
        <time>2022-09-22T09:25:19.521Z</time>
      </trkpt>
      <trkpt lat="44.91519" lon="5.43219">
        <ele>840</ele>
        <time>2022-09-22T09:25:20.521Z</time>
      </trkpt>
      <trkpt lat="44.91521" lon="5.43221">
        <ele>841</ele>
        <time>2022-09-22T09:25:21.522Z</time>
      </trkpt>
      <trkpt lat="44.91522" lon="5.43223">
        <ele>841</ele>
        <time>2022-09-22T09:25:22.522Z</time>
      </trkpt>
      <trkpt lat="44.91523" lon="5.43224">
        <ele>841</ele>
        <time>2022-09-22T09:25:23.522Z</time>
      </trkpt>
      <trkpt lat="44.91525" lon="5.43226">
        <ele>841</ele>
        <time>2022-09-22T09:25:24.522Z</time>
      </trkpt>
      <trkpt lat="44.91526" lon="5.43228">
        <ele>841</ele>
        <time>2022-09-22T09:25:25.521Z</time>
      </trkpt>
      <trkpt lat="44.91527" lon="5.4323">
        <ele>841</ele>
        <time>2022-09-22T09:25:26.522Z</time>
      </trkpt>
      <trkpt lat="44.91529" lon="5.43232">
        <ele>842</ele>
        <time>2022-09-22T09:25:27.522Z</time>
      </trkpt>
      <trkpt lat="44.9153" lon="5.43234">
        <ele>842</ele>
        <time>2022-09-22T09:25:28.522Z</time>
      </trkpt>
      <trkpt lat="44.91532" lon="5.43236">
        <ele>841</ele>
        <time>2022-09-22T09:25:29.521Z</time>
      </trkpt>
      <trkpt lat="44.91533" lon="5.43238">
        <ele>841</ele>
        <time>2022-09-22T09:25:30.521Z</time>
      </trkpt>
      <trkpt lat="44.91535" lon="5.4324">
        <ele>842</ele>
        <time>2022-09-22T09:25:31.521Z</time>
      </trkpt>
      <trkpt lat="44.91537" lon="5.43241">
        <ele>842</ele>
        <time>2022-09-22T09:25:32.522Z</time>
      </trkpt>
      <trkpt lat="44.91539" lon="5.43242">
        <ele>842</ele>
        <time>2022-09-22T09:25:33.522Z</time>
      </trkpt>
      <trkpt lat="44.91541" lon="5.43245">
        <ele>842</ele>
        <time>2022-09-22T09:25:34.522Z</time>
      </trkpt>
      <trkpt lat="44.91543" lon="5.43247">
        <ele>843</ele>
        <time>2022-09-22T09:25:35.522Z</time>
      </trkpt>
      <trkpt lat="44.91544" lon="5.43249">
        <ele>843</ele>
        <time>2022-09-22T09:25:36.522Z</time>
      </trkpt>
      <trkpt lat="44.91546" lon="5.43252">
        <ele>843</ele>
        <time>2022-09-22T09:25:37.522Z</time>
      </trkpt>
      <trkpt lat="44.91547" lon="5.43254">
        <ele>844</ele>
        <time>2022-09-22T09:25:38.522Z</time>
      </trkpt>
      <trkpt lat="44.91549" lon="5.43256">
        <ele>844</ele>
        <time>2022-09-22T09:25:39.522Z</time>
      </trkpt>
      <trkpt lat="44.9155" lon="5.43258">
        <ele>844</ele>
        <time>2022-09-22T09:25:40.521Z</time>
      </trkpt>
      <trkpt lat="44.91552" lon="5.4326">
        <ele>844</ele>
        <time>2022-09-22T09:25:41.522Z</time>
      </trkpt>
      <trkpt lat="44.91554" lon="5.43262">
        <ele>844</ele>
        <time>2022-09-22T09:25:42.522Z</time>
      </trkpt>
      <trkpt lat="44.91556" lon="5.43264">
        <ele>844</ele>
        <time>2022-09-22T09:25:43.522Z</time>
      </trkpt>
      <trkpt lat="44.91557" lon="5.43266">
        <ele>845</ele>
        <time>2022-09-22T09:25:44.521Z</time>
      </trkpt>
      <trkpt lat="44.9156" lon="5.43268">
        <ele>845</ele>
        <time>2022-09-22T09:25:45.522Z</time>
      </trkpt>
      <trkpt lat="44.91561" lon="5.4327">
        <ele>845</ele>
        <time>2022-09-22T09:25:46.521Z</time>
      </trkpt>
      <trkpt lat="44.91563" lon="5.43272">
        <ele>845</ele>
        <time>2022-09-22T09:25:47.522Z</time>
      </trkpt>
      <trkpt lat="44.91564" lon="5.43273">
        <ele>845</ele>
        <time>2022-09-22T09:25:48.522Z</time>
      </trkpt>
      <trkpt lat="44.91566" lon="5.43275">
        <ele>845</ele>
        <time>2022-09-22T09:25:49.522Z</time>
      </trkpt>
      <trkpt lat="44.91567" lon="5.43277">
        <ele>845</ele>
        <time>2022-09-22T09:25:50.522Z</time>
      </trkpt>
      <trkpt lat="44.91569" lon="5.43279">
        <ele>845</ele>
        <time>2022-09-22T09:25:51.521Z</time>
      </trkpt>
      <trkpt lat="44.91571" lon="5.4328">
        <ele>845</ele>
        <time>2022-09-22T09:25:52.521Z</time>
      </trkpt>
      <trkpt lat="44.91572" lon="5.43282">
        <ele>844</ele>
        <time>2022-09-22T09:25:53.522Z</time>
      </trkpt>
      <trkpt lat="44.91574" lon="5.43284">
        <ele>844</ele>
        <time>2022-09-22T09:25:54.522Z</time>
      </trkpt>
      <trkpt lat="44.91576" lon="5.43286">
        <ele>844</ele>
        <time>2022-09-22T09:25:55.522Z</time>
      </trkpt>
      <trkpt lat="44.91577" lon="5.43287">
        <ele>845</ele>
        <time>2022-09-22T09:25:56.522Z</time>
      </trkpt>
      <trkpt lat="44.91579" lon="5.43289">
        <ele>845</ele>
        <time>2022-09-22T09:25:57.522Z</time>
      </trkpt>
      <trkpt lat="44.9158" lon="5.4329">
        <ele>845</ele>
        <time>2022-09-22T09:25:58.522Z</time>
      </trkpt>
      <trkpt lat="44.91582" lon="5.43291">
        <ele>845</ele>
        <time>2022-09-22T09:25:59.522Z</time>
      </trkpt>
      <trkpt lat="44.91584" lon="5.43292">
        <ele>846</ele>
        <time>2022-09-22T09:26:00.522Z</time>
      </trkpt>
      <trkpt lat="44.91585" lon="5.43293">
        <ele>846</ele>
        <time>2022-09-22T09:26:01.521Z</time>
      </trkpt>
      <trkpt lat="44.91587" lon="5.43294">
        <ele>846</ele>
        <time>2022-09-22T09:26:02.522Z</time>
      </trkpt>
      <trkpt lat="44.9159" lon="5.43295">
        <ele>846</ele>
        <time>2022-09-22T09:26:03.521Z</time>
      </trkpt>
      <trkpt lat="44.91591" lon="5.43296">
        <ele>846</ele>
        <time>2022-09-22T09:26:04.522Z</time>
      </trkpt>
      <trkpt lat="44.91593" lon="5.43297">
        <ele>846</ele>
        <time>2022-09-22T09:26:05.522Z</time>
      </trkpt>
      <trkpt lat="44.91596" lon="5.43299">
        <ele>846</ele>
        <time>2022-09-22T09:26:06.521Z</time>
      </trkpt>
      <trkpt lat="44.91599" lon="5.433">
        <ele>846</ele>
        <time>2022-09-22T09:26:07.521Z</time>
      </trkpt>
      <trkpt lat="44.91601" lon="5.43301">
        <ele>846</ele>
        <time>2022-09-22T09:26:08.522Z</time>
      </trkpt>
      <trkpt lat="44.91604" lon="5.43301">
        <ele>846</ele>
        <time>2022-09-22T09:26:09.522Z</time>
      </trkpt>
      <trkpt lat="44.91607" lon="5.43302">
        <ele>846</ele>
        <time>2022-09-22T09:26:10.522Z</time>
      </trkpt>
      <trkpt lat="44.91611" lon="5.43303">
        <ele>846</ele>
        <time>2022-09-22T09:26:11.522Z</time>
      </trkpt>
      <trkpt lat="44.91614" lon="5.43304">
        <ele>846</ele>
        <time>2022-09-22T09:26:12.521Z</time>
      </trkpt>
      <trkpt lat="44.91618" lon="5.43305">
        <ele>846</ele>
        <time>2022-09-22T09:26:13.522Z</time>
      </trkpt>
      <trkpt lat="44.91621" lon="5.43306">
        <ele>846</ele>
        <time>2022-09-22T09:26:14.522Z</time>
      </trkpt>
      <trkpt lat="44.91624" lon="5.43306">
        <ele>846</ele>
        <time>2022-09-22T09:26:15.521Z</time>
      </trkpt>
      <trkpt lat="44.91629" lon="5.43307">
        <ele>847</ele>
        <time>2022-09-22T09:26:16.522Z</time>
      </trkpt>
      <trkpt lat="44.91633" lon="5.43308">
        <ele>847</ele>
        <time>2022-09-22T09:26:17.522Z</time>
      </trkpt>
      <trkpt lat="44.91637" lon="5.43309">
        <ele>847</ele>
        <time>2022-09-22T09:26:18.522Z</time>
      </trkpt>
      <trkpt lat="44.91641" lon="5.4331">
        <ele>847</ele>
        <time>2022-09-22T09:26:19.522Z</time>
      </trkpt>
      <trkpt lat="44.91646" lon="5.43311">
        <ele>847</ele>
        <time>2022-09-22T09:26:20.522Z</time>
      </trkpt>
      <trkpt lat="44.9165" lon="5.43312">
        <ele>847</ele>
        <time>2022-09-22T09:26:21.522Z</time>
      </trkpt>
      <trkpt lat="44.91654" lon="5.43313">
        <ele>847</ele>
        <time>2022-09-22T09:26:22.521Z</time>
      </trkpt>
      <trkpt lat="44.91658" lon="5.43314">
        <ele>846</ele>
        <time>2022-09-22T09:26:23.522Z</time>
      </trkpt>
      <trkpt lat="44.91663" lon="5.43315">
        <ele>846</ele>
        <time>2022-09-22T09:26:24.522Z</time>
      </trkpt>
      <trkpt lat="44.91667" lon="5.43316">
        <ele>846</ele>
        <time>2022-09-22T09:26:25.522Z</time>
      </trkpt>
      <trkpt lat="44.91671" lon="5.43317">
        <ele>845</ele>
        <time>2022-09-22T09:26:26.522Z</time>
      </trkpt>
      <trkpt lat="44.91675" lon="5.43318">
        <ele>845</ele>
        <time>2022-09-22T09:26:27.522Z</time>
      </trkpt>
      <trkpt lat="44.91679" lon="5.43318">
        <ele>844</ele>
        <time>2022-09-22T09:26:28.522Z</time>
      </trkpt>
      <trkpt lat="44.91683" lon="5.43319">
        <ele>844</ele>
        <time>2022-09-22T09:26:29.522Z</time>
      </trkpt>
      <trkpt lat="44.91687" lon="5.43319">
        <ele>844</ele>
        <time>2022-09-22T09:26:30.522Z</time>
      </trkpt>
      <trkpt lat="44.91691" lon="5.4332">
        <ele>844</ele>
        <time>2022-09-22T09:26:31.521Z</time>
      </trkpt>
      <trkpt lat="44.91695" lon="5.4332">
        <ele>844</ele>
        <time>2022-09-22T09:26:32.522Z</time>
      </trkpt>
      <trkpt lat="44.91698" lon="5.43321">
        <ele>844</ele>
        <time>2022-09-22T09:26:33.522Z</time>
      </trkpt>
      <trkpt lat="44.91702" lon="5.43321">
        <ele>843</ele>
        <time>2022-09-22T09:26:34.522Z</time>
      </trkpt>
      <trkpt lat="44.91706" lon="5.43322">
        <ele>843</ele>
        <time>2022-09-22T09:26:35.522Z</time>
      </trkpt>
      <trkpt lat="44.91709" lon="5.43323">
        <ele>843</ele>
        <time>2022-09-22T09:26:36.522Z</time>
      </trkpt>
      <trkpt lat="44.91713" lon="5.43324">
        <ele>843</ele>
        <time>2022-09-22T09:26:37.522Z</time>
      </trkpt>
      <trkpt lat="44.91717" lon="5.43325">
        <ele>843</ele>
        <time>2022-09-22T09:26:38.521Z</time>
      </trkpt>
      <trkpt lat="44.91721" lon="5.43326">
        <ele>842</ele>
        <time>2022-09-22T09:26:39.521Z</time>
      </trkpt>
      <trkpt lat="44.91724" lon="5.43327">
        <ele>842</ele>
        <time>2022-09-22T09:26:40.521Z</time>
      </trkpt>
      <trkpt lat="44.91728" lon="5.43328">
        <ele>842</ele>
        <time>2022-09-22T09:26:41.522Z</time>
      </trkpt>
      <trkpt lat="44.91732" lon="5.43329">
        <ele>842</ele>
        <time>2022-09-22T09:26:42.522Z</time>
      </trkpt>
      <trkpt lat="44.91737" lon="5.43329">
        <ele>842</ele>
        <time>2022-09-22T09:26:43.521Z</time>
      </trkpt>
      <trkpt lat="44.91741" lon="5.4333">
        <ele>843</ele>
        <time>2022-09-22T09:26:44.522Z</time>
      </trkpt>
      <trkpt lat="44.91746" lon="5.4333">
        <ele>843</ele>
        <time>2022-09-22T09:26:45.522Z</time>
      </trkpt>
      <trkpt lat="44.91751" lon="5.4333">
        <ele>843</ele>
        <time>2022-09-22T09:26:46.522Z</time>
      </trkpt>
      <trkpt lat="44.91755" lon="5.4333">
        <ele>842</ele>
        <time>2022-09-22T09:26:47.521Z</time>
      </trkpt>
      <trkpt lat="44.9176" lon="5.43329">
        <ele>842</ele>
        <time>2022-09-22T09:26:48.522Z</time>
      </trkpt>
      <trkpt lat="44.91764" lon="5.43327">
        <ele>842</ele>
        <time>2022-09-22T09:26:49.521Z</time>
      </trkpt>
      <trkpt lat="44.91768" lon="5.43326">
        <ele>842</ele>
        <time>2022-09-22T09:26:50.522Z</time>
      </trkpt>
      <trkpt lat="44.91772" lon="5.43324">
        <ele>842</ele>
        <time>2022-09-22T09:26:51.522Z</time>
      </trkpt>
      <trkpt lat="44.91777" lon="5.43322">
        <ele>842</ele>
        <time>2022-09-22T09:26:52.522Z</time>
      </trkpt>
      <trkpt lat="44.91781" lon="5.4332">
        <ele>842</ele>
        <time>2022-09-22T09:26:53.521Z</time>
      </trkpt>
      <trkpt lat="44.91786" lon="5.43318">
        <ele>842</ele>
        <time>2022-09-22T09:26:54.522Z</time>
      </trkpt>
      <trkpt lat="44.91791" lon="5.43316">
        <ele>842</ele>
        <time>2022-09-22T09:26:55.522Z</time>
      </trkpt>
      <trkpt lat="44.91797" lon="5.43313">
        <ele>842</ele>
        <time>2022-09-22T09:26:56.522Z</time>
      </trkpt>
      <trkpt lat="44.91802" lon="5.4331">
        <ele>843</ele>
        <time>2022-09-22T09:26:57.521Z</time>
      </trkpt>
      <trkpt lat="44.91807" lon="5.43308">
        <ele>843</ele>
        <time>2022-09-22T09:26:58.522Z</time>
      </trkpt>
      <trkpt lat="44.91812" lon="5.43306">
        <ele>843</ele>
        <time>2022-09-22T09:26:59.522Z</time>
      </trkpt>
      <trkpt lat="44.91818" lon="5.43303">
        <ele>843</ele>
        <time>2022-09-22T09:27:00.522Z</time>
      </trkpt>
      <trkpt lat="44.91823" lon="5.433">
        <ele>843</ele>
        <time>2022-09-22T09:27:01.522Z</time>
      </trkpt>
      <trkpt lat="44.91828" lon="5.43297">
        <ele>844</ele>
        <time>2022-09-22T09:27:02.522Z</time>
      </trkpt>
      <trkpt lat="44.91833" lon="5.43294">
        <ele>844</ele>
        <time>2022-09-22T09:27:03.521Z</time>
      </trkpt>
      <trkpt lat="44.91838" lon="5.43292">
        <ele>844</ele>
        <time>2022-09-22T09:27:04.522Z</time>
      </trkpt>
      <trkpt lat="44.91843" lon="5.43289">
        <ele>843</ele>
        <time>2022-09-22T09:27:05.521Z</time>
      </trkpt>
      <trkpt lat="44.91848" lon="5.43286">
        <ele>843</ele>
        <time>2022-09-22T09:27:06.522Z</time>
      </trkpt>
      <trkpt lat="44.91853" lon="5.43284">
        <ele>843</ele>
        <time>2022-09-22T09:27:07.521Z</time>
      </trkpt>
      <trkpt lat="44.91859" lon="5.43282">
        <ele>843</ele>
        <time>2022-09-22T09:27:08.522Z</time>
      </trkpt>
      <trkpt lat="44.91864" lon="5.4328">
        <ele>843</ele>
        <time>2022-09-22T09:27:09.522Z</time>
      </trkpt>
      <trkpt lat="44.9187" lon="5.43278">
        <ele>843</ele>
        <time>2022-09-22T09:27:10.522Z</time>
      </trkpt>
      <trkpt lat="44.91875" lon="5.43277">
        <ele>843</ele>
        <time>2022-09-22T09:27:11.522Z</time>
      </trkpt>
      <trkpt lat="44.91881" lon="5.43275">
        <ele>842</ele>
        <time>2022-09-22T09:27:12.522Z</time>
      </trkpt>
      <trkpt lat="44.91887" lon="5.43274">
        <ele>842</ele>
        <time>2022-09-22T09:27:13.522Z</time>
      </trkpt>
      <trkpt lat="44.91893" lon="5.43274">
        <ele>842</ele>
        <time>2022-09-22T09:27:14.522Z</time>
      </trkpt>
      <trkpt lat="44.91899" lon="5.43273">
        <ele>842</ele>
        <time>2022-09-22T09:27:15.522Z</time>
      </trkpt>
      <trkpt lat="44.91905" lon="5.43274">
        <ele>842</ele>
        <time>2022-09-22T09:27:16.521Z</time>
      </trkpt>
      <trkpt lat="44.91911" lon="5.43274">
        <ele>842</ele>
        <time>2022-09-22T09:27:17.522Z</time>
      </trkpt>
      <trkpt lat="44.91916" lon="5.43275">
        <ele>842</ele>
        <time>2022-09-22T09:27:18.522Z</time>
      </trkpt>
      <trkpt lat="44.91922" lon="5.43276">
        <ele>842</ele>
        <time>2022-09-22T09:27:19.521Z</time>
      </trkpt>
      <trkpt lat="44.91928" lon="5.43277">
        <ele>841</ele>
        <time>2022-09-22T09:27:20.521Z</time>
      </trkpt>
      <trkpt lat="44.91934" lon="5.43279">
        <ele>841</ele>
        <time>2022-09-22T09:27:21.522Z</time>
      </trkpt>
      <trkpt lat="44.91939" lon="5.43282">
        <ele>841</ele>
        <time>2022-09-22T09:27:22.522Z</time>
      </trkpt>
      <trkpt lat="44.91943" lon="5.43285">
        <ele>841</ele>
        <time>2022-09-22T09:27:23.522Z</time>
      </trkpt>
      <trkpt lat="44.91948" lon="5.43287">
        <ele>841</ele>
        <time>2022-09-22T09:27:24.521Z</time>
      </trkpt>
      <trkpt lat="44.91953" lon="5.43289">
        <ele>841</ele>
        <time>2022-09-22T09:27:25.522Z</time>
      </trkpt>
      <trkpt lat="44.9196" lon="5.43293">
        <ele>841</ele>
        <time>2022-09-22T09:27:26.521Z</time>
      </trkpt>
      <trkpt lat="44.91966" lon="5.43295">
        <ele>841</ele>
        <time>2022-09-22T09:27:27.521Z</time>
      </trkpt>
      <trkpt lat="44.91971" lon="5.43297">
        <ele>841</ele>
        <time>2022-09-22T09:27:28.521Z</time>
      </trkpt>
      <trkpt lat="44.91979" lon="5.43299">
        <ele>841</ele>
        <time>2022-09-22T09:27:29.522Z</time>
      </trkpt>
      <trkpt lat="44.91984" lon="5.43301">
        <ele>841</ele>
        <time>2022-09-22T09:27:30.522Z</time>
      </trkpt>
      <trkpt lat="44.91989" lon="5.43302">
        <ele>841</ele>
        <time>2022-09-22T09:27:31.522Z</time>
      </trkpt>
      <trkpt lat="44.91995" lon="5.43304">
        <ele>841</ele>
        <time>2022-09-22T09:27:32.522Z</time>
      </trkpt>
      <trkpt lat="44.92001" lon="5.43305">
        <ele>841</ele>
        <time>2022-09-22T09:27:33.522Z</time>
      </trkpt>
      <trkpt lat="44.92006" lon="5.43307">
        <ele>840</ele>
        <time>2022-09-22T09:27:34.521Z</time>
      </trkpt>
      <trkpt lat="44.92011" lon="5.43308">
        <ele>840</ele>
        <time>2022-09-22T09:27:35.522Z</time>
      </trkpt>
      <trkpt lat="44.92016" lon="5.4331">
        <ele>840</ele>
        <time>2022-09-22T09:27:36.521Z</time>
      </trkpt>
      <trkpt lat="44.92022" lon="5.43311">
        <ele>840</ele>
        <time>2022-09-22T09:27:37.522Z</time>
      </trkpt>
      <trkpt lat="44.92026" lon="5.43312">
        <ele>840</ele>
        <time>2022-09-22T09:27:38.522Z</time>
      </trkpt>
      <trkpt lat="44.92032" lon="5.43313">
        <ele>840</ele>
        <time>2022-09-22T09:27:39.522Z</time>
      </trkpt>
      <trkpt lat="44.92037" lon="5.43314">
        <ele>841</ele>
        <time>2022-09-22T09:27:40.522Z</time>
      </trkpt>
      <trkpt lat="44.92042" lon="5.43315">
        <ele>841</ele>
        <time>2022-09-22T09:27:41.522Z</time>
      </trkpt>
      <trkpt lat="44.92046" lon="5.43315">
        <ele>840</ele>
        <time>2022-09-22T09:27:42.522Z</time>
      </trkpt>
      <trkpt lat="44.92052" lon="5.43317">
        <ele>840</ele>
        <time>2022-09-22T09:27:43.522Z</time>
      </trkpt>
      <trkpt lat="44.92057" lon="5.43318">
        <ele>839</ele>
        <time>2022-09-22T09:27:44.522Z</time>
      </trkpt>
      <trkpt lat="44.92062" lon="5.4332">
        <ele>839</ele>
        <time>2022-09-22T09:27:45.522Z</time>
      </trkpt>
      <trkpt lat="44.92068" lon="5.43322">
        <ele>838</ele>
        <time>2022-09-22T09:27:46.522Z</time>
      </trkpt>
      <trkpt lat="44.92072" lon="5.43324">
        <ele>838</ele>
        <time>2022-09-22T09:27:47.522Z</time>
      </trkpt>
      <trkpt lat="44.92078" lon="5.43326">
        <ele>837</ele>
        <time>2022-09-22T09:27:48.522Z</time>
      </trkpt>
      <trkpt lat="44.92084" lon="5.43328">
        <ele>837</ele>
        <time>2022-09-22T09:27:49.521Z</time>
      </trkpt>
      <trkpt lat="44.92089" lon="5.4333">
        <ele>837</ele>
        <time>2022-09-22T09:27:50.522Z</time>
      </trkpt>
      <trkpt lat="44.92093" lon="5.43331">
        <ele>836</ele>
        <time>2022-09-22T09:27:51.522Z</time>
      </trkpt>
      <trkpt lat="44.92099" lon="5.43333">
        <ele>836</ele>
        <time>2022-09-22T09:27:52.522Z</time>
      </trkpt>
      <trkpt lat="44.92105" lon="5.43335">
        <ele>836</ele>
        <time>2022-09-22T09:27:53.521Z</time>
      </trkpt>
      <trkpt lat="44.92111" lon="5.43338">
        <ele>836</ele>
        <time>2022-09-22T09:27:54.522Z</time>
      </trkpt>
      <trkpt lat="44.92116" lon="5.4334">
        <ele>836</ele>
        <time>2022-09-22T09:27:55.522Z</time>
      </trkpt>
      <trkpt lat="44.92121" lon="5.43343">
        <ele>836</ele>
        <time>2022-09-22T09:27:56.521Z</time>
      </trkpt>
      <trkpt lat="44.92127" lon="5.43346">
        <ele>836</ele>
        <time>2022-09-22T09:27:57.522Z</time>
      </trkpt>
      <trkpt lat="44.92132" lon="5.43349">
        <ele>836</ele>
        <time>2022-09-22T09:27:58.522Z</time>
      </trkpt>
      <trkpt lat="44.92138" lon="5.43352">
        <ele>836</ele>
        <time>2022-09-22T09:27:59.522Z</time>
      </trkpt>
      <trkpt lat="44.92144" lon="5.43355">
        <ele>836</ele>
        <time>2022-09-22T09:28:00.521Z</time>
      </trkpt>
      <trkpt lat="44.9215" lon="5.43358">
        <ele>835</ele>
        <time>2022-09-22T09:28:01.521Z</time>
      </trkpt>
      <trkpt lat="44.92157" lon="5.4336">
        <ele>835</ele>
        <time>2022-09-22T09:28:02.521Z</time>
      </trkpt>
      <trkpt lat="44.92164" lon="5.43362">
        <ele>835</ele>
        <time>2022-09-22T09:28:03.522Z</time>
      </trkpt>
      <trkpt lat="44.9217" lon="5.43364">
        <ele>834</ele>
        <time>2022-09-22T09:28:04.522Z</time>
      </trkpt>
      <trkpt lat="44.92177" lon="5.43365">
        <ele>834</ele>
        <time>2022-09-22T09:28:05.522Z</time>
      </trkpt>
      <trkpt lat="44.92183" lon="5.43365">
        <ele>834</ele>
        <time>2022-09-22T09:28:06.522Z</time>
      </trkpt>
      <trkpt lat="44.92192" lon="5.43365">
        <ele>833</ele>
        <time>2022-09-22T09:28:07.522Z</time>
      </trkpt>
      <trkpt lat="44.922" lon="5.43364">
        <ele>833</ele>
        <time>2022-09-22T09:28:08.522Z</time>
      </trkpt>
      <trkpt lat="44.92208" lon="5.43363">
        <ele>833</ele>
        <time>2022-09-22T09:28:09.522Z</time>
      </trkpt>
      <trkpt lat="44.92216" lon="5.43362">
        <ele>833</ele>
        <time>2022-09-22T09:28:10.521Z</time>
      </trkpt>
      <trkpt lat="44.92224" lon="5.43361">
        <ele>833</ele>
        <time>2022-09-22T09:28:11.522Z</time>
      </trkpt>
      <trkpt lat="44.92232" lon="5.43361">
        <ele>833</ele>
        <time>2022-09-22T09:28:12.522Z</time>
      </trkpt>
      <trkpt lat="44.92241" lon="5.4336">
        <ele>833</ele>
        <time>2022-09-22T09:28:13.522Z</time>
      </trkpt>
      <trkpt lat="44.9225" lon="5.43358">
        <ele>833</ele>
        <time>2022-09-22T09:28:14.522Z</time>
      </trkpt>
      <trkpt lat="44.92256" lon="5.43356">
        <ele>832</ele>
        <time>2022-09-22T09:28:15.522Z</time>
      </trkpt>
      <trkpt lat="44.92266" lon="5.43351">
        <ele>832</ele>
        <time>2022-09-22T09:28:16.522Z</time>
      </trkpt>
      <trkpt lat="44.92274" lon="5.43345">
        <ele>832</ele>
        <time>2022-09-22T09:28:17.522Z</time>
      </trkpt>
      <trkpt lat="44.92281" lon="5.43338">
        <ele>832</ele>
        <time>2022-09-22T09:28:18.522Z</time>
      </trkpt>
      <trkpt lat="44.92288" lon="5.43331">
        <ele>831</ele>
        <time>2022-09-22T09:28:19.522Z</time>
      </trkpt>
      <trkpt lat="44.92294" lon="5.43322">
        <ele>831</ele>
        <time>2022-09-22T09:28:20.522Z</time>
      </trkpt>
      <trkpt lat="44.92301" lon="5.43312">
        <ele>831</ele>
        <time>2022-09-22T09:28:21.521Z</time>
      </trkpt>
      <trkpt lat="44.92306" lon="5.43302">
        <ele>830</ele>
        <time>2022-09-22T09:28:22.521Z</time>
      </trkpt>
      <trkpt lat="44.92311" lon="5.43293">
        <ele>829</ele>
        <time>2022-09-22T09:28:23.522Z</time>
      </trkpt>
      <trkpt lat="44.92316" lon="5.43282">
        <ele>829</ele>
        <time>2022-09-22T09:28:24.522Z</time>
      </trkpt>
      <trkpt lat="44.92322" lon="5.43269">
        <ele>828</ele>
        <time>2022-09-22T09:28:25.522Z</time>
      </trkpt>
      <trkpt lat="44.92326" lon="5.43257">
        <ele>828</ele>
        <time>2022-09-22T09:28:26.521Z</time>
      </trkpt>
      <trkpt lat="44.9233" lon="5.43245">
        <ele>827</ele>
        <time>2022-09-22T09:28:27.522Z</time>
      </trkpt>
      <trkpt lat="44.92332" lon="5.43236">
        <ele>827</ele>
        <time>2022-09-22T09:28:28.522Z</time>
      </trkpt>
      <trkpt lat="44.92336" lon="5.43223">
        <ele>827</ele>
        <time>2022-09-22T09:28:29.522Z</time>
      </trkpt>
      <trkpt lat="44.9234" lon="5.43214">
        <ele>827</ele>
        <time>2022-09-22T09:28:30.522Z</time>
      </trkpt>
      <trkpt lat="44.92346" lon="5.43208">
        <ele>826</ele>
        <time>2022-09-22T09:28:31.522Z</time>
      </trkpt>
      <trkpt lat="44.92353" lon="5.43204">
        <ele>825</ele>
        <time>2022-09-22T09:28:32.522Z</time>
      </trkpt>
      <trkpt lat="44.92358" lon="5.43201">
        <ele>824</ele>
        <time>2022-09-22T09:28:33.522Z</time>
      </trkpt>
      <trkpt lat="44.92365" lon="5.43198">
        <ele>823</ele>
        <time>2022-09-22T09:28:34.521Z</time>
      </trkpt>
      <trkpt lat="44.9237" lon="5.43195">
        <ele>823</ele>
        <time>2022-09-22T09:28:35.522Z</time>
      </trkpt>
      <trkpt lat="44.92377" lon="5.43191">
        <ele>822</ele>
        <time>2022-09-22T09:28:36.522Z</time>
      </trkpt>
      <trkpt lat="44.92381" lon="5.43189">
        <ele>821</ele>
        <time>2022-09-22T09:28:37.522Z</time>
      </trkpt>
      <trkpt lat="44.92386" lon="5.43184">
        <ele>821</ele>
        <time>2022-09-22T09:28:38.522Z</time>
      </trkpt>
      <trkpt lat="44.92391" lon="5.43179">
        <ele>821</ele>
        <time>2022-09-22T09:28:39.522Z</time>
      </trkpt>
      <trkpt lat="44.92396" lon="5.43173">
        <ele>820</ele>
        <time>2022-09-22T09:28:40.522Z</time>
      </trkpt>
      <trkpt lat="44.92402" lon="5.43166">
        <ele>821</ele>
        <time>2022-09-22T09:28:41.521Z</time>
      </trkpt>
      <trkpt lat="44.92407" lon="5.4316">
        <ele>821</ele>
        <time>2022-09-22T09:28:42.522Z</time>
      </trkpt>
      <trkpt lat="44.92413" lon="5.43153">
        <ele>821</ele>
        <time>2022-09-22T09:28:43.522Z</time>
      </trkpt>
      <trkpt lat="44.9242" lon="5.43145">
        <ele>820</ele>
        <time>2022-09-22T09:28:44.522Z</time>
      </trkpt>
      <trkpt lat="44.92425" lon="5.43139">
        <ele>820</ele>
        <time>2022-09-22T09:28:45.522Z</time>
      </trkpt>
      <trkpt lat="44.92431" lon="5.43133">
        <ele>820</ele>
        <time>2022-09-22T09:28:46.522Z</time>
      </trkpt>
      <trkpt lat="44.92437" lon="5.43127">
        <ele>820</ele>
        <time>2022-09-22T09:28:47.522Z</time>
      </trkpt>
      <trkpt lat="44.92444" lon="5.43121">
        <ele>820</ele>
        <time>2022-09-22T09:28:48.521Z</time>
      </trkpt>
      <trkpt lat="44.9245" lon="5.43116">
        <ele>819</ele>
        <time>2022-09-22T09:28:49.522Z</time>
      </trkpt>
      <trkpt lat="44.92456" lon="5.43111">
        <ele>819</ele>
        <time>2022-09-22T09:28:50.521Z</time>
      </trkpt>
      <trkpt lat="44.92463" lon="5.43107">
        <ele>819</ele>
        <time>2022-09-22T09:28:51.522Z</time>
      </trkpt>
      <trkpt lat="44.92469" lon="5.43103">
        <ele>818</ele>
        <time>2022-09-22T09:28:52.522Z</time>
      </trkpt>
      <trkpt lat="44.92476" lon="5.43101">
        <ele>818</ele>
        <time>2022-09-22T09:28:53.522Z</time>
      </trkpt>
      <trkpt lat="44.92482" lon="5.431">
        <ele>818</ele>
        <time>2022-09-22T09:28:54.522Z</time>
      </trkpt>
      <trkpt lat="44.9249" lon="5.43099">
        <ele>818</ele>
        <time>2022-09-22T09:28:55.522Z</time>
      </trkpt>
      <trkpt lat="44.92496" lon="5.43098">
        <ele>818</ele>
        <time>2022-09-22T09:28:56.522Z</time>
      </trkpt>
      <trkpt lat="44.925" lon="5.43098">
        <ele>817</ele>
        <time>2022-09-22T09:28:57.522Z</time>
      </trkpt>
      <trkpt lat="44.92506" lon="5.43097">
        <ele>817</ele>
        <time>2022-09-22T09:28:58.522Z</time>
      </trkpt>
      <trkpt lat="44.92512" lon="5.43096">
        <ele>817</ele>
        <time>2022-09-22T09:28:59.522Z</time>
      </trkpt>
      <trkpt lat="44.92518" lon="5.43095">
        <ele>817</ele>
        <time>2022-09-22T09:29:00.522Z</time>
      </trkpt>
      <trkpt lat="44.92524" lon="5.43094">
        <ele>816</ele>
        <time>2022-09-22T09:29:01.521Z</time>
      </trkpt>
      <trkpt lat="44.92529" lon="5.43093">
        <ele>815</ele>
        <time>2022-09-22T09:29:02.522Z</time>
      </trkpt>
      <trkpt lat="44.92535" lon="5.43092">
        <ele>815</ele>
        <time>2022-09-22T09:29:03.522Z</time>
      </trkpt>
      <trkpt lat="44.92541" lon="5.4309">
        <ele>814</ele>
        <time>2022-09-22T09:29:04.522Z</time>
      </trkpt>
      <trkpt lat="44.92546" lon="5.43089">
        <ele>813</ele>
        <time>2022-09-22T09:29:05.522Z</time>
      </trkpt>
      <trkpt lat="44.92551" lon="5.43088">
        <ele>813</ele>
        <time>2022-09-22T09:29:06.522Z</time>
      </trkpt>
      <trkpt lat="44.92557" lon="5.43085">
        <ele>812</ele>
        <time>2022-09-22T09:29:07.522Z</time>
      </trkpt>
      <trkpt lat="44.92562" lon="5.43082">
        <ele>812</ele>
        <time>2022-09-22T09:29:08.521Z</time>
      </trkpt>
      <trkpt lat="44.92567" lon="5.43078">
        <ele>813</ele>
        <time>2022-09-22T09:29:09.522Z</time>
      </trkpt>
      <trkpt lat="44.92572" lon="5.43075">
        <ele>814</ele>
        <time>2022-09-22T09:29:10.521Z</time>
      </trkpt>
      <trkpt lat="44.92576" lon="5.4307">
        <ele>814</ele>
        <time>2022-09-22T09:29:11.521Z</time>
      </trkpt>
      <trkpt lat="44.92579" lon="5.43064">
        <ele>814</ele>
        <time>2022-09-22T09:29:12.522Z</time>
      </trkpt>
      <trkpt lat="44.92582" lon="5.43058">
        <ele>814</ele>
        <time>2022-09-22T09:29:13.522Z</time>
      </trkpt>
      <trkpt lat="44.92585" lon="5.43051">
        <ele>815</ele>
        <time>2022-09-22T09:29:14.522Z</time>
      </trkpt>
      <trkpt lat="44.92587" lon="5.43044">
        <ele>815</ele>
        <time>2022-09-22T09:29:15.522Z</time>
      </trkpt>
      <trkpt lat="44.92589" lon="5.43037">
        <ele>815</ele>
        <time>2022-09-22T09:29:16.522Z</time>
      </trkpt>
      <trkpt lat="44.92592" lon="5.4303">
        <ele>815</ele>
        <time>2022-09-22T09:29:17.522Z</time>
      </trkpt>
      <trkpt lat="44.92595" lon="5.43022">
        <ele>815</ele>
        <time>2022-09-22T09:29:18.522Z</time>
      </trkpt>
      <trkpt lat="44.92598" lon="5.43016">
        <ele>815</ele>
        <time>2022-09-22T09:29:19.522Z</time>
      </trkpt>
      <trkpt lat="44.926" lon="5.43007">
        <ele>815</ele>
        <time>2022-09-22T09:29:20.521Z</time>
      </trkpt>
      <trkpt lat="44.92603" lon="5.42999">
        <ele>815</ele>
        <time>2022-09-22T09:29:21.522Z</time>
      </trkpt>
      <trkpt lat="44.92608" lon="5.42988">
        <ele>814</ele>
        <time>2022-09-22T09:29:22.522Z</time>
      </trkpt>
      <trkpt lat="44.92612" lon="5.4298">
        <ele>814</ele>
        <time>2022-09-22T09:29:23.522Z</time>
      </trkpt>
      <trkpt lat="44.92617" lon="5.42973">
        <ele>814</ele>
        <time>2022-09-22T09:29:24.521Z</time>
      </trkpt>
      <trkpt lat="44.92622" lon="5.42964">
        <ele>815</ele>
        <time>2022-09-22T09:29:25.521Z</time>
      </trkpt>
      <trkpt lat="44.92628" lon="5.42954">
        <ele>815</ele>
        <time>2022-09-22T09:29:26.521Z</time>
      </trkpt>
      <trkpt lat="44.92633" lon="5.42947">
        <ele>815</ele>
        <time>2022-09-22T09:29:27.522Z</time>
      </trkpt>
      <trkpt lat="44.92639" lon="5.4294">
        <ele>814</ele>
        <time>2022-09-22T09:29:28.522Z</time>
      </trkpt>
      <trkpt lat="44.92647" lon="5.42934">
        <ele>813</ele>
        <time>2022-09-22T09:29:29.521Z</time>
      </trkpt>
      <trkpt lat="44.92656" lon="5.42931">
        <ele>812</ele>
        <time>2022-09-22T09:29:30.521Z</time>
      </trkpt>
      <trkpt lat="44.92664" lon="5.4293">
        <ele>810</ele>
        <time>2022-09-22T09:29:31.522Z</time>
      </trkpt>
      <trkpt lat="44.92674" lon="5.4293">
        <ele>809</ele>
        <time>2022-09-22T09:29:32.522Z</time>
      </trkpt>
      <trkpt lat="44.92681" lon="5.4293">
        <ele>809</ele>
        <time>2022-09-22T09:29:33.522Z</time>
      </trkpt>
      <trkpt lat="44.92686" lon="5.4293">
        <ele>808</ele>
        <time>2022-09-22T09:29:34.522Z</time>
      </trkpt>
      <trkpt lat="44.92691" lon="5.42931">
        <ele>808</ele>
        <time>2022-09-22T09:29:35.522Z</time>
      </trkpt>
      <trkpt lat="44.92695" lon="5.42933">
        <ele>807</ele>
        <time>2022-09-22T09:29:36.522Z</time>
      </trkpt>
      <trkpt lat="44.92699" lon="5.42937">
        <ele>807</ele>
        <time>2022-09-22T09:29:37.522Z</time>
      </trkpt>
      <trkpt lat="44.92704" lon="5.42941">
        <ele>806</ele>
        <time>2022-09-22T09:29:38.522Z</time>
      </trkpt>
      <trkpt lat="44.92708" lon="5.42944">
        <ele>805</ele>
        <time>2022-09-22T09:29:39.522Z</time>
      </trkpt>
      <trkpt lat="44.92714" lon="5.42951">
        <ele>804</ele>
        <time>2022-09-22T09:29:40.522Z</time>
      </trkpt>
      <trkpt lat="44.92719" lon="5.42956">
        <ele>803</ele>
        <time>2022-09-22T09:29:41.522Z</time>
      </trkpt>
      <trkpt lat="44.92725" lon="5.42962">
        <ele>803</ele>
        <time>2022-09-22T09:29:42.522Z</time>
      </trkpt>
      <trkpt lat="44.9273" lon="5.42966">
        <ele>802</ele>
        <time>2022-09-22T09:29:43.521Z</time>
      </trkpt>
      <trkpt lat="44.92734" lon="5.42969">
        <ele>802</ele>
        <time>2022-09-22T09:29:44.521Z</time>
      </trkpt>
      <trkpt lat="44.92739" lon="5.42974">
        <ele>801</ele>
        <time>2022-09-22T09:29:45.522Z</time>
      </trkpt>
      <trkpt lat="44.92743" lon="5.42976">
        <ele>801</ele>
        <time>2022-09-22T09:29:46.522Z</time>
      </trkpt>
      <trkpt lat="44.92747" lon="5.42977">
        <ele>801</ele>
        <time>2022-09-22T09:29:47.522Z</time>
      </trkpt>
      <trkpt lat="44.92751" lon="5.42977">
        <ele>801</ele>
        <time>2022-09-22T09:29:48.522Z</time>
      </trkpt>
      <trkpt lat="44.92755" lon="5.42976">
        <ele>801</ele>
        <time>2022-09-22T09:29:49.522Z</time>
      </trkpt>
      <trkpt lat="44.92759" lon="5.42975">
        <ele>801</ele>
        <time>2022-09-22T09:29:50.522Z</time>
      </trkpt>
      <trkpt lat="44.92762" lon="5.42974">
        <ele>800</ele>
        <time>2022-09-22T09:29:51.522Z</time>
      </trkpt>
      <trkpt lat="44.92766" lon="5.42973">
        <ele>800</ele>
        <time>2022-09-22T09:29:52.522Z</time>
      </trkpt>
      <trkpt lat="44.9277" lon="5.42972">
        <ele>800</ele>
        <time>2022-09-22T09:29:53.522Z</time>
      </trkpt>
      <trkpt lat="44.92774" lon="5.42971">
        <ele>801</ele>
        <time>2022-09-22T09:29:54.522Z</time>
      </trkpt>
      <trkpt lat="44.92777" lon="5.4297">
        <ele>801</ele>
        <time>2022-09-22T09:29:55.521Z</time>
      </trkpt>
      <trkpt lat="44.92781" lon="5.4297">
        <ele>801</ele>
        <time>2022-09-22T09:29:56.522Z</time>
      </trkpt>
      <trkpt lat="44.92785" lon="5.42969">
        <ele>801</ele>
        <time>2022-09-22T09:29:57.521Z</time>
      </trkpt>
      <trkpt lat="44.92788" lon="5.42968">
        <ele>801</ele>
        <time>2022-09-22T09:29:58.521Z</time>
      </trkpt>
      <trkpt lat="44.92792" lon="5.42968">
        <ele>801</ele>
        <time>2022-09-22T09:29:59.521Z</time>
      </trkpt>
      <trkpt lat="44.92796" lon="5.42968">
        <ele>801</ele>
        <time>2022-09-22T09:30:00.522Z</time>
      </trkpt>
      <trkpt lat="44.928" lon="5.42967">
        <ele>801</ele>
        <time>2022-09-22T09:30:01.521Z</time>
      </trkpt>
      <trkpt lat="44.92803" lon="5.42967">
        <ele>800</ele>
        <time>2022-09-22T09:30:02.521Z</time>
      </trkpt>
      <trkpt lat="44.92807" lon="5.42967">
        <ele>800</ele>
        <time>2022-09-22T09:30:03.521Z</time>
      </trkpt>
      <trkpt lat="44.92811" lon="5.42967">
        <ele>799</ele>
        <time>2022-09-22T09:30:04.522Z</time>
      </trkpt>
      <trkpt lat="44.92815" lon="5.42967">
        <ele>799</ele>
        <time>2022-09-22T09:30:05.521Z</time>
      </trkpt>
      <trkpt lat="44.92819" lon="5.42968">
        <ele>798</ele>
        <time>2022-09-22T09:30:06.522Z</time>
      </trkpt>
      <trkpt lat="44.92822" lon="5.42968">
        <ele>798</ele>
        <time>2022-09-22T09:30:07.522Z</time>
      </trkpt>
      <trkpt lat="44.92826" lon="5.42968">
        <ele>798</ele>
        <time>2022-09-22T09:30:08.522Z</time>
      </trkpt>
      <trkpt lat="44.9283" lon="5.42969">
        <ele>798</ele>
        <time>2022-09-22T09:30:09.522Z</time>
      </trkpt>
      <trkpt lat="44.92834" lon="5.42969">
        <ele>798</ele>
        <time>2022-09-22T09:30:10.522Z</time>
      </trkpt>
      <trkpt lat="44.92838" lon="5.42969">
        <ele>798</ele>
        <time>2022-09-22T09:30:11.522Z</time>
      </trkpt>
      <trkpt lat="44.92841" lon="5.4297">
        <ele>798</ele>
        <time>2022-09-22T09:30:12.522Z</time>
      </trkpt>
      <trkpt lat="44.92845" lon="5.42971">
        <ele>797</ele>
        <time>2022-09-22T09:30:13.522Z</time>
      </trkpt>
      <trkpt lat="44.92848" lon="5.42972">
        <ele>797</ele>
        <time>2022-09-22T09:30:14.522Z</time>
      </trkpt>
      <trkpt lat="44.92852" lon="5.42974">
        <ele>796</ele>
        <time>2022-09-22T09:30:15.522Z</time>
      </trkpt>
      <trkpt lat="44.92855" lon="5.42976">
        <ele>796</ele>
        <time>2022-09-22T09:30:16.522Z</time>
      </trkpt>
      <trkpt lat="44.92859" lon="5.42978">
        <ele>796</ele>
        <time>2022-09-22T09:30:17.522Z</time>
      </trkpt>
      <trkpt lat="44.92862" lon="5.42981">
        <ele>796</ele>
        <time>2022-09-22T09:30:18.521Z</time>
      </trkpt>
      <trkpt lat="44.92865" lon="5.42984">
        <ele>796</ele>
        <time>2022-09-22T09:30:19.521Z</time>
      </trkpt>
      <trkpt lat="44.92867" lon="5.42986">
        <ele>796</ele>
        <time>2022-09-22T09:30:20.522Z</time>
      </trkpt>
      <trkpt lat="44.92869" lon="5.42989">
        <ele>796</ele>
        <time>2022-09-22T09:30:21.522Z</time>
      </trkpt>
      <trkpt lat="44.92872" lon="5.42992">
        <ele>795</ele>
        <time>2022-09-22T09:30:22.522Z</time>
      </trkpt>
      <trkpt lat="44.92875" lon="5.42995">
        <ele>795</ele>
        <time>2022-09-22T09:30:23.522Z</time>
      </trkpt>
      <trkpt lat="44.92878" lon="5.42998">
        <ele>795</ele>
        <time>2022-09-22T09:30:24.522Z</time>
      </trkpt>
      <trkpt lat="44.92881" lon="5.43">
        <ele>795</ele>
        <time>2022-09-22T09:30:25.522Z</time>
      </trkpt>
      <trkpt lat="44.92885" lon="5.43003">
        <ele>796</ele>
        <time>2022-09-22T09:30:26.522Z</time>
      </trkpt>
      <trkpt lat="44.92887" lon="5.43005">
        <ele>796</ele>
        <time>2022-09-22T09:30:27.521Z</time>
      </trkpt>
      <trkpt lat="44.92891" lon="5.43007">
        <ele>796</ele>
        <time>2022-09-22T09:30:28.521Z</time>
      </trkpt>
      <trkpt lat="44.92894" lon="5.43009">
        <ele>796</ele>
        <time>2022-09-22T09:30:29.522Z</time>
      </trkpt>
      <trkpt lat="44.92896" lon="5.4301">
        <ele>796</ele>
        <time>2022-09-22T09:30:30.522Z</time>
      </trkpt>
      <trkpt lat="44.929" lon="5.43012">
        <ele>796</ele>
        <time>2022-09-22T09:30:31.521Z</time>
      </trkpt>
      <trkpt lat="44.92903" lon="5.43013">
        <ele>796</ele>
        <time>2022-09-22T09:30:32.522Z</time>
      </trkpt>
      <trkpt lat="44.92907" lon="5.43013">
        <ele>796</ele>
        <time>2022-09-22T09:30:33.522Z</time>
      </trkpt>
      <trkpt lat="44.9291" lon="5.43014">
        <ele>795</ele>
        <time>2022-09-22T09:30:34.522Z</time>
      </trkpt>
      <trkpt lat="44.92913" lon="5.43014">
        <ele>795</ele>
        <time>2022-09-22T09:30:35.522Z</time>
      </trkpt>
      <trkpt lat="44.92916" lon="5.43014">
        <ele>795</ele>
        <time>2022-09-22T09:30:36.522Z</time>
      </trkpt>
      <trkpt lat="44.9292" lon="5.43015">
        <ele>795</ele>
        <time>2022-09-22T09:30:37.521Z</time>
      </trkpt>
      <trkpt lat="44.92924" lon="5.43016">
        <ele>795</ele>
        <time>2022-09-22T09:30:38.522Z</time>
      </trkpt>
      <trkpt lat="44.92926" lon="5.43016">
        <ele>795</ele>
        <time>2022-09-22T09:30:39.522Z</time>
      </trkpt>
      <trkpt lat="44.9293" lon="5.43017">
        <ele>795</ele>
        <time>2022-09-22T09:30:40.522Z</time>
      </trkpt>
      <trkpt lat="44.92934" lon="5.43018">
        <ele>795</ele>
        <time>2022-09-22T09:30:41.522Z</time>
      </trkpt>
      <trkpt lat="44.92938" lon="5.4302">
        <ele>795</ele>
        <time>2022-09-22T09:30:42.522Z</time>
      </trkpt>
      <trkpt lat="44.92941" lon="5.43021">
        <ele>796</ele>
        <time>2022-09-22T09:30:43.521Z</time>
      </trkpt>
      <trkpt lat="44.92945" lon="5.43022">
        <ele>795</ele>
        <time>2022-09-22T09:30:44.522Z</time>
      </trkpt>
      <trkpt lat="44.92948" lon="5.43024">
        <ele>796</ele>
        <time>2022-09-22T09:30:45.521Z</time>
      </trkpt>
      <trkpt lat="44.92952" lon="5.43025">
        <ele>796</ele>
        <time>2022-09-22T09:30:46.521Z</time>
      </trkpt>
      <trkpt lat="44.92955" lon="5.43025">
        <ele>796</ele>
        <time>2022-09-22T09:30:47.522Z</time>
      </trkpt>
      <trkpt lat="44.92957" lon="5.43025">
        <ele>796</ele>
        <time>2022-09-22T09:30:48.522Z</time>
      </trkpt>
      <trkpt lat="44.9296" lon="5.43026">
        <ele>795</ele>
        <time>2022-09-22T09:30:49.522Z</time>
      </trkpt>
      <trkpt lat="44.92964" lon="5.43026">
        <ele>795</ele>
        <time>2022-09-22T09:30:50.521Z</time>
      </trkpt>
      <trkpt lat="44.92967" lon="5.43026">
        <ele>795</ele>
        <time>2022-09-22T09:30:51.521Z</time>
      </trkpt>
      <trkpt lat="44.9297" lon="5.43026">
        <ele>795</ele>
        <time>2022-09-22T09:30:52.522Z</time>
      </trkpt>
      <trkpt lat="44.92972" lon="5.43026">
        <ele>795</ele>
        <time>2022-09-22T09:30:53.522Z</time>
      </trkpt>
      <trkpt lat="44.92975" lon="5.43025">
        <ele>794</ele>
        <time>2022-09-22T09:30:54.522Z</time>
      </trkpt>
      <trkpt lat="44.92977" lon="5.43025">
        <ele>794</ele>
        <time>2022-09-22T09:30:55.521Z</time>
      </trkpt>
      <trkpt lat="44.9298" lon="5.43025">
        <ele>794</ele>
        <time>2022-09-22T09:30:56.522Z</time>
      </trkpt>
      <trkpt lat="44.92983" lon="5.43025">
        <ele>794</ele>
        <time>2022-09-22T09:30:57.521Z</time>
      </trkpt>
      <trkpt lat="44.92985" lon="5.43024">
        <ele>795</ele>
        <time>2022-09-22T09:30:58.521Z</time>
      </trkpt>
      <trkpt lat="44.92988" lon="5.43024">
        <ele>795</ele>
        <time>2022-09-22T09:30:59.522Z</time>
      </trkpt>
      <trkpt lat="44.92992" lon="5.43022">
        <ele>795</ele>
        <time>2022-09-22T09:31:00.522Z</time>
      </trkpt>
      <trkpt lat="44.92996" lon="5.43021">
        <ele>795</ele>
        <time>2022-09-22T09:31:01.522Z</time>
      </trkpt>
      <trkpt lat="44.92999" lon="5.4302">
        <ele>795</ele>
        <time>2022-09-22T09:31:02.521Z</time>
      </trkpt>
      <trkpt lat="44.93003" lon="5.43019">
        <ele>795</ele>
        <time>2022-09-22T09:31:03.522Z</time>
      </trkpt>
      <trkpt lat="44.93007" lon="5.43018">
        <ele>795</ele>
        <time>2022-09-22T09:31:04.522Z</time>
      </trkpt>
      <trkpt lat="44.9301" lon="5.43017">
        <ele>795</ele>
        <time>2022-09-22T09:31:05.522Z</time>
      </trkpt>
      <trkpt lat="44.93013" lon="5.43016">
        <ele>796</ele>
        <time>2022-09-22T09:31:06.522Z</time>
      </trkpt>
      <trkpt lat="44.93015" lon="5.43015">
        <ele>796</ele>
        <time>2022-09-22T09:31:07.521Z</time>
      </trkpt>
      <trkpt lat="44.93018" lon="5.43014">
        <ele>796</ele>
        <time>2022-09-22T09:31:08.522Z</time>
      </trkpt>
      <trkpt lat="44.9302" lon="5.43013">
        <ele>796</ele>
        <time>2022-09-22T09:31:09.522Z</time>
      </trkpt>
      <trkpt lat="44.93022" lon="5.43013">
        <ele>796</ele>
        <time>2022-09-22T09:31:10.522Z</time>
      </trkpt>
      <trkpt lat="44.93024" lon="5.43013">
        <ele>795</ele>
        <time>2022-09-22T09:31:11.522Z</time>
      </trkpt>
      <trkpt lat="44.93026" lon="5.43012">
        <ele>795</ele>
        <time>2022-09-22T09:31:12.522Z</time>
      </trkpt>
      <trkpt lat="44.93029" lon="5.43012">
        <ele>795</ele>
        <time>2022-09-22T09:31:13.522Z</time>
      </trkpt>
      <trkpt lat="44.93032" lon="5.43011">
        <ele>795</ele>
        <time>2022-09-22T09:31:14.522Z</time>
      </trkpt>
      <trkpt lat="44.93035" lon="5.43011">
        <ele>795</ele>
        <time>2022-09-22T09:31:15.522Z</time>
      </trkpt>
      <trkpt lat="44.93038" lon="5.4301">
        <ele>795</ele>
        <time>2022-09-22T09:31:16.522Z</time>
      </trkpt>
      <trkpt lat="44.9304" lon="5.43009">
        <ele>795</ele>
        <time>2022-09-22T09:31:17.522Z</time>
      </trkpt>
      <trkpt lat="44.93043" lon="5.43009">
        <ele>795</ele>
        <time>2022-09-22T09:31:18.521Z</time>
      </trkpt>
      <trkpt lat="44.93046" lon="5.43008">
        <ele>794</ele>
        <time>2022-09-22T09:31:19.522Z</time>
      </trkpt>
      <trkpt lat="44.93049" lon="5.43007">
        <ele>794</ele>
        <time>2022-09-22T09:31:20.522Z</time>
      </trkpt>
      <trkpt lat="44.93051" lon="5.43007">
        <ele>794</ele>
        <time>2022-09-22T09:31:21.522Z</time>
      </trkpt>
      <trkpt lat="44.93055" lon="5.43005">
        <ele>794</ele>
        <time>2022-09-22T09:31:22.522Z</time>
      </trkpt>
      <trkpt lat="44.93058" lon="5.43005">
        <ele>794</ele>
        <time>2022-09-22T09:31:23.521Z</time>
      </trkpt>
      <trkpt lat="44.93061" lon="5.43004">
        <ele>794</ele>
        <time>2022-09-22T09:31:24.522Z</time>
      </trkpt>
      <trkpt lat="44.93064" lon="5.43004">
        <ele>795</ele>
        <time>2022-09-22T09:31:25.522Z</time>
      </trkpt>
      <trkpt lat="44.93067" lon="5.43004">
        <ele>795</ele>
        <time>2022-09-22T09:31:26.522Z</time>
      </trkpt>
      <trkpt lat="44.9307" lon="5.43003">
        <ele>795</ele>
        <time>2022-09-22T09:31:27.522Z</time>
      </trkpt>
      <trkpt lat="44.93073" lon="5.43003">
        <ele>795</ele>
        <time>2022-09-22T09:31:28.522Z</time>
      </trkpt>
      <trkpt lat="44.93075" lon="5.43003">
        <ele>795</ele>
        <time>2022-09-22T09:31:29.522Z</time>
      </trkpt>
      <trkpt lat="44.93078" lon="5.43003">
        <ele>795</ele>
        <time>2022-09-22T09:31:30.522Z</time>
      </trkpt>
      <trkpt lat="44.93081" lon="5.43003">
        <ele>794</ele>
        <time>2022-09-22T09:31:31.522Z</time>
      </trkpt>
      <trkpt lat="44.93084" lon="5.43003">
        <ele>794</ele>
        <time>2022-09-22T09:31:32.521Z</time>
      </trkpt>
      <trkpt lat="44.93088" lon="5.43003">
        <ele>794</ele>
        <time>2022-09-22T09:31:33.521Z</time>
      </trkpt>
      <trkpt lat="44.93091" lon="5.43003">
        <ele>794</ele>
        <time>2022-09-22T09:31:34.521Z</time>
      </trkpt>
      <trkpt lat="44.93094" lon="5.43003">
        <ele>794</ele>
        <time>2022-09-22T09:31:35.521Z</time>
      </trkpt>
      <trkpt lat="44.93098" lon="5.43003">
        <ele>794</ele>
        <time>2022-09-22T09:31:36.522Z</time>
      </trkpt>
      <trkpt lat="44.93102" lon="5.43003">
        <ele>794</ele>
        <time>2022-09-22T09:31:37.522Z</time>
      </trkpt>
      <trkpt lat="44.93105" lon="5.43003">
        <ele>794</ele>
        <time>2022-09-22T09:31:38.522Z</time>
      </trkpt>
      <trkpt lat="44.9311" lon="5.43002">
        <ele>793</ele>
        <time>2022-09-22T09:31:39.522Z</time>
      </trkpt>
      <trkpt lat="44.93113" lon="5.43002">
        <ele>792</ele>
        <time>2022-09-22T09:31:40.522Z</time>
      </trkpt>
      <trkpt lat="44.93118" lon="5.43001">
        <ele>792</ele>
        <time>2022-09-22T09:31:41.522Z</time>
      </trkpt>
      <trkpt lat="44.93123" lon="5.43001">
        <ele>791</ele>
        <time>2022-09-22T09:31:42.522Z</time>
      </trkpt>
      <trkpt lat="44.93127" lon="5.43002">
        <ele>791</ele>
        <time>2022-09-22T09:31:43.521Z</time>
      </trkpt>
      <trkpt lat="44.93131" lon="5.43003">
        <ele>791</ele>
        <time>2022-09-22T09:31:44.521Z</time>
      </trkpt>
      <trkpt lat="44.93136" lon="5.43004">
        <ele>791</ele>
        <time>2022-09-22T09:31:45.521Z</time>
      </trkpt>
      <trkpt lat="44.93141" lon="5.43006">
        <ele>792</ele>
        <time>2022-09-22T09:31:46.522Z</time>
      </trkpt>
      <trkpt lat="44.93145" lon="5.43008">
        <ele>792</ele>
        <time>2022-09-22T09:31:47.522Z</time>
      </trkpt>
      <trkpt lat="44.9315" lon="5.4301">
        <ele>792</ele>
        <time>2022-09-22T09:31:48.522Z</time>
      </trkpt>
      <trkpt lat="44.93154" lon="5.43011">
        <ele>792</ele>
        <time>2022-09-22T09:31:49.522Z</time>
      </trkpt>
      <trkpt lat="44.93159" lon="5.43012">
        <ele>792</ele>
        <time>2022-09-22T09:31:50.522Z</time>
      </trkpt>
      <trkpt lat="44.93164" lon="5.43014">
        <ele>792</ele>
        <time>2022-09-22T09:31:51.521Z</time>
      </trkpt>
      <trkpt lat="44.93168" lon="5.43016">
        <ele>792</ele>
        <time>2022-09-22T09:31:52.522Z</time>
      </trkpt>
      <trkpt lat="44.93171" lon="5.43018">
        <ele>792</ele>
        <time>2022-09-22T09:31:53.522Z</time>
      </trkpt>
      <trkpt lat="44.93176" lon="5.43021">
        <ele>791</ele>
        <time>2022-09-22T09:31:54.522Z</time>
      </trkpt>
      <trkpt lat="44.9318" lon="5.43024">
        <ele>791</ele>
        <time>2022-09-22T09:31:55.522Z</time>
      </trkpt>
      <trkpt lat="44.93184" lon="5.43027">
        <ele>791</ele>
        <time>2022-09-22T09:31:56.521Z</time>
      </trkpt>
      <trkpt lat="44.93187" lon="5.4303">
        <ele>791</ele>
        <time>2022-09-22T09:31:57.522Z</time>
      </trkpt>
      <trkpt lat="44.9319" lon="5.43033">
        <ele>790</ele>
        <time>2022-09-22T09:31:58.522Z</time>
      </trkpt>
      <trkpt lat="44.93191" lon="5.43036">
        <ele>790</ele>
        <time>2022-09-22T09:31:59.522Z</time>
      </trkpt>
      <trkpt lat="44.93194" lon="5.43039">
        <ele>790</ele>
        <time>2022-09-22T09:32:00.522Z</time>
      </trkpt>
      <trkpt lat="44.93196" lon="5.43042">
        <ele>789</ele>
        <time>2022-09-22T09:32:01.522Z</time>
      </trkpt>
      <trkpt lat="44.93198" lon="5.43044">
        <ele>789</ele>
        <time>2022-09-22T09:32:02.522Z</time>
      </trkpt>
      <trkpt lat="44.932" lon="5.43045">
        <ele>789</ele>
        <time>2022-09-22T09:32:03.522Z</time>
      </trkpt>
      <trkpt lat="44.93202" lon="5.43047">
        <ele>788</ele>
        <time>2022-09-22T09:32:04.522Z</time>
      </trkpt>
      <trkpt lat="44.93206" lon="5.43049">
        <ele>788</ele>
        <time>2022-09-22T09:32:05.522Z</time>
      </trkpt>
      <trkpt lat="44.93209" lon="5.4305">
        <ele>788</ele>
        <time>2022-09-22T09:32:06.522Z</time>
      </trkpt>
      <trkpt lat="44.93212" lon="5.43052">
        <ele>789</ele>
        <time>2022-09-22T09:32:07.521Z</time>
      </trkpt>
      <trkpt lat="44.93215" lon="5.43053">
        <ele>789</ele>
        <time>2022-09-22T09:32:08.522Z</time>
      </trkpt>
      <trkpt lat="44.93218" lon="5.43055">
        <ele>789</ele>
        <time>2022-09-22T09:32:09.522Z</time>
      </trkpt>
      <trkpt lat="44.9322" lon="5.43057">
        <ele>790</ele>
        <time>2022-09-22T09:32:10.522Z</time>
      </trkpt>
      <trkpt lat="44.93223" lon="5.43059">
        <ele>790</ele>
        <time>2022-09-22T09:32:11.522Z</time>
      </trkpt>
      <trkpt lat="44.93226" lon="5.43061">
        <ele>790</ele>
        <time>2022-09-22T09:32:12.521Z</time>
      </trkpt>
      <trkpt lat="44.93229" lon="5.43063">
        <ele>790</ele>
        <time>2022-09-22T09:32:13.522Z</time>
      </trkpt>
      <trkpt lat="44.93232" lon="5.43065">
        <ele>790</ele>
        <time>2022-09-22T09:32:14.522Z</time>
      </trkpt>
      <trkpt lat="44.93235" lon="5.43067">
        <ele>790</ele>
        <time>2022-09-22T09:32:15.521Z</time>
      </trkpt>
      <trkpt lat="44.93237" lon="5.43068">
        <ele>790</ele>
        <time>2022-09-22T09:32:16.522Z</time>
      </trkpt>
      <trkpt lat="44.93239" lon="5.43069">
        <ele>790</ele>
        <time>2022-09-22T09:32:17.522Z</time>
      </trkpt>
      <trkpt lat="44.93242" lon="5.43071">
        <ele>790</ele>
        <time>2022-09-22T09:32:18.522Z</time>
      </trkpt>
      <trkpt lat="44.93244" lon="5.43072">
        <ele>790</ele>
        <time>2022-09-22T09:32:19.521Z</time>
      </trkpt>
      <trkpt lat="44.93247" lon="5.43073">
        <ele>790</ele>
        <time>2022-09-22T09:32:20.521Z</time>
      </trkpt>
      <trkpt lat="44.93248" lon="5.43074">
        <ele>790</ele>
        <time>2022-09-22T09:32:21.522Z</time>
      </trkpt>
      <trkpt lat="44.9325" lon="5.43075">
        <ele>790</ele>
        <time>2022-09-22T09:32:22.522Z</time>
      </trkpt>
      <trkpt lat="44.93252" lon="5.43077">
        <ele>790</ele>
        <time>2022-09-22T09:32:23.522Z</time>
      </trkpt>
      <trkpt lat="44.93253" lon="5.43077">
        <ele>790</ele>
        <time>2022-09-22T09:32:24.522Z</time>
      </trkpt>
      <trkpt lat="44.93255" lon="5.43078">
        <ele>789</ele>
        <time>2022-09-22T09:32:25.522Z</time>
      </trkpt>
      <trkpt lat="44.93257" lon="5.43079">
        <ele>789</ele>
        <time>2022-09-22T09:32:26.522Z</time>
      </trkpt>
      <trkpt lat="44.9326" lon="5.4308">
        <ele>789</ele>
        <time>2022-09-22T09:32:27.522Z</time>
      </trkpt>
      <trkpt lat="44.93262" lon="5.4308">
        <ele>789</ele>
        <time>2022-09-22T09:32:28.522Z</time>
      </trkpt>
      <trkpt lat="44.93265" lon="5.43081">
        <ele>789</ele>
        <time>2022-09-22T09:32:29.522Z</time>
      </trkpt>
      <trkpt lat="44.93267" lon="5.43082">
        <ele>789</ele>
        <time>2022-09-22T09:32:30.522Z</time>
      </trkpt>
      <trkpt lat="44.9327" lon="5.43082">
        <ele>789</ele>
        <time>2022-09-22T09:32:31.522Z</time>
      </trkpt>
      <trkpt lat="44.93273" lon="5.43083">
        <ele>789</ele>
        <time>2022-09-22T09:32:32.521Z</time>
      </trkpt>
      <trkpt lat="44.93276" lon="5.43084">
        <ele>788</ele>
        <time>2022-09-22T09:32:33.522Z</time>
      </trkpt>
      <trkpt lat="44.93279" lon="5.43084">
        <ele>788</ele>
        <time>2022-09-22T09:32:34.522Z</time>
      </trkpt>
      <trkpt lat="44.93281" lon="5.43085">
        <ele>788</ele>
        <time>2022-09-22T09:32:35.522Z</time>
      </trkpt>
      <trkpt lat="44.93284" lon="5.43085">
        <ele>788</ele>
        <time>2022-09-22T09:32:36.522Z</time>
      </trkpt>
      <trkpt lat="44.93287" lon="5.43086">
        <ele>788</ele>
        <time>2022-09-22T09:32:37.522Z</time>
      </trkpt>
      <trkpt lat="44.9329" lon="5.43087">
        <ele>788</ele>
        <time>2022-09-22T09:32:38.522Z</time>
      </trkpt>
      <trkpt lat="44.93294" lon="5.43088">
        <ele>788</ele>
        <time>2022-09-22T09:32:39.522Z</time>
      </trkpt>
      <trkpt lat="44.93297" lon="5.43089">
        <ele>788</ele>
        <time>2022-09-22T09:32:40.522Z</time>
      </trkpt>
      <trkpt lat="44.933" lon="5.4309">
        <ele>788</ele>
        <time>2022-09-22T09:32:41.521Z</time>
      </trkpt>
      <trkpt lat="44.93304" lon="5.43092">
        <ele>787</ele>
        <time>2022-09-22T09:32:42.522Z</time>
      </trkpt>
      <trkpt lat="44.93306" lon="5.43093">
        <ele>787</ele>
        <time>2022-09-22T09:32:43.522Z</time>
      </trkpt>
      <trkpt lat="44.93309" lon="5.43095">
        <ele>787</ele>
        <time>2022-09-22T09:32:44.522Z</time>
      </trkpt>
      <trkpt lat="44.93312" lon="5.43096">
        <ele>787</ele>
        <time>2022-09-22T09:32:45.522Z</time>
      </trkpt>
      <trkpt lat="44.93315" lon="5.43097">
        <ele>787</ele>
        <time>2022-09-22T09:32:46.522Z</time>
      </trkpt>
      <trkpt lat="44.93319" lon="5.43099">
        <ele>787</ele>
        <time>2022-09-22T09:32:47.522Z</time>
      </trkpt>
      <trkpt lat="44.93322" lon="5.431">
        <ele>787</ele>
        <time>2022-09-22T09:32:48.522Z</time>
      </trkpt>
      <trkpt lat="44.93325" lon="5.43101">
        <ele>787</ele>
        <time>2022-09-22T09:32:49.522Z</time>
      </trkpt>
      <trkpt lat="44.93328" lon="5.43102">
        <ele>786</ele>
        <time>2022-09-22T09:32:50.522Z</time>
      </trkpt>
      <trkpt lat="44.93331" lon="5.43102">
        <ele>786</ele>
        <time>2022-09-22T09:32:51.522Z</time>
      </trkpt>
      <trkpt lat="44.93334" lon="5.43102">
        <ele>786</ele>
        <time>2022-09-22T09:32:52.521Z</time>
      </trkpt>
      <trkpt lat="44.93337" lon="5.431">
        <ele>787</ele>
        <time>2022-09-22T09:32:53.522Z</time>
      </trkpt>
      <trkpt lat="44.93339" lon="5.43097">
        <ele>787</ele>
        <time>2022-09-22T09:32:54.522Z</time>
      </trkpt>
      <trkpt lat="44.93341" lon="5.43094">
        <ele>788</ele>
        <time>2022-09-22T09:32:55.522Z</time>
      </trkpt>
      <trkpt lat="44.93343" lon="5.43091">
        <ele>788</ele>
        <time>2022-09-22T09:32:56.522Z</time>
      </trkpt>
      <trkpt lat="44.93344" lon="5.43087">
        <ele>789</ele>
        <time>2022-09-22T09:32:57.522Z</time>
      </trkpt>
      <trkpt lat="44.93344" lon="5.43083">
        <ele>789</ele>
        <time>2022-09-22T09:32:58.522Z</time>
      </trkpt>
      <trkpt lat="44.93345" lon="5.43079">
        <ele>790</ele>
        <time>2022-09-22T09:32:59.522Z</time>
      </trkpt>
      <trkpt lat="44.93346" lon="5.43076">
        <ele>790</ele>
        <time>2022-09-22T09:33:00.522Z</time>
      </trkpt>
      <trkpt lat="44.93347" lon="5.43072">
        <ele>791</ele>
        <time>2022-09-22T09:33:01.522Z</time>
      </trkpt>
      <trkpt lat="44.93348" lon="5.4307">
        <ele>791</ele>
        <time>2022-09-22T09:33:02.522Z</time>
      </trkpt>
      <trkpt lat="44.9335" lon="5.43069">
        <ele>791</ele>
        <time>2022-09-22T09:33:03.521Z</time>
      </trkpt>
      <trkpt lat="44.93351" lon="5.4307">
        <ele>791</ele>
        <time>2022-09-22T09:33:04.522Z</time>
      </trkpt>
      <trkpt lat="44.93353" lon="5.43071">
        <ele>791</ele>
        <time>2022-09-22T09:33:05.521Z</time>
      </trkpt>
      <trkpt lat="44.93356" lon="5.43073">
        <ele>791</ele>
        <time>2022-09-22T09:33:06.522Z</time>
      </trkpt>
      <trkpt lat="44.9336" lon="5.43076">
        <ele>791</ele>
        <time>2022-09-22T09:33:07.522Z</time>
      </trkpt>
      <trkpt lat="44.93364" lon="5.43078">
        <ele>790</ele>
        <time>2022-09-22T09:33:08.521Z</time>
      </trkpt>
      <trkpt lat="44.93368" lon="5.4308">
        <ele>790</ele>
        <time>2022-09-22T09:33:09.521Z</time>
      </trkpt>
      <trkpt lat="44.93373" lon="5.43082">
        <ele>790</ele>
        <time>2022-09-22T09:33:10.522Z</time>
      </trkpt>
      <trkpt lat="44.93377" lon="5.43084">
        <ele>790</ele>
        <time>2022-09-22T09:33:11.522Z</time>
      </trkpt>
      <trkpt lat="44.93379" lon="5.43086">
        <ele>789</ele>
        <time>2022-09-22T09:33:12.522Z</time>
      </trkpt>
      <trkpt lat="44.93382" lon="5.43089">
        <ele>790</ele>
        <time>2022-09-22T09:33:13.522Z</time>
      </trkpt>
      <trkpt lat="44.93384" lon="5.43092">
        <ele>790</ele>
        <time>2022-09-22T09:33:14.522Z</time>
      </trkpt>
      <trkpt lat="44.93386" lon="5.43094">
        <ele>790</ele>
        <time>2022-09-22T09:33:15.521Z</time>
      </trkpt>
      <trkpt lat="44.93387" lon="5.43097">
        <ele>790</ele>
        <time>2022-09-22T09:33:16.521Z</time>
      </trkpt>
      <trkpt lat="44.93389" lon="5.43101">
        <ele>790</ele>
        <time>2022-09-22T09:33:17.522Z</time>
      </trkpt>
      <trkpt lat="44.93391" lon="5.43104">
        <ele>791</ele>
        <time>2022-09-22T09:33:18.521Z</time>
      </trkpt>
      <trkpt lat="44.93393" lon="5.43107">
        <ele>791</ele>
        <time>2022-09-22T09:33:19.521Z</time>
      </trkpt>
      <trkpt lat="44.93394" lon="5.43109">
        <ele>791</ele>
        <time>2022-09-22T09:33:20.522Z</time>
      </trkpt>
      <trkpt lat="44.93396" lon="5.43112">
        <ele>792</ele>
        <time>2022-09-22T09:33:21.522Z</time>
      </trkpt>
      <trkpt lat="44.93398" lon="5.43113">
        <ele>792</ele>
        <time>2022-09-22T09:33:22.521Z</time>
      </trkpt>
      <trkpt lat="44.93399" lon="5.43115">
        <ele>792</ele>
        <time>2022-09-22T09:33:23.521Z</time>
      </trkpt>
      <trkpt lat="44.934" lon="5.43116">
        <ele>792</ele>
        <time>2022-09-22T09:33:24.521Z</time>
      </trkpt>
      <trkpt lat="44.93402" lon="5.43117">
        <ele>792</ele>
        <time>2022-09-22T09:33:25.521Z</time>
      </trkpt>
      <trkpt lat="44.93403" lon="5.43119">
        <ele>792</ele>
        <time>2022-09-22T09:33:26.522Z</time>
      </trkpt>
      <trkpt lat="44.93404" lon="5.4312">
        <ele>792</ele>
        <time>2022-09-22T09:33:27.521Z</time>
      </trkpt>
      <trkpt lat="44.93406" lon="5.43121">
        <ele>791</ele>
        <time>2022-09-22T09:33:28.521Z</time>
      </trkpt>
      <trkpt lat="44.93407" lon="5.43122">
        <ele>791</ele>
        <time>2022-09-22T09:33:29.522Z</time>
      </trkpt>
      <trkpt lat="44.93408" lon="5.43124">
        <ele>791</ele>
        <time>2022-09-22T09:33:30.521Z</time>
      </trkpt>
      <trkpt lat="44.93409" lon="5.43125">
        <ele>791</ele>
        <time>2022-09-22T09:33:31.521Z</time>
      </trkpt>
      <trkpt lat="44.93411" lon="5.43126">
        <ele>791</ele>
        <time>2022-09-22T09:33:32.522Z</time>
      </trkpt>
      <trkpt lat="44.93412" lon="5.43127">
        <ele>791</ele>
        <time>2022-09-22T09:33:33.522Z</time>
      </trkpt>
      <trkpt lat="44.93413" lon="5.43128">
        <ele>791</ele>
        <time>2022-09-22T09:33:34.522Z</time>
      </trkpt>
      <trkpt lat="44.93414" lon="5.43129">
        <ele>791</ele>
        <time>2022-09-22T09:33:35.522Z</time>
      </trkpt>
      <trkpt lat="44.93416" lon="5.4313">
        <ele>791</ele>
        <time>2022-09-22T09:33:36.522Z</time>
      </trkpt>
      <trkpt lat="44.93417" lon="5.43131">
        <ele>791</ele>
        <time>2022-09-22T09:33:37.522Z</time>
      </trkpt>
      <trkpt lat="44.93418" lon="5.43132">
        <ele>791</ele>
        <time>2022-09-22T09:33:38.521Z</time>
      </trkpt>
      <trkpt lat="44.93419" lon="5.43133">
        <ele>792</ele>
        <time>2022-09-22T09:33:39.522Z</time>
      </trkpt>
      <trkpt lat="44.93421" lon="5.43134">
        <ele>792</ele>
        <time>2022-09-22T09:33:40.521Z</time>
      </trkpt>
      <trkpt lat="44.93422" lon="5.43135">
        <ele>792</ele>
        <time>2022-09-22T09:33:41.522Z</time>
      </trkpt>
      <trkpt lat="44.93423" lon="5.43136">
        <ele>792</ele>
        <time>2022-09-22T09:33:42.521Z</time>
      </trkpt>
      <trkpt lat="44.93425" lon="5.43137">
        <ele>792</ele>
        <time>2022-09-22T09:33:43.522Z</time>
      </trkpt>
      <trkpt lat="44.93426" lon="5.43138">
        <ele>792</ele>
        <time>2022-09-22T09:33:44.522Z</time>
      </trkpt>
      <trkpt lat="44.93427" lon="5.43139">
        <ele>792</ele>
        <time>2022-09-22T09:33:45.521Z</time>
      </trkpt>
      <trkpt lat="44.93429" lon="5.4314">
        <ele>793</ele>
        <time>2022-09-22T09:33:46.521Z</time>
      </trkpt>
      <trkpt lat="44.93431" lon="5.43141">
        <ele>793</ele>
        <time>2022-09-22T09:33:47.521Z</time>
      </trkpt>
      <trkpt lat="44.93432" lon="5.43143">
        <ele>793</ele>
        <time>2022-09-22T09:33:48.521Z</time>
      </trkpt>
      <trkpt lat="44.93433" lon="5.43144">
        <ele>794</ele>
        <time>2022-09-22T09:33:49.521Z</time>
      </trkpt>
      <trkpt lat="44.93434" lon="5.43145">
        <ele>794</ele>
        <time>2022-09-22T09:33:50.521Z</time>
      </trkpt>
      <trkpt lat="44.93436" lon="5.43146">
        <ele>794</ele>
        <time>2022-09-22T09:33:51.521Z</time>
      </trkpt>
      <trkpt lat="44.93437" lon="5.43147">
        <ele>794</ele>
        <time>2022-09-22T09:33:52.522Z</time>
      </trkpt>
      <trkpt lat="44.93438" lon="5.43148">
        <ele>794</ele>
        <time>2022-09-22T09:33:53.521Z</time>
      </trkpt>
      <trkpt lat="44.93439" lon="5.43148">
        <ele>795</ele>
        <time>2022-09-22T09:33:54.521Z</time>
      </trkpt>
      <trkpt lat="44.93441" lon="5.4315">
        <ele>796</ele>
        <time>2022-09-22T09:33:55.522Z</time>
      </trkpt>
      <trkpt lat="44.93443" lon="5.43151">
        <ele>797</ele>
        <time>2022-09-22T09:33:56.521Z</time>
      </trkpt>
      <trkpt lat="44.93445" lon="5.43153">
        <ele>797</ele>
        <time>2022-09-22T09:33:57.522Z</time>
      </trkpt>
      <trkpt lat="44.93447" lon="5.43154">
        <ele>798</ele>
        <time>2022-09-22T09:33:58.522Z</time>
      </trkpt>
      <trkpt lat="44.93448" lon="5.43155">
        <ele>798</ele>
        <time>2022-09-22T09:33:59.521Z</time>
      </trkpt>
      <trkpt lat="44.9345" lon="5.43157">
        <ele>798</ele>
        <time>2022-09-22T09:34:00.522Z</time>
      </trkpt>
      <trkpt lat="44.93451" lon="5.43158">
        <ele>798</ele>
        <time>2022-09-22T09:34:01.521Z</time>
      </trkpt>
      <trkpt lat="44.93452" lon="5.4316">
        <ele>798</ele>
        <time>2022-09-22T09:34:02.522Z</time>
      </trkpt>
      <trkpt lat="44.93453" lon="5.43161">
        <ele>799</ele>
        <time>2022-09-22T09:34:03.522Z</time>
      </trkpt>
      <trkpt lat="44.93455" lon="5.43162">
        <ele>799</ele>
        <time>2022-09-22T09:34:04.522Z</time>
      </trkpt>
      <trkpt lat="44.93456" lon="5.43163">
        <ele>800</ele>
        <time>2022-09-22T09:34:05.522Z</time>
      </trkpt>
      <trkpt lat="44.93457" lon="5.43164">
        <ele>800</ele>
        <time>2022-09-22T09:34:06.522Z</time>
      </trkpt>
      <trkpt lat="44.93459" lon="5.43165">
        <ele>801</ele>
        <time>2022-09-22T09:34:07.521Z</time>
      </trkpt>
      <trkpt lat="44.9346" lon="5.43165">
        <ele>801</ele>
        <time>2022-09-22T09:34:08.522Z</time>
      </trkpt>
      <trkpt lat="44.93461" lon="5.43166">
        <ele>802</ele>
        <time>2022-09-22T09:34:09.521Z</time>
      </trkpt>
      <trkpt lat="44.93463" lon="5.43168">
        <ele>802</ele>
        <time>2022-09-22T09:34:10.522Z</time>
      </trkpt>
      <trkpt lat="44.93464" lon="5.43169">
        <ele>803</ele>
        <time>2022-09-22T09:34:11.522Z</time>
      </trkpt>
      <trkpt lat="44.93465" lon="5.4317">
        <ele>803</ele>
        <time>2022-09-22T09:34:12.522Z</time>
      </trkpt>
      <trkpt lat="44.93465" lon="5.4317">
        <ele>803</ele>
        <time>2022-09-22T09:34:13.521Z</time>
      </trkpt>
      <trkpt lat="44.93465" lon="5.4317">
        <ele>803</ele>
        <time>2022-09-22T09:34:14.522Z</time>
      </trkpt>
      <trkpt lat="44.93465" lon="5.4317">
        <ele>803</ele>
        <time>2022-09-22T09:34:15.522Z</time>
      </trkpt>
      <trkpt lat="44.93467" lon="5.43171">
        <ele>803</ele>
        <time>2022-09-22T09:34:19.545Z</time>
      </trkpt>
      <trkpt lat="44.93468" lon="5.43172">
        <ele>802</ele>
        <time>2022-09-22T09:34:20.546Z</time>
      </trkpt>
      <trkpt lat="44.93468" lon="5.43172">
        <ele>802</ele>
        <time>2022-09-22T09:34:21.545Z</time>
      </trkpt>
      <trkpt lat="44.93469" lon="5.43171">
        <ele>802</ele>
        <time>2022-09-22T09:34:22.545Z</time>
      </trkpt>
      <trkpt lat="44.9347" lon="5.43171">
        <ele>803</ele>
        <time>2022-09-22T09:34:23.546Z</time>
      </trkpt>
      <trkpt lat="44.9347" lon="5.43171">
        <ele>803</ele>
        <time>2022-09-22T09:34:24.546Z</time>
      </trkpt>
      <trkpt lat="44.93471" lon="5.4317">
        <ele>804</ele>
        <time>2022-09-22T09:34:25.546Z</time>
      </trkpt>
      <trkpt lat="44.93471" lon="5.4317">
        <ele>804</ele>
        <time>2022-09-22T09:34:26.546Z</time>
      </trkpt>
      <trkpt lat="44.93472" lon="5.4317">
        <ele>805</ele>
        <time>2022-09-22T09:34:27.546Z</time>
      </trkpt>
      <trkpt lat="44.93472" lon="5.43169">
        <ele>806</ele>
        <time>2022-09-22T09:34:28.545Z</time>
      </trkpt>
      <trkpt lat="44.93473" lon="5.43169">
        <ele>806</ele>
        <time>2022-09-22T09:34:29.545Z</time>
      </trkpt>
      <trkpt lat="44.93474" lon="5.43168">
        <ele>807</ele>
        <time>2022-09-22T09:34:30.546Z</time>
      </trkpt>
      <trkpt lat="44.93475" lon="5.43168">
        <ele>807</ele>
        <time>2022-09-22T09:34:31.546Z</time>
      </trkpt>
      <trkpt lat="44.93475" lon="5.43167">
        <ele>808</ele>
        <time>2022-09-22T09:34:32.546Z</time>
      </trkpt>
      <trkpt lat="44.93476" lon="5.43167">
        <ele>808</ele>
        <time>2022-09-22T09:34:33.546Z</time>
      </trkpt>
      <trkpt lat="44.93477" lon="5.43166">
        <ele>808</ele>
        <time>2022-09-22T09:34:34.546Z</time>
      </trkpt>
      <trkpt lat="44.93477" lon="5.43165">
        <ele>809</ele>
        <time>2022-09-22T09:34:35.546Z</time>
      </trkpt>
      <trkpt lat="44.93478" lon="5.43164">
        <ele>809</ele>
        <time>2022-09-22T09:34:36.545Z</time>
      </trkpt>
      <trkpt lat="44.93478" lon="5.43164">
        <ele>810</ele>
        <time>2022-09-22T09:34:37.546Z</time>
      </trkpt>
      <trkpt lat="44.93479" lon="5.43164">
        <ele>810</ele>
        <time>2022-09-22T09:34:38.546Z</time>
      </trkpt>
      <trkpt lat="44.93479" lon="5.43164">
        <ele>811</ele>
        <time>2022-09-22T09:34:39.546Z</time>
      </trkpt>
      <trkpt lat="44.9348" lon="5.43164">
        <ele>811</ele>
        <time>2022-09-22T09:34:40.546Z</time>
      </trkpt>
      <trkpt lat="44.9348" lon="5.43164">
        <ele>811</ele>
        <time>2022-09-22T09:34:41.546Z</time>
      </trkpt>
      <trkpt lat="44.93485" lon="5.43169">
        <ele>816</ele>
        <time>2022-09-22T09:34:58.565Z</time>
      </trkpt>
      <trkpt lat="44.93486" lon="5.43168">
        <ele>815</ele>
        <time>2022-09-22T09:34:59.565Z</time>
      </trkpt>
      <trkpt lat="44.93486" lon="5.43168">
        <ele>815</ele>
        <time>2022-09-22T09:35:00.564Z</time>
      </trkpt>
      <trkpt lat="44.93486" lon="5.43169">
        <ele>815</ele>
        <time>2022-09-22T09:35:01.564Z</time>
      </trkpt>
      <trkpt lat="44.93485" lon="5.43169">
        <ele>814</ele>
        <time>2022-09-22T09:35:02.565Z</time>
      </trkpt>
      <trkpt lat="44.93486" lon="5.43169">
        <ele>814</ele>
        <time>2022-09-22T09:35:03.564Z</time>
      </trkpt>
      <trkpt lat="44.93486" lon="5.4317">
        <ele>814</ele>
        <time>2022-09-22T09:35:04.565Z</time>
      </trkpt>
      <trkpt lat="44.93486" lon="5.4317">
        <ele>814</ele>
        <time>2022-09-22T09:35:05.564Z</time>
      </trkpt>
      <trkpt lat="44.93486" lon="5.43171">
        <ele>815</ele>
        <time>2022-09-22T09:35:06.565Z</time>
      </trkpt>
      <trkpt lat="44.93487" lon="5.43171">
        <ele>815</ele>
        <time>2022-09-22T09:35:07.565Z</time>
      </trkpt>
      <trkpt lat="44.93487" lon="5.43171">
        <ele>816</ele>
        <time>2022-09-22T09:35:08.565Z</time>
      </trkpt>
      <trkpt lat="44.93487" lon="5.43171">
        <ele>817</ele>
        <time>2022-09-22T09:35:09.565Z</time>
      </trkpt>
      <trkpt lat="44.93487" lon="5.43171">
        <ele>817</ele>
        <time>2022-09-22T09:35:10.564Z</time>
      </trkpt>
      <trkpt lat="44.93486" lon="5.4317">
        <ele>817</ele>
        <time>2022-09-22T09:35:11.565Z</time>
      </trkpt>
      <trkpt lat="44.93486" lon="5.43171">
        <ele>817</ele>
        <time>2022-09-22T09:35:12.565Z</time>
      </trkpt>
      <trkpt lat="44.93486" lon="5.4317">
        <ele>817</ele>
        <time>2022-09-22T09:35:13.565Z</time>
      </trkpt>
      <trkpt lat="44.93486" lon="5.43169">
        <ele>817</ele>
        <time>2022-09-22T09:35:14.565Z</time>
      </trkpt>
      <trkpt lat="44.93486" lon="5.43169">
        <ele>817</ele>
        <time>2022-09-22T09:35:15.564Z</time>
      </trkpt>
      <trkpt lat="44.93486" lon="5.43169">
        <ele>818</ele>
        <time>2022-09-22T09:35:16.564Z</time>
      </trkpt>
      <trkpt lat="44.93488" lon="5.43169">
        <ele>821</ele>
        <time>2022-09-22T09:35:27.669Z</time>
      </trkpt>
      <trkpt lat="44.9349" lon="5.43168">
        <ele>821</ele>
        <time>2022-09-22T09:35:28.670Z</time>
      </trkpt>
      <trkpt lat="44.93492" lon="5.43168">
        <ele>820</ele>
        <time>2022-09-22T09:35:29.669Z</time>
      </trkpt>
      <trkpt lat="44.93493" lon="5.43168">
        <ele>820</ele>
        <time>2022-09-22T09:35:30.670Z</time>
      </trkpt>
      <trkpt lat="44.93495" lon="5.43169">
        <ele>819</ele>
        <time>2022-09-22T09:35:31.669Z</time>
      </trkpt>
      <trkpt lat="44.93496" lon="5.4317">
        <ele>819</ele>
        <time>2022-09-22T09:35:32.670Z</time>
      </trkpt>
      <trkpt lat="44.93498" lon="5.4317">
        <ele>818</ele>
        <time>2022-09-22T09:35:33.669Z</time>
      </trkpt>
      <trkpt lat="44.935" lon="5.43172">
        <ele>818</ele>
        <time>2022-09-22T09:35:34.669Z</time>
      </trkpt>
      <trkpt lat="44.93502" lon="5.43174">
        <ele>818</ele>
        <time>2022-09-22T09:35:35.670Z</time>
      </trkpt>
      <trkpt lat="44.93504" lon="5.43175">
        <ele>818</ele>
        <time>2022-09-22T09:35:36.670Z</time>
      </trkpt>
      <trkpt lat="44.93506" lon="5.43177">
        <ele>818</ele>
        <time>2022-09-22T09:35:37.670Z</time>
      </trkpt>
      <trkpt lat="44.93507" lon="5.43178">
        <ele>818</ele>
        <time>2022-09-22T09:35:38.670Z</time>
      </trkpt>
      <trkpt lat="44.93508" lon="5.4318">
        <ele>818</ele>
        <time>2022-09-22T09:35:39.670Z</time>
      </trkpt>
      <trkpt lat="44.9351" lon="5.43181">
        <ele>817</ele>
        <time>2022-09-22T09:35:40.669Z</time>
      </trkpt>
      <trkpt lat="44.93511" lon="5.43183">
        <ele>817</ele>
        <time>2022-09-22T09:35:41.669Z</time>
      </trkpt>
      <trkpt lat="44.93513" lon="5.43184">
        <ele>817</ele>
        <time>2022-09-22T09:35:42.669Z</time>
      </trkpt>
      <trkpt lat="44.93515" lon="5.43185">
        <ele>817</ele>
        <time>2022-09-22T09:35:43.670Z</time>
      </trkpt>
      <trkpt lat="44.93517" lon="5.43186">
        <ele>816</ele>
        <time>2022-09-22T09:35:44.670Z</time>
      </trkpt>
      <trkpt lat="44.93519" lon="5.43186">
        <ele>816</ele>
        <time>2022-09-22T09:35:45.669Z</time>
      </trkpt>
      <trkpt lat="44.93521" lon="5.43187">
        <ele>816</ele>
        <time>2022-09-22T09:35:46.669Z</time>
      </trkpt>
      <trkpt lat="44.93523" lon="5.43187">
        <ele>816</ele>
        <time>2022-09-22T09:35:47.670Z</time>
      </trkpt>
      <trkpt lat="44.93525" lon="5.43187">
        <ele>816</ele>
        <time>2022-09-22T09:35:48.669Z</time>
      </trkpt>
      <trkpt lat="44.93527" lon="5.43187">
        <ele>816</ele>
        <time>2022-09-22T09:35:49.670Z</time>
      </trkpt>
      <trkpt lat="44.93528" lon="5.43187">
        <ele>817</ele>
        <time>2022-09-22T09:35:50.669Z</time>
      </trkpt>
      <trkpt lat="44.9353" lon="5.43188">
        <ele>817</ele>
        <time>2022-09-22T09:35:51.670Z</time>
      </trkpt>
      <trkpt lat="44.93533" lon="5.43188">
        <ele>817</ele>
        <time>2022-09-22T09:35:52.670Z</time>
      </trkpt>
      <trkpt lat="44.93535" lon="5.43188">
        <ele>817</ele>
        <time>2022-09-22T09:35:53.670Z</time>
      </trkpt>
      <trkpt lat="44.93537" lon="5.43187">
        <ele>818</ele>
        <time>2022-09-22T09:35:54.670Z</time>
      </trkpt>
      <trkpt lat="44.93538" lon="5.43186">
        <ele>818</ele>
        <time>2022-09-22T09:35:55.670Z</time>
      </trkpt>
      <trkpt lat="44.9354" lon="5.43184">
        <ele>819</ele>
        <time>2022-09-22T09:35:56.670Z</time>
      </trkpt>
      <trkpt lat="44.93543" lon="5.43182">
        <ele>819</ele>
        <time>2022-09-22T09:35:57.670Z</time>
      </trkpt>
      <trkpt lat="44.93544" lon="5.4318">
        <ele>819</ele>
        <time>2022-09-22T09:35:58.669Z</time>
      </trkpt>
      <trkpt lat="44.93546" lon="5.43178">
        <ele>819</ele>
        <time>2022-09-22T09:35:59.669Z</time>
      </trkpt>
      <trkpt lat="44.93547" lon="5.43176">
        <ele>819</ele>
        <time>2022-09-22T09:36:00.669Z</time>
      </trkpt>
      <trkpt lat="44.93549" lon="5.43175">
        <ele>820</ele>
        <time>2022-09-22T09:36:01.670Z</time>
      </trkpt>
      <trkpt lat="44.9355" lon="5.43174">
        <ele>820</ele>
        <time>2022-09-22T09:36:02.670Z</time>
      </trkpt>
      <trkpt lat="44.93551" lon="5.43173">
        <ele>820</ele>
        <time>2022-09-22T09:36:03.669Z</time>
      </trkpt>
      <trkpt lat="44.93551" lon="5.43171">
        <ele>821</ele>
        <time>2022-09-22T09:36:04.670Z</time>
      </trkpt>
      <trkpt lat="44.93552" lon="5.43168">
        <ele>821</ele>
        <time>2022-09-22T09:36:05.670Z</time>
      </trkpt>
      <trkpt lat="44.93551" lon="5.43164">
        <ele>821</ele>
        <time>2022-09-22T09:36:06.670Z</time>
      </trkpt>
      <trkpt lat="44.9355" lon="5.43161">
        <ele>822</ele>
        <time>2022-09-22T09:36:07.670Z</time>
      </trkpt>
      <trkpt lat="44.9355" lon="5.43157">
        <ele>822</ele>
        <time>2022-09-22T09:36:08.669Z</time>
      </trkpt>
      <trkpt lat="44.93549" lon="5.43153">
        <ele>822</ele>
        <time>2022-09-22T09:36:09.670Z</time>
      </trkpt>
      <trkpt lat="44.93548" lon="5.4315">
        <ele>821</ele>
        <time>2022-09-22T09:36:10.670Z</time>
      </trkpt>
      <trkpt lat="44.93546" lon="5.43146">
        <ele>820</ele>
        <time>2022-09-22T09:36:11.669Z</time>
      </trkpt>
      <trkpt lat="44.93546" lon="5.43144">
        <ele>819</ele>
        <time>2022-09-22T09:36:12.670Z</time>
      </trkpt>
      <trkpt lat="44.93547" lon="5.43142">
        <ele>818</ele>
        <time>2022-09-22T09:36:13.670Z</time>
      </trkpt>
      <trkpt lat="44.93548" lon="5.43141">
        <ele>817</ele>
        <time>2022-09-22T09:36:14.670Z</time>
      </trkpt>
      <trkpt lat="44.9355" lon="5.4314">
        <ele>816</ele>
        <time>2022-09-22T09:36:15.670Z</time>
      </trkpt>
      <trkpt lat="44.93552" lon="5.4314">
        <ele>815</ele>
        <time>2022-09-22T09:36:16.670Z</time>
      </trkpt>
      <trkpt lat="44.93554" lon="5.43139">
        <ele>815</ele>
        <time>2022-09-22T09:36:17.670Z</time>
      </trkpt>
      <trkpt lat="44.93556" lon="5.43139">
        <ele>814</ele>
        <time>2022-09-22T09:36:18.669Z</time>
      </trkpt>
      <trkpt lat="44.93558" lon="5.43139">
        <ele>814</ele>
        <time>2022-09-22T09:36:19.669Z</time>
      </trkpt>
      <trkpt lat="44.9356" lon="5.43139">
        <ele>814</ele>
        <time>2022-09-22T09:36:20.669Z</time>
      </trkpt>
      <trkpt lat="44.93562" lon="5.43139">
        <ele>814</ele>
        <time>2022-09-22T09:36:21.670Z</time>
      </trkpt>
      <trkpt lat="44.93563" lon="5.43139">
        <ele>814</ele>
        <time>2022-09-22T09:36:22.670Z</time>
      </trkpt>
      <trkpt lat="44.93565" lon="5.43139">
        <ele>814</ele>
        <time>2022-09-22T09:36:23.670Z</time>
      </trkpt>
      <trkpt lat="44.93567" lon="5.43139">
        <ele>814</ele>
        <time>2022-09-22T09:36:24.670Z</time>
      </trkpt>
      <trkpt lat="44.93569" lon="5.4314">
        <ele>814</ele>
        <time>2022-09-22T09:36:25.669Z</time>
      </trkpt>
      <trkpt lat="44.93572" lon="5.43141">
        <ele>814</ele>
        <time>2022-09-22T09:36:26.669Z</time>
      </trkpt>
      <trkpt lat="44.93575" lon="5.43143">
        <ele>814</ele>
        <time>2022-09-22T09:36:27.669Z</time>
      </trkpt>
      <trkpt lat="44.93578" lon="5.43145">
        <ele>814</ele>
        <time>2022-09-22T09:36:28.670Z</time>
      </trkpt>
      <trkpt lat="44.9358" lon="5.43148">
        <ele>814</ele>
        <time>2022-09-22T09:36:29.670Z</time>
      </trkpt>
      <trkpt lat="44.93582" lon="5.43151">
        <ele>814</ele>
        <time>2022-09-22T09:36:30.670Z</time>
      </trkpt>
      <trkpt lat="44.93583" lon="5.43154">
        <ele>814</ele>
        <time>2022-09-22T09:36:31.670Z</time>
      </trkpt>
      <trkpt lat="44.93585" lon="5.43157">
        <ele>814</ele>
        <time>2022-09-22T09:36:32.669Z</time>
      </trkpt>
      <trkpt lat="44.93587" lon="5.43159">
        <ele>814</ele>
        <time>2022-09-22T09:36:33.669Z</time>
      </trkpt>
      <trkpt lat="44.93588" lon="5.43161">
        <ele>814</ele>
        <time>2022-09-22T09:36:34.670Z</time>
      </trkpt>
      <trkpt lat="44.93591" lon="5.43162">
        <ele>814</ele>
        <time>2022-09-22T09:36:35.670Z</time>
      </trkpt>
      <trkpt lat="44.93593" lon="5.43162">
        <ele>814</ele>
        <time>2022-09-22T09:36:36.670Z</time>
      </trkpt>
      <trkpt lat="44.93595" lon="5.43162">
        <ele>814</ele>
        <time>2022-09-22T09:36:37.669Z</time>
      </trkpt>
      <trkpt lat="44.93596" lon="5.43162">
        <ele>814</ele>
        <time>2022-09-22T09:36:38.670Z</time>
      </trkpt>
      <trkpt lat="44.93598" lon="5.43162">
        <ele>813</ele>
        <time>2022-09-22T09:36:39.670Z</time>
      </trkpt>
      <trkpt lat="44.93599" lon="5.43161">
        <ele>813</ele>
        <time>2022-09-22T09:36:40.670Z</time>
      </trkpt>
      <trkpt lat="44.936" lon="5.4316">
        <ele>812</ele>
        <time>2022-09-22T09:36:41.670Z</time>
      </trkpt>
      <trkpt lat="44.936" lon="5.43158">
        <ele>812</ele>
        <time>2022-09-22T09:36:42.670Z</time>
      </trkpt>
      <trkpt lat="44.93602" lon="5.43156">
        <ele>812</ele>
        <time>2022-09-22T09:36:43.669Z</time>
      </trkpt>
      <trkpt lat="44.93604" lon="5.43155">
        <ele>811</ele>
        <time>2022-09-22T09:36:44.669Z</time>
      </trkpt>
      <trkpt lat="44.93606" lon="5.43152">
        <ele>811</ele>
        <time>2022-09-22T09:36:45.669Z</time>
      </trkpt>
      <trkpt lat="44.93607" lon="5.43149">
        <ele>811</ele>
        <time>2022-09-22T09:36:46.670Z</time>
      </trkpt>
      <trkpt lat="44.93609" lon="5.43147">
        <ele>811</ele>
        <time>2022-09-22T09:36:47.670Z</time>
      </trkpt>
      <trkpt lat="44.93612" lon="5.43144">
        <ele>811</ele>
        <time>2022-09-22T09:36:48.670Z</time>
      </trkpt>
      <trkpt lat="44.93614" lon="5.43141">
        <ele>811</ele>
        <time>2022-09-22T09:36:49.670Z</time>
      </trkpt>
      <trkpt lat="44.93616" lon="5.43137">
        <ele>811</ele>
        <time>2022-09-22T09:36:50.669Z</time>
      </trkpt>
      <trkpt lat="44.93618" lon="5.43132">
        <ele>811</ele>
        <time>2022-09-22T09:36:51.670Z</time>
      </trkpt>
      <trkpt lat="44.9362" lon="5.43128">
        <ele>810</ele>
        <time>2022-09-22T09:36:52.670Z</time>
      </trkpt>
      <trkpt lat="44.93622" lon="5.43123">
        <ele>810</ele>
        <time>2022-09-22T09:36:53.669Z</time>
      </trkpt>
      <trkpt lat="44.93624" lon="5.43118">
        <ele>809</ele>
        <time>2022-09-22T09:36:54.669Z</time>
      </trkpt>
      <trkpt lat="44.93627" lon="5.43113">
        <ele>809</ele>
        <time>2022-09-22T09:36:55.669Z</time>
      </trkpt>
      <trkpt lat="44.93629" lon="5.43109">
        <ele>809</ele>
        <time>2022-09-22T09:36:56.670Z</time>
      </trkpt>
      <trkpt lat="44.93631" lon="5.43103">
        <ele>809</ele>
        <time>2022-09-22T09:36:57.669Z</time>
      </trkpt>
      <trkpt lat="44.93631" lon="5.43098">
        <ele>808</ele>
        <time>2022-09-22T09:36:58.670Z</time>
      </trkpt>
      <trkpt lat="44.93631" lon="5.43093">
        <ele>808</ele>
        <time>2022-09-22T09:36:59.669Z</time>
      </trkpt>
      <trkpt lat="44.93631" lon="5.43089">
        <ele>808</ele>
        <time>2022-09-22T09:37:00.670Z</time>
      </trkpt>
      <trkpt lat="44.93631" lon="5.43085">
        <ele>808</ele>
        <time>2022-09-22T09:37:01.670Z</time>
      </trkpt>
      <trkpt lat="44.93631" lon="5.43081">
        <ele>808</ele>
        <time>2022-09-22T09:37:02.669Z</time>
      </trkpt>
      <trkpt lat="44.93631" lon="5.43077">
        <ele>808</ele>
        <time>2022-09-22T09:37:03.670Z</time>
      </trkpt>
      <trkpt lat="44.93631" lon="5.43074">
        <ele>808</ele>
        <time>2022-09-22T09:37:04.670Z</time>
      </trkpt>
      <trkpt lat="44.93631" lon="5.43071">
        <ele>807</ele>
        <time>2022-09-22T09:37:05.669Z</time>
      </trkpt>
      <trkpt lat="44.93631" lon="5.43068">
        <ele>807</ele>
        <time>2022-09-22T09:37:06.670Z</time>
      </trkpt>
      <trkpt lat="44.93631" lon="5.43064">
        <ele>807</ele>
        <time>2022-09-22T09:37:07.669Z</time>
      </trkpt>
      <trkpt lat="44.93631" lon="5.43061">
        <ele>807</ele>
        <time>2022-09-22T09:37:08.670Z</time>
      </trkpt>
      <trkpt lat="44.9363" lon="5.43058">
        <ele>807</ele>
        <time>2022-09-22T09:37:09.669Z</time>
      </trkpt>
      <trkpt lat="44.93629" lon="5.43055">
        <ele>807</ele>
        <time>2022-09-22T09:37:10.669Z</time>
      </trkpt>
      <trkpt lat="44.93628" lon="5.43053">
        <ele>807</ele>
        <time>2022-09-22T09:37:11.670Z</time>
      </trkpt>
      <trkpt lat="44.93627" lon="5.4305">
        <ele>807</ele>
        <time>2022-09-22T09:37:12.669Z</time>
      </trkpt>
      <trkpt lat="44.93626" lon="5.43047">
        <ele>808</ele>
        <time>2022-09-22T09:37:13.670Z</time>
      </trkpt>
      <trkpt lat="44.93625" lon="5.43045">
        <ele>808</ele>
        <time>2022-09-22T09:37:14.669Z</time>
      </trkpt>
      <trkpt lat="44.93623" lon="5.43042">
        <ele>808</ele>
        <time>2022-09-22T09:37:15.670Z</time>
      </trkpt>
      <trkpt lat="44.93621" lon="5.4304">
        <ele>808</ele>
        <time>2022-09-22T09:37:16.670Z</time>
      </trkpt>
      <trkpt lat="44.9362" lon="5.43039">
        <ele>808</ele>
        <time>2022-09-22T09:37:17.669Z</time>
      </trkpt>
      <trkpt lat="44.93618" lon="5.43038">
        <ele>808</ele>
        <time>2022-09-22T09:37:18.669Z</time>
      </trkpt>
      <trkpt lat="44.93616" lon="5.43036">
        <ele>808</ele>
        <time>2022-09-22T09:37:19.669Z</time>
      </trkpt>
      <trkpt lat="44.93614" lon="5.43034">
        <ele>808</ele>
        <time>2022-09-22T09:37:20.670Z</time>
      </trkpt>
      <trkpt lat="44.93612" lon="5.43033">
        <ele>808</ele>
        <time>2022-09-22T09:37:21.670Z</time>
      </trkpt>
      <trkpt lat="44.9361" lon="5.43031">
        <ele>808</ele>
        <time>2022-09-22T09:37:22.670Z</time>
      </trkpt>
      <trkpt lat="44.93608" lon="5.43029">
        <ele>808</ele>
        <time>2022-09-22T09:37:23.669Z</time>
      </trkpt>
      <trkpt lat="44.93605" lon="5.43028">
        <ele>808</ele>
        <time>2022-09-22T09:37:24.670Z</time>
      </trkpt>
      <trkpt lat="44.93602" lon="5.43027">
        <ele>808</ele>
        <time>2022-09-22T09:37:25.670Z</time>
      </trkpt>
      <trkpt lat="44.93598" lon="5.43026">
        <ele>808</ele>
        <time>2022-09-22T09:37:26.669Z</time>
      </trkpt>
      <trkpt lat="44.93595" lon="5.43026">
        <ele>808</ele>
        <time>2022-09-22T09:37:27.670Z</time>
      </trkpt>
      <trkpt lat="44.93592" lon="5.43025">
        <ele>807</ele>
        <time>2022-09-22T09:37:28.670Z</time>
      </trkpt>
      <trkpt lat="44.93588" lon="5.43025">
        <ele>807</ele>
        <time>2022-09-22T09:37:29.670Z</time>
      </trkpt>
      <trkpt lat="44.93584" lon="5.43024">
        <ele>807</ele>
        <time>2022-09-22T09:37:30.670Z</time>
      </trkpt>
      <trkpt lat="44.9358" lon="5.43024">
        <ele>807</ele>
        <time>2022-09-22T09:37:31.670Z</time>
      </trkpt>
      <trkpt lat="44.93577" lon="5.43024">
        <ele>807</ele>
        <time>2022-09-22T09:37:32.670Z</time>
      </trkpt>
      <trkpt lat="44.93575" lon="5.43025">
        <ele>807</ele>
        <time>2022-09-22T09:37:33.670Z</time>
      </trkpt>
      <trkpt lat="44.93572" lon="5.43028">
        <ele>807</ele>
        <time>2022-09-22T09:37:34.669Z</time>
      </trkpt>
      <trkpt lat="44.93572" lon="5.43032">
        <ele>806</ele>
        <time>2022-09-22T09:37:35.669Z</time>
      </trkpt>
      <trkpt lat="44.93571" lon="5.43037">
        <ele>806</ele>
        <time>2022-09-22T09:37:36.669Z</time>
      </trkpt>
      <trkpt lat="44.93571" lon="5.4304">
        <ele>806</ele>
        <time>2022-09-22T09:37:37.669Z</time>
      </trkpt>
      <trkpt lat="44.9357" lon="5.43044">
        <ele>806</ele>
        <time>2022-09-22T09:37:38.669Z</time>
      </trkpt>
      <trkpt lat="44.9357" lon="5.43048">
        <ele>806</ele>
        <time>2022-09-22T09:37:39.670Z</time>
      </trkpt>
      <trkpt lat="44.93569" lon="5.43051">
        <ele>805</ele>
        <time>2022-09-22T09:37:40.670Z</time>
      </trkpt>
      <trkpt lat="44.93568" lon="5.43053">
        <ele>806</ele>
        <time>2022-09-22T09:37:41.670Z</time>
      </trkpt>
      <trkpt lat="44.93567" lon="5.43055">
        <ele>806</ele>
        <time>2022-09-22T09:37:42.670Z</time>
      </trkpt>
      <trkpt lat="44.93567" lon="5.43056">
        <ele>806</ele>
        <time>2022-09-22T09:37:43.669Z</time>
      </trkpt>
      <trkpt lat="44.93567" lon="5.43057">
        <ele>806</ele>
        <time>2022-09-22T09:37:44.669Z</time>
      </trkpt>
      <trkpt lat="44.93567" lon="5.43058">
        <ele>806</ele>
        <time>2022-09-22T09:37:45.670Z</time>
      </trkpt>
      <trkpt lat="44.93567" lon="5.43058">
        <ele>807</ele>
        <time>2022-09-22T09:37:46.670Z</time>
      </trkpt>
      <trkpt lat="44.93569" lon="5.43059">
        <ele>808</ele>
        <time>2022-09-22T09:37:54.779Z</time>
      </trkpt>
      <trkpt lat="44.93568" lon="5.43059">
        <ele>807</ele>
        <time>2022-09-22T09:37:55.779Z</time>
      </trkpt>
      <trkpt lat="44.93568" lon="5.4306">
        <ele>807</ele>
        <time>2022-09-22T09:37:56.778Z</time>
      </trkpt>
      <trkpt lat="44.93567" lon="5.4306">
        <ele>807</ele>
        <time>2022-09-22T09:37:57.779Z</time>
      </trkpt>
      <trkpt lat="44.93567" lon="5.43061">
        <ele>807</ele>
        <time>2022-09-22T09:37:58.779Z</time>
      </trkpt>
      <trkpt lat="44.93567" lon="5.43061">
        <ele>807</ele>
        <time>2022-09-22T09:37:59.778Z</time>
      </trkpt>
      <trkpt lat="44.93567" lon="5.4306">
        <ele>806</ele>
        <time>2022-09-22T09:38:05.776Z</time>
      </trkpt>
      <trkpt lat="44.93566" lon="5.4306">
        <ele>806</ele>
        <time>2022-09-22T09:38:06.777Z</time>
      </trkpt>
      <trkpt lat="44.93566" lon="5.43059">
        <ele>806</ele>
        <time>2022-09-22T09:38:07.776Z</time>
      </trkpt>
      <trkpt lat="44.93566" lon="5.43059">
        <ele>807</ele>
        <time>2022-09-22T09:38:08.776Z</time>
      </trkpt>
      <trkpt lat="44.93565" lon="5.43059">
        <ele>807</ele>
        <time>2022-09-22T09:38:09.777Z</time>
      </trkpt>
      <trkpt lat="44.93564" lon="5.43059">
        <ele>806</ele>
        <time>2022-09-22T09:38:10.777Z</time>
      </trkpt>
      <trkpt lat="44.93564" lon="5.43058">
        <ele>806</ele>
        <time>2022-09-22T09:38:11.777Z</time>
      </trkpt>
      <trkpt lat="44.93563" lon="5.43058">
        <ele>806</ele>
        <time>2022-09-22T09:38:12.776Z</time>
      </trkpt>
      <trkpt lat="44.93562" lon="5.43057">
        <ele>806</ele>
        <time>2022-09-22T09:38:13.777Z</time>
      </trkpt>
      <trkpt lat="44.93562" lon="5.43056">
        <ele>806</ele>
        <time>2022-09-22T09:38:14.776Z</time>
      </trkpt>
      <trkpt lat="44.93561" lon="5.43056">
        <ele>806</ele>
        <time>2022-09-22T09:38:15.777Z</time>
      </trkpt>
      <trkpt lat="44.93561" lon="5.43055">
        <ele>806</ele>
        <time>2022-09-22T09:38:16.777Z</time>
      </trkpt>
      <trkpt lat="44.93562" lon="5.43057">
        <ele>809</ele>
        <time>2022-09-22T09:38:28.904Z</time>
      </trkpt>
      <trkpt lat="44.93564" lon="5.43058">
        <ele>810</ele>
        <time>2022-09-22T09:38:33.904Z</time>
      </trkpt>
      <trkpt lat="44.93565" lon="5.43058">
        <ele>810</ele>
        <time>2022-09-22T09:38:34.903Z</time>
      </trkpt>
      <trkpt lat="44.93567" lon="5.43058">
        <ele>810</ele>
        <time>2022-09-22T09:38:35.904Z</time>
      </trkpt>
      <trkpt lat="44.9357" lon="5.43059">
        <ele>810</ele>
        <time>2022-09-22T09:38:36.904Z</time>
      </trkpt>
      <trkpt lat="44.93569" lon="5.43058">
        <ele>810</ele>
        <time>2022-09-22T09:38:37.904Z</time>
      </trkpt>
      <trkpt lat="44.9357" lon="5.43062">
        <ele>810</ele>
        <time>2022-09-22T09:38:38.903Z</time>
      </trkpt>
      <trkpt lat="44.93572" lon="5.43066">
        <ele>811</ele>
        <time>2022-09-22T09:38:39.904Z</time>
      </trkpt>
      <trkpt lat="44.93572" lon="5.43068">
        <ele>811</ele>
        <time>2022-09-22T09:38:40.903Z</time>
      </trkpt>
      <trkpt lat="44.93573" lon="5.43076">
        <ele>811</ele>
        <time>2022-09-22T09:38:41.904Z</time>
      </trkpt>
      <trkpt lat="44.93574" lon="5.4308">
        <ele>811</ele>
        <time>2022-09-22T09:38:42.903Z</time>
      </trkpt>
      <trkpt lat="44.93574" lon="5.43081">
        <ele>811</ele>
        <time>2022-09-22T09:38:43.903Z</time>
      </trkpt>
      <trkpt lat="44.93573" lon="5.43081">
        <ele>811</ele>
        <time>2022-09-22T09:38:44.904Z</time>
      </trkpt>
      <trkpt lat="44.93571" lon="5.43079">
        <ele>811</ele>
        <time>2022-09-22T09:38:45.904Z</time>
      </trkpt>
      <trkpt lat="44.93569" lon="5.43077">
        <ele>811</ele>
        <time>2022-09-22T09:38:46.904Z</time>
      </trkpt>
      <trkpt lat="44.9357" lon="5.43075">
        <ele>811</ele>
        <time>2022-09-22T09:38:47.904Z</time>
      </trkpt>
      <trkpt lat="44.9357" lon="5.43073">
        <ele>811</ele>
        <time>2022-09-22T09:38:48.904Z</time>
      </trkpt>
      <trkpt lat="44.93569" lon="5.43072">
        <ele>810</ele>
        <time>2022-09-22T09:38:49.904Z</time>
      </trkpt>
      <trkpt lat="44.93568" lon="5.43071">
        <ele>810</ele>
        <time>2022-09-22T09:38:50.903Z</time>
      </trkpt>
      <trkpt lat="44.93567" lon="5.43071">
        <ele>810</ele>
        <time>2022-09-22T09:38:51.904Z</time>
      </trkpt>
      <trkpt lat="44.93566" lon="5.43071">
        <ele>810</ele>
        <time>2022-09-22T09:38:52.904Z</time>
      </trkpt>
      <trkpt lat="44.93565" lon="5.43071">
        <ele>810</ele>
        <time>2022-09-22T09:38:53.904Z</time>
      </trkpt>
      <trkpt lat="44.93564" lon="5.43071">
        <ele>810</ele>
        <time>2022-09-22T09:38:54.904Z</time>
      </trkpt>
      <trkpt lat="44.93569" lon="5.43089">
        <ele>810</ele>
        <time>2022-09-22T09:39:36.904Z</time>
      </trkpt>
      <trkpt lat="44.93566" lon="5.43078">
        <ele>810</ele>
        <time>2022-09-22T09:39:37.904Z</time>
      </trkpt>
      <trkpt lat="44.93569" lon="5.43072">
        <ele>810</ele>
        <time>2022-09-22T09:39:38.904Z</time>
      </trkpt>
      <trkpt lat="44.93566" lon="5.43063">
        <ele>810</ele>
        <time>2022-09-22T09:39:42.941Z</time>
      </trkpt>
      <trkpt lat="44.93565" lon="5.43061">
        <ele>810</ele>
        <time>2022-09-22T09:39:43.941Z</time>
      </trkpt>
      <trkpt lat="44.93563" lon="5.43058">
        <ele>809</ele>
        <time>2022-09-22T09:39:44.940Z</time>
      </trkpt>
      <trkpt lat="44.93563" lon="5.43057">
        <ele>809</ele>
        <time>2022-09-22T09:39:45.941Z</time>
      </trkpt>
      <trkpt lat="44.93562" lon="5.43057">
        <ele>809</ele>
        <time>2022-09-22T09:39:46.941Z</time>
      </trkpt>
      <trkpt lat="44.93562" lon="5.43058">
        <ele>808</ele>
        <time>2022-09-22T09:39:47.940Z</time>
      </trkpt>
      <trkpt lat="44.93561" lon="5.43057">
        <ele>808</ele>
        <time>2022-09-22T09:39:48.941Z</time>
      </trkpt>
      <trkpt lat="44.93561" lon="5.43056">
        <ele>808</ele>
        <time>2022-09-22T09:39:49.941Z</time>
      </trkpt>
      <trkpt lat="44.93562" lon="5.43054">
        <ele>808</ele>
        <time>2022-09-22T09:39:50.941Z</time>
      </trkpt>
      <trkpt lat="44.93561" lon="5.43051">
        <ele>808</ele>
        <time>2022-09-22T09:39:51.941Z</time>
      </trkpt>
      <trkpt lat="44.9356" lon="5.43048">
        <ele>808</ele>
        <time>2022-09-22T09:39:52.940Z</time>
      </trkpt>
      <trkpt lat="44.93561" lon="5.43048">
        <ele>808</ele>
        <time>2022-09-22T09:39:53.941Z</time>
      </trkpt>
      <trkpt lat="44.93561" lon="5.4305">
        <ele>808</ele>
        <time>2022-09-22T09:39:54.941Z</time>
      </trkpt>
      <trkpt lat="44.93562" lon="5.43051">
        <ele>808</ele>
        <time>2022-09-22T09:39:55.941Z</time>
      </trkpt>
      <trkpt lat="44.93562" lon="5.43053">
        <ele>808</ele>
        <time>2022-09-22T09:39:56.941Z</time>
      </trkpt>
      <trkpt lat="44.93562" lon="5.43052">
        <ele>808</ele>
        <time>2022-09-22T09:39:57.941Z</time>
      </trkpt>
      <trkpt lat="44.93562" lon="5.43052">
        <ele>808</ele>
        <time>2022-09-22T09:39:58.941Z</time>
      </trkpt>
      <trkpt lat="44.93562" lon="5.43052">
        <ele>808</ele>
        <time>2022-09-22T09:39:59.940Z</time>
      </trkpt>
      <trkpt lat="44.93563" lon="5.43052">
        <ele>808</ele>
        <time>2022-09-22T09:40:00.941Z</time>
      </trkpt>
      <trkpt lat="44.93563" lon="5.43052">
        <ele>808</ele>
        <time>2022-09-22T09:40:01.941Z</time>
      </trkpt>
      <trkpt lat="44.93564" lon="5.43053">
        <ele>808</ele>
        <time>2022-09-22T09:40:04.030Z</time>
      </trkpt>
      <trkpt lat="44.93564" lon="5.43053">
        <ele>808</ele>
        <time>2022-09-22T09:40:05.030Z</time>
      </trkpt>
      <trkpt lat="44.93564" lon="5.43053">
        <ele>808</ele>
        <time>2022-09-22T09:40:06.030Z</time>
      </trkpt>
      <trkpt lat="44.93564" lon="5.43054">
        <ele>808</ele>
        <time>2022-09-22T09:40:08.136Z</time>
      </trkpt>
      <trkpt lat="44.93562" lon="5.43052">
        <ele>808</ele>
        <time>2022-09-22T09:40:12.046Z</time>
      </trkpt>
      <trkpt lat="44.93562" lon="5.43054">
        <ele>808</ele>
        <time>2022-09-22T09:40:13.045Z</time>
      </trkpt>
      <trkpt lat="44.9356" lon="5.43053">
        <ele>806</ele>
        <time>2022-09-22T09:40:57.922Z</time>
      </trkpt>
      <trkpt lat="44.93557" lon="5.43048">
        <ele>806</ele>
        <time>2022-09-22T09:41:01.800Z</time>
      </trkpt>
      <trkpt lat="44.93556" lon="5.43047">
        <ele>807</ele>
        <time>2022-09-22T09:41:02.801Z</time>
      </trkpt>
      <trkpt lat="44.93555" lon="5.43047">
        <ele>807</ele>
        <time>2022-09-22T09:41:03.800Z</time>
      </trkpt>
      <trkpt lat="44.93555" lon="5.43046">
        <ele>807</ele>
        <time>2022-09-22T09:41:04.801Z</time>
      </trkpt>
      <trkpt lat="44.93555" lon="5.43046">
        <ele>807</ele>
        <time>2022-09-22T09:41:05.800Z</time>
      </trkpt>
      <trkpt lat="44.93555" lon="5.43047">
        <ele>807</ele>
        <time>2022-09-22T09:41:06.801Z</time>
      </trkpt>
      <trkpt lat="44.93567" lon="5.43055">
        <ele>808</ele>
        <time>2022-09-22T09:45:11.919Z</time>
      </trkpt>
      <trkpt lat="44.93568" lon="5.4306">
        <ele>807</ele>
        <time>2022-09-22T09:45:20.786Z</time>
      </trkpt>
      <trkpt lat="44.93569" lon="5.43061">
        <ele>807</ele>
        <time>2022-09-22T09:45:21.787Z</time>
      </trkpt>
      <trkpt lat="44.93569" lon="5.43061">
        <ele>807</ele>
        <time>2022-09-22T09:45:22.786Z</time>
      </trkpt>
      <trkpt lat="44.93569" lon="5.43062">
        <ele>807</ele>
        <time>2022-09-22T09:45:23.787Z</time>
      </trkpt>
      <trkpt lat="44.9357" lon="5.43062">
        <ele>807</ele>
        <time>2022-09-22T09:45:24.786Z</time>
      </trkpt>
      <trkpt lat="44.93571" lon="5.43062">
        <ele>808</ele>
        <time>2022-09-22T09:45:25.787Z</time>
      </trkpt>
      <trkpt lat="44.93569" lon="5.43057">
        <ele>811</ele>
        <time>2022-09-22T09:46:20.955Z</time>
      </trkpt>
      <trkpt lat="44.93568" lon="5.43058">
        <ele>811</ele>
        <time>2022-09-22T09:46:21.955Z</time>
      </trkpt>
      <trkpt lat="44.93567" lon="5.43058">
        <ele>811</ele>
        <time>2022-09-22T09:46:22.954Z</time>
      </trkpt>
      <trkpt lat="44.93567" lon="5.43058">
        <ele>811</ele>
        <time>2022-09-22T09:46:23.955Z</time>
      </trkpt>
      <trkpt lat="44.93567" lon="5.43058">
        <ele>811</ele>
        <time>2022-09-22T09:46:24.955Z</time>
      </trkpt>
      <trkpt lat="44.93565" lon="5.43059">
        <ele>810</ele>
        <time>2022-09-22T09:46:29.061Z</time>
      </trkpt>
      <trkpt lat="44.93565" lon="5.43059">
        <ele>811</ele>
        <time>2022-09-22T09:46:30.062Z</time>
      </trkpt>
      <trkpt lat="44.93566" lon="5.43059">
        <ele>811</ele>
        <time>2022-09-22T09:46:31.061Z</time>
      </trkpt>
      <trkpt lat="44.93566" lon="5.43059">
        <ele>811</ele>
        <time>2022-09-22T09:46:32.062Z</time>
      </trkpt>
      <trkpt lat="44.93569" lon="5.43054">
        <ele>811</ele>
        <time>2022-09-22T09:46:58.186Z</time>
      </trkpt>
      <trkpt lat="44.93569" lon="5.43051">
        <ele>811</ele>
        <time>2022-09-22T09:46:59.187Z</time>
      </trkpt>
      <trkpt lat="44.9357" lon="5.43048">
        <ele>810</ele>
        <time>2022-09-22T09:47:00.187Z</time>
      </trkpt>
      <trkpt lat="44.9357" lon="5.43045">
        <ele>810</ele>
        <time>2022-09-22T09:47:01.187Z</time>
      </trkpt>
      <trkpt lat="44.93571" lon="5.43041">
        <ele>810</ele>
        <time>2022-09-22T09:47:02.186Z</time>
      </trkpt>
      <trkpt lat="44.93572" lon="5.43038">
        <ele>810</ele>
        <time>2022-09-22T09:47:03.187Z</time>
      </trkpt>
      <trkpt lat="44.93574" lon="5.43035">
        <ele>810</ele>
        <time>2022-09-22T09:47:04.187Z</time>
      </trkpt>
      <trkpt lat="44.93576" lon="5.43033">
        <ele>809</ele>
        <time>2022-09-22T09:47:05.187Z</time>
      </trkpt>
      <trkpt lat="44.93578" lon="5.43031">
        <ele>810</ele>
        <time>2022-09-22T09:47:06.187Z</time>
      </trkpt>
      <trkpt lat="44.9358" lon="5.43031">
        <ele>809</ele>
        <time>2022-09-22T09:47:07.187Z</time>
      </trkpt>
      <trkpt lat="44.93583" lon="5.43032">
        <ele>809</ele>
        <time>2022-09-22T09:47:08.186Z</time>
      </trkpt>
      <trkpt lat="44.93585" lon="5.43033">
        <ele>809</ele>
        <time>2022-09-22T09:47:09.186Z</time>
      </trkpt>
      <trkpt lat="44.93588" lon="5.43033">
        <ele>809</ele>
        <time>2022-09-22T09:47:10.186Z</time>
      </trkpt>
      <trkpt lat="44.9359" lon="5.43033">
        <ele>809</ele>
        <time>2022-09-22T09:47:11.187Z</time>
      </trkpt>
      <trkpt lat="44.93593" lon="5.43034">
        <ele>809</ele>
        <time>2022-09-22T09:47:12.187Z</time>
      </trkpt>
      <trkpt lat="44.93595" lon="5.43034">
        <ele>809</ele>
        <time>2022-09-22T09:47:13.187Z</time>
      </trkpt>
      <trkpt lat="44.93598" lon="5.43035">
        <ele>809</ele>
        <time>2022-09-22T09:47:14.186Z</time>
      </trkpt>
      <trkpt lat="44.93601" lon="5.43036">
        <ele>809</ele>
        <time>2022-09-22T09:47:15.187Z</time>
      </trkpt>
      <trkpt lat="44.93604" lon="5.43037">
        <ele>809</ele>
        <time>2022-09-22T09:47:16.187Z</time>
      </trkpt>
      <trkpt lat="44.93607" lon="5.43038">
        <ele>809</ele>
        <time>2022-09-22T09:47:17.187Z</time>
      </trkpt>
      <trkpt lat="44.9361" lon="5.43038">
        <ele>808</ele>
        <time>2022-09-22T09:47:18.187Z</time>
      </trkpt>
      <trkpt lat="44.93612" lon="5.43039">
        <ele>808</ele>
        <time>2022-09-22T09:47:19.187Z</time>
      </trkpt>
      <trkpt lat="44.93614" lon="5.4304">
        <ele>808</ele>
        <time>2022-09-22T09:47:20.187Z</time>
      </trkpt>
      <trkpt lat="44.93617" lon="5.43041">
        <ele>807</ele>
        <time>2022-09-22T09:47:21.186Z</time>
      </trkpt>
      <trkpt lat="44.93619" lon="5.43042">
        <ele>807</ele>
        <time>2022-09-22T09:47:22.187Z</time>
      </trkpt>
      <trkpt lat="44.93621" lon="5.43043">
        <ele>807</ele>
        <time>2022-09-22T09:47:23.187Z</time>
      </trkpt>
      <trkpt lat="44.93622" lon="5.43046">
        <ele>807</ele>
        <time>2022-09-22T09:47:24.187Z</time>
      </trkpt>
      <trkpt lat="44.93624" lon="5.43049">
        <ele>807</ele>
        <time>2022-09-22T09:47:25.187Z</time>
      </trkpt>
      <trkpt lat="44.93625" lon="5.43052">
        <ele>807</ele>
        <time>2022-09-22T09:47:26.187Z</time>
      </trkpt>
      <trkpt lat="44.93626" lon="5.43056">
        <ele>807</ele>
        <time>2022-09-22T09:47:27.187Z</time>
      </trkpt>
      <trkpt lat="44.93627" lon="5.4306">
        <ele>807</ele>
        <time>2022-09-22T09:47:28.187Z</time>
      </trkpt>
      <trkpt lat="44.93628" lon="5.43063">
        <ele>807</ele>
        <time>2022-09-22T09:47:29.187Z</time>
      </trkpt>
      <trkpt lat="44.93628" lon="5.43068">
        <ele>807</ele>
        <time>2022-09-22T09:47:30.187Z</time>
      </trkpt>
      <trkpt lat="44.93628" lon="5.43072">
        <ele>806</ele>
        <time>2022-09-22T09:47:31.187Z</time>
      </trkpt>
      <trkpt lat="44.93628" lon="5.43077">
        <ele>806</ele>
        <time>2022-09-22T09:47:32.187Z</time>
      </trkpt>
      <trkpt lat="44.93628" lon="5.43081">
        <ele>806</ele>
        <time>2022-09-22T09:47:33.187Z</time>
      </trkpt>
      <trkpt lat="44.93628" lon="5.43086">
        <ele>806</ele>
        <time>2022-09-22T09:47:34.186Z</time>
      </trkpt>
      <trkpt lat="44.93629" lon="5.43091">
        <ele>806</ele>
        <time>2022-09-22T09:47:35.187Z</time>
      </trkpt>
      <trkpt lat="44.9363" lon="5.43096">
        <ele>806</ele>
        <time>2022-09-22T09:47:36.187Z</time>
      </trkpt>
      <trkpt lat="44.93631" lon="5.43101">
        <ele>806</ele>
        <time>2022-09-22T09:47:37.187Z</time>
      </trkpt>
      <trkpt lat="44.93632" lon="5.43106">
        <ele>806</ele>
        <time>2022-09-22T09:47:38.186Z</time>
      </trkpt>
      <trkpt lat="44.93633" lon="5.4311">
        <ele>806</ele>
        <time>2022-09-22T09:47:39.187Z</time>
      </trkpt>
      <trkpt lat="44.93634" lon="5.43114">
        <ele>806</ele>
        <time>2022-09-22T09:47:40.187Z</time>
      </trkpt>
      <trkpt lat="44.93635" lon="5.43117">
        <ele>806</ele>
        <time>2022-09-22T09:47:41.186Z</time>
      </trkpt>
      <trkpt lat="44.93636" lon="5.4312">
        <ele>806</ele>
        <time>2022-09-22T09:47:42.186Z</time>
      </trkpt>
      <trkpt lat="44.93638" lon="5.43121">
        <ele>807</ele>
        <time>2022-09-22T09:47:43.187Z</time>
      </trkpt>
      <trkpt lat="44.93639" lon="5.43123">
        <ele>807</ele>
        <time>2022-09-22T09:47:44.187Z</time>
      </trkpt>
      <trkpt lat="44.9364" lon="5.43125">
        <ele>807</ele>
        <time>2022-09-22T09:47:45.187Z</time>
      </trkpt>
      <trkpt lat="44.93641" lon="5.43127">
        <ele>807</ele>
        <time>2022-09-22T09:47:46.187Z</time>
      </trkpt>
      <trkpt lat="44.93642" lon="5.4313">
        <ele>807</ele>
        <time>2022-09-22T09:47:47.187Z</time>
      </trkpt>
      <trkpt lat="44.93643" lon="5.43133">
        <ele>807</ele>
        <time>2022-09-22T09:47:48.187Z</time>
      </trkpt>
      <trkpt lat="44.93644" lon="5.43137">
        <ele>807</ele>
        <time>2022-09-22T09:47:49.187Z</time>
      </trkpt>
      <trkpt lat="44.93645" lon="5.4314">
        <ele>807</ele>
        <time>2022-09-22T09:47:50.187Z</time>
      </trkpt>
      <trkpt lat="44.93645" lon="5.43144">
        <ele>806</ele>
        <time>2022-09-22T09:47:51.187Z</time>
      </trkpt>
      <trkpt lat="44.93647" lon="5.43148">
        <ele>806</ele>
        <time>2022-09-22T09:47:52.187Z</time>
      </trkpt>
      <trkpt lat="44.93648" lon="5.43151">
        <ele>806</ele>
        <time>2022-09-22T09:47:53.187Z</time>
      </trkpt>
      <trkpt lat="44.93649" lon="5.43155">
        <ele>806</ele>
        <time>2022-09-22T09:47:54.186Z</time>
      </trkpt>
      <trkpt lat="44.93649" lon="5.43159">
        <ele>805</ele>
        <time>2022-09-22T09:47:55.187Z</time>
      </trkpt>
      <trkpt lat="44.9365" lon="5.43164">
        <ele>805</ele>
        <time>2022-09-22T09:47:56.187Z</time>
      </trkpt>
      <trkpt lat="44.9365" lon="5.43169">
        <ele>805</ele>
        <time>2022-09-22T09:47:57.187Z</time>
      </trkpt>
      <trkpt lat="44.9365" lon="5.43174">
        <ele>805</ele>
        <time>2022-09-22T09:47:58.187Z</time>
      </trkpt>
      <trkpt lat="44.9365" lon="5.43179">
        <ele>806</ele>
        <time>2022-09-22T09:47:59.186Z</time>
      </trkpt>
      <trkpt lat="44.9365" lon="5.43184">
        <ele>805</ele>
        <time>2022-09-22T09:48:00.187Z</time>
      </trkpt>
      <trkpt lat="44.9365" lon="5.43189">
        <ele>805</ele>
        <time>2022-09-22T09:48:01.186Z</time>
      </trkpt>
      <trkpt lat="44.93648" lon="5.43194">
        <ele>805</ele>
        <time>2022-09-22T09:48:02.187Z</time>
      </trkpt>
      <trkpt lat="44.93646" lon="5.43198">
        <ele>805</ele>
        <time>2022-09-22T09:48:03.187Z</time>
      </trkpt>
      <trkpt lat="44.93644" lon="5.43203">
        <ele>805</ele>
        <time>2022-09-22T09:48:04.187Z</time>
      </trkpt>
      <trkpt lat="44.93641" lon="5.43208">
        <ele>805</ele>
        <time>2022-09-22T09:48:05.186Z</time>
      </trkpt>
      <trkpt lat="44.93639" lon="5.43213">
        <ele>804</ele>
        <time>2022-09-22T09:48:06.186Z</time>
      </trkpt>
      <trkpt lat="44.93638" lon="5.43219">
        <ele>804</ele>
        <time>2022-09-22T09:48:07.187Z</time>
      </trkpt>
      <trkpt lat="44.93637" lon="5.43225">
        <ele>804</ele>
        <time>2022-09-22T09:48:08.187Z</time>
      </trkpt>
      <trkpt lat="44.93637" lon="5.43232">
        <ele>803</ele>
        <time>2022-09-22T09:48:09.187Z</time>
      </trkpt>
      <trkpt lat="44.93636" lon="5.43238">
        <ele>803</ele>
        <time>2022-09-22T09:48:10.187Z</time>
      </trkpt>
      <trkpt lat="44.93636" lon="5.43245">
        <ele>803</ele>
        <time>2022-09-22T09:48:11.187Z</time>
      </trkpt>
      <trkpt lat="44.93635" lon="5.43251">
        <ele>803</ele>
        <time>2022-09-22T09:48:12.187Z</time>
      </trkpt>
      <trkpt lat="44.93634" lon="5.43256">
        <ele>803</ele>
        <time>2022-09-22T09:48:13.187Z</time>
      </trkpt>
      <trkpt lat="44.93634" lon="5.4326">
        <ele>803</ele>
        <time>2022-09-22T09:48:14.186Z</time>
      </trkpt>
      <trkpt lat="44.93633" lon="5.43262">
        <ele>803</ele>
        <time>2022-09-22T09:48:15.187Z</time>
      </trkpt>
      <trkpt lat="44.93633" lon="5.43264">
        <ele>802</ele>
        <time>2022-09-22T09:48:16.187Z</time>
      </trkpt>
      <trkpt lat="44.93633" lon="5.43265">
        <ele>802</ele>
        <time>2022-09-22T09:48:17.186Z</time>
      </trkpt>
      <trkpt lat="44.93632" lon="5.43265">
        <ele>802</ele>
        <time>2022-09-22T09:48:18.187Z</time>
      </trkpt>
      <trkpt lat="44.93632" lon="5.43265">
        <ele>802</ele>
        <time>2022-09-22T09:48:19.187Z</time>
      </trkpt>
      <trkpt lat="44.93631" lon="5.43265">
        <ele>802</ele>
        <time>2022-09-22T09:48:20.187Z</time>
      </trkpt>
      <trkpt lat="44.93631" lon="5.43265">
        <ele>802</ele>
        <time>2022-09-22T09:48:21.187Z</time>
      </trkpt>
      <trkpt lat="44.93631" lon="5.43265">
        <ele>802</ele>
        <time>2022-09-22T09:48:22.187Z</time>
      </trkpt>
      <trkpt lat="44.93635" lon="5.43248">
        <ele>802</ele>
        <time>2022-09-22T09:49:21.296Z</time>
      </trkpt>
      <trkpt lat="44.93635" lon="5.43244">
        <ele>802</ele>
        <time>2022-09-22T09:49:22.296Z</time>
      </trkpt>
      <trkpt lat="44.93636" lon="5.43241">
        <ele>802</ele>
        <time>2022-09-22T09:49:23.297Z</time>
      </trkpt>
      <trkpt lat="44.93636" lon="5.43236">
        <ele>803</ele>
        <time>2022-09-22T09:49:24.297Z</time>
      </trkpt>
      <trkpt lat="44.93636" lon="5.43232">
        <ele>803</ele>
        <time>2022-09-22T09:49:25.297Z</time>
      </trkpt>
      <trkpt lat="44.93636" lon="5.43227">
        <ele>803</ele>
        <time>2022-09-22T09:49:26.296Z</time>
      </trkpt>
      <trkpt lat="44.93636" lon="5.43221">
        <ele>804</ele>
        <time>2022-09-22T09:49:27.297Z</time>
      </trkpt>
      <trkpt lat="44.93637" lon="5.43217">
        <ele>804</ele>
        <time>2022-09-22T09:49:28.297Z</time>
      </trkpt>
      <trkpt lat="44.93638" lon="5.43213">
        <ele>804</ele>
        <time>2022-09-22T09:49:29.297Z</time>
      </trkpt>
      <trkpt lat="44.93638" lon="5.4321">
        <ele>803</ele>
        <time>2022-09-22T09:49:30.297Z</time>
      </trkpt>
      <trkpt lat="44.93639" lon="5.43206">
        <ele>804</ele>
        <time>2022-09-22T09:49:31.297Z</time>
      </trkpt>
      <trkpt lat="44.93639" lon="5.43203">
        <ele>804</ele>
        <time>2022-09-22T09:49:32.297Z</time>
      </trkpt>
      <trkpt lat="44.93638" lon="5.432">
        <ele>804</ele>
        <time>2022-09-22T09:49:33.297Z</time>
      </trkpt>
      <trkpt lat="44.93636" lon="5.43197">
        <ele>804</ele>
        <time>2022-09-22T09:49:34.296Z</time>
      </trkpt>
      <trkpt lat="44.93634" lon="5.43193">
        <ele>805</ele>
        <time>2022-09-22T09:49:35.297Z</time>
      </trkpt>
      <trkpt lat="44.93633" lon="5.4319">
        <ele>805</ele>
        <time>2022-09-22T09:49:36.297Z</time>
      </trkpt>
      <trkpt lat="44.93631" lon="5.43187">
        <ele>805</ele>
        <time>2022-09-22T09:49:37.297Z</time>
      </trkpt>
      <trkpt lat="44.9363" lon="5.43184">
        <ele>805</ele>
        <time>2022-09-22T09:49:38.296Z</time>
      </trkpt>
      <trkpt lat="44.93628" lon="5.43182">
        <ele>805</ele>
        <time>2022-09-22T09:49:39.297Z</time>
      </trkpt>
      <trkpt lat="44.93627" lon="5.4318">
        <ele>805</ele>
        <time>2022-09-22T09:49:40.297Z</time>
      </trkpt>
      <trkpt lat="44.93627" lon="5.43179">
        <ele>805</ele>
        <time>2022-09-22T09:49:41.296Z</time>
      </trkpt>
      <trkpt lat="44.93626" lon="5.43179">
        <ele>805</ele>
        <time>2022-09-22T09:49:42.297Z</time>
      </trkpt>
      <trkpt lat="44.93626" lon="5.43179">
        <ele>806</ele>
        <time>2022-09-22T09:49:43.296Z</time>
      </trkpt>
      <trkpt lat="44.93626" lon="5.43179">
        <ele>806</ele>
        <time>2022-09-22T09:49:44.296Z</time>
      </trkpt>
      <trkpt lat="44.93628" lon="5.43179">
        <ele>812</ele>
        <time>2022-09-22T09:50:52.442Z</time>
      </trkpt>
      <trkpt lat="44.93628" lon="5.43179">
        <ele>812</ele>
        <time>2022-09-22T09:50:53.442Z</time>
      </trkpt>
      <trkpt lat="44.93628" lon="5.4318">
        <ele>812</ele>
        <time>2022-09-22T09:50:54.441Z</time>
      </trkpt>
      <trkpt lat="44.9363" lon="5.43185">
        <ele>811</ele>
        <time>2022-09-22T09:53:20.591Z</time>
      </trkpt>
      <trkpt lat="44.93629" lon="5.43184">
        <ele>811</ele>
        <time>2022-09-22T09:53:21.590Z</time>
      </trkpt>
      <trkpt lat="44.93628" lon="5.43184">
        <ele>811</ele>
        <time>2022-09-22T09:53:22.590Z</time>
      </trkpt>
      <trkpt lat="44.93627" lon="5.43184">
        <ele>811</ele>
        <time>2022-09-22T09:53:23.591Z</time>
      </trkpt>
      <trkpt lat="44.93626" lon="5.43184">
        <ele>811</ele>
        <time>2022-09-22T09:53:24.591Z</time>
      </trkpt>
      <trkpt lat="44.93625" lon="5.43183">
        <ele>810</ele>
        <time>2022-09-22T09:53:25.591Z</time>
      </trkpt>
      <trkpt lat="44.93625" lon="5.43183">
        <ele>810</ele>
        <time>2022-09-22T09:53:26.590Z</time>
      </trkpt>
      <trkpt lat="44.93626" lon="5.43183">
        <ele>809</ele>
        <time>2022-09-22T09:54:46.720Z</time>
      </trkpt>
      <trkpt lat="44.93628" lon="5.43186">
        <ele>808</ele>
        <time>2022-09-22T09:54:49.559Z</time>
      </trkpt>
      <trkpt lat="44.93629" lon="5.43188">
        <ele>808</ele>
        <time>2022-09-22T09:54:50.559Z</time>
      </trkpt>
      <trkpt lat="44.93631" lon="5.4319">
        <ele>808</ele>
        <time>2022-09-22T09:54:51.558Z</time>
      </trkpt>
      <trkpt lat="44.93633" lon="5.43192">
        <ele>808</ele>
        <time>2022-09-22T09:54:52.559Z</time>
      </trkpt>
      <trkpt lat="44.93635" lon="5.43194">
        <ele>808</ele>
        <time>2022-09-22T09:54:53.559Z</time>
      </trkpt>
      <trkpt lat="44.93637" lon="5.43195">
        <ele>807</ele>
        <time>2022-09-22T09:54:54.558Z</time>
      </trkpt>
      <trkpt lat="44.93638" lon="5.43196">
        <ele>807</ele>
        <time>2022-09-22T09:54:55.559Z</time>
      </trkpt>
      <trkpt lat="44.9364" lon="5.43197">
        <ele>806</ele>
        <time>2022-09-22T09:54:56.559Z</time>
      </trkpt>
      <trkpt lat="44.93641" lon="5.43199">
        <ele>806</ele>
        <time>2022-09-22T09:54:57.559Z</time>
      </trkpt>
      <trkpt lat="44.93643" lon="5.432">
        <ele>805</ele>
        <time>2022-09-22T09:54:58.558Z</time>
      </trkpt>
      <trkpt lat="44.93644" lon="5.432">
        <ele>805</ele>
        <time>2022-09-22T09:54:59.559Z</time>
      </trkpt>
      <trkpt lat="44.93646" lon="5.43199">
        <ele>805</ele>
        <time>2022-09-22T09:55:00.558Z</time>
      </trkpt>
      <trkpt lat="44.93647" lon="5.43198">
        <ele>806</ele>
        <time>2022-09-22T09:55:01.559Z</time>
      </trkpt>
      <trkpt lat="44.93649" lon="5.43196">
        <ele>806</ele>
        <time>2022-09-22T09:55:02.559Z</time>
      </trkpt>
      <trkpt lat="44.9365" lon="5.43194">
        <ele>806</ele>
        <time>2022-09-22T09:55:03.559Z</time>
      </trkpt>
      <trkpt lat="44.93651" lon="5.4319">
        <ele>806</ele>
        <time>2022-09-22T09:55:04.559Z</time>
      </trkpt>
      <trkpt lat="44.93652" lon="5.43187">
        <ele>806</ele>
        <time>2022-09-22T09:55:05.559Z</time>
      </trkpt>
      <trkpt lat="44.93652" lon="5.43183">
        <ele>807</ele>
        <time>2022-09-22T09:55:06.559Z</time>
      </trkpt>
      <trkpt lat="44.93652" lon="5.4318">
        <ele>807</ele>
        <time>2022-09-22T09:55:07.558Z</time>
      </trkpt>
      <trkpt lat="44.93652" lon="5.43176">
        <ele>807</ele>
        <time>2022-09-22T09:55:08.559Z</time>
      </trkpt>
      <trkpt lat="44.93652" lon="5.43172">
        <ele>807</ele>
        <time>2022-09-22T09:55:09.558Z</time>
      </trkpt>
      <trkpt lat="44.93653" lon="5.43168">
        <ele>808</ele>
        <time>2022-09-22T09:55:10.559Z</time>
      </trkpt>
      <trkpt lat="44.93653" lon="5.43164">
        <ele>808</ele>
        <time>2022-09-22T09:55:11.559Z</time>
      </trkpt>
      <trkpt lat="44.93652" lon="5.43159">
        <ele>808</ele>
        <time>2022-09-22T09:55:12.559Z</time>
      </trkpt>
      <trkpt lat="44.93652" lon="5.43155">
        <ele>809</ele>
        <time>2022-09-22T09:55:13.559Z</time>
      </trkpt>
      <trkpt lat="44.93651" lon="5.43151">
        <ele>809</ele>
        <time>2022-09-22T09:55:14.559Z</time>
      </trkpt>
      <trkpt lat="44.9365" lon="5.43147">
        <ele>810</ele>
        <time>2022-09-22T09:55:15.559Z</time>
      </trkpt>
      <trkpt lat="44.93649" lon="5.43142">
        <ele>810</ele>
        <time>2022-09-22T09:55:16.559Z</time>
      </trkpt>
      <trkpt lat="44.93649" lon="5.43137">
        <ele>810</ele>
        <time>2022-09-22T09:55:17.558Z</time>
      </trkpt>
      <trkpt lat="44.93648" lon="5.43134">
        <ele>809</ele>
        <time>2022-09-22T09:55:18.559Z</time>
      </trkpt>
      <trkpt lat="44.93647" lon="5.43129">
        <ele>809</ele>
        <time>2022-09-22T09:55:19.559Z</time>
      </trkpt>
      <trkpt lat="44.93646" lon="5.43125">
        <ele>809</ele>
        <time>2022-09-22T09:55:20.558Z</time>
      </trkpt>
      <trkpt lat="44.93645" lon="5.43122">
        <ele>809</ele>
        <time>2022-09-22T09:55:21.559Z</time>
      </trkpt>
      <trkpt lat="44.93644" lon="5.43118">
        <ele>808</ele>
        <time>2022-09-22T09:55:22.559Z</time>
      </trkpt>
      <trkpt lat="44.93643" lon="5.43116">
        <ele>808</ele>
        <time>2022-09-22T09:55:23.558Z</time>
      </trkpt>
      <trkpt lat="44.93642" lon="5.43112">
        <ele>808</ele>
        <time>2022-09-22T09:55:24.559Z</time>
      </trkpt>
      <trkpt lat="44.93641" lon="5.43109">
        <ele>809</ele>
        <time>2022-09-22T09:55:25.559Z</time>
      </trkpt>
      <trkpt lat="44.9364" lon="5.43106">
        <ele>809</ele>
        <time>2022-09-22T09:55:26.559Z</time>
      </trkpt>
      <trkpt lat="44.93638" lon="5.43104">
        <ele>809</ele>
        <time>2022-09-22T09:55:27.559Z</time>
      </trkpt>
      <trkpt lat="44.93636" lon="5.43101">
        <ele>809</ele>
        <time>2022-09-22T09:55:28.559Z</time>
      </trkpt>
      <trkpt lat="44.93635" lon="5.43098">
        <ele>810</ele>
        <time>2022-09-22T09:55:29.558Z</time>
      </trkpt>
      <trkpt lat="44.93634" lon="5.43095">
        <ele>810</ele>
        <time>2022-09-22T09:55:30.559Z</time>
      </trkpt>
      <trkpt lat="44.93633" lon="5.43092">
        <ele>810</ele>
        <time>2022-09-22T09:55:31.559Z</time>
      </trkpt>
      <trkpt lat="44.93632" lon="5.43089">
        <ele>810</ele>
        <time>2022-09-22T09:55:32.559Z</time>
      </trkpt>
      <trkpt lat="44.93631" lon="5.43085">
        <ele>810</ele>
        <time>2022-09-22T09:55:33.558Z</time>
      </trkpt>
      <trkpt lat="44.93631" lon="5.43081">
        <ele>811</ele>
        <time>2022-09-22T09:55:34.559Z</time>
      </trkpt>
      <trkpt lat="44.9363" lon="5.43077">
        <ele>810</ele>
        <time>2022-09-22T09:55:35.559Z</time>
      </trkpt>
      <trkpt lat="44.9363" lon="5.43073">
        <ele>810</ele>
        <time>2022-09-22T09:55:36.559Z</time>
      </trkpt>
      <trkpt lat="44.93629" lon="5.43069">
        <ele>810</ele>
        <time>2022-09-22T09:55:37.558Z</time>
      </trkpt>
      <trkpt lat="44.93629" lon="5.43065">
        <ele>810</ele>
        <time>2022-09-22T09:55:38.559Z</time>
      </trkpt>
      <trkpt lat="44.93629" lon="5.43061">
        <ele>811</ele>
        <time>2022-09-22T09:55:39.558Z</time>
      </trkpt>
      <trkpt lat="44.93629" lon="5.43057">
        <ele>811</ele>
        <time>2022-09-22T09:55:40.558Z</time>
      </trkpt>
      <trkpt lat="44.93629" lon="5.43054">
        <ele>811</ele>
        <time>2022-09-22T09:55:41.558Z</time>
      </trkpt>
      <trkpt lat="44.93629" lon="5.4305">
        <ele>812</ele>
        <time>2022-09-22T09:55:42.559Z</time>
      </trkpt>
      <trkpt lat="44.93629" lon="5.43046">
        <ele>812</ele>
        <time>2022-09-22T09:55:43.559Z</time>
      </trkpt>
      <trkpt lat="44.9363" lon="5.43043">
        <ele>812</ele>
        <time>2022-09-22T09:55:44.559Z</time>
      </trkpt>
      <trkpt lat="44.93631" lon="5.43041">
        <ele>812</ele>
        <time>2022-09-22T09:55:45.559Z</time>
      </trkpt>
      <trkpt lat="44.93633" lon="5.43039">
        <ele>812</ele>
        <time>2022-09-22T09:55:46.558Z</time>
      </trkpt>
      <trkpt lat="44.93635" lon="5.43037">
        <ele>812</ele>
        <time>2022-09-22T09:55:47.559Z</time>
      </trkpt>
      <trkpt lat="44.93638" lon="5.43036">
        <ele>812</ele>
        <time>2022-09-22T09:55:48.559Z</time>
      </trkpt>
      <trkpt lat="44.9364" lon="5.43036">
        <ele>812</ele>
        <time>2022-09-22T09:55:49.559Z</time>
      </trkpt>
      <trkpt lat="44.93643" lon="5.43037">
        <ele>812</ele>
        <time>2022-09-22T09:55:50.559Z</time>
      </trkpt>
      <trkpt lat="44.93645" lon="5.43037">
        <ele>811</ele>
        <time>2022-09-22T09:55:51.559Z</time>
      </trkpt>
      <trkpt lat="44.93648" lon="5.43037">
        <ele>811</ele>
        <time>2022-09-22T09:55:52.559Z</time>
      </trkpt>
      <trkpt lat="44.9365" lon="5.43037">
        <ele>811</ele>
        <time>2022-09-22T09:55:53.559Z</time>
      </trkpt>
      <trkpt lat="44.93653" lon="5.43038">
        <ele>811</ele>
        <time>2022-09-22T09:55:54.559Z</time>
      </trkpt>
      <trkpt lat="44.93655" lon="5.43038">
        <ele>811</ele>
        <time>2022-09-22T09:55:55.558Z</time>
      </trkpt>
      <trkpt lat="44.93658" lon="5.43039">
        <ele>811</ele>
        <time>2022-09-22T09:55:56.559Z</time>
      </trkpt>
      <trkpt lat="44.9366" lon="5.43039">
        <ele>811</ele>
        <time>2022-09-22T09:55:57.559Z</time>
      </trkpt>
      <trkpt lat="44.93663" lon="5.4304">
        <ele>811</ele>
        <time>2022-09-22T09:55:58.558Z</time>
      </trkpt>
      <trkpt lat="44.93665" lon="5.43041">
        <ele>811</ele>
        <time>2022-09-22T09:55:59.558Z</time>
      </trkpt>
      <trkpt lat="44.93667" lon="5.43041">
        <ele>811</ele>
        <time>2022-09-22T09:56:00.559Z</time>
      </trkpt>
      <trkpt lat="44.9367" lon="5.43042">
        <ele>811</ele>
        <time>2022-09-22T09:56:01.559Z</time>
      </trkpt>
      <trkpt lat="44.93672" lon="5.43043">
        <ele>811</ele>
        <time>2022-09-22T09:56:02.559Z</time>
      </trkpt>
      <trkpt lat="44.93674" lon="5.43043">
        <ele>811</ele>
        <time>2022-09-22T09:56:03.558Z</time>
      </trkpt>
      <trkpt lat="44.93676" lon="5.43044">
        <ele>811</ele>
        <time>2022-09-22T09:56:04.559Z</time>
      </trkpt>
      <trkpt lat="44.93679" lon="5.43044">
        <ele>811</ele>
        <time>2022-09-22T09:56:05.559Z</time>
      </trkpt>
      <trkpt lat="44.93681" lon="5.43044">
        <ele>810</ele>
        <time>2022-09-22T09:56:06.559Z</time>
      </trkpt>
      <trkpt lat="44.93683" lon="5.43044">
        <ele>810</ele>
        <time>2022-09-22T09:56:07.558Z</time>
      </trkpt>
      <trkpt lat="44.93686" lon="5.43045">
        <ele>810</ele>
        <time>2022-09-22T09:56:08.559Z</time>
      </trkpt>
      <trkpt lat="44.93688" lon="5.43045">
        <ele>810</ele>
        <time>2022-09-22T09:56:09.559Z</time>
      </trkpt>
      <trkpt lat="44.93691" lon="5.43045">
        <ele>810</ele>
        <time>2022-09-22T09:56:10.559Z</time>
      </trkpt>
      <trkpt lat="44.93693" lon="5.43045">
        <ele>810</ele>
        <time>2022-09-22T09:56:11.559Z</time>
      </trkpt>
      <trkpt lat="44.93695" lon="5.43046">
        <ele>810</ele>
        <time>2022-09-22T09:56:12.559Z</time>
      </trkpt>
      <trkpt lat="44.93698" lon="5.43047">
        <ele>810</ele>
        <time>2022-09-22T09:56:13.559Z</time>
      </trkpt>
      <trkpt lat="44.937" lon="5.43047">
        <ele>809</ele>
        <time>2022-09-22T09:56:14.559Z</time>
      </trkpt>
      <trkpt lat="44.93702" lon="5.43048">
        <ele>809</ele>
        <time>2022-09-22T09:56:15.558Z</time>
      </trkpt>
      <trkpt lat="44.93705" lon="5.43048">
        <ele>809</ele>
        <time>2022-09-22T09:56:16.559Z</time>
      </trkpt>
      <trkpt lat="44.93708" lon="5.43049">
        <ele>809</ele>
        <time>2022-09-22T09:56:17.559Z</time>
      </trkpt>
      <trkpt lat="44.9371" lon="5.43049">
        <ele>809</ele>
        <time>2022-09-22T09:56:18.559Z</time>
      </trkpt>
      <trkpt lat="44.93713" lon="5.43049">
        <ele>809</ele>
        <time>2022-09-22T09:56:19.559Z</time>
      </trkpt>
      <trkpt lat="44.93715" lon="5.43049">
        <ele>809</ele>
        <time>2022-09-22T09:56:20.559Z</time>
      </trkpt>
      <trkpt lat="44.93718" lon="5.43049">
        <ele>809</ele>
        <time>2022-09-22T09:56:21.558Z</time>
      </trkpt>
      <trkpt lat="44.93721" lon="5.4305">
        <ele>809</ele>
        <time>2022-09-22T09:56:22.559Z</time>
      </trkpt>
      <trkpt lat="44.93723" lon="5.43051">
        <ele>809</ele>
        <time>2022-09-22T09:56:23.559Z</time>
      </trkpt>
      <trkpt lat="44.93725" lon="5.43051">
        <ele>809</ele>
        <time>2022-09-22T09:56:24.558Z</time>
      </trkpt>
      <trkpt lat="44.93728" lon="5.43051">
        <ele>809</ele>
        <time>2022-09-22T09:56:25.559Z</time>
      </trkpt>
      <trkpt lat="44.9373" lon="5.43051">
        <ele>809</ele>
        <time>2022-09-22T09:56:26.559Z</time>
      </trkpt>
      <trkpt lat="44.93733" lon="5.43051">
        <ele>809</ele>
        <time>2022-09-22T09:56:27.559Z</time>
      </trkpt>
      <trkpt lat="44.93735" lon="5.43052">
        <ele>810</ele>
        <time>2022-09-22T09:56:28.559Z</time>
      </trkpt>
      <trkpt lat="44.93738" lon="5.43052">
        <ele>810</ele>
        <time>2022-09-22T09:56:29.558Z</time>
      </trkpt>
      <trkpt lat="44.9374" lon="5.43053">
        <ele>810</ele>
        <time>2022-09-22T09:56:30.559Z</time>
      </trkpt>
      <trkpt lat="44.93743" lon="5.43053">
        <ele>810</ele>
        <time>2022-09-22T09:56:31.558Z</time>
      </trkpt>
      <trkpt lat="44.93745" lon="5.43053">
        <ele>810</ele>
        <time>2022-09-22T09:56:32.559Z</time>
      </trkpt>
      <trkpt lat="44.93748" lon="5.43053">
        <ele>811</ele>
        <time>2022-09-22T09:56:33.559Z</time>
      </trkpt>
      <trkpt lat="44.9375" lon="5.43053">
        <ele>811</ele>
        <time>2022-09-22T09:56:34.558Z</time>
      </trkpt>
      <trkpt lat="44.93753" lon="5.43054">
        <ele>811</ele>
        <time>2022-09-22T09:56:35.558Z</time>
      </trkpt>
      <trkpt lat="44.93755" lon="5.43054">
        <ele>811</ele>
        <time>2022-09-22T09:56:36.559Z</time>
      </trkpt>
      <trkpt lat="44.93758" lon="5.43054">
        <ele>811</ele>
        <time>2022-09-22T09:56:37.558Z</time>
      </trkpt>
      <trkpt lat="44.9376" lon="5.43055">
        <ele>811</ele>
        <time>2022-09-22T09:56:38.559Z</time>
      </trkpt>
      <trkpt lat="44.93763" lon="5.43055">
        <ele>811</ele>
        <time>2022-09-22T09:56:39.559Z</time>
      </trkpt>
      <trkpt lat="44.93765" lon="5.43055">
        <ele>811</ele>
        <time>2022-09-22T09:56:40.559Z</time>
      </trkpt>
      <trkpt lat="44.93767" lon="5.43055">
        <ele>811</ele>
        <time>2022-09-22T09:56:41.558Z</time>
      </trkpt>
      <trkpt lat="44.9377" lon="5.43056">
        <ele>811</ele>
        <time>2022-09-22T09:56:42.559Z</time>
      </trkpt>
      <trkpt lat="44.93772" lon="5.43056">
        <ele>811</ele>
        <time>2022-09-22T09:56:43.558Z</time>
      </trkpt>
      <trkpt lat="44.93774" lon="5.43056">
        <ele>811</ele>
        <time>2022-09-22T09:56:44.559Z</time>
      </trkpt>
      <trkpt lat="44.93777" lon="5.43056">
        <ele>811</ele>
        <time>2022-09-22T09:56:45.559Z</time>
      </trkpt>
      <trkpt lat="44.93779" lon="5.43056">
        <ele>811</ele>
        <time>2022-09-22T09:56:46.559Z</time>
      </trkpt>
      <trkpt lat="44.93782" lon="5.43057">
        <ele>812</ele>
        <time>2022-09-22T09:56:47.559Z</time>
      </trkpt>
      <trkpt lat="44.93785" lon="5.43057">
        <ele>812</ele>
        <time>2022-09-22T09:56:48.558Z</time>
      </trkpt>
      <trkpt lat="44.93787" lon="5.43057">
        <ele>812</ele>
        <time>2022-09-22T09:56:49.559Z</time>
      </trkpt>
      <trkpt lat="44.9379" lon="5.43058">
        <ele>812</ele>
        <time>2022-09-22T09:56:50.559Z</time>
      </trkpt>
      <trkpt lat="44.93793" lon="5.43058">
        <ele>812</ele>
        <time>2022-09-22T09:56:51.559Z</time>
      </trkpt>
      <trkpt lat="44.93795" lon="5.43058">
        <ele>812</ele>
        <time>2022-09-22T09:56:52.559Z</time>
      </trkpt>
      <trkpt lat="44.93798" lon="5.43058">
        <ele>812</ele>
        <time>2022-09-22T09:56:53.559Z</time>
      </trkpt>
      <trkpt lat="44.93801" lon="5.43059">
        <ele>813</ele>
        <time>2022-09-22T09:56:54.559Z</time>
      </trkpt>
      <trkpt lat="44.93803" lon="5.43059">
        <ele>813</ele>
        <time>2022-09-22T09:56:55.558Z</time>
      </trkpt>
      <trkpt lat="44.93805" lon="5.43059">
        <ele>813</ele>
        <time>2022-09-22T09:56:56.559Z</time>
      </trkpt>
      <trkpt lat="44.93808" lon="5.4306">
        <ele>813</ele>
        <time>2022-09-22T09:56:57.559Z</time>
      </trkpt>
      <trkpt lat="44.9381" lon="5.4306">
        <ele>814</ele>
        <time>2022-09-22T09:56:58.559Z</time>
      </trkpt>
      <trkpt lat="44.93813" lon="5.4306">
        <ele>814</ele>
        <time>2022-09-22T09:56:59.559Z</time>
      </trkpt>
      <trkpt lat="44.93815" lon="5.4306">
        <ele>814</ele>
        <time>2022-09-22T09:57:00.558Z</time>
      </trkpt>
      <trkpt lat="44.93817" lon="5.43061">
        <ele>814</ele>
        <time>2022-09-22T09:57:01.559Z</time>
      </trkpt>
      <trkpt lat="44.9382" lon="5.43061">
        <ele>814</ele>
        <time>2022-09-22T09:57:02.559Z</time>
      </trkpt>
      <trkpt lat="44.93822" lon="5.43061">
        <ele>815</ele>
        <time>2022-09-22T09:57:03.559Z</time>
      </trkpt>
      <trkpt lat="44.93825" lon="5.43061">
        <ele>815</ele>
        <time>2022-09-22T09:57:04.559Z</time>
      </trkpt>
      <trkpt lat="44.93827" lon="5.43062">
        <ele>815</ele>
        <time>2022-09-22T09:57:05.559Z</time>
      </trkpt>
      <trkpt lat="44.9383" lon="5.43062">
        <ele>815</ele>
        <time>2022-09-22T09:57:06.559Z</time>
      </trkpt>
      <trkpt lat="44.93832" lon="5.43063">
        <ele>815</ele>
        <time>2022-09-22T09:57:07.558Z</time>
      </trkpt>
      <trkpt lat="44.93835" lon="5.43063">
        <ele>815</ele>
        <time>2022-09-22T09:57:08.559Z</time>
      </trkpt>
      <trkpt lat="44.93837" lon="5.43063">
        <ele>815</ele>
        <time>2022-09-22T09:57:09.559Z</time>
      </trkpt>
      <trkpt lat="44.93839" lon="5.43063">
        <ele>815</ele>
        <time>2022-09-22T09:57:10.559Z</time>
      </trkpt>
      <trkpt lat="44.93842" lon="5.43063">
        <ele>815</ele>
        <time>2022-09-22T09:57:11.558Z</time>
      </trkpt>
      <trkpt lat="44.93844" lon="5.43063">
        <ele>816</ele>
        <time>2022-09-22T09:57:12.559Z</time>
      </trkpt>
      <trkpt lat="44.93846" lon="5.43063">
        <ele>816</ele>
        <time>2022-09-22T09:57:13.559Z</time>
      </trkpt>
      <trkpt lat="44.93849" lon="5.43064">
        <ele>816</ele>
        <time>2022-09-22T09:57:14.559Z</time>
      </trkpt>
      <trkpt lat="44.93851" lon="5.43064">
        <ele>817</ele>
        <time>2022-09-22T09:57:15.559Z</time>
      </trkpt>
      <trkpt lat="44.93853" lon="5.43064">
        <ele>817</ele>
        <time>2022-09-22T09:57:16.559Z</time>
      </trkpt>
      <trkpt lat="44.93855" lon="5.43065">
        <ele>817</ele>
        <time>2022-09-22T09:57:17.559Z</time>
      </trkpt>
      <trkpt lat="44.93858" lon="5.43065">
        <ele>817</ele>
        <time>2022-09-22T09:57:18.559Z</time>
      </trkpt>
      <trkpt lat="44.9386" lon="5.43065">
        <ele>817</ele>
        <time>2022-09-22T09:57:19.559Z</time>
      </trkpt>
      <trkpt lat="44.93862" lon="5.43065">
        <ele>818</ele>
        <time>2022-09-22T09:57:20.559Z</time>
      </trkpt>
      <trkpt lat="44.93865" lon="5.43065">
        <ele>818</ele>
        <time>2022-09-22T09:57:21.559Z</time>
      </trkpt>
      <trkpt lat="44.93867" lon="5.43066">
        <ele>818</ele>
        <time>2022-09-22T09:57:22.559Z</time>
      </trkpt>
      <trkpt lat="44.9387" lon="5.43066">
        <ele>818</ele>
        <time>2022-09-22T09:57:23.559Z</time>
      </trkpt>
      <trkpt lat="44.93872" lon="5.43066">
        <ele>817</ele>
        <time>2022-09-22T09:57:24.559Z</time>
      </trkpt>
      <trkpt lat="44.93875" lon="5.43067">
        <ele>817</ele>
        <time>2022-09-22T09:57:25.559Z</time>
      </trkpt>
      <trkpt lat="44.93877" lon="5.43067">
        <ele>817</ele>
        <time>2022-09-22T09:57:26.559Z</time>
      </trkpt>
      <trkpt lat="44.9388" lon="5.43068">
        <ele>817</ele>
        <time>2022-09-22T09:57:27.559Z</time>
      </trkpt>
      <trkpt lat="44.93882" lon="5.43068">
        <ele>817</ele>
        <time>2022-09-22T09:57:28.559Z</time>
      </trkpt>
      <trkpt lat="44.93885" lon="5.43068">
        <ele>817</ele>
        <time>2022-09-22T09:57:29.558Z</time>
      </trkpt>
      <trkpt lat="44.93887" lon="5.43068">
        <ele>817</ele>
        <time>2022-09-22T09:57:30.559Z</time>
      </trkpt>
      <trkpt lat="44.9389" lon="5.43068">
        <ele>817</ele>
        <time>2022-09-22T09:57:31.559Z</time>
      </trkpt>
      <trkpt lat="44.93893" lon="5.43068">
        <ele>817</ele>
        <time>2022-09-22T09:57:32.559Z</time>
      </trkpt>
      <trkpt lat="44.93896" lon="5.43069">
        <ele>817</ele>
        <time>2022-09-22T09:57:33.559Z</time>
      </trkpt>
      <trkpt lat="44.93899" lon="5.43069">
        <ele>817</ele>
        <time>2022-09-22T09:57:34.558Z</time>
      </trkpt>
      <trkpt lat="44.93902" lon="5.43069">
        <ele>816</ele>
        <time>2022-09-22T09:57:35.558Z</time>
      </trkpt>
      <trkpt lat="44.93905" lon="5.4307">
        <ele>816</ele>
        <time>2022-09-22T09:57:36.559Z</time>
      </trkpt>
      <trkpt lat="44.93908" lon="5.4307">
        <ele>816</ele>
        <time>2022-09-22T09:57:37.558Z</time>
      </trkpt>
      <trkpt lat="44.93911" lon="5.4307">
        <ele>817</ele>
        <time>2022-09-22T09:57:38.559Z</time>
      </trkpt>
      <trkpt lat="44.93914" lon="5.4307">
        <ele>817</ele>
        <time>2022-09-22T09:57:39.559Z</time>
      </trkpt>
      <trkpt lat="44.93917" lon="5.43071">
        <ele>817</ele>
        <time>2022-09-22T09:57:40.559Z</time>
      </trkpt>
      <trkpt lat="44.9392" lon="5.43071">
        <ele>817</ele>
        <time>2022-09-22T09:57:41.559Z</time>
      </trkpt>
      <trkpt lat="44.93923" lon="5.43071">
        <ele>817</ele>
        <time>2022-09-22T09:57:42.559Z</time>
      </trkpt>
      <trkpt lat="44.93926" lon="5.43071">
        <ele>817</ele>
        <time>2022-09-22T09:57:43.558Z</time>
      </trkpt>
      <trkpt lat="44.9393" lon="5.4307">
        <ele>818</ele>
        <time>2022-09-22T09:57:44.559Z</time>
      </trkpt>
      <trkpt lat="44.93933" lon="5.4307">
        <ele>818</ele>
        <time>2022-09-22T09:57:45.558Z</time>
      </trkpt>
      <trkpt lat="44.93936" lon="5.4307">
        <ele>818</ele>
        <time>2022-09-22T09:57:46.559Z</time>
      </trkpt>
      <trkpt lat="44.93939" lon="5.43069">
        <ele>818</ele>
        <time>2022-09-22T09:57:47.559Z</time>
      </trkpt>
      <trkpt lat="44.93943" lon="5.43069">
        <ele>818</ele>
        <time>2022-09-22T09:57:48.559Z</time>
      </trkpt>
      <trkpt lat="44.93946" lon="5.43068">
        <ele>818</ele>
        <time>2022-09-22T09:57:49.558Z</time>
      </trkpt>
      <trkpt lat="44.93949" lon="5.43067">
        <ele>818</ele>
        <time>2022-09-22T09:57:50.558Z</time>
      </trkpt>
      <trkpt lat="44.93952" lon="5.43066">
        <ele>818</ele>
        <time>2022-09-22T09:57:51.559Z</time>
      </trkpt>
      <trkpt lat="44.93955" lon="5.43065">
        <ele>818</ele>
        <time>2022-09-22T09:57:52.558Z</time>
      </trkpt>
      <trkpt lat="44.93959" lon="5.43064">
        <ele>818</ele>
        <time>2022-09-22T09:57:53.559Z</time>
      </trkpt>
      <trkpt lat="44.93962" lon="5.43063">
        <ele>819</ele>
        <time>2022-09-22T09:57:54.559Z</time>
      </trkpt>
      <trkpt lat="44.93966" lon="5.43063">
        <ele>819</ele>
        <time>2022-09-22T09:57:55.558Z</time>
      </trkpt>
      <trkpt lat="44.93969" lon="5.43062">
        <ele>819</ele>
        <time>2022-09-22T09:57:56.559Z</time>
      </trkpt>
      <trkpt lat="44.93973" lon="5.43062">
        <ele>819</ele>
        <time>2022-09-22T09:57:57.559Z</time>
      </trkpt>
      <trkpt lat="44.93977" lon="5.43061">
        <ele>819</ele>
        <time>2022-09-22T09:57:58.559Z</time>
      </trkpt>
      <trkpt lat="44.9398" lon="5.4306">
        <ele>819</ele>
        <time>2022-09-22T09:57:59.559Z</time>
      </trkpt>
      <trkpt lat="44.93984" lon="5.4306">
        <ele>819</ele>
        <time>2022-09-22T09:58:00.559Z</time>
      </trkpt>
      <trkpt lat="44.93987" lon="5.43059">
        <ele>819</ele>
        <time>2022-09-22T09:58:01.558Z</time>
      </trkpt>
      <trkpt lat="44.93991" lon="5.43059">
        <ele>820</ele>
        <time>2022-09-22T09:58:02.559Z</time>
      </trkpt>
      <trkpt lat="44.93995" lon="5.43059">
        <ele>820</ele>
        <time>2022-09-22T09:58:03.558Z</time>
      </trkpt>
      <trkpt lat="44.93998" lon="5.43058">
        <ele>820</ele>
        <time>2022-09-22T09:58:04.559Z</time>
      </trkpt>
      <trkpt lat="44.94002" lon="5.43058">
        <ele>820</ele>
        <time>2022-09-22T09:58:05.559Z</time>
      </trkpt>
      <trkpt lat="44.94006" lon="5.43058">
        <ele>820</ele>
        <time>2022-09-22T09:58:06.559Z</time>
      </trkpt>
      <trkpt lat="44.9401" lon="5.43057">
        <ele>820</ele>
        <time>2022-09-22T09:58:07.558Z</time>
      </trkpt>
      <trkpt lat="44.94013" lon="5.43057">
        <ele>820</ele>
        <time>2022-09-22T09:58:08.559Z</time>
      </trkpt>
      <trkpt lat="44.94017" lon="5.43057">
        <ele>820</ele>
        <time>2022-09-22T09:58:09.559Z</time>
      </trkpt>
      <trkpt lat="44.9402" lon="5.43057">
        <ele>820</ele>
        <time>2022-09-22T09:58:10.559Z</time>
      </trkpt>
      <trkpt lat="44.94024" lon="5.43057">
        <ele>820</ele>
        <time>2022-09-22T09:58:11.559Z</time>
      </trkpt>
      <trkpt lat="44.94027" lon="5.43056">
        <ele>820</ele>
        <time>2022-09-22T09:58:12.559Z</time>
      </trkpt>
      <trkpt lat="44.9403" lon="5.43056">
        <ele>820</ele>
        <time>2022-09-22T09:58:13.558Z</time>
      </trkpt>
      <trkpt lat="44.94034" lon="5.43056">
        <ele>819</ele>
        <time>2022-09-22T09:58:14.559Z</time>
      </trkpt>
      <trkpt lat="44.94037" lon="5.43056">
        <ele>820</ele>
        <time>2022-09-22T09:58:15.559Z</time>
      </trkpt>
      <trkpt lat="44.94041" lon="5.43055">
        <ele>820</ele>
        <time>2022-09-22T09:58:16.558Z</time>
      </trkpt>
      <trkpt lat="44.94044" lon="5.43055">
        <ele>820</ele>
        <time>2022-09-22T09:58:17.559Z</time>
      </trkpt>
      <trkpt lat="44.94047" lon="5.43055">
        <ele>820</ele>
        <time>2022-09-22T09:58:18.559Z</time>
      </trkpt>
      <trkpt lat="44.94051" lon="5.43054">
        <ele>821</ele>
        <time>2022-09-22T09:58:19.559Z</time>
      </trkpt>
      <trkpt lat="44.94054" lon="5.43054">
        <ele>821</ele>
        <time>2022-09-22T09:58:20.559Z</time>
      </trkpt>
      <trkpt lat="44.94057" lon="5.43053">
        <ele>821</ele>
        <time>2022-09-22T09:58:21.558Z</time>
      </trkpt>
      <trkpt lat="44.9406" lon="5.43052">
        <ele>821</ele>
        <time>2022-09-22T09:58:22.559Z</time>
      </trkpt>
      <trkpt lat="44.94063" lon="5.43052">
        <ele>821</ele>
        <time>2022-09-22T09:58:23.558Z</time>
      </trkpt>
      <trkpt lat="44.94067" lon="5.43051">
        <ele>821</ele>
        <time>2022-09-22T09:58:24.559Z</time>
      </trkpt>
      <trkpt lat="44.9407" lon="5.4305">
        <ele>821</ele>
        <time>2022-09-22T09:58:25.559Z</time>
      </trkpt>
      <trkpt lat="44.94073" lon="5.43049">
        <ele>821</ele>
        <time>2022-09-22T09:58:26.558Z</time>
      </trkpt>
      <trkpt lat="44.94077" lon="5.43048">
        <ele>821</ele>
        <time>2022-09-22T09:58:27.559Z</time>
      </trkpt>
      <trkpt lat="44.9408" lon="5.43047">
        <ele>821</ele>
        <time>2022-09-22T09:58:28.559Z</time>
      </trkpt>
      <trkpt lat="44.94083" lon="5.43046">
        <ele>821</ele>
        <time>2022-09-22T09:58:29.559Z</time>
      </trkpt>
      <trkpt lat="44.94087" lon="5.43045">
        <ele>821</ele>
        <time>2022-09-22T09:58:30.558Z</time>
      </trkpt>
      <trkpt lat="44.9409" lon="5.43043">
        <ele>822</ele>
        <time>2022-09-22T09:58:31.559Z</time>
      </trkpt>
      <trkpt lat="44.94093" lon="5.43042">
        <ele>822</ele>
        <time>2022-09-22T09:58:32.558Z</time>
      </trkpt>
      <trkpt lat="44.94097" lon="5.43041">
        <ele>822</ele>
        <time>2022-09-22T09:58:33.559Z</time>
      </trkpt>
      <trkpt lat="44.941" lon="5.4304">
        <ele>823</ele>
        <time>2022-09-22T09:58:34.559Z</time>
      </trkpt>
      <trkpt lat="44.94104" lon="5.43039">
        <ele>823</ele>
        <time>2022-09-22T09:58:35.558Z</time>
      </trkpt>
      <trkpt lat="44.94107" lon="5.43038">
        <ele>823</ele>
        <time>2022-09-22T09:58:36.559Z</time>
      </trkpt>
      <trkpt lat="44.9411" lon="5.43037">
        <ele>823</ele>
        <time>2022-09-22T09:58:37.559Z</time>
      </trkpt>
      <trkpt lat="44.94114" lon="5.43036">
        <ele>823</ele>
        <time>2022-09-22T09:58:38.559Z</time>
      </trkpt>
      <trkpt lat="44.94117" lon="5.43035">
        <ele>824</ele>
        <time>2022-09-22T09:58:39.559Z</time>
      </trkpt>
      <trkpt lat="44.94121" lon="5.43034">
        <ele>824</ele>
        <time>2022-09-22T09:58:40.559Z</time>
      </trkpt>
      <trkpt lat="44.94124" lon="5.43033">
        <ele>824</ele>
        <time>2022-09-22T09:58:41.558Z</time>
      </trkpt>
      <trkpt lat="44.94128" lon="5.43032">
        <ele>824</ele>
        <time>2022-09-22T09:58:42.558Z</time>
      </trkpt>
      <trkpt lat="44.94131" lon="5.43031">
        <ele>824</ele>
        <time>2022-09-22T09:58:43.559Z</time>
      </trkpt>
      <trkpt lat="44.94135" lon="5.4303">
        <ele>824</ele>
        <time>2022-09-22T09:58:44.559Z</time>
      </trkpt>
      <trkpt lat="44.94139" lon="5.43029">
        <ele>823</ele>
        <time>2022-09-22T09:58:45.558Z</time>
      </trkpt>
      <trkpt lat="44.94142" lon="5.43028">
        <ele>823</ele>
        <time>2022-09-22T09:58:46.558Z</time>
      </trkpt>
      <trkpt lat="44.94146" lon="5.43027">
        <ele>823</ele>
        <time>2022-09-22T09:58:47.559Z</time>
      </trkpt>
      <trkpt lat="44.9415" lon="5.43026">
        <ele>823</ele>
        <time>2022-09-22T09:58:48.559Z</time>
      </trkpt>
      <trkpt lat="44.94154" lon="5.43026">
        <ele>823</ele>
        <time>2022-09-22T09:58:49.559Z</time>
      </trkpt>
      <trkpt lat="44.94157" lon="5.43025">
        <ele>823</ele>
        <time>2022-09-22T09:58:50.559Z</time>
      </trkpt>
      <trkpt lat="44.9416" lon="5.43024">
        <ele>823</ele>
        <time>2022-09-22T09:58:51.559Z</time>
      </trkpt>
      <trkpt lat="44.94164" lon="5.43023">
        <ele>823</ele>
        <time>2022-09-22T09:58:52.558Z</time>
      </trkpt>
      <trkpt lat="44.94168" lon="5.43022">
        <ele>823</ele>
        <time>2022-09-22T09:58:53.559Z</time>
      </trkpt>
      <trkpt lat="44.94171" lon="5.43021">
        <ele>823</ele>
        <time>2022-09-22T09:58:54.559Z</time>
      </trkpt>
      <trkpt lat="44.94175" lon="5.4302">
        <ele>824</ele>
        <time>2022-09-22T09:58:55.559Z</time>
      </trkpt>
      <trkpt lat="44.94178" lon="5.43019">
        <ele>824</ele>
        <time>2022-09-22T09:58:56.559Z</time>
      </trkpt>
      <trkpt lat="44.94181" lon="5.43018">
        <ele>824</ele>
        <time>2022-09-22T09:58:57.559Z</time>
      </trkpt>
      <trkpt lat="44.94184" lon="5.43017">
        <ele>824</ele>
        <time>2022-09-22T09:58:58.559Z</time>
      </trkpt>
      <trkpt lat="44.94187" lon="5.43016">
        <ele>823</ele>
        <time>2022-09-22T09:58:59.559Z</time>
      </trkpt>
      <trkpt lat="44.94191" lon="5.43014">
        <ele>823</ele>
        <time>2022-09-22T09:59:00.559Z</time>
      </trkpt>
      <trkpt lat="44.94194" lon="5.43013">
        <ele>823</ele>
        <time>2022-09-22T09:59:01.559Z</time>
      </trkpt>
      <trkpt lat="44.94197" lon="5.43012">
        <ele>822</ele>
        <time>2022-09-22T09:59:02.559Z</time>
      </trkpt>
      <trkpt lat="44.942" lon="5.43011">
        <ele>822</ele>
        <time>2022-09-22T09:59:03.559Z</time>
      </trkpt>
      <trkpt lat="44.94204" lon="5.4301">
        <ele>822</ele>
        <time>2022-09-22T09:59:04.559Z</time>
      </trkpt>
      <trkpt lat="44.94207" lon="5.43009">
        <ele>822</ele>
        <time>2022-09-22T09:59:05.558Z</time>
      </trkpt>
      <trkpt lat="44.9421" lon="5.43008">
        <ele>823</ele>
        <time>2022-09-22T09:59:06.558Z</time>
      </trkpt>
      <trkpt lat="44.94214" lon="5.43007">
        <ele>823</ele>
        <time>2022-09-22T09:59:07.559Z</time>
      </trkpt>
      <trkpt lat="44.94217" lon="5.43006">
        <ele>823</ele>
        <time>2022-09-22T09:59:08.558Z</time>
      </trkpt>
      <trkpt lat="44.9422" lon="5.43004">
        <ele>823</ele>
        <time>2022-09-22T09:59:09.558Z</time>
      </trkpt>
      <trkpt lat="44.94223" lon="5.43003">
        <ele>823</ele>
        <time>2022-09-22T09:59:10.559Z</time>
      </trkpt>
      <trkpt lat="44.94227" lon="5.43002">
        <ele>823</ele>
        <time>2022-09-22T09:59:11.559Z</time>
      </trkpt>
      <trkpt lat="44.9423" lon="5.43001">
        <ele>823</ele>
        <time>2022-09-22T09:59:12.559Z</time>
      </trkpt>
      <trkpt lat="44.94233" lon="5.43">
        <ele>823</ele>
        <time>2022-09-22T09:59:13.559Z</time>
      </trkpt>
      <trkpt lat="44.94236" lon="5.42998">
        <ele>823</ele>
        <time>2022-09-22T09:59:14.559Z</time>
      </trkpt>
      <trkpt lat="44.94239" lon="5.42997">
        <ele>823</ele>
        <time>2022-09-22T09:59:15.559Z</time>
      </trkpt>
      <trkpt lat="44.94242" lon="5.42995">
        <ele>823</ele>
        <time>2022-09-22T09:59:16.559Z</time>
      </trkpt>
      <trkpt lat="44.94245" lon="5.42994">
        <ele>823</ele>
        <time>2022-09-22T09:59:17.559Z</time>
      </trkpt>
      <trkpt lat="44.94249" lon="5.42992">
        <ele>823</ele>
        <time>2022-09-22T09:59:18.559Z</time>
      </trkpt>
      <trkpt lat="44.94252" lon="5.4299">
        <ele>824</ele>
        <time>2022-09-22T09:59:19.558Z</time>
      </trkpt>
      <trkpt lat="44.94255" lon="5.42989">
        <ele>824</ele>
        <time>2022-09-22T09:59:20.559Z</time>
      </trkpt>
      <trkpt lat="44.94259" lon="5.42987">
        <ele>824</ele>
        <time>2022-09-22T09:59:21.559Z</time>
      </trkpt>
      <trkpt lat="44.94262" lon="5.42985">
        <ele>825</ele>
        <time>2022-09-22T09:59:22.559Z</time>
      </trkpt>
      <trkpt lat="44.94265" lon="5.42983">
        <ele>825</ele>
        <time>2022-09-22T09:59:23.559Z</time>
      </trkpt>
      <trkpt lat="44.94269" lon="5.42982">
        <ele>825</ele>
        <time>2022-09-22T09:59:24.559Z</time>
      </trkpt>
      <trkpt lat="44.94272" lon="5.4298">
        <ele>825</ele>
        <time>2022-09-22T09:59:25.559Z</time>
      </trkpt>
      <trkpt lat="44.94275" lon="5.42978">
        <ele>824</ele>
        <time>2022-09-22T09:59:26.558Z</time>
      </trkpt>
      <trkpt lat="44.94278" lon="5.42976">
        <ele>824</ele>
        <time>2022-09-22T09:59:27.559Z</time>
      </trkpt>
      <trkpt lat="44.94282" lon="5.42974">
        <ele>824</ele>
        <time>2022-09-22T09:59:28.559Z</time>
      </trkpt>
      <trkpt lat="44.94285" lon="5.42973">
        <ele>824</ele>
        <time>2022-09-22T09:59:29.559Z</time>
      </trkpt>
      <trkpt lat="44.94288" lon="5.42972">
        <ele>824</ele>
        <time>2022-09-22T09:59:30.558Z</time>
      </trkpt>
      <trkpt lat="44.94291" lon="5.4297">
        <ele>824</ele>
        <time>2022-09-22T09:59:31.558Z</time>
      </trkpt>
      <trkpt lat="44.94294" lon="5.42968">
        <ele>824</ele>
        <time>2022-09-22T09:59:32.559Z</time>
      </trkpt>
      <trkpt lat="44.94298" lon="5.42966">
        <ele>824</ele>
        <time>2022-09-22T09:59:33.559Z</time>
      </trkpt>
      <trkpt lat="44.94301" lon="5.42965">
        <ele>823</ele>
        <time>2022-09-22T09:59:34.559Z</time>
      </trkpt>
      <trkpt lat="44.94303" lon="5.42963">
        <ele>823</ele>
        <time>2022-09-22T09:59:35.559Z</time>
      </trkpt>
      <trkpt lat="44.94307" lon="5.42962">
        <ele>823</ele>
        <time>2022-09-22T09:59:36.558Z</time>
      </trkpt>
      <trkpt lat="44.9431" lon="5.4296">
        <ele>823</ele>
        <time>2022-09-22T09:59:37.559Z</time>
      </trkpt>
      <trkpt lat="44.94312" lon="5.42959">
        <ele>823</ele>
        <time>2022-09-22T09:59:38.558Z</time>
      </trkpt>
      <trkpt lat="44.94315" lon="5.42957">
        <ele>823</ele>
        <time>2022-09-22T09:59:39.559Z</time>
      </trkpt>
      <trkpt lat="44.94318" lon="5.42956">
        <ele>823</ele>
        <time>2022-09-22T09:59:40.559Z</time>
      </trkpt>
      <trkpt lat="44.94321" lon="5.42954">
        <ele>823</ele>
        <time>2022-09-22T09:59:41.559Z</time>
      </trkpt>
      <trkpt lat="44.94325" lon="5.42952">
        <ele>824</ele>
        <time>2022-09-22T09:59:42.558Z</time>
      </trkpt>
      <trkpt lat="44.94328" lon="5.42951">
        <ele>824</ele>
        <time>2022-09-22T09:59:43.558Z</time>
      </trkpt>
      <trkpt lat="44.94331" lon="5.4295">
        <ele>824</ele>
        <time>2022-09-22T09:59:44.559Z</time>
      </trkpt>
      <trkpt lat="44.94334" lon="5.42949">
        <ele>824</ele>
        <time>2022-09-22T09:59:45.559Z</time>
      </trkpt>
      <trkpt lat="44.94337" lon="5.42947">
        <ele>824</ele>
        <time>2022-09-22T09:59:46.559Z</time>
      </trkpt>
      <trkpt lat="44.9434" lon="5.42946">
        <ele>825</ele>
        <time>2022-09-22T09:59:47.559Z</time>
      </trkpt>
      <trkpt lat="44.94342" lon="5.42944">
        <ele>825</ele>
        <time>2022-09-22T09:59:48.559Z</time>
      </trkpt>
      <trkpt lat="44.94345" lon="5.42943">
        <ele>825</ele>
        <time>2022-09-22T09:59:49.558Z</time>
      </trkpt>
      <trkpt lat="44.94348" lon="5.42942">
        <ele>825</ele>
        <time>2022-09-22T09:59:50.559Z</time>
      </trkpt>
      <trkpt lat="44.94351" lon="5.4294">
        <ele>825</ele>
        <time>2022-09-22T09:59:51.558Z</time>
      </trkpt>
      <trkpt lat="44.94353" lon="5.42939">
        <ele>825</ele>
        <time>2022-09-22T09:59:52.559Z</time>
      </trkpt>
      <trkpt lat="44.94355" lon="5.42938">
        <ele>825</ele>
        <time>2022-09-22T09:59:53.559Z</time>
      </trkpt>
      <trkpt lat="44.94358" lon="5.42937">
        <ele>825</ele>
        <time>2022-09-22T09:59:54.559Z</time>
      </trkpt>
      <trkpt lat="44.94361" lon="5.42936">
        <ele>825</ele>
        <time>2022-09-22T09:59:55.559Z</time>
      </trkpt>
      <trkpt lat="44.94363" lon="5.42935">
        <ele>825</ele>
        <time>2022-09-22T09:59:56.559Z</time>
      </trkpt>
      <trkpt lat="44.94366" lon="5.42934">
        <ele>825</ele>
        <time>2022-09-22T09:59:57.558Z</time>
      </trkpt>
      <trkpt lat="44.94368" lon="5.42933">
        <ele>825</ele>
        <time>2022-09-22T09:59:58.559Z</time>
      </trkpt>
      <trkpt lat="44.94371" lon="5.42931">
        <ele>825</ele>
        <time>2022-09-22T09:59:59.559Z</time>
      </trkpt>
      <trkpt lat="44.94374" lon="5.4293">
        <ele>825</ele>
        <time>2022-09-22T10:00:00.559Z</time>
      </trkpt>
      <trkpt lat="44.94376" lon="5.42929">
        <ele>825</ele>
        <time>2022-09-22T10:00:01.558Z</time>
      </trkpt>
      <trkpt lat="44.94379" lon="5.42928">
        <ele>825</ele>
        <time>2022-09-22T10:00:02.558Z</time>
      </trkpt>
      <trkpt lat="44.94382" lon="5.42927">
        <ele>825</ele>
        <time>2022-09-22T10:00:03.559Z</time>
      </trkpt>
      <trkpt lat="44.94384" lon="5.42925">
        <ele>825</ele>
        <time>2022-09-22T10:00:04.559Z</time>
      </trkpt>
      <trkpt lat="44.94387" lon="5.42924">
        <ele>825</ele>
        <time>2022-09-22T10:00:05.559Z</time>
      </trkpt>
      <trkpt lat="44.94389" lon="5.42923">
        <ele>825</ele>
        <time>2022-09-22T10:00:06.559Z</time>
      </trkpt>
      <trkpt lat="44.94392" lon="5.42922">
        <ele>825</ele>
        <time>2022-09-22T10:00:07.559Z</time>
      </trkpt>
      <trkpt lat="44.94395" lon="5.42921">
        <ele>825</ele>
        <time>2022-09-22T10:00:08.559Z</time>
      </trkpt>
      <trkpt lat="44.94397" lon="5.4292">
        <ele>825</ele>
        <time>2022-09-22T10:00:09.558Z</time>
      </trkpt>
      <trkpt lat="44.944" lon="5.42919">
        <ele>825</ele>
        <time>2022-09-22T10:00:10.558Z</time>
      </trkpt>
      <trkpt lat="44.94402" lon="5.42918">
        <ele>826</ele>
        <time>2022-09-22T10:00:11.558Z</time>
      </trkpt>
      <trkpt lat="44.94405" lon="5.42917">
        <ele>826</ele>
        <time>2022-09-22T10:00:12.558Z</time>
      </trkpt>
      <trkpt lat="44.94408" lon="5.42916">
        <ele>827</ele>
        <time>2022-09-22T10:00:13.558Z</time>
      </trkpt>
      <trkpt lat="44.9441" lon="5.42916">
        <ele>827</ele>
        <time>2022-09-22T10:00:14.558Z</time>
      </trkpt>
      <trkpt lat="44.94413" lon="5.42915">
        <ele>827</ele>
        <time>2022-09-22T10:00:15.558Z</time>
      </trkpt>
      <trkpt lat="44.94416" lon="5.42915">
        <ele>828</ele>
        <time>2022-09-22T10:00:16.559Z</time>
      </trkpt>
      <trkpt lat="44.94419" lon="5.42915">
        <ele>828</ele>
        <time>2022-09-22T10:00:17.558Z</time>
      </trkpt>
      <trkpt lat="44.94422" lon="5.42914">
        <ele>828</ele>
        <time>2022-09-22T10:00:18.558Z</time>
      </trkpt>
      <trkpt lat="44.94424" lon="5.42914">
        <ele>828</ele>
        <time>2022-09-22T10:00:19.559Z</time>
      </trkpt>
      <trkpt lat="44.94427" lon="5.42914">
        <ele>828</ele>
        <time>2022-09-22T10:00:20.559Z</time>
      </trkpt>
      <trkpt lat="44.9443" lon="5.42914">
        <ele>828</ele>
        <time>2022-09-22T10:00:21.559Z</time>
      </trkpt>
      <trkpt lat="44.94433" lon="5.42914">
        <ele>828</ele>
        <time>2022-09-22T10:00:22.559Z</time>
      </trkpt>
      <trkpt lat="44.94436" lon="5.42914">
        <ele>828</ele>
        <time>2022-09-22T10:00:23.558Z</time>
      </trkpt>
      <trkpt lat="44.94438" lon="5.42914">
        <ele>828</ele>
        <time>2022-09-22T10:00:24.559Z</time>
      </trkpt>
      <trkpt lat="44.94441" lon="5.42914">
        <ele>828</ele>
        <time>2022-09-22T10:00:25.558Z</time>
      </trkpt>
      <trkpt lat="44.94444" lon="5.42914">
        <ele>828</ele>
        <time>2022-09-22T10:00:26.559Z</time>
      </trkpt>
      <trkpt lat="44.94447" lon="5.42914">
        <ele>828</ele>
        <time>2022-09-22T10:00:27.559Z</time>
      </trkpt>
      <trkpt lat="44.9445" lon="5.42914">
        <ele>828</ele>
        <time>2022-09-22T10:00:28.559Z</time>
      </trkpt>
      <trkpt lat="44.94452" lon="5.42914">
        <ele>828</ele>
        <time>2022-09-22T10:00:29.559Z</time>
      </trkpt>
      <trkpt lat="44.94455" lon="5.42915">
        <ele>828</ele>
        <time>2022-09-22T10:00:30.559Z</time>
      </trkpt>
      <trkpt lat="44.94458" lon="5.42915">
        <ele>828</ele>
        <time>2022-09-22T10:00:31.559Z</time>
      </trkpt>
      <trkpt lat="44.94461" lon="5.42915">
        <ele>828</ele>
        <time>2022-09-22T10:00:32.559Z</time>
      </trkpt>
      <trkpt lat="44.94464" lon="5.42915">
        <ele>829</ele>
        <time>2022-09-22T10:00:33.559Z</time>
      </trkpt>
      <trkpt lat="44.94467" lon="5.42915">
        <ele>829</ele>
        <time>2022-09-22T10:00:34.559Z</time>
      </trkpt>
      <trkpt lat="44.94469" lon="5.42915">
        <ele>829</ele>
        <time>2022-09-22T10:00:35.559Z</time>
      </trkpt>
      <trkpt lat="44.94472" lon="5.42916">
        <ele>829</ele>
        <time>2022-09-22T10:00:36.559Z</time>
      </trkpt>
      <trkpt lat="44.94476" lon="5.42916">
        <ele>829</ele>
        <time>2022-09-22T10:00:37.559Z</time>
      </trkpt>
      <trkpt lat="44.94478" lon="5.42916">
        <ele>829</ele>
        <time>2022-09-22T10:00:38.559Z</time>
      </trkpt>
      <trkpt lat="44.94482" lon="5.42917">
        <ele>829</ele>
        <time>2022-09-22T10:00:39.559Z</time>
      </trkpt>
      <trkpt lat="44.94485" lon="5.42917">
        <ele>830</ele>
        <time>2022-09-22T10:00:40.558Z</time>
      </trkpt>
      <trkpt lat="44.94487" lon="5.42917">
        <ele>830</ele>
        <time>2022-09-22T10:00:41.559Z</time>
      </trkpt>
      <trkpt lat="44.9449" lon="5.42917">
        <ele>830</ele>
        <time>2022-09-22T10:00:42.559Z</time>
      </trkpt>
      <trkpt lat="44.94493" lon="5.42917">
        <ele>830</ele>
        <time>2022-09-22T10:00:43.559Z</time>
      </trkpt>
      <trkpt lat="44.94496" lon="5.42917">
        <ele>830</ele>
        <time>2022-09-22T10:00:44.558Z</time>
      </trkpt>
      <trkpt lat="44.94499" lon="5.42918">
        <ele>830</ele>
        <time>2022-09-22T10:00:45.559Z</time>
      </trkpt>
      <trkpt lat="44.94501" lon="5.42918">
        <ele>830</ele>
        <time>2022-09-22T10:00:46.559Z</time>
      </trkpt>
      <trkpt lat="44.94504" lon="5.42918">
        <ele>830</ele>
        <time>2022-09-22T10:00:47.559Z</time>
      </trkpt>
      <trkpt lat="44.94507" lon="5.42918">
        <ele>830</ele>
        <time>2022-09-22T10:00:48.559Z</time>
      </trkpt>
      <trkpt lat="44.9451" lon="5.42919">
        <ele>830</ele>
        <time>2022-09-22T10:00:49.559Z</time>
      </trkpt>
      <trkpt lat="44.94512" lon="5.42919">
        <ele>830</ele>
        <time>2022-09-22T10:00:50.559Z</time>
      </trkpt>
      <trkpt lat="44.94515" lon="5.42919">
        <ele>830</ele>
        <time>2022-09-22T10:00:51.559Z</time>
      </trkpt>
      <trkpt lat="44.94518" lon="5.42919">
        <ele>830</ele>
        <time>2022-09-22T10:00:52.559Z</time>
      </trkpt>
      <trkpt lat="44.9452" lon="5.42919">
        <ele>830</ele>
        <time>2022-09-22T10:00:53.558Z</time>
      </trkpt>
      <trkpt lat="44.94523" lon="5.42919">
        <ele>831</ele>
        <time>2022-09-22T10:00:54.559Z</time>
      </trkpt>
      <trkpt lat="44.94526" lon="5.42919">
        <ele>831</ele>
        <time>2022-09-22T10:00:55.559Z</time>
      </trkpt>
      <trkpt lat="44.94528" lon="5.42919">
        <ele>831</ele>
        <time>2022-09-22T10:00:56.559Z</time>
      </trkpt>
      <trkpt lat="44.94531" lon="5.42919">
        <ele>831</ele>
        <time>2022-09-22T10:00:57.559Z</time>
      </trkpt>
      <trkpt lat="44.94533" lon="5.42919">
        <ele>831</ele>
        <time>2022-09-22T10:00:58.559Z</time>
      </trkpt>
      <trkpt lat="44.94536" lon="5.42919">
        <ele>831</ele>
        <time>2022-09-22T10:00:59.558Z</time>
      </trkpt>
      <trkpt lat="44.94539" lon="5.4292">
        <ele>831</ele>
        <time>2022-09-22T10:01:00.558Z</time>
      </trkpt>
      <trkpt lat="44.94542" lon="5.4292">
        <ele>832</ele>
        <time>2022-09-22T10:01:01.559Z</time>
      </trkpt>
      <trkpt lat="44.94544" lon="5.4292">
        <ele>832</ele>
        <time>2022-09-22T10:01:02.558Z</time>
      </trkpt>
      <trkpt lat="44.94547" lon="5.42921">
        <ele>832</ele>
        <time>2022-09-22T10:01:03.558Z</time>
      </trkpt>
      <trkpt lat="44.9455" lon="5.42921">
        <ele>832</ele>
        <time>2022-09-22T10:01:04.559Z</time>
      </trkpt>
      <trkpt lat="44.94552" lon="5.42921">
        <ele>832</ele>
        <time>2022-09-22T10:01:05.558Z</time>
      </trkpt>
      <trkpt lat="44.94555" lon="5.42921">
        <ele>833</ele>
        <time>2022-09-22T10:01:06.559Z</time>
      </trkpt>
      <trkpt lat="44.94558" lon="5.42921">
        <ele>833</ele>
        <time>2022-09-22T10:01:07.559Z</time>
      </trkpt>
      <trkpt lat="44.9456" lon="5.42922">
        <ele>833</ele>
        <time>2022-09-22T10:01:08.558Z</time>
      </trkpt>
      <trkpt lat="44.94563" lon="5.42922">
        <ele>833</ele>
        <time>2022-09-22T10:01:09.558Z</time>
      </trkpt>
      <trkpt lat="44.94566" lon="5.42922">
        <ele>833</ele>
        <time>2022-09-22T10:01:10.558Z</time>
      </trkpt>
      <trkpt lat="44.94569" lon="5.42922">
        <ele>833</ele>
        <time>2022-09-22T10:01:11.558Z</time>
      </trkpt>
      <trkpt lat="44.94572" lon="5.42923">
        <ele>833</ele>
        <time>2022-09-22T10:01:12.558Z</time>
      </trkpt>
      <trkpt lat="44.94574" lon="5.42923">
        <ele>833</ele>
        <time>2022-09-22T10:01:13.559Z</time>
      </trkpt>
      <trkpt lat="44.94576" lon="5.42923">
        <ele>833</ele>
        <time>2022-09-22T10:01:14.558Z</time>
      </trkpt>
      <trkpt lat="44.94579" lon="5.42923">
        <ele>833</ele>
        <time>2022-09-22T10:01:15.559Z</time>
      </trkpt>
      <trkpt lat="44.94581" lon="5.42923">
        <ele>833</ele>
        <time>2022-09-22T10:01:16.559Z</time>
      </trkpt>
      <trkpt lat="44.94584" lon="5.42924">
        <ele>833</ele>
        <time>2022-09-22T10:01:17.559Z</time>
      </trkpt>
      <trkpt lat="44.94587" lon="5.42924">
        <ele>833</ele>
        <time>2022-09-22T10:01:18.559Z</time>
      </trkpt>
      <trkpt lat="44.94589" lon="5.42924">
        <ele>833</ele>
        <time>2022-09-22T10:01:19.559Z</time>
      </trkpt>
      <trkpt lat="44.94591" lon="5.42924">
        <ele>833</ele>
        <time>2022-09-22T10:01:20.559Z</time>
      </trkpt>
      <trkpt lat="44.94594" lon="5.42924">
        <ele>833</ele>
        <time>2022-09-22T10:01:21.559Z</time>
      </trkpt>
      <trkpt lat="44.94597" lon="5.42925">
        <ele>833</ele>
        <time>2022-09-22T10:01:22.559Z</time>
      </trkpt>
      <trkpt lat="44.94599" lon="5.42925">
        <ele>833</ele>
        <time>2022-09-22T10:01:23.558Z</time>
      </trkpt>
      <trkpt lat="44.94602" lon="5.42925">
        <ele>833</ele>
        <time>2022-09-22T10:01:24.559Z</time>
      </trkpt>
      <trkpt lat="44.94604" lon="5.42925">
        <ele>833</ele>
        <time>2022-09-22T10:01:25.559Z</time>
      </trkpt>
      <trkpt lat="44.94606" lon="5.42925">
        <ele>833</ele>
        <time>2022-09-22T10:01:26.558Z</time>
      </trkpt>
      <trkpt lat="44.94608" lon="5.42926">
        <ele>833</ele>
        <time>2022-09-22T10:01:27.558Z</time>
      </trkpt>
      <trkpt lat="44.94611" lon="5.42926">
        <ele>833</ele>
        <time>2022-09-22T10:01:28.558Z</time>
      </trkpt>
      <trkpt lat="44.94613" lon="5.42927">
        <ele>833</ele>
        <time>2022-09-22T10:01:29.559Z</time>
      </trkpt>
      <trkpt lat="44.94616" lon="5.42927">
        <ele>834</ele>
        <time>2022-09-22T10:01:30.558Z</time>
      </trkpt>
      <trkpt lat="44.94618" lon="5.42927">
        <ele>834</ele>
        <time>2022-09-22T10:01:31.559Z</time>
      </trkpt>
      <trkpt lat="44.94621" lon="5.42927">
        <ele>835</ele>
        <time>2022-09-22T10:01:32.559Z</time>
      </trkpt>
      <trkpt lat="44.94623" lon="5.42928">
        <ele>836</ele>
        <time>2022-09-22T10:01:33.559Z</time>
      </trkpt>
      <trkpt lat="44.94624" lon="5.4293">
        <ele>836</ele>
        <time>2022-09-22T10:01:34.558Z</time>
      </trkpt>
      <trkpt lat="44.94626" lon="5.42932">
        <ele>837</ele>
        <time>2022-09-22T10:01:35.559Z</time>
      </trkpt>
      <trkpt lat="44.94627" lon="5.42933">
        <ele>837</ele>
        <time>2022-09-22T10:01:36.559Z</time>
      </trkpt>
      <trkpt lat="44.94629" lon="5.42933">
        <ele>838</ele>
        <time>2022-09-22T10:01:37.559Z</time>
      </trkpt>
      <trkpt lat="44.9463" lon="5.42933">
        <ele>838</ele>
        <time>2022-09-22T10:01:38.559Z</time>
      </trkpt>
      <trkpt lat="44.94632" lon="5.42932">
        <ele>838</ele>
        <time>2022-09-22T10:01:39.559Z</time>
      </trkpt>
      <trkpt lat="44.94633" lon="5.4293">
        <ele>838</ele>
        <time>2022-09-22T10:01:40.559Z</time>
      </trkpt>
      <trkpt lat="44.94634" lon="5.42929">
        <ele>838</ele>
        <time>2022-09-22T10:01:41.559Z</time>
      </trkpt>
      <trkpt lat="44.94636" lon="5.42928">
        <ele>838</ele>
        <time>2022-09-22T10:01:42.559Z</time>
      </trkpt>
      <trkpt lat="44.94638" lon="5.42927">
        <ele>837</ele>
        <time>2022-09-22T10:01:43.559Z</time>
      </trkpt>
      <trkpt lat="44.94639" lon="5.42927">
        <ele>837</ele>
        <time>2022-09-22T10:01:44.558Z</time>
      </trkpt>
      <trkpt lat="44.94641" lon="5.42927">
        <ele>837</ele>
        <time>2022-09-22T10:01:45.558Z</time>
      </trkpt>
      <trkpt lat="44.94644" lon="5.42927">
        <ele>837</ele>
        <time>2022-09-22T10:01:46.559Z</time>
      </trkpt>
      <trkpt lat="44.94646" lon="5.42927">
        <ele>837</ele>
        <time>2022-09-22T10:01:47.559Z</time>
      </trkpt>
      <trkpt lat="44.94648" lon="5.42927">
        <ele>838</ele>
        <time>2022-09-22T10:01:48.558Z</time>
      </trkpt>
      <trkpt lat="44.94651" lon="5.42927">
        <ele>838</ele>
        <time>2022-09-22T10:01:49.559Z</time>
      </trkpt>
      <trkpt lat="44.94653" lon="5.42927">
        <ele>838</ele>
        <time>2022-09-22T10:01:50.558Z</time>
      </trkpt>
      <trkpt lat="44.94655" lon="5.42928">
        <ele>838</ele>
        <time>2022-09-22T10:01:51.559Z</time>
      </trkpt>
      <trkpt lat="44.94657" lon="5.42928">
        <ele>838</ele>
        <time>2022-09-22T10:01:52.558Z</time>
      </trkpt>
      <trkpt lat="44.9466" lon="5.42928">
        <ele>838</ele>
        <time>2022-09-22T10:01:53.559Z</time>
      </trkpt>
      <trkpt lat="44.94662" lon="5.42928">
        <ele>838</ele>
        <time>2022-09-22T10:01:54.559Z</time>
      </trkpt>
      <trkpt lat="44.94664" lon="5.42929">
        <ele>838</ele>
        <time>2022-09-22T10:01:55.559Z</time>
      </trkpt>
      <trkpt lat="44.94667" lon="5.42929">
        <ele>839</ele>
        <time>2022-09-22T10:01:56.558Z</time>
      </trkpt>
      <trkpt lat="44.94669" lon="5.42929">
        <ele>839</ele>
        <time>2022-09-22T10:01:57.559Z</time>
      </trkpt>
      <trkpt lat="44.94672" lon="5.4293">
        <ele>839</ele>
        <time>2022-09-22T10:01:58.558Z</time>
      </trkpt>
      <trkpt lat="44.94674" lon="5.4293">
        <ele>839</ele>
        <time>2022-09-22T10:01:59.558Z</time>
      </trkpt>
      <trkpt lat="44.94677" lon="5.4293">
        <ele>839</ele>
        <time>2022-09-22T10:02:00.559Z</time>
      </trkpt>
      <trkpt lat="44.9468" lon="5.4293">
        <ele>839</ele>
        <time>2022-09-22T10:02:01.558Z</time>
      </trkpt>
      <trkpt lat="44.94682" lon="5.4293">
        <ele>840</ele>
        <time>2022-09-22T10:02:02.559Z</time>
      </trkpt>
      <trkpt lat="44.94684" lon="5.42931">
        <ele>840</ele>
        <time>2022-09-22T10:02:03.558Z</time>
      </trkpt>
      <trkpt lat="44.94687" lon="5.42931">
        <ele>840</ele>
        <time>2022-09-22T10:02:04.559Z</time>
      </trkpt>
      <trkpt lat="44.94689" lon="5.42931">
        <ele>841</ele>
        <time>2022-09-22T10:02:05.559Z</time>
      </trkpt>
      <trkpt lat="44.94692" lon="5.42932">
        <ele>841</ele>
        <time>2022-09-22T10:02:06.559Z</time>
      </trkpt>
      <trkpt lat="44.94694" lon="5.42932">
        <ele>842</ele>
        <time>2022-09-22T10:02:07.559Z</time>
      </trkpt>
      <trkpt lat="44.94696" lon="5.42932">
        <ele>842</ele>
        <time>2022-09-22T10:02:08.558Z</time>
      </trkpt>
      <trkpt lat="44.94698" lon="5.42932">
        <ele>842</ele>
        <time>2022-09-22T10:02:09.559Z</time>
      </trkpt>
      <trkpt lat="44.947" lon="5.42932">
        <ele>842</ele>
        <time>2022-09-22T10:02:10.559Z</time>
      </trkpt>
      <trkpt lat="44.94702" lon="5.42932">
        <ele>843</ele>
        <time>2022-09-22T10:02:11.559Z</time>
      </trkpt>
      <trkpt lat="44.94704" lon="5.42932">
        <ele>843</ele>
        <time>2022-09-22T10:02:12.559Z</time>
      </trkpt>
      <trkpt lat="44.94707" lon="5.42932">
        <ele>843</ele>
        <time>2022-09-22T10:02:13.558Z</time>
      </trkpt>
      <trkpt lat="44.94709" lon="5.42933">
        <ele>843</ele>
        <time>2022-09-22T10:02:14.558Z</time>
      </trkpt>
      <trkpt lat="44.94711" lon="5.42933">
        <ele>842</ele>
        <time>2022-09-22T10:02:15.558Z</time>
      </trkpt>
      <trkpt lat="44.94713" lon="5.42933">
        <ele>842</ele>
        <time>2022-09-22T10:02:16.559Z</time>
      </trkpt>
      <trkpt lat="44.94715" lon="5.42933">
        <ele>842</ele>
        <time>2022-09-22T10:02:17.559Z</time>
      </trkpt>
      <trkpt lat="44.94717" lon="5.42933">
        <ele>842</ele>
        <time>2022-09-22T10:02:18.558Z</time>
      </trkpt>
      <trkpt lat="44.94719" lon="5.42933">
        <ele>841</ele>
        <time>2022-09-22T10:02:19.558Z</time>
      </trkpt>
      <trkpt lat="44.94721" lon="5.42933">
        <ele>841</ele>
        <time>2022-09-22T10:02:20.558Z</time>
      </trkpt>
      <trkpt lat="44.94723" lon="5.42933">
        <ele>841</ele>
        <time>2022-09-22T10:02:21.558Z</time>
      </trkpt>
      <trkpt lat="44.94726" lon="5.42933">
        <ele>841</ele>
        <time>2022-09-22T10:02:22.559Z</time>
      </trkpt>
      <trkpt lat="44.94728" lon="5.42934">
        <ele>841</ele>
        <time>2022-09-22T10:02:23.559Z</time>
      </trkpt>
      <trkpt lat="44.9473" lon="5.42934">
        <ele>841</ele>
        <time>2022-09-22T10:02:24.559Z</time>
      </trkpt>
      <trkpt lat="44.94733" lon="5.42934">
        <ele>841</ele>
        <time>2022-09-22T10:02:25.559Z</time>
      </trkpt>
      <trkpt lat="44.94735" lon="5.42934">
        <ele>841</ele>
        <time>2022-09-22T10:02:26.559Z</time>
      </trkpt>
      <trkpt lat="44.94737" lon="5.42934">
        <ele>842</ele>
        <time>2022-09-22T10:02:27.559Z</time>
      </trkpt>
      <trkpt lat="44.9474" lon="5.42934">
        <ele>842</ele>
        <time>2022-09-22T10:02:28.558Z</time>
      </trkpt>
      <trkpt lat="44.94742" lon="5.42934">
        <ele>842</ele>
        <time>2022-09-22T10:02:29.559Z</time>
      </trkpt>
      <trkpt lat="44.94745" lon="5.42935">
        <ele>842</ele>
        <time>2022-09-22T10:02:30.559Z</time>
      </trkpt>
      <trkpt lat="44.94747" lon="5.42935">
        <ele>842</ele>
        <time>2022-09-22T10:02:31.559Z</time>
      </trkpt>
      <trkpt lat="44.9475" lon="5.42935">
        <ele>842</ele>
        <time>2022-09-22T10:02:32.559Z</time>
      </trkpt>
      <trkpt lat="44.94752" lon="5.42935">
        <ele>843</ele>
        <time>2022-09-22T10:02:33.559Z</time>
      </trkpt>
      <trkpt lat="44.94754" lon="5.42936">
        <ele>843</ele>
        <time>2022-09-22T10:02:34.558Z</time>
      </trkpt>
      <trkpt lat="44.94757" lon="5.42936">
        <ele>843</ele>
        <time>2022-09-22T10:02:35.559Z</time>
      </trkpt>
      <trkpt lat="44.94759" lon="5.42936">
        <ele>843</ele>
        <time>2022-09-22T10:02:36.559Z</time>
      </trkpt>
      <trkpt lat="44.94762" lon="5.42936">
        <ele>843</ele>
        <time>2022-09-22T10:02:37.559Z</time>
      </trkpt>
      <trkpt lat="44.94764" lon="5.42936">
        <ele>843</ele>
        <time>2022-09-22T10:02:38.559Z</time>
      </trkpt>
      <trkpt lat="44.94766" lon="5.42936">
        <ele>842</ele>
        <time>2022-09-22T10:02:39.558Z</time>
      </trkpt>
      <trkpt lat="44.94768" lon="5.42936">
        <ele>843</ele>
        <time>2022-09-22T10:02:40.558Z</time>
      </trkpt>
      <trkpt lat="44.94771" lon="5.42936">
        <ele>843</ele>
        <time>2022-09-22T10:02:41.559Z</time>
      </trkpt>
      <trkpt lat="44.94773" lon="5.42937">
        <ele>843</ele>
        <time>2022-09-22T10:02:42.558Z</time>
      </trkpt>
      <trkpt lat="44.94776" lon="5.42937">
        <ele>844</ele>
        <time>2022-09-22T10:02:43.559Z</time>
      </trkpt>
      <trkpt lat="44.94778" lon="5.42937">
        <ele>844</ele>
        <time>2022-09-22T10:02:44.559Z</time>
      </trkpt>
      <trkpt lat="44.94781" lon="5.42938">
        <ele>844</ele>
        <time>2022-09-22T10:02:45.559Z</time>
      </trkpt>
      <trkpt lat="44.94783" lon="5.42938">
        <ele>844</ele>
        <time>2022-09-22T10:02:46.559Z</time>
      </trkpt>
      <trkpt lat="44.94785" lon="5.42938">
        <ele>844</ele>
        <time>2022-09-22T10:02:47.559Z</time>
      </trkpt>
      <trkpt lat="44.94787" lon="5.42938">
        <ele>844</ele>
        <time>2022-09-22T10:02:48.558Z</time>
      </trkpt>
      <trkpt lat="44.9479" lon="5.42938">
        <ele>843</ele>
        <time>2022-09-22T10:02:49.558Z</time>
      </trkpt>
      <trkpt lat="44.94792" lon="5.42939">
        <ele>843</ele>
        <time>2022-09-22T10:02:50.559Z</time>
      </trkpt>
      <trkpt lat="44.94795" lon="5.42939">
        <ele>844</ele>
        <time>2022-09-22T10:02:51.559Z</time>
      </trkpt>
      <trkpt lat="44.94798" lon="5.42939">
        <ele>844</ele>
        <time>2022-09-22T10:02:52.559Z</time>
      </trkpt>
      <trkpt lat="44.948" lon="5.42939">
        <ele>844</ele>
        <time>2022-09-22T10:02:53.559Z</time>
      </trkpt>
      <trkpt lat="44.94802" lon="5.4294">
        <ele>845</ele>
        <time>2022-09-22T10:02:54.558Z</time>
      </trkpt>
      <trkpt lat="44.94805" lon="5.4294">
        <ele>845</ele>
        <time>2022-09-22T10:02:55.559Z</time>
      </trkpt>
      <trkpt lat="44.94807" lon="5.4294">
        <ele>845</ele>
        <time>2022-09-22T10:02:56.558Z</time>
      </trkpt>
      <trkpt lat="44.9481" lon="5.4294">
        <ele>845</ele>
        <time>2022-09-22T10:02:57.559Z</time>
      </trkpt>
      <trkpt lat="44.94812" lon="5.42941">
        <ele>846</ele>
        <time>2022-09-22T10:02:58.559Z</time>
      </trkpt>
      <trkpt lat="44.94815" lon="5.42941">
        <ele>846</ele>
        <time>2022-09-22T10:02:59.559Z</time>
      </trkpt>
      <trkpt lat="44.94817" lon="5.42941">
        <ele>846</ele>
        <time>2022-09-22T10:03:00.559Z</time>
      </trkpt>
      <trkpt lat="44.9482" lon="5.42941">
        <ele>846</ele>
        <time>2022-09-22T10:03:01.558Z</time>
      </trkpt>
      <trkpt lat="44.94822" lon="5.42941">
        <ele>846</ele>
        <time>2022-09-22T10:03:02.559Z</time>
      </trkpt>
      <trkpt lat="44.94825" lon="5.42942">
        <ele>846</ele>
        <time>2022-09-22T10:03:03.559Z</time>
      </trkpt>
      <trkpt lat="44.94827" lon="5.42942">
        <ele>846</ele>
        <time>2022-09-22T10:03:04.559Z</time>
      </trkpt>
      <trkpt lat="44.9483" lon="5.42942">
        <ele>847</ele>
        <time>2022-09-22T10:03:05.559Z</time>
      </trkpt>
      <trkpt lat="44.94832" lon="5.42942">
        <ele>847</ele>
        <time>2022-09-22T10:03:06.559Z</time>
      </trkpt>
      <trkpt lat="44.94835" lon="5.42942">
        <ele>847</ele>
        <time>2022-09-22T10:03:07.559Z</time>
      </trkpt>
      <trkpt lat="44.94837" lon="5.42942">
        <ele>847</ele>
        <time>2022-09-22T10:03:08.559Z</time>
      </trkpt>
      <trkpt lat="44.9484" lon="5.42942">
        <ele>847</ele>
        <time>2022-09-22T10:03:09.559Z</time>
      </trkpt>
      <trkpt lat="44.94842" lon="5.42943">
        <ele>847</ele>
        <time>2022-09-22T10:03:10.558Z</time>
      </trkpt>
      <trkpt lat="44.94845" lon="5.42943">
        <ele>847</ele>
        <time>2022-09-22T10:03:11.559Z</time>
      </trkpt>
      <trkpt lat="44.94847" lon="5.42943">
        <ele>847</ele>
        <time>2022-09-22T10:03:12.558Z</time>
      </trkpt>
      <trkpt lat="44.9485" lon="5.42943">
        <ele>848</ele>
        <time>2022-09-22T10:03:13.559Z</time>
      </trkpt>
      <trkpt lat="44.94853" lon="5.42943">
        <ele>848</ele>
        <time>2022-09-22T10:03:14.559Z</time>
      </trkpt>
      <trkpt lat="44.94855" lon="5.42944">
        <ele>848</ele>
        <time>2022-09-22T10:03:15.559Z</time>
      </trkpt>
      <trkpt lat="44.94857" lon="5.42944">
        <ele>848</ele>
        <time>2022-09-22T10:03:16.559Z</time>
      </trkpt>
      <trkpt lat="44.9486" lon="5.42944">
        <ele>849</ele>
        <time>2022-09-22T10:03:17.559Z</time>
      </trkpt>
      <trkpt lat="44.94862" lon="5.42944">
        <ele>849</ele>
        <time>2022-09-22T10:03:18.559Z</time>
      </trkpt>
      <trkpt lat="44.94865" lon="5.42944">
        <ele>850</ele>
        <time>2022-09-22T10:03:19.559Z</time>
      </trkpt>
      <trkpt lat="44.94867" lon="5.42944">
        <ele>850</ele>
        <time>2022-09-22T10:03:20.559Z</time>
      </trkpt>
      <trkpt lat="44.94869" lon="5.42944">
        <ele>850</ele>
        <time>2022-09-22T10:03:21.559Z</time>
      </trkpt>
      <trkpt lat="44.94871" lon="5.42944">
        <ele>850</ele>
        <time>2022-09-22T10:03:22.559Z</time>
      </trkpt>
      <trkpt lat="44.94874" lon="5.42944">
        <ele>850</ele>
        <time>2022-09-22T10:03:23.559Z</time>
      </trkpt>
      <trkpt lat="44.94876" lon="5.42945">
        <ele>850</ele>
        <time>2022-09-22T10:03:24.559Z</time>
      </trkpt>
      <trkpt lat="44.94879" lon="5.42945">
        <ele>850</ele>
        <time>2022-09-22T10:03:25.559Z</time>
      </trkpt>
      <trkpt lat="44.94881" lon="5.42945">
        <ele>850</ele>
        <time>2022-09-22T10:03:26.559Z</time>
      </trkpt>
      <trkpt lat="44.94883" lon="5.42946">
        <ele>850</ele>
        <time>2022-09-22T10:03:27.559Z</time>
      </trkpt>
      <trkpt lat="44.94887" lon="5.42946">
        <ele>850</ele>
        <time>2022-09-22T10:03:28.559Z</time>
      </trkpt>
      <trkpt lat="44.94889" lon="5.42946">
        <ele>850</ele>
        <time>2022-09-22T10:03:29.559Z</time>
      </trkpt>
      <trkpt lat="44.94892" lon="5.42946">
        <ele>850</ele>
        <time>2022-09-22T10:03:30.559Z</time>
      </trkpt>
      <trkpt lat="44.94895" lon="5.42946">
        <ele>850</ele>
        <time>2022-09-22T10:03:31.559Z</time>
      </trkpt>
      <trkpt lat="44.94897" lon="5.42946">
        <ele>851</ele>
        <time>2022-09-22T10:03:32.559Z</time>
      </trkpt>
      <trkpt lat="44.94899" lon="5.42947">
        <ele>851</ele>
        <time>2022-09-22T10:03:33.559Z</time>
      </trkpt>
      <trkpt lat="44.94902" lon="5.42947">
        <ele>852</ele>
        <time>2022-09-22T10:03:34.559Z</time>
      </trkpt>
      <trkpt lat="44.94905" lon="5.42947">
        <ele>852</ele>
        <time>2022-09-22T10:03:35.559Z</time>
      </trkpt>
      <trkpt lat="44.94907" lon="5.42947">
        <ele>852</ele>
        <time>2022-09-22T10:03:36.559Z</time>
      </trkpt>
      <trkpt lat="44.9491" lon="5.42948">
        <ele>851</ele>
        <time>2022-09-22T10:03:37.559Z</time>
      </trkpt>
      <trkpt lat="44.94912" lon="5.42948">
        <ele>851</ele>
        <time>2022-09-22T10:03:38.559Z</time>
      </trkpt>
      <trkpt lat="44.94914" lon="5.42948">
        <ele>851</ele>
        <time>2022-09-22T10:03:39.559Z</time>
      </trkpt>
      <trkpt lat="44.94917" lon="5.42948">
        <ele>851</ele>
        <time>2022-09-22T10:03:40.559Z</time>
      </trkpt>
      <trkpt lat="44.94919" lon="5.42948">
        <ele>851</ele>
        <time>2022-09-22T10:03:41.559Z</time>
      </trkpt>
      <trkpt lat="44.94922" lon="5.42949">
        <ele>852</ele>
        <time>2022-09-22T10:03:42.559Z</time>
      </trkpt>
      <trkpt lat="44.94924" lon="5.42949">
        <ele>852</ele>
        <time>2022-09-22T10:03:43.558Z</time>
      </trkpt>
      <trkpt lat="44.94926" lon="5.42949">
        <ele>852</ele>
        <time>2022-09-22T10:03:44.559Z</time>
      </trkpt>
      <trkpt lat="44.94929" lon="5.4295">
        <ele>852</ele>
        <time>2022-09-22T10:03:45.559Z</time>
      </trkpt>
      <trkpt lat="44.94932" lon="5.4295">
        <ele>852</ele>
        <time>2022-09-22T10:03:46.558Z</time>
      </trkpt>
      <trkpt lat="44.94934" lon="5.4295">
        <ele>853</ele>
        <time>2022-09-22T10:03:47.559Z</time>
      </trkpt>
      <trkpt lat="44.94936" lon="5.42951">
        <ele>853</ele>
        <time>2022-09-22T10:03:48.559Z</time>
      </trkpt>
      <trkpt lat="44.94939" lon="5.42951">
        <ele>853</ele>
        <time>2022-09-22T10:03:49.559Z</time>
      </trkpt>
      <trkpt lat="44.94941" lon="5.42952">
        <ele>852</ele>
        <time>2022-09-22T10:03:50.558Z</time>
      </trkpt>
      <trkpt lat="44.94943" lon="5.42952">
        <ele>852</ele>
        <time>2022-09-22T10:03:51.559Z</time>
      </trkpt>
      <trkpt lat="44.94945" lon="5.42953">
        <ele>852</ele>
        <time>2022-09-22T10:03:52.558Z</time>
      </trkpt>
      <trkpt lat="44.94948" lon="5.42953">
        <ele>852</ele>
        <time>2022-09-22T10:03:53.559Z</time>
      </trkpt>
      <trkpt lat="44.9495" lon="5.42954">
        <ele>852</ele>
        <time>2022-09-22T10:03:54.559Z</time>
      </trkpt>
      <trkpt lat="44.94953" lon="5.42955">
        <ele>852</ele>
        <time>2022-09-22T10:03:55.558Z</time>
      </trkpt>
      <trkpt lat="44.94954" lon="5.42955">
        <ele>852</ele>
        <time>2022-09-22T10:03:56.559Z</time>
      </trkpt>
      <trkpt lat="44.94956" lon="5.42956">
        <ele>852</ele>
        <time>2022-09-22T10:03:57.559Z</time>
      </trkpt>
      <trkpt lat="44.94959" lon="5.42957">
        <ele>853</ele>
        <time>2022-09-22T10:03:58.559Z</time>
      </trkpt>
      <trkpt lat="44.94961" lon="5.42958">
        <ele>853</ele>
        <time>2022-09-22T10:03:59.559Z</time>
      </trkpt>
      <trkpt lat="44.94963" lon="5.42959">
        <ele>853</ele>
        <time>2022-09-22T10:04:00.558Z</time>
      </trkpt>
      <trkpt lat="44.94965" lon="5.42959">
        <ele>853</ele>
        <time>2022-09-22T10:04:01.559Z</time>
      </trkpt>
      <trkpt lat="44.94968" lon="5.4296">
        <ele>853</ele>
        <time>2022-09-22T10:04:02.559Z</time>
      </trkpt>
      <trkpt lat="44.9497" lon="5.42961">
        <ele>853</ele>
        <time>2022-09-22T10:04:03.559Z</time>
      </trkpt>
      <trkpt lat="44.94972" lon="5.42962">
        <ele>853</ele>
        <time>2022-09-22T10:04:04.559Z</time>
      </trkpt>
      <trkpt lat="44.94974" lon="5.42963">
        <ele>853</ele>
        <time>2022-09-22T10:04:05.559Z</time>
      </trkpt>
      <trkpt lat="44.94977" lon="5.42964">
        <ele>853</ele>
        <time>2022-09-22T10:04:06.559Z</time>
      </trkpt>
      <trkpt lat="44.94979" lon="5.42964">
        <ele>853</ele>
        <time>2022-09-22T10:04:07.559Z</time>
      </trkpt>
      <trkpt lat="44.94982" lon="5.42965">
        <ele>853</ele>
        <time>2022-09-22T10:04:08.559Z</time>
      </trkpt>
      <trkpt lat="44.94984" lon="5.42966">
        <ele>854</ele>
        <time>2022-09-22T10:04:09.559Z</time>
      </trkpt>
      <trkpt lat="44.94986" lon="5.42967">
        <ele>854</ele>
        <time>2022-09-22T10:04:10.559Z</time>
      </trkpt>
      <trkpt lat="44.94989" lon="5.42967">
        <ele>854</ele>
        <time>2022-09-22T10:04:11.558Z</time>
      </trkpt>
      <trkpt lat="44.94991" lon="5.42968">
        <ele>854</ele>
        <time>2022-09-22T10:04:12.559Z</time>
      </trkpt>
      <trkpt lat="44.94994" lon="5.42969">
        <ele>854</ele>
        <time>2022-09-22T10:04:13.559Z</time>
      </trkpt>
      <trkpt lat="44.94996" lon="5.42969">
        <ele>854</ele>
        <time>2022-09-22T10:04:14.559Z</time>
      </trkpt>
      <trkpt lat="44.94998" lon="5.42969">
        <ele>854</ele>
        <time>2022-09-22T10:04:15.559Z</time>
      </trkpt>
      <trkpt lat="44.95001" lon="5.42969">
        <ele>854</ele>
        <time>2022-09-22T10:04:16.559Z</time>
      </trkpt>
      <trkpt lat="44.95003" lon="5.42969">
        <ele>854</ele>
        <time>2022-09-22T10:04:17.558Z</time>
      </trkpt>
      <trkpt lat="44.95005" lon="5.42969">
        <ele>854</ele>
        <time>2022-09-22T10:04:18.558Z</time>
      </trkpt>
      <trkpt lat="44.95007" lon="5.42969">
        <ele>855</ele>
        <time>2022-09-22T10:04:19.558Z</time>
      </trkpt>
      <trkpt lat="44.9501" lon="5.4297">
        <ele>855</ele>
        <time>2022-09-22T10:04:20.558Z</time>
      </trkpt>
      <trkpt lat="44.95012" lon="5.4297">
        <ele>855</ele>
        <time>2022-09-22T10:04:21.559Z</time>
      </trkpt>
      <trkpt lat="44.95015" lon="5.4297">
        <ele>855</ele>
        <time>2022-09-22T10:04:22.559Z</time>
      </trkpt>
      <trkpt lat="44.95017" lon="5.4297">
        <ele>855</ele>
        <time>2022-09-22T10:04:23.559Z</time>
      </trkpt>
      <trkpt lat="44.9502" lon="5.4297">
        <ele>855</ele>
        <time>2022-09-22T10:04:24.559Z</time>
      </trkpt>
      <trkpt lat="44.95022" lon="5.4297">
        <ele>855</ele>
        <time>2022-09-22T10:04:25.559Z</time>
      </trkpt>
      <trkpt lat="44.95024" lon="5.4297">
        <ele>855</ele>
        <time>2022-09-22T10:04:26.559Z</time>
      </trkpt>
      <trkpt lat="44.95027" lon="5.42969">
        <ele>855</ele>
        <time>2022-09-22T10:04:27.559Z</time>
      </trkpt>
      <trkpt lat="44.95029" lon="5.42969">
        <ele>855</ele>
        <time>2022-09-22T10:04:28.558Z</time>
      </trkpt>
      <trkpt lat="44.95031" lon="5.42969">
        <ele>856</ele>
        <time>2022-09-22T10:04:29.559Z</time>
      </trkpt>
      <trkpt lat="44.95034" lon="5.42969">
        <ele>856</ele>
        <time>2022-09-22T10:04:30.558Z</time>
      </trkpt>
      <trkpt lat="44.95037" lon="5.42969">
        <ele>856</ele>
        <time>2022-09-22T10:04:31.559Z</time>
      </trkpt>
      <trkpt lat="44.95038" lon="5.42969">
        <ele>856</ele>
        <time>2022-09-22T10:04:32.559Z</time>
      </trkpt>
      <trkpt lat="44.95041" lon="5.42969">
        <ele>856</ele>
        <time>2022-09-22T10:04:33.559Z</time>
      </trkpt>
      <trkpt lat="44.95043" lon="5.42968">
        <ele>856</ele>
        <time>2022-09-22T10:04:34.559Z</time>
      </trkpt>
      <trkpt lat="44.95045" lon="5.42968">
        <ele>856</ele>
        <time>2022-09-22T10:04:35.559Z</time>
      </trkpt>
      <trkpt lat="44.95048" lon="5.42968">
        <ele>856</ele>
        <time>2022-09-22T10:04:36.559Z</time>
      </trkpt>
      <trkpt lat="44.9505" lon="5.42968">
        <ele>856</ele>
        <time>2022-09-22T10:04:37.559Z</time>
      </trkpt>
      <trkpt lat="44.95052" lon="5.42968">
        <ele>856</ele>
        <time>2022-09-22T10:04:38.559Z</time>
      </trkpt>
      <trkpt lat="44.95054" lon="5.42968">
        <ele>857</ele>
        <time>2022-09-22T10:04:39.559Z</time>
      </trkpt>
      <trkpt lat="44.95057" lon="5.42968">
        <ele>857</ele>
        <time>2022-09-22T10:04:40.558Z</time>
      </trkpt>
      <trkpt lat="44.95059" lon="5.42968">
        <ele>857</ele>
        <time>2022-09-22T10:04:41.559Z</time>
      </trkpt>
      <trkpt lat="44.95061" lon="5.42968">
        <ele>856</ele>
        <time>2022-09-22T10:04:42.559Z</time>
      </trkpt>
      <trkpt lat="44.95064" lon="5.42968">
        <ele>856</ele>
        <time>2022-09-22T10:04:43.559Z</time>
      </trkpt>
      <trkpt lat="44.95066" lon="5.42968">
        <ele>856</ele>
        <time>2022-09-22T10:04:44.559Z</time>
      </trkpt>
      <trkpt lat="44.95068" lon="5.42968">
        <ele>857</ele>
        <time>2022-09-22T10:04:45.558Z</time>
      </trkpt>
      <trkpt lat="44.9507" lon="5.42968">
        <ele>857</ele>
        <time>2022-09-22T10:04:46.559Z</time>
      </trkpt>
      <trkpt lat="44.95073" lon="5.42968">
        <ele>856</ele>
        <time>2022-09-22T10:04:47.559Z</time>
      </trkpt>
      <trkpt lat="44.95075" lon="5.42968">
        <ele>856</ele>
        <time>2022-09-22T10:04:48.559Z</time>
      </trkpt>
      <trkpt lat="44.95077" lon="5.42967">
        <ele>857</ele>
        <time>2022-09-22T10:04:49.559Z</time>
      </trkpt>
      <trkpt lat="44.95079" lon="5.42967">
        <ele>857</ele>
        <time>2022-09-22T10:04:50.559Z</time>
      </trkpt>
      <trkpt lat="44.95081" lon="5.42967">
        <ele>857</ele>
        <time>2022-09-22T10:04:51.559Z</time>
      </trkpt>
      <trkpt lat="44.95083" lon="5.42966">
        <ele>857</ele>
        <time>2022-09-22T10:04:52.559Z</time>
      </trkpt>
      <trkpt lat="44.95085" lon="5.42966">
        <ele>857</ele>
        <time>2022-09-22T10:04:53.558Z</time>
      </trkpt>
      <trkpt lat="44.95087" lon="5.42965">
        <ele>857</ele>
        <time>2022-09-22T10:04:54.559Z</time>
      </trkpt>
      <trkpt lat="44.9509" lon="5.42964">
        <ele>857</ele>
        <time>2022-09-22T10:04:55.558Z</time>
      </trkpt>
      <trkpt lat="44.95092" lon="5.42964">
        <ele>858</ele>
        <time>2022-09-22T10:04:56.558Z</time>
      </trkpt>
      <trkpt lat="44.95095" lon="5.42963">
        <ele>858</ele>
        <time>2022-09-22T10:04:57.559Z</time>
      </trkpt>
      <trkpt lat="44.95097" lon="5.42962">
        <ele>858</ele>
        <time>2022-09-22T10:04:58.558Z</time>
      </trkpt>
      <trkpt lat="44.95099" lon="5.42961">
        <ele>858</ele>
        <time>2022-09-22T10:04:59.559Z</time>
      </trkpt>
      <trkpt lat="44.95102" lon="5.4296">
        <ele>858</ele>
        <time>2022-09-22T10:05:00.559Z</time>
      </trkpt>
      <trkpt lat="44.95104" lon="5.42959">
        <ele>858</ele>
        <time>2022-09-22T10:05:01.559Z</time>
      </trkpt>
      <trkpt lat="44.95106" lon="5.42957">
        <ele>859</ele>
        <time>2022-09-22T10:05:02.558Z</time>
      </trkpt>
      <trkpt lat="44.95108" lon="5.42955">
        <ele>859</ele>
        <time>2022-09-22T10:05:03.559Z</time>
      </trkpt>
      <trkpt lat="44.9511" lon="5.42954">
        <ele>859</ele>
        <time>2022-09-22T10:05:04.559Z</time>
      </trkpt>
      <trkpt lat="44.95112" lon="5.42952">
        <ele>860</ele>
        <time>2022-09-22T10:05:05.559Z</time>
      </trkpt>
      <trkpt lat="44.95115" lon="5.42951">
        <ele>860</ele>
        <time>2022-09-22T10:05:06.559Z</time>
      </trkpt>
      <trkpt lat="44.95117" lon="5.42949">
        <ele>860</ele>
        <time>2022-09-22T10:05:07.558Z</time>
      </trkpt>
      <trkpt lat="44.95119" lon="5.42947">
        <ele>860</ele>
        <time>2022-09-22T10:05:08.559Z</time>
      </trkpt>
      <trkpt lat="44.95121" lon="5.42945">
        <ele>861</ele>
        <time>2022-09-22T10:05:09.559Z</time>
      </trkpt>
      <trkpt lat="44.95123" lon="5.42943">
        <ele>861</ele>
        <time>2022-09-22T10:05:10.559Z</time>
      </trkpt>
      <trkpt lat="44.95125" lon="5.4294">
        <ele>861</ele>
        <time>2022-09-22T10:05:11.559Z</time>
      </trkpt>
      <trkpt lat="44.95127" lon="5.42938">
        <ele>861</ele>
        <time>2022-09-22T10:05:12.558Z</time>
      </trkpt>
      <trkpt lat="44.95129" lon="5.42936">
        <ele>861</ele>
        <time>2022-09-22T10:05:13.558Z</time>
      </trkpt>
      <trkpt lat="44.95131" lon="5.42934">
        <ele>861</ele>
        <time>2022-09-22T10:05:14.559Z</time>
      </trkpt>
      <trkpt lat="44.95133" lon="5.42932">
        <ele>861</ele>
        <time>2022-09-22T10:05:15.559Z</time>
      </trkpt>
      <trkpt lat="44.95134" lon="5.4293">
        <ele>861</ele>
        <time>2022-09-22T10:05:16.559Z</time>
      </trkpt>
      <trkpt lat="44.95136" lon="5.42928">
        <ele>861</ele>
        <time>2022-09-22T10:05:17.559Z</time>
      </trkpt>
      <trkpt lat="44.95139" lon="5.42926">
        <ele>861</ele>
        <time>2022-09-22T10:05:18.559Z</time>
      </trkpt>
      <trkpt lat="44.95141" lon="5.42924">
        <ele>861</ele>
        <time>2022-09-22T10:05:19.558Z</time>
      </trkpt>
      <trkpt lat="44.95143" lon="5.42922">
        <ele>861</ele>
        <time>2022-09-22T10:05:20.558Z</time>
      </trkpt>
      <trkpt lat="44.95145" lon="5.4292">
        <ele>861</ele>
        <time>2022-09-22T10:05:21.559Z</time>
      </trkpt>
      <trkpt lat="44.95147" lon="5.42918">
        <ele>861</ele>
        <time>2022-09-22T10:05:22.558Z</time>
      </trkpt>
      <trkpt lat="44.95149" lon="5.42916">
        <ele>861</ele>
        <time>2022-09-22T10:05:23.559Z</time>
      </trkpt>
      <trkpt lat="44.95151" lon="5.42915">
        <ele>861</ele>
        <time>2022-09-22T10:05:24.558Z</time>
      </trkpt>
      <trkpt lat="44.95153" lon="5.42913">
        <ele>861</ele>
        <time>2022-09-22T10:05:25.558Z</time>
      </trkpt>
      <trkpt lat="44.95154" lon="5.42911">
        <ele>861</ele>
        <time>2022-09-22T10:05:26.558Z</time>
      </trkpt>
      <trkpt lat="44.95156" lon="5.42909">
        <ele>861</ele>
        <time>2022-09-22T10:05:27.559Z</time>
      </trkpt>
      <trkpt lat="44.95157" lon="5.42908">
        <ele>861</ele>
        <time>2022-09-22T10:05:28.558Z</time>
      </trkpt>
      <trkpt lat="44.95159" lon="5.42906">
        <ele>861</ele>
        <time>2022-09-22T10:05:29.559Z</time>
      </trkpt>
      <trkpt lat="44.9516" lon="5.42904">
        <ele>861</ele>
        <time>2022-09-22T10:05:30.559Z</time>
      </trkpt>
      <trkpt lat="44.95162" lon="5.42902">
        <ele>862</ele>
        <time>2022-09-22T10:05:31.559Z</time>
      </trkpt>
      <trkpt lat="44.95164" lon="5.42901">
        <ele>862</ele>
        <time>2022-09-22T10:05:32.558Z</time>
      </trkpt>
      <trkpt lat="44.95166" lon="5.42899">
        <ele>862</ele>
        <time>2022-09-22T10:05:33.558Z</time>
      </trkpt>
      <trkpt lat="44.95168" lon="5.42897">
        <ele>862</ele>
        <time>2022-09-22T10:05:34.558Z</time>
      </trkpt>
      <trkpt lat="44.9517" lon="5.42896">
        <ele>863</ele>
        <time>2022-09-22T10:05:35.558Z</time>
      </trkpt>
      <trkpt lat="44.95172" lon="5.42894">
        <ele>863</ele>
        <time>2022-09-22T10:05:36.558Z</time>
      </trkpt>
      <trkpt lat="44.95175" lon="5.42892">
        <ele>863</ele>
        <time>2022-09-22T10:05:37.558Z</time>
      </trkpt>
      <trkpt lat="44.95176" lon="5.42891">
        <ele>863</ele>
        <time>2022-09-22T10:05:38.559Z</time>
      </trkpt>
      <trkpt lat="44.95178" lon="5.4289">
        <ele>863</ele>
        <time>2022-09-22T10:05:39.558Z</time>
      </trkpt>
      <trkpt lat="44.9518" lon="5.42888">
        <ele>863</ele>
        <time>2022-09-22T10:05:40.559Z</time>
      </trkpt>
      <trkpt lat="44.95183" lon="5.42887">
        <ele>863</ele>
        <time>2022-09-22T10:05:41.558Z</time>
      </trkpt>
      <trkpt lat="44.95185" lon="5.42886">
        <ele>863</ele>
        <time>2022-09-22T10:05:42.558Z</time>
      </trkpt>
      <trkpt lat="44.95187" lon="5.42884">
        <ele>864</ele>
        <time>2022-09-22T10:05:43.559Z</time>
      </trkpt>
      <trkpt lat="44.95189" lon="5.42883">
        <ele>864</ele>
        <time>2022-09-22T10:05:44.558Z</time>
      </trkpt>
      <trkpt lat="44.95191" lon="5.42882">
        <ele>864</ele>
        <time>2022-09-22T10:05:45.559Z</time>
      </trkpt>
      <trkpt lat="44.95193" lon="5.42881">
        <ele>864</ele>
        <time>2022-09-22T10:05:46.558Z</time>
      </trkpt>
      <trkpt lat="44.95195" lon="5.42881">
        <ele>864</ele>
        <time>2022-09-22T10:05:47.559Z</time>
      </trkpt>
      <trkpt lat="44.95197" lon="5.4288">
        <ele>864</ele>
        <time>2022-09-22T10:05:48.558Z</time>
      </trkpt>
      <trkpt lat="44.95199" lon="5.42879">
        <ele>864</ele>
        <time>2022-09-22T10:05:49.558Z</time>
      </trkpt>
      <trkpt lat="44.95201" lon="5.42878">
        <ele>864</ele>
        <time>2022-09-22T10:05:50.559Z</time>
      </trkpt>
      <trkpt lat="44.95204" lon="5.42877">
        <ele>864</ele>
        <time>2022-09-22T10:05:51.559Z</time>
      </trkpt>
      <trkpt lat="44.95206" lon="5.42876">
        <ele>864</ele>
        <time>2022-09-22T10:05:52.559Z</time>
      </trkpt>
      <trkpt lat="44.95208" lon="5.42875">
        <ele>864</ele>
        <time>2022-09-22T10:05:53.559Z</time>
      </trkpt>
      <trkpt lat="44.9521" lon="5.42875">
        <ele>864</ele>
        <time>2022-09-22T10:05:54.559Z</time>
      </trkpt>
      <trkpt lat="44.95213" lon="5.42874">
        <ele>865</ele>
        <time>2022-09-22T10:05:55.559Z</time>
      </trkpt>
      <trkpt lat="44.95215" lon="5.42873">
        <ele>865</ele>
        <time>2022-09-22T10:05:56.559Z</time>
      </trkpt>
      <trkpt lat="44.95217" lon="5.42872">
        <ele>865</ele>
        <time>2022-09-22T10:05:57.559Z</time>
      </trkpt>
      <trkpt lat="44.95219" lon="5.42872">
        <ele>866</ele>
        <time>2022-09-22T10:05:58.558Z</time>
      </trkpt>
      <trkpt lat="44.95222" lon="5.42871">
        <ele>866</ele>
        <time>2022-09-22T10:05:59.559Z</time>
      </trkpt>
      <trkpt lat="44.95224" lon="5.42871">
        <ele>866</ele>
        <time>2022-09-22T10:06:00.559Z</time>
      </trkpt>
      <trkpt lat="44.95226" lon="5.4287">
        <ele>866</ele>
        <time>2022-09-22T10:06:01.559Z</time>
      </trkpt>
      <trkpt lat="44.95228" lon="5.42869">
        <ele>867</ele>
        <time>2022-09-22T10:06:02.559Z</time>
      </trkpt>
      <trkpt lat="44.95231" lon="5.42869">
        <ele>867</ele>
        <time>2022-09-22T10:06:03.558Z</time>
      </trkpt>
      <trkpt lat="44.95233" lon="5.42868">
        <ele>867</ele>
        <time>2022-09-22T10:06:04.559Z</time>
      </trkpt>
      <trkpt lat="44.95235" lon="5.42867">
        <ele>867</ele>
        <time>2022-09-22T10:06:05.558Z</time>
      </trkpt>
      <trkpt lat="44.95237" lon="5.42867">
        <ele>867</ele>
        <time>2022-09-22T10:06:06.559Z</time>
      </trkpt>
      <trkpt lat="44.9524" lon="5.42866">
        <ele>867</ele>
        <time>2022-09-22T10:06:07.559Z</time>
      </trkpt>
      <trkpt lat="44.95242" lon="5.42865">
        <ele>867</ele>
        <time>2022-09-22T10:06:08.559Z</time>
      </trkpt>
      <trkpt lat="44.95244" lon="5.42865">
        <ele>867</ele>
        <time>2022-09-22T10:06:09.558Z</time>
      </trkpt>
      <trkpt lat="44.95246" lon="5.42864">
        <ele>867</ele>
        <time>2022-09-22T10:06:10.559Z</time>
      </trkpt>
      <trkpt lat="44.95249" lon="5.42863">
        <ele>868</ele>
        <time>2022-09-22T10:06:11.559Z</time>
      </trkpt>
      <trkpt lat="44.95251" lon="5.42862">
        <ele>868</ele>
        <time>2022-09-22T10:06:12.559Z</time>
      </trkpt>
      <trkpt lat="44.95253" lon="5.42861">
        <ele>868</ele>
        <time>2022-09-22T10:06:13.558Z</time>
      </trkpt>
      <trkpt lat="44.95255" lon="5.42861">
        <ele>868</ele>
        <time>2022-09-22T10:06:14.558Z</time>
      </trkpt>
      <trkpt lat="44.95258" lon="5.4286">
        <ele>868</ele>
        <time>2022-09-22T10:06:15.558Z</time>
      </trkpt>
      <trkpt lat="44.9526" lon="5.42859">
        <ele>868</ele>
        <time>2022-09-22T10:06:16.559Z</time>
      </trkpt>
      <trkpt lat="44.95262" lon="5.42857">
        <ele>869</ele>
        <time>2022-09-22T10:06:17.559Z</time>
      </trkpt>
      <trkpt lat="44.95264" lon="5.42856">
        <ele>869</ele>
        <time>2022-09-22T10:06:18.558Z</time>
      </trkpt>
      <trkpt lat="44.95266" lon="5.42855">
        <ele>869</ele>
        <time>2022-09-22T10:06:19.558Z</time>
      </trkpt>
      <trkpt lat="44.95268" lon="5.42854">
        <ele>869</ele>
        <time>2022-09-22T10:06:20.559Z</time>
      </trkpt>
      <trkpt lat="44.9527" lon="5.42853">
        <ele>869</ele>
        <time>2022-09-22T10:06:21.558Z</time>
      </trkpt>
      <trkpt lat="44.95272" lon="5.42852">
        <ele>868</ele>
        <time>2022-09-22T10:06:22.558Z</time>
      </trkpt>
      <trkpt lat="44.95274" lon="5.4285">
        <ele>868</ele>
        <time>2022-09-22T10:06:23.558Z</time>
      </trkpt>
      <trkpt lat="44.95276" lon="5.42848">
        <ele>868</ele>
        <time>2022-09-22T10:06:24.558Z</time>
      </trkpt>
      <trkpt lat="44.95278" lon="5.42846">
        <ele>867</ele>
        <time>2022-09-22T10:06:25.559Z</time>
      </trkpt>
      <trkpt lat="44.9528" lon="5.42845">
        <ele>868</ele>
        <time>2022-09-22T10:06:26.559Z</time>
      </trkpt>
      <trkpt lat="44.95282" lon="5.42843">
        <ele>868</ele>
        <time>2022-09-22T10:06:27.559Z</time>
      </trkpt>
      <trkpt lat="44.95284" lon="5.4284">
        <ele>869</ele>
        <time>2022-09-22T10:06:28.558Z</time>
      </trkpt>
      <trkpt lat="44.95285" lon="5.42838">
        <ele>870</ele>
        <time>2022-09-22T10:06:29.559Z</time>
      </trkpt>
      <trkpt lat="44.95287" lon="5.42836">
        <ele>870</ele>
        <time>2022-09-22T10:06:30.559Z</time>
      </trkpt>
      <trkpt lat="44.95289" lon="5.42834">
        <ele>871</ele>
        <time>2022-09-22T10:06:31.558Z</time>
      </trkpt>
      <trkpt lat="44.9529" lon="5.42831">
        <ele>871</ele>
        <time>2022-09-22T10:06:32.558Z</time>
      </trkpt>
      <trkpt lat="44.95292" lon="5.42829">
        <ele>871</ele>
        <time>2022-09-22T10:06:33.558Z</time>
      </trkpt>
      <trkpt lat="44.95294" lon="5.42826">
        <ele>871</ele>
        <time>2022-09-22T10:06:34.559Z</time>
      </trkpt>
      <trkpt lat="44.95295" lon="5.42824">
        <ele>871</ele>
        <time>2022-09-22T10:06:35.559Z</time>
      </trkpt>
      <trkpt lat="44.95297" lon="5.42821">
        <ele>872</ele>
        <time>2022-09-22T10:06:36.559Z</time>
      </trkpt>
      <trkpt lat="44.95299" lon="5.42818">
        <ele>872</ele>
        <time>2022-09-22T10:06:37.558Z</time>
      </trkpt>
      <trkpt lat="44.95301" lon="5.42816">
        <ele>872</ele>
        <time>2022-09-22T10:06:38.558Z</time>
      </trkpt>
      <trkpt lat="44.95303" lon="5.42813">
        <ele>872</ele>
        <time>2022-09-22T10:06:39.559Z</time>
      </trkpt>
      <trkpt lat="44.95304" lon="5.42811">
        <ele>872</ele>
        <time>2022-09-22T10:06:40.559Z</time>
      </trkpt>
      <trkpt lat="44.95306" lon="5.42808">
        <ele>872</ele>
        <time>2022-09-22T10:06:41.559Z</time>
      </trkpt>
      <trkpt lat="44.95307" lon="5.42805">
        <ele>872</ele>
        <time>2022-09-22T10:06:42.558Z</time>
      </trkpt>
      <trkpt lat="44.95309" lon="5.42803">
        <ele>872</ele>
        <time>2022-09-22T10:06:43.559Z</time>
      </trkpt>
      <trkpt lat="44.95311" lon="5.428">
        <ele>872</ele>
        <time>2022-09-22T10:06:44.558Z</time>
      </trkpt>
      <trkpt lat="44.95312" lon="5.42797">
        <ele>872</ele>
        <time>2022-09-22T10:06:45.559Z</time>
      </trkpt>
      <trkpt lat="44.95314" lon="5.42795">
        <ele>872</ele>
        <time>2022-09-22T10:06:46.558Z</time>
      </trkpt>
      <trkpt lat="44.95316" lon="5.42792">
        <ele>872</ele>
        <time>2022-09-22T10:06:47.558Z</time>
      </trkpt>
      <trkpt lat="44.95317" lon="5.4279">
        <ele>872</ele>
        <time>2022-09-22T10:06:48.558Z</time>
      </trkpt>
      <trkpt lat="44.95319" lon="5.42787">
        <ele>873</ele>
        <time>2022-09-22T10:06:49.558Z</time>
      </trkpt>
      <trkpt lat="44.95321" lon="5.42784">
        <ele>873</ele>
        <time>2022-09-22T10:06:50.558Z</time>
      </trkpt>
      <trkpt lat="44.95322" lon="5.42782">
        <ele>874</ele>
        <time>2022-09-22T10:06:51.558Z</time>
      </trkpt>
      <trkpt lat="44.95324" lon="5.42779">
        <ele>874</ele>
        <time>2022-09-22T10:06:52.558Z</time>
      </trkpt>
      <trkpt lat="44.95325" lon="5.42777">
        <ele>874</ele>
        <time>2022-09-22T10:06:53.558Z</time>
      </trkpt>
      <trkpt lat="44.95327" lon="5.42774">
        <ele>874</ele>
        <time>2022-09-22T10:06:54.559Z</time>
      </trkpt>
      <trkpt lat="44.95328" lon="5.42772">
        <ele>875</ele>
        <time>2022-09-22T10:06:55.558Z</time>
      </trkpt>
      <trkpt lat="44.9533" lon="5.42769">
        <ele>875</ele>
        <time>2022-09-22T10:06:56.559Z</time>
      </trkpt>
      <trkpt lat="44.95332" lon="5.42767">
        <ele>874</ele>
        <time>2022-09-22T10:06:57.559Z</time>
      </trkpt>
      <trkpt lat="44.95333" lon="5.42764">
        <ele>874</ele>
        <time>2022-09-22T10:06:58.559Z</time>
      </trkpt>
      <trkpt lat="44.95334" lon="5.42762">
        <ele>873</ele>
        <time>2022-09-22T10:06:59.559Z</time>
      </trkpt>
      <trkpt lat="44.95336" lon="5.4276">
        <ele>873</ele>
        <time>2022-09-22T10:07:00.559Z</time>
      </trkpt>
      <trkpt lat="44.95337" lon="5.42757">
        <ele>873</ele>
        <time>2022-09-22T10:07:01.559Z</time>
      </trkpt>
      <trkpt lat="44.95339" lon="5.42755">
        <ele>873</ele>
        <time>2022-09-22T10:07:02.559Z</time>
      </trkpt>
      <trkpt lat="44.95341" lon="5.42752">
        <ele>873</ele>
        <time>2022-09-22T10:07:03.558Z</time>
      </trkpt>
      <trkpt lat="44.95343" lon="5.4275">
        <ele>874</ele>
        <time>2022-09-22T10:07:04.559Z</time>
      </trkpt>
      <trkpt lat="44.95344" lon="5.42747">
        <ele>874</ele>
        <time>2022-09-22T10:07:05.559Z</time>
      </trkpt>
      <trkpt lat="44.95346" lon="5.42744">
        <ele>874</ele>
        <time>2022-09-22T10:07:06.559Z</time>
      </trkpt>
      <trkpt lat="44.95347" lon="5.42742">
        <ele>874</ele>
        <time>2022-09-22T10:07:07.559Z</time>
      </trkpt>
      <trkpt lat="44.95349" lon="5.42739">
        <ele>875</ele>
        <time>2022-09-22T10:07:08.559Z</time>
      </trkpt>
      <trkpt lat="44.9535" lon="5.42736">
        <ele>875</ele>
        <time>2022-09-22T10:07:09.558Z</time>
      </trkpt>
      <trkpt lat="44.95352" lon="5.42734">
        <ele>875</ele>
        <time>2022-09-22T10:07:10.558Z</time>
      </trkpt>
      <trkpt lat="44.95354" lon="5.42731">
        <ele>876</ele>
        <time>2022-09-22T10:07:11.558Z</time>
      </trkpt>
      <trkpt lat="44.95355" lon="5.42729">
        <ele>876</ele>
        <time>2022-09-22T10:07:12.559Z</time>
      </trkpt>
      <trkpt lat="44.95357" lon="5.42726">
        <ele>877</ele>
        <time>2022-09-22T10:07:13.558Z</time>
      </trkpt>
      <trkpt lat="44.95358" lon="5.42723">
        <ele>877</ele>
        <time>2022-09-22T10:07:14.559Z</time>
      </trkpt>
      <trkpt lat="44.9536" lon="5.42721">
        <ele>877</ele>
        <time>2022-09-22T10:07:15.558Z</time>
      </trkpt>
      <trkpt lat="44.95362" lon="5.42718">
        <ele>877</ele>
        <time>2022-09-22T10:07:16.559Z</time>
      </trkpt>
      <trkpt lat="44.95363" lon="5.42716">
        <ele>878</ele>
        <time>2022-09-22T10:07:17.559Z</time>
      </trkpt>
      <trkpt lat="44.95365" lon="5.42713">
        <ele>878</ele>
        <time>2022-09-22T10:07:18.558Z</time>
      </trkpt>
      <trkpt lat="44.95366" lon="5.42711">
        <ele>879</ele>
        <time>2022-09-22T10:07:19.559Z</time>
      </trkpt>
      <trkpt lat="44.95368" lon="5.42708">
        <ele>879</ele>
        <time>2022-09-22T10:07:20.558Z</time>
      </trkpt>
      <trkpt lat="44.95369" lon="5.42705">
        <ele>879</ele>
        <time>2022-09-22T10:07:21.558Z</time>
      </trkpt>
      <trkpt lat="44.95371" lon="5.42703">
        <ele>879</ele>
        <time>2022-09-22T10:07:22.558Z</time>
      </trkpt>
      <trkpt lat="44.95372" lon="5.427">
        <ele>879</ele>
        <time>2022-09-22T10:07:23.558Z</time>
      </trkpt>
      <trkpt lat="44.95373" lon="5.42698">
        <ele>879</ele>
        <time>2022-09-22T10:07:24.559Z</time>
      </trkpt>
      <trkpt lat="44.95375" lon="5.42695">
        <ele>879</ele>
        <time>2022-09-22T10:07:25.559Z</time>
      </trkpt>
      <trkpt lat="44.95376" lon="5.42692">
        <ele>879</ele>
        <time>2022-09-22T10:07:26.558Z</time>
      </trkpt>
      <trkpt lat="44.95377" lon="5.42689">
        <ele>878</ele>
        <time>2022-09-22T10:07:27.559Z</time>
      </trkpt>
      <trkpt lat="44.95379" lon="5.42687">
        <ele>878</ele>
        <time>2022-09-22T10:07:28.559Z</time>
      </trkpt>
      <trkpt lat="44.9538" lon="5.42685">
        <ele>877</ele>
        <time>2022-09-22T10:07:29.559Z</time>
      </trkpt>
      <trkpt lat="44.95382" lon="5.42683">
        <ele>877</ele>
        <time>2022-09-22T10:07:30.558Z</time>
      </trkpt>
      <trkpt lat="44.95383" lon="5.4268">
        <ele>877</ele>
        <time>2022-09-22T10:07:31.558Z</time>
      </trkpt>
      <trkpt lat="44.95385" lon="5.42678">
        <ele>877</ele>
        <time>2022-09-22T10:07:32.559Z</time>
      </trkpt>
      <trkpt lat="44.95386" lon="5.42675">
        <ele>877</ele>
        <time>2022-09-22T10:07:33.559Z</time>
      </trkpt>
      <trkpt lat="44.95388" lon="5.42672">
        <ele>877</ele>
        <time>2022-09-22T10:07:34.559Z</time>
      </trkpt>
      <trkpt lat="44.9539" lon="5.4267">
        <ele>878</ele>
        <time>2022-09-22T10:07:35.559Z</time>
      </trkpt>
      <trkpt lat="44.95391" lon="5.42668">
        <ele>878</ele>
        <time>2022-09-22T10:07:36.559Z</time>
      </trkpt>
      <trkpt lat="44.95393" lon="5.42665">
        <ele>878</ele>
        <time>2022-09-22T10:07:37.559Z</time>
      </trkpt>
      <trkpt lat="44.95395" lon="5.42663">
        <ele>879</ele>
        <time>2022-09-22T10:07:38.559Z</time>
      </trkpt>
      <trkpt lat="44.95397" lon="5.42661">
        <ele>879</ele>
        <time>2022-09-22T10:07:39.559Z</time>
      </trkpt>
      <trkpt lat="44.95398" lon="5.42659">
        <ele>880</ele>
        <time>2022-09-22T10:07:40.558Z</time>
      </trkpt>
      <trkpt lat="44.954" lon="5.42656">
        <ele>880</ele>
        <time>2022-09-22T10:07:41.559Z</time>
      </trkpt>
      <trkpt lat="44.95401" lon="5.42654">
        <ele>880</ele>
        <time>2022-09-22T10:07:42.558Z</time>
      </trkpt>
      <trkpt lat="44.95403" lon="5.42651">
        <ele>881</ele>
        <time>2022-09-22T10:07:43.559Z</time>
      </trkpt>
      <trkpt lat="44.95404" lon="5.42649">
        <ele>881</ele>
        <time>2022-09-22T10:07:44.559Z</time>
      </trkpt>
      <trkpt lat="44.95406" lon="5.42647">
        <ele>881</ele>
        <time>2022-09-22T10:07:45.559Z</time>
      </trkpt>
      <trkpt lat="44.95408" lon="5.42644">
        <ele>881</ele>
        <time>2022-09-22T10:07:46.559Z</time>
      </trkpt>
      <trkpt lat="44.95409" lon="5.42642">
        <ele>881</ele>
        <time>2022-09-22T10:07:47.559Z</time>
      </trkpt>
      <trkpt lat="44.95411" lon="5.4264">
        <ele>881</ele>
        <time>2022-09-22T10:07:48.559Z</time>
      </trkpt>
      <trkpt lat="44.95413" lon="5.42637">
        <ele>881</ele>
        <time>2022-09-22T10:07:49.559Z</time>
      </trkpt>
      <trkpt lat="44.95414" lon="5.42635">
        <ele>881</ele>
        <time>2022-09-22T10:07:50.558Z</time>
      </trkpt>
      <trkpt lat="44.95416" lon="5.42633">
        <ele>881</ele>
        <time>2022-09-22T10:07:51.559Z</time>
      </trkpt>
      <trkpt lat="44.95418" lon="5.42631">
        <ele>881</ele>
        <time>2022-09-22T10:07:52.558Z</time>
      </trkpt>
      <trkpt lat="44.9542" lon="5.42629">
        <ele>881</ele>
        <time>2022-09-22T10:07:53.559Z</time>
      </trkpt>
      <trkpt lat="44.95422" lon="5.42627">
        <ele>881</ele>
        <time>2022-09-22T10:07:54.559Z</time>
      </trkpt>
      <trkpt lat="44.95424" lon="5.42625">
        <ele>881</ele>
        <time>2022-09-22T10:07:55.559Z</time>
      </trkpt>
      <trkpt lat="44.95426" lon="5.42623">
        <ele>880</ele>
        <time>2022-09-22T10:07:56.559Z</time>
      </trkpt>
      <trkpt lat="44.95428" lon="5.42621">
        <ele>879</ele>
        <time>2022-09-22T10:07:57.559Z</time>
      </trkpt>
      <trkpt lat="44.95429" lon="5.42619">
        <ele>879</ele>
        <time>2022-09-22T10:07:58.559Z</time>
      </trkpt>
      <trkpt lat="44.95431" lon="5.42618">
        <ele>879</ele>
        <time>2022-09-22T10:07:59.559Z</time>
      </trkpt>
      <trkpt lat="44.95434" lon="5.42616">
        <ele>879</ele>
        <time>2022-09-22T10:08:00.559Z</time>
      </trkpt>
      <trkpt lat="44.95435" lon="5.42614">
        <ele>879</ele>
        <time>2022-09-22T10:08:01.558Z</time>
      </trkpt>
      <trkpt lat="44.95438" lon="5.42612">
        <ele>879</ele>
        <time>2022-09-22T10:08:02.558Z</time>
      </trkpt>
      <trkpt lat="44.9544" lon="5.42611">
        <ele>879</ele>
        <time>2022-09-22T10:08:03.559Z</time>
      </trkpt>
      <trkpt lat="44.95442" lon="5.42609">
        <ele>879</ele>
        <time>2022-09-22T10:08:04.559Z</time>
      </trkpt>
      <trkpt lat="44.95444" lon="5.42608">
        <ele>880</ele>
        <time>2022-09-22T10:08:05.558Z</time>
      </trkpt>
      <trkpt lat="44.95446" lon="5.42607">
        <ele>880</ele>
        <time>2022-09-22T10:08:06.559Z</time>
      </trkpt>
      <trkpt lat="44.95448" lon="5.42606">
        <ele>880</ele>
        <time>2022-09-22T10:08:07.559Z</time>
      </trkpt>
      <trkpt lat="44.95451" lon="5.42604">
        <ele>880</ele>
        <time>2022-09-22T10:08:08.558Z</time>
      </trkpt>
      <trkpt lat="44.95453" lon="5.42603">
        <ele>880</ele>
        <time>2022-09-22T10:08:09.558Z</time>
      </trkpt>
      <trkpt lat="44.95455" lon="5.42601">
        <ele>881</ele>
        <time>2022-09-22T10:08:10.559Z</time>
      </trkpt>
      <trkpt lat="44.95457" lon="5.426">
        <ele>881</ele>
        <time>2022-09-22T10:08:11.558Z</time>
      </trkpt>
      <trkpt lat="44.95459" lon="5.42599">
        <ele>881</ele>
        <time>2022-09-22T10:08:12.559Z</time>
      </trkpt>
      <trkpt lat="44.95462" lon="5.42597">
        <ele>881</ele>
        <time>2022-09-22T10:08:13.559Z</time>
      </trkpt>
      <trkpt lat="44.95464" lon="5.42596">
        <ele>881</ele>
        <time>2022-09-22T10:08:14.558Z</time>
      </trkpt>
      <trkpt lat="44.95466" lon="5.42595">
        <ele>882</ele>
        <time>2022-09-22T10:08:15.559Z</time>
      </trkpt>
      <trkpt lat="44.95468" lon="5.42593">
        <ele>882</ele>
        <time>2022-09-22T10:08:16.558Z</time>
      </trkpt>
      <trkpt lat="44.9547" lon="5.42592">
        <ele>882</ele>
        <time>2022-09-22T10:08:17.559Z</time>
      </trkpt>
      <trkpt lat="44.95472" lon="5.42591">
        <ele>882</ele>
        <time>2022-09-22T10:08:18.559Z</time>
      </trkpt>
      <trkpt lat="44.95475" lon="5.42589">
        <ele>882</ele>
        <time>2022-09-22T10:08:19.559Z</time>
      </trkpt>
      <trkpt lat="44.95477" lon="5.42588">
        <ele>882</ele>
        <time>2022-09-22T10:08:20.559Z</time>
      </trkpt>
      <trkpt lat="44.9548" lon="5.42587">
        <ele>882</ele>
        <time>2022-09-22T10:08:21.559Z</time>
      </trkpt>
      <trkpt lat="44.95482" lon="5.42586">
        <ele>882</ele>
        <time>2022-09-22T10:08:22.558Z</time>
      </trkpt>
      <trkpt lat="44.95484" lon="5.42585">
        <ele>882</ele>
        <time>2022-09-22T10:08:23.559Z</time>
      </trkpt>
      <trkpt lat="44.95486" lon="5.42584">
        <ele>882</ele>
        <time>2022-09-22T10:08:24.559Z</time>
      </trkpt>
      <trkpt lat="44.95489" lon="5.42584">
        <ele>882</ele>
        <time>2022-09-22T10:08:25.559Z</time>
      </trkpt>
      <trkpt lat="44.95491" lon="5.42583">
        <ele>882</ele>
        <time>2022-09-22T10:08:26.559Z</time>
      </trkpt>
      <trkpt lat="44.95493" lon="5.42582">
        <ele>882</ele>
        <time>2022-09-22T10:08:27.558Z</time>
      </trkpt>
      <trkpt lat="44.95495" lon="5.42581">
        <ele>882</ele>
        <time>2022-09-22T10:08:28.559Z</time>
      </trkpt>
      <trkpt lat="44.95498" lon="5.4258">
        <ele>882</ele>
        <time>2022-09-22T10:08:29.558Z</time>
      </trkpt>
      <trkpt lat="44.95501" lon="5.42578">
        <ele>882</ele>
        <time>2022-09-22T10:08:30.559Z</time>
      </trkpt>
      <trkpt lat="44.95503" lon="5.42576">
        <ele>882</ele>
        <time>2022-09-22T10:08:31.559Z</time>
      </trkpt>
      <trkpt lat="44.95506" lon="5.42575">
        <ele>882</ele>
        <time>2022-09-22T10:08:32.559Z</time>
      </trkpt>
      <trkpt lat="44.95508" lon="5.42573">
        <ele>881</ele>
        <time>2022-09-22T10:08:33.558Z</time>
      </trkpt>
      <trkpt lat="44.95511" lon="5.42571">
        <ele>881</ele>
        <time>2022-09-22T10:08:34.559Z</time>
      </trkpt>
      <trkpt lat="44.95514" lon="5.42569">
        <ele>881</ele>
        <time>2022-09-22T10:08:35.559Z</time>
      </trkpt>
      <trkpt lat="44.95517" lon="5.42567">
        <ele>881</ele>
        <time>2022-09-22T10:08:36.559Z</time>
      </trkpt>
      <trkpt lat="44.95521" lon="5.42565">
        <ele>881</ele>
        <time>2022-09-22T10:08:37.559Z</time>
      </trkpt>
      <trkpt lat="44.95524" lon="5.42564">
        <ele>881</ele>
        <time>2022-09-22T10:08:38.559Z</time>
      </trkpt>
      <trkpt lat="44.95527" lon="5.42562">
        <ele>881</ele>
        <time>2022-09-22T10:08:39.558Z</time>
      </trkpt>
      <trkpt lat="44.95531" lon="5.4256">
        <ele>881</ele>
        <time>2022-09-22T10:08:40.559Z</time>
      </trkpt>
      <trkpt lat="44.95534" lon="5.42558">
        <ele>881</ele>
        <time>2022-09-22T10:08:41.558Z</time>
      </trkpt>
      <trkpt lat="44.95538" lon="5.42556">
        <ele>881</ele>
        <time>2022-09-22T10:08:42.559Z</time>
      </trkpt>
      <trkpt lat="44.95542" lon="5.42554">
        <ele>881</ele>
        <time>2022-09-22T10:08:43.559Z</time>
      </trkpt>
      <trkpt lat="44.95545" lon="5.42552">
        <ele>881</ele>
        <time>2022-09-22T10:08:44.559Z</time>
      </trkpt>
      <trkpt lat="44.95549" lon="5.42549">
        <ele>881</ele>
        <time>2022-09-22T10:08:45.559Z</time>
      </trkpt>
      <trkpt lat="44.95553" lon="5.42547">
        <ele>881</ele>
        <time>2022-09-22T10:08:46.559Z</time>
      </trkpt>
      <trkpt lat="44.95557" lon="5.42545">
        <ele>881</ele>
        <time>2022-09-22T10:08:47.559Z</time>
      </trkpt>
      <trkpt lat="44.95561" lon="5.42542">
        <ele>880</ele>
        <time>2022-09-22T10:08:48.559Z</time>
      </trkpt>
      <trkpt lat="44.95565" lon="5.4254">
        <ele>880</ele>
        <time>2022-09-22T10:08:49.559Z</time>
      </trkpt>
      <trkpt lat="44.9557" lon="5.42537">
        <ele>880</ele>
        <time>2022-09-22T10:08:50.559Z</time>
      </trkpt>
      <trkpt lat="44.95574" lon="5.42535">
        <ele>880</ele>
        <time>2022-09-22T10:08:51.559Z</time>
      </trkpt>
      <trkpt lat="44.95579" lon="5.42532">
        <ele>880</ele>
        <time>2022-09-22T10:08:52.559Z</time>
      </trkpt>
      <trkpt lat="44.95584" lon="5.42529">
        <ele>880</ele>
        <time>2022-09-22T10:08:53.558Z</time>
      </trkpt>
      <trkpt lat="44.95589" lon="5.42526">
        <ele>880</ele>
        <time>2022-09-22T10:08:54.559Z</time>
      </trkpt>
      <trkpt lat="44.95594" lon="5.42523">
        <ele>881</ele>
        <time>2022-09-22T10:08:55.559Z</time>
      </trkpt>
      <trkpt lat="44.95599" lon="5.4252">
        <ele>881</ele>
        <time>2022-09-22T10:08:56.559Z</time>
      </trkpt>
      <trkpt lat="44.95604" lon="5.42517">
        <ele>880</ele>
        <time>2022-09-22T10:08:57.559Z</time>
      </trkpt>
      <trkpt lat="44.95609" lon="5.42513">
        <ele>880</ele>
        <time>2022-09-22T10:08:58.559Z</time>
      </trkpt>
      <trkpt lat="44.95615" lon="5.42509">
        <ele>880</ele>
        <time>2022-09-22T10:08:59.558Z</time>
      </trkpt>
      <trkpt lat="44.9562" lon="5.42505">
        <ele>880</ele>
        <time>2022-09-22T10:09:00.559Z</time>
      </trkpt>
      <trkpt lat="44.95626" lon="5.42501">
        <ele>880</ele>
        <time>2022-09-22T10:09:01.559Z</time>
      </trkpt>
      <trkpt lat="44.95631" lon="5.42496">
        <ele>879</ele>
        <time>2022-09-22T10:09:02.559Z</time>
      </trkpt>
      <trkpt lat="44.95637" lon="5.42491">
        <ele>879</ele>
        <time>2022-09-22T10:09:03.559Z</time>
      </trkpt>
      <trkpt lat="44.95642" lon="5.42485">
        <ele>878</ele>
        <time>2022-09-22T10:09:04.559Z</time>
      </trkpt>
      <trkpt lat="44.95648" lon="5.42478">
        <ele>878</ele>
        <time>2022-09-22T10:09:05.559Z</time>
      </trkpt>
      <trkpt lat="44.95653" lon="5.42471">
        <ele>878</ele>
        <time>2022-09-22T10:09:06.559Z</time>
      </trkpt>
      <trkpt lat="44.95658" lon="5.42464">
        <ele>878</ele>
        <time>2022-09-22T10:09:07.558Z</time>
      </trkpt>
      <trkpt lat="44.95664" lon="5.42456">
        <ele>878</ele>
        <time>2022-09-22T10:09:08.559Z</time>
      </trkpt>
      <trkpt lat="44.95669" lon="5.42448">
        <ele>877</ele>
        <time>2022-09-22T10:09:09.559Z</time>
      </trkpt>
      <trkpt lat="44.95674" lon="5.4244">
        <ele>877</ele>
        <time>2022-09-22T10:09:10.558Z</time>
      </trkpt>
      <trkpt lat="44.95679" lon="5.42432">
        <ele>877</ele>
        <time>2022-09-22T10:09:11.558Z</time>
      </trkpt>
      <trkpt lat="44.95684" lon="5.42423">
        <ele>876</ele>
        <time>2022-09-22T10:09:12.558Z</time>
      </trkpt>
      <trkpt lat="44.95689" lon="5.42415">
        <ele>876</ele>
        <time>2022-09-22T10:09:13.558Z</time>
      </trkpt>
      <trkpt lat="44.95695" lon="5.42407">
        <ele>876</ele>
        <time>2022-09-22T10:09:14.559Z</time>
      </trkpt>
      <trkpt lat="44.957" lon="5.424">
        <ele>876</ele>
        <time>2022-09-22T10:09:15.559Z</time>
      </trkpt>
      <trkpt lat="44.95706" lon="5.42393">
        <ele>876</ele>
        <time>2022-09-22T10:09:16.559Z</time>
      </trkpt>
      <trkpt lat="44.95712" lon="5.42386">
        <ele>876</ele>
        <time>2022-09-22T10:09:17.559Z</time>
      </trkpt>
      <trkpt lat="44.95718" lon="5.4238">
        <ele>875</ele>
        <time>2022-09-22T10:09:18.558Z</time>
      </trkpt>
      <trkpt lat="44.95725" lon="5.42374">
        <ele>875</ele>
        <time>2022-09-22T10:09:19.559Z</time>
      </trkpt>
      <trkpt lat="44.95731" lon="5.42369">
        <ele>875</ele>
        <time>2022-09-22T10:09:20.559Z</time>
      </trkpt>
      <trkpt lat="44.95737" lon="5.42365">
        <ele>874</ele>
        <time>2022-09-22T10:09:21.559Z</time>
      </trkpt>
      <trkpt lat="44.95743" lon="5.42361">
        <ele>874</ele>
        <time>2022-09-22T10:09:22.558Z</time>
      </trkpt>
      <trkpt lat="44.9575" lon="5.42357">
        <ele>874</ele>
        <time>2022-09-22T10:09:23.558Z</time>
      </trkpt>
      <trkpt lat="44.95756" lon="5.42354">
        <ele>874</ele>
        <time>2022-09-22T10:09:24.559Z</time>
      </trkpt>
      <trkpt lat="44.95762" lon="5.42351">
        <ele>874</ele>
        <time>2022-09-22T10:09:25.559Z</time>
      </trkpt>
      <trkpt lat="44.95768" lon="5.42348">
        <ele>874</ele>
        <time>2022-09-22T10:09:26.559Z</time>
      </trkpt>
      <trkpt lat="44.95774" lon="5.42344">
        <ele>874</ele>
        <time>2022-09-22T10:09:27.559Z</time>
      </trkpt>
      <trkpt lat="44.9578" lon="5.42341">
        <ele>874</ele>
        <time>2022-09-22T10:09:28.559Z</time>
      </trkpt>
      <trkpt lat="44.95786" lon="5.42338">
        <ele>874</ele>
        <time>2022-09-22T10:09:29.559Z</time>
      </trkpt>
      <trkpt lat="44.95792" lon="5.42335">
        <ele>874</ele>
        <time>2022-09-22T10:09:30.559Z</time>
      </trkpt>
      <trkpt lat="44.95797" lon="5.42332">
        <ele>874</ele>
        <time>2022-09-22T10:09:31.558Z</time>
      </trkpt>
      <trkpt lat="44.95803" lon="5.42329">
        <ele>874</ele>
        <time>2022-09-22T10:09:32.559Z</time>
      </trkpt>
      <trkpt lat="44.95808" lon="5.42327">
        <ele>874</ele>
        <time>2022-09-22T10:09:33.558Z</time>
      </trkpt>
      <trkpt lat="44.95814" lon="5.42324">
        <ele>874</ele>
        <time>2022-09-22T10:09:34.559Z</time>
      </trkpt>
      <trkpt lat="44.95819" lon="5.42321">
        <ele>874</ele>
        <time>2022-09-22T10:09:35.559Z</time>
      </trkpt>
      <trkpt lat="44.95825" lon="5.42318">
        <ele>874</ele>
        <time>2022-09-22T10:09:36.558Z</time>
      </trkpt>
      <trkpt lat="44.9583" lon="5.42315">
        <ele>874</ele>
        <time>2022-09-22T10:09:37.559Z</time>
      </trkpt>
      <trkpt lat="44.95835" lon="5.42312">
        <ele>874</ele>
        <time>2022-09-22T10:09:38.559Z</time>
      </trkpt>
      <trkpt lat="44.95841" lon="5.42309">
        <ele>874</ele>
        <time>2022-09-22T10:09:39.559Z</time>
      </trkpt>
      <trkpt lat="44.95846" lon="5.42307">
        <ele>873</ele>
        <time>2022-09-22T10:09:40.558Z</time>
      </trkpt>
      <trkpt lat="44.95851" lon="5.42304">
        <ele>873</ele>
        <time>2022-09-22T10:09:41.559Z</time>
      </trkpt>
      <trkpt lat="44.95856" lon="5.42301">
        <ele>873</ele>
        <time>2022-09-22T10:09:42.558Z</time>
      </trkpt>
      <trkpt lat="44.95861" lon="5.42298">
        <ele>873</ele>
        <time>2022-09-22T10:09:43.559Z</time>
      </trkpt>
      <trkpt lat="44.95866" lon="5.42296">
        <ele>873</ele>
        <time>2022-09-22T10:09:44.559Z</time>
      </trkpt>
      <trkpt lat="44.95871" lon="5.42293">
        <ele>873</ele>
        <time>2022-09-22T10:09:45.559Z</time>
      </trkpt>
      <trkpt lat="44.95876" lon="5.4229">
        <ele>873</ele>
        <time>2022-09-22T10:09:46.559Z</time>
      </trkpt>
      <trkpt lat="44.95881" lon="5.42287">
        <ele>873</ele>
        <time>2022-09-22T10:09:47.559Z</time>
      </trkpt>
      <trkpt lat="44.95885" lon="5.42285">
        <ele>873</ele>
        <time>2022-09-22T10:09:48.559Z</time>
      </trkpt>
      <trkpt lat="44.9589" lon="5.42282">
        <ele>873</ele>
        <time>2022-09-22T10:09:49.558Z</time>
      </trkpt>
      <trkpt lat="44.95895" lon="5.42279">
        <ele>873</ele>
        <time>2022-09-22T10:09:50.559Z</time>
      </trkpt>
      <trkpt lat="44.959" lon="5.42276">
        <ele>872</ele>
        <time>2022-09-22T10:09:51.558Z</time>
      </trkpt>
      <trkpt lat="44.95904" lon="5.42273">
        <ele>872</ele>
        <time>2022-09-22T10:09:52.559Z</time>
      </trkpt>
      <trkpt lat="44.95909" lon="5.4227">
        <ele>872</ele>
        <time>2022-09-22T10:09:53.558Z</time>
      </trkpt>
      <trkpt lat="44.95914" lon="5.42268">
        <ele>872</ele>
        <time>2022-09-22T10:09:54.559Z</time>
      </trkpt>
      <trkpt lat="44.95919" lon="5.42265">
        <ele>872</ele>
        <time>2022-09-22T10:09:55.559Z</time>
      </trkpt>
      <trkpt lat="44.95925" lon="5.42263">
        <ele>872</ele>
        <time>2022-09-22T10:09:56.559Z</time>
      </trkpt>
      <trkpt lat="44.9593" lon="5.4226">
        <ele>872</ele>
        <time>2022-09-22T10:09:57.559Z</time>
      </trkpt>
      <trkpt lat="44.95935" lon="5.42257">
        <ele>872</ele>
        <time>2022-09-22T10:09:58.558Z</time>
      </trkpt>
      <trkpt lat="44.9594" lon="5.42254">
        <ele>872</ele>
        <time>2022-09-22T10:09:59.558Z</time>
      </trkpt>
      <trkpt lat="44.95945" lon="5.42251">
        <ele>872</ele>
        <time>2022-09-22T10:10:00.559Z</time>
      </trkpt>
      <trkpt lat="44.9595" lon="5.42248">
        <ele>872</ele>
        <time>2022-09-22T10:10:01.558Z</time>
      </trkpt>
      <trkpt lat="44.95955" lon="5.42246">
        <ele>872</ele>
        <time>2022-09-22T10:10:02.558Z</time>
      </trkpt>
      <trkpt lat="44.9596" lon="5.42243">
        <ele>872</ele>
        <time>2022-09-22T10:10:03.558Z</time>
      </trkpt>
      <trkpt lat="44.95965" lon="5.4224">
        <ele>872</ele>
        <time>2022-09-22T10:10:04.559Z</time>
      </trkpt>
      <trkpt lat="44.9597" lon="5.42238">
        <ele>871</ele>
        <time>2022-09-22T10:10:05.558Z</time>
      </trkpt>
      <trkpt lat="44.95975" lon="5.42235">
        <ele>871</ele>
        <time>2022-09-22T10:10:06.559Z</time>
      </trkpt>
      <trkpt lat="44.9598" lon="5.42233">
        <ele>870</ele>
        <time>2022-09-22T10:10:07.559Z</time>
      </trkpt>
      <trkpt lat="44.95985" lon="5.4223">
        <ele>870</ele>
        <time>2022-09-22T10:10:08.559Z</time>
      </trkpt>
      <trkpt lat="44.95989" lon="5.42227">
        <ele>870</ele>
        <time>2022-09-22T10:10:09.558Z</time>
      </trkpt>
      <trkpt lat="44.95994" lon="5.42224">
        <ele>870</ele>
        <time>2022-09-22T10:10:10.558Z</time>
      </trkpt>
      <trkpt lat="44.95999" lon="5.42222">
        <ele>870</ele>
        <time>2022-09-22T10:10:11.559Z</time>
      </trkpt>
      <trkpt lat="44.96003" lon="5.4222">
        <ele>870</ele>
        <time>2022-09-22T10:10:12.559Z</time>
      </trkpt>
      <trkpt lat="44.96007" lon="5.42218">
        <ele>871</ele>
        <time>2022-09-22T10:10:13.559Z</time>
      </trkpt>
      <trkpt lat="44.96012" lon="5.42215">
        <ele>871</ele>
        <time>2022-09-22T10:10:14.559Z</time>
      </trkpt>
      <trkpt lat="44.96016" lon="5.42213">
        <ele>871</ele>
        <time>2022-09-22T10:10:15.558Z</time>
      </trkpt>
      <trkpt lat="44.9602" lon="5.42211">
        <ele>870</ele>
        <time>2022-09-22T10:10:16.559Z</time>
      </trkpt>
      <trkpt lat="44.96024" lon="5.42208">
        <ele>870</ele>
        <time>2022-09-22T10:10:17.559Z</time>
      </trkpt>
      <trkpt lat="44.96028" lon="5.42205">
        <ele>870</ele>
        <time>2022-09-22T10:10:18.558Z</time>
      </trkpt>
      <trkpt lat="44.96032" lon="5.42201">
        <ele>870</ele>
        <time>2022-09-22T10:10:19.559Z</time>
      </trkpt>
      <trkpt lat="44.96035" lon="5.42198">
        <ele>870</ele>
        <time>2022-09-22T10:10:20.558Z</time>
      </trkpt>
      <trkpt lat="44.96038" lon="5.42194">
        <ele>870</ele>
        <time>2022-09-22T10:10:21.558Z</time>
      </trkpt>
      <trkpt lat="44.96042" lon="5.4219">
        <ele>870</ele>
        <time>2022-09-22T10:10:22.559Z</time>
      </trkpt>
      <trkpt lat="44.96044" lon="5.42186">
        <ele>870</ele>
        <time>2022-09-22T10:10:23.559Z</time>
      </trkpt>
      <trkpt lat="44.96047" lon="5.42181">
        <ele>870</ele>
        <time>2022-09-22T10:10:24.559Z</time>
      </trkpt>
      <trkpt lat="44.96049" lon="5.42176">
        <ele>871</ele>
        <time>2022-09-22T10:10:25.559Z</time>
      </trkpt>
      <trkpt lat="44.96051" lon="5.42171">
        <ele>871</ele>
        <time>2022-09-22T10:10:26.559Z</time>
      </trkpt>
      <trkpt lat="44.96052" lon="5.42165">
        <ele>871</ele>
        <time>2022-09-22T10:10:27.558Z</time>
      </trkpt>
      <trkpt lat="44.96054" lon="5.4216">
        <ele>871</ele>
        <time>2022-09-22T10:10:28.559Z</time>
      </trkpt>
      <trkpt lat="44.96056" lon="5.42155">
        <ele>871</ele>
        <time>2022-09-22T10:10:29.559Z</time>
      </trkpt>
      <trkpt lat="44.96057" lon="5.4215">
        <ele>872</ele>
        <time>2022-09-22T10:10:30.559Z</time>
      </trkpt>
      <trkpt lat="44.96058" lon="5.42144">
        <ele>872</ele>
        <time>2022-09-22T10:10:31.559Z</time>
      </trkpt>
      <trkpt lat="44.96059" lon="5.42139">
        <ele>873</ele>
        <time>2022-09-22T10:10:32.559Z</time>
      </trkpt>
      <trkpt lat="44.96059" lon="5.42133">
        <ele>872</ele>
        <time>2022-09-22T10:10:33.558Z</time>
      </trkpt>
      <trkpt lat="44.96061" lon="5.42127">
        <ele>872</ele>
        <time>2022-09-22T10:10:34.559Z</time>
      </trkpt>
      <trkpt lat="44.96061" lon="5.42122">
        <ele>872</ele>
        <time>2022-09-22T10:10:35.559Z</time>
      </trkpt>
      <trkpt lat="44.96062" lon="5.42117">
        <ele>872</ele>
        <time>2022-09-22T10:10:36.559Z</time>
      </trkpt>
      <trkpt lat="44.96063" lon="5.42111">
        <ele>872</ele>
        <time>2022-09-22T10:10:37.558Z</time>
      </trkpt>
      <trkpt lat="44.96064" lon="5.42105">
        <ele>872</ele>
        <time>2022-09-22T10:10:38.559Z</time>
      </trkpt>
      <trkpt lat="44.96065" lon="5.421">
        <ele>872</ele>
        <time>2022-09-22T10:10:39.559Z</time>
      </trkpt>
      <trkpt lat="44.96067" lon="5.42094">
        <ele>872</ele>
        <time>2022-09-22T10:10:40.558Z</time>
      </trkpt>
      <trkpt lat="44.96068" lon="5.42089">
        <ele>872</ele>
        <time>2022-09-22T10:10:41.558Z</time>
      </trkpt>
      <trkpt lat="44.9607" lon="5.42084">
        <ele>872</ele>
        <time>2022-09-22T10:10:42.558Z</time>
      </trkpt>
      <trkpt lat="44.96073" lon="5.42078">
        <ele>872</ele>
        <time>2022-09-22T10:10:43.559Z</time>
      </trkpt>
      <trkpt lat="44.96075" lon="5.42075">
        <ele>872</ele>
        <time>2022-09-22T10:10:44.559Z</time>
      </trkpt>
      <trkpt lat="44.96078" lon="5.42071">
        <ele>872</ele>
        <time>2022-09-22T10:10:45.558Z</time>
      </trkpt>
      <trkpt lat="44.96081" lon="5.42068">
        <ele>872</ele>
        <time>2022-09-22T10:10:46.559Z</time>
      </trkpt>
      <trkpt lat="44.96084" lon="5.42065">
        <ele>873</ele>
        <time>2022-09-22T10:10:47.559Z</time>
      </trkpt>
      <trkpt lat="44.96087" lon="5.42063">
        <ele>873</ele>
        <time>2022-09-22T10:10:48.558Z</time>
      </trkpt>
      <trkpt lat="44.9609" lon="5.42061">
        <ele>873</ele>
        <time>2022-09-22T10:10:49.559Z</time>
      </trkpt>
      <trkpt lat="44.96093" lon="5.4206">
        <ele>873</ele>
        <time>2022-09-22T10:10:50.559Z</time>
      </trkpt>
      <trkpt lat="44.96095" lon="5.42058">
        <ele>873</ele>
        <time>2022-09-22T10:10:51.559Z</time>
      </trkpt>
      <trkpt lat="44.96098" lon="5.42057">
        <ele>873</ele>
        <time>2022-09-22T10:10:52.559Z</time>
      </trkpt>
      <trkpt lat="44.96101" lon="5.42056">
        <ele>874</ele>
        <time>2022-09-22T10:10:53.559Z</time>
      </trkpt>
      <trkpt lat="44.96103" lon="5.42056">
        <ele>874</ele>
        <time>2022-09-22T10:10:54.559Z</time>
      </trkpt>
      <trkpt lat="44.96106" lon="5.42055">
        <ele>874</ele>
        <time>2022-09-22T10:10:55.559Z</time>
      </trkpt>
      <trkpt lat="44.96109" lon="5.42053">
        <ele>875</ele>
        <time>2022-09-22T10:10:56.558Z</time>
      </trkpt>
      <trkpt lat="44.96111" lon="5.42052">
        <ele>875</ele>
        <time>2022-09-22T10:10:57.559Z</time>
      </trkpt>
      <trkpt lat="44.96114" lon="5.42051">
        <ele>876</ele>
        <time>2022-09-22T10:10:58.559Z</time>
      </trkpt>
      <trkpt lat="44.96116" lon="5.4205">
        <ele>876</ele>
        <time>2022-09-22T10:10:59.559Z</time>
      </trkpt>
      <trkpt lat="44.96118" lon="5.42049">
        <ele>876</ele>
        <time>2022-09-22T10:11:00.559Z</time>
      </trkpt>
      <trkpt lat="44.96121" lon="5.42048">
        <ele>876</ele>
        <time>2022-09-22T10:11:01.558Z</time>
      </trkpt>
      <trkpt lat="44.96123" lon="5.42047">
        <ele>876</ele>
        <time>2022-09-22T10:11:02.559Z</time>
      </trkpt>
      <trkpt lat="44.96126" lon="5.42046">
        <ele>876</ele>
        <time>2022-09-22T10:11:03.559Z</time>
      </trkpt>
      <trkpt lat="44.96128" lon="5.42044">
        <ele>876</ele>
        <time>2022-09-22T10:11:04.559Z</time>
      </trkpt>
      <trkpt lat="44.96131" lon="5.42043">
        <ele>876</ele>
        <time>2022-09-22T10:11:05.559Z</time>
      </trkpt>
      <trkpt lat="44.96133" lon="5.42042">
        <ele>877</ele>
        <time>2022-09-22T10:11:06.559Z</time>
      </trkpt>
      <trkpt lat="44.96136" lon="5.4204">
        <ele>877</ele>
        <time>2022-09-22T10:11:07.559Z</time>
      </trkpt>
      <trkpt lat="44.96138" lon="5.42039">
        <ele>877</ele>
        <time>2022-09-22T10:11:08.559Z</time>
      </trkpt>
      <trkpt lat="44.96141" lon="5.42038">
        <ele>877</ele>
        <time>2022-09-22T10:11:09.559Z</time>
      </trkpt>
      <trkpt lat="44.96143" lon="5.42037">
        <ele>878</ele>
        <time>2022-09-22T10:11:10.559Z</time>
      </trkpt>
      <trkpt lat="44.96146" lon="5.42036">
        <ele>878</ele>
        <time>2022-09-22T10:11:11.559Z</time>
      </trkpt>
      <trkpt lat="44.96148" lon="5.42035">
        <ele>878</ele>
        <time>2022-09-22T10:11:12.559Z</time>
      </trkpt>
      <trkpt lat="44.9615" lon="5.42033">
        <ele>879</ele>
        <time>2022-09-22T10:11:13.559Z</time>
      </trkpt>
      <trkpt lat="44.96153" lon="5.42032">
        <ele>879</ele>
        <time>2022-09-22T10:11:14.559Z</time>
      </trkpt>
      <trkpt lat="44.96155" lon="5.4203">
        <ele>879</ele>
        <time>2022-09-22T10:11:15.559Z</time>
      </trkpt>
      <trkpt lat="44.96158" lon="5.42029">
        <ele>880</ele>
        <time>2022-09-22T10:11:16.558Z</time>
      </trkpt>
      <trkpt lat="44.9616" lon="5.42027">
        <ele>880</ele>
        <time>2022-09-22T10:11:17.558Z</time>
      </trkpt>
      <trkpt lat="44.96162" lon="5.42026">
        <ele>880</ele>
        <time>2022-09-22T10:11:18.559Z</time>
      </trkpt>
      <trkpt lat="44.96165" lon="5.42024">
        <ele>880</ele>
        <time>2022-09-22T10:11:19.559Z</time>
      </trkpt>
      <trkpt lat="44.96167" lon="5.42023">
        <ele>880</ele>
        <time>2022-09-22T10:11:20.559Z</time>
      </trkpt>
      <trkpt lat="44.96169" lon="5.42021">
        <ele>881</ele>
        <time>2022-09-22T10:11:21.559Z</time>
      </trkpt>
      <trkpt lat="44.96171" lon="5.4202">
        <ele>881</ele>
        <time>2022-09-22T10:11:22.559Z</time>
      </trkpt>
      <trkpt lat="44.96174" lon="5.42019">
        <ele>881</ele>
        <time>2022-09-22T10:11:23.559Z</time>
      </trkpt>
      <trkpt lat="44.96176" lon="5.42018">
        <ele>881</ele>
        <time>2022-09-22T10:11:24.559Z</time>
      </trkpt>
      <trkpt lat="44.96179" lon="5.42016">
        <ele>880</ele>
        <time>2022-09-22T10:11:25.559Z</time>
      </trkpt>
      <trkpt lat="44.96181" lon="5.42015">
        <ele>880</ele>
        <time>2022-09-22T10:11:26.559Z</time>
      </trkpt>
      <trkpt lat="44.96182" lon="5.42013">
        <ele>880</ele>
        <time>2022-09-22T10:11:27.558Z</time>
      </trkpt>
      <trkpt lat="44.96184" lon="5.42011">
        <ele>880</ele>
        <time>2022-09-22T10:11:28.558Z</time>
      </trkpt>
      <trkpt lat="44.96185" lon="5.42009">
        <ele>880</ele>
        <time>2022-09-22T10:11:29.559Z</time>
      </trkpt>
      <trkpt lat="44.96186" lon="5.42006">
        <ele>880</ele>
        <time>2022-09-22T10:11:30.559Z</time>
      </trkpt>
      <trkpt lat="44.96187" lon="5.42003">
        <ele>880</ele>
        <time>2022-09-22T10:11:31.559Z</time>
      </trkpt>
      <trkpt lat="44.96187" lon="5.41999">
        <ele>880</ele>
        <time>2022-09-22T10:11:32.559Z</time>
      </trkpt>
      <trkpt lat="44.96187" lon="5.41994">
        <ele>880</ele>
        <time>2022-09-22T10:11:33.559Z</time>
      </trkpt>
      <trkpt lat="44.96187" lon="5.4199">
        <ele>880</ele>
        <time>2022-09-22T10:11:34.559Z</time>
      </trkpt>
      <trkpt lat="44.96187" lon="5.41984">
        <ele>880</ele>
        <time>2022-09-22T10:11:35.559Z</time>
      </trkpt>
      <trkpt lat="44.96186" lon="5.41978">
        <ele>880</ele>
        <time>2022-09-22T10:11:36.559Z</time>
      </trkpt>
      <trkpt lat="44.96185" lon="5.41972">
        <ele>879</ele>
        <time>2022-09-22T10:11:37.559Z</time>
      </trkpt>
      <trkpt lat="44.96184" lon="5.41966">
        <ele>879</ele>
        <time>2022-09-22T10:11:38.559Z</time>
      </trkpt>
      <trkpt lat="44.96183" lon="5.41961">
        <ele>878</ele>
        <time>2022-09-22T10:11:39.559Z</time>
      </trkpt>
      <trkpt lat="44.96181" lon="5.41957">
        <ele>878</ele>
        <time>2022-09-22T10:11:40.559Z</time>
      </trkpt>
      <trkpt lat="44.96179" lon="5.41953">
        <ele>877</ele>
        <time>2022-09-22T10:11:41.558Z</time>
      </trkpt>
      <trkpt lat="44.96177" lon="5.41951">
        <ele>877</ele>
        <time>2022-09-22T10:11:42.559Z</time>
      </trkpt>
      <trkpt lat="44.96175" lon="5.41948">
        <ele>877</ele>
        <time>2022-09-22T10:11:43.559Z</time>
      </trkpt>
      <trkpt lat="44.96172" lon="5.41945">
        <ele>877</ele>
        <time>2022-09-22T10:11:44.558Z</time>
      </trkpt>
      <trkpt lat="44.9617" lon="5.41942">
        <ele>877</ele>
        <time>2022-09-22T10:11:45.559Z</time>
      </trkpt>
      <trkpt lat="44.96168" lon="5.41939">
        <ele>877</ele>
        <time>2022-09-22T10:11:46.558Z</time>
      </trkpt>
      <trkpt lat="44.96166" lon="5.41936">
        <ele>876</ele>
        <time>2022-09-22T10:11:47.559Z</time>
      </trkpt>
      <trkpt lat="44.96163" lon="5.41932">
        <ele>876</ele>
        <time>2022-09-22T10:11:48.558Z</time>
      </trkpt>
      <trkpt lat="44.9616" lon="5.41928">
        <ele>876</ele>
        <time>2022-09-22T10:11:49.558Z</time>
      </trkpt>
      <trkpt lat="44.96157" lon="5.41923">
        <ele>875</ele>
        <time>2022-09-22T10:11:50.558Z</time>
      </trkpt>
      <trkpt lat="44.96153" lon="5.41919">
        <ele>875</ele>
        <time>2022-09-22T10:11:51.558Z</time>
      </trkpt>
      <trkpt lat="44.9615" lon="5.41914">
        <ele>875</ele>
        <time>2022-09-22T10:11:52.558Z</time>
      </trkpt>
      <trkpt lat="44.96146" lon="5.41908">
        <ele>875</ele>
        <time>2022-09-22T10:11:53.558Z</time>
      </trkpt>
      <trkpt lat="44.96141" lon="5.41903">
        <ele>875</ele>
        <time>2022-09-22T10:11:54.559Z</time>
      </trkpt>
      <trkpt lat="44.96137" lon="5.41897">
        <ele>875</ele>
        <time>2022-09-22T10:11:55.559Z</time>
      </trkpt>
      <trkpt lat="44.96132" lon="5.41892">
        <ele>874</ele>
        <time>2022-09-22T10:11:56.559Z</time>
      </trkpt>
      <trkpt lat="44.96127" lon="5.41887">
        <ele>874</ele>
        <time>2022-09-22T10:11:57.559Z</time>
      </trkpt>
      <trkpt lat="44.96122" lon="5.41882">
        <ele>874</ele>
        <time>2022-09-22T10:11:58.559Z</time>
      </trkpt>
      <trkpt lat="44.96117" lon="5.41877">
        <ele>874</ele>
        <time>2022-09-22T10:11:59.559Z</time>
      </trkpt>
      <trkpt lat="44.96111" lon="5.41872">
        <ele>873</ele>
        <time>2022-09-22T10:12:00.559Z</time>
      </trkpt>
      <trkpt lat="44.96105" lon="5.41867">
        <ele>873</ele>
        <time>2022-09-22T10:12:01.559Z</time>
      </trkpt>
      <trkpt lat="44.961" lon="5.41862">
        <ele>872</ele>
        <time>2022-09-22T10:12:02.559Z</time>
      </trkpt>
      <trkpt lat="44.96094" lon="5.41857">
        <ele>871</ele>
        <time>2022-09-22T10:12:03.559Z</time>
      </trkpt>
      <trkpt lat="44.96088" lon="5.41852">
        <ele>870</ele>
        <time>2022-09-22T10:12:04.558Z</time>
      </trkpt>
      <trkpt lat="44.96083" lon="5.41849">
        <ele>870</ele>
        <time>2022-09-22T10:12:05.559Z</time>
      </trkpt>
      <trkpt lat="44.96077" lon="5.41845">
        <ele>869</ele>
        <time>2022-09-22T10:12:06.558Z</time>
      </trkpt>
      <trkpt lat="44.96072" lon="5.41842">
        <ele>869</ele>
        <time>2022-09-22T10:12:07.559Z</time>
      </trkpt>
      <trkpt lat="44.96067" lon="5.41837">
        <ele>869</ele>
        <time>2022-09-22T10:12:08.558Z</time>
      </trkpt>
      <trkpt lat="44.96063" lon="5.41831">
        <ele>869</ele>
        <time>2022-09-22T10:12:09.559Z</time>
      </trkpt>
      <trkpt lat="44.96062" lon="5.41827">
        <ele>868</ele>
        <time>2022-09-22T10:12:10.558Z</time>
      </trkpt>
      <trkpt lat="44.96061" lon="5.41822">
        <ele>868</ele>
        <time>2022-09-22T10:12:11.559Z</time>
      </trkpt>
      <trkpt lat="44.96061" lon="5.41817">
        <ele>868</ele>
        <time>2022-09-22T10:12:12.559Z</time>
      </trkpt>
      <trkpt lat="44.96062" lon="5.41811">
        <ele>868</ele>
        <time>2022-09-22T10:12:13.558Z</time>
      </trkpt>
      <trkpt lat="44.96063" lon="5.41806">
        <ele>868</ele>
        <time>2022-09-22T10:12:14.559Z</time>
      </trkpt>
      <trkpt lat="44.96064" lon="5.418">
        <ele>869</ele>
        <time>2022-09-22T10:12:15.558Z</time>
      </trkpt>
      <trkpt lat="44.96065" lon="5.41795">
        <ele>869</ele>
        <time>2022-09-22T10:12:16.559Z</time>
      </trkpt>
      <trkpt lat="44.96066" lon="5.4179">
        <ele>869</ele>
        <time>2022-09-22T10:12:17.559Z</time>
      </trkpt>
      <trkpt lat="44.96067" lon="5.41785">
        <ele>869</ele>
        <time>2022-09-22T10:12:18.559Z</time>
      </trkpt>
      <trkpt lat="44.96068" lon="5.4178">
        <ele>869</ele>
        <time>2022-09-22T10:12:19.558Z</time>
      </trkpt>
      <trkpt lat="44.96068" lon="5.41776">
        <ele>869</ele>
        <time>2022-09-22T10:12:20.559Z</time>
      </trkpt>
      <trkpt lat="44.96069" lon="5.41771">
        <ele>869</ele>
        <time>2022-09-22T10:12:21.558Z</time>
      </trkpt>
      <trkpt lat="44.96069" lon="5.41767">
        <ele>869</ele>
        <time>2022-09-22T10:12:22.559Z</time>
      </trkpt>
      <trkpt lat="44.96069" lon="5.41764">
        <ele>869</ele>
        <time>2022-09-22T10:12:23.559Z</time>
      </trkpt>
      <trkpt lat="44.96069" lon="5.4176">
        <ele>868</ele>
        <time>2022-09-22T10:12:24.559Z</time>
      </trkpt>
      <trkpt lat="44.96068" lon="5.41757">
        <ele>868</ele>
        <time>2022-09-22T10:12:25.559Z</time>
      </trkpt>
      <trkpt lat="44.96068" lon="5.41753">
        <ele>868</ele>
        <time>2022-09-22T10:12:26.558Z</time>
      </trkpt>
      <trkpt lat="44.96067" lon="5.4175">
        <ele>868</ele>
        <time>2022-09-22T10:12:27.558Z</time>
      </trkpt>
      <trkpt lat="44.96067" lon="5.41747">
        <ele>868</ele>
        <time>2022-09-22T10:12:28.559Z</time>
      </trkpt>
      <trkpt lat="44.96066" lon="5.41744">
        <ele>868</ele>
        <time>2022-09-22T10:12:29.559Z</time>
      </trkpt>
      <trkpt lat="44.96065" lon="5.41741">
        <ele>868</ele>
        <time>2022-09-22T10:12:30.559Z</time>
      </trkpt>
      <trkpt lat="44.96064" lon="5.41738">
        <ele>868</ele>
        <time>2022-09-22T10:12:31.559Z</time>
      </trkpt>
      <trkpt lat="44.96063" lon="5.41735">
        <ele>868</ele>
        <time>2022-09-22T10:12:32.559Z</time>
      </trkpt>
      <trkpt lat="44.96063" lon="5.41732">
        <ele>868</ele>
        <time>2022-09-22T10:12:33.558Z</time>
      </trkpt>
      <trkpt lat="44.96062" lon="5.41729">
        <ele>869</ele>
        <time>2022-09-22T10:12:34.558Z</time>
      </trkpt>
      <trkpt lat="44.96061" lon="5.41726">
        <ele>869</ele>
        <time>2022-09-22T10:12:35.558Z</time>
      </trkpt>
      <trkpt lat="44.9606" lon="5.41723">
        <ele>869</ele>
        <time>2022-09-22T10:12:36.559Z</time>
      </trkpt>
      <trkpt lat="44.96058" lon="5.41719">
        <ele>869</ele>
        <time>2022-09-22T10:12:37.558Z</time>
      </trkpt>
      <trkpt lat="44.96056" lon="5.41716">
        <ele>869</ele>
        <time>2022-09-22T10:12:38.559Z</time>
      </trkpt>
      <trkpt lat="44.96054" lon="5.41714">
        <ele>869</ele>
        <time>2022-09-22T10:12:39.558Z</time>
      </trkpt>
      <trkpt lat="44.96051" lon="5.41711">
        <ele>869</ele>
        <time>2022-09-22T10:12:40.559Z</time>
      </trkpt>
      <trkpt lat="44.96047" lon="5.41708">
        <ele>868</ele>
        <time>2022-09-22T10:12:41.559Z</time>
      </trkpt>
      <trkpt lat="44.96044" lon="5.41706">
        <ele>868</ele>
        <time>2022-09-22T10:12:42.559Z</time>
      </trkpt>
      <trkpt lat="44.9604" lon="5.41703">
        <ele>868</ele>
        <time>2022-09-22T10:12:43.558Z</time>
      </trkpt>
      <trkpt lat="44.96036" lon="5.41701">
        <ele>868</ele>
        <time>2022-09-22T10:12:44.558Z</time>
      </trkpt>
      <trkpt lat="44.96031" lon="5.41699">
        <ele>868</ele>
        <time>2022-09-22T10:12:45.559Z</time>
      </trkpt>
      <trkpt lat="44.96027" lon="5.41697">
        <ele>868</ele>
        <time>2022-09-22T10:12:46.559Z</time>
      </trkpt>
      <trkpt lat="44.96023" lon="5.41696">
        <ele>867</ele>
        <time>2022-09-22T10:12:47.559Z</time>
      </trkpt>
      <trkpt lat="44.96018" lon="5.41695">
        <ele>867</ele>
        <time>2022-09-22T10:12:48.558Z</time>
      </trkpt>
      <trkpt lat="44.96014" lon="5.41695">
        <ele>867</ele>
        <time>2022-09-22T10:12:49.558Z</time>
      </trkpt>
      <trkpt lat="44.9601" lon="5.41694">
        <ele>866</ele>
        <time>2022-09-22T10:12:50.559Z</time>
      </trkpt>
      <trkpt lat="44.96006" lon="5.41693">
        <ele>866</ele>
        <time>2022-09-22T10:12:51.558Z</time>
      </trkpt>
      <trkpt lat="44.96002" lon="5.41692">
        <ele>866</ele>
        <time>2022-09-22T10:12:52.559Z</time>
      </trkpt>
      <trkpt lat="44.95998" lon="5.41691">
        <ele>866</ele>
        <time>2022-09-22T10:12:53.558Z</time>
      </trkpt>
      <trkpt lat="44.95994" lon="5.4169">
        <ele>866</ele>
        <time>2022-09-22T10:12:54.558Z</time>
      </trkpt>
      <trkpt lat="44.95992" lon="5.41689">
        <ele>867</ele>
        <time>2022-09-22T10:12:55.558Z</time>
      </trkpt>
      <trkpt lat="44.95989" lon="5.41688">
        <ele>867</ele>
        <time>2022-09-22T10:12:56.559Z</time>
      </trkpt>
      <trkpt lat="44.95986" lon="5.41687">
        <ele>867</ele>
        <time>2022-09-22T10:12:57.558Z</time>
      </trkpt>
      <trkpt lat="44.95984" lon="5.41686">
        <ele>867</ele>
        <time>2022-09-22T10:12:58.559Z</time>
      </trkpt>
      <trkpt lat="44.95981" lon="5.41685">
        <ele>867</ele>
        <time>2022-09-22T10:12:59.559Z</time>
      </trkpt>
      <trkpt lat="44.95979" lon="5.41684">
        <ele>867</ele>
        <time>2022-09-22T10:13:00.559Z</time>
      </trkpt>
      <trkpt lat="44.95977" lon="5.41683">
        <ele>867</ele>
        <time>2022-09-22T10:13:01.558Z</time>
      </trkpt>
      <trkpt lat="44.95974" lon="5.41682">
        <ele>867</ele>
        <time>2022-09-22T10:13:02.558Z</time>
      </trkpt>
      <trkpt lat="44.95972" lon="5.41682">
        <ele>867</ele>
        <time>2022-09-22T10:13:03.559Z</time>
      </trkpt>
      <trkpt lat="44.95969" lon="5.41681">
        <ele>867</ele>
        <time>2022-09-22T10:13:04.559Z</time>
      </trkpt>
      <trkpt lat="44.95967" lon="5.4168">
        <ele>868</ele>
        <time>2022-09-22T10:13:05.559Z</time>
      </trkpt>
      <trkpt lat="44.95964" lon="5.41679">
        <ele>868</ele>
        <time>2022-09-22T10:13:06.559Z</time>
      </trkpt>
      <trkpt lat="44.95962" lon="5.41678">
        <ele>868</ele>
        <time>2022-09-22T10:13:07.559Z</time>
      </trkpt>
      <trkpt lat="44.9596" lon="5.41676">
        <ele>867</ele>
        <time>2022-09-22T10:13:08.558Z</time>
      </trkpt>
      <trkpt lat="44.95958" lon="5.41674">
        <ele>868</ele>
        <time>2022-09-22T10:13:09.559Z</time>
      </trkpt>
      <trkpt lat="44.95957" lon="5.41671">
        <ele>868</ele>
        <time>2022-09-22T10:13:10.559Z</time>
      </trkpt>
      <trkpt lat="44.95956" lon="5.41668">
        <ele>868</ele>
        <time>2022-09-22T10:13:11.559Z</time>
      </trkpt>
      <trkpt lat="44.95956" lon="5.41665">
        <ele>868</ele>
        <time>2022-09-22T10:13:12.559Z</time>
      </trkpt>
      <trkpt lat="44.95957" lon="5.41662">
        <ele>868</ele>
        <time>2022-09-22T10:13:13.559Z</time>
      </trkpt>
      <trkpt lat="44.95957" lon="5.41658">
        <ele>868</ele>
        <time>2022-09-22T10:13:14.559Z</time>
      </trkpt>
      <trkpt lat="44.95958" lon="5.41655">
        <ele>867</ele>
        <time>2022-09-22T10:13:15.559Z</time>
      </trkpt>
      <trkpt lat="44.95959" lon="5.41652">
        <ele>867</ele>
        <time>2022-09-22T10:13:16.559Z</time>
      </trkpt>
      <trkpt lat="44.9596" lon="5.41649">
        <ele>867</ele>
        <time>2022-09-22T10:13:17.559Z</time>
      </trkpt>
      <trkpt lat="44.95961" lon="5.41646">
        <ele>867</ele>
        <time>2022-09-22T10:13:18.559Z</time>
      </trkpt>
      <trkpt lat="44.95962" lon="5.41642">
        <ele>868</ele>
        <time>2022-09-22T10:13:19.558Z</time>
      </trkpt>
      <trkpt lat="44.95963" lon="5.41639">
        <ele>868</ele>
        <time>2022-09-22T10:13:20.559Z</time>
      </trkpt>
      <trkpt lat="44.95964" lon="5.41636">
        <ele>868</ele>
        <time>2022-09-22T10:13:21.558Z</time>
      </trkpt>
      <trkpt lat="44.95966" lon="5.41633">
        <ele>868</ele>
        <time>2022-09-22T10:13:22.559Z</time>
      </trkpt>
      <trkpt lat="44.95967" lon="5.41629">
        <ele>869</ele>
        <time>2022-09-22T10:13:23.558Z</time>
      </trkpt>
      <trkpt lat="44.95968" lon="5.41626">
        <ele>869</ele>
        <time>2022-09-22T10:13:24.559Z</time>
      </trkpt>
      <trkpt lat="44.95969" lon="5.41622">
        <ele>869</ele>
        <time>2022-09-22T10:13:25.559Z</time>
      </trkpt>
      <trkpt lat="44.9597" lon="5.41618">
        <ele>869</ele>
        <time>2022-09-22T10:13:26.559Z</time>
      </trkpt>
      <trkpt lat="44.95972" lon="5.41615">
        <ele>869</ele>
        <time>2022-09-22T10:13:27.559Z</time>
      </trkpt>
      <trkpt lat="44.95973" lon="5.41612">
        <ele>869</ele>
        <time>2022-09-22T10:13:28.559Z</time>
      </trkpt>
      <trkpt lat="44.95974" lon="5.41609">
        <ele>870</ele>
        <time>2022-09-22T10:13:29.559Z</time>
      </trkpt>
      <trkpt lat="44.95976" lon="5.41605">
        <ele>870</ele>
        <time>2022-09-22T10:13:30.559Z</time>
      </trkpt>
      <trkpt lat="44.95977" lon="5.41602">
        <ele>870</ele>
        <time>2022-09-22T10:13:31.559Z</time>
      </trkpt>
      <trkpt lat="44.95978" lon="5.41599">
        <ele>870</ele>
        <time>2022-09-22T10:13:32.559Z</time>
      </trkpt>
      <trkpt lat="44.95979" lon="5.41596">
        <ele>871</ele>
        <time>2022-09-22T10:13:33.559Z</time>
      </trkpt>
      <trkpt lat="44.9598" lon="5.41592">
        <ele>871</ele>
        <time>2022-09-22T10:13:34.558Z</time>
      </trkpt>
      <trkpt lat="44.9598" lon="5.41589">
        <ele>871</ele>
        <time>2022-09-22T10:13:35.559Z</time>
      </trkpt>
      <trkpt lat="44.95981" lon="5.41585">
        <ele>871</ele>
        <time>2022-09-22T10:13:36.559Z</time>
      </trkpt>
      <trkpt lat="44.95981" lon="5.41581">
        <ele>871</ele>
        <time>2022-09-22T10:13:37.558Z</time>
      </trkpt>
      <trkpt lat="44.95982" lon="5.41576">
        <ele>872</ele>
        <time>2022-09-22T10:13:38.559Z</time>
      </trkpt>
      <trkpt lat="44.95982" lon="5.41572">
        <ele>872</ele>
        <time>2022-09-22T10:13:39.558Z</time>
      </trkpt>
      <trkpt lat="44.95982" lon="5.41567">
        <ele>872</ele>
        <time>2022-09-22T10:13:40.559Z</time>
      </trkpt>
      <trkpt lat="44.95982" lon="5.41562">
        <ele>872</ele>
        <time>2022-09-22T10:13:41.559Z</time>
      </trkpt>
      <trkpt lat="44.95982" lon="5.41557">
        <ele>872</ele>
        <time>2022-09-22T10:13:42.558Z</time>
      </trkpt>
      <trkpt lat="44.95982" lon="5.41553">
        <ele>872</ele>
        <time>2022-09-22T10:13:43.559Z</time>
      </trkpt>
      <trkpt lat="44.95981" lon="5.41547">
        <ele>872</ele>
        <time>2022-09-22T10:13:44.559Z</time>
      </trkpt>
      <trkpt lat="44.9598" lon="5.41541">
        <ele>872</ele>
        <time>2022-09-22T10:13:45.559Z</time>
      </trkpt>
      <trkpt lat="44.95979" lon="5.41536">
        <ele>871</ele>
        <time>2022-09-22T10:13:46.559Z</time>
      </trkpt>
      <trkpt lat="44.95978" lon="5.4153">
        <ele>871</ele>
        <time>2022-09-22T10:13:47.559Z</time>
      </trkpt>
      <trkpt lat="44.95977" lon="5.41524">
        <ele>871</ele>
        <time>2022-09-22T10:13:48.559Z</time>
      </trkpt>
      <trkpt lat="44.95975" lon="5.41518">
        <ele>870</ele>
        <time>2022-09-22T10:13:49.558Z</time>
      </trkpt>
      <trkpt lat="44.95975" lon="5.41512">
        <ele>870</ele>
        <time>2022-09-22T10:13:50.559Z</time>
      </trkpt>
      <trkpt lat="44.95974" lon="5.41505">
        <ele>870</ele>
        <time>2022-09-22T10:13:51.558Z</time>
      </trkpt>
      <trkpt lat="44.95973" lon="5.41499">
        <ele>869</ele>
        <time>2022-09-22T10:13:52.559Z</time>
      </trkpt>
      <trkpt lat="44.95973" lon="5.41493">
        <ele>869</ele>
        <time>2022-09-22T10:13:53.559Z</time>
      </trkpt>
      <trkpt lat="44.95972" lon="5.41487">
        <ele>869</ele>
        <time>2022-09-22T10:13:54.559Z</time>
      </trkpt>
      <trkpt lat="44.95972" lon="5.41481">
        <ele>868</ele>
        <time>2022-09-22T10:13:55.558Z</time>
      </trkpt>
      <trkpt lat="44.95971" lon="5.41475">
        <ele>868</ele>
        <time>2022-09-22T10:13:56.559Z</time>
      </trkpt>
      <trkpt lat="44.95971" lon="5.41469">
        <ele>867</ele>
        <time>2022-09-22T10:13:57.559Z</time>
      </trkpt>
      <trkpt lat="44.95971" lon="5.41463">
        <ele>867</ele>
        <time>2022-09-22T10:13:58.559Z</time>
      </trkpt>
      <trkpt lat="44.9597" lon="5.41457">
        <ele>866</ele>
        <time>2022-09-22T10:13:59.558Z</time>
      </trkpt>
      <trkpt lat="44.9597" lon="5.41451">
        <ele>866</ele>
        <time>2022-09-22T10:14:00.559Z</time>
      </trkpt>
      <trkpt lat="44.95969" lon="5.41444">
        <ele>866</ele>
        <time>2022-09-22T10:14:01.558Z</time>
      </trkpt>
      <trkpt lat="44.95969" lon="5.41437">
        <ele>866</ele>
        <time>2022-09-22T10:14:02.558Z</time>
      </trkpt>
      <trkpt lat="44.95969" lon="5.4143">
        <ele>866</ele>
        <time>2022-09-22T10:14:03.559Z</time>
      </trkpt>
      <trkpt lat="44.95968" lon="5.41423">
        <ele>866</ele>
        <time>2022-09-22T10:14:04.559Z</time>
      </trkpt>
      <trkpt lat="44.95968" lon="5.41417">
        <ele>866</ele>
        <time>2022-09-22T10:14:05.558Z</time>
      </trkpt>
      <trkpt lat="44.95967" lon="5.4141">
        <ele>866</ele>
        <time>2022-09-22T10:14:06.559Z</time>
      </trkpt>
      <trkpt lat="44.95966" lon="5.41403">
        <ele>866</ele>
        <time>2022-09-22T10:14:07.559Z</time>
      </trkpt>
      <trkpt lat="44.95965" lon="5.41397">
        <ele>865</ele>
        <time>2022-09-22T10:14:08.559Z</time>
      </trkpt>
      <trkpt lat="44.95963" lon="5.41391">
        <ele>865</ele>
        <time>2022-09-22T10:14:09.559Z</time>
      </trkpt>
      <trkpt lat="44.95961" lon="5.41385">
        <ele>865</ele>
        <time>2022-09-22T10:14:10.559Z</time>
      </trkpt>
      <trkpt lat="44.95959" lon="5.41379">
        <ele>865</ele>
        <time>2022-09-22T10:14:11.559Z</time>
      </trkpt>
      <trkpt lat="44.95957" lon="5.41374">
        <ele>865</ele>
        <time>2022-09-22T10:14:12.559Z</time>
      </trkpt>
      <trkpt lat="44.95955" lon="5.4137">
        <ele>865</ele>
        <time>2022-09-22T10:14:13.559Z</time>
      </trkpt>
      <trkpt lat="44.95953" lon="5.41365">
        <ele>865</ele>
        <time>2022-09-22T10:14:14.559Z</time>
      </trkpt>
      <trkpt lat="44.95951" lon="5.41361">
        <ele>865</ele>
        <time>2022-09-22T10:14:15.558Z</time>
      </trkpt>
      <trkpt lat="44.9595" lon="5.41357">
        <ele>865</ele>
        <time>2022-09-22T10:14:16.559Z</time>
      </trkpt>
      <trkpt lat="44.95948" lon="5.41352">
        <ele>865</ele>
        <time>2022-09-22T10:14:17.559Z</time>
      </trkpt>
      <trkpt lat="44.95947" lon="5.41347">
        <ele>865</ele>
        <time>2022-09-22T10:14:18.559Z</time>
      </trkpt>
      <trkpt lat="44.95945" lon="5.41342">
        <ele>865</ele>
        <time>2022-09-22T10:14:19.559Z</time>
      </trkpt>
      <trkpt lat="44.95944" lon="5.41336">
        <ele>865</ele>
        <time>2022-09-22T10:14:20.559Z</time>
      </trkpt>
      <trkpt lat="44.95943" lon="5.4133">
        <ele>865</ele>
        <time>2022-09-22T10:14:21.558Z</time>
      </trkpt>
      <trkpt lat="44.95942" lon="5.41325">
        <ele>865</ele>
        <time>2022-09-22T10:14:22.559Z</time>
      </trkpt>
      <trkpt lat="44.95942" lon="5.41319">
        <ele>865</ele>
        <time>2022-09-22T10:14:23.559Z</time>
      </trkpt>
      <trkpt lat="44.95941" lon="5.41313">
        <ele>865</ele>
        <time>2022-09-22T10:14:24.559Z</time>
      </trkpt>
      <trkpt lat="44.95939" lon="5.41307">
        <ele>865</ele>
        <time>2022-09-22T10:14:25.559Z</time>
      </trkpt>
      <trkpt lat="44.95936" lon="5.41301">
        <ele>865</ele>
        <time>2022-09-22T10:14:26.559Z</time>
      </trkpt>
      <trkpt lat="44.95933" lon="5.41294">
        <ele>865</ele>
        <time>2022-09-22T10:14:27.559Z</time>
      </trkpt>
      <trkpt lat="44.9593" lon="5.41287">
        <ele>865</ele>
        <time>2022-09-22T10:14:28.559Z</time>
      </trkpt>
      <trkpt lat="44.95927" lon="5.41279">
        <ele>865</ele>
        <time>2022-09-22T10:14:29.558Z</time>
      </trkpt>
      <trkpt lat="44.95923" lon="5.41271">
        <ele>865</ele>
        <time>2022-09-22T10:14:30.558Z</time>
      </trkpt>
      <trkpt lat="44.9592" lon="5.41263">
        <ele>865</ele>
        <time>2022-09-22T10:14:31.559Z</time>
      </trkpt>
      <trkpt lat="44.95918" lon="5.41254">
        <ele>865</ele>
        <time>2022-09-22T10:14:32.559Z</time>
      </trkpt>
      <trkpt lat="44.95916" lon="5.41245">
        <ele>864</ele>
        <time>2022-09-22T10:14:33.559Z</time>
      </trkpt>
      <trkpt lat="44.95916" lon="5.41236">
        <ele>864</ele>
        <time>2022-09-22T10:14:34.558Z</time>
      </trkpt>
      <trkpt lat="44.95916" lon="5.41228">
        <ele>864</ele>
        <time>2022-09-22T10:14:35.559Z</time>
      </trkpt>
      <trkpt lat="44.95916" lon="5.41219">
        <ele>864</ele>
        <time>2022-09-22T10:14:36.558Z</time>
      </trkpt>
      <trkpt lat="44.95917" lon="5.41211">
        <ele>864</ele>
        <time>2022-09-22T10:14:37.558Z</time>
      </trkpt>
      <trkpt lat="44.95918" lon="5.41203">
        <ele>863</ele>
        <time>2022-09-22T10:14:38.559Z</time>
      </trkpt>
      <trkpt lat="44.95918" lon="5.41195">
        <ele>863</ele>
        <time>2022-09-22T10:14:39.559Z</time>
      </trkpt>
      <trkpt lat="44.95918" lon="5.41188">
        <ele>863</ele>
        <time>2022-09-22T10:14:40.558Z</time>
      </trkpt>
      <trkpt lat="44.95919" lon="5.4118">
        <ele>863</ele>
        <time>2022-09-22T10:14:41.559Z</time>
      </trkpt>
      <trkpt lat="44.95919" lon="5.41173">
        <ele>863</ele>
        <time>2022-09-22T10:14:42.559Z</time>
      </trkpt>
      <trkpt lat="44.95919" lon="5.41166">
        <ele>863</ele>
        <time>2022-09-22T10:14:43.558Z</time>
      </trkpt>
      <trkpt lat="44.9592" lon="5.41159">
        <ele>862</ele>
        <time>2022-09-22T10:14:44.559Z</time>
      </trkpt>
      <trkpt lat="44.95921" lon="5.41153">
        <ele>862</ele>
        <time>2022-09-22T10:14:45.559Z</time>
      </trkpt>
      <trkpt lat="44.95922" lon="5.41148">
        <ele>862</ele>
        <time>2022-09-22T10:14:46.558Z</time>
      </trkpt>
      <trkpt lat="44.95924" lon="5.41142">
        <ele>862</ele>
        <time>2022-09-22T10:14:47.559Z</time>
      </trkpt>
      <trkpt lat="44.95926" lon="5.41138">
        <ele>862</ele>
        <time>2022-09-22T10:14:48.559Z</time>
      </trkpt>
      <trkpt lat="44.95929" lon="5.41133">
        <ele>862</ele>
        <time>2022-09-22T10:14:49.559Z</time>
      </trkpt>
      <trkpt lat="44.95931" lon="5.41128">
        <ele>862</ele>
        <time>2022-09-22T10:14:50.559Z</time>
      </trkpt>
      <trkpt lat="44.95935" lon="5.41123">
        <ele>862</ele>
        <time>2022-09-22T10:14:51.558Z</time>
      </trkpt>
      <trkpt lat="44.95938" lon="5.41118">
        <ele>862</ele>
        <time>2022-09-22T10:14:52.558Z</time>
      </trkpt>
      <trkpt lat="44.95941" lon="5.41115">
        <ele>862</ele>
        <time>2022-09-22T10:14:53.559Z</time>
      </trkpt>
      <trkpt lat="44.95944" lon="5.41112">
        <ele>862</ele>
        <time>2022-09-22T10:14:54.559Z</time>
      </trkpt>
      <trkpt lat="44.95947" lon="5.4111">
        <ele>862</ele>
        <time>2022-09-22T10:14:55.559Z</time>
      </trkpt>
      <trkpt lat="44.9595" lon="5.41109">
        <ele>862</ele>
        <time>2022-09-22T10:14:56.559Z</time>
      </trkpt>
      <trkpt lat="44.95952" lon="5.41108">
        <ele>862</ele>
        <time>2022-09-22T10:14:57.559Z</time>
      </trkpt>
      <trkpt lat="44.95955" lon="5.41107">
        <ele>862</ele>
        <time>2022-09-22T10:14:58.559Z</time>
      </trkpt>
      <trkpt lat="44.95957" lon="5.41106">
        <ele>863</ele>
        <time>2022-09-22T10:14:59.558Z</time>
      </trkpt>
      <trkpt lat="44.95959" lon="5.41105">
        <ele>863</ele>
        <time>2022-09-22T10:15:00.559Z</time>
      </trkpt>
      <trkpt lat="44.95962" lon="5.41104">
        <ele>863</ele>
        <time>2022-09-22T10:15:01.559Z</time>
      </trkpt>
      <trkpt lat="44.95965" lon="5.41104">
        <ele>863</ele>
        <time>2022-09-22T10:15:02.558Z</time>
      </trkpt>
      <trkpt lat="44.95968" lon="5.41103">
        <ele>863</ele>
        <time>2022-09-22T10:15:03.559Z</time>
      </trkpt>
      <trkpt lat="44.95972" lon="5.41101">
        <ele>863</ele>
        <time>2022-09-22T10:15:04.558Z</time>
      </trkpt>
      <trkpt lat="44.95975" lon="5.41099">
        <ele>862</ele>
        <time>2022-09-22T10:15:05.559Z</time>
      </trkpt>
      <trkpt lat="44.95978" lon="5.41097">
        <ele>862</ele>
        <time>2022-09-22T10:15:06.559Z</time>
      </trkpt>
      <trkpt lat="44.95981" lon="5.41095">
        <ele>862</ele>
        <time>2022-09-22T10:15:07.558Z</time>
      </trkpt>
      <trkpt lat="44.95985" lon="5.41092">
        <ele>861</ele>
        <time>2022-09-22T10:15:08.559Z</time>
      </trkpt>
      <trkpt lat="44.95988" lon="5.4109">
        <ele>861</ele>
        <time>2022-09-22T10:15:09.559Z</time>
      </trkpt>
      <trkpt lat="44.95991" lon="5.41088">
        <ele>861</ele>
        <time>2022-09-22T10:15:10.559Z</time>
      </trkpt>
      <trkpt lat="44.95994" lon="5.41085">
        <ele>861</ele>
        <time>2022-09-22T10:15:11.558Z</time>
      </trkpt>
      <trkpt lat="44.95997" lon="5.41083">
        <ele>861</ele>
        <time>2022-09-22T10:15:12.559Z</time>
      </trkpt>
      <trkpt lat="44.96" lon="5.4108">
        <ele>862</ele>
        <time>2022-09-22T10:15:13.558Z</time>
      </trkpt>
      <trkpt lat="44.96003" lon="5.41078">
        <ele>862</ele>
        <time>2022-09-22T10:15:14.558Z</time>
      </trkpt>
      <trkpt lat="44.96006" lon="5.41075">
        <ele>862</ele>
        <time>2022-09-22T10:15:15.559Z</time>
      </trkpt>
      <trkpt lat="44.96009" lon="5.41072">
        <ele>862</ele>
        <time>2022-09-22T10:15:16.559Z</time>
      </trkpt>
      <trkpt lat="44.96012" lon="5.41068">
        <ele>862</ele>
        <time>2022-09-22T10:15:17.559Z</time>
      </trkpt>
      <trkpt lat="44.96014" lon="5.41065">
        <ele>862</ele>
        <time>2022-09-22T10:15:18.558Z</time>
      </trkpt>
      <trkpt lat="44.96016" lon="5.4106">
        <ele>862</ele>
        <time>2022-09-22T10:15:19.559Z</time>
      </trkpt>
      <trkpt lat="44.96019" lon="5.41056">
        <ele>862</ele>
        <time>2022-09-22T10:15:20.558Z</time>
      </trkpt>
      <trkpt lat="44.96021" lon="5.41051">
        <ele>862</ele>
        <time>2022-09-22T10:15:21.559Z</time>
      </trkpt>
      <trkpt lat="44.96023" lon="5.41045">
        <ele>862</ele>
        <time>2022-09-22T10:15:22.559Z</time>
      </trkpt>
      <trkpt lat="44.96026" lon="5.41039">
        <ele>861</ele>
        <time>2022-09-22T10:15:23.559Z</time>
      </trkpt>
      <trkpt lat="44.96027" lon="5.41032">
        <ele>861</ele>
        <time>2022-09-22T10:15:24.559Z</time>
      </trkpt>
      <trkpt lat="44.96028" lon="5.41026">
        <ele>861</ele>
        <time>2022-09-22T10:15:25.558Z</time>
      </trkpt>
      <trkpt lat="44.9603" lon="5.4102">
        <ele>861</ele>
        <time>2022-09-22T10:15:26.559Z</time>
      </trkpt>
      <trkpt lat="44.9603" lon="5.41014">
        <ele>861</ele>
        <time>2022-09-22T10:15:27.559Z</time>
      </trkpt>
      <trkpt lat="44.96031" lon="5.41007">
        <ele>861</ele>
        <time>2022-09-22T10:15:28.559Z</time>
      </trkpt>
      <trkpt lat="44.96032" lon="5.41001">
        <ele>861</ele>
        <time>2022-09-22T10:15:29.558Z</time>
      </trkpt>
      <trkpt lat="44.96033" lon="5.40995">
        <ele>861</ele>
        <time>2022-09-22T10:15:30.558Z</time>
      </trkpt>
      <trkpt lat="44.96034" lon="5.4099">
        <ele>861</ele>
        <time>2022-09-22T10:15:31.558Z</time>
      </trkpt>
      <trkpt lat="44.96035" lon="5.40984">
        <ele>861</ele>
        <time>2022-09-22T10:15:32.558Z</time>
      </trkpt>
      <trkpt lat="44.96037" lon="5.40979">
        <ele>861</ele>
        <time>2022-09-22T10:15:33.559Z</time>
      </trkpt>
      <trkpt lat="44.96038" lon="5.40974">
        <ele>861</ele>
        <time>2022-09-22T10:15:34.558Z</time>
      </trkpt>
      <trkpt lat="44.9604" lon="5.40969">
        <ele>861</ele>
        <time>2022-09-22T10:15:35.559Z</time>
      </trkpt>
      <trkpt lat="44.96041" lon="5.40964">
        <ele>860</ele>
        <time>2022-09-22T10:15:36.559Z</time>
      </trkpt>
      <trkpt lat="44.96043" lon="5.40959">
        <ele>860</ele>
        <time>2022-09-22T10:15:37.559Z</time>
      </trkpt>
      <trkpt lat="44.96044" lon="5.40954">
        <ele>860</ele>
        <time>2022-09-22T10:15:38.558Z</time>
      </trkpt>
      <trkpt lat="44.96046" lon="5.40949">
        <ele>860</ele>
        <time>2022-09-22T10:15:39.558Z</time>
      </trkpt>
      <trkpt lat="44.96047" lon="5.40944">
        <ele>859</ele>
        <time>2022-09-22T10:15:40.559Z</time>
      </trkpt>
      <trkpt lat="44.96049" lon="5.40938">
        <ele>859</ele>
        <time>2022-09-22T10:15:41.559Z</time>
      </trkpt>
      <trkpt lat="44.96051" lon="5.40933">
        <ele>859</ele>
        <time>2022-09-22T10:15:42.559Z</time>
      </trkpt>
      <trkpt lat="44.96052" lon="5.40928">
        <ele>859</ele>
        <time>2022-09-22T10:15:43.558Z</time>
      </trkpt>
      <trkpt lat="44.96054" lon="5.40924">
        <ele>859</ele>
        <time>2022-09-22T10:15:44.558Z</time>
      </trkpt>
      <trkpt lat="44.96055" lon="5.4092">
        <ele>859</ele>
        <time>2022-09-22T10:15:45.559Z</time>
      </trkpt>
      <trkpt lat="44.96056" lon="5.40917">
        <ele>859</ele>
        <time>2022-09-22T10:15:46.559Z</time>
      </trkpt>
      <trkpt lat="44.96056" lon="5.40914">
        <ele>859</ele>
        <time>2022-09-22T10:15:47.559Z</time>
      </trkpt>
      <trkpt lat="44.96056" lon="5.4091">
        <ele>859</ele>
        <time>2022-09-22T10:15:48.559Z</time>
      </trkpt>
      <trkpt lat="44.96055" lon="5.40907">
        <ele>859</ele>
        <time>2022-09-22T10:15:49.559Z</time>
      </trkpt>
      <trkpt lat="44.96054" lon="5.40904">
        <ele>859</ele>
        <time>2022-09-22T10:15:50.559Z</time>
      </trkpt>
      <trkpt lat="44.96053" lon="5.409">
        <ele>859</ele>
        <time>2022-09-22T10:15:51.559Z</time>
      </trkpt>
      <trkpt lat="44.96053" lon="5.40896">
        <ele>858</ele>
        <time>2022-09-22T10:15:52.559Z</time>
      </trkpt>
      <trkpt lat="44.96054" lon="5.40891">
        <ele>858</ele>
        <time>2022-09-22T10:15:53.559Z</time>
      </trkpt>
      <trkpt lat="44.96055" lon="5.40884">
        <ele>858</ele>
        <time>2022-09-22T10:15:54.559Z</time>
      </trkpt>
      <trkpt lat="44.96057" lon="5.40877">
        <ele>857</ele>
        <time>2022-09-22T10:15:55.558Z</time>
      </trkpt>
      <trkpt lat="44.96058" lon="5.4087">
        <ele>857</ele>
        <time>2022-09-22T10:15:56.559Z</time>
      </trkpt>
      <trkpt lat="44.96061" lon="5.40862">
        <ele>857</ele>
        <time>2022-09-22T10:15:57.559Z</time>
      </trkpt>
      <trkpt lat="44.96063" lon="5.40855">
        <ele>857</ele>
        <time>2022-09-22T10:15:58.558Z</time>
      </trkpt>
      <trkpt lat="44.96065" lon="5.40848">
        <ele>856</ele>
        <time>2022-09-22T10:15:59.558Z</time>
      </trkpt>
      <trkpt lat="44.96067" lon="5.40842">
        <ele>856</ele>
        <time>2022-09-22T10:16:00.559Z</time>
      </trkpt>
      <trkpt lat="44.96069" lon="5.40835">
        <ele>856</ele>
        <time>2022-09-22T10:16:01.558Z</time>
      </trkpt>
      <trkpt lat="44.96071" lon="5.40829">
        <ele>856</ele>
        <time>2022-09-22T10:16:02.559Z</time>
      </trkpt>
      <trkpt lat="44.96073" lon="5.40823">
        <ele>856</ele>
        <time>2022-09-22T10:16:03.558Z</time>
      </trkpt>
      <trkpt lat="44.96075" lon="5.40816">
        <ele>856</ele>
        <time>2022-09-22T10:16:04.559Z</time>
      </trkpt>
      <trkpt lat="44.96076" lon="5.4081">
        <ele>856</ele>
        <time>2022-09-22T10:16:05.559Z</time>
      </trkpt>
      <trkpt lat="44.96078" lon="5.40804">
        <ele>857</ele>
        <time>2022-09-22T10:16:06.559Z</time>
      </trkpt>
      <trkpt lat="44.9608" lon="5.40797">
        <ele>857</ele>
        <time>2022-09-22T10:16:07.559Z</time>
      </trkpt>
      <trkpt lat="44.96082" lon="5.40791">
        <ele>857</ele>
        <time>2022-09-22T10:16:08.559Z</time>
      </trkpt>
      <trkpt lat="44.96083" lon="5.40785">
        <ele>857</ele>
        <time>2022-09-22T10:16:09.559Z</time>
      </trkpt>
      <trkpt lat="44.96085" lon="5.40779">
        <ele>857</ele>
        <time>2022-09-22T10:16:10.559Z</time>
      </trkpt>
      <trkpt lat="44.96087" lon="5.40773">
        <ele>857</ele>
        <time>2022-09-22T10:16:11.559Z</time>
      </trkpt>
      <trkpt lat="44.96088" lon="5.40767">
        <ele>857</ele>
        <time>2022-09-22T10:16:12.558Z</time>
      </trkpt>
      <trkpt lat="44.9609" lon="5.40762">
        <ele>857</ele>
        <time>2022-09-22T10:16:13.558Z</time>
      </trkpt>
      <trkpt lat="44.96091" lon="5.40756">
        <ele>856</ele>
        <time>2022-09-22T10:16:14.558Z</time>
      </trkpt>
      <trkpt lat="44.96093" lon="5.4075">
        <ele>856</ele>
        <time>2022-09-22T10:16:15.558Z</time>
      </trkpt>
      <trkpt lat="44.96095" lon="5.40744">
        <ele>856</ele>
        <time>2022-09-22T10:16:16.559Z</time>
      </trkpt>
      <trkpt lat="44.96096" lon="5.40739">
        <ele>856</ele>
        <time>2022-09-22T10:16:17.559Z</time>
      </trkpt>
      <trkpt lat="44.96097" lon="5.40734">
        <ele>856</ele>
        <time>2022-09-22T10:16:18.558Z</time>
      </trkpt>
      <trkpt lat="44.96099" lon="5.40728">
        <ele>856</ele>
        <time>2022-09-22T10:16:19.559Z</time>
      </trkpt>
      <trkpt lat="44.961" lon="5.40723">
        <ele>856</ele>
        <time>2022-09-22T10:16:20.559Z</time>
      </trkpt>
      <trkpt lat="44.96101" lon="5.40717">
        <ele>856</ele>
        <time>2022-09-22T10:16:21.559Z</time>
      </trkpt>
      <trkpt lat="44.96103" lon="5.40711">
        <ele>856</ele>
        <time>2022-09-22T10:16:22.559Z</time>
      </trkpt>
      <trkpt lat="44.96104" lon="5.40706">
        <ele>856</ele>
        <time>2022-09-22T10:16:23.559Z</time>
      </trkpt>
      <trkpt lat="44.96106" lon="5.40701">
        <ele>856</ele>
        <time>2022-09-22T10:16:24.558Z</time>
      </trkpt>
      <trkpt lat="44.96107" lon="5.40696">
        <ele>856</ele>
        <time>2022-09-22T10:16:25.558Z</time>
      </trkpt>
      <trkpt lat="44.96108" lon="5.40691">
        <ele>856</ele>
        <time>2022-09-22T10:16:26.558Z</time>
      </trkpt>
      <trkpt lat="44.9611" lon="5.40686">
        <ele>856</ele>
        <time>2022-09-22T10:16:27.559Z</time>
      </trkpt>
      <trkpt lat="44.96111" lon="5.40681">
        <ele>855</ele>
        <time>2022-09-22T10:16:28.559Z</time>
      </trkpt>
      <trkpt lat="44.96112" lon="5.40676">
        <ele>855</ele>
        <time>2022-09-22T10:16:29.559Z</time>
      </trkpt>
      <trkpt lat="44.96114" lon="5.4067">
        <ele>855</ele>
        <time>2022-09-22T10:16:30.559Z</time>
      </trkpt>
      <trkpt lat="44.96115" lon="5.40665">
        <ele>855</ele>
        <time>2022-09-22T10:16:31.559Z</time>
      </trkpt>
      <trkpt lat="44.96117" lon="5.4066">
        <ele>855</ele>
        <time>2022-09-22T10:16:32.559Z</time>
      </trkpt>
      <trkpt lat="44.96118" lon="5.40655">
        <ele>854</ele>
        <time>2022-09-22T10:16:33.559Z</time>
      </trkpt>
      <trkpt lat="44.96119" lon="5.4065">
        <ele>854</ele>
        <time>2022-09-22T10:16:34.558Z</time>
      </trkpt>
      <trkpt lat="44.9612" lon="5.40644">
        <ele>854</ele>
        <time>2022-09-22T10:16:35.559Z</time>
      </trkpt>
      <trkpt lat="44.96121" lon="5.40639">
        <ele>854</ele>
        <time>2022-09-22T10:16:36.559Z</time>
      </trkpt>
      <trkpt lat="44.96122" lon="5.40635">
        <ele>855</ele>
        <time>2022-09-22T10:16:37.558Z</time>
      </trkpt>
      <trkpt lat="44.96123" lon="5.4063">
        <ele>855</ele>
        <time>2022-09-22T10:16:38.559Z</time>
      </trkpt>
      <trkpt lat="44.96124" lon="5.40625">
        <ele>855</ele>
        <time>2022-09-22T10:16:39.559Z</time>
      </trkpt>
      <trkpt lat="44.96124" lon="5.40621">
        <ele>855</ele>
        <time>2022-09-22T10:16:40.559Z</time>
      </trkpt>
      <trkpt lat="44.96125" lon="5.40617">
        <ele>855</ele>
        <time>2022-09-22T10:16:41.558Z</time>
      </trkpt>
      <trkpt lat="44.96125" lon="5.40612">
        <ele>855</ele>
        <time>2022-09-22T10:16:42.558Z</time>
      </trkpt>
      <trkpt lat="44.96126" lon="5.40608">
        <ele>855</ele>
        <time>2022-09-22T10:16:43.559Z</time>
      </trkpt>
      <trkpt lat="44.96125" lon="5.40604">
        <ele>854</ele>
        <time>2022-09-22T10:16:44.559Z</time>
      </trkpt>
      <trkpt lat="44.96125" lon="5.40601">
        <ele>854</ele>
        <time>2022-09-22T10:16:45.559Z</time>
      </trkpt>
      <trkpt lat="44.96124" lon="5.40598">
        <ele>854</ele>
        <time>2022-09-22T10:16:46.559Z</time>
      </trkpt>
      <trkpt lat="44.96124" lon="5.40595">
        <ele>854</ele>
        <time>2022-09-22T10:16:47.559Z</time>
      </trkpt>
      <trkpt lat="44.96124" lon="5.40592">
        <ele>854</ele>
        <time>2022-09-22T10:16:48.559Z</time>
      </trkpt>
      <trkpt lat="44.96124" lon="5.40589">
        <ele>854</ele>
        <time>2022-09-22T10:16:49.559Z</time>
      </trkpt>
      <trkpt lat="44.96124" lon="5.40585">
        <ele>854</ele>
        <time>2022-09-22T10:16:50.559Z</time>
      </trkpt>
      <trkpt lat="44.96124" lon="5.40582">
        <ele>855</ele>
        <time>2022-09-22T10:16:51.558Z</time>
      </trkpt>
      <trkpt lat="44.96124" lon="5.40579">
        <ele>855</ele>
        <time>2022-09-22T10:16:52.559Z</time>
      </trkpt>
      <trkpt lat="44.96124" lon="5.40575">
        <ele>855</ele>
        <time>2022-09-22T10:16:53.559Z</time>
      </trkpt>
      <trkpt lat="44.96124" lon="5.40571">
        <ele>855</ele>
        <time>2022-09-22T10:16:54.558Z</time>
      </trkpt>
      <trkpt lat="44.96125" lon="5.40568">
        <ele>855</ele>
        <time>2022-09-22T10:16:55.559Z</time>
      </trkpt>
      <trkpt lat="44.96125" lon="5.40565">
        <ele>856</ele>
        <time>2022-09-22T10:16:56.559Z</time>
      </trkpt>
      <trkpt lat="44.96125" lon="5.40561">
        <ele>856</ele>
        <time>2022-09-22T10:16:57.558Z</time>
      </trkpt>
      <trkpt lat="44.96125" lon="5.40558">
        <ele>857</ele>
        <time>2022-09-22T10:16:58.558Z</time>
      </trkpt>
      <trkpt lat="44.96126" lon="5.40555">
        <ele>857</ele>
        <time>2022-09-22T10:16:59.558Z</time>
      </trkpt>
      <trkpt lat="44.96126" lon="5.40551">
        <ele>857</ele>
        <time>2022-09-22T10:17:00.558Z</time>
      </trkpt>
      <trkpt lat="44.96126" lon="5.40548">
        <ele>857</ele>
        <time>2022-09-22T10:17:01.558Z</time>
      </trkpt>
      <trkpt lat="44.96126" lon="5.40544">
        <ele>857</ele>
        <time>2022-09-22T10:17:02.559Z</time>
      </trkpt>
      <trkpt lat="44.96126" lon="5.4054">
        <ele>857</ele>
        <time>2022-09-22T10:17:03.559Z</time>
      </trkpt>
      <trkpt lat="44.96125" lon="5.40536">
        <ele>857</ele>
        <time>2022-09-22T10:17:04.558Z</time>
      </trkpt>
      <trkpt lat="44.96125" lon="5.40532">
        <ele>856</ele>
        <time>2022-09-22T10:17:05.559Z</time>
      </trkpt>
      <trkpt lat="44.96125" lon="5.40528">
        <ele>856</ele>
        <time>2022-09-22T10:17:06.559Z</time>
      </trkpt>
      <trkpt lat="44.96125" lon="5.40524">
        <ele>855</ele>
        <time>2022-09-22T10:17:07.558Z</time>
      </trkpt>
      <trkpt lat="44.96125" lon="5.40521">
        <ele>855</ele>
        <time>2022-09-22T10:17:08.558Z</time>
      </trkpt>
      <trkpt lat="44.96125" lon="5.40517">
        <ele>855</ele>
        <time>2022-09-22T10:17:09.559Z</time>
      </trkpt>
      <trkpt lat="44.96125" lon="5.40513">
        <ele>854</ele>
        <time>2022-09-22T10:17:10.558Z</time>
      </trkpt>
      <trkpt lat="44.96125" lon="5.40509">
        <ele>854</ele>
        <time>2022-09-22T10:17:11.559Z</time>
      </trkpt>
      <trkpt lat="44.96125" lon="5.40505">
        <ele>854</ele>
        <time>2022-09-22T10:17:12.559Z</time>
      </trkpt>
      <trkpt lat="44.96126" lon="5.40501">
        <ele>854</ele>
        <time>2022-09-22T10:17:13.558Z</time>
      </trkpt>
      <trkpt lat="44.96127" lon="5.40496">
        <ele>855</ele>
        <time>2022-09-22T10:17:14.559Z</time>
      </trkpt>
      <trkpt lat="44.96127" lon="5.40492">
        <ele>855</ele>
        <time>2022-09-22T10:17:15.558Z</time>
      </trkpt>
      <trkpt lat="44.96128" lon="5.40488">
        <ele>855</ele>
        <time>2022-09-22T10:17:16.559Z</time>
      </trkpt>
      <trkpt lat="44.96129" lon="5.40484">
        <ele>855</ele>
        <time>2022-09-22T10:17:17.558Z</time>
      </trkpt>
      <trkpt lat="44.9613" lon="5.4048">
        <ele>854</ele>
        <time>2022-09-22T10:17:18.559Z</time>
      </trkpt>
      <trkpt lat="44.96131" lon="5.40475">
        <ele>854</ele>
        <time>2022-09-22T10:17:19.558Z</time>
      </trkpt>
      <trkpt lat="44.96132" lon="5.40471">
        <ele>854</ele>
        <time>2022-09-22T10:17:20.559Z</time>
      </trkpt>
      <trkpt lat="44.96133" lon="5.40467">
        <ele>854</ele>
        <time>2022-09-22T10:17:21.559Z</time>
      </trkpt>
      <trkpt lat="44.96135" lon="5.40462">
        <ele>854</ele>
        <time>2022-09-22T10:17:22.559Z</time>
      </trkpt>
      <trkpt lat="44.96136" lon="5.40458">
        <ele>854</ele>
        <time>2022-09-22T10:17:23.559Z</time>
      </trkpt>
      <trkpt lat="44.96138" lon="5.40454">
        <ele>854</ele>
        <time>2022-09-22T10:17:24.559Z</time>
      </trkpt>
      <trkpt lat="44.96139" lon="5.4045">
        <ele>854</ele>
        <time>2022-09-22T10:17:25.558Z</time>
      </trkpt>
      <trkpt lat="44.96141" lon="5.40447">
        <ele>854</ele>
        <time>2022-09-22T10:17:26.558Z</time>
      </trkpt>
      <trkpt lat="44.96143" lon="5.40444">
        <ele>853</ele>
        <time>2022-09-22T10:17:27.559Z</time>
      </trkpt>
      <trkpt lat="44.96145" lon="5.40441">
        <ele>853</ele>
        <time>2022-09-22T10:17:28.559Z</time>
      </trkpt>
      <trkpt lat="44.96147" lon="5.40438">
        <ele>853</ele>
        <time>2022-09-22T10:17:29.559Z</time>
      </trkpt>
      <trkpt lat="44.96148" lon="5.40435">
        <ele>853</ele>
        <time>2022-09-22T10:17:30.559Z</time>
      </trkpt>
      <trkpt lat="44.9615" lon="5.40432">
        <ele>853</ele>
        <time>2022-09-22T10:17:31.559Z</time>
      </trkpt>
      <trkpt lat="44.96152" lon="5.40429">
        <ele>853</ele>
        <time>2022-09-22T10:17:32.558Z</time>
      </trkpt>
      <trkpt lat="44.96154" lon="5.40426">
        <ele>853</ele>
        <time>2022-09-22T10:17:33.558Z</time>
      </trkpt>
      <trkpt lat="44.96155" lon="5.40423">
        <ele>853</ele>
        <time>2022-09-22T10:17:34.559Z</time>
      </trkpt>
      <trkpt lat="44.96158" lon="5.40419">
        <ele>853</ele>
        <time>2022-09-22T10:17:35.559Z</time>
      </trkpt>
      <trkpt lat="44.9616" lon="5.40415">
        <ele>853</ele>
        <time>2022-09-22T10:17:36.559Z</time>
      </trkpt>
      <trkpt lat="44.96162" lon="5.4041">
        <ele>853</ele>
        <time>2022-09-22T10:17:37.558Z</time>
      </trkpt>
      <trkpt lat="44.96165" lon="5.40405">
        <ele>853</ele>
        <time>2022-09-22T10:17:38.559Z</time>
      </trkpt>
      <trkpt lat="44.96167" lon="5.40401">
        <ele>853</ele>
        <time>2022-09-22T10:17:39.559Z</time>
      </trkpt>
      <trkpt lat="44.96169" lon="5.40396">
        <ele>853</ele>
        <time>2022-09-22T10:17:40.559Z</time>
      </trkpt>
      <trkpt lat="44.96171" lon="5.40392">
        <ele>853</ele>
        <time>2022-09-22T10:17:41.559Z</time>
      </trkpt>
      <trkpt lat="44.96173" lon="5.40388">
        <ele>853</ele>
        <time>2022-09-22T10:17:42.558Z</time>
      </trkpt>
      <trkpt lat="44.96175" lon="5.40384">
        <ele>854</ele>
        <time>2022-09-22T10:17:43.558Z</time>
      </trkpt>
      <trkpt lat="44.96176" lon="5.4038">
        <ele>854</ele>
        <time>2022-09-22T10:17:44.559Z</time>
      </trkpt>
      <trkpt lat="44.96177" lon="5.40377">
        <ele>853</ele>
        <time>2022-09-22T10:17:45.558Z</time>
      </trkpt>
      <trkpt lat="44.96178" lon="5.40373">
        <ele>853</ele>
        <time>2022-09-22T10:17:46.558Z</time>
      </trkpt>
      <trkpt lat="44.96179" lon="5.40369">
        <ele>853</ele>
        <time>2022-09-22T10:17:47.559Z</time>
      </trkpt>
      <trkpt lat="44.96181" lon="5.40366">
        <ele>853</ele>
        <time>2022-09-22T10:17:48.559Z</time>
      </trkpt>
      <trkpt lat="44.96182" lon="5.40362">
        <ele>853</ele>
        <time>2022-09-22T10:17:49.558Z</time>
      </trkpt>
      <trkpt lat="44.96184" lon="5.40358">
        <ele>854</ele>
        <time>2022-09-22T10:17:50.558Z</time>
      </trkpt>
      <trkpt lat="44.96185" lon="5.40354">
        <ele>854</ele>
        <time>2022-09-22T10:17:51.559Z</time>
      </trkpt>
      <trkpt lat="44.96186" lon="5.4035">
        <ele>854</ele>
        <time>2022-09-22T10:17:52.559Z</time>
      </trkpt>
      <trkpt lat="44.96187" lon="5.40347">
        <ele>855</ele>
        <time>2022-09-22T10:17:53.559Z</time>
      </trkpt>
      <trkpt lat="44.96188" lon="5.40343">
        <ele>855</ele>
        <time>2022-09-22T10:17:54.559Z</time>
      </trkpt>
      <trkpt lat="44.96189" lon="5.40339">
        <ele>854</ele>
        <time>2022-09-22T10:17:55.559Z</time>
      </trkpt>
      <trkpt lat="44.96189" lon="5.40334">
        <ele>854</ele>
        <time>2022-09-22T10:17:56.558Z</time>
      </trkpt>
      <trkpt lat="44.9619" lon="5.4033">
        <ele>854</ele>
        <time>2022-09-22T10:17:57.558Z</time>
      </trkpt>
      <trkpt lat="44.9619" lon="5.40326">
        <ele>854</ele>
        <time>2022-09-22T10:17:58.559Z</time>
      </trkpt>
      <trkpt lat="44.96191" lon="5.40322">
        <ele>855</ele>
        <time>2022-09-22T10:17:59.559Z</time>
      </trkpt>
      <trkpt lat="44.96191" lon="5.40318">
        <ele>855</ele>
        <time>2022-09-22T10:18:00.558Z</time>
      </trkpt>
      <trkpt lat="44.96192" lon="5.40314">
        <ele>855</ele>
        <time>2022-09-22T10:18:01.559Z</time>
      </trkpt>
      <trkpt lat="44.96192" lon="5.40309">
        <ele>855</ele>
        <time>2022-09-22T10:18:02.559Z</time>
      </trkpt>
      <trkpt lat="44.96193" lon="5.40304">
        <ele>854</ele>
        <time>2022-09-22T10:18:03.558Z</time>
      </trkpt>
      <trkpt lat="44.96193" lon="5.40299">
        <ele>854</ele>
        <time>2022-09-22T10:18:04.559Z</time>
      </trkpt>
      <trkpt lat="44.96194" lon="5.40294">
        <ele>854</ele>
        <time>2022-09-22T10:18:05.558Z</time>
      </trkpt>
      <trkpt lat="44.96195" lon="5.40288">
        <ele>854</ele>
        <time>2022-09-22T10:18:06.558Z</time>
      </trkpt>
      <trkpt lat="44.96196" lon="5.40282">
        <ele>854</ele>
        <time>2022-09-22T10:18:07.559Z</time>
      </trkpt>
      <trkpt lat="44.96196" lon="5.40275">
        <ele>854</ele>
        <time>2022-09-22T10:18:08.558Z</time>
      </trkpt>
      <trkpt lat="44.96197" lon="5.40268">
        <ele>853</ele>
        <time>2022-09-22T10:18:09.559Z</time>
      </trkpt>
      <trkpt lat="44.96197" lon="5.40262">
        <ele>853</ele>
        <time>2022-09-22T10:18:10.558Z</time>
      </trkpt>
      <trkpt lat="44.96198" lon="5.40255">
        <ele>853</ele>
        <time>2022-09-22T10:18:11.558Z</time>
      </trkpt>
      <trkpt lat="44.96198" lon="5.40248">
        <ele>852</ele>
        <time>2022-09-22T10:18:12.559Z</time>
      </trkpt>
      <trkpt lat="44.96199" lon="5.40241">
        <ele>852</ele>
        <time>2022-09-22T10:18:13.559Z</time>
      </trkpt>
      <trkpt lat="44.96199" lon="5.40234">
        <ele>851</ele>
        <time>2022-09-22T10:18:14.559Z</time>
      </trkpt>
      <trkpt lat="44.962" lon="5.40227">
        <ele>851</ele>
        <time>2022-09-22T10:18:15.559Z</time>
      </trkpt>
      <trkpt lat="44.962" lon="5.4022">
        <ele>851</ele>
        <time>2022-09-22T10:18:16.559Z</time>
      </trkpt>
      <trkpt lat="44.96201" lon="5.40214">
        <ele>851</ele>
        <time>2022-09-22T10:18:17.558Z</time>
      </trkpt>
      <trkpt lat="44.96202" lon="5.40206">
        <ele>850</ele>
        <time>2022-09-22T10:18:18.559Z</time>
      </trkpt>
      <trkpt lat="44.96203" lon="5.402">
        <ele>850</ele>
        <time>2022-09-22T10:18:19.559Z</time>
      </trkpt>
      <trkpt lat="44.96203" lon="5.40193">
        <ele>850</ele>
        <time>2022-09-22T10:18:20.559Z</time>
      </trkpt>
      <trkpt lat="44.96204" lon="5.40187">
        <ele>851</ele>
        <time>2022-09-22T10:18:21.559Z</time>
      </trkpt>
      <trkpt lat="44.96204" lon="5.40182">
        <ele>851</ele>
        <time>2022-09-22T10:18:22.559Z</time>
      </trkpt>
      <trkpt lat="44.96205" lon="5.40176">
        <ele>851</ele>
        <time>2022-09-22T10:18:23.559Z</time>
      </trkpt>
      <trkpt lat="44.96206" lon="5.40171">
        <ele>851</ele>
        <time>2022-09-22T10:18:24.559Z</time>
      </trkpt>
      <trkpt lat="44.96207" lon="5.40167">
        <ele>851</ele>
        <time>2022-09-22T10:18:25.558Z</time>
      </trkpt>
      <trkpt lat="44.96207" lon="5.40163">
        <ele>851</ele>
        <time>2022-09-22T10:18:26.558Z</time>
      </trkpt>
      <trkpt lat="44.96208" lon="5.40159">
        <ele>850</ele>
        <time>2022-09-22T10:18:27.558Z</time>
      </trkpt>
      <trkpt lat="44.96209" lon="5.40155">
        <ele>850</ele>
        <time>2022-09-22T10:18:28.558Z</time>
      </trkpt>
      <trkpt lat="44.96209" lon="5.40151">
        <ele>850</ele>
        <time>2022-09-22T10:18:29.559Z</time>
      </trkpt>
      <trkpt lat="44.96209" lon="5.40147">
        <ele>849</ele>
        <time>2022-09-22T10:18:30.559Z</time>
      </trkpt>
      <trkpt lat="44.9621" lon="5.40144">
        <ele>849</ele>
        <time>2022-09-22T10:18:31.558Z</time>
      </trkpt>
      <trkpt lat="44.9621" lon="5.40141">
        <ele>849</ele>
        <time>2022-09-22T10:18:32.559Z</time>
      </trkpt>
      <trkpt lat="44.96209" lon="5.40139">
        <ele>849</ele>
        <time>2022-09-22T10:18:33.559Z</time>
      </trkpt>
      <trkpt lat="44.96208" lon="5.40137">
        <ele>848</ele>
        <time>2022-09-22T10:18:34.559Z</time>
      </trkpt>
      <trkpt lat="44.96207" lon="5.40136">
        <ele>848</ele>
        <time>2022-09-22T10:18:35.559Z</time>
      </trkpt>
      <trkpt lat="44.96206" lon="5.40136">
        <ele>848</ele>
        <time>2022-09-22T10:18:36.559Z</time>
      </trkpt>
      <trkpt lat="44.96206" lon="5.40136">
        <ele>848</ele>
        <time>2022-09-22T10:18:37.559Z</time>
      </trkpt>
      <trkpt lat="44.96205" lon="5.40135">
        <ele>847</ele>
        <time>2022-09-22T10:18:38.559Z</time>
      </trkpt>
      <trkpt lat="44.96205" lon="5.40135">
        <ele>847</ele>
        <time>2022-09-22T10:18:39.559Z</time>
      </trkpt>
      <trkpt lat="44.96207" lon="5.40139">
        <ele>844</ele>
        <time>2022-09-22T10:18:47.603Z</time>
      </trkpt>
      <trkpt lat="44.96207" lon="5.40137">
        <ele>845</ele>
        <time>2022-09-22T10:18:48.603Z</time>
      </trkpt>
      <trkpt lat="44.96206" lon="5.40136">
        <ele>845</ele>
        <time>2022-09-22T10:18:49.602Z</time>
      </trkpt>
      <trkpt lat="44.96206" lon="5.40136">
        <ele>846</ele>
        <time>2022-09-22T10:18:50.603Z</time>
      </trkpt>
      <trkpt lat="44.96206" lon="5.40136">
        <ele>846</ele>
        <time>2022-09-22T10:18:51.602Z</time>
      </trkpt>
      <trkpt lat="44.962" lon="5.40133">
        <ele>849</ele>
        <time>2022-09-22T10:20:23.731Z</time>
      </trkpt>
      <trkpt lat="44.96198" lon="5.40133">
        <ele>849</ele>
        <time>2022-09-22T10:20:24.730Z</time>
      </trkpt>
      <trkpt lat="44.96195" lon="5.40132">
        <ele>849</ele>
        <time>2022-09-22T10:20:25.730Z</time>
      </trkpt>
      <trkpt lat="44.96193" lon="5.40131">
        <ele>849</ele>
        <time>2022-09-22T10:20:26.731Z</time>
      </trkpt>
      <trkpt lat="44.9619" lon="5.40131">
        <ele>850</ele>
        <time>2022-09-22T10:20:27.731Z</time>
      </trkpt>
      <trkpt lat="44.96187" lon="5.40131">
        <ele>850</ele>
        <time>2022-09-22T10:20:28.731Z</time>
      </trkpt>
      <trkpt lat="44.96184" lon="5.40131">
        <ele>850</ele>
        <time>2022-09-22T10:20:29.731Z</time>
      </trkpt>
      <trkpt lat="44.96182" lon="5.4013">
        <ele>849</ele>
        <time>2022-09-22T10:20:30.731Z</time>
      </trkpt>
      <trkpt lat="44.96179" lon="5.4013">
        <ele>849</ele>
        <time>2022-09-22T10:20:31.731Z</time>
      </trkpt>
      <trkpt lat="44.96177" lon="5.4013">
        <ele>849</ele>
        <time>2022-09-22T10:20:32.731Z</time>
      </trkpt>
      <trkpt lat="44.96175" lon="5.4013">
        <ele>849</ele>
        <time>2022-09-22T10:20:33.730Z</time>
      </trkpt>
      <trkpt lat="44.96172" lon="5.40129">
        <ele>849</ele>
        <time>2022-09-22T10:20:34.730Z</time>
      </trkpt>
      <trkpt lat="44.9617" lon="5.40129">
        <ele>849</ele>
        <time>2022-09-22T10:20:35.731Z</time>
      </trkpt>
      <trkpt lat="44.96167" lon="5.40129">
        <ele>848</ele>
        <time>2022-09-22T10:20:36.730Z</time>
      </trkpt>
      <trkpt lat="44.96165" lon="5.40129">
        <ele>848</ele>
        <time>2022-09-22T10:20:37.730Z</time>
      </trkpt>
      <trkpt lat="44.96162" lon="5.40129">
        <ele>848</ele>
        <time>2022-09-22T10:20:38.731Z</time>
      </trkpt>
      <trkpt lat="44.9616" lon="5.40129">
        <ele>848</ele>
        <time>2022-09-22T10:20:39.730Z</time>
      </trkpt>
      <trkpt lat="44.96157" lon="5.40129">
        <ele>847</ele>
        <time>2022-09-22T10:20:40.731Z</time>
      </trkpt>
      <trkpt lat="44.96155" lon="5.40129">
        <ele>847</ele>
        <time>2022-09-22T10:20:41.731Z</time>
      </trkpt>
      <trkpt lat="44.96152" lon="5.40129">
        <ele>847</ele>
        <time>2022-09-22T10:20:42.731Z</time>
      </trkpt>
      <trkpt lat="44.9615" lon="5.40129">
        <ele>846</ele>
        <time>2022-09-22T10:20:43.731Z</time>
      </trkpt>
      <trkpt lat="44.96148" lon="5.40129">
        <ele>846</ele>
        <time>2022-09-22T10:20:44.731Z</time>
      </trkpt>
      <trkpt lat="44.96146" lon="5.40129">
        <ele>846</ele>
        <time>2022-09-22T10:20:45.730Z</time>
      </trkpt>
      <trkpt lat="44.96144" lon="5.40129">
        <ele>846</ele>
        <time>2022-09-22T10:20:46.730Z</time>
      </trkpt>
      <trkpt lat="44.96141" lon="5.40129">
        <ele>846</ele>
        <time>2022-09-22T10:20:47.731Z</time>
      </trkpt>
      <trkpt lat="44.96139" lon="5.40129">
        <ele>846</ele>
        <time>2022-09-22T10:20:48.730Z</time>
      </trkpt>
      <trkpt lat="44.96137" lon="5.40128">
        <ele>846</ele>
        <time>2022-09-22T10:20:49.731Z</time>
      </trkpt>
      <trkpt lat="44.96135" lon="5.40128">
        <ele>846</ele>
        <time>2022-09-22T10:20:50.731Z</time>
      </trkpt>
      <trkpt lat="44.96133" lon="5.40129">
        <ele>847</ele>
        <time>2022-09-22T10:20:51.730Z</time>
      </trkpt>
      <trkpt lat="44.9613" lon="5.40129">
        <ele>847</ele>
        <time>2022-09-22T10:20:52.731Z</time>
      </trkpt>
      <trkpt lat="44.96128" lon="5.40129">
        <ele>847</ele>
        <time>2022-09-22T10:20:53.730Z</time>
      </trkpt>
      <trkpt lat="44.96126" lon="5.40129">
        <ele>847</ele>
        <time>2022-09-22T10:20:54.731Z</time>
      </trkpt>
      <trkpt lat="44.96124" lon="5.40129">
        <ele>847</ele>
        <time>2022-09-22T10:20:55.730Z</time>
      </trkpt>
      <trkpt lat="44.96122" lon="5.40129">
        <ele>847</ele>
        <time>2022-09-22T10:20:56.731Z</time>
      </trkpt>
      <trkpt lat="44.96119" lon="5.40129">
        <ele>848</ele>
        <time>2022-09-22T10:20:57.730Z</time>
      </trkpt>
      <trkpt lat="44.96117" lon="5.40129">
        <ele>848</ele>
        <time>2022-09-22T10:20:58.731Z</time>
      </trkpt>
      <trkpt lat="44.96115" lon="5.40129">
        <ele>848</ele>
        <time>2022-09-22T10:20:59.730Z</time>
      </trkpt>
      <trkpt lat="44.96113" lon="5.40129">
        <ele>848</ele>
        <time>2022-09-22T10:21:00.731Z</time>
      </trkpt>
      <trkpt lat="44.96111" lon="5.40129">
        <ele>848</ele>
        <time>2022-09-22T10:21:01.730Z</time>
      </trkpt>
      <trkpt lat="44.96109" lon="5.4013">
        <ele>848</ele>
        <time>2022-09-22T10:21:02.730Z</time>
      </trkpt>
      <trkpt lat="44.96107" lon="5.4013">
        <ele>848</ele>
        <time>2022-09-22T10:21:03.731Z</time>
      </trkpt>
      <trkpt lat="44.96105" lon="5.4013">
        <ele>848</ele>
        <time>2022-09-22T10:21:04.731Z</time>
      </trkpt>
      <trkpt lat="44.96102" lon="5.4013">
        <ele>848</ele>
        <time>2022-09-22T10:21:05.731Z</time>
      </trkpt>
      <trkpt lat="44.961" lon="5.40131">
        <ele>847</ele>
        <time>2022-09-22T10:21:06.731Z</time>
      </trkpt>
      <trkpt lat="44.96098" lon="5.40131">
        <ele>847</ele>
        <time>2022-09-22T10:21:07.730Z</time>
      </trkpt>
      <trkpt lat="44.96095" lon="5.40132">
        <ele>847</ele>
        <time>2022-09-22T10:21:08.731Z</time>
      </trkpt>
      <trkpt lat="44.96093" lon="5.40132">
        <ele>847</ele>
        <time>2022-09-22T10:21:09.731Z</time>
      </trkpt>
      <trkpt lat="44.9609" lon="5.40133">
        <ele>847</ele>
        <time>2022-09-22T10:21:10.731Z</time>
      </trkpt>
      <trkpt lat="44.96088" lon="5.40133">
        <ele>848</ele>
        <time>2022-09-22T10:21:11.731Z</time>
      </trkpt>
      <trkpt lat="44.96086" lon="5.40134">
        <ele>848</ele>
        <time>2022-09-22T10:21:12.730Z</time>
      </trkpt>
      <trkpt lat="44.96083" lon="5.40134">
        <ele>848</ele>
        <time>2022-09-22T10:21:13.730Z</time>
      </trkpt>
      <trkpt lat="44.96081" lon="5.40135">
        <ele>848</ele>
        <time>2022-09-22T10:21:14.731Z</time>
      </trkpt>
      <trkpt lat="44.96078" lon="5.40136">
        <ele>848</ele>
        <time>2022-09-22T10:21:15.731Z</time>
      </trkpt>
      <trkpt lat="44.96076" lon="5.40136">
        <ele>848</ele>
        <time>2022-09-22T10:21:16.730Z</time>
      </trkpt>
      <trkpt lat="44.96073" lon="5.40136">
        <ele>848</ele>
        <time>2022-09-22T10:21:17.731Z</time>
      </trkpt>
      <trkpt lat="44.96071" lon="5.40137">
        <ele>848</ele>
        <time>2022-09-22T10:21:18.731Z</time>
      </trkpt>
      <trkpt lat="44.96068" lon="5.40137">
        <ele>848</ele>
        <time>2022-09-22T10:21:19.731Z</time>
      </trkpt>
      <trkpt lat="44.96065" lon="5.40137">
        <ele>848</ele>
        <time>2022-09-22T10:21:20.731Z</time>
      </trkpt>
      <trkpt lat="44.96063" lon="5.40138">
        <ele>848</ele>
        <time>2022-09-22T10:21:21.731Z</time>
      </trkpt>
      <trkpt lat="44.9606" lon="5.40138">
        <ele>847</ele>
        <time>2022-09-22T10:21:22.730Z</time>
      </trkpt>
      <trkpt lat="44.96058" lon="5.40139">
        <ele>847</ele>
        <time>2022-09-22T10:21:23.731Z</time>
      </trkpt>
      <trkpt lat="44.96055" lon="5.40139">
        <ele>847</ele>
        <time>2022-09-22T10:21:24.731Z</time>
      </trkpt>
      <trkpt lat="44.96052" lon="5.40139">
        <ele>847</ele>
        <time>2022-09-22T10:21:25.731Z</time>
      </trkpt>
      <trkpt lat="44.9605" lon="5.40139">
        <ele>847</ele>
        <time>2022-09-22T10:21:26.730Z</time>
      </trkpt>
      <trkpt lat="44.96047" lon="5.4014">
        <ele>848</ele>
        <time>2022-09-22T10:21:27.731Z</time>
      </trkpt>
      <trkpt lat="44.96044" lon="5.4014">
        <ele>849</ele>
        <time>2022-09-22T10:21:28.730Z</time>
      </trkpt>
      <trkpt lat="44.96041" lon="5.4014">
        <ele>849</ele>
        <time>2022-09-22T10:21:29.731Z</time>
      </trkpt>
      <trkpt lat="44.96039" lon="5.4014">
        <ele>849</ele>
        <time>2022-09-22T10:21:30.731Z</time>
      </trkpt>
      <trkpt lat="44.96036" lon="5.40141">
        <ele>849</ele>
        <time>2022-09-22T10:21:31.731Z</time>
      </trkpt>
      <trkpt lat="44.96034" lon="5.40141">
        <ele>849</ele>
        <time>2022-09-22T10:21:32.730Z</time>
      </trkpt>
      <trkpt lat="44.96031" lon="5.40141">
        <ele>849</ele>
        <time>2022-09-22T10:21:33.731Z</time>
      </trkpt>
      <trkpt lat="44.96028" lon="5.40141">
        <ele>849</ele>
        <time>2022-09-22T10:21:34.731Z</time>
      </trkpt>
      <trkpt lat="44.96026" lon="5.4014">
        <ele>849</ele>
        <time>2022-09-22T10:21:35.730Z</time>
      </trkpt>
      <trkpt lat="44.96023" lon="5.4014">
        <ele>848</ele>
        <time>2022-09-22T10:21:36.731Z</time>
      </trkpt>
      <trkpt lat="44.96021" lon="5.4014">
        <ele>849</ele>
        <time>2022-09-22T10:21:37.731Z</time>
      </trkpt>
      <trkpt lat="44.96018" lon="5.4014">
        <ele>849</ele>
        <time>2022-09-22T10:21:38.731Z</time>
      </trkpt>
      <trkpt lat="44.96015" lon="5.4014">
        <ele>849</ele>
        <time>2022-09-22T10:21:39.730Z</time>
      </trkpt>
      <trkpt lat="44.96013" lon="5.4014">
        <ele>849</ele>
        <time>2022-09-22T10:21:40.731Z</time>
      </trkpt>
      <trkpt lat="44.96011" lon="5.40139">
        <ele>849</ele>
        <time>2022-09-22T10:21:41.730Z</time>
      </trkpt>
      <trkpt lat="44.96008" lon="5.40139">
        <ele>849</ele>
        <time>2022-09-22T10:21:42.731Z</time>
      </trkpt>
      <trkpt lat="44.96006" lon="5.40138">
        <ele>849</ele>
        <time>2022-09-22T10:21:43.730Z</time>
      </trkpt>
      <trkpt lat="44.96003" lon="5.40138">
        <ele>849</ele>
        <time>2022-09-22T10:21:44.731Z</time>
      </trkpt>
      <trkpt lat="44.96001" lon="5.40138">
        <ele>849</ele>
        <time>2022-09-22T10:21:45.731Z</time>
      </trkpt>
      <trkpt lat="44.95999" lon="5.40137">
        <ele>849</ele>
        <time>2022-09-22T10:21:46.731Z</time>
      </trkpt>
      <trkpt lat="44.95996" lon="5.40137">
        <ele>848</ele>
        <time>2022-09-22T10:21:47.731Z</time>
      </trkpt>
      <trkpt lat="44.95994" lon="5.40137">
        <ele>848</ele>
        <time>2022-09-22T10:21:48.731Z</time>
      </trkpt>
      <trkpt lat="44.95991" lon="5.40136">
        <ele>848</ele>
        <time>2022-09-22T10:21:49.731Z</time>
      </trkpt>
      <trkpt lat="44.95989" lon="5.40136">
        <ele>849</ele>
        <time>2022-09-22T10:21:50.730Z</time>
      </trkpt>
      <trkpt lat="44.95986" lon="5.40136">
        <ele>849</ele>
        <time>2022-09-22T10:21:51.731Z</time>
      </trkpt>
      <trkpt lat="44.95984" lon="5.40136">
        <ele>849</ele>
        <time>2022-09-22T10:21:52.731Z</time>
      </trkpt>
      <trkpt lat="44.95982" lon="5.40136">
        <ele>849</ele>
        <time>2022-09-22T10:21:53.731Z</time>
      </trkpt>
      <trkpt lat="44.95979" lon="5.40136">
        <ele>850</ele>
        <time>2022-09-22T10:21:54.731Z</time>
      </trkpt>
      <trkpt lat="44.95976" lon="5.40136">
        <ele>850</ele>
        <time>2022-09-22T10:21:55.731Z</time>
      </trkpt>
      <trkpt lat="44.95974" lon="5.40135">
        <ele>850</ele>
        <time>2022-09-22T10:21:56.730Z</time>
      </trkpt>
      <trkpt lat="44.95972" lon="5.40135">
        <ele>850</ele>
        <time>2022-09-22T10:21:57.731Z</time>
      </trkpt>
      <trkpt lat="44.95969" lon="5.40135">
        <ele>850</ele>
        <time>2022-09-22T10:21:58.730Z</time>
      </trkpt>
      <trkpt lat="44.95967" lon="5.40135">
        <ele>850</ele>
        <time>2022-09-22T10:21:59.731Z</time>
      </trkpt>
      <trkpt lat="44.95964" lon="5.40135">
        <ele>850</ele>
        <time>2022-09-22T10:22:00.731Z</time>
      </trkpt>
      <trkpt lat="44.95962" lon="5.40135">
        <ele>850</ele>
        <time>2022-09-22T10:22:01.731Z</time>
      </trkpt>
      <trkpt lat="44.95959" lon="5.40136">
        <ele>850</ele>
        <time>2022-09-22T10:22:02.731Z</time>
      </trkpt>
      <trkpt lat="44.95957" lon="5.40136">
        <ele>851</ele>
        <time>2022-09-22T10:22:03.731Z</time>
      </trkpt>
      <trkpt lat="44.95954" lon="5.40136">
        <ele>851</ele>
        <time>2022-09-22T10:22:04.731Z</time>
      </trkpt>
      <trkpt lat="44.95952" lon="5.40136">
        <ele>851</ele>
        <time>2022-09-22T10:22:05.731Z</time>
      </trkpt>
      <trkpt lat="44.95949" lon="5.40136">
        <ele>851</ele>
        <time>2022-09-22T10:22:06.731Z</time>
      </trkpt>
      <trkpt lat="44.95946" lon="5.40136">
        <ele>851</ele>
        <time>2022-09-22T10:22:07.731Z</time>
      </trkpt>
      <trkpt lat="44.95944" lon="5.40136">
        <ele>851</ele>
        <time>2022-09-22T10:22:08.731Z</time>
      </trkpt>
      <trkpt lat="44.95941" lon="5.40137">
        <ele>850</ele>
        <time>2022-09-22T10:22:09.731Z</time>
      </trkpt>
      <trkpt lat="44.95939" lon="5.40136">
        <ele>850</ele>
        <time>2022-09-22T10:22:10.731Z</time>
      </trkpt>
      <trkpt lat="44.95936" lon="5.40136">
        <ele>850</ele>
        <time>2022-09-22T10:22:11.731Z</time>
      </trkpt>
      <trkpt lat="44.95933" lon="5.40136">
        <ele>851</ele>
        <time>2022-09-22T10:22:12.730Z</time>
      </trkpt>
      <trkpt lat="44.9593" lon="5.40136">
        <ele>851</ele>
        <time>2022-09-22T10:22:13.731Z</time>
      </trkpt>
      <trkpt lat="44.95928" lon="5.40136">
        <ele>851</ele>
        <time>2022-09-22T10:22:14.731Z</time>
      </trkpt>
      <trkpt lat="44.95925" lon="5.40135">
        <ele>851</ele>
        <time>2022-09-22T10:22:15.731Z</time>
      </trkpt>
      <trkpt lat="44.95923" lon="5.40135">
        <ele>851</ele>
        <time>2022-09-22T10:22:16.730Z</time>
      </trkpt>
      <trkpt lat="44.9592" lon="5.40135">
        <ele>851</ele>
        <time>2022-09-22T10:22:17.731Z</time>
      </trkpt>
      <trkpt lat="44.95918" lon="5.40135">
        <ele>851</ele>
        <time>2022-09-22T10:22:18.731Z</time>
      </trkpt>
      <trkpt lat="44.95915" lon="5.40135">
        <ele>852</ele>
        <time>2022-09-22T10:22:19.730Z</time>
      </trkpt>
      <trkpt lat="44.95912" lon="5.40135">
        <ele>852</ele>
        <time>2022-09-22T10:22:20.731Z</time>
      </trkpt>
      <trkpt lat="44.9591" lon="5.40135">
        <ele>852</ele>
        <time>2022-09-22T10:22:21.731Z</time>
      </trkpt>
      <trkpt lat="44.95908" lon="5.40135">
        <ele>852</ele>
        <time>2022-09-22T10:22:22.731Z</time>
      </trkpt>
      <trkpt lat="44.95905" lon="5.40135">
        <ele>852</ele>
        <time>2022-09-22T10:22:23.730Z</time>
      </trkpt>
      <trkpt lat="44.95903" lon="5.40135">
        <ele>852</ele>
        <time>2022-09-22T10:22:24.731Z</time>
      </trkpt>
      <trkpt lat="44.95901" lon="5.40135">
        <ele>852</ele>
        <time>2022-09-22T10:22:25.730Z</time>
      </trkpt>
      <trkpt lat="44.95899" lon="5.40135">
        <ele>852</ele>
        <time>2022-09-22T10:22:26.731Z</time>
      </trkpt>
      <trkpt lat="44.95896" lon="5.40135">
        <ele>852</ele>
        <time>2022-09-22T10:22:27.731Z</time>
      </trkpt>
      <trkpt lat="44.95894" lon="5.40135">
        <ele>852</ele>
        <time>2022-09-22T10:22:28.731Z</time>
      </trkpt>
      <trkpt lat="44.95892" lon="5.40135">
        <ele>853</ele>
        <time>2022-09-22T10:22:29.731Z</time>
      </trkpt>
      <trkpt lat="44.95889" lon="5.40135">
        <ele>853</ele>
        <time>2022-09-22T10:22:30.731Z</time>
      </trkpt>
      <trkpt lat="44.95887" lon="5.40136">
        <ele>853</ele>
        <time>2022-09-22T10:22:31.730Z</time>
      </trkpt>
      <trkpt lat="44.95884" lon="5.40136">
        <ele>854</ele>
        <time>2022-09-22T10:22:32.731Z</time>
      </trkpt>
      <trkpt lat="44.95882" lon="5.40136">
        <ele>854</ele>
        <time>2022-09-22T10:22:33.731Z</time>
      </trkpt>
      <trkpt lat="44.9588" lon="5.40136">
        <ele>854</ele>
        <time>2022-09-22T10:22:34.730Z</time>
      </trkpt>
      <trkpt lat="44.95878" lon="5.40137">
        <ele>854</ele>
        <time>2022-09-22T10:22:35.730Z</time>
      </trkpt>
      <trkpt lat="44.95875" lon="5.40137">
        <ele>854</ele>
        <time>2022-09-22T10:22:36.731Z</time>
      </trkpt>
      <trkpt lat="44.95873" lon="5.40137">
        <ele>854</ele>
        <time>2022-09-22T10:22:37.731Z</time>
      </trkpt>
      <trkpt lat="44.95871" lon="5.40137">
        <ele>854</ele>
        <time>2022-09-22T10:22:38.730Z</time>
      </trkpt>
      <trkpt lat="44.95868" lon="5.40137">
        <ele>854</ele>
        <time>2022-09-22T10:22:39.731Z</time>
      </trkpt>
      <trkpt lat="44.95866" lon="5.40137">
        <ele>854</ele>
        <time>2022-09-22T10:22:40.731Z</time>
      </trkpt>
      <trkpt lat="44.95864" lon="5.40137">
        <ele>854</ele>
        <time>2022-09-22T10:22:41.731Z</time>
      </trkpt>
      <trkpt lat="44.95862" lon="5.40137">
        <ele>854</ele>
        <time>2022-09-22T10:22:42.731Z</time>
      </trkpt>
      <trkpt lat="44.95859" lon="5.40138">
        <ele>854</ele>
        <time>2022-09-22T10:22:43.731Z</time>
      </trkpt>
      <trkpt lat="44.95857" lon="5.40138">
        <ele>854</ele>
        <time>2022-09-22T10:22:44.731Z</time>
      </trkpt>
      <trkpt lat="44.95855" lon="5.40138">
        <ele>855</ele>
        <time>2022-09-22T10:22:45.730Z</time>
      </trkpt>
      <trkpt lat="44.95853" lon="5.40139">
        <ele>855</ele>
        <time>2022-09-22T10:22:46.730Z</time>
      </trkpt>
      <trkpt lat="44.95851" lon="5.40139">
        <ele>855</ele>
        <time>2022-09-22T10:22:47.731Z</time>
      </trkpt>
      <trkpt lat="44.95848" lon="5.40139">
        <ele>855</ele>
        <time>2022-09-22T10:22:48.731Z</time>
      </trkpt>
      <trkpt lat="44.95846" lon="5.4014">
        <ele>854</ele>
        <time>2022-09-22T10:22:49.730Z</time>
      </trkpt>
      <trkpt lat="44.95844" lon="5.4014">
        <ele>854</ele>
        <time>2022-09-22T10:22:50.731Z</time>
      </trkpt>
      <trkpt lat="44.95842" lon="5.4014">
        <ele>855</ele>
        <time>2022-09-22T10:22:51.731Z</time>
      </trkpt>
      <trkpt lat="44.95839" lon="5.4014">
        <ele>855</ele>
        <time>2022-09-22T10:22:52.730Z</time>
      </trkpt>
      <trkpt lat="44.95837" lon="5.4014">
        <ele>855</ele>
        <time>2022-09-22T10:22:53.731Z</time>
      </trkpt>
      <trkpt lat="44.95835" lon="5.4014">
        <ele>855</ele>
        <time>2022-09-22T10:22:54.731Z</time>
      </trkpt>
      <trkpt lat="44.95833" lon="5.4014">
        <ele>854</ele>
        <time>2022-09-22T10:22:55.731Z</time>
      </trkpt>
      <trkpt lat="44.95831" lon="5.4014">
        <ele>854</ele>
        <time>2022-09-22T10:22:56.730Z</time>
      </trkpt>
      <trkpt lat="44.95829" lon="5.40141">
        <ele>854</ele>
        <time>2022-09-22T10:22:57.730Z</time>
      </trkpt>
      <trkpt lat="44.95827" lon="5.40141">
        <ele>854</ele>
        <time>2022-09-22T10:22:58.730Z</time>
      </trkpt>
      <trkpt lat="44.95825" lon="5.40141">
        <ele>854</ele>
        <time>2022-09-22T10:22:59.731Z</time>
      </trkpt>
      <trkpt lat="44.95822" lon="5.40141">
        <ele>855</ele>
        <time>2022-09-22T10:23:00.731Z</time>
      </trkpt>
      <trkpt lat="44.9582" lon="5.40141">
        <ele>855</ele>
        <time>2022-09-22T10:23:01.731Z</time>
      </trkpt>
      <trkpt lat="44.95818" lon="5.40141">
        <ele>854</ele>
        <time>2022-09-22T10:23:02.731Z</time>
      </trkpt>
      <trkpt lat="44.95815" lon="5.40141">
        <ele>854</ele>
        <time>2022-09-22T10:23:03.730Z</time>
      </trkpt>
      <trkpt lat="44.95813" lon="5.40141">
        <ele>854</ele>
        <time>2022-09-22T10:23:04.731Z</time>
      </trkpt>
      <trkpt lat="44.9581" lon="5.40141">
        <ele>855</ele>
        <time>2022-09-22T10:23:05.730Z</time>
      </trkpt>
      <trkpt lat="44.95808" lon="5.40141">
        <ele>855</ele>
        <time>2022-09-22T10:23:06.731Z</time>
      </trkpt>
      <trkpt lat="44.95805" lon="5.40141">
        <ele>855</ele>
        <time>2022-09-22T10:23:07.730Z</time>
      </trkpt>
      <trkpt lat="44.95803" lon="5.40141">
        <ele>855</ele>
        <time>2022-09-22T10:23:08.731Z</time>
      </trkpt>
      <trkpt lat="44.958" lon="5.40141">
        <ele>855</ele>
        <time>2022-09-22T10:23:09.731Z</time>
      </trkpt>
      <trkpt lat="44.95798" lon="5.40141">
        <ele>856</ele>
        <time>2022-09-22T10:23:10.730Z</time>
      </trkpt>
      <trkpt lat="44.95795" lon="5.4014">
        <ele>856</ele>
        <time>2022-09-22T10:23:11.731Z</time>
      </trkpt>
      <trkpt lat="44.95793" lon="5.4014">
        <ele>856</ele>
        <time>2022-09-22T10:23:12.731Z</time>
      </trkpt>
      <trkpt lat="44.9579" lon="5.4014">
        <ele>856</ele>
        <time>2022-09-22T10:23:13.731Z</time>
      </trkpt>
      <trkpt lat="44.95788" lon="5.4014">
        <ele>857</ele>
        <time>2022-09-22T10:23:14.730Z</time>
      </trkpt>
      <trkpt lat="44.95786" lon="5.40141">
        <ele>857</ele>
        <time>2022-09-22T10:23:15.731Z</time>
      </trkpt>
      <trkpt lat="44.95783" lon="5.40141">
        <ele>857</ele>
        <time>2022-09-22T10:23:16.731Z</time>
      </trkpt>
      <trkpt lat="44.95781" lon="5.40141">
        <ele>856</ele>
        <time>2022-09-22T10:23:17.731Z</time>
      </trkpt>
      <trkpt lat="44.95778" lon="5.40141">
        <ele>856</ele>
        <time>2022-09-22T10:23:18.730Z</time>
      </trkpt>
      <trkpt lat="44.95776" lon="5.40142">
        <ele>856</ele>
        <time>2022-09-22T10:23:19.731Z</time>
      </trkpt>
      <trkpt lat="44.95773" lon="5.40142">
        <ele>856</ele>
        <time>2022-09-22T10:23:20.731Z</time>
      </trkpt>
      <trkpt lat="44.9577" lon="5.40142">
        <ele>856</ele>
        <time>2022-09-22T10:23:21.730Z</time>
      </trkpt>
      <trkpt lat="44.95768" lon="5.40142">
        <ele>856</ele>
        <time>2022-09-22T10:23:22.731Z</time>
      </trkpt>
      <trkpt lat="44.95765" lon="5.40142">
        <ele>856</ele>
        <time>2022-09-22T10:23:23.730Z</time>
      </trkpt>
      <trkpt lat="44.95762" lon="5.40141">
        <ele>856</ele>
        <time>2022-09-22T10:23:24.730Z</time>
      </trkpt>
      <trkpt lat="44.9576" lon="5.40141">
        <ele>856</ele>
        <time>2022-09-22T10:23:25.730Z</time>
      </trkpt>
      <trkpt lat="44.95757" lon="5.40141">
        <ele>856</ele>
        <time>2022-09-22T10:23:26.731Z</time>
      </trkpt>
      <trkpt lat="44.95755" lon="5.40142">
        <ele>856</ele>
        <time>2022-09-22T10:23:27.731Z</time>
      </trkpt>
      <trkpt lat="44.95752" lon="5.40141">
        <ele>856</ele>
        <time>2022-09-22T10:23:28.731Z</time>
      </trkpt>
      <trkpt lat="44.9575" lon="5.40141">
        <ele>855</ele>
        <time>2022-09-22T10:23:29.731Z</time>
      </trkpt>
      <trkpt lat="44.95747" lon="5.40141">
        <ele>855</ele>
        <time>2022-09-22T10:23:30.730Z</time>
      </trkpt>
      <trkpt lat="44.95745" lon="5.40141">
        <ele>855</ele>
        <time>2022-09-22T10:23:31.730Z</time>
      </trkpt>
      <trkpt lat="44.95742" lon="5.40141">
        <ele>855</ele>
        <time>2022-09-22T10:23:32.731Z</time>
      </trkpt>
      <trkpt lat="44.9574" lon="5.40141">
        <ele>855</ele>
        <time>2022-09-22T10:23:33.730Z</time>
      </trkpt>
      <trkpt lat="44.95737" lon="5.4014">
        <ele>856</ele>
        <time>2022-09-22T10:23:34.730Z</time>
      </trkpt>
      <trkpt lat="44.95735" lon="5.4014">
        <ele>856</ele>
        <time>2022-09-22T10:23:35.730Z</time>
      </trkpt>
      <trkpt lat="44.95732" lon="5.40139">
        <ele>856</ele>
        <time>2022-09-22T10:23:36.731Z</time>
      </trkpt>
      <trkpt lat="44.9573" lon="5.40139">
        <ele>857</ele>
        <time>2022-09-22T10:23:37.730Z</time>
      </trkpt>
      <trkpt lat="44.95727" lon="5.40139">
        <ele>857</ele>
        <time>2022-09-22T10:23:38.730Z</time>
      </trkpt>
      <trkpt lat="44.95725" lon="5.40138">
        <ele>857</ele>
        <time>2022-09-22T10:23:39.731Z</time>
      </trkpt>
      <trkpt lat="44.95722" lon="5.40138">
        <ele>858</ele>
        <time>2022-09-22T10:23:40.731Z</time>
      </trkpt>
      <trkpt lat="44.9572" lon="5.40137">
        <ele>858</ele>
        <time>2022-09-22T10:23:41.731Z</time>
      </trkpt>
      <trkpt lat="44.95718" lon="5.40137">
        <ele>858</ele>
        <time>2022-09-22T10:23:42.730Z</time>
      </trkpt>
      <trkpt lat="44.95716" lon="5.40137">
        <ele>858</ele>
        <time>2022-09-22T10:23:43.730Z</time>
      </trkpt>
      <trkpt lat="44.95715" lon="5.40137">
        <ele>858</ele>
        <time>2022-09-22T10:23:44.731Z</time>
      </trkpt>
      <trkpt lat="44.95712" lon="5.40137">
        <ele>859</ele>
        <time>2022-09-22T10:23:45.731Z</time>
      </trkpt>
      <trkpt lat="44.9571" lon="5.40137">
        <ele>859</ele>
        <time>2022-09-22T10:23:46.730Z</time>
      </trkpt>
      <trkpt lat="44.95708" lon="5.40136">
        <ele>859</ele>
        <time>2022-09-22T10:23:47.731Z</time>
      </trkpt>
      <trkpt lat="44.95706" lon="5.40136">
        <ele>860</ele>
        <time>2022-09-22T10:23:48.730Z</time>
      </trkpt>
      <trkpt lat="44.95704" lon="5.40136">
        <ele>860</ele>
        <time>2022-09-22T10:23:49.731Z</time>
      </trkpt>
      <trkpt lat="44.95702" lon="5.40136">
        <ele>860</ele>
        <time>2022-09-22T10:23:50.730Z</time>
      </trkpt>
      <trkpt lat="44.957" lon="5.40135">
        <ele>860</ele>
        <time>2022-09-22T10:23:51.730Z</time>
      </trkpt>
      <trkpt lat="44.95698" lon="5.40135">
        <ele>860</ele>
        <time>2022-09-22T10:23:52.730Z</time>
      </trkpt>
      <trkpt lat="44.95696" lon="5.40135">
        <ele>861</ele>
        <time>2022-09-22T10:23:53.731Z</time>
      </trkpt>
      <trkpt lat="44.95694" lon="5.40135">
        <ele>861</ele>
        <time>2022-09-22T10:23:54.730Z</time>
      </trkpt>
      <trkpt lat="44.95692" lon="5.40134">
        <ele>861</ele>
        <time>2022-09-22T10:23:55.730Z</time>
      </trkpt>
      <trkpt lat="44.9569" lon="5.40134">
        <ele>861</ele>
        <time>2022-09-22T10:23:56.731Z</time>
      </trkpt>
      <trkpt lat="44.95688" lon="5.40134">
        <ele>861</ele>
        <time>2022-09-22T10:23:57.731Z</time>
      </trkpt>
      <trkpt lat="44.95686" lon="5.40134">
        <ele>861</ele>
        <time>2022-09-22T10:23:58.730Z</time>
      </trkpt>
      <trkpt lat="44.95684" lon="5.40134">
        <ele>861</ele>
        <time>2022-09-22T10:23:59.731Z</time>
      </trkpt>
      <trkpt lat="44.95683" lon="5.40134">
        <ele>862</ele>
        <time>2022-09-22T10:24:00.730Z</time>
      </trkpt>
      <trkpt lat="44.95681" lon="5.40134">
        <ele>862</ele>
        <time>2022-09-22T10:24:01.731Z</time>
      </trkpt>
      <trkpt lat="44.95679" lon="5.40133">
        <ele>861</ele>
        <time>2022-09-22T10:24:02.731Z</time>
      </trkpt>
      <trkpt lat="44.95678" lon="5.40132">
        <ele>861</ele>
        <time>2022-09-22T10:24:03.731Z</time>
      </trkpt>
      <trkpt lat="44.95677" lon="5.4013">
        <ele>861</ele>
        <time>2022-09-22T10:24:04.730Z</time>
      </trkpt>
      <trkpt lat="44.95677" lon="5.40128">
        <ele>861</ele>
        <time>2022-09-22T10:24:05.731Z</time>
      </trkpt>
      <trkpt lat="44.95677" lon="5.40126">
        <ele>860</ele>
        <time>2022-09-22T10:24:06.730Z</time>
      </trkpt>
      <trkpt lat="44.95677" lon="5.40124">
        <ele>860</ele>
        <time>2022-09-22T10:24:07.731Z</time>
      </trkpt>
      <trkpt lat="44.95677" lon="5.40121">
        <ele>860</ele>
        <time>2022-09-22T10:24:08.730Z</time>
      </trkpt>
      <trkpt lat="44.95677" lon="5.40118">
        <ele>860</ele>
        <time>2022-09-22T10:24:09.730Z</time>
      </trkpt>
      <trkpt lat="44.95677" lon="5.40116">
        <ele>861</ele>
        <time>2022-09-22T10:24:10.731Z</time>
      </trkpt>
      <trkpt lat="44.95677" lon="5.40113">
        <ele>861</ele>
        <time>2022-09-22T10:24:11.730Z</time>
      </trkpt>
      <trkpt lat="44.95677" lon="5.40111">
        <ele>861</ele>
        <time>2022-09-22T10:24:12.731Z</time>
      </trkpt>
      <trkpt lat="44.95677" lon="5.40107">
        <ele>861</ele>
        <time>2022-09-22T10:24:13.730Z</time>
      </trkpt>
      <trkpt lat="44.95678" lon="5.40104">
        <ele>861</ele>
        <time>2022-09-22T10:24:14.731Z</time>
      </trkpt>
      <trkpt lat="44.95678" lon="5.40101">
        <ele>861</ele>
        <time>2022-09-22T10:24:15.730Z</time>
      </trkpt>
      <trkpt lat="44.95679" lon="5.40099">
        <ele>861</ele>
        <time>2022-09-22T10:24:16.730Z</time>
      </trkpt>
      <trkpt lat="44.95679" lon="5.40095">
        <ele>861</ele>
        <time>2022-09-22T10:24:17.731Z</time>
      </trkpt>
      <trkpt lat="44.95679" lon="5.40092">
        <ele>860</ele>
        <time>2022-09-22T10:24:18.731Z</time>
      </trkpt>
      <trkpt lat="44.9568" lon="5.40089">
        <ele>860</ele>
        <time>2022-09-22T10:24:19.731Z</time>
      </trkpt>
      <trkpt lat="44.9568" lon="5.40085">
        <ele>861</ele>
        <time>2022-09-22T10:24:20.730Z</time>
      </trkpt>
      <trkpt lat="44.9568" lon="5.40082">
        <ele>861</ele>
        <time>2022-09-22T10:24:21.731Z</time>
      </trkpt>
      <trkpt lat="44.9568" lon="5.40078">
        <ele>861</ele>
        <time>2022-09-22T10:24:22.731Z</time>
      </trkpt>
      <trkpt lat="44.9568" lon="5.40076">
        <ele>861</ele>
        <time>2022-09-22T10:24:23.730Z</time>
      </trkpt>
      <trkpt lat="44.95681" lon="5.40073">
        <ele>861</ele>
        <time>2022-09-22T10:24:24.730Z</time>
      </trkpt>
      <trkpt lat="44.95681" lon="5.4007">
        <ele>861</ele>
        <time>2022-09-22T10:24:25.730Z</time>
      </trkpt>
      <trkpt lat="44.95682" lon="5.40067">
        <ele>861</ele>
        <time>2022-09-22T10:24:26.731Z</time>
      </trkpt>
      <trkpt lat="44.95682" lon="5.40065">
        <ele>861</ele>
        <time>2022-09-22T10:24:27.731Z</time>
      </trkpt>
      <trkpt lat="44.95683" lon="5.40063">
        <ele>860</ele>
        <time>2022-09-22T10:24:28.730Z</time>
      </trkpt>
      <trkpt lat="44.95684" lon="5.4006">
        <ele>860</ele>
        <time>2022-09-22T10:24:29.730Z</time>
      </trkpt>
      <trkpt lat="44.95684" lon="5.40058">
        <ele>860</ele>
        <time>2022-09-22T10:24:30.731Z</time>
      </trkpt>
      <trkpt lat="44.95684" lon="5.40056">
        <ele>860</ele>
        <time>2022-09-22T10:24:31.730Z</time>
      </trkpt>
      <trkpt lat="44.95684" lon="5.40053">
        <ele>860</ele>
        <time>2022-09-22T10:24:32.731Z</time>
      </trkpt>
      <trkpt lat="44.95684" lon="5.40051">
        <ele>860</ele>
        <time>2022-09-22T10:24:33.731Z</time>
      </trkpt>
      <trkpt lat="44.95684" lon="5.40048">
        <ele>860</ele>
        <time>2022-09-22T10:24:34.730Z</time>
      </trkpt>
      <trkpt lat="44.95684" lon="5.40045">
        <ele>860</ele>
        <time>2022-09-22T10:24:35.731Z</time>
      </trkpt>
      <trkpt lat="44.95684" lon="5.40043">
        <ele>860</ele>
        <time>2022-09-22T10:24:36.730Z</time>
      </trkpt>
      <trkpt lat="44.95684" lon="5.40041">
        <ele>861</ele>
        <time>2022-09-22T10:24:37.730Z</time>
      </trkpt>
      <trkpt lat="44.95685" lon="5.40038">
        <ele>861</ele>
        <time>2022-09-22T10:24:38.731Z</time>
      </trkpt>
      <trkpt lat="44.95685" lon="5.40035">
        <ele>862</ele>
        <time>2022-09-22T10:24:39.731Z</time>
      </trkpt>
      <trkpt lat="44.95685" lon="5.40033">
        <ele>862</ele>
        <time>2022-09-22T10:24:40.730Z</time>
      </trkpt>
      <trkpt lat="44.95686" lon="5.4003">
        <ele>862</ele>
        <time>2022-09-22T10:24:41.730Z</time>
      </trkpt>
      <trkpt lat="44.95686" lon="5.40027">
        <ele>862</ele>
        <time>2022-09-22T10:24:42.731Z</time>
      </trkpt>
      <trkpt lat="44.95687" lon="5.40024">
        <ele>862</ele>
        <time>2022-09-22T10:24:43.731Z</time>
      </trkpt>
      <trkpt lat="44.95687" lon="5.40022">
        <ele>862</ele>
        <time>2022-09-22T10:24:44.731Z</time>
      </trkpt>
      <trkpt lat="44.95688" lon="5.40019">
        <ele>862</ele>
        <time>2022-09-22T10:24:45.730Z</time>
      </trkpt>
      <trkpt lat="44.95688" lon="5.40016">
        <ele>863</ele>
        <time>2022-09-22T10:24:46.731Z</time>
      </trkpt>
      <trkpt lat="44.95689" lon="5.40014">
        <ele>863</ele>
        <time>2022-09-22T10:24:47.731Z</time>
      </trkpt>
      <trkpt lat="44.95689" lon="5.40011">
        <ele>863</ele>
        <time>2022-09-22T10:24:48.731Z</time>
      </trkpt>
      <trkpt lat="44.95689" lon="5.40009">
        <ele>864</ele>
        <time>2022-09-22T10:24:49.730Z</time>
      </trkpt>
      <trkpt lat="44.9569" lon="5.40006">
        <ele>865</ele>
        <time>2022-09-22T10:24:50.731Z</time>
      </trkpt>
      <trkpt lat="44.95691" lon="5.40004">
        <ele>865</ele>
        <time>2022-09-22T10:24:51.730Z</time>
      </trkpt>
      <trkpt lat="44.95691" lon="5.40002">
        <ele>866</ele>
        <time>2022-09-22T10:24:52.730Z</time>
      </trkpt>
      <trkpt lat="44.95692" lon="5.4">
        <ele>867</ele>
        <time>2022-09-22T10:24:53.731Z</time>
      </trkpt>
      <trkpt lat="44.95693" lon="5.39998">
        <ele>868</ele>
        <time>2022-09-22T10:24:54.731Z</time>
      </trkpt>
      <trkpt lat="44.95694" lon="5.39997">
        <ele>868</ele>
        <time>2022-09-22T10:24:55.730Z</time>
      </trkpt>
      <trkpt lat="44.95696" lon="5.39995">
        <ele>869</ele>
        <time>2022-09-22T10:24:56.730Z</time>
      </trkpt>
      <trkpt lat="44.95697" lon="5.39993">
        <ele>869</ele>
        <time>2022-09-22T10:24:57.730Z</time>
      </trkpt>
      <trkpt lat="44.95698" lon="5.39991">
        <ele>870</ele>
        <time>2022-09-22T10:24:58.731Z</time>
      </trkpt>
      <trkpt lat="44.957" lon="5.39989">
        <ele>871</ele>
        <time>2022-09-22T10:24:59.730Z</time>
      </trkpt>
      <trkpt lat="44.95702" lon="5.39989">
        <ele>871</ele>
        <time>2022-09-22T10:25:00.730Z</time>
      </trkpt>
      <trkpt lat="44.95703" lon="5.39988">
        <ele>872</ele>
        <time>2022-09-22T10:25:01.730Z</time>
      </trkpt>
      <trkpt lat="44.95705" lon="5.39988">
        <ele>873</ele>
        <time>2022-09-22T10:25:02.731Z</time>
      </trkpt>
      <trkpt lat="44.95706" lon="5.39987">
        <ele>873</ele>
        <time>2022-09-22T10:25:03.731Z</time>
      </trkpt>
      <trkpt lat="44.95707" lon="5.39986">
        <ele>874</ele>
        <time>2022-09-22T10:25:04.731Z</time>
      </trkpt>
      <trkpt lat="44.95707" lon="5.39986">
        <ele>874</ele>
        <time>2022-09-22T10:25:05.730Z</time>
      </trkpt>
      <trkpt lat="44.95708" lon="5.39986">
        <ele>875</ele>
        <time>2022-09-22T10:25:06.730Z</time>
      </trkpt>
      <trkpt lat="44.95708" lon="5.39986">
        <ele>875</ele>
        <time>2022-09-22T10:25:07.731Z</time>
      </trkpt>
      <trkpt lat="44.95708" lon="5.39986">
        <ele>876</ele>
        <time>2022-09-22T10:25:08.731Z</time>
      </trkpt>
      <trkpt lat="44.95709" lon="5.39985">
        <ele>876</ele>
        <time>2022-09-22T10:25:10.843Z</time>
      </trkpt>
      <trkpt lat="44.9571" lon="5.39984">
        <ele>877</ele>
        <time>2022-09-22T10:25:11.842Z</time>
      </trkpt>
      <trkpt lat="44.9571" lon="5.39983">
        <ele>877</ele>
        <time>2022-09-22T10:25:12.843Z</time>
      </trkpt>
      <trkpt lat="44.9571" lon="5.39983">
        <ele>877</ele>
        <time>2022-09-22T10:25:13.842Z</time>
      </trkpt>
      <trkpt lat="44.9571" lon="5.39984">
        <ele>876</ele>
        <time>2022-09-22T10:25:14.842Z</time>
      </trkpt>
      <trkpt lat="44.9571" lon="5.39985">
        <ele>876</ele>
        <time>2022-09-22T10:25:15.842Z</time>
      </trkpt>
      <trkpt lat="44.95711" lon="5.39985">
        <ele>876</ele>
        <time>2022-09-22T10:25:16.843Z</time>
      </trkpt>
      <trkpt lat="44.95711" lon="5.39984">
        <ele>876</ele>
        <time>2022-09-22T10:25:17.843Z</time>
      </trkpt>
      <trkpt lat="44.95711" lon="5.39984">
        <ele>877</ele>
        <time>2022-09-22T10:25:18.843Z</time>
      </trkpt>
      <trkpt lat="44.95713" lon="5.39984">
        <ele>877</ele>
        <time>2022-09-22T10:25:19.842Z</time>
      </trkpt>
      <trkpt lat="44.95714" lon="5.39984">
        <ele>877</ele>
        <time>2022-09-22T10:25:20.843Z</time>
      </trkpt>
      <trkpt lat="44.95715" lon="5.39984">
        <ele>878</ele>
        <time>2022-09-22T10:25:21.843Z</time>
      </trkpt>
      <trkpt lat="44.95715" lon="5.39983">
        <ele>878</ele>
        <time>2022-09-22T10:25:22.842Z</time>
      </trkpt>
      <trkpt lat="44.95716" lon="5.39982">
        <ele>878</ele>
        <time>2022-09-22T10:25:23.843Z</time>
      </trkpt>
      <trkpt lat="44.95716" lon="5.39981">
        <ele>878</ele>
        <time>2022-09-22T10:25:24.843Z</time>
      </trkpt>
      <trkpt lat="44.95717" lon="5.3998">
        <ele>878</ele>
        <time>2022-09-22T10:25:25.843Z</time>
      </trkpt>
      <trkpt lat="44.95718" lon="5.39979">
        <ele>878</ele>
        <time>2022-09-22T10:25:26.843Z</time>
      </trkpt>
      <trkpt lat="44.95718" lon="5.39979">
        <ele>878</ele>
        <time>2022-09-22T10:25:27.843Z</time>
      </trkpt>
      <trkpt lat="44.95719" lon="5.39978">
        <ele>878</ele>
        <time>2022-09-22T10:25:28.843Z</time>
      </trkpt>
      <trkpt lat="44.95719" lon="5.39979">
        <ele>878</ele>
        <time>2022-09-22T10:25:29.842Z</time>
      </trkpt>
      <trkpt lat="44.95719" lon="5.39978">
        <ele>876</ele>
        <time>2022-09-22T10:25:40.861Z</time>
      </trkpt>
      <trkpt lat="44.95723" lon="5.39973">
        <ele>878</ele>
        <time>2022-09-22T10:26:11.739Z</time>
      </trkpt>
      <trkpt lat="44.95725" lon="5.39972">
        <ele>878</ele>
        <time>2022-09-22T10:26:12.738Z</time>
      </trkpt>
      <trkpt lat="44.95726" lon="5.39971">
        <ele>878</ele>
        <time>2022-09-22T10:26:13.738Z</time>
      </trkpt>
      <trkpt lat="44.95727" lon="5.39971">
        <ele>879</ele>
        <time>2022-09-22T10:26:14.739Z</time>
      </trkpt>
      <trkpt lat="44.95728" lon="5.3997">
        <ele>879</ele>
        <time>2022-09-22T10:26:15.739Z</time>
      </trkpt>
      <trkpt lat="44.95728" lon="5.3997">
        <ele>879</ele>
        <time>2022-09-22T10:26:16.739Z</time>
      </trkpt>
      <trkpt lat="44.95729" lon="5.39969">
        <ele>880</ele>
        <time>2022-09-22T10:26:17.739Z</time>
      </trkpt>
      <trkpt lat="44.9573" lon="5.39967">
        <ele>880</ele>
        <time>2022-09-22T10:26:18.739Z</time>
      </trkpt>
      <trkpt lat="44.95731" lon="5.39966">
        <ele>880</ele>
        <time>2022-09-22T10:26:19.739Z</time>
      </trkpt>
      <trkpt lat="44.95731" lon="5.39965">
        <ele>880</ele>
        <time>2022-09-22T10:26:20.739Z</time>
      </trkpt>
      <trkpt lat="44.95731" lon="5.39964">
        <ele>880</ele>
        <time>2022-09-22T10:26:21.739Z</time>
      </trkpt>
      <trkpt lat="44.95731" lon="5.39963">
        <ele>880</ele>
        <time>2022-09-22T10:26:22.739Z</time>
      </trkpt>
      <trkpt lat="44.95731" lon="5.39963">
        <ele>881</ele>
        <time>2022-09-22T10:26:23.738Z</time>
      </trkpt>
      <trkpt lat="44.9573" lon="5.39962">
        <ele>880</ele>
        <time>2022-09-22T10:26:24.738Z</time>
      </trkpt>
      <trkpt lat="44.9573" lon="5.39962">
        <ele>880</ele>
        <time>2022-09-22T10:26:25.738Z</time>
      </trkpt>
      <trkpt lat="44.9573" lon="5.39961">
        <ele>880</ele>
        <time>2022-09-22T10:26:26.738Z</time>
      </trkpt>
      <trkpt lat="44.9573" lon="5.39961">
        <ele>880</ele>
        <time>2022-09-22T10:26:27.739Z</time>
      </trkpt>
      <trkpt lat="44.9573" lon="5.39961">
        <ele>880</ele>
        <time>2022-09-22T10:26:28.739Z</time>
      </trkpt>
      <trkpt lat="44.95729" lon="5.39961">
        <ele>879</ele>
        <time>2022-09-22T10:26:29.739Z</time>
      </trkpt>
      <trkpt lat="44.95729" lon="5.39961">
        <ele>878</ele>
        <time>2022-09-22T10:26:30.739Z</time>
      </trkpt>
      <trkpt lat="44.95729" lon="5.39961">
        <ele>878</ele>
        <time>2022-09-22T10:26:31.739Z</time>
      </trkpt>
      <trkpt lat="44.95728" lon="5.39961">
        <ele>877</ele>
        <time>2022-09-22T10:26:35.859Z</time>
      </trkpt>
      <trkpt lat="44.95727" lon="5.39961">
        <ele>877</ele>
        <time>2022-09-22T10:26:36.859Z</time>
      </trkpt>
      <trkpt lat="44.95725" lon="5.39961">
        <ele>877</ele>
        <time>2022-09-22T10:26:37.858Z</time>
      </trkpt>
      <trkpt lat="44.95724" lon="5.39962">
        <ele>878</ele>
        <time>2022-09-22T10:26:38.858Z</time>
      </trkpt>
      <trkpt lat="44.95722" lon="5.39962">
        <ele>878</ele>
        <time>2022-09-22T10:26:39.859Z</time>
      </trkpt>
      <trkpt lat="44.9572" lon="5.39961">
        <ele>878</ele>
        <time>2022-09-22T10:26:40.859Z</time>
      </trkpt>
      <trkpt lat="44.95719" lon="5.39961">
        <ele>879</ele>
        <time>2022-09-22T10:26:41.859Z</time>
      </trkpt>
      <trkpt lat="44.95717" lon="5.39961">
        <ele>879</ele>
        <time>2022-09-22T10:26:42.859Z</time>
      </trkpt>
      <trkpt lat="44.95716" lon="5.39961">
        <ele>879</ele>
        <time>2022-09-22T10:26:43.858Z</time>
      </trkpt>
      <trkpt lat="44.95715" lon="5.39961">
        <ele>879</ele>
        <time>2022-09-22T10:26:44.858Z</time>
      </trkpt>
      <trkpt lat="44.95714" lon="5.3996">
        <ele>878</ele>
        <time>2022-09-22T10:26:45.859Z</time>
      </trkpt>
      <trkpt lat="44.95712" lon="5.3996">
        <ele>878</ele>
        <time>2022-09-22T10:26:46.859Z</time>
      </trkpt>
      <trkpt lat="44.95711" lon="5.3996">
        <ele>878</ele>
        <time>2022-09-22T10:26:47.858Z</time>
      </trkpt>
      <trkpt lat="44.9571" lon="5.39959">
        <ele>878</ele>
        <time>2022-09-22T10:26:48.859Z</time>
      </trkpt>
      <trkpt lat="44.95709" lon="5.39959">
        <ele>878</ele>
        <time>2022-09-22T10:26:49.859Z</time>
      </trkpt>
      <trkpt lat="44.95708" lon="5.39958">
        <ele>879</ele>
        <time>2022-09-22T10:26:50.858Z</time>
      </trkpt>
      <trkpt lat="44.95706" lon="5.39958">
        <ele>879</ele>
        <time>2022-09-22T10:26:51.858Z</time>
      </trkpt>
      <trkpt lat="44.95704" lon="5.39957">
        <ele>878</ele>
        <time>2022-09-22T10:26:52.859Z</time>
      </trkpt>
      <trkpt lat="44.95702" lon="5.39956">
        <ele>878</ele>
        <time>2022-09-22T10:26:53.858Z</time>
      </trkpt>
      <trkpt lat="44.95701" lon="5.39956">
        <ele>878</ele>
        <time>2022-09-22T10:26:54.859Z</time>
      </trkpt>
      <trkpt lat="44.95699" lon="5.39956">
        <ele>878</ele>
        <time>2022-09-22T10:26:55.858Z</time>
      </trkpt>
      <trkpt lat="44.95697" lon="5.39956">
        <ele>878</ele>
        <time>2022-09-22T10:26:56.859Z</time>
      </trkpt>
      <trkpt lat="44.95695" lon="5.39955">
        <ele>878</ele>
        <time>2022-09-22T10:26:57.858Z</time>
      </trkpt>
      <trkpt lat="44.95693" lon="5.39955">
        <ele>879</ele>
        <time>2022-09-22T10:26:58.859Z</time>
      </trkpt>
      <trkpt lat="44.95691" lon="5.39954">
        <ele>879</ele>
        <time>2022-09-22T10:26:59.859Z</time>
      </trkpt>
      <trkpt lat="44.95689" lon="5.39954">
        <ele>879</ele>
        <time>2022-09-22T10:27:00.859Z</time>
      </trkpt>
      <trkpt lat="44.95687" lon="5.39954">
        <ele>880</ele>
        <time>2022-09-22T10:27:01.859Z</time>
      </trkpt>
      <trkpt lat="44.95685" lon="5.39954">
        <ele>880</ele>
        <time>2022-09-22T10:27:02.859Z</time>
      </trkpt>
      <trkpt lat="44.95684" lon="5.39953">
        <ele>880</ele>
        <time>2022-09-22T10:27:03.859Z</time>
      </trkpt>
      <trkpt lat="44.95682" lon="5.39954">
        <ele>880</ele>
        <time>2022-09-22T10:27:04.859Z</time>
      </trkpt>
      <trkpt lat="44.9568" lon="5.39954">
        <ele>880</ele>
        <time>2022-09-22T10:27:05.859Z</time>
      </trkpt>
      <trkpt lat="44.95678" lon="5.39954">
        <ele>880</ele>
        <time>2022-09-22T10:27:06.859Z</time>
      </trkpt>
      <trkpt lat="44.95676" lon="5.39954">
        <ele>880</ele>
        <time>2022-09-22T10:27:07.859Z</time>
      </trkpt>
      <trkpt lat="44.95675" lon="5.39954">
        <ele>880</ele>
        <time>2022-09-22T10:27:08.858Z</time>
      </trkpt>
      <trkpt lat="44.95673" lon="5.39953">
        <ele>881</ele>
        <time>2022-09-22T10:27:09.859Z</time>
      </trkpt>
      <trkpt lat="44.95671" lon="5.39953">
        <ele>881</ele>
        <time>2022-09-22T10:27:10.858Z</time>
      </trkpt>
      <trkpt lat="44.95669" lon="5.39952">
        <ele>881</ele>
        <time>2022-09-22T10:27:11.859Z</time>
      </trkpt>
      <trkpt lat="44.95667" lon="5.39952">
        <ele>881</ele>
        <time>2022-09-22T10:27:12.859Z</time>
      </trkpt>
      <trkpt lat="44.95666" lon="5.39952">
        <ele>880</ele>
        <time>2022-09-22T10:27:13.859Z</time>
      </trkpt>
      <trkpt lat="44.95664" lon="5.39951">
        <ele>881</ele>
        <time>2022-09-22T10:27:14.859Z</time>
      </trkpt>
      <trkpt lat="44.95663" lon="5.39951">
        <ele>881</ele>
        <time>2022-09-22T10:27:15.859Z</time>
      </trkpt>
      <trkpt lat="44.95662" lon="5.39951">
        <ele>881</ele>
        <time>2022-09-22T10:27:16.859Z</time>
      </trkpt>
      <trkpt lat="44.95661" lon="5.39951">
        <ele>881</ele>
        <time>2022-09-22T10:27:17.859Z</time>
      </trkpt>
      <trkpt lat="44.95658" lon="5.39952">
        <ele>881</ele>
        <time>2022-09-22T10:27:18.859Z</time>
      </trkpt>
      <trkpt lat="44.95656" lon="5.39952">
        <ele>880</ele>
        <time>2022-09-22T10:27:19.859Z</time>
      </trkpt>
      <trkpt lat="44.95654" lon="5.39953">
        <ele>880</ele>
        <time>2022-09-22T10:27:20.858Z</time>
      </trkpt>
      <trkpt lat="44.95652" lon="5.39953">
        <ele>880</ele>
        <time>2022-09-22T10:27:21.859Z</time>
      </trkpt>
      <trkpt lat="44.9565" lon="5.39953">
        <ele>881</ele>
        <time>2022-09-22T10:27:22.859Z</time>
      </trkpt>
      <trkpt lat="44.95648" lon="5.39953">
        <ele>881</ele>
        <time>2022-09-22T10:27:23.859Z</time>
      </trkpt>
      <trkpt lat="44.95646" lon="5.39953">
        <ele>881</ele>
        <time>2022-09-22T10:27:24.858Z</time>
      </trkpt>
      <trkpt lat="44.95644" lon="5.39953">
        <ele>881</ele>
        <time>2022-09-22T10:27:25.859Z</time>
      </trkpt>
      <trkpt lat="44.95642" lon="5.39953">
        <ele>881</ele>
        <time>2022-09-22T10:27:26.859Z</time>
      </trkpt>
      <trkpt lat="44.9564" lon="5.39953">
        <ele>881</ele>
        <time>2022-09-22T10:27:27.859Z</time>
      </trkpt>
      <trkpt lat="44.95638" lon="5.39953">
        <ele>881</ele>
        <time>2022-09-22T10:27:28.858Z</time>
      </trkpt>
      <trkpt lat="44.95637" lon="5.39953">
        <ele>881</ele>
        <time>2022-09-22T10:27:29.859Z</time>
      </trkpt>
      <trkpt lat="44.95635" lon="5.39952">
        <ele>881</ele>
        <time>2022-09-22T10:27:30.859Z</time>
      </trkpt>
      <trkpt lat="44.95633" lon="5.39952">
        <ele>881</ele>
        <time>2022-09-22T10:27:31.859Z</time>
      </trkpt>
      <trkpt lat="44.95632" lon="5.39951">
        <ele>881</ele>
        <time>2022-09-22T10:27:32.859Z</time>
      </trkpt>
      <trkpt lat="44.9563" lon="5.39951">
        <ele>881</ele>
        <time>2022-09-22T10:27:33.859Z</time>
      </trkpt>
      <trkpt lat="44.95628" lon="5.3995">
        <ele>881</ele>
        <time>2022-09-22T10:27:34.859Z</time>
      </trkpt>
      <trkpt lat="44.95627" lon="5.39949">
        <ele>881</ele>
        <time>2022-09-22T10:27:35.859Z</time>
      </trkpt>
      <trkpt lat="44.95625" lon="5.39948">
        <ele>881</ele>
        <time>2022-09-22T10:27:36.859Z</time>
      </trkpt>
      <trkpt lat="44.95624" lon="5.39947">
        <ele>881</ele>
        <time>2022-09-22T10:27:37.859Z</time>
      </trkpt>
      <trkpt lat="44.95622" lon="5.39946">
        <ele>881</ele>
        <time>2022-09-22T10:27:38.859Z</time>
      </trkpt>
      <trkpt lat="44.9562" lon="5.39946">
        <ele>880</ele>
        <time>2022-09-22T10:27:39.859Z</time>
      </trkpt>
      <trkpt lat="44.95619" lon="5.39945">
        <ele>880</ele>
        <time>2022-09-22T10:27:40.859Z</time>
      </trkpt>
      <trkpt lat="44.95617" lon="5.39945">
        <ele>880</ele>
        <time>2022-09-22T10:27:41.859Z</time>
      </trkpt>
      <trkpt lat="44.95616" lon="5.39944">
        <ele>880</ele>
        <time>2022-09-22T10:27:42.859Z</time>
      </trkpt>
      <trkpt lat="44.95614" lon="5.39944">
        <ele>881</ele>
        <time>2022-09-22T10:27:43.858Z</time>
      </trkpt>
      <trkpt lat="44.95613" lon="5.39944">
        <ele>881</ele>
        <time>2022-09-22T10:27:44.859Z</time>
      </trkpt>
      <trkpt lat="44.95611" lon="5.39943">
        <ele>881</ele>
        <time>2022-09-22T10:27:45.859Z</time>
      </trkpt>
      <trkpt lat="44.95609" lon="5.39942">
        <ele>881</ele>
        <time>2022-09-22T10:27:46.858Z</time>
      </trkpt>
      <trkpt lat="44.95607" lon="5.39941">
        <ele>882</ele>
        <time>2022-09-22T10:27:47.858Z</time>
      </trkpt>
      <trkpt lat="44.95606" lon="5.3994">
        <ele>883</ele>
        <time>2022-09-22T10:27:48.859Z</time>
      </trkpt>
      <trkpt lat="44.95605" lon="5.39939">
        <ele>883</ele>
        <time>2022-09-22T10:27:49.859Z</time>
      </trkpt>
      <trkpt lat="44.95603" lon="5.39938">
        <ele>884</ele>
        <time>2022-09-22T10:27:50.859Z</time>
      </trkpt>
      <trkpt lat="44.95602" lon="5.39936">
        <ele>885</ele>
        <time>2022-09-22T10:27:51.859Z</time>
      </trkpt>
      <trkpt lat="44.956" lon="5.39935">
        <ele>885</ele>
        <time>2022-09-22T10:27:52.859Z</time>
      </trkpt>
      <trkpt lat="44.95599" lon="5.39934">
        <ele>886</ele>
        <time>2022-09-22T10:27:53.858Z</time>
      </trkpt>
      <trkpt lat="44.95598" lon="5.39934">
        <ele>886</ele>
        <time>2022-09-22T10:27:54.858Z</time>
      </trkpt>
      <trkpt lat="44.95596" lon="5.39934">
        <ele>886</ele>
        <time>2022-09-22T10:27:55.859Z</time>
      </trkpt>
      <trkpt lat="44.95595" lon="5.39935">
        <ele>886</ele>
        <time>2022-09-22T10:27:56.859Z</time>
      </trkpt>
      <trkpt lat="44.95593" lon="5.39936">
        <ele>886</ele>
        <time>2022-09-22T10:27:57.859Z</time>
      </trkpt>
      <trkpt lat="44.95591" lon="5.39936">
        <ele>886</ele>
        <time>2022-09-22T10:27:58.859Z</time>
      </trkpt>
      <trkpt lat="44.9559" lon="5.39937">
        <ele>886</ele>
        <time>2022-09-22T10:27:59.859Z</time>
      </trkpt>
      <trkpt lat="44.95587" lon="5.39937">
        <ele>886</ele>
        <time>2022-09-22T10:28:00.859Z</time>
      </trkpt>
      <trkpt lat="44.95585" lon="5.39937">
        <ele>886</ele>
        <time>2022-09-22T10:28:01.859Z</time>
      </trkpt>
      <trkpt lat="44.95584" lon="5.39937">
        <ele>886</ele>
        <time>2022-09-22T10:28:02.858Z</time>
      </trkpt>
      <trkpt lat="44.95581" lon="5.39937">
        <ele>885</ele>
        <time>2022-09-22T10:28:03.859Z</time>
      </trkpt>
      <trkpt lat="44.95578" lon="5.39936">
        <ele>885</ele>
        <time>2022-09-22T10:28:04.859Z</time>
      </trkpt>
      <trkpt lat="44.95576" lon="5.39936">
        <ele>885</ele>
        <time>2022-09-22T10:28:05.859Z</time>
      </trkpt>
      <trkpt lat="44.95574" lon="5.39935">
        <ele>885</ele>
        <time>2022-09-22T10:28:06.858Z</time>
      </trkpt>
      <trkpt lat="44.95573" lon="5.39934">
        <ele>885</ele>
        <time>2022-09-22T10:28:07.858Z</time>
      </trkpt>
      <trkpt lat="44.95571" lon="5.39933">
        <ele>885</ele>
        <time>2022-09-22T10:28:08.858Z</time>
      </trkpt>
      <trkpt lat="44.95569" lon="5.39932">
        <ele>885</ele>
        <time>2022-09-22T10:28:09.858Z</time>
      </trkpt>
      <trkpt lat="44.95567" lon="5.39931">
        <ele>885</ele>
        <time>2022-09-22T10:28:10.858Z</time>
      </trkpt>
      <trkpt lat="44.95565" lon="5.39931">
        <ele>885</ele>
        <time>2022-09-22T10:28:11.859Z</time>
      </trkpt>
      <trkpt lat="44.95563" lon="5.3993">
        <ele>884</ele>
        <time>2022-09-22T10:28:12.858Z</time>
      </trkpt>
      <trkpt lat="44.95561" lon="5.39929">
        <ele>884</ele>
        <time>2022-09-22T10:28:13.859Z</time>
      </trkpt>
      <trkpt lat="44.9556" lon="5.39929">
        <ele>884</ele>
        <time>2022-09-22T10:28:14.858Z</time>
      </trkpt>
      <trkpt lat="44.95558" lon="5.39928">
        <ele>884</ele>
        <time>2022-09-22T10:28:15.859Z</time>
      </trkpt>
      <trkpt lat="44.95556" lon="5.39927">
        <ele>884</ele>
        <time>2022-09-22T10:28:16.859Z</time>
      </trkpt>
      <trkpt lat="44.95554" lon="5.39926">
        <ele>884</ele>
        <time>2022-09-22T10:28:17.858Z</time>
      </trkpt>
      <trkpt lat="44.95553" lon="5.39925">
        <ele>884</ele>
        <time>2022-09-22T10:28:18.859Z</time>
      </trkpt>
      <trkpt lat="44.95551" lon="5.39923">
        <ele>884</ele>
        <time>2022-09-22T10:28:19.859Z</time>
      </trkpt>
      <trkpt lat="44.95549" lon="5.39921">
        <ele>885</ele>
        <time>2022-09-22T10:28:20.858Z</time>
      </trkpt>
      <trkpt lat="44.95548" lon="5.3992">
        <ele>885</ele>
        <time>2022-09-22T10:28:21.858Z</time>
      </trkpt>
      <trkpt lat="44.95546" lon="5.39919">
        <ele>885</ele>
        <time>2022-09-22T10:28:22.859Z</time>
      </trkpt>
      <trkpt lat="44.95544" lon="5.39918">
        <ele>885</ele>
        <time>2022-09-22T10:28:23.859Z</time>
      </trkpt>
      <trkpt lat="44.95542" lon="5.39917">
        <ele>885</ele>
        <time>2022-09-22T10:28:24.858Z</time>
      </trkpt>
      <trkpt lat="44.95541" lon="5.39916">
        <ele>885</ele>
        <time>2022-09-22T10:28:25.858Z</time>
      </trkpt>
      <trkpt lat="44.95539" lon="5.39915">
        <ele>885</ele>
        <time>2022-09-22T10:28:26.858Z</time>
      </trkpt>
      <trkpt lat="44.95536" lon="5.39913">
        <ele>885</ele>
        <time>2022-09-22T10:28:27.859Z</time>
      </trkpt>
      <trkpt lat="44.95535" lon="5.39912">
        <ele>885</ele>
        <time>2022-09-22T10:28:28.858Z</time>
      </trkpt>
      <trkpt lat="44.95532" lon="5.39911">
        <ele>885</ele>
        <time>2022-09-22T10:28:29.858Z</time>
      </trkpt>
      <trkpt lat="44.9553" lon="5.3991">
        <ele>885</ele>
        <time>2022-09-22T10:28:30.858Z</time>
      </trkpt>
      <trkpt lat="44.95528" lon="5.39909">
        <ele>885</ele>
        <time>2022-09-22T10:28:31.858Z</time>
      </trkpt>
      <trkpt lat="44.95525" lon="5.39907">
        <ele>885</ele>
        <time>2022-09-22T10:28:32.859Z</time>
      </trkpt>
      <trkpt lat="44.95523" lon="5.39906">
        <ele>885</ele>
        <time>2022-09-22T10:28:33.859Z</time>
      </trkpt>
      <trkpt lat="44.95521" lon="5.39906">
        <ele>885</ele>
        <time>2022-09-22T10:28:34.859Z</time>
      </trkpt>
      <trkpt lat="44.95519" lon="5.39904">
        <ele>886</ele>
        <time>2022-09-22T10:28:35.858Z</time>
      </trkpt>
      <trkpt lat="44.95516" lon="5.39903">
        <ele>886</ele>
        <time>2022-09-22T10:28:36.858Z</time>
      </trkpt>
      <trkpt lat="44.95514" lon="5.39901">
        <ele>886</ele>
        <time>2022-09-22T10:28:37.859Z</time>
      </trkpt>
      <trkpt lat="44.95512" lon="5.399">
        <ele>886</ele>
        <time>2022-09-22T10:28:38.859Z</time>
      </trkpt>
      <trkpt lat="44.9551" lon="5.39899">
        <ele>886</ele>
        <time>2022-09-22T10:28:39.859Z</time>
      </trkpt>
      <trkpt lat="44.95508" lon="5.39897">
        <ele>886</ele>
        <time>2022-09-22T10:28:40.859Z</time>
      </trkpt>
      <trkpt lat="44.95505" lon="5.39896">
        <ele>886</ele>
        <time>2022-09-22T10:28:41.858Z</time>
      </trkpt>
      <trkpt lat="44.95503" lon="5.39895">
        <ele>886</ele>
        <time>2022-09-22T10:28:42.859Z</time>
      </trkpt>
      <trkpt lat="44.95501" lon="5.39893">
        <ele>886</ele>
        <time>2022-09-22T10:28:43.858Z</time>
      </trkpt>
      <trkpt lat="44.955" lon="5.39892">
        <ele>887</ele>
        <time>2022-09-22T10:28:44.858Z</time>
      </trkpt>
      <trkpt lat="44.95498" lon="5.39891">
        <ele>887</ele>
        <time>2022-09-22T10:28:45.859Z</time>
      </trkpt>
      <trkpt lat="44.95495" lon="5.39889">
        <ele>887</ele>
        <time>2022-09-22T10:28:46.858Z</time>
      </trkpt>
      <trkpt lat="44.95493" lon="5.39887">
        <ele>887</ele>
        <time>2022-09-22T10:28:47.858Z</time>
      </trkpt>
      <trkpt lat="44.95492" lon="5.39886">
        <ele>887</ele>
        <time>2022-09-22T10:28:48.859Z</time>
      </trkpt>
      <trkpt lat="44.9549" lon="5.39884">
        <ele>886</ele>
        <time>2022-09-22T10:28:49.859Z</time>
      </trkpt>
      <trkpt lat="44.95488" lon="5.39883">
        <ele>886</ele>
        <time>2022-09-22T10:28:50.858Z</time>
      </trkpt>
      <trkpt lat="44.95486" lon="5.39881">
        <ele>885</ele>
        <time>2022-09-22T10:28:51.858Z</time>
      </trkpt>
      <trkpt lat="44.95484" lon="5.3988">
        <ele>885</ele>
        <time>2022-09-22T10:28:52.858Z</time>
      </trkpt>
      <trkpt lat="44.95483" lon="5.39879">
        <ele>885</ele>
        <time>2022-09-22T10:28:53.858Z</time>
      </trkpt>
      <trkpt lat="44.95481" lon="5.39877">
        <ele>885</ele>
        <time>2022-09-22T10:28:54.858Z</time>
      </trkpt>
      <trkpt lat="44.9548" lon="5.39876">
        <ele>885</ele>
        <time>2022-09-22T10:28:55.859Z</time>
      </trkpt>
      <trkpt lat="44.95478" lon="5.39875">
        <ele>885</ele>
        <time>2022-09-22T10:28:56.859Z</time>
      </trkpt>
      <trkpt lat="44.95477" lon="5.39874">
        <ele>885</ele>
        <time>2022-09-22T10:28:57.859Z</time>
      </trkpt>
      <trkpt lat="44.95475" lon="5.39873">
        <ele>886</ele>
        <time>2022-09-22T10:28:58.859Z</time>
      </trkpt>
      <trkpt lat="44.95473" lon="5.39872">
        <ele>886</ele>
        <time>2022-09-22T10:28:59.858Z</time>
      </trkpt>
      <trkpt lat="44.95472" lon="5.3987">
        <ele>887</ele>
        <time>2022-09-22T10:29:00.859Z</time>
      </trkpt>
      <trkpt lat="44.9547" lon="5.39868">
        <ele>887</ele>
        <time>2022-09-22T10:29:01.859Z</time>
      </trkpt>
      <trkpt lat="44.95469" lon="5.39867">
        <ele>887</ele>
        <time>2022-09-22T10:29:02.858Z</time>
      </trkpt>
      <trkpt lat="44.95467" lon="5.39866">
        <ele>888</ele>
        <time>2022-09-22T10:29:03.859Z</time>
      </trkpt>
      <trkpt lat="44.95465" lon="5.39864">
        <ele>888</ele>
        <time>2022-09-22T10:29:04.858Z</time>
      </trkpt>
      <trkpt lat="44.95464" lon="5.39863">
        <ele>888</ele>
        <time>2022-09-22T10:29:05.859Z</time>
      </trkpt>
      <trkpt lat="44.95463" lon="5.39862">
        <ele>887</ele>
        <time>2022-09-22T10:29:06.858Z</time>
      </trkpt>
      <trkpt lat="44.95461" lon="5.39862">
        <ele>888</ele>
        <time>2022-09-22T10:29:07.859Z</time>
      </trkpt>
      <trkpt lat="44.9546" lon="5.39861">
        <ele>888</ele>
        <time>2022-09-22T10:29:08.859Z</time>
      </trkpt>
      <trkpt lat="44.95459" lon="5.39859">
        <ele>889</ele>
        <time>2022-09-22T10:29:09.858Z</time>
      </trkpt>
      <trkpt lat="44.95457" lon="5.39858">
        <ele>889</ele>
        <time>2022-09-22T10:29:10.858Z</time>
      </trkpt>
      <trkpt lat="44.95456" lon="5.39858">
        <ele>890</ele>
        <time>2022-09-22T10:29:11.859Z</time>
      </trkpt>
      <trkpt lat="44.95455" lon="5.39857">
        <ele>891</ele>
        <time>2022-09-22T10:29:12.858Z</time>
      </trkpt>
      <trkpt lat="44.95453" lon="5.39856">
        <ele>891</ele>
        <time>2022-09-22T10:29:13.859Z</time>
      </trkpt>
      <trkpt lat="44.95451" lon="5.39856">
        <ele>892</ele>
        <time>2022-09-22T10:29:14.858Z</time>
      </trkpt>
      <trkpt lat="44.95449" lon="5.39855">
        <ele>892</ele>
        <time>2022-09-22T10:29:15.858Z</time>
      </trkpt>
      <trkpt lat="44.95448" lon="5.39855">
        <ele>893</ele>
        <time>2022-09-22T10:29:16.859Z</time>
      </trkpt>
      <trkpt lat="44.95445" lon="5.39854">
        <ele>893</ele>
        <time>2022-09-22T10:29:17.859Z</time>
      </trkpt>
      <trkpt lat="44.95444" lon="5.39853">
        <ele>894</ele>
        <time>2022-09-22T10:29:18.858Z</time>
      </trkpt>
      <trkpt lat="44.95442" lon="5.39852">
        <ele>894</ele>
        <time>2022-09-22T10:29:19.859Z</time>
      </trkpt>
      <trkpt lat="44.9544" lon="5.39851">
        <ele>895</ele>
        <time>2022-09-22T10:29:20.858Z</time>
      </trkpt>
      <trkpt lat="44.95439" lon="5.3985">
        <ele>895</ele>
        <time>2022-09-22T10:29:21.858Z</time>
      </trkpt>
      <trkpt lat="44.95436" lon="5.39849">
        <ele>895</ele>
        <time>2022-09-22T10:29:22.858Z</time>
      </trkpt>
      <trkpt lat="44.95434" lon="5.39849">
        <ele>896</ele>
        <time>2022-09-22T10:29:23.859Z</time>
      </trkpt>
      <trkpt lat="44.95432" lon="5.39848">
        <ele>896</ele>
        <time>2022-09-22T10:29:24.858Z</time>
      </trkpt>
      <trkpt lat="44.95431" lon="5.39848">
        <ele>896</ele>
        <time>2022-09-22T10:29:25.859Z</time>
      </trkpt>
      <trkpt lat="44.95428" lon="5.39848">
        <ele>896</ele>
        <time>2022-09-22T10:29:26.858Z</time>
      </trkpt>
      <trkpt lat="44.95427" lon="5.39848">
        <ele>895</ele>
        <time>2022-09-22T10:29:27.858Z</time>
      </trkpt>
      <trkpt lat="44.95425" lon="5.39848">
        <ele>895</ele>
        <time>2022-09-22T10:29:28.858Z</time>
      </trkpt>
      <trkpt lat="44.95423" lon="5.39848">
        <ele>895</ele>
        <time>2022-09-22T10:29:29.859Z</time>
      </trkpt>
      <trkpt lat="44.95422" lon="5.39848">
        <ele>895</ele>
        <time>2022-09-22T10:29:30.859Z</time>
      </trkpt>
      <trkpt lat="44.9542" lon="5.39848">
        <ele>895</ele>
        <time>2022-09-22T10:29:31.859Z</time>
      </trkpt>
      <trkpt lat="44.95418" lon="5.39848">
        <ele>895</ele>
        <time>2022-09-22T10:29:32.859Z</time>
      </trkpt>
      <trkpt lat="44.95416" lon="5.39847">
        <ele>895</ele>
        <time>2022-09-22T10:29:33.859Z</time>
      </trkpt>
      <trkpt lat="44.95415" lon="5.39847">
        <ele>895</ele>
        <time>2022-09-22T10:29:34.859Z</time>
      </trkpt>
      <trkpt lat="44.95412" lon="5.39847">
        <ele>895</ele>
        <time>2022-09-22T10:29:35.859Z</time>
      </trkpt>
      <trkpt lat="44.9541" lon="5.39846">
        <ele>895</ele>
        <time>2022-09-22T10:29:36.859Z</time>
      </trkpt>
      <trkpt lat="44.95409" lon="5.39846">
        <ele>895</ele>
        <time>2022-09-22T10:29:37.859Z</time>
      </trkpt>
      <trkpt lat="44.95408" lon="5.39846">
        <ele>895</ele>
        <time>2022-09-22T10:29:38.859Z</time>
      </trkpt>
      <trkpt lat="44.95406" lon="5.39846">
        <ele>895</ele>
        <time>2022-09-22T10:29:39.859Z</time>
      </trkpt>
      <trkpt lat="44.95405" lon="5.39846">
        <ele>895</ele>
        <time>2022-09-22T10:29:40.859Z</time>
      </trkpt>
      <trkpt lat="44.95403" lon="5.39846">
        <ele>896</ele>
        <time>2022-09-22T10:29:41.859Z</time>
      </trkpt>
      <trkpt lat="44.95402" lon="5.39845">
        <ele>896</ele>
        <time>2022-09-22T10:29:42.858Z</time>
      </trkpt>
      <trkpt lat="44.95401" lon="5.39845">
        <ele>896</ele>
        <time>2022-09-22T10:29:43.859Z</time>
      </trkpt>
      <trkpt lat="44.95399" lon="5.39844">
        <ele>896</ele>
        <time>2022-09-22T10:29:44.859Z</time>
      </trkpt>
      <trkpt lat="44.95398" lon="5.39844">
        <ele>896</ele>
        <time>2022-09-22T10:29:45.858Z</time>
      </trkpt>
      <trkpt lat="44.95397" lon="5.39844">
        <ele>896</ele>
        <time>2022-09-22T10:29:46.858Z</time>
      </trkpt>
      <trkpt lat="44.95395" lon="5.39845">
        <ele>896</ele>
        <time>2022-09-22T10:29:47.858Z</time>
      </trkpt>
      <trkpt lat="44.95394" lon="5.39845">
        <ele>896</ele>
        <time>2022-09-22T10:29:48.858Z</time>
      </trkpt>
      <trkpt lat="44.95392" lon="5.39845">
        <ele>896</ele>
        <time>2022-09-22T10:29:49.859Z</time>
      </trkpt>
      <trkpt lat="44.95391" lon="5.39844">
        <ele>896</ele>
        <time>2022-09-22T10:29:50.859Z</time>
      </trkpt>
      <trkpt lat="44.9539" lon="5.39844">
        <ele>896</ele>
        <time>2022-09-22T10:29:51.858Z</time>
      </trkpt>
      <trkpt lat="44.95388" lon="5.39844">
        <ele>896</ele>
        <time>2022-09-22T10:29:52.859Z</time>
      </trkpt>
      <trkpt lat="44.95386" lon="5.39843">
        <ele>896</ele>
        <time>2022-09-22T10:29:53.859Z</time>
      </trkpt>
      <trkpt lat="44.95385" lon="5.39843">
        <ele>896</ele>
        <time>2022-09-22T10:29:54.859Z</time>
      </trkpt>
      <trkpt lat="44.95383" lon="5.39843">
        <ele>896</ele>
        <time>2022-09-22T10:29:55.858Z</time>
      </trkpt>
      <trkpt lat="44.95382" lon="5.39843">
        <ele>896</ele>
        <time>2022-09-22T10:29:56.859Z</time>
      </trkpt>
      <trkpt lat="44.95381" lon="5.39843">
        <ele>896</ele>
        <time>2022-09-22T10:29:57.859Z</time>
      </trkpt>
      <trkpt lat="44.95379" lon="5.39843">
        <ele>896</ele>
        <time>2022-09-22T10:29:58.858Z</time>
      </trkpt>
      <trkpt lat="44.95378" lon="5.39843">
        <ele>896</ele>
        <time>2022-09-22T10:29:59.859Z</time>
      </trkpt>
      <trkpt lat="44.95376" lon="5.39844">
        <ele>896</ele>
        <time>2022-09-22T10:30:00.858Z</time>
      </trkpt>
      <trkpt lat="44.95374" lon="5.39844">
        <ele>895</ele>
        <time>2022-09-22T10:30:01.859Z</time>
      </trkpt>
      <trkpt lat="44.95372" lon="5.39844">
        <ele>895</ele>
        <time>2022-09-22T10:30:02.859Z</time>
      </trkpt>
      <trkpt lat="44.9537" lon="5.39845">
        <ele>895</ele>
        <time>2022-09-22T10:30:03.859Z</time>
      </trkpt>
      <trkpt lat="44.95368" lon="5.39845">
        <ele>895</ele>
        <time>2022-09-22T10:30:04.859Z</time>
      </trkpt>
      <trkpt lat="44.95366" lon="5.39845">
        <ele>895</ele>
        <time>2022-09-22T10:30:05.858Z</time>
      </trkpt>
      <trkpt lat="44.95363" lon="5.39845">
        <ele>895</ele>
        <time>2022-09-22T10:30:06.859Z</time>
      </trkpt>
      <trkpt lat="44.95361" lon="5.39844">
        <ele>895</ele>
        <time>2022-09-22T10:30:07.858Z</time>
      </trkpt>
      <trkpt lat="44.95359" lon="5.39844">
        <ele>895</ele>
        <time>2022-09-22T10:30:08.859Z</time>
      </trkpt>
      <trkpt lat="44.95358" lon="5.39844">
        <ele>895</ele>
        <time>2022-09-22T10:30:09.859Z</time>
      </trkpt>
      <trkpt lat="44.95356" lon="5.39844">
        <ele>895</ele>
        <time>2022-09-22T10:30:10.858Z</time>
      </trkpt>
      <trkpt lat="44.95354" lon="5.39844">
        <ele>895</ele>
        <time>2022-09-22T10:30:11.859Z</time>
      </trkpt>
      <trkpt lat="44.95351" lon="5.39844">
        <ele>896</ele>
        <time>2022-09-22T10:30:12.859Z</time>
      </trkpt>
      <trkpt lat="44.95348" lon="5.39844">
        <ele>896</ele>
        <time>2022-09-22T10:30:13.859Z</time>
      </trkpt>
      <trkpt lat="44.95347" lon="5.39844">
        <ele>896</ele>
        <time>2022-09-22T10:30:14.859Z</time>
      </trkpt>
      <trkpt lat="44.95346" lon="5.39843">
        <ele>897</ele>
        <time>2022-09-22T10:30:15.858Z</time>
      </trkpt>
      <trkpt lat="44.95344" lon="5.39842">
        <ele>897</ele>
        <time>2022-09-22T10:30:16.858Z</time>
      </trkpt>
      <trkpt lat="44.95343" lon="5.39842">
        <ele>898</ele>
        <time>2022-09-22T10:30:17.859Z</time>
      </trkpt>
      <trkpt lat="44.95342" lon="5.3984">
        <ele>898</ele>
        <time>2022-09-22T10:30:18.858Z</time>
      </trkpt>
      <trkpt lat="44.95342" lon="5.3984">
        <ele>898</ele>
        <time>2022-09-22T10:30:19.859Z</time>
      </trkpt>
      <trkpt lat="44.95341" lon="5.3984">
        <ele>898</ele>
        <time>2022-09-22T10:30:20.859Z</time>
      </trkpt>
      <trkpt lat="44.95342" lon="5.39839">
        <ele>898</ele>
        <time>2022-09-22T10:30:26.976Z</time>
      </trkpt>
      <trkpt lat="44.95342" lon="5.39838">
        <ele>899</ele>
        <time>2022-09-22T10:30:27.976Z</time>
      </trkpt>
      <trkpt lat="44.95343" lon="5.39838">
        <ele>899</ele>
        <time>2022-09-22T10:30:28.975Z</time>
      </trkpt>
      <trkpt lat="44.95343" lon="5.39837">
        <ele>900</ele>
        <time>2022-09-22T10:30:29.975Z</time>
      </trkpt>
      <trkpt lat="44.95344" lon="5.39837">
        <ele>900</ele>
        <time>2022-09-22T10:30:30.976Z</time>
      </trkpt>
      <trkpt lat="44.95345" lon="5.39838">
        <ele>901</ele>
        <time>2022-09-22T10:30:31.975Z</time>
      </trkpt>
      <trkpt lat="44.95344" lon="5.39838">
        <ele>901</ele>
        <time>2022-09-22T10:30:32.976Z</time>
      </trkpt>
      <trkpt lat="44.95344" lon="5.39839">
        <ele>902</ele>
        <time>2022-09-22T10:30:33.976Z</time>
      </trkpt>
      <trkpt lat="44.95344" lon="5.39838">
        <ele>902</ele>
        <time>2022-09-22T10:30:34.976Z</time>
      </trkpt>
      <trkpt lat="44.95344" lon="5.39838">
        <ele>903</ele>
        <time>2022-09-22T10:30:35.976Z</time>
      </trkpt>
      <trkpt lat="44.95345" lon="5.39837">
        <ele>903</ele>
        <time>2022-09-22T10:30:36.976Z</time>
      </trkpt>
      <trkpt lat="44.95345" lon="5.39836">
        <ele>904</ele>
        <time>2022-09-22T10:30:37.976Z</time>
      </trkpt>
      <trkpt lat="44.95341" lon="5.39843">
        <ele>900</ele>
        <time>2022-09-22T10:31:42.995Z</time>
      </trkpt>
      <trkpt lat="44.95339" lon="5.39843">
        <ele>901</ele>
        <time>2022-09-22T10:31:43.996Z</time>
      </trkpt>
      <trkpt lat="44.95338" lon="5.39842">
        <ele>901</ele>
        <time>2022-09-22T10:31:44.995Z</time>
      </trkpt>
      <trkpt lat="44.95336" lon="5.39842">
        <ele>901</ele>
        <time>2022-09-22T10:31:45.996Z</time>
      </trkpt>
      <trkpt lat="44.95335" lon="5.39841">
        <ele>901</ele>
        <time>2022-09-22T10:31:46.996Z</time>
      </trkpt>
      <trkpt lat="44.95333" lon="5.39841">
        <ele>901</ele>
        <time>2022-09-22T10:31:47.996Z</time>
      </trkpt>
      <trkpt lat="44.95332" lon="5.3984">
        <ele>901</ele>
        <time>2022-09-22T10:31:48.996Z</time>
      </trkpt>
      <trkpt lat="44.95331" lon="5.3984">
        <ele>901</ele>
        <time>2022-09-22T10:31:49.996Z</time>
      </trkpt>
      <trkpt lat="44.95331" lon="5.3984">
        <ele>902</ele>
        <time>2022-09-22T10:31:50.995Z</time>
      </trkpt>
      <trkpt lat="44.95331" lon="5.39839">
        <ele>902</ele>
        <time>2022-09-22T10:31:51.995Z</time>
      </trkpt>
      <trkpt lat="44.9533" lon="5.39838">
        <ele>902</ele>
        <time>2022-09-22T10:31:52.995Z</time>
      </trkpt>
      <trkpt lat="44.9533" lon="5.39837">
        <ele>902</ele>
        <time>2022-09-22T10:31:53.996Z</time>
      </trkpt>
      <trkpt lat="44.95329" lon="5.39836">
        <ele>902</ele>
        <time>2022-09-22T10:31:54.996Z</time>
      </trkpt>
      <trkpt lat="44.95329" lon="5.39835">
        <ele>902</ele>
        <time>2022-09-22T10:31:55.996Z</time>
      </trkpt>
      <trkpt lat="44.95328" lon="5.39835">
        <ele>902</ele>
        <time>2022-09-22T10:31:56.995Z</time>
      </trkpt>
      <trkpt lat="44.95328" lon="5.39835">
        <ele>902</ele>
        <time>2022-09-22T10:31:57.996Z</time>
      </trkpt>
      <trkpt lat="44.95328" lon="5.39836">
        <ele>902</ele>
        <time>2022-09-22T10:31:58.995Z</time>
      </trkpt>
      <trkpt lat="44.95327" lon="5.39836">
        <ele>903</ele>
        <time>2022-09-22T10:31:59.996Z</time>
      </trkpt>
      <trkpt lat="44.95327" lon="5.39837">
        <ele>909</ele>
        <time>2022-09-22T10:32:08.120Z</time>
      </trkpt>
      <trkpt lat="44.95325" lon="5.39836">
        <ele>910</ele>
        <time>2022-09-22T10:32:09.120Z</time>
      </trkpt>
      <trkpt lat="44.95324" lon="5.39835">
        <ele>910</ele>
        <time>2022-09-22T10:32:10.120Z</time>
      </trkpt>
      <trkpt lat="44.95323" lon="5.39835">
        <ele>910</ele>
        <time>2022-09-22T10:32:11.120Z</time>
      </trkpt>
      <trkpt lat="44.95322" lon="5.39834">
        <ele>911</ele>
        <time>2022-09-22T10:32:12.120Z</time>
      </trkpt>
      <trkpt lat="44.9532" lon="5.39834">
        <ele>911</ele>
        <time>2022-09-22T10:32:13.120Z</time>
      </trkpt>
      <trkpt lat="44.95319" lon="5.39834">
        <ele>910</ele>
        <time>2022-09-22T10:32:14.120Z</time>
      </trkpt>
      <trkpt lat="44.95317" lon="5.39834">
        <ele>910</ele>
        <time>2022-09-22T10:32:15.120Z</time>
      </trkpt>
      <trkpt lat="44.95316" lon="5.39833">
        <ele>910</ele>
        <time>2022-09-22T10:32:16.120Z</time>
      </trkpt>
      <trkpt lat="44.95315" lon="5.39832">
        <ele>910</ele>
        <time>2022-09-22T10:32:17.120Z</time>
      </trkpt>
      <trkpt lat="44.95313" lon="5.39831">
        <ele>909</ele>
        <time>2022-09-22T10:32:18.120Z</time>
      </trkpt>
      <trkpt lat="44.95312" lon="5.3983">
        <ele>909</ele>
        <time>2022-09-22T10:32:19.120Z</time>
      </trkpt>
      <trkpt lat="44.95311" lon="5.39829">
        <ele>909</ele>
        <time>2022-09-22T10:32:20.120Z</time>
      </trkpt>
      <trkpt lat="44.9531" lon="5.39829">
        <ele>909</ele>
        <time>2022-09-22T10:32:21.120Z</time>
      </trkpt>
      <trkpt lat="44.95308" lon="5.39828">
        <ele>909</ele>
        <time>2022-09-22T10:32:22.120Z</time>
      </trkpt>
      <trkpt lat="44.95307" lon="5.39828">
        <ele>910</ele>
        <time>2022-09-22T10:32:23.120Z</time>
      </trkpt>
      <trkpt lat="44.95305" lon="5.39827">
        <ele>910</ele>
        <time>2022-09-22T10:32:24.120Z</time>
      </trkpt>
      <trkpt lat="44.95304" lon="5.39826">
        <ele>910</ele>
        <time>2022-09-22T10:32:25.120Z</time>
      </trkpt>
      <trkpt lat="44.95303" lon="5.39825">
        <ele>911</ele>
        <time>2022-09-22T10:32:26.120Z</time>
      </trkpt>
      <trkpt lat="44.95302" lon="5.39825">
        <ele>912</ele>
        <time>2022-09-22T10:32:27.119Z</time>
      </trkpt>
      <trkpt lat="44.953" lon="5.39824">
        <ele>913</ele>
        <time>2022-09-22T10:32:28.120Z</time>
      </trkpt>
      <trkpt lat="44.95299" lon="5.39823">
        <ele>913</ele>
        <time>2022-09-22T10:32:29.119Z</time>
      </trkpt>
      <trkpt lat="44.95298" lon="5.39823">
        <ele>914</ele>
        <time>2022-09-22T10:32:30.119Z</time>
      </trkpt>
      <trkpt lat="44.95297" lon="5.39823">
        <ele>915</ele>
        <time>2022-09-22T10:32:31.119Z</time>
      </trkpt>
      <trkpt lat="44.95296" lon="5.39823">
        <ele>915</ele>
        <time>2022-09-22T10:32:32.119Z</time>
      </trkpt>
      <trkpt lat="44.95295" lon="5.39822">
        <ele>915</ele>
        <time>2022-09-22T10:32:33.119Z</time>
      </trkpt>
      <trkpt lat="44.95293" lon="5.39822">
        <ele>915</ele>
        <time>2022-09-22T10:32:34.120Z</time>
      </trkpt>
      <trkpt lat="44.95291" lon="5.39822">
        <ele>915</ele>
        <time>2022-09-22T10:32:35.120Z</time>
      </trkpt>
      <trkpt lat="44.9529" lon="5.39821">
        <ele>915</ele>
        <time>2022-09-22T10:32:36.120Z</time>
      </trkpt>
      <trkpt lat="44.95288" lon="5.39821">
        <ele>914</ele>
        <time>2022-09-22T10:32:37.120Z</time>
      </trkpt>
      <trkpt lat="44.95286" lon="5.39821">
        <ele>914</ele>
        <time>2022-09-22T10:32:38.120Z</time>
      </trkpt>
      <trkpt lat="44.95284" lon="5.3982">
        <ele>914</ele>
        <time>2022-09-22T10:32:39.120Z</time>
      </trkpt>
      <trkpt lat="44.95283" lon="5.39821">
        <ele>914</ele>
        <time>2022-09-22T10:32:40.119Z</time>
      </trkpt>
      <trkpt lat="44.95281" lon="5.3982">
        <ele>913</ele>
        <time>2022-09-22T10:32:41.120Z</time>
      </trkpt>
      <trkpt lat="44.95279" lon="5.3982">
        <ele>913</ele>
        <time>2022-09-22T10:32:42.120Z</time>
      </trkpt>
      <trkpt lat="44.95277" lon="5.39821">
        <ele>913</ele>
        <time>2022-09-22T10:32:43.119Z</time>
      </trkpt>
      <trkpt lat="44.95275" lon="5.39821">
        <ele>912</ele>
        <time>2022-09-22T10:32:44.120Z</time>
      </trkpt>
      <trkpt lat="44.95274" lon="5.3982">
        <ele>912</ele>
        <time>2022-09-22T10:32:45.120Z</time>
      </trkpt>
      <trkpt lat="44.95272" lon="5.3982">
        <ele>912</ele>
        <time>2022-09-22T10:32:46.119Z</time>
      </trkpt>
      <trkpt lat="44.95271" lon="5.39819">
        <ele>913</ele>
        <time>2022-09-22T10:32:47.120Z</time>
      </trkpt>
      <trkpt lat="44.9527" lon="5.39819">
        <ele>913</ele>
        <time>2022-09-22T10:32:48.120Z</time>
      </trkpt>
      <trkpt lat="44.9527" lon="5.39819">
        <ele>913</ele>
        <time>2022-09-22T10:32:49.120Z</time>
      </trkpt>
      <trkpt lat="44.9527" lon="5.39819">
        <ele>913</ele>
        <time>2022-09-22T10:32:50.120Z</time>
      </trkpt>
      <trkpt lat="44.95269" lon="5.39818">
        <ele>913</ele>
        <time>2022-09-22T10:32:51.120Z</time>
      </trkpt>
      <trkpt lat="44.95269" lon="5.39818">
        <ele>913</ele>
        <time>2022-09-22T10:32:52.120Z</time>
      </trkpt>
      <trkpt lat="44.95268" lon="5.39818">
        <ele>912</ele>
        <time>2022-09-22T10:32:53.120Z</time>
      </trkpt>
      <trkpt lat="44.95268" lon="5.39817">
        <ele>912</ele>
        <time>2022-09-22T10:32:54.120Z</time>
      </trkpt>
      <trkpt lat="44.95267" lon="5.39817">
        <ele>912</ele>
        <time>2022-09-22T10:32:55.120Z</time>
      </trkpt>
      <trkpt lat="44.95267" lon="5.39816">
        <ele>913</ele>
        <time>2022-09-22T10:32:56.119Z</time>
      </trkpt>
      <trkpt lat="44.95266" lon="5.39817">
        <ele>914</ele>
        <time>2022-09-22T10:32:57.119Z</time>
      </trkpt>
      <trkpt lat="44.95265" lon="5.39817">
        <ele>915</ele>
        <time>2022-09-22T10:32:58.119Z</time>
      </trkpt>
      <trkpt lat="44.95264" lon="5.39817">
        <ele>916</ele>
        <time>2022-09-22T10:32:59.120Z</time>
      </trkpt>
      <trkpt lat="44.95265" lon="5.39817">
        <ele>916</ele>
        <time>2022-09-22T10:33:00.119Z</time>
      </trkpt>
      <trkpt lat="44.95266" lon="5.39818">
        <ele>917</ele>
        <time>2022-09-22T10:33:09.226Z</time>
      </trkpt>
      <trkpt lat="44.95266" lon="5.39819">
        <ele>917</ele>
        <time>2022-09-22T10:33:10.226Z</time>
      </trkpt>
      <trkpt lat="44.95266" lon="5.3982">
        <ele>918</ele>
        <time>2022-09-22T10:33:11.226Z</time>
      </trkpt>
      <trkpt lat="44.95265" lon="5.3982">
        <ele>918</ele>
        <time>2022-09-22T10:33:12.226Z</time>
      </trkpt>
      <trkpt lat="44.95264" lon="5.3982">
        <ele>919</ele>
        <time>2022-09-22T10:33:13.226Z</time>
      </trkpt>
      <trkpt lat="44.95263" lon="5.39821">
        <ele>919</ele>
        <time>2022-09-22T10:33:14.226Z</time>
      </trkpt>
      <trkpt lat="44.95261" lon="5.39821">
        <ele>919</ele>
        <time>2022-09-22T10:33:15.225Z</time>
      </trkpt>
      <trkpt lat="44.9526" lon="5.39822">
        <ele>920</ele>
        <time>2022-09-22T10:33:16.226Z</time>
      </trkpt>
      <trkpt lat="44.9526" lon="5.39822">
        <ele>920</ele>
        <time>2022-09-22T10:33:17.226Z</time>
      </trkpt>
      <trkpt lat="44.9526" lon="5.39822">
        <ele>920</ele>
        <time>2022-09-22T10:33:18.226Z</time>
      </trkpt>
      <trkpt lat="44.95258" lon="5.3982">
        <ele>920</ele>
        <time>2022-09-22T10:33:20.359Z</time>
      </trkpt>
      <trkpt lat="44.95257" lon="5.3982">
        <ele>919</ele>
        <time>2022-09-22T10:33:21.358Z</time>
      </trkpt>
      <trkpt lat="44.95256" lon="5.3982">
        <ele>919</ele>
        <time>2022-09-22T10:33:22.359Z</time>
      </trkpt>
      <trkpt lat="44.95255" lon="5.3982">
        <ele>920</ele>
        <time>2022-09-22T10:33:23.359Z</time>
      </trkpt>
      <trkpt lat="44.95255" lon="5.3982">
        <ele>920</ele>
        <time>2022-09-22T10:33:24.358Z</time>
      </trkpt>
      <trkpt lat="44.95255" lon="5.3982">
        <ele>920</ele>
        <time>2022-09-22T10:33:25.359Z</time>
      </trkpt>
      <trkpt lat="44.95253" lon="5.39823">
        <ele>918</ele>
        <time>2022-09-22T10:34:06.498Z</time>
      </trkpt>
      <trkpt lat="44.95251" lon="5.39825">
        <ele>918</ele>
        <time>2022-09-22T10:34:07.498Z</time>
      </trkpt>
      <trkpt lat="44.95249" lon="5.39827">
        <ele>918</ele>
        <time>2022-09-22T10:34:08.497Z</time>
      </trkpt>
      <trkpt lat="44.95248" lon="5.39829">
        <ele>918</ele>
        <time>2022-09-22T10:34:09.498Z</time>
      </trkpt>
      <trkpt lat="44.95245" lon="5.39831">
        <ele>918</ele>
        <time>2022-09-22T10:34:10.498Z</time>
      </trkpt>
      <trkpt lat="44.95244" lon="5.39833">
        <ele>918</ele>
        <time>2022-09-22T10:34:11.498Z</time>
      </trkpt>
      <trkpt lat="44.95242" lon="5.39835">
        <ele>918</ele>
        <time>2022-09-22T10:34:12.498Z</time>
      </trkpt>
      <trkpt lat="44.9524" lon="5.39837">
        <ele>918</ele>
        <time>2022-09-22T10:34:13.498Z</time>
      </trkpt>
      <trkpt lat="44.95238" lon="5.39838">
        <ele>918</ele>
        <time>2022-09-22T10:34:14.497Z</time>
      </trkpt>
      <trkpt lat="44.95236" lon="5.39839">
        <ele>918</ele>
        <time>2022-09-22T10:34:15.498Z</time>
      </trkpt>
      <trkpt lat="44.95235" lon="5.39841">
        <ele>918</ele>
        <time>2022-09-22T10:34:16.497Z</time>
      </trkpt>
      <trkpt lat="44.95233" lon="5.39842">
        <ele>918</ele>
        <time>2022-09-22T10:34:17.498Z</time>
      </trkpt>
      <trkpt lat="44.95232" lon="5.39843">
        <ele>918</ele>
        <time>2022-09-22T10:34:18.498Z</time>
      </trkpt>
      <trkpt lat="44.9523" lon="5.39843">
        <ele>918</ele>
        <time>2022-09-22T10:34:19.498Z</time>
      </trkpt>
      <trkpt lat="44.95228" lon="5.39844">
        <ele>918</ele>
        <time>2022-09-22T10:34:20.497Z</time>
      </trkpt>
      <trkpt lat="44.95226" lon="5.39844">
        <ele>918</ele>
        <time>2022-09-22T10:34:21.498Z</time>
      </trkpt>
      <trkpt lat="44.95225" lon="5.39845">
        <ele>918</ele>
        <time>2022-09-22T10:34:22.497Z</time>
      </trkpt>
      <trkpt lat="44.95223" lon="5.39846">
        <ele>918</ele>
        <time>2022-09-22T10:34:23.497Z</time>
      </trkpt>
      <trkpt lat="44.95221" lon="5.39846">
        <ele>918</ele>
        <time>2022-09-22T10:34:24.498Z</time>
      </trkpt>
      <trkpt lat="44.95219" lon="5.39847">
        <ele>918</ele>
        <time>2022-09-22T10:34:25.498Z</time>
      </trkpt>
      <trkpt lat="44.95218" lon="5.39848">
        <ele>918</ele>
        <time>2022-09-22T10:34:26.498Z</time>
      </trkpt>
      <trkpt lat="44.95216" lon="5.39849">
        <ele>918</ele>
        <time>2022-09-22T10:34:27.498Z</time>
      </trkpt>
      <trkpt lat="44.95214" lon="5.3985">
        <ele>918</ele>
        <time>2022-09-22T10:34:28.498Z</time>
      </trkpt>
      <trkpt lat="44.95212" lon="5.3985">
        <ele>917</ele>
        <time>2022-09-22T10:34:29.498Z</time>
      </trkpt>
      <trkpt lat="44.9521" lon="5.39851">
        <ele>917</ele>
        <time>2022-09-22T10:34:30.498Z</time>
      </trkpt>
      <trkpt lat="44.95209" lon="5.39851">
        <ele>916</ele>
        <time>2022-09-22T10:34:31.498Z</time>
      </trkpt>
      <trkpt lat="44.95207" lon="5.3985">
        <ele>916</ele>
        <time>2022-09-22T10:34:32.498Z</time>
      </trkpt>
      <trkpt lat="44.95205" lon="5.3985">
        <ele>915</ele>
        <time>2022-09-22T10:34:33.498Z</time>
      </trkpt>
      <trkpt lat="44.95204" lon="5.3985">
        <ele>915</ele>
        <time>2022-09-22T10:34:34.498Z</time>
      </trkpt>
      <trkpt lat="44.95202" lon="5.3985">
        <ele>914</ele>
        <time>2022-09-22T10:34:35.498Z</time>
      </trkpt>
      <trkpt lat="44.95201" lon="5.3985">
        <ele>914</ele>
        <time>2022-09-22T10:34:36.498Z</time>
      </trkpt>
      <trkpt lat="44.95199" lon="5.3985">
        <ele>913</ele>
        <time>2022-09-22T10:34:37.498Z</time>
      </trkpt>
      <trkpt lat="44.95197" lon="5.3985">
        <ele>913</ele>
        <time>2022-09-22T10:34:38.498Z</time>
      </trkpt>
      <trkpt lat="44.95195" lon="5.3985">
        <ele>913</ele>
        <time>2022-09-22T10:34:39.498Z</time>
      </trkpt>
      <trkpt lat="44.95193" lon="5.39849">
        <ele>913</ele>
        <time>2022-09-22T10:34:40.498Z</time>
      </trkpt>
      <trkpt lat="44.95191" lon="5.39849">
        <ele>913</ele>
        <time>2022-09-22T10:34:41.497Z</time>
      </trkpt>
      <trkpt lat="44.95189" lon="5.39849">
        <ele>913</ele>
        <time>2022-09-22T10:34:42.498Z</time>
      </trkpt>
      <trkpt lat="44.95187" lon="5.39849">
        <ele>913</ele>
        <time>2022-09-22T10:34:43.498Z</time>
      </trkpt>
      <trkpt lat="44.95185" lon="5.39848">
        <ele>912</ele>
        <time>2022-09-22T10:34:44.498Z</time>
      </trkpt>
      <trkpt lat="44.95183" lon="5.39848">
        <ele>911</ele>
        <time>2022-09-22T10:34:45.498Z</time>
      </trkpt>
      <trkpt lat="44.95181" lon="5.39848">
        <ele>911</ele>
        <time>2022-09-22T10:34:46.498Z</time>
      </trkpt>
      <trkpt lat="44.95179" lon="5.39848">
        <ele>910</ele>
        <time>2022-09-22T10:34:47.498Z</time>
      </trkpt>
      <trkpt lat="44.95177" lon="5.39848">
        <ele>910</ele>
        <time>2022-09-22T10:34:48.498Z</time>
      </trkpt>
      <trkpt lat="44.95175" lon="5.39848">
        <ele>909</ele>
        <time>2022-09-22T10:34:49.498Z</time>
      </trkpt>
      <trkpt lat="44.95173" lon="5.39848">
        <ele>909</ele>
        <time>2022-09-22T10:34:50.498Z</time>
      </trkpt>
      <trkpt lat="44.95172" lon="5.39847">
        <ele>909</ele>
        <time>2022-09-22T10:34:51.497Z</time>
      </trkpt>
      <trkpt lat="44.9517" lon="5.39847">
        <ele>909</ele>
        <time>2022-09-22T10:34:52.498Z</time>
      </trkpt>
      <trkpt lat="44.95168" lon="5.39847">
        <ele>909</ele>
        <time>2022-09-22T10:34:53.497Z</time>
      </trkpt>
      <trkpt lat="44.95166" lon="5.39846">
        <ele>908</ele>
        <time>2022-09-22T10:34:54.498Z</time>
      </trkpt>
      <trkpt lat="44.95164" lon="5.39846">
        <ele>908</ele>
        <time>2022-09-22T10:34:55.497Z</time>
      </trkpt>
      <trkpt lat="44.95162" lon="5.39845">
        <ele>908</ele>
        <time>2022-09-22T10:34:56.498Z</time>
      </trkpt>
      <trkpt lat="44.9516" lon="5.39845">
        <ele>907</ele>
        <time>2022-09-22T10:34:57.498Z</time>
      </trkpt>
      <trkpt lat="44.95157" lon="5.39844">
        <ele>907</ele>
        <time>2022-09-22T10:34:58.498Z</time>
      </trkpt>
      <trkpt lat="44.95154" lon="5.39843">
        <ele>907</ele>
        <time>2022-09-22T10:34:59.498Z</time>
      </trkpt>
      <trkpt lat="44.95151" lon="5.39842">
        <ele>907</ele>
        <time>2022-09-22T10:35:00.498Z</time>
      </trkpt>
      <trkpt lat="44.95148" lon="5.39842">
        <ele>906</ele>
        <time>2022-09-22T10:35:01.498Z</time>
      </trkpt>
      <trkpt lat="44.95144" lon="5.39841">
        <ele>906</ele>
        <time>2022-09-22T10:35:02.497Z</time>
      </trkpt>
      <trkpt lat="44.9514" lon="5.3984">
        <ele>906</ele>
        <time>2022-09-22T10:35:03.498Z</time>
      </trkpt>
      <trkpt lat="44.95137" lon="5.39838">
        <ele>905</ele>
        <time>2022-09-22T10:35:04.498Z</time>
      </trkpt>
      <trkpt lat="44.95134" lon="5.39835">
        <ele>905</ele>
        <time>2022-09-22T10:35:05.498Z</time>
      </trkpt>
      <trkpt lat="44.95131" lon="5.39832">
        <ele>905</ele>
        <time>2022-09-22T10:35:06.498Z</time>
      </trkpt>
      <trkpt lat="44.95129" lon="5.39829">
        <ele>905</ele>
        <time>2022-09-22T10:35:07.498Z</time>
      </trkpt>
      <trkpt lat="44.95127" lon="5.39826">
        <ele>905</ele>
        <time>2022-09-22T10:35:08.498Z</time>
      </trkpt>
      <trkpt lat="44.95125" lon="5.39824">
        <ele>905</ele>
        <time>2022-09-22T10:35:09.498Z</time>
      </trkpt>
      <trkpt lat="44.95124" lon="5.39822">
        <ele>905</ele>
        <time>2022-09-22T10:35:10.498Z</time>
      </trkpt>
      <trkpt lat="44.95122" lon="5.3982">
        <ele>906</ele>
        <time>2022-09-22T10:35:11.497Z</time>
      </trkpt>
      <trkpt lat="44.95121" lon="5.39818">
        <ele>906</ele>
        <time>2022-09-22T10:35:12.498Z</time>
      </trkpt>
      <trkpt lat="44.9512" lon="5.39817">
        <ele>906</ele>
        <time>2022-09-22T10:35:13.498Z</time>
      </trkpt>
      <trkpt lat="44.95119" lon="5.39815">
        <ele>905</ele>
        <time>2022-09-22T10:35:14.498Z</time>
      </trkpt>
      <trkpt lat="44.95118" lon="5.39813">
        <ele>905</ele>
        <time>2022-09-22T10:35:15.498Z</time>
      </trkpt>
      <trkpt lat="44.95117" lon="5.39811">
        <ele>905</ele>
        <time>2022-09-22T10:35:16.498Z</time>
      </trkpt>
      <trkpt lat="44.95115" lon="5.39809">
        <ele>904</ele>
        <time>2022-09-22T10:35:17.498Z</time>
      </trkpt>
      <trkpt lat="44.95114" lon="5.39806">
        <ele>904</ele>
        <time>2022-09-22T10:35:18.498Z</time>
      </trkpt>
      <trkpt lat="44.95112" lon="5.39804">
        <ele>904</ele>
        <time>2022-09-22T10:35:19.497Z</time>
      </trkpt>
      <trkpt lat="44.95111" lon="5.39802">
        <ele>904</ele>
        <time>2022-09-22T10:35:20.498Z</time>
      </trkpt>
      <trkpt lat="44.95108" lon="5.39799">
        <ele>904</ele>
        <time>2022-09-22T10:35:21.498Z</time>
      </trkpt>
      <trkpt lat="44.95106" lon="5.39797">
        <ele>904</ele>
        <time>2022-09-22T10:35:22.498Z</time>
      </trkpt>
      <trkpt lat="44.95103" lon="5.39794">
        <ele>904</ele>
        <time>2022-09-22T10:35:23.497Z</time>
      </trkpt>
      <trkpt lat="44.95101" lon="5.39791">
        <ele>904</ele>
        <time>2022-09-22T10:35:24.497Z</time>
      </trkpt>
      <trkpt lat="44.95097" lon="5.39788">
        <ele>905</ele>
        <time>2022-09-22T10:35:25.498Z</time>
      </trkpt>
      <trkpt lat="44.95094" lon="5.39785">
        <ele>905</ele>
        <time>2022-09-22T10:35:26.497Z</time>
      </trkpt>
      <trkpt lat="44.9509" lon="5.39782">
        <ele>906</ele>
        <time>2022-09-22T10:35:27.498Z</time>
      </trkpt>
      <trkpt lat="44.95087" lon="5.3978">
        <ele>906</ele>
        <time>2022-09-22T10:35:28.498Z</time>
      </trkpt>
      <trkpt lat="44.95083" lon="5.39779">
        <ele>907</ele>
        <time>2022-09-22T10:35:29.498Z</time>
      </trkpt>
      <trkpt lat="44.9508" lon="5.3978">
        <ele>907</ele>
        <time>2022-09-22T10:35:30.498Z</time>
      </trkpt>
      <trkpt lat="44.95077" lon="5.3978">
        <ele>906</ele>
        <time>2022-09-22T10:35:31.497Z</time>
      </trkpt>
      <trkpt lat="44.95074" lon="5.39782">
        <ele>906</ele>
        <time>2022-09-22T10:35:32.498Z</time>
      </trkpt>
      <trkpt lat="44.95072" lon="5.39783">
        <ele>906</ele>
        <time>2022-09-22T10:35:33.498Z</time>
      </trkpt>
      <trkpt lat="44.9507" lon="5.39785">
        <ele>906</ele>
        <time>2022-09-22T10:35:34.498Z</time>
      </trkpt>
      <trkpt lat="44.95069" lon="5.39787">
        <ele>906</ele>
        <time>2022-09-22T10:35:35.498Z</time>
      </trkpt>
      <trkpt lat="44.95068" lon="5.39789">
        <ele>906</ele>
        <time>2022-09-22T10:35:36.498Z</time>
      </trkpt>
      <trkpt lat="44.95066" lon="5.39791">
        <ele>906</ele>
        <time>2022-09-22T10:35:37.498Z</time>
      </trkpt>
      <trkpt lat="44.95065" lon="5.39793">
        <ele>907</ele>
        <time>2022-09-22T10:35:38.498Z</time>
      </trkpt>
      <trkpt lat="44.95064" lon="5.39794">
        <ele>907</ele>
        <time>2022-09-22T10:35:39.498Z</time>
      </trkpt>
      <trkpt lat="44.95063" lon="5.39794">
        <ele>907</ele>
        <time>2022-09-22T10:35:40.498Z</time>
      </trkpt>
      <trkpt lat="44.95062" lon="5.39793">
        <ele>908</ele>
        <time>2022-09-22T10:35:41.498Z</time>
      </trkpt>
      <trkpt lat="44.95062" lon="5.39792">
        <ele>908</ele>
        <time>2022-09-22T10:35:42.498Z</time>
      </trkpt>
      <trkpt lat="44.95062" lon="5.39791">
        <ele>909</ele>
        <time>2022-09-22T10:35:43.498Z</time>
      </trkpt>
      <trkpt lat="44.95062" lon="5.3979">
        <ele>909</ele>
        <time>2022-09-22T10:35:44.498Z</time>
      </trkpt>
      <trkpt lat="44.95063" lon="5.39789">
        <ele>909</ele>
        <time>2022-09-22T10:35:45.497Z</time>
      </trkpt>
      <trkpt lat="44.95063" lon="5.39787">
        <ele>910</ele>
        <time>2022-09-22T10:35:46.498Z</time>
      </trkpt>
      <trkpt lat="44.95062" lon="5.39785">
        <ele>910</ele>
        <time>2022-09-22T10:35:47.497Z</time>
      </trkpt>
      <trkpt lat="44.95061" lon="5.39783">
        <ele>909</ele>
        <time>2022-09-22T10:35:48.497Z</time>
      </trkpt>
      <trkpt lat="44.9506" lon="5.39781">
        <ele>909</ele>
        <time>2022-09-22T10:35:49.498Z</time>
      </trkpt>
      <trkpt lat="44.9506" lon="5.39779">
        <ele>909</ele>
        <time>2022-09-22T10:35:50.498Z</time>
      </trkpt>
      <trkpt lat="44.95059" lon="5.39778">
        <ele>909</ele>
        <time>2022-09-22T10:35:51.498Z</time>
      </trkpt>
      <trkpt lat="44.95058" lon="5.39776">
        <ele>909</ele>
        <time>2022-09-22T10:35:52.498Z</time>
      </trkpt>
      <trkpt lat="44.95057" lon="5.39775">
        <ele>909</ele>
        <time>2022-09-22T10:35:53.497Z</time>
      </trkpt>
      <trkpt lat="44.95056" lon="5.39774">
        <ele>909</ele>
        <time>2022-09-22T10:35:54.498Z</time>
      </trkpt>
      <trkpt lat="44.95056" lon="5.39772">
        <ele>908</ele>
        <time>2022-09-22T10:35:55.497Z</time>
      </trkpt>
      <trkpt lat="44.95055" lon="5.39769">
        <ele>908</ele>
        <time>2022-09-22T10:35:56.498Z</time>
      </trkpt>
      <trkpt lat="44.95055" lon="5.39765">
        <ele>907</ele>
        <time>2022-09-22T10:35:57.498Z</time>
      </trkpt>
      <trkpt lat="44.95056" lon="5.39762">
        <ele>907</ele>
        <time>2022-09-22T10:35:58.498Z</time>
      </trkpt>
      <trkpt lat="44.95058" lon="5.3976">
        <ele>906</ele>
        <time>2022-09-22T10:35:59.498Z</time>
      </trkpt>
      <trkpt lat="44.95061" lon="5.39759">
        <ele>906</ele>
        <time>2022-09-22T10:36:00.498Z</time>
      </trkpt>
      <trkpt lat="44.95062" lon="5.39762">
        <ele>906</ele>
        <time>2022-09-22T10:36:01.498Z</time>
      </trkpt>
      <trkpt lat="44.95064" lon="5.39765">
        <ele>906</ele>
        <time>2022-09-22T10:36:02.498Z</time>
      </trkpt>
      <trkpt lat="44.95064" lon="5.3977">
        <ele>907</ele>
        <time>2022-09-22T10:36:03.498Z</time>
      </trkpt>
      <trkpt lat="44.95064" lon="5.39775">
        <ele>907</ele>
        <time>2022-09-22T10:36:04.498Z</time>
      </trkpt>
      <trkpt lat="44.95064" lon="5.39779">
        <ele>906</ele>
        <time>2022-09-22T10:36:05.498Z</time>
      </trkpt>
      <trkpt lat="44.95064" lon="5.39783">
        <ele>906</ele>
        <time>2022-09-22T10:36:06.497Z</time>
      </trkpt>
      <trkpt lat="44.95064" lon="5.39787">
        <ele>906</ele>
        <time>2022-09-22T10:36:07.497Z</time>
      </trkpt>
      <trkpt lat="44.95064" lon="5.39791">
        <ele>905</ele>
        <time>2022-09-22T10:36:08.498Z</time>
      </trkpt>
      <trkpt lat="44.95064" lon="5.39795">
        <ele>905</ele>
        <time>2022-09-22T10:36:09.498Z</time>
      </trkpt>
      <trkpt lat="44.95064" lon="5.39799">
        <ele>905</ele>
        <time>2022-09-22T10:36:10.498Z</time>
      </trkpt>
      <trkpt lat="44.95064" lon="5.39802">
        <ele>905</ele>
        <time>2022-09-22T10:36:11.498Z</time>
      </trkpt>
      <trkpt lat="44.95064" lon="5.39805">
        <ele>905</ele>
        <time>2022-09-22T10:36:12.498Z</time>
      </trkpt>
      <trkpt lat="44.95063" lon="5.39807">
        <ele>905</ele>
        <time>2022-09-22T10:36:13.498Z</time>
      </trkpt>
      <trkpt lat="44.95063" lon="5.3981">
        <ele>906</ele>
        <time>2022-09-22T10:36:14.498Z</time>
      </trkpt>
      <trkpt lat="44.95063" lon="5.39812">
        <ele>906</ele>
        <time>2022-09-22T10:36:15.498Z</time>
      </trkpt>
      <trkpt lat="44.95062" lon="5.39814">
        <ele>906</ele>
        <time>2022-09-22T10:36:16.498Z</time>
      </trkpt>
      <trkpt lat="44.9506" lon="5.39815">
        <ele>906</ele>
        <time>2022-09-22T10:36:17.498Z</time>
      </trkpt>
      <trkpt lat="44.95059" lon="5.39815">
        <ele>907</ele>
        <time>2022-09-22T10:36:18.498Z</time>
      </trkpt>
      <trkpt lat="44.95058" lon="5.39814">
        <ele>907</ele>
        <time>2022-09-22T10:36:19.498Z</time>
      </trkpt>
      <trkpt lat="44.95057" lon="5.39812">
        <ele>907</ele>
        <time>2022-09-22T10:36:20.498Z</time>
      </trkpt>
      <trkpt lat="44.95055" lon="5.39809">
        <ele>907</ele>
        <time>2022-09-22T10:36:21.498Z</time>
      </trkpt>
      <trkpt lat="44.95054" lon="5.39808">
        <ele>907</ele>
        <time>2022-09-22T10:36:22.497Z</time>
      </trkpt>
      <trkpt lat="44.95053" lon="5.39805">
        <ele>907</ele>
        <time>2022-09-22T10:36:23.498Z</time>
      </trkpt>
      <trkpt lat="44.95052" lon="5.39803">
        <ele>907</ele>
        <time>2022-09-22T10:36:24.498Z</time>
      </trkpt>
      <trkpt lat="44.9505" lon="5.39801">
        <ele>907</ele>
        <time>2022-09-22T10:36:25.498Z</time>
      </trkpt>
      <trkpt lat="44.95049" lon="5.398">
        <ele>907</ele>
        <time>2022-09-22T10:36:26.498Z</time>
      </trkpt>
      <trkpt lat="44.95048" lon="5.39799">
        <ele>907</ele>
        <time>2022-09-22T10:36:27.498Z</time>
      </trkpt>
      <trkpt lat="44.95046" lon="5.39797">
        <ele>907</ele>
        <time>2022-09-22T10:36:28.498Z</time>
      </trkpt>
      <trkpt lat="44.95044" lon="5.39796">
        <ele>907</ele>
        <time>2022-09-22T10:36:29.498Z</time>
      </trkpt>
      <trkpt lat="44.95043" lon="5.39794">
        <ele>906</ele>
        <time>2022-09-22T10:36:30.498Z</time>
      </trkpt>
      <trkpt lat="44.95041" lon="5.39794">
        <ele>907</ele>
        <time>2022-09-22T10:36:31.498Z</time>
      </trkpt>
      <trkpt lat="44.95039" lon="5.39793">
        <ele>907</ele>
        <time>2022-09-22T10:36:32.498Z</time>
      </trkpt>
      <trkpt lat="44.95038" lon="5.39792">
        <ele>907</ele>
        <time>2022-09-22T10:36:33.497Z</time>
      </trkpt>
      <trkpt lat="44.95036" lon="5.39791">
        <ele>907</ele>
        <time>2022-09-22T10:36:34.498Z</time>
      </trkpt>
      <trkpt lat="44.95034" lon="5.3979">
        <ele>907</ele>
        <time>2022-09-22T10:36:35.498Z</time>
      </trkpt>
      <trkpt lat="44.95033" lon="5.39789">
        <ele>907</ele>
        <time>2022-09-22T10:36:36.498Z</time>
      </trkpt>
      <trkpt lat="44.95031" lon="5.39787">
        <ele>908</ele>
        <time>2022-09-22T10:36:37.498Z</time>
      </trkpt>
      <trkpt lat="44.95029" lon="5.39786">
        <ele>908</ele>
        <time>2022-09-22T10:36:38.497Z</time>
      </trkpt>
      <trkpt lat="44.95028" lon="5.39784">
        <ele>908</ele>
        <time>2022-09-22T10:36:39.498Z</time>
      </trkpt>
      <trkpt lat="44.95026" lon="5.39782">
        <ele>908</ele>
        <time>2022-09-22T10:36:40.497Z</time>
      </trkpt>
      <trkpt lat="44.95025" lon="5.39781">
        <ele>908</ele>
        <time>2022-09-22T10:36:41.498Z</time>
      </trkpt>
      <trkpt lat="44.95023" lon="5.39778">
        <ele>909</ele>
        <time>2022-09-22T10:36:42.498Z</time>
      </trkpt>
      <trkpt lat="44.95021" lon="5.39775">
        <ele>909</ele>
        <time>2022-09-22T10:36:43.498Z</time>
      </trkpt>
      <trkpt lat="44.9502" lon="5.39772">
        <ele>909</ele>
        <time>2022-09-22T10:36:44.498Z</time>
      </trkpt>
      <trkpt lat="44.95018" lon="5.39769">
        <ele>909</ele>
        <time>2022-09-22T10:36:45.497Z</time>
      </trkpt>
      <trkpt lat="44.95017" lon="5.39766">
        <ele>909</ele>
        <time>2022-09-22T10:36:46.498Z</time>
      </trkpt>
      <trkpt lat="44.95016" lon="5.39762">
        <ele>909</ele>
        <time>2022-09-22T10:36:47.498Z</time>
      </trkpt>
      <trkpt lat="44.95015" lon="5.39759">
        <ele>909</ele>
        <time>2022-09-22T10:36:48.498Z</time>
      </trkpt>
      <trkpt lat="44.95014" lon="5.39755">
        <ele>909</ele>
        <time>2022-09-22T10:36:49.498Z</time>
      </trkpt>
      <trkpt lat="44.95014" lon="5.39751">
        <ele>909</ele>
        <time>2022-09-22T10:36:50.498Z</time>
      </trkpt>
      <trkpt lat="44.95014" lon="5.39747">
        <ele>909</ele>
        <time>2022-09-22T10:36:51.498Z</time>
      </trkpt>
      <trkpt lat="44.95014" lon="5.39743">
        <ele>909</ele>
        <time>2022-09-22T10:36:52.498Z</time>
      </trkpt>
      <trkpt lat="44.95015" lon="5.39738">
        <ele>909</ele>
        <time>2022-09-22T10:36:53.498Z</time>
      </trkpt>
      <trkpt lat="44.95016" lon="5.39733">
        <ele>909</ele>
        <time>2022-09-22T10:36:54.498Z</time>
      </trkpt>
      <trkpt lat="44.95017" lon="5.39728">
        <ele>908</ele>
        <time>2022-09-22T10:36:55.498Z</time>
      </trkpt>
      <trkpt lat="44.95018" lon="5.39723">
        <ele>908</ele>
        <time>2022-09-22T10:36:56.498Z</time>
      </trkpt>
      <trkpt lat="44.95019" lon="5.39717">
        <ele>908</ele>
        <time>2022-09-22T10:36:57.498Z</time>
      </trkpt>
      <trkpt lat="44.95019" lon="5.39713">
        <ele>908</ele>
        <time>2022-09-22T10:36:58.498Z</time>
      </trkpt>
      <trkpt lat="44.9502" lon="5.39706">
        <ele>908</ele>
        <time>2022-09-22T10:36:59.498Z</time>
      </trkpt>
      <trkpt lat="44.9502" lon="5.397">
        <ele>908</ele>
        <time>2022-09-22T10:37:00.497Z</time>
      </trkpt>
      <trkpt lat="44.95021" lon="5.39695">
        <ele>908</ele>
        <time>2022-09-22T10:37:01.498Z</time>
      </trkpt>
      <trkpt lat="44.95021" lon="5.39691">
        <ele>909</ele>
        <time>2022-09-22T10:37:02.497Z</time>
      </trkpt>
      <trkpt lat="44.95021" lon="5.39686">
        <ele>909</ele>
        <time>2022-09-22T10:37:03.498Z</time>
      </trkpt>
      <trkpt lat="44.95021" lon="5.39683">
        <ele>909</ele>
        <time>2022-09-22T10:37:04.498Z</time>
      </trkpt>
      <trkpt lat="44.95022" lon="5.39679">
        <ele>909</ele>
        <time>2022-09-22T10:37:05.498Z</time>
      </trkpt>
      <trkpt lat="44.95022" lon="5.39676">
        <ele>909</ele>
        <time>2022-09-22T10:37:06.498Z</time>
      </trkpt>
      <trkpt lat="44.95022" lon="5.39673">
        <ele>909</ele>
        <time>2022-09-22T10:37:07.498Z</time>
      </trkpt>
      <trkpt lat="44.95022" lon="5.3967">
        <ele>909</ele>
        <time>2022-09-22T10:37:08.498Z</time>
      </trkpt>
      <trkpt lat="44.95022" lon="5.39666">
        <ele>909</ele>
        <time>2022-09-22T10:37:09.498Z</time>
      </trkpt>
      <trkpt lat="44.95022" lon="5.39662">
        <ele>909</ele>
        <time>2022-09-22T10:37:10.498Z</time>
      </trkpt>
      <trkpt lat="44.95022" lon="5.39659">
        <ele>909</ele>
        <time>2022-09-22T10:37:11.498Z</time>
      </trkpt>
      <trkpt lat="44.95022" lon="5.39656">
        <ele>909</ele>
        <time>2022-09-22T10:37:12.498Z</time>
      </trkpt>
      <trkpt lat="44.95022" lon="5.39653">
        <ele>909</ele>
        <time>2022-09-22T10:37:13.497Z</time>
      </trkpt>
      <trkpt lat="44.95022" lon="5.39649">
        <ele>909</ele>
        <time>2022-09-22T10:37:14.498Z</time>
      </trkpt>
      <trkpt lat="44.95022" lon="5.39646">
        <ele>909</ele>
        <time>2022-09-22T10:37:15.498Z</time>
      </trkpt>
      <trkpt lat="44.95022" lon="5.39643">
        <ele>909</ele>
        <time>2022-09-22T10:37:16.498Z</time>
      </trkpt>
      <trkpt lat="44.95022" lon="5.3964">
        <ele>909</ele>
        <time>2022-09-22T10:37:17.498Z</time>
      </trkpt>
      <trkpt lat="44.95022" lon="5.39637">
        <ele>910</ele>
        <time>2022-09-22T10:37:18.497Z</time>
      </trkpt>
      <trkpt lat="44.95022" lon="5.39634">
        <ele>910</ele>
        <time>2022-09-22T10:37:19.498Z</time>
      </trkpt>
      <trkpt lat="44.95022" lon="5.39631">
        <ele>910</ele>
        <time>2022-09-22T10:37:20.498Z</time>
      </trkpt>
      <trkpt lat="44.95022" lon="5.39628">
        <ele>910</ele>
        <time>2022-09-22T10:37:21.498Z</time>
      </trkpt>
      <trkpt lat="44.95022" lon="5.39626">
        <ele>910</ele>
        <time>2022-09-22T10:37:22.498Z</time>
      </trkpt>
      <trkpt lat="44.95022" lon="5.39623">
        <ele>910</ele>
        <time>2022-09-22T10:37:23.498Z</time>
      </trkpt>
      <trkpt lat="44.95022" lon="5.39621">
        <ele>911</ele>
        <time>2022-09-22T10:37:24.498Z</time>
      </trkpt>
      <trkpt lat="44.95023" lon="5.39618">
        <ele>911</ele>
        <time>2022-09-22T10:37:25.498Z</time>
      </trkpt>
      <trkpt lat="44.95023" lon="5.39616">
        <ele>911</ele>
        <time>2022-09-22T10:37:26.498Z</time>
      </trkpt>
      <trkpt lat="44.95024" lon="5.39614">
        <ele>911</ele>
        <time>2022-09-22T10:37:27.498Z</time>
      </trkpt>
      <trkpt lat="44.95025" lon="5.39612">
        <ele>911</ele>
        <time>2022-09-22T10:37:28.498Z</time>
      </trkpt>
      <trkpt lat="44.95025" lon="5.3961">
        <ele>911</ele>
        <time>2022-09-22T10:37:29.498Z</time>
      </trkpt>
      <trkpt lat="44.95025" lon="5.39607">
        <ele>912</ele>
        <time>2022-09-22T10:37:30.498Z</time>
      </trkpt>
      <trkpt lat="44.95025" lon="5.39605">
        <ele>912</ele>
        <time>2022-09-22T10:37:31.498Z</time>
      </trkpt>
      <trkpt lat="44.95025" lon="5.39603">
        <ele>912</ele>
        <time>2022-09-22T10:37:32.498Z</time>
      </trkpt>
      <trkpt lat="44.95025" lon="5.396">
        <ele>912</ele>
        <time>2022-09-22T10:37:33.498Z</time>
      </trkpt>
      <trkpt lat="44.95025" lon="5.39598">
        <ele>912</ele>
        <time>2022-09-22T10:37:34.498Z</time>
      </trkpt>
      <trkpt lat="44.95025" lon="5.39596">
        <ele>912</ele>
        <time>2022-09-22T10:37:35.498Z</time>
      </trkpt>
      <trkpt lat="44.95025" lon="5.39593">
        <ele>912</ele>
        <time>2022-09-22T10:37:36.498Z</time>
      </trkpt>
      <trkpt lat="44.95026" lon="5.39591">
        <ele>913</ele>
        <time>2022-09-22T10:37:37.498Z</time>
      </trkpt>
      <trkpt lat="44.95026" lon="5.39589">
        <ele>913</ele>
        <time>2022-09-22T10:37:38.498Z</time>
      </trkpt>
      <trkpt lat="44.95027" lon="5.39587">
        <ele>913</ele>
        <time>2022-09-22T10:37:39.498Z</time>
      </trkpt>
      <trkpt lat="44.95027" lon="5.39585">
        <ele>913</ele>
        <time>2022-09-22T10:37:40.498Z</time>
      </trkpt>
      <trkpt lat="44.95028" lon="5.39583">
        <ele>913</ele>
        <time>2022-09-22T10:37:41.498Z</time>
      </trkpt>
      <trkpt lat="44.95028" lon="5.39581">
        <ele>913</ele>
        <time>2022-09-22T10:37:42.498Z</time>
      </trkpt>
      <trkpt lat="44.95029" lon="5.39579">
        <ele>913</ele>
        <time>2022-09-22T10:37:43.497Z</time>
      </trkpt>
      <trkpt lat="44.95029" lon="5.39577">
        <ele>913</ele>
        <time>2022-09-22T10:37:44.498Z</time>
      </trkpt>
      <trkpt lat="44.95029" lon="5.39574">
        <ele>913</ele>
        <time>2022-09-22T10:37:45.498Z</time>
      </trkpt>
      <trkpt lat="44.95029" lon="5.39572">
        <ele>913</ele>
        <time>2022-09-22T10:37:46.498Z</time>
      </trkpt>
      <trkpt lat="44.95029" lon="5.3957">
        <ele>913</ele>
        <time>2022-09-22T10:37:47.498Z</time>
      </trkpt>
      <trkpt lat="44.95029" lon="5.39568">
        <ele>913</ele>
        <time>2022-09-22T10:37:48.498Z</time>
      </trkpt>
      <trkpt lat="44.95029" lon="5.39566">
        <ele>913</ele>
        <time>2022-09-22T10:37:49.497Z</time>
      </trkpt>
      <trkpt lat="44.95029" lon="5.39563">
        <ele>913</ele>
        <time>2022-09-22T10:37:50.497Z</time>
      </trkpt>
      <trkpt lat="44.9503" lon="5.39561">
        <ele>914</ele>
        <time>2022-09-22T10:37:51.498Z</time>
      </trkpt>
      <trkpt lat="44.9503" lon="5.39558">
        <ele>914</ele>
        <time>2022-09-22T10:37:52.498Z</time>
      </trkpt>
      <trkpt lat="44.9503" lon="5.39556">
        <ele>915</ele>
        <time>2022-09-22T10:37:53.498Z</time>
      </trkpt>
      <trkpt lat="44.9503" lon="5.39554">
        <ele>915</ele>
        <time>2022-09-22T10:37:54.497Z</time>
      </trkpt>
      <trkpt lat="44.95031" lon="5.39552">
        <ele>916</ele>
        <time>2022-09-22T10:37:55.497Z</time>
      </trkpt>
      <trkpt lat="44.95031" lon="5.3955">
        <ele>916</ele>
        <time>2022-09-22T10:37:56.498Z</time>
      </trkpt>
      <trkpt lat="44.95032" lon="5.39548">
        <ele>916</ele>
        <time>2022-09-22T10:37:57.498Z</time>
      </trkpt>
      <trkpt lat="44.95032" lon="5.39545">
        <ele>917</ele>
        <time>2022-09-22T10:37:58.497Z</time>
      </trkpt>
      <trkpt lat="44.95033" lon="5.39543">
        <ele>917</ele>
        <time>2022-09-22T10:37:59.498Z</time>
      </trkpt>
      <trkpt lat="44.95033" lon="5.39541">
        <ele>917</ele>
        <time>2022-09-22T10:38:00.498Z</time>
      </trkpt>
      <trkpt lat="44.95034" lon="5.39539">
        <ele>918</ele>
        <time>2022-09-22T10:38:01.498Z</time>
      </trkpt>
      <trkpt lat="44.95035" lon="5.39537">
        <ele>918</ele>
        <time>2022-09-22T10:38:02.498Z</time>
      </trkpt>
      <trkpt lat="44.95035" lon="5.39535">
        <ele>918</ele>
        <time>2022-09-22T10:38:03.498Z</time>
      </trkpt>
      <trkpt lat="44.95036" lon="5.39533">
        <ele>919</ele>
        <time>2022-09-22T10:38:04.498Z</time>
      </trkpt>
      <trkpt lat="44.95037" lon="5.39531">
        <ele>918</ele>
        <time>2022-09-22T10:38:05.497Z</time>
      </trkpt>
      <trkpt lat="44.95038" lon="5.39529">
        <ele>919</ele>
        <time>2022-09-22T10:38:06.498Z</time>
      </trkpt>
      <trkpt lat="44.95039" lon="5.39527">
        <ele>919</ele>
        <time>2022-09-22T10:38:07.497Z</time>
      </trkpt>
      <trkpt lat="44.95039" lon="5.39526">
        <ele>919</ele>
        <time>2022-09-22T10:38:08.498Z</time>
      </trkpt>
      <trkpt lat="44.9504" lon="5.39524">
        <ele>919</ele>
        <time>2022-09-22T10:38:09.497Z</time>
      </trkpt>
      <trkpt lat="44.95042" lon="5.39521">
        <ele>919</ele>
        <time>2022-09-22T10:38:10.498Z</time>
      </trkpt>
      <trkpt lat="44.95043" lon="5.3952">
        <ele>919</ele>
        <time>2022-09-22T10:38:11.497Z</time>
      </trkpt>
      <trkpt lat="44.95043" lon="5.39519">
        <ele>919</ele>
        <time>2022-09-22T10:38:12.497Z</time>
      </trkpt>
      <trkpt lat="44.95045" lon="5.39517">
        <ele>919</ele>
        <time>2022-09-22T10:38:13.497Z</time>
      </trkpt>
      <trkpt lat="44.95046" lon="5.39515">
        <ele>919</ele>
        <time>2022-09-22T10:38:14.498Z</time>
      </trkpt>
      <trkpt lat="44.95047" lon="5.39513">
        <ele>919</ele>
        <time>2022-09-22T10:38:15.498Z</time>
      </trkpt>
      <trkpt lat="44.95048" lon="5.39511">
        <ele>919</ele>
        <time>2022-09-22T10:38:16.497Z</time>
      </trkpt>
      <trkpt lat="44.95049" lon="5.3951">
        <ele>919</ele>
        <time>2022-09-22T10:38:17.498Z</time>
      </trkpt>
      <trkpt lat="44.9505" lon="5.39508">
        <ele>920</ele>
        <time>2022-09-22T10:38:18.498Z</time>
      </trkpt>
      <trkpt lat="44.95051" lon="5.39506">
        <ele>920</ele>
        <time>2022-09-22T10:38:19.497Z</time>
      </trkpt>
      <trkpt lat="44.95051" lon="5.39504">
        <ele>920</ele>
        <time>2022-09-22T10:38:20.497Z</time>
      </trkpt>
      <trkpt lat="44.95052" lon="5.39502">
        <ele>921</ele>
        <time>2022-09-22T10:38:21.498Z</time>
      </trkpt>
      <trkpt lat="44.95053" lon="5.395">
        <ele>921</ele>
        <time>2022-09-22T10:38:22.497Z</time>
      </trkpt>
      <trkpt lat="44.95054" lon="5.39498">
        <ele>921</ele>
        <time>2022-09-22T10:38:23.498Z</time>
      </trkpt>
      <trkpt lat="44.95054" lon="5.39496">
        <ele>921</ele>
        <time>2022-09-22T10:38:24.498Z</time>
      </trkpt>
      <trkpt lat="44.95055" lon="5.39494">
        <ele>922</ele>
        <time>2022-09-22T10:38:25.498Z</time>
      </trkpt>
      <trkpt lat="44.95056" lon="5.39493">
        <ele>922</ele>
        <time>2022-09-22T10:38:26.497Z</time>
      </trkpt>
      <trkpt lat="44.95057" lon="5.39491">
        <ele>922</ele>
        <time>2022-09-22T10:38:27.498Z</time>
      </trkpt>
      <trkpt lat="44.95058" lon="5.39489">
        <ele>922</ele>
        <time>2022-09-22T10:38:28.498Z</time>
      </trkpt>
      <trkpt lat="44.95059" lon="5.39487">
        <ele>921</ele>
        <time>2022-09-22T10:38:29.498Z</time>
      </trkpt>
      <trkpt lat="44.9506" lon="5.39485">
        <ele>922</ele>
        <time>2022-09-22T10:38:30.497Z</time>
      </trkpt>
      <trkpt lat="44.95061" lon="5.39483">
        <ele>922</ele>
        <time>2022-09-22T10:38:31.498Z</time>
      </trkpt>
      <trkpt lat="44.95061" lon="5.39481">
        <ele>923</ele>
        <time>2022-09-22T10:38:32.498Z</time>
      </trkpt>
      <trkpt lat="44.95062" lon="5.39479">
        <ele>923</ele>
        <time>2022-09-22T10:38:33.498Z</time>
      </trkpt>
      <trkpt lat="44.95063" lon="5.39477">
        <ele>923</ele>
        <time>2022-09-22T10:38:34.497Z</time>
      </trkpt>
      <trkpt lat="44.95064" lon="5.39475">
        <ele>924</ele>
        <time>2022-09-22T10:38:35.497Z</time>
      </trkpt>
      <trkpt lat="44.95065" lon="5.39474">
        <ele>924</ele>
        <time>2022-09-22T10:38:36.497Z</time>
      </trkpt>
      <trkpt lat="44.95066" lon="5.39472">
        <ele>924</ele>
        <time>2022-09-22T10:38:37.497Z</time>
      </trkpt>
      <trkpt lat="44.95066" lon="5.3947">
        <ele>924</ele>
        <time>2022-09-22T10:38:38.498Z</time>
      </trkpt>
      <trkpt lat="44.95067" lon="5.39468">
        <ele>924</ele>
        <time>2022-09-22T10:38:39.497Z</time>
      </trkpt>
      <trkpt lat="44.95068" lon="5.39466">
        <ele>924</ele>
        <time>2022-09-22T10:38:40.498Z</time>
      </trkpt>
      <trkpt lat="44.95069" lon="5.39464">
        <ele>924</ele>
        <time>2022-09-22T10:38:41.498Z</time>
      </trkpt>
      <trkpt lat="44.95069" lon="5.39462">
        <ele>924</ele>
        <time>2022-09-22T10:38:42.497Z</time>
      </trkpt>
      <trkpt lat="44.9507" lon="5.3946">
        <ele>924</ele>
        <time>2022-09-22T10:38:43.497Z</time>
      </trkpt>
      <trkpt lat="44.9507" lon="5.39458">
        <ele>924</ele>
        <time>2022-09-22T10:38:44.498Z</time>
      </trkpt>
      <trkpt lat="44.95071" lon="5.39455">
        <ele>924</ele>
        <time>2022-09-22T10:38:45.498Z</time>
      </trkpt>
      <trkpt lat="44.95072" lon="5.39453">
        <ele>924</ele>
        <time>2022-09-22T10:38:46.497Z</time>
      </trkpt>
      <trkpt lat="44.95072" lon="5.39451">
        <ele>925</ele>
        <time>2022-09-22T10:38:47.497Z</time>
      </trkpt>
      <trkpt lat="44.95073" lon="5.39449">
        <ele>925</ele>
        <time>2022-09-22T10:38:48.498Z</time>
      </trkpt>
      <trkpt lat="44.95073" lon="5.39447">
        <ele>925</ele>
        <time>2022-09-22T10:38:49.498Z</time>
      </trkpt>
      <trkpt lat="44.95074" lon="5.39445">
        <ele>926</ele>
        <time>2022-09-22T10:38:50.498Z</time>
      </trkpt>
      <trkpt lat="44.95075" lon="5.39442">
        <ele>926</ele>
        <time>2022-09-22T10:38:51.498Z</time>
      </trkpt>
      <trkpt lat="44.95075" lon="5.3944">
        <ele>926</ele>
        <time>2022-09-22T10:38:52.498Z</time>
      </trkpt>
      <trkpt lat="44.95076" lon="5.39438">
        <ele>927</ele>
        <time>2022-09-22T10:38:53.498Z</time>
      </trkpt>
      <trkpt lat="44.95076" lon="5.39436">
        <ele>927</ele>
        <time>2022-09-22T10:38:54.498Z</time>
      </trkpt>
      <trkpt lat="44.95077" lon="5.39434">
        <ele>927</ele>
        <time>2022-09-22T10:38:55.498Z</time>
      </trkpt>
      <trkpt lat="44.95078" lon="5.39432">
        <ele>927</ele>
        <time>2022-09-22T10:38:56.498Z</time>
      </trkpt>
      <trkpt lat="44.95078" lon="5.3943">
        <ele>927</ele>
        <time>2022-09-22T10:38:57.498Z</time>
      </trkpt>
      <trkpt lat="44.95079" lon="5.39428">
        <ele>927</ele>
        <time>2022-09-22T10:38:58.498Z</time>
      </trkpt>
      <trkpt lat="44.95079" lon="5.39426">
        <ele>927</ele>
        <time>2022-09-22T10:38:59.498Z</time>
      </trkpt>
      <trkpt lat="44.9508" lon="5.39424">
        <ele>927</ele>
        <time>2022-09-22T10:39:00.497Z</time>
      </trkpt>
      <trkpt lat="44.9508" lon="5.39421">
        <ele>927</ele>
        <time>2022-09-22T10:39:01.498Z</time>
      </trkpt>
      <trkpt lat="44.95081" lon="5.39419">
        <ele>927</ele>
        <time>2022-09-22T10:39:02.497Z</time>
      </trkpt>
      <trkpt lat="44.95081" lon="5.39417">
        <ele>927</ele>
        <time>2022-09-22T10:39:03.498Z</time>
      </trkpt>
      <trkpt lat="44.95082" lon="5.39414">
        <ele>927</ele>
        <time>2022-09-22T10:39:04.498Z</time>
      </trkpt>
      <trkpt lat="44.95082" lon="5.39412">
        <ele>927</ele>
        <time>2022-09-22T10:39:05.498Z</time>
      </trkpt>
      <trkpt lat="44.95082" lon="5.39409">
        <ele>927</ele>
        <time>2022-09-22T10:39:06.498Z</time>
      </trkpt>
      <trkpt lat="44.95082" lon="5.39406">
        <ele>927</ele>
        <time>2022-09-22T10:39:07.498Z</time>
      </trkpt>
      <trkpt lat="44.95083" lon="5.39403">
        <ele>927</ele>
        <time>2022-09-22T10:39:08.498Z</time>
      </trkpt>
      <trkpt lat="44.95083" lon="5.394">
        <ele>927</ele>
        <time>2022-09-22T10:39:09.498Z</time>
      </trkpt>
      <trkpt lat="44.95083" lon="5.39397">
        <ele>927</ele>
        <time>2022-09-22T10:39:10.498Z</time>
      </trkpt>
      <trkpt lat="44.95084" lon="5.39394">
        <ele>927</ele>
        <time>2022-09-22T10:39:11.498Z</time>
      </trkpt>
      <trkpt lat="44.95084" lon="5.39391">
        <ele>927</ele>
        <time>2022-09-22T10:39:12.498Z</time>
      </trkpt>
      <trkpt lat="44.95084" lon="5.39389">
        <ele>926</ele>
        <time>2022-09-22T10:39:13.498Z</time>
      </trkpt>
      <trkpt lat="44.95085" lon="5.39386">
        <ele>926</ele>
        <time>2022-09-22T10:39:14.498Z</time>
      </trkpt>
      <trkpt lat="44.95085" lon="5.39383">
        <ele>925</ele>
        <time>2022-09-22T10:39:15.497Z</time>
      </trkpt>
      <trkpt lat="44.95086" lon="5.39381">
        <ele>925</ele>
        <time>2022-09-22T10:39:16.497Z</time>
      </trkpt>
      <trkpt lat="44.95087" lon="5.39379">
        <ele>925</ele>
        <time>2022-09-22T10:39:17.498Z</time>
      </trkpt>
      <trkpt lat="44.95087" lon="5.39377">
        <ele>925</ele>
        <time>2022-09-22T10:39:18.498Z</time>
      </trkpt>
      <trkpt lat="44.95088" lon="5.39375">
        <ele>926</ele>
        <time>2022-09-22T10:39:19.498Z</time>
      </trkpt>
      <trkpt lat="44.95089" lon="5.39373">
        <ele>926</ele>
        <time>2022-09-22T10:39:20.498Z</time>
      </trkpt>
      <trkpt lat="44.9509" lon="5.39371">
        <ele>927</ele>
        <time>2022-09-22T10:39:21.498Z</time>
      </trkpt>
      <trkpt lat="44.95091" lon="5.39369">
        <ele>927</ele>
        <time>2022-09-22T10:39:22.498Z</time>
      </trkpt>
      <trkpt lat="44.95092" lon="5.39367">
        <ele>927</ele>
        <time>2022-09-22T10:39:23.498Z</time>
      </trkpt>
      <trkpt lat="44.95093" lon="5.39365">
        <ele>927</ele>
        <time>2022-09-22T10:39:24.498Z</time>
      </trkpt>
      <trkpt lat="44.95094" lon="5.39363">
        <ele>927</ele>
        <time>2022-09-22T10:39:25.497Z</time>
      </trkpt>
      <trkpt lat="44.95096" lon="5.39361">
        <ele>927</ele>
        <time>2022-09-22T10:39:26.498Z</time>
      </trkpt>
      <trkpt lat="44.95097" lon="5.39359">
        <ele>927</ele>
        <time>2022-09-22T10:39:27.497Z</time>
      </trkpt>
      <trkpt lat="44.95098" lon="5.39357">
        <ele>927</ele>
        <time>2022-09-22T10:39:28.497Z</time>
      </trkpt>
      <trkpt lat="44.95099" lon="5.39355">
        <ele>928</ele>
        <time>2022-09-22T10:39:29.497Z</time>
      </trkpt>
      <trkpt lat="44.951" lon="5.39353">
        <ele>928</ele>
        <time>2022-09-22T10:39:30.498Z</time>
      </trkpt>
      <trkpt lat="44.95101" lon="5.3935">
        <ele>928</ele>
        <time>2022-09-22T10:39:31.498Z</time>
      </trkpt>
      <trkpt lat="44.95102" lon="5.39348">
        <ele>927</ele>
        <time>2022-09-22T10:39:32.498Z</time>
      </trkpt>
      <trkpt lat="44.95103" lon="5.39346">
        <ele>927</ele>
        <time>2022-09-22T10:39:33.497Z</time>
      </trkpt>
      <trkpt lat="44.95104" lon="5.39343">
        <ele>927</ele>
        <time>2022-09-22T10:39:34.497Z</time>
      </trkpt>
      <trkpt lat="44.95104" lon="5.39341">
        <ele>927</ele>
        <time>2022-09-22T10:39:35.497Z</time>
      </trkpt>
      <trkpt lat="44.95105" lon="5.39339">
        <ele>927</ele>
        <time>2022-09-22T10:39:36.498Z</time>
      </trkpt>
      <trkpt lat="44.95106" lon="5.39336">
        <ele>927</ele>
        <time>2022-09-22T10:39:37.498Z</time>
      </trkpt>
      <trkpt lat="44.95107" lon="5.39334">
        <ele>927</ele>
        <time>2022-09-22T10:39:38.498Z</time>
      </trkpt>
      <trkpt lat="44.95108" lon="5.39332">
        <ele>927</ele>
        <time>2022-09-22T10:39:39.497Z</time>
      </trkpt>
      <trkpt lat="44.95108" lon="5.39329">
        <ele>927</ele>
        <time>2022-09-22T10:39:40.498Z</time>
      </trkpt>
      <trkpt lat="44.95109" lon="5.39327">
        <ele>927</ele>
        <time>2022-09-22T10:39:41.497Z</time>
      </trkpt>
      <trkpt lat="44.9511" lon="5.39324">
        <ele>927</ele>
        <time>2022-09-22T10:39:42.498Z</time>
      </trkpt>
      <trkpt lat="44.9511" lon="5.39322">
        <ele>926</ele>
        <time>2022-09-22T10:39:43.498Z</time>
      </trkpt>
      <trkpt lat="44.95111" lon="5.39319">
        <ele>926</ele>
        <time>2022-09-22T10:39:44.498Z</time>
      </trkpt>
      <trkpt lat="44.95112" lon="5.39317">
        <ele>927</ele>
        <time>2022-09-22T10:39:45.498Z</time>
      </trkpt>
      <trkpt lat="44.95112" lon="5.39315">
        <ele>927</ele>
        <time>2022-09-22T10:39:46.498Z</time>
      </trkpt>
      <trkpt lat="44.95113" lon="5.39312">
        <ele>928</ele>
        <time>2022-09-22T10:39:47.498Z</time>
      </trkpt>
      <trkpt lat="44.95114" lon="5.3931">
        <ele>928</ele>
        <time>2022-09-22T10:39:48.497Z</time>
      </trkpt>
      <trkpt lat="44.95115" lon="5.39308">
        <ele>928</ele>
        <time>2022-09-22T10:39:49.498Z</time>
      </trkpt>
      <trkpt lat="44.95116" lon="5.39306">
        <ele>928</ele>
        <time>2022-09-22T10:39:50.498Z</time>
      </trkpt>
      <trkpt lat="44.95117" lon="5.39303">
        <ele>928</ele>
        <time>2022-09-22T10:39:51.498Z</time>
      </trkpt>
      <trkpt lat="44.95117" lon="5.39301">
        <ele>928</ele>
        <time>2022-09-22T10:39:52.498Z</time>
      </trkpt>
      <trkpt lat="44.95117" lon="5.39299">
        <ele>928</ele>
        <time>2022-09-22T10:39:53.498Z</time>
      </trkpt>
      <trkpt lat="44.95118" lon="5.39295">
        <ele>928</ele>
        <time>2022-09-22T10:39:54.497Z</time>
      </trkpt>
      <trkpt lat="44.95118" lon="5.39291">
        <ele>928</ele>
        <time>2022-09-22T10:39:55.497Z</time>
      </trkpt>
      <trkpt lat="44.95118" lon="5.39287">
        <ele>927</ele>
        <time>2022-09-22T10:39:56.498Z</time>
      </trkpt>
      <trkpt lat="44.95119" lon="5.39282">
        <ele>927</ele>
        <time>2022-09-22T10:39:57.498Z</time>
      </trkpt>
      <trkpt lat="44.95119" lon="5.39279">
        <ele>927</ele>
        <time>2022-09-22T10:39:58.498Z</time>
      </trkpt>
      <trkpt lat="44.9512" lon="5.39275">
        <ele>926</ele>
        <time>2022-09-22T10:39:59.498Z</time>
      </trkpt>
      <trkpt lat="44.9512" lon="5.39272">
        <ele>926</ele>
        <time>2022-09-22T10:40:00.498Z</time>
      </trkpt>
      <trkpt lat="44.95121" lon="5.39269">
        <ele>926</ele>
        <time>2022-09-22T10:40:01.498Z</time>
      </trkpt>
      <trkpt lat="44.95122" lon="5.39266">
        <ele>925</ele>
        <time>2022-09-22T10:40:02.497Z</time>
      </trkpt>
      <trkpt lat="44.95122" lon="5.39262">
        <ele>925</ele>
        <time>2022-09-22T10:40:03.498Z</time>
      </trkpt>
      <trkpt lat="44.95122" lon="5.3926">
        <ele>926</ele>
        <time>2022-09-22T10:40:04.498Z</time>
      </trkpt>
      <trkpt lat="44.95123" lon="5.39256">
        <ele>926</ele>
        <time>2022-09-22T10:40:05.497Z</time>
      </trkpt>
      <trkpt lat="44.95123" lon="5.39253">
        <ele>926</ele>
        <time>2022-09-22T10:40:06.498Z</time>
      </trkpt>
      <trkpt lat="44.95123" lon="5.3925">
        <ele>925</ele>
        <time>2022-09-22T10:40:07.497Z</time>
      </trkpt>
      <trkpt lat="44.95123" lon="5.39248">
        <ele>925</ele>
        <time>2022-09-22T10:40:08.498Z</time>
      </trkpt>
      <trkpt lat="44.95123" lon="5.39245">
        <ele>925</ele>
        <time>2022-09-22T10:40:09.498Z</time>
      </trkpt>
      <trkpt lat="44.95122" lon="5.39242">
        <ele>925</ele>
        <time>2022-09-22T10:40:10.498Z</time>
      </trkpt>
      <trkpt lat="44.95121" lon="5.39239">
        <ele>925</ele>
        <time>2022-09-22T10:40:11.498Z</time>
      </trkpt>
      <trkpt lat="44.95121" lon="5.39236">
        <ele>925</ele>
        <time>2022-09-22T10:40:12.498Z</time>
      </trkpt>
      <trkpt lat="44.9512" lon="5.39234">
        <ele>925</ele>
        <time>2022-09-22T10:40:13.498Z</time>
      </trkpt>
      <trkpt lat="44.9512" lon="5.39231">
        <ele>926</ele>
        <time>2022-09-22T10:40:14.498Z</time>
      </trkpt>
      <trkpt lat="44.9512" lon="5.39229">
        <ele>926</ele>
        <time>2022-09-22T10:40:15.498Z</time>
      </trkpt>
      <trkpt lat="44.95119" lon="5.39226">
        <ele>926</ele>
        <time>2022-09-22T10:40:16.498Z</time>
      </trkpt>
      <trkpt lat="44.95119" lon="5.39223">
        <ele>927</ele>
        <time>2022-09-22T10:40:17.497Z</time>
      </trkpt>
      <trkpt lat="44.95119" lon="5.3922">
        <ele>927</ele>
        <time>2022-09-22T10:40:18.497Z</time>
      </trkpt>
      <trkpt lat="44.95119" lon="5.39217">
        <ele>927</ele>
        <time>2022-09-22T10:40:19.498Z</time>
      </trkpt>
      <trkpt lat="44.95118" lon="5.39214">
        <ele>927</ele>
        <time>2022-09-22T10:40:20.497Z</time>
      </trkpt>
      <trkpt lat="44.95118" lon="5.39211">
        <ele>927</ele>
        <time>2022-09-22T10:40:21.497Z</time>
      </trkpt>
      <trkpt lat="44.95118" lon="5.39207">
        <ele>927</ele>
        <time>2022-09-22T10:40:22.498Z</time>
      </trkpt>
      <trkpt lat="44.95117" lon="5.39203">
        <ele>927</ele>
        <time>2022-09-22T10:40:23.498Z</time>
      </trkpt>
      <trkpt lat="44.95117" lon="5.39199">
        <ele>927</ele>
        <time>2022-09-22T10:40:24.498Z</time>
      </trkpt>
      <trkpt lat="44.95117" lon="5.39194">
        <ele>927</ele>
        <time>2022-09-22T10:40:25.498Z</time>
      </trkpt>
      <trkpt lat="44.95117" lon="5.3919">
        <ele>927</ele>
        <time>2022-09-22T10:40:26.498Z</time>
      </trkpt>
      <trkpt lat="44.95117" lon="5.39185">
        <ele>926</ele>
        <time>2022-09-22T10:40:27.498Z</time>
      </trkpt>
      <trkpt lat="44.95117" lon="5.39181">
        <ele>926</ele>
        <time>2022-09-22T10:40:28.498Z</time>
      </trkpt>
      <trkpt lat="44.95116" lon="5.39175">
        <ele>926</ele>
        <time>2022-09-22T10:40:29.498Z</time>
      </trkpt>
      <trkpt lat="44.95116" lon="5.39171">
        <ele>926</ele>
        <time>2022-09-22T10:40:30.498Z</time>
      </trkpt>
      <trkpt lat="44.95115" lon="5.39167">
        <ele>926</ele>
        <time>2022-09-22T10:40:31.497Z</time>
      </trkpt>
      <trkpt lat="44.95115" lon="5.39164">
        <ele>926</ele>
        <time>2022-09-22T10:40:32.498Z</time>
      </trkpt>
      <trkpt lat="44.95114" lon="5.3916">
        <ele>926</ele>
        <time>2022-09-22T10:40:33.497Z</time>
      </trkpt>
      <trkpt lat="44.95113" lon="5.39157">
        <ele>926</ele>
        <time>2022-09-22T10:40:34.497Z</time>
      </trkpt>
      <trkpt lat="44.95112" lon="5.39153">
        <ele>926</ele>
        <time>2022-09-22T10:40:35.498Z</time>
      </trkpt>
      <trkpt lat="44.95112" lon="5.3915">
        <ele>925</ele>
        <time>2022-09-22T10:40:36.498Z</time>
      </trkpt>
      <trkpt lat="44.95111" lon="5.39147">
        <ele>925</ele>
        <time>2022-09-22T10:40:37.497Z</time>
      </trkpt>
      <trkpt lat="44.9511" lon="5.39144">
        <ele>925</ele>
        <time>2022-09-22T10:40:38.497Z</time>
      </trkpt>
      <trkpt lat="44.95109" lon="5.39141">
        <ele>926</ele>
        <time>2022-09-22T10:40:39.498Z</time>
      </trkpt>
      <trkpt lat="44.95109" lon="5.39139">
        <ele>926</ele>
        <time>2022-09-22T10:40:40.498Z</time>
      </trkpt>
      <trkpt lat="44.95108" lon="5.39136">
        <ele>927</ele>
        <time>2022-09-22T10:40:41.498Z</time>
      </trkpt>
      <trkpt lat="44.95107" lon="5.39134">
        <ele>927</ele>
        <time>2022-09-22T10:40:42.498Z</time>
      </trkpt>
      <trkpt lat="44.95107" lon="5.39132">
        <ele>927</ele>
        <time>2022-09-22T10:40:43.498Z</time>
      </trkpt>
      <trkpt lat="44.95106" lon="5.39129">
        <ele>927</ele>
        <time>2022-09-22T10:40:44.497Z</time>
      </trkpt>
      <trkpt lat="44.95106" lon="5.39127">
        <ele>926</ele>
        <time>2022-09-22T10:40:45.498Z</time>
      </trkpt>
      <trkpt lat="44.95105" lon="5.39125">
        <ele>926</ele>
        <time>2022-09-22T10:40:46.498Z</time>
      </trkpt>
      <trkpt lat="44.95104" lon="5.39123">
        <ele>926</ele>
        <time>2022-09-22T10:40:47.497Z</time>
      </trkpt>
      <trkpt lat="44.95103" lon="5.3912">
        <ele>926</ele>
        <time>2022-09-22T10:40:48.497Z</time>
      </trkpt>
      <trkpt lat="44.95102" lon="5.39118">
        <ele>926</ele>
        <time>2022-09-22T10:40:49.497Z</time>
      </trkpt>
      <trkpt lat="44.95102" lon="5.39116">
        <ele>925</ele>
        <time>2022-09-22T10:40:50.498Z</time>
      </trkpt>
      <trkpt lat="44.951" lon="5.39114">
        <ele>926</ele>
        <time>2022-09-22T10:40:51.498Z</time>
      </trkpt>
      <trkpt lat="44.95099" lon="5.39112">
        <ele>926</ele>
        <time>2022-09-22T10:40:52.498Z</time>
      </trkpt>
      <trkpt lat="44.95098" lon="5.3911">
        <ele>926</ele>
        <time>2022-09-22T10:40:53.498Z</time>
      </trkpt>
      <trkpt lat="44.95097" lon="5.39108">
        <ele>926</ele>
        <time>2022-09-22T10:40:54.498Z</time>
      </trkpt>
      <trkpt lat="44.95096" lon="5.39106">
        <ele>926</ele>
        <time>2022-09-22T10:40:55.498Z</time>
      </trkpt>
      <trkpt lat="44.95095" lon="5.39104">
        <ele>926</ele>
        <time>2022-09-22T10:40:56.498Z</time>
      </trkpt>
      <trkpt lat="44.95094" lon="5.39103">
        <ele>926</ele>
        <time>2022-09-22T10:40:57.497Z</time>
      </trkpt>
      <trkpt lat="44.95093" lon="5.39101">
        <ele>926</ele>
        <time>2022-09-22T10:40:58.497Z</time>
      </trkpt>
      <trkpt lat="44.95092" lon="5.39099">
        <ele>926</ele>
        <time>2022-09-22T10:40:59.498Z</time>
      </trkpt>
      <trkpt lat="44.95091" lon="5.39097">
        <ele>926</ele>
        <time>2022-09-22T10:41:00.498Z</time>
      </trkpt>
      <trkpt lat="44.95089" lon="5.39096">
        <ele>926</ele>
        <time>2022-09-22T10:41:01.498Z</time>
      </trkpt>
      <trkpt lat="44.95088" lon="5.39095">
        <ele>927</ele>
        <time>2022-09-22T10:41:02.497Z</time>
      </trkpt>
      <trkpt lat="44.95086" lon="5.39094">
        <ele>927</ele>
        <time>2022-09-22T10:41:03.498Z</time>
      </trkpt>
      <trkpt lat="44.95085" lon="5.39092">
        <ele>928</ele>
        <time>2022-09-22T10:41:04.498Z</time>
      </trkpt>
      <trkpt lat="44.95084" lon="5.39091">
        <ele>928</ele>
        <time>2022-09-22T10:41:05.498Z</time>
      </trkpt>
      <trkpt lat="44.95083" lon="5.39089">
        <ele>929</ele>
        <time>2022-09-22T10:41:06.497Z</time>
      </trkpt>
      <trkpt lat="44.95082" lon="5.39087">
        <ele>929</ele>
        <time>2022-09-22T10:41:07.498Z</time>
      </trkpt>
      <trkpt lat="44.95082" lon="5.39085">
        <ele>929</ele>
        <time>2022-09-22T10:41:08.497Z</time>
      </trkpt>
      <trkpt lat="44.95081" lon="5.39084">
        <ele>930</ele>
        <time>2022-09-22T10:41:09.498Z</time>
      </trkpt>
      <trkpt lat="44.95081" lon="5.39082">
        <ele>930</ele>
        <time>2022-09-22T10:41:10.498Z</time>
      </trkpt>
      <trkpt lat="44.9508" lon="5.39081">
        <ele>931</ele>
        <time>2022-09-22T10:41:11.498Z</time>
      </trkpt>
      <trkpt lat="44.95079" lon="5.39079">
        <ele>931</ele>
        <time>2022-09-22T10:41:12.497Z</time>
      </trkpt>
      <trkpt lat="44.95079" lon="5.39077">
        <ele>931</ele>
        <time>2022-09-22T10:41:13.497Z</time>
      </trkpt>
      <trkpt lat="44.95078" lon="5.39075">
        <ele>932</ele>
        <time>2022-09-22T10:41:14.498Z</time>
      </trkpt>
      <trkpt lat="44.95077" lon="5.39074">
        <ele>932</ele>
        <time>2022-09-22T10:41:15.498Z</time>
      </trkpt>
      <trkpt lat="44.95076" lon="5.39072">
        <ele>933</ele>
        <time>2022-09-22T10:41:16.497Z</time>
      </trkpt>
      <trkpt lat="44.95075" lon="5.3907">
        <ele>933</ele>
        <time>2022-09-22T10:41:17.498Z</time>
      </trkpt>
      <trkpt lat="44.95074" lon="5.39069">
        <ele>932</ele>
        <time>2022-09-22T10:41:18.498Z</time>
      </trkpt>
      <trkpt lat="44.95073" lon="5.39066">
        <ele>932</ele>
        <time>2022-09-22T10:41:19.498Z</time>
      </trkpt>
      <trkpt lat="44.95072" lon="5.39065">
        <ele>932</ele>
        <time>2022-09-22T10:41:20.498Z</time>
      </trkpt>
      <trkpt lat="44.95071" lon="5.39064">
        <ele>932</ele>
        <time>2022-09-22T10:41:21.497Z</time>
      </trkpt>
      <trkpt lat="44.9507" lon="5.39063">
        <ele>932</ele>
        <time>2022-09-22T10:41:22.498Z</time>
      </trkpt>
      <trkpt lat="44.95069" lon="5.39062">
        <ele>933</ele>
        <time>2022-09-22T10:41:23.497Z</time>
      </trkpt>
      <trkpt lat="44.95067" lon="5.39062">
        <ele>933</ele>
        <time>2022-09-22T10:41:24.498Z</time>
      </trkpt>
      <trkpt lat="44.95066" lon="5.39062">
        <ele>933</ele>
        <time>2022-09-22T10:41:25.498Z</time>
      </trkpt>
      <trkpt lat="44.95064" lon="5.39063">
        <ele>933</ele>
        <time>2022-09-22T10:41:26.497Z</time>
      </trkpt>
      <trkpt lat="44.95063" lon="5.39063">
        <ele>934</ele>
        <time>2022-09-22T10:41:27.498Z</time>
      </trkpt>
      <trkpt lat="44.95062" lon="5.39064">
        <ele>934</ele>
        <time>2022-09-22T10:41:28.498Z</time>
      </trkpt>
      <trkpt lat="44.95061" lon="5.39065">
        <ele>934</ele>
        <time>2022-09-22T10:41:29.497Z</time>
      </trkpt>
      <trkpt lat="44.95059" lon="5.39066">
        <ele>935</ele>
        <time>2022-09-22T10:41:30.498Z</time>
      </trkpt>
      <trkpt lat="44.95058" lon="5.39067">
        <ele>935</ele>
        <time>2022-09-22T10:41:31.498Z</time>
      </trkpt>
      <trkpt lat="44.95057" lon="5.39068">
        <ele>935</ele>
        <time>2022-09-22T10:41:32.497Z</time>
      </trkpt>
      <trkpt lat="44.95055" lon="5.39069">
        <ele>936</ele>
        <time>2022-09-22T10:41:33.497Z</time>
      </trkpt>
      <trkpt lat="44.95054" lon="5.39069">
        <ele>936</ele>
        <time>2022-09-22T10:41:34.498Z</time>
      </trkpt>
      <trkpt lat="44.95052" lon="5.3907">
        <ele>937</ele>
        <time>2022-09-22T10:41:35.497Z</time>
      </trkpt>
      <trkpt lat="44.95051" lon="5.3907">
        <ele>937</ele>
        <time>2022-09-22T10:41:36.498Z</time>
      </trkpt>
      <trkpt lat="44.95049" lon="5.39071">
        <ele>937</ele>
        <time>2022-09-22T10:41:37.497Z</time>
      </trkpt>
      <trkpt lat="44.95048" lon="5.39072">
        <ele>937</ele>
        <time>2022-09-22T10:41:38.498Z</time>
      </trkpt>
      <trkpt lat="44.95046" lon="5.39072">
        <ele>937</ele>
        <time>2022-09-22T10:41:39.498Z</time>
      </trkpt>
      <trkpt lat="44.95045" lon="5.39073">
        <ele>937</ele>
        <time>2022-09-22T10:41:40.498Z</time>
      </trkpt>
      <trkpt lat="44.95043" lon="5.39073">
        <ele>937</ele>
        <time>2022-09-22T10:41:41.498Z</time>
      </trkpt>
      <trkpt lat="44.95042" lon="5.39074">
        <ele>937</ele>
        <time>2022-09-22T10:41:42.498Z</time>
      </trkpt>
      <trkpt lat="44.9504" lon="5.39075">
        <ele>937</ele>
        <time>2022-09-22T10:41:43.498Z</time>
      </trkpt>
      <trkpt lat="44.95039" lon="5.39075">
        <ele>937</ele>
        <time>2022-09-22T10:41:44.498Z</time>
      </trkpt>
      <trkpt lat="44.95037" lon="5.39076">
        <ele>937</ele>
        <time>2022-09-22T10:41:45.498Z</time>
      </trkpt>
      <trkpt lat="44.95036" lon="5.39077">
        <ele>937</ele>
        <time>2022-09-22T10:41:46.498Z</time>
      </trkpt>
      <trkpt lat="44.95034" lon="5.39078">
        <ele>938</ele>
        <time>2022-09-22T10:41:47.498Z</time>
      </trkpt>
      <trkpt lat="44.95033" lon="5.39079">
        <ele>938</ele>
        <time>2022-09-22T10:41:48.498Z</time>
      </trkpt>
      <trkpt lat="44.95031" lon="5.3908">
        <ele>939</ele>
        <time>2022-09-22T10:41:49.498Z</time>
      </trkpt>
      <trkpt lat="44.95029" lon="5.39081">
        <ele>939</ele>
        <time>2022-09-22T10:41:50.498Z</time>
      </trkpt>
      <trkpt lat="44.95028" lon="5.39081">
        <ele>939</ele>
        <time>2022-09-22T10:41:51.497Z</time>
      </trkpt>
      <trkpt lat="44.95026" lon="5.39083">
        <ele>940</ele>
        <time>2022-09-22T10:41:52.497Z</time>
      </trkpt>
      <trkpt lat="44.95025" lon="5.39083">
        <ele>940</ele>
        <time>2022-09-22T10:41:53.498Z</time>
      </trkpt>
      <trkpt lat="44.95023" lon="5.39084">
        <ele>940</ele>
        <time>2022-09-22T10:41:54.498Z</time>
      </trkpt>
      <trkpt lat="44.95022" lon="5.39084">
        <ele>940</ele>
        <time>2022-09-22T10:41:55.498Z</time>
      </trkpt>
      <trkpt lat="44.9502" lon="5.39085">
        <ele>940</ele>
        <time>2022-09-22T10:41:56.498Z</time>
      </trkpt>
      <trkpt lat="44.95019" lon="5.39086">
        <ele>940</ele>
        <time>2022-09-22T10:41:57.498Z</time>
      </trkpt>
      <trkpt lat="44.95017" lon="5.39087">
        <ele>940</ele>
        <time>2022-09-22T10:41:58.498Z</time>
      </trkpt>
      <trkpt lat="44.95016" lon="5.39088">
        <ele>940</ele>
        <time>2022-09-22T10:41:59.498Z</time>
      </trkpt>
      <trkpt lat="44.95015" lon="5.39089">
        <ele>940</ele>
        <time>2022-09-22T10:42:00.498Z</time>
      </trkpt>
      <trkpt lat="44.95014" lon="5.3909">
        <ele>940</ele>
        <time>2022-09-22T10:42:01.497Z</time>
      </trkpt>
      <trkpt lat="44.95012" lon="5.39091">
        <ele>940</ele>
        <time>2022-09-22T10:42:02.498Z</time>
      </trkpt>
      <trkpt lat="44.95011" lon="5.39092">
        <ele>940</ele>
        <time>2022-09-22T10:42:03.498Z</time>
      </trkpt>
      <trkpt lat="44.95009" lon="5.39093">
        <ele>940</ele>
        <time>2022-09-22T10:42:04.498Z</time>
      </trkpt>
      <trkpt lat="44.95008" lon="5.39095">
        <ele>940</ele>
        <time>2022-09-22T10:42:05.497Z</time>
      </trkpt>
      <trkpt lat="44.95007" lon="5.39096">
        <ele>941</ele>
        <time>2022-09-22T10:42:06.498Z</time>
      </trkpt>
      <trkpt lat="44.95006" lon="5.39097">
        <ele>941</ele>
        <time>2022-09-22T10:42:07.498Z</time>
      </trkpt>
      <trkpt lat="44.95004" lon="5.39098">
        <ele>941</ele>
        <time>2022-09-22T10:42:08.498Z</time>
      </trkpt>
      <trkpt lat="44.95002" lon="5.391">
        <ele>941</ele>
        <time>2022-09-22T10:42:09.498Z</time>
      </trkpt>
      <trkpt lat="44.95001" lon="5.39101">
        <ele>941</ele>
        <time>2022-09-22T10:42:10.498Z</time>
      </trkpt>
      <trkpt lat="44.94999" lon="5.39102">
        <ele>941</ele>
        <time>2022-09-22T10:42:11.498Z</time>
      </trkpt>
      <trkpt lat="44.94998" lon="5.39102">
        <ele>941</ele>
        <time>2022-09-22T10:42:12.498Z</time>
      </trkpt>
      <trkpt lat="44.94997" lon="5.39103">
        <ele>940</ele>
        <time>2022-09-22T10:42:13.498Z</time>
      </trkpt>
      <trkpt lat="44.94996" lon="5.39104">
        <ele>940</ele>
        <time>2022-09-22T10:42:14.497Z</time>
      </trkpt>
      <trkpt lat="44.94994" lon="5.39105">
        <ele>939</ele>
        <time>2022-09-22T10:42:15.498Z</time>
      </trkpt>
      <trkpt lat="44.94992" lon="5.39105">
        <ele>939</ele>
        <time>2022-09-22T10:42:16.498Z</time>
      </trkpt>
      <trkpt lat="44.94991" lon="5.39105">
        <ele>939</ele>
        <time>2022-09-22T10:42:17.497Z</time>
      </trkpt>
      <trkpt lat="44.9499" lon="5.39105">
        <ele>939</ele>
        <time>2022-09-22T10:42:18.497Z</time>
      </trkpt>
      <trkpt lat="44.94988" lon="5.39105">
        <ele>939</ele>
        <time>2022-09-22T10:42:19.498Z</time>
      </trkpt>
      <trkpt lat="44.94987" lon="5.39104">
        <ele>940</ele>
        <time>2022-09-22T10:42:20.498Z</time>
      </trkpt>
      <trkpt lat="44.94985" lon="5.39104">
        <ele>940</ele>
        <time>2022-09-22T10:42:21.497Z</time>
      </trkpt>
      <trkpt lat="44.94983" lon="5.39104">
        <ele>941</ele>
        <time>2022-09-22T10:42:22.498Z</time>
      </trkpt>
      <trkpt lat="44.94981" lon="5.39103">
        <ele>941</ele>
        <time>2022-09-22T10:42:23.498Z</time>
      </trkpt>
      <trkpt lat="44.9498" lon="5.39103">
        <ele>942</ele>
        <time>2022-09-22T10:42:24.498Z</time>
      </trkpt>
      <trkpt lat="44.94978" lon="5.39102">
        <ele>942</ele>
        <time>2022-09-22T10:42:25.498Z</time>
      </trkpt>
      <trkpt lat="44.94976" lon="5.39102">
        <ele>942</ele>
        <time>2022-09-22T10:42:26.498Z</time>
      </trkpt>
      <trkpt lat="44.94974" lon="5.39103">
        <ele>943</ele>
        <time>2022-09-22T10:42:27.498Z</time>
      </trkpt>
      <trkpt lat="44.94972" lon="5.39104">
        <ele>943</ele>
        <time>2022-09-22T10:42:28.498Z</time>
      </trkpt>
      <trkpt lat="44.94969" lon="5.39105">
        <ele>943</ele>
        <time>2022-09-22T10:42:29.498Z</time>
      </trkpt>
      <trkpt lat="44.94967" lon="5.39106">
        <ele>944</ele>
        <time>2022-09-22T10:42:30.498Z</time>
      </trkpt>
      <trkpt lat="44.94966" lon="5.39107">
        <ele>944</ele>
        <time>2022-09-22T10:42:31.498Z</time>
      </trkpt>
      <trkpt lat="44.94964" lon="5.39109">
        <ele>945</ele>
        <time>2022-09-22T10:42:32.498Z</time>
      </trkpt>
      <trkpt lat="44.94963" lon="5.39111">
        <ele>945</ele>
        <time>2022-09-22T10:42:33.498Z</time>
      </trkpt>
      <trkpt lat="44.94962" lon="5.39113">
        <ele>946</ele>
        <time>2022-09-22T10:42:34.498Z</time>
      </trkpt>
      <trkpt lat="44.94962" lon="5.39115">
        <ele>946</ele>
        <time>2022-09-22T10:42:35.498Z</time>
      </trkpt>
      <trkpt lat="44.94962" lon="5.39119">
        <ele>945</ele>
        <time>2022-09-22T10:42:36.498Z</time>
      </trkpt>
      <trkpt lat="44.94961" lon="5.39123">
        <ele>945</ele>
        <time>2022-09-22T10:42:37.498Z</time>
      </trkpt>
      <trkpt lat="44.94961" lon="5.39126">
        <ele>945</ele>
        <time>2022-09-22T10:42:38.498Z</time>
      </trkpt>
      <trkpt lat="44.94961" lon="5.39129">
        <ele>946</ele>
        <time>2022-09-22T10:42:39.498Z</time>
      </trkpt>
      <trkpt lat="44.94961" lon="5.39132">
        <ele>946</ele>
        <time>2022-09-22T10:42:40.498Z</time>
      </trkpt>
      <trkpt lat="44.94961" lon="5.39134">
        <ele>946</ele>
        <time>2022-09-22T10:42:41.498Z</time>
      </trkpt>
      <trkpt lat="44.94962" lon="5.39137">
        <ele>947</ele>
        <time>2022-09-22T10:42:42.498Z</time>
      </trkpt>
      <trkpt lat="44.94962" lon="5.39139">
        <ele>947</ele>
        <time>2022-09-22T10:42:43.497Z</time>
      </trkpt>
      <trkpt lat="44.94963" lon="5.39141">
        <ele>948</ele>
        <time>2022-09-22T10:42:44.498Z</time>
      </trkpt>
      <trkpt lat="44.94963" lon="5.39144">
        <ele>948</ele>
        <time>2022-09-22T10:42:45.498Z</time>
      </trkpt>
      <trkpt lat="44.94963" lon="5.39147">
        <ele>949</ele>
        <time>2022-09-22T10:42:46.498Z</time>
      </trkpt>
      <trkpt lat="44.94963" lon="5.39149">
        <ele>950</ele>
        <time>2022-09-22T10:42:47.498Z</time>
      </trkpt>
      <trkpt lat="44.94964" lon="5.39151">
        <ele>950</ele>
        <time>2022-09-22T10:42:48.498Z</time>
      </trkpt>
      <trkpt lat="44.94964" lon="5.39153">
        <ele>950</ele>
        <time>2022-09-22T10:42:49.498Z</time>
      </trkpt>
      <trkpt lat="44.94964" lon="5.39155">
        <ele>951</ele>
        <time>2022-09-22T10:42:50.498Z</time>
      </trkpt>
      <trkpt lat="44.94964" lon="5.39158">
        <ele>951</ele>
        <time>2022-09-22T10:42:51.498Z</time>
      </trkpt>
      <trkpt lat="44.94964" lon="5.3916">
        <ele>951</ele>
        <time>2022-09-22T10:42:52.498Z</time>
      </trkpt>
      <trkpt lat="44.94964" lon="5.39163">
        <ele>951</ele>
        <time>2022-09-22T10:42:53.498Z</time>
      </trkpt>
      <trkpt lat="44.94964" lon="5.39164">
        <ele>951</ele>
        <time>2022-09-22T10:42:54.498Z</time>
      </trkpt>
      <trkpt lat="44.94963" lon="5.39166">
        <ele>951</ele>
        <time>2022-09-22T10:42:55.498Z</time>
      </trkpt>
      <trkpt lat="44.94963" lon="5.39169">
        <ele>951</ele>
        <time>2022-09-22T10:42:56.498Z</time>
      </trkpt>
      <trkpt lat="44.94962" lon="5.39171">
        <ele>951</ele>
        <time>2022-09-22T10:42:57.498Z</time>
      </trkpt>
      <trkpt lat="44.94961" lon="5.39172">
        <ele>950</ele>
        <time>2022-09-22T10:42:58.498Z</time>
      </trkpt>
      <trkpt lat="44.94959" lon="5.39173">
        <ele>950</ele>
        <time>2022-09-22T10:42:59.498Z</time>
      </trkpt>
      <trkpt lat="44.94958" lon="5.39175">
        <ele>950</ele>
        <time>2022-09-22T10:43:00.498Z</time>
      </trkpt>
      <trkpt lat="44.94957" lon="5.39176">
        <ele>949</ele>
        <time>2022-09-22T10:43:01.498Z</time>
      </trkpt>
      <trkpt lat="44.94955" lon="5.39177">
        <ele>949</ele>
        <time>2022-09-22T10:43:02.497Z</time>
      </trkpt>
      <trkpt lat="44.94954" lon="5.39179">
        <ele>949</ele>
        <time>2022-09-22T10:43:03.498Z</time>
      </trkpt>
      <trkpt lat="44.94953" lon="5.3918">
        <ele>949</ele>
        <time>2022-09-22T10:43:04.498Z</time>
      </trkpt>
      <trkpt lat="44.94951" lon="5.39182">
        <ele>949</ele>
        <time>2022-09-22T10:43:05.497Z</time>
      </trkpt>
      <trkpt lat="44.9495" lon="5.39183">
        <ele>948</ele>
        <time>2022-09-22T10:43:06.498Z</time>
      </trkpt>
      <trkpt lat="44.94949" lon="5.39185">
        <ele>948</ele>
        <time>2022-09-22T10:43:07.498Z</time>
      </trkpt>
      <trkpt lat="44.94948" lon="5.39187">
        <ele>947</ele>
        <time>2022-09-22T10:43:08.497Z</time>
      </trkpt>
      <trkpt lat="44.94947" lon="5.39188">
        <ele>947</ele>
        <time>2022-09-22T10:43:09.498Z</time>
      </trkpt>
      <trkpt lat="44.94945" lon="5.3919">
        <ele>947</ele>
        <time>2022-09-22T10:43:10.498Z</time>
      </trkpt>
      <trkpt lat="44.94944" lon="5.39191">
        <ele>946</ele>
        <time>2022-09-22T10:43:11.498Z</time>
      </trkpt>
      <trkpt lat="44.94942" lon="5.39192">
        <ele>946</ele>
        <time>2022-09-22T10:43:12.498Z</time>
      </trkpt>
      <trkpt lat="44.94941" lon="5.39193">
        <ele>946</ele>
        <time>2022-09-22T10:43:13.498Z</time>
      </trkpt>
      <trkpt lat="44.94939" lon="5.39195">
        <ele>946</ele>
        <time>2022-09-22T10:43:14.497Z</time>
      </trkpt>
      <trkpt lat="44.94938" lon="5.39196">
        <ele>945</ele>
        <time>2022-09-22T10:43:15.498Z</time>
      </trkpt>
      <trkpt lat="44.94937" lon="5.39198">
        <ele>945</ele>
        <time>2022-09-22T10:43:16.498Z</time>
      </trkpt>
      <trkpt lat="44.94936" lon="5.392">
        <ele>945</ele>
        <time>2022-09-22T10:43:17.498Z</time>
      </trkpt>
      <trkpt lat="44.94934" lon="5.39201">
        <ele>946</ele>
        <time>2022-09-22T10:43:18.497Z</time>
      </trkpt>
      <trkpt lat="44.94933" lon="5.39203">
        <ele>946</ele>
        <time>2022-09-22T10:43:19.497Z</time>
      </trkpt>
      <trkpt lat="44.94931" lon="5.39204">
        <ele>946</ele>
        <time>2022-09-22T10:43:20.498Z</time>
      </trkpt>
      <trkpt lat="44.9493" lon="5.39205">
        <ele>946</ele>
        <time>2022-09-22T10:43:21.498Z</time>
      </trkpt>
      <trkpt lat="44.94929" lon="5.39207">
        <ele>946</ele>
        <time>2022-09-22T10:43:22.498Z</time>
      </trkpt>
      <trkpt lat="44.94928" lon="5.39208">
        <ele>946</ele>
        <time>2022-09-22T10:43:23.498Z</time>
      </trkpt>
      <trkpt lat="44.94926" lon="5.39209">
        <ele>946</ele>
        <time>2022-09-22T10:43:24.498Z</time>
      </trkpt>
      <trkpt lat="44.94925" lon="5.39211">
        <ele>946</ele>
        <time>2022-09-22T10:43:25.498Z</time>
      </trkpt>
      <trkpt lat="44.94924" lon="5.39213">
        <ele>946</ele>
        <time>2022-09-22T10:43:26.498Z</time>
      </trkpt>
      <trkpt lat="44.94923" lon="5.39216">
        <ele>947</ele>
        <time>2022-09-22T10:43:27.497Z</time>
      </trkpt>
      <trkpt lat="44.94923" lon="5.39219">
        <ele>947</ele>
        <time>2022-09-22T10:43:28.498Z</time>
      </trkpt>
      <trkpt lat="44.94923" lon="5.39223">
        <ele>947</ele>
        <time>2022-09-22T10:43:29.498Z</time>
      </trkpt>
      <trkpt lat="44.94922" lon="5.39227">
        <ele>947</ele>
        <time>2022-09-22T10:43:30.498Z</time>
      </trkpt>
      <trkpt lat="44.94922" lon="5.39231">
        <ele>948</ele>
        <time>2022-09-22T10:43:31.498Z</time>
      </trkpt>
      <trkpt lat="44.94921" lon="5.39236">
        <ele>948</ele>
        <time>2022-09-22T10:43:32.498Z</time>
      </trkpt>
      <trkpt lat="44.94919" lon="5.3924">
        <ele>949</ele>
        <time>2022-09-22T10:43:33.498Z</time>
      </trkpt>
      <trkpt lat="44.94918" lon="5.39245">
        <ele>949</ele>
        <time>2022-09-22T10:43:34.498Z</time>
      </trkpt>
      <trkpt lat="44.94916" lon="5.39249">
        <ele>949</ele>
        <time>2022-09-22T10:43:35.498Z</time>
      </trkpt>
      <trkpt lat="44.94915" lon="5.39253">
        <ele>949</ele>
        <time>2022-09-22T10:43:36.498Z</time>
      </trkpt>
      <trkpt lat="44.94913" lon="5.39257">
        <ele>949</ele>
        <time>2022-09-22T10:43:37.498Z</time>
      </trkpt>
      <trkpt lat="44.94911" lon="5.39261">
        <ele>949</ele>
        <time>2022-09-22T10:43:38.498Z</time>
      </trkpt>
      <trkpt lat="44.9491" lon="5.39265">
        <ele>948</ele>
        <time>2022-09-22T10:43:39.498Z</time>
      </trkpt>
      <trkpt lat="44.94908" lon="5.39269">
        <ele>948</ele>
        <time>2022-09-22T10:43:40.498Z</time>
      </trkpt>
      <trkpt lat="44.94906" lon="5.39272">
        <ele>948</ele>
        <time>2022-09-22T10:43:41.498Z</time>
      </trkpt>
      <trkpt lat="44.94905" lon="5.39276">
        <ele>947</ele>
        <time>2022-09-22T10:43:42.497Z</time>
      </trkpt>
      <trkpt lat="44.94903" lon="5.39279">
        <ele>947</ele>
        <time>2022-09-22T10:43:43.497Z</time>
      </trkpt>
      <trkpt lat="44.94902" lon="5.39282">
        <ele>947</ele>
        <time>2022-09-22T10:43:44.498Z</time>
      </trkpt>
      <trkpt lat="44.949" lon="5.39285">
        <ele>947</ele>
        <time>2022-09-22T10:43:45.498Z</time>
      </trkpt>
      <trkpt lat="44.94899" lon="5.39287">
        <ele>947</ele>
        <time>2022-09-22T10:43:46.498Z</time>
      </trkpt>
      <trkpt lat="44.94898" lon="5.3929">
        <ele>947</ele>
        <time>2022-09-22T10:43:47.498Z</time>
      </trkpt>
      <trkpt lat="44.94897" lon="5.39292">
        <ele>947</ele>
        <time>2022-09-22T10:43:48.498Z</time>
      </trkpt>
      <trkpt lat="44.94896" lon="5.39295">
        <ele>947</ele>
        <time>2022-09-22T10:43:49.498Z</time>
      </trkpt>
      <trkpt lat="44.94895" lon="5.39298">
        <ele>947</ele>
        <time>2022-09-22T10:43:50.498Z</time>
      </trkpt>
      <trkpt lat="44.94895" lon="5.393">
        <ele>947</ele>
        <time>2022-09-22T10:43:51.498Z</time>
      </trkpt>
      <trkpt lat="44.94894" lon="5.39303">
        <ele>947</ele>
        <time>2022-09-22T10:43:52.498Z</time>
      </trkpt>
      <trkpt lat="44.94893" lon="5.39306">
        <ele>947</ele>
        <time>2022-09-22T10:43:53.498Z</time>
      </trkpt>
      <trkpt lat="44.94893" lon="5.39308">
        <ele>946</ele>
        <time>2022-09-22T10:43:54.498Z</time>
      </trkpt>
      <trkpt lat="44.94892" lon="5.39311">
        <ele>947</ele>
        <time>2022-09-22T10:43:55.498Z</time>
      </trkpt>
      <trkpt lat="44.94891" lon="5.39313">
        <ele>947</ele>
        <time>2022-09-22T10:43:56.498Z</time>
      </trkpt>
      <trkpt lat="44.94891" lon="5.39316">
        <ele>947</ele>
        <time>2022-09-22T10:43:57.498Z</time>
      </trkpt>
      <trkpt lat="44.94891" lon="5.39319">
        <ele>947</ele>
        <time>2022-09-22T10:43:58.497Z</time>
      </trkpt>
      <trkpt lat="44.9489" lon="5.39321">
        <ele>947</ele>
        <time>2022-09-22T10:43:59.498Z</time>
      </trkpt>
      <trkpt lat="44.94889" lon="5.39324">
        <ele>947</ele>
        <time>2022-09-22T10:44:00.497Z</time>
      </trkpt>
      <trkpt lat="44.94888" lon="5.39326">
        <ele>947</ele>
        <time>2022-09-22T10:44:01.498Z</time>
      </trkpt>
      <trkpt lat="44.94887" lon="5.39329">
        <ele>947</ele>
        <time>2022-09-22T10:44:02.498Z</time>
      </trkpt>
      <trkpt lat="44.94887" lon="5.39331">
        <ele>946</ele>
        <time>2022-09-22T10:44:03.498Z</time>
      </trkpt>
      <trkpt lat="44.94886" lon="5.39334">
        <ele>946</ele>
        <time>2022-09-22T10:44:04.497Z</time>
      </trkpt>
      <trkpt lat="44.94885" lon="5.39336">
        <ele>946</ele>
        <time>2022-09-22T10:44:05.498Z</time>
      </trkpt>
      <trkpt lat="44.94884" lon="5.39338">
        <ele>946</ele>
        <time>2022-09-22T10:44:06.498Z</time>
      </trkpt>
      <trkpt lat="44.94883" lon="5.3934">
        <ele>946</ele>
        <time>2022-09-22T10:44:07.498Z</time>
      </trkpt>
      <trkpt lat="44.94882" lon="5.39342">
        <ele>946</ele>
        <time>2022-09-22T10:44:08.498Z</time>
      </trkpt>
      <trkpt lat="44.94881" lon="5.39343">
        <ele>946</ele>
        <time>2022-09-22T10:44:09.497Z</time>
      </trkpt>
      <trkpt lat="44.9488" lon="5.39345">
        <ele>946</ele>
        <time>2022-09-22T10:44:10.498Z</time>
      </trkpt>
      <trkpt lat="44.94879" lon="5.39346">
        <ele>946</ele>
        <time>2022-09-22T10:44:11.498Z</time>
      </trkpt>
      <trkpt lat="44.94878" lon="5.39348">
        <ele>946</ele>
        <time>2022-09-22T10:44:12.498Z</time>
      </trkpt>
      <trkpt lat="44.94877" lon="5.3935">
        <ele>946</ele>
        <time>2022-09-22T10:44:13.498Z</time>
      </trkpt>
      <trkpt lat="44.94876" lon="5.39352">
        <ele>945</ele>
        <time>2022-09-22T10:44:14.498Z</time>
      </trkpt>
      <trkpt lat="44.94875" lon="5.39354">
        <ele>945</ele>
        <time>2022-09-22T10:44:15.498Z</time>
      </trkpt>
      <trkpt lat="44.94874" lon="5.39356">
        <ele>945</ele>
        <time>2022-09-22T10:44:16.497Z</time>
      </trkpt>
      <trkpt lat="44.94873" lon="5.39358">
        <ele>945</ele>
        <time>2022-09-22T10:44:17.498Z</time>
      </trkpt>
      <trkpt lat="44.94872" lon="5.3936">
        <ele>945</ele>
        <time>2022-09-22T10:44:18.498Z</time>
      </trkpt>
      <trkpt lat="44.94871" lon="5.39362">
        <ele>945</ele>
        <time>2022-09-22T10:44:19.498Z</time>
      </trkpt>
      <trkpt lat="44.9487" lon="5.39364">
        <ele>945</ele>
        <time>2022-09-22T10:44:20.498Z</time>
      </trkpt>
      <trkpt lat="44.94869" lon="5.39366">
        <ele>945</ele>
        <time>2022-09-22T10:44:21.497Z</time>
      </trkpt>
      <trkpt lat="44.94868" lon="5.39368">
        <ele>946</ele>
        <time>2022-09-22T10:44:22.498Z</time>
      </trkpt>
      <trkpt lat="44.94867" lon="5.3937">
        <ele>946</ele>
        <time>2022-09-22T10:44:23.497Z</time>
      </trkpt>
      <trkpt lat="44.94866" lon="5.39372">
        <ele>946</ele>
        <time>2022-09-22T10:44:24.497Z</time>
      </trkpt>
      <trkpt lat="44.94865" lon="5.39374">
        <ele>947</ele>
        <time>2022-09-22T10:44:25.497Z</time>
      </trkpt>
      <trkpt lat="44.94864" lon="5.39377">
        <ele>947</ele>
        <time>2022-09-22T10:44:26.497Z</time>
      </trkpt>
      <trkpt lat="44.94863" lon="5.39379">
        <ele>947</ele>
        <time>2022-09-22T10:44:27.498Z</time>
      </trkpt>
      <trkpt lat="44.94862" lon="5.39381">
        <ele>948</ele>
        <time>2022-09-22T10:44:28.498Z</time>
      </trkpt>
      <trkpt lat="44.94861" lon="5.39384">
        <ele>948</ele>
        <time>2022-09-22T10:44:29.498Z</time>
      </trkpt>
      <trkpt lat="44.9486" lon="5.39386">
        <ele>948</ele>
        <time>2022-09-22T10:44:30.498Z</time>
      </trkpt>
      <trkpt lat="44.94859" lon="5.39388">
        <ele>949</ele>
        <time>2022-09-22T10:44:31.498Z</time>
      </trkpt>
      <trkpt lat="44.94858" lon="5.39391">
        <ele>948</ele>
        <time>2022-09-22T10:44:32.498Z</time>
      </trkpt>
      <trkpt lat="44.94857" lon="5.39393">
        <ele>948</ele>
        <time>2022-09-22T10:44:33.498Z</time>
      </trkpt>
      <trkpt lat="44.94856" lon="5.39395">
        <ele>948</ele>
        <time>2022-09-22T10:44:34.498Z</time>
      </trkpt>
      <trkpt lat="44.94855" lon="5.39398">
        <ele>948</ele>
        <time>2022-09-22T10:44:35.498Z</time>
      </trkpt>
      <trkpt lat="44.94854" lon="5.39401">
        <ele>948</ele>
        <time>2022-09-22T10:44:36.498Z</time>
      </trkpt>
      <trkpt lat="44.94852" lon="5.39404">
        <ele>948</ele>
        <time>2022-09-22T10:44:37.498Z</time>
      </trkpt>
      <trkpt lat="44.94851" lon="5.39407">
        <ele>948</ele>
        <time>2022-09-22T10:44:38.498Z</time>
      </trkpt>
      <trkpt lat="44.94849" lon="5.3941">
        <ele>948</ele>
        <time>2022-09-22T10:44:39.498Z</time>
      </trkpt>
      <trkpt lat="44.94848" lon="5.39413">
        <ele>948</ele>
        <time>2022-09-22T10:44:40.498Z</time>
      </trkpt>
      <trkpt lat="44.94846" lon="5.39415">
        <ele>948</ele>
        <time>2022-09-22T10:44:41.498Z</time>
      </trkpt>
      <trkpt lat="44.94845" lon="5.39418">
        <ele>947</ele>
        <time>2022-09-22T10:44:42.498Z</time>
      </trkpt>
      <trkpt lat="44.94843" lon="5.39421">
        <ele>947</ele>
        <time>2022-09-22T10:44:43.498Z</time>
      </trkpt>
      <trkpt lat="44.94842" lon="5.39423">
        <ele>946</ele>
        <time>2022-09-22T10:44:44.498Z</time>
      </trkpt>
      <trkpt lat="44.9484" lon="5.39425">
        <ele>946</ele>
        <time>2022-09-22T10:44:45.498Z</time>
      </trkpt>
      <trkpt lat="44.9484" lon="5.39426">
        <ele>946</ele>
        <time>2022-09-22T10:44:46.498Z</time>
      </trkpt>
      <trkpt lat="44.94839" lon="5.39426">
        <ele>946</ele>
        <time>2022-09-22T10:44:47.498Z</time>
      </trkpt>
      <trkpt lat="44.9484" lon="5.39426">
        <ele>945</ele>
        <time>2022-09-22T10:44:48.498Z</time>
      </trkpt>
      <trkpt lat="44.9484" lon="5.39427">
        <ele>944</ele>
        <time>2022-09-22T10:44:53.513Z</time>
      </trkpt>
      <trkpt lat="44.94841" lon="5.39428">
        <ele>943</ele>
        <time>2022-09-22T10:44:54.514Z</time>
      </trkpt>
      <trkpt lat="44.94843" lon="5.39428">
        <ele>943</ele>
        <time>2022-09-22T10:44:55.513Z</time>
      </trkpt>
      <trkpt lat="44.94844" lon="5.39429">
        <ele>943</ele>
        <time>2022-09-22T10:44:56.514Z</time>
      </trkpt>
      <trkpt lat="44.94845" lon="5.39429">
        <ele>943</ele>
        <time>2022-09-22T10:44:57.513Z</time>
      </trkpt>
      <trkpt lat="44.94846" lon="5.39431">
        <ele>943</ele>
        <time>2022-09-22T10:44:58.514Z</time>
      </trkpt>
      <trkpt lat="44.94848" lon="5.39432">
        <ele>943</ele>
        <time>2022-09-22T10:44:59.514Z</time>
      </trkpt>
      <trkpt lat="44.94849" lon="5.39434">
        <ele>942</ele>
        <time>2022-09-22T10:45:00.514Z</time>
      </trkpt>
      <trkpt lat="44.9485" lon="5.39436">
        <ele>942</ele>
        <time>2022-09-22T10:45:01.514Z</time>
      </trkpt>
      <trkpt lat="44.94851" lon="5.39439">
        <ele>942</ele>
        <time>2022-09-22T10:45:02.514Z</time>
      </trkpt>
      <trkpt lat="44.94851" lon="5.39442">
        <ele>942</ele>
        <time>2022-09-22T10:45:03.514Z</time>
      </trkpt>
      <trkpt lat="44.94852" lon="5.39446">
        <ele>942</ele>
        <time>2022-09-22T10:45:04.514Z</time>
      </trkpt>
      <trkpt lat="44.94853" lon="5.3945">
        <ele>942</ele>
        <time>2022-09-22T10:45:05.513Z</time>
      </trkpt>
      <trkpt lat="44.94854" lon="5.39455">
        <ele>941</ele>
        <time>2022-09-22T10:45:06.514Z</time>
      </trkpt>
      <trkpt lat="44.94855" lon="5.3946">
        <ele>941</ele>
        <time>2022-09-22T10:45:07.514Z</time>
      </trkpt>
      <trkpt lat="44.94855" lon="5.39464">
        <ele>941</ele>
        <time>2022-09-22T10:45:08.514Z</time>
      </trkpt>
      <trkpt lat="44.94854" lon="5.39467">
        <ele>941</ele>
        <time>2022-09-22T10:45:09.514Z</time>
      </trkpt>
      <trkpt lat="44.94854" lon="5.39468">
        <ele>941</ele>
        <time>2022-09-22T10:45:10.514Z</time>
      </trkpt>
      <trkpt lat="44.94853" lon="5.39469">
        <ele>941</ele>
        <time>2022-09-22T10:45:11.514Z</time>
      </trkpt>
      <trkpt lat="44.94853" lon="5.39469">
        <ele>941</ele>
        <time>2022-09-22T10:45:12.513Z</time>
      </trkpt>
      <trkpt lat="44.94852" lon="5.3947">
        <ele>941</ele>
        <time>2022-09-22T10:45:13.514Z</time>
      </trkpt>
      <trkpt lat="44.94851" lon="5.3947">
        <ele>940</ele>
        <time>2022-09-22T10:45:16.603Z</time>
      </trkpt>
      <trkpt lat="44.9485" lon="5.39469">
        <ele>940</ele>
        <time>2022-09-22T10:45:17.603Z</time>
      </trkpt>
      <trkpt lat="44.94848" lon="5.39468">
        <ele>939</ele>
        <time>2022-09-22T10:45:18.602Z</time>
      </trkpt>
      <trkpt lat="44.94846" lon="5.39467">
        <ele>939</ele>
        <time>2022-09-22T10:45:19.603Z</time>
      </trkpt>
      <trkpt lat="44.94844" lon="5.39467">
        <ele>939</ele>
        <time>2022-09-22T10:45:20.603Z</time>
      </trkpt>
      <trkpt lat="44.94842" lon="5.39467">
        <ele>939</ele>
        <time>2022-09-22T10:45:21.603Z</time>
      </trkpt>
      <trkpt lat="44.94841" lon="5.39467">
        <ele>938</ele>
        <time>2022-09-22T10:45:22.603Z</time>
      </trkpt>
      <trkpt lat="44.94839" lon="5.39467">
        <ele>938</ele>
        <time>2022-09-22T10:45:23.603Z</time>
      </trkpt>
      <trkpt lat="44.94837" lon="5.39468">
        <ele>938</ele>
        <time>2022-09-22T10:45:24.603Z</time>
      </trkpt>
      <trkpt lat="44.94836" lon="5.39469">
        <ele>938</ele>
        <time>2022-09-22T10:45:25.603Z</time>
      </trkpt>
      <trkpt lat="44.94834" lon="5.39471">
        <ele>938</ele>
        <time>2022-09-22T10:45:26.603Z</time>
      </trkpt>
      <trkpt lat="44.94833" lon="5.39472">
        <ele>938</ele>
        <time>2022-09-22T10:45:27.603Z</time>
      </trkpt>
      <trkpt lat="44.94831" lon="5.39473">
        <ele>938</ele>
        <time>2022-09-22T10:45:28.603Z</time>
      </trkpt>
      <trkpt lat="44.9483" lon="5.39475">
        <ele>938</ele>
        <time>2022-09-22T10:45:29.603Z</time>
      </trkpt>
      <trkpt lat="44.94828" lon="5.39476">
        <ele>939</ele>
        <time>2022-09-22T10:45:30.603Z</time>
      </trkpt>
      <trkpt lat="44.94827" lon="5.39477">
        <ele>939</ele>
        <time>2022-09-22T10:45:31.603Z</time>
      </trkpt>
      <trkpt lat="44.94825" lon="5.39479">
        <ele>940</ele>
        <time>2022-09-22T10:45:32.603Z</time>
      </trkpt>
      <trkpt lat="44.94823" lon="5.3948">
        <ele>941</ele>
        <time>2022-09-22T10:45:33.603Z</time>
      </trkpt>
      <trkpt lat="44.94821" lon="5.39481">
        <ele>941</ele>
        <time>2022-09-22T10:45:34.603Z</time>
      </trkpt>
      <trkpt lat="44.94819" lon="5.39483">
        <ele>941</ele>
        <time>2022-09-22T10:45:35.603Z</time>
      </trkpt>
      <trkpt lat="44.94816" lon="5.39485">
        <ele>941</ele>
        <time>2022-09-22T10:45:36.603Z</time>
      </trkpt>
      <trkpt lat="44.94813" lon="5.39487">
        <ele>941</ele>
        <time>2022-09-22T10:45:37.603Z</time>
      </trkpt>
      <trkpt lat="44.9481" lon="5.3949">
        <ele>941</ele>
        <time>2022-09-22T10:45:38.603Z</time>
      </trkpt>
      <trkpt lat="44.94807" lon="5.39492">
        <ele>941</ele>
        <time>2022-09-22T10:45:39.603Z</time>
      </trkpt>
      <trkpt lat="44.94804" lon="5.39494">
        <ele>940</ele>
        <time>2022-09-22T10:45:40.602Z</time>
      </trkpt>
      <trkpt lat="44.94802" lon="5.39496">
        <ele>940</ele>
        <time>2022-09-22T10:45:41.603Z</time>
      </trkpt>
      <trkpt lat="44.948" lon="5.39497">
        <ele>940</ele>
        <time>2022-09-22T10:45:42.602Z</time>
      </trkpt>
      <trkpt lat="44.94798" lon="5.39498">
        <ele>940</ele>
        <time>2022-09-22T10:45:43.603Z</time>
      </trkpt>
      <trkpt lat="44.94795" lon="5.39499">
        <ele>940</ele>
        <time>2022-09-22T10:45:44.602Z</time>
      </trkpt>
      <trkpt lat="44.94793" lon="5.395">
        <ele>939</ele>
        <time>2022-09-22T10:45:45.603Z</time>
      </trkpt>
      <trkpt lat="44.94791" lon="5.395">
        <ele>939</ele>
        <time>2022-09-22T10:45:46.603Z</time>
      </trkpt>
      <trkpt lat="44.94789" lon="5.395">
        <ele>940</ele>
        <time>2022-09-22T10:45:47.603Z</time>
      </trkpt>
      <trkpt lat="44.94787" lon="5.39501">
        <ele>940</ele>
        <time>2022-09-22T10:45:48.603Z</time>
      </trkpt>
      <trkpt lat="44.94785" lon="5.39501">
        <ele>940</ele>
        <time>2022-09-22T10:45:49.603Z</time>
      </trkpt>
      <trkpt lat="44.94782" lon="5.39501">
        <ele>940</ele>
        <time>2022-09-22T10:45:50.603Z</time>
      </trkpt>
      <trkpt lat="44.9478" lon="5.39501">
        <ele>940</ele>
        <time>2022-09-22T10:45:51.603Z</time>
      </trkpt>
      <trkpt lat="44.94778" lon="5.39501">
        <ele>940</ele>
        <time>2022-09-22T10:45:52.602Z</time>
      </trkpt>
      <trkpt lat="44.94775" lon="5.39502">
        <ele>940</ele>
        <time>2022-09-22T10:45:53.603Z</time>
      </trkpt>
      <trkpt lat="44.94774" lon="5.39502">
        <ele>941</ele>
        <time>2022-09-22T10:45:54.603Z</time>
      </trkpt>
      <trkpt lat="44.94772" lon="5.39503">
        <ele>941</ele>
        <time>2022-09-22T10:45:55.603Z</time>
      </trkpt>
      <trkpt lat="44.9477" lon="5.39503">
        <ele>941</ele>
        <time>2022-09-22T10:45:56.602Z</time>
      </trkpt>
      <trkpt lat="44.94768" lon="5.39503">
        <ele>941</ele>
        <time>2022-09-22T10:45:57.603Z</time>
      </trkpt>
      <trkpt lat="44.94766" lon="5.39504">
        <ele>940</ele>
        <time>2022-09-22T10:45:58.603Z</time>
      </trkpt>
      <trkpt lat="44.94763" lon="5.39504">
        <ele>940</ele>
        <time>2022-09-22T10:45:59.603Z</time>
      </trkpt>
      <trkpt lat="44.94761" lon="5.39505">
        <ele>940</ele>
        <time>2022-09-22T10:46:00.603Z</time>
      </trkpt>
      <trkpt lat="44.94759" lon="5.39506">
        <ele>940</ele>
        <time>2022-09-22T10:46:01.602Z</time>
      </trkpt>
      <trkpt lat="44.94757" lon="5.39508">
        <ele>940</ele>
        <time>2022-09-22T10:46:02.603Z</time>
      </trkpt>
      <trkpt lat="44.94755" lon="5.39509">
        <ele>940</ele>
        <time>2022-09-22T10:46:03.603Z</time>
      </trkpt>
      <trkpt lat="44.94753" lon="5.3951">
        <ele>941</ele>
        <time>2022-09-22T10:46:04.603Z</time>
      </trkpt>
      <trkpt lat="44.9475" lon="5.39511">
        <ele>941</ele>
        <time>2022-09-22T10:46:05.602Z</time>
      </trkpt>
      <trkpt lat="44.94748" lon="5.39512">
        <ele>941</ele>
        <time>2022-09-22T10:46:06.602Z</time>
      </trkpt>
      <trkpt lat="44.94746" lon="5.39513">
        <ele>941</ele>
        <time>2022-09-22T10:46:07.603Z</time>
      </trkpt>
      <trkpt lat="44.94743" lon="5.39514">
        <ele>941</ele>
        <time>2022-09-22T10:46:08.602Z</time>
      </trkpt>
      <trkpt lat="44.94741" lon="5.39515">
        <ele>941</ele>
        <time>2022-09-22T10:46:09.603Z</time>
      </trkpt>
      <trkpt lat="44.94738" lon="5.39516">
        <ele>941</ele>
        <time>2022-09-22T10:46:10.602Z</time>
      </trkpt>
      <trkpt lat="44.94736" lon="5.39517">
        <ele>941</ele>
        <time>2022-09-22T10:46:11.603Z</time>
      </trkpt>
      <trkpt lat="44.94733" lon="5.39518">
        <ele>941</ele>
        <time>2022-09-22T10:46:12.602Z</time>
      </trkpt>
      <trkpt lat="44.94731" lon="5.39518">
        <ele>941</ele>
        <time>2022-09-22T10:46:13.603Z</time>
      </trkpt>
      <trkpt lat="44.94729" lon="5.39519">
        <ele>940</ele>
        <time>2022-09-22T10:46:14.603Z</time>
      </trkpt>
      <trkpt lat="44.94727" lon="5.3952">
        <ele>940</ele>
        <time>2022-09-22T10:46:15.603Z</time>
      </trkpt>
      <trkpt lat="44.94725" lon="5.39521">
        <ele>940</ele>
        <time>2022-09-22T10:46:16.603Z</time>
      </trkpt>
      <trkpt lat="44.94723" lon="5.39521">
        <ele>940</ele>
        <time>2022-09-22T10:46:17.603Z</time>
      </trkpt>
      <trkpt lat="44.94721" lon="5.39522">
        <ele>940</ele>
        <time>2022-09-22T10:46:18.603Z</time>
      </trkpt>
      <trkpt lat="44.94719" lon="5.39522">
        <ele>940</ele>
        <time>2022-09-22T10:46:19.603Z</time>
      </trkpt>
      <trkpt lat="44.94717" lon="5.39523">
        <ele>940</ele>
        <time>2022-09-22T10:46:20.603Z</time>
      </trkpt>
      <trkpt lat="44.94715" lon="5.39524">
        <ele>940</ele>
        <time>2022-09-22T10:46:21.603Z</time>
      </trkpt>
      <trkpt lat="44.94713" lon="5.39524">
        <ele>940</ele>
        <time>2022-09-22T10:46:22.603Z</time>
      </trkpt>
      <trkpt lat="44.94711" lon="5.39524">
        <ele>940</ele>
        <time>2022-09-22T10:46:23.603Z</time>
      </trkpt>
      <trkpt lat="44.94708" lon="5.39525">
        <ele>940</ele>
        <time>2022-09-22T10:46:24.603Z</time>
      </trkpt>
      <trkpt lat="44.94706" lon="5.39525">
        <ele>940</ele>
        <time>2022-09-22T10:46:25.603Z</time>
      </trkpt>
      <trkpt lat="44.94703" lon="5.39525">
        <ele>940</ele>
        <time>2022-09-22T10:46:26.603Z</time>
      </trkpt>
      <trkpt lat="44.947" lon="5.39526">
        <ele>940</ele>
        <time>2022-09-22T10:46:27.603Z</time>
      </trkpt>
      <trkpt lat="44.94697" lon="5.39527">
        <ele>940</ele>
        <time>2022-09-22T10:46:28.603Z</time>
      </trkpt>
      <trkpt lat="44.94695" lon="5.39529">
        <ele>940</ele>
        <time>2022-09-22T10:46:29.603Z</time>
      </trkpt>
      <trkpt lat="44.94693" lon="5.39531">
        <ele>940</ele>
        <time>2022-09-22T10:46:30.603Z</time>
      </trkpt>
      <trkpt lat="44.94691" lon="5.39533">
        <ele>940</ele>
        <time>2022-09-22T10:46:31.603Z</time>
      </trkpt>
      <trkpt lat="44.94689" lon="5.39535">
        <ele>940</ele>
        <time>2022-09-22T10:46:32.603Z</time>
      </trkpt>
      <trkpt lat="44.94687" lon="5.39537">
        <ele>940</ele>
        <time>2022-09-22T10:46:33.603Z</time>
      </trkpt>
      <trkpt lat="44.94685" lon="5.39539">
        <ele>940</ele>
        <time>2022-09-22T10:46:34.602Z</time>
      </trkpt>
      <trkpt lat="44.94682" lon="5.3954">
        <ele>940</ele>
        <time>2022-09-22T10:46:35.603Z</time>
      </trkpt>
      <trkpt lat="44.9468" lon="5.39541">
        <ele>940</ele>
        <time>2022-09-22T10:46:36.603Z</time>
      </trkpt>
      <trkpt lat="44.94678" lon="5.39542">
        <ele>940</ele>
        <time>2022-09-22T10:46:37.602Z</time>
      </trkpt>
      <trkpt lat="44.94675" lon="5.39543">
        <ele>940</ele>
        <time>2022-09-22T10:46:38.603Z</time>
      </trkpt>
      <trkpt lat="44.94673" lon="5.39543">
        <ele>940</ele>
        <time>2022-09-22T10:46:39.603Z</time>
      </trkpt>
      <trkpt lat="44.94671" lon="5.39543">
        <ele>939</ele>
        <time>2022-09-22T10:46:40.602Z</time>
      </trkpt>
      <trkpt lat="44.94668" lon="5.39542">
        <ele>939</ele>
        <time>2022-09-22T10:46:41.603Z</time>
      </trkpt>
      <trkpt lat="44.94666" lon="5.39541">
        <ele>939</ele>
        <time>2022-09-22T10:46:42.603Z</time>
      </trkpt>
      <trkpt lat="44.94664" lon="5.39539">
        <ele>939</ele>
        <time>2022-09-22T10:46:43.603Z</time>
      </trkpt>
      <trkpt lat="44.94662" lon="5.39538">
        <ele>939</ele>
        <time>2022-09-22T10:46:44.603Z</time>
      </trkpt>
      <trkpt lat="44.94659" lon="5.39536">
        <ele>939</ele>
        <time>2022-09-22T10:46:45.603Z</time>
      </trkpt>
      <trkpt lat="44.94657" lon="5.39534">
        <ele>939</ele>
        <time>2022-09-22T10:46:46.603Z</time>
      </trkpt>
      <trkpt lat="44.94655" lon="5.39533">
        <ele>939</ele>
        <time>2022-09-22T10:46:47.603Z</time>
      </trkpt>
      <trkpt lat="44.94653" lon="5.39531">
        <ele>939</ele>
        <time>2022-09-22T10:46:48.603Z</time>
      </trkpt>
      <trkpt lat="44.9465" lon="5.39528">
        <ele>940</ele>
        <time>2022-09-22T10:46:49.603Z</time>
      </trkpt>
      <trkpt lat="44.94648" lon="5.39526">
        <ele>940</ele>
        <time>2022-09-22T10:46:50.603Z</time>
      </trkpt>
      <trkpt lat="44.94645" lon="5.39524">
        <ele>940</ele>
        <time>2022-09-22T10:46:51.603Z</time>
      </trkpt>
      <trkpt lat="44.94642" lon="5.39521">
        <ele>940</ele>
        <time>2022-09-22T10:46:52.602Z</time>
      </trkpt>
      <trkpt lat="44.94639" lon="5.39518">
        <ele>940</ele>
        <time>2022-09-22T10:46:53.602Z</time>
      </trkpt>
      <trkpt lat="44.94636" lon="5.39516">
        <ele>940</ele>
        <time>2022-09-22T10:46:54.603Z</time>
      </trkpt>
      <trkpt lat="44.94633" lon="5.39513">
        <ele>940</ele>
        <time>2022-09-22T10:46:55.603Z</time>
      </trkpt>
      <trkpt lat="44.94629" lon="5.39509">
        <ele>940</ele>
        <time>2022-09-22T10:46:56.603Z</time>
      </trkpt>
      <trkpt lat="44.94626" lon="5.39506">
        <ele>940</ele>
        <time>2022-09-22T10:46:57.603Z</time>
      </trkpt>
      <trkpt lat="44.94623" lon="5.39503">
        <ele>940</ele>
        <time>2022-09-22T10:46:58.603Z</time>
      </trkpt>
      <trkpt lat="44.9462" lon="5.395">
        <ele>941</ele>
        <time>2022-09-22T10:46:59.602Z</time>
      </trkpt>
      <trkpt lat="44.94617" lon="5.39497">
        <ele>941</ele>
        <time>2022-09-22T10:47:00.603Z</time>
      </trkpt>
      <trkpt lat="44.94615" lon="5.39494">
        <ele>941</ele>
        <time>2022-09-22T10:47:01.603Z</time>
      </trkpt>
      <trkpt lat="44.94612" lon="5.39491">
        <ele>941</ele>
        <time>2022-09-22T10:47:02.603Z</time>
      </trkpt>
      <trkpt lat="44.9461" lon="5.39487">
        <ele>941</ele>
        <time>2022-09-22T10:47:03.603Z</time>
      </trkpt>
      <trkpt lat="44.94608" lon="5.39484">
        <ele>941</ele>
        <time>2022-09-22T10:47:04.602Z</time>
      </trkpt>
      <trkpt lat="44.94606" lon="5.39481">
        <ele>941</ele>
        <time>2022-09-22T10:47:05.602Z</time>
      </trkpt>
      <trkpt lat="44.94606" lon="5.39479">
        <ele>941</ele>
        <time>2022-09-22T10:47:06.603Z</time>
      </trkpt>
      <trkpt lat="44.94604" lon="5.39476">
        <ele>940</ele>
        <time>2022-09-22T10:47:07.602Z</time>
      </trkpt>
      <trkpt lat="44.94603" lon="5.39473">
        <ele>940</ele>
        <time>2022-09-22T10:47:08.603Z</time>
      </trkpt>
      <trkpt lat="44.94602" lon="5.3947">
        <ele>939</ele>
        <time>2022-09-22T10:47:09.603Z</time>
      </trkpt>
      <trkpt lat="44.946" lon="5.39468">
        <ele>939</ele>
        <time>2022-09-22T10:47:10.603Z</time>
      </trkpt>
      <trkpt lat="44.94599" lon="5.39466">
        <ele>939</ele>
        <time>2022-09-22T10:47:11.603Z</time>
      </trkpt>
      <trkpt lat="44.94597" lon="5.39464">
        <ele>939</ele>
        <time>2022-09-22T10:47:12.603Z</time>
      </trkpt>
      <trkpt lat="44.94596" lon="5.39462">
        <ele>939</ele>
        <time>2022-09-22T10:47:13.602Z</time>
      </trkpt>
      <trkpt lat="44.94594" lon="5.3946">
        <ele>938</ele>
        <time>2022-09-22T10:47:14.602Z</time>
      </trkpt>
      <trkpt lat="44.94593" lon="5.39459">
        <ele>938</ele>
        <time>2022-09-22T10:47:15.603Z</time>
      </trkpt>
      <trkpt lat="44.94591" lon="5.39457">
        <ele>938</ele>
        <time>2022-09-22T10:47:16.603Z</time>
      </trkpt>
      <trkpt lat="44.9459" lon="5.39456">
        <ele>937</ele>
        <time>2022-09-22T10:47:17.603Z</time>
      </trkpt>
      <trkpt lat="44.94588" lon="5.39454">
        <ele>937</ele>
        <time>2022-09-22T10:47:18.603Z</time>
      </trkpt>
      <trkpt lat="44.94586" lon="5.39453">
        <ele>938</ele>
        <time>2022-09-22T10:47:19.602Z</time>
      </trkpt>
      <trkpt lat="44.94585" lon="5.39452">
        <ele>938</ele>
        <time>2022-09-22T10:47:20.603Z</time>
      </trkpt>
      <trkpt lat="44.94584" lon="5.39451">
        <ele>938</ele>
        <time>2022-09-22T10:47:21.603Z</time>
      </trkpt>
      <trkpt lat="44.94582" lon="5.39449">
        <ele>939</ele>
        <time>2022-09-22T10:47:22.602Z</time>
      </trkpt>
      <trkpt lat="44.94581" lon="5.39448">
        <ele>939</ele>
        <time>2022-09-22T10:47:23.603Z</time>
      </trkpt>
      <trkpt lat="44.94579" lon="5.39447">
        <ele>939</ele>
        <time>2022-09-22T10:47:24.602Z</time>
      </trkpt>
      <trkpt lat="44.94578" lon="5.39446">
        <ele>939</ele>
        <time>2022-09-22T10:47:25.603Z</time>
      </trkpt>
      <trkpt lat="44.94576" lon="5.39445">
        <ele>939</ele>
        <time>2022-09-22T10:47:26.603Z</time>
      </trkpt>
      <trkpt lat="44.94575" lon="5.39444">
        <ele>939</ele>
        <time>2022-09-22T10:47:27.602Z</time>
      </trkpt>
      <trkpt lat="44.94573" lon="5.39442">
        <ele>939</ele>
        <time>2022-09-22T10:47:28.603Z</time>
      </trkpt>
      <trkpt lat="44.94572" lon="5.39441">
        <ele>939</ele>
        <time>2022-09-22T10:47:29.602Z</time>
      </trkpt>
      <trkpt lat="44.94571" lon="5.39439">
        <ele>939</ele>
        <time>2022-09-22T10:47:30.603Z</time>
      </trkpt>
      <trkpt lat="44.94569" lon="5.39438">
        <ele>940</ele>
        <time>2022-09-22T10:47:31.603Z</time>
      </trkpt>
      <trkpt lat="44.94568" lon="5.39437">
        <ele>941</ele>
        <time>2022-09-22T10:47:32.603Z</time>
      </trkpt>
      <trkpt lat="44.94567" lon="5.39436">
        <ele>942</ele>
        <time>2022-09-22T10:47:33.603Z</time>
      </trkpt>
      <trkpt lat="44.94565" lon="5.39434">
        <ele>942</ele>
        <time>2022-09-22T10:47:34.603Z</time>
      </trkpt>
      <trkpt lat="44.94563" lon="5.39433">
        <ele>943</ele>
        <time>2022-09-22T10:47:35.603Z</time>
      </trkpt>
      <trkpt lat="44.94562" lon="5.39432">
        <ele>943</ele>
        <time>2022-09-22T10:47:36.602Z</time>
      </trkpt>
      <trkpt lat="44.94561" lon="5.39431">
        <ele>943</ele>
        <time>2022-09-22T10:47:37.603Z</time>
      </trkpt>
      <trkpt lat="44.94559" lon="5.3943">
        <ele>943</ele>
        <time>2022-09-22T10:47:38.602Z</time>
      </trkpt>
      <trkpt lat="44.94558" lon="5.39429">
        <ele>943</ele>
        <time>2022-09-22T10:47:39.603Z</time>
      </trkpt>
      <trkpt lat="44.94557" lon="5.39428">
        <ele>943</ele>
        <time>2022-09-22T10:47:40.602Z</time>
      </trkpt>
      <trkpt lat="44.94555" lon="5.39428">
        <ele>943</ele>
        <time>2022-09-22T10:47:41.603Z</time>
      </trkpt>
      <trkpt lat="44.94554" lon="5.39426">
        <ele>943</ele>
        <time>2022-09-22T10:47:42.603Z</time>
      </trkpt>
      <trkpt lat="44.94553" lon="5.39425">
        <ele>943</ele>
        <time>2022-09-22T10:47:43.603Z</time>
      </trkpt>
      <trkpt lat="44.94551" lon="5.39424">
        <ele>943</ele>
        <time>2022-09-22T10:47:44.603Z</time>
      </trkpt>
      <trkpt lat="44.9455" lon="5.39423">
        <ele>943</ele>
        <time>2022-09-22T10:47:45.603Z</time>
      </trkpt>
      <trkpt lat="44.94548" lon="5.39422">
        <ele>944</ele>
        <time>2022-09-22T10:47:46.602Z</time>
      </trkpt>
      <trkpt lat="44.94547" lon="5.39421">
        <ele>944</ele>
        <time>2022-09-22T10:47:47.603Z</time>
      </trkpt>
      <trkpt lat="44.94545" lon="5.3942">
        <ele>945</ele>
        <time>2022-09-22T10:47:48.603Z</time>
      </trkpt>
      <trkpt lat="44.94544" lon="5.39419">
        <ele>945</ele>
        <time>2022-09-22T10:47:49.603Z</time>
      </trkpt>
      <trkpt lat="44.94543" lon="5.39417">
        <ele>946</ele>
        <time>2022-09-22T10:47:50.603Z</time>
      </trkpt>
      <trkpt lat="44.94542" lon="5.39416">
        <ele>946</ele>
        <time>2022-09-22T10:47:51.603Z</time>
      </trkpt>
      <trkpt lat="44.9454" lon="5.39414">
        <ele>946</ele>
        <time>2022-09-22T10:47:52.603Z</time>
      </trkpt>
      <trkpt lat="44.94539" lon="5.39413">
        <ele>947</ele>
        <time>2022-09-22T10:47:53.603Z</time>
      </trkpt>
      <trkpt lat="44.94537" lon="5.39412">
        <ele>947</ele>
        <time>2022-09-22T10:47:54.603Z</time>
      </trkpt>
      <trkpt lat="44.94536" lon="5.3941">
        <ele>946</ele>
        <time>2022-09-22T10:47:55.603Z</time>
      </trkpt>
      <trkpt lat="44.94534" lon="5.39409">
        <ele>947</ele>
        <time>2022-09-22T10:47:56.603Z</time>
      </trkpt>
      <trkpt lat="44.94533" lon="5.39407">
        <ele>947</ele>
        <time>2022-09-22T10:47:57.603Z</time>
      </trkpt>
      <trkpt lat="44.94531" lon="5.39406">
        <ele>947</ele>
        <time>2022-09-22T10:47:58.603Z</time>
      </trkpt>
      <trkpt lat="44.9453" lon="5.39404">
        <ele>947</ele>
        <time>2022-09-22T10:47:59.603Z</time>
      </trkpt>
      <trkpt lat="44.94529" lon="5.39403">
        <ele>946</ele>
        <time>2022-09-22T10:48:00.603Z</time>
      </trkpt>
      <trkpt lat="44.94528" lon="5.39402">
        <ele>945</ele>
        <time>2022-09-22T10:48:01.603Z</time>
      </trkpt>
      <trkpt lat="44.94526" lon="5.394">
        <ele>945</ele>
        <time>2022-09-22T10:48:02.602Z</time>
      </trkpt>
      <trkpt lat="44.94525" lon="5.39399">
        <ele>945</ele>
        <time>2022-09-22T10:48:03.603Z</time>
      </trkpt>
      <trkpt lat="44.94524" lon="5.39398">
        <ele>945</ele>
        <time>2022-09-22T10:48:04.603Z</time>
      </trkpt>
      <trkpt lat="44.94522" lon="5.39397">
        <ele>945</ele>
        <time>2022-09-22T10:48:05.603Z</time>
      </trkpt>
      <trkpt lat="44.94521" lon="5.39396">
        <ele>945</ele>
        <time>2022-09-22T10:48:06.602Z</time>
      </trkpt>
      <trkpt lat="44.94519" lon="5.39395">
        <ele>945</ele>
        <time>2022-09-22T10:48:07.603Z</time>
      </trkpt>
      <trkpt lat="44.94518" lon="5.39394">
        <ele>945</ele>
        <time>2022-09-22T10:48:08.603Z</time>
      </trkpt>
      <trkpt lat="44.94517" lon="5.39393">
        <ele>945</ele>
        <time>2022-09-22T10:48:09.603Z</time>
      </trkpt>
      <trkpt lat="44.94515" lon="5.39392">
        <ele>945</ele>
        <time>2022-09-22T10:48:10.603Z</time>
      </trkpt>
      <trkpt lat="44.94514" lon="5.39392">
        <ele>944</ele>
        <time>2022-09-22T10:48:11.603Z</time>
      </trkpt>
      <trkpt lat="44.94513" lon="5.39391">
        <ele>945</ele>
        <time>2022-09-22T10:48:12.603Z</time>
      </trkpt>
      <trkpt lat="44.94512" lon="5.3939">
        <ele>944</ele>
        <time>2022-09-22T10:48:13.603Z</time>
      </trkpt>
      <trkpt lat="44.9451" lon="5.39389">
        <ele>945</ele>
        <time>2022-09-22T10:48:14.602Z</time>
      </trkpt>
      <trkpt lat="44.94509" lon="5.39387">
        <ele>945</ele>
        <time>2022-09-22T10:48:15.603Z</time>
      </trkpt>
      <trkpt lat="44.94507" lon="5.39385">
        <ele>944</ele>
        <time>2022-09-22T10:48:16.602Z</time>
      </trkpt>
      <trkpt lat="44.94506" lon="5.39384">
        <ele>945</ele>
        <time>2022-09-22T10:48:17.603Z</time>
      </trkpt>
      <trkpt lat="44.94504" lon="5.39382">
        <ele>945</ele>
        <time>2022-09-22T10:48:18.603Z</time>
      </trkpt>
      <trkpt lat="44.94503" lon="5.39381">
        <ele>945</ele>
        <time>2022-09-22T10:48:19.603Z</time>
      </trkpt>
      <trkpt lat="44.94502" lon="5.3938">
        <ele>945</ele>
        <time>2022-09-22T10:48:20.602Z</time>
      </trkpt>
      <trkpt lat="44.945" lon="5.39378">
        <ele>945</ele>
        <time>2022-09-22T10:48:21.603Z</time>
      </trkpt>
      <trkpt lat="44.94499" lon="5.39377">
        <ele>946</ele>
        <time>2022-09-22T10:48:22.602Z</time>
      </trkpt>
      <trkpt lat="44.94498" lon="5.39375">
        <ele>946</ele>
        <time>2022-09-22T10:48:23.602Z</time>
      </trkpt>
      <trkpt lat="44.94497" lon="5.39375">
        <ele>946</ele>
        <time>2022-09-22T10:48:24.603Z</time>
      </trkpt>
      <trkpt lat="44.94496" lon="5.39374">
        <ele>946</ele>
        <time>2022-09-22T10:48:25.603Z</time>
      </trkpt>
      <trkpt lat="44.94495" lon="5.39373">
        <ele>946</ele>
        <time>2022-09-22T10:48:26.603Z</time>
      </trkpt>
      <trkpt lat="44.94494" lon="5.39371">
        <ele>946</ele>
        <time>2022-09-22T10:48:27.603Z</time>
      </trkpt>
      <trkpt lat="44.94492" lon="5.3937">
        <ele>946</ele>
        <time>2022-09-22T10:48:28.603Z</time>
      </trkpt>
      <trkpt lat="44.9449" lon="5.39368">
        <ele>947</ele>
        <time>2022-09-22T10:48:29.603Z</time>
      </trkpt>
      <trkpt lat="44.94489" lon="5.39367">
        <ele>947</ele>
        <time>2022-09-22T10:48:30.602Z</time>
      </trkpt>
      <trkpt lat="44.94487" lon="5.39366">
        <ele>947</ele>
        <time>2022-09-22T10:48:31.603Z</time>
      </trkpt>
      <trkpt lat="44.94485" lon="5.39364">
        <ele>947</ele>
        <time>2022-09-22T10:48:32.602Z</time>
      </trkpt>
      <trkpt lat="44.94483" lon="5.39363">
        <ele>948</ele>
        <time>2022-09-22T10:48:33.603Z</time>
      </trkpt>
      <trkpt lat="44.94481" lon="5.39362">
        <ele>948</ele>
        <time>2022-09-22T10:48:34.603Z</time>
      </trkpt>
      <trkpt lat="44.94479" lon="5.39361">
        <ele>948</ele>
        <time>2022-09-22T10:48:35.603Z</time>
      </trkpt>
      <trkpt lat="44.94478" lon="5.3936">
        <ele>948</ele>
        <time>2022-09-22T10:48:36.603Z</time>
      </trkpt>
      <trkpt lat="44.94476" lon="5.39358">
        <ele>948</ele>
        <time>2022-09-22T10:48:37.603Z</time>
      </trkpt>
      <trkpt lat="44.94474" lon="5.39356">
        <ele>948</ele>
        <time>2022-09-22T10:48:38.603Z</time>
      </trkpt>
      <trkpt lat="44.94473" lon="5.39355">
        <ele>948</ele>
        <time>2022-09-22T10:48:39.603Z</time>
      </trkpt>
      <trkpt lat="44.94471" lon="5.39353">
        <ele>949</ele>
        <time>2022-09-22T10:48:40.603Z</time>
      </trkpt>
      <trkpt lat="44.9447" lon="5.39351">
        <ele>949</ele>
        <time>2022-09-22T10:48:41.603Z</time>
      </trkpt>
      <trkpt lat="44.94468" lon="5.39349">
        <ele>950</ele>
        <time>2022-09-22T10:48:42.603Z</time>
      </trkpt>
      <trkpt lat="44.94467" lon="5.39348">
        <ele>950</ele>
        <time>2022-09-22T10:48:43.602Z</time>
      </trkpt>
      <trkpt lat="44.94465" lon="5.39346">
        <ele>949</ele>
        <time>2022-09-22T10:48:44.603Z</time>
      </trkpt>
      <trkpt lat="44.94464" lon="5.39345">
        <ele>949</ele>
        <time>2022-09-22T10:48:45.602Z</time>
      </trkpt>
      <trkpt lat="44.94462" lon="5.39343">
        <ele>949</ele>
        <time>2022-09-22T10:48:46.602Z</time>
      </trkpt>
      <trkpt lat="44.94461" lon="5.39342">
        <ele>948</ele>
        <time>2022-09-22T10:48:47.603Z</time>
      </trkpt>
      <trkpt lat="44.94459" lon="5.39341">
        <ele>948</ele>
        <time>2022-09-22T10:48:48.602Z</time>
      </trkpt>
      <trkpt lat="44.94458" lon="5.3934">
        <ele>948</ele>
        <time>2022-09-22T10:48:49.602Z</time>
      </trkpt>
      <trkpt lat="44.94456" lon="5.39339">
        <ele>947</ele>
        <time>2022-09-22T10:48:50.603Z</time>
      </trkpt>
      <trkpt lat="44.94455" lon="5.39338">
        <ele>947</ele>
        <time>2022-09-22T10:48:51.603Z</time>
      </trkpt>
      <trkpt lat="44.94453" lon="5.39336">
        <ele>947</ele>
        <time>2022-09-22T10:48:52.603Z</time>
      </trkpt>
      <trkpt lat="44.94452" lon="5.39335">
        <ele>947</ele>
        <time>2022-09-22T10:48:53.602Z</time>
      </trkpt>
      <trkpt lat="44.9445" lon="5.39334">
        <ele>947</ele>
        <time>2022-09-22T10:48:54.603Z</time>
      </trkpt>
      <trkpt lat="44.94448" lon="5.39333">
        <ele>947</ele>
        <time>2022-09-22T10:48:55.602Z</time>
      </trkpt>
      <trkpt lat="44.94447" lon="5.39331">
        <ele>947</ele>
        <time>2022-09-22T10:48:56.602Z</time>
      </trkpt>
      <trkpt lat="44.94445" lon="5.3933">
        <ele>946</ele>
        <time>2022-09-22T10:48:57.603Z</time>
      </trkpt>
      <trkpt lat="44.94444" lon="5.39329">
        <ele>947</ele>
        <time>2022-09-22T10:48:58.603Z</time>
      </trkpt>
      <trkpt lat="44.94442" lon="5.39327">
        <ele>947</ele>
        <time>2022-09-22T10:48:59.603Z</time>
      </trkpt>
      <trkpt lat="44.94441" lon="5.39326">
        <ele>947</ele>
        <time>2022-09-22T10:49:00.603Z</time>
      </trkpt>
      <trkpt lat="44.94439" lon="5.39325">
        <ele>947</ele>
        <time>2022-09-22T10:49:01.602Z</time>
      </trkpt>
      <trkpt lat="44.94438" lon="5.39323">
        <ele>947</ele>
        <time>2022-09-22T10:49:02.603Z</time>
      </trkpt>
      <trkpt lat="44.94436" lon="5.39322">
        <ele>947</ele>
        <time>2022-09-22T10:49:03.603Z</time>
      </trkpt>
      <trkpt lat="44.94435" lon="5.3932">
        <ele>947</ele>
        <time>2022-09-22T10:49:04.603Z</time>
      </trkpt>
      <trkpt lat="44.94433" lon="5.39319">
        <ele>947</ele>
        <time>2022-09-22T10:49:05.602Z</time>
      </trkpt>
      <trkpt lat="44.94432" lon="5.39319">
        <ele>946</ele>
        <time>2022-09-22T10:49:06.603Z</time>
      </trkpt>
      <trkpt lat="44.9443" lon="5.39318">
        <ele>946</ele>
        <time>2022-09-22T10:49:07.603Z</time>
      </trkpt>
      <trkpt lat="44.94428" lon="5.39318">
        <ele>946</ele>
        <time>2022-09-22T10:49:08.603Z</time>
      </trkpt>
      <trkpt lat="44.94426" lon="5.39317">
        <ele>946</ele>
        <time>2022-09-22T10:49:09.603Z</time>
      </trkpt>
      <trkpt lat="44.94425" lon="5.39317">
        <ele>946</ele>
        <time>2022-09-22T10:49:10.603Z</time>
      </trkpt>
      <trkpt lat="44.94423" lon="5.39316">
        <ele>946</ele>
        <time>2022-09-22T10:49:11.602Z</time>
      </trkpt>
      <trkpt lat="44.94422" lon="5.39314">
        <ele>947</ele>
        <time>2022-09-22T10:49:12.603Z</time>
      </trkpt>
      <trkpt lat="44.9442" lon="5.39314">
        <ele>947</ele>
        <time>2022-09-22T10:49:13.603Z</time>
      </trkpt>
      <trkpt lat="44.94419" lon="5.39313">
        <ele>947</ele>
        <time>2022-09-22T10:49:14.603Z</time>
      </trkpt>
      <trkpt lat="44.94417" lon="5.39312">
        <ele>947</ele>
        <time>2022-09-22T10:49:15.603Z</time>
      </trkpt>
      <trkpt lat="44.94415" lon="5.39311">
        <ele>947</ele>
        <time>2022-09-22T10:49:16.602Z</time>
      </trkpt>
      <trkpt lat="44.94414" lon="5.3931">
        <ele>947</ele>
        <time>2022-09-22T10:49:17.603Z</time>
      </trkpt>
      <trkpt lat="44.94412" lon="5.39309">
        <ele>947</ele>
        <time>2022-09-22T10:49:18.602Z</time>
      </trkpt>
      <trkpt lat="44.94411" lon="5.39308">
        <ele>947</ele>
        <time>2022-09-22T10:49:19.602Z</time>
      </trkpt>
      <trkpt lat="44.94409" lon="5.39307">
        <ele>947</ele>
        <time>2022-09-22T10:49:20.603Z</time>
      </trkpt>
      <trkpt lat="44.94407" lon="5.39306">
        <ele>947</ele>
        <time>2022-09-22T10:49:21.603Z</time>
      </trkpt>
      <trkpt lat="44.94406" lon="5.39305">
        <ele>948</ele>
        <time>2022-09-22T10:49:22.603Z</time>
      </trkpt>
      <trkpt lat="44.94404" lon="5.39304">
        <ele>948</ele>
        <time>2022-09-22T10:49:23.603Z</time>
      </trkpt>
      <trkpt lat="44.94403" lon="5.39303">
        <ele>948</ele>
        <time>2022-09-22T10:49:24.603Z</time>
      </trkpt>
      <trkpt lat="44.94401" lon="5.39302">
        <ele>947</ele>
        <time>2022-09-22T10:49:25.603Z</time>
      </trkpt>
      <trkpt lat="44.944" lon="5.39301">
        <ele>947</ele>
        <time>2022-09-22T10:49:26.603Z</time>
      </trkpt>
      <trkpt lat="44.94398" lon="5.393">
        <ele>947</ele>
        <time>2022-09-22T10:49:27.603Z</time>
      </trkpt>
      <trkpt lat="44.94396" lon="5.39299">
        <ele>947</ele>
        <time>2022-09-22T10:49:28.603Z</time>
      </trkpt>
      <trkpt lat="44.94395" lon="5.39298">
        <ele>947</ele>
        <time>2022-09-22T10:49:29.602Z</time>
      </trkpt>
      <trkpt lat="44.94393" lon="5.39297">
        <ele>947</ele>
        <time>2022-09-22T10:49:30.602Z</time>
      </trkpt>
      <trkpt lat="44.94392" lon="5.39296">
        <ele>947</ele>
        <time>2022-09-22T10:49:31.603Z</time>
      </trkpt>
      <trkpt lat="44.9439" lon="5.39295">
        <ele>947</ele>
        <time>2022-09-22T10:49:32.603Z</time>
      </trkpt>
      <trkpt lat="44.94389" lon="5.39294">
        <ele>947</ele>
        <time>2022-09-22T10:49:33.603Z</time>
      </trkpt>
      <trkpt lat="44.94387" lon="5.39294">
        <ele>947</ele>
        <time>2022-09-22T10:49:34.603Z</time>
      </trkpt>
      <trkpt lat="44.94385" lon="5.39293">
        <ele>947</ele>
        <time>2022-09-22T10:49:35.603Z</time>
      </trkpt>
      <trkpt lat="44.94384" lon="5.39293">
        <ele>947</ele>
        <time>2022-09-22T10:49:36.603Z</time>
      </trkpt>
      <trkpt lat="44.94382" lon="5.39292">
        <ele>948</ele>
        <time>2022-09-22T10:49:37.603Z</time>
      </trkpt>
      <trkpt lat="44.9438" lon="5.39292">
        <ele>947</ele>
        <time>2022-09-22T10:49:38.603Z</time>
      </trkpt>
      <trkpt lat="44.94378" lon="5.39291">
        <ele>947</ele>
        <time>2022-09-22T10:49:39.603Z</time>
      </trkpt>
      <trkpt lat="44.94377" lon="5.39291">
        <ele>947</ele>
        <time>2022-09-22T10:49:40.603Z</time>
      </trkpt>
      <trkpt lat="44.94375" lon="5.39291">
        <ele>947</ele>
        <time>2022-09-22T10:49:41.603Z</time>
      </trkpt>
      <trkpt lat="44.94373" lon="5.3929">
        <ele>947</ele>
        <time>2022-09-22T10:49:42.603Z</time>
      </trkpt>
      <trkpt lat="44.94372" lon="5.39291">
        <ele>947</ele>
        <time>2022-09-22T10:49:43.602Z</time>
      </trkpt>
      <trkpt lat="44.9437" lon="5.39291">
        <ele>947</ele>
        <time>2022-09-22T10:49:44.603Z</time>
      </trkpt>
      <trkpt lat="44.94368" lon="5.39291">
        <ele>947</ele>
        <time>2022-09-22T10:49:45.603Z</time>
      </trkpt>
      <trkpt lat="44.94367" lon="5.39292">
        <ele>947</ele>
        <time>2022-09-22T10:49:46.603Z</time>
      </trkpt>
      <trkpt lat="44.94365" lon="5.39292">
        <ele>948</ele>
        <time>2022-09-22T10:49:47.603Z</time>
      </trkpt>
      <trkpt lat="44.94364" lon="5.39293">
        <ele>948</ele>
        <time>2022-09-22T10:49:48.603Z</time>
      </trkpt>
      <trkpt lat="44.94362" lon="5.39294">
        <ele>948</ele>
        <time>2022-09-22T10:49:49.603Z</time>
      </trkpt>
      <trkpt lat="44.94361" lon="5.39294">
        <ele>949</ele>
        <time>2022-09-22T10:49:50.602Z</time>
      </trkpt>
      <trkpt lat="44.94359" lon="5.39295">
        <ele>949</ele>
        <time>2022-09-22T10:49:51.602Z</time>
      </trkpt>
      <trkpt lat="44.94358" lon="5.39295">
        <ele>949</ele>
        <time>2022-09-22T10:49:52.602Z</time>
      </trkpt>
      <trkpt lat="44.94357" lon="5.39296">
        <ele>950</ele>
        <time>2022-09-22T10:49:53.602Z</time>
      </trkpt>
      <trkpt lat="44.94355" lon="5.39297">
        <ele>950</ele>
        <time>2022-09-22T10:49:54.602Z</time>
      </trkpt>
      <trkpt lat="44.94354" lon="5.39297">
        <ele>950</ele>
        <time>2022-09-22T10:49:55.602Z</time>
      </trkpt>
      <trkpt lat="44.94353" lon="5.39298">
        <ele>950</ele>
        <time>2022-09-22T10:49:56.602Z</time>
      </trkpt>
      <trkpt lat="44.94351" lon="5.39299">
        <ele>949</ele>
        <time>2022-09-22T10:49:57.602Z</time>
      </trkpt>
      <trkpt lat="44.9435" lon="5.393">
        <ele>949</ele>
        <time>2022-09-22T10:49:58.603Z</time>
      </trkpt>
      <trkpt lat="44.94348" lon="5.39301">
        <ele>949</ele>
        <time>2022-09-22T10:49:59.603Z</time>
      </trkpt>
      <trkpt lat="44.94347" lon="5.39302">
        <ele>950</ele>
        <time>2022-09-22T10:50:00.603Z</time>
      </trkpt>
      <trkpt lat="44.94346" lon="5.39303">
        <ele>950</ele>
        <time>2022-09-22T10:50:01.603Z</time>
      </trkpt>
      <trkpt lat="44.94344" lon="5.39303">
        <ele>950</ele>
        <time>2022-09-22T10:50:02.602Z</time>
      </trkpt>
      <trkpt lat="44.94343" lon="5.39304">
        <ele>950</ele>
        <time>2022-09-22T10:50:03.603Z</time>
      </trkpt>
      <trkpt lat="44.94341" lon="5.39304">
        <ele>950</ele>
        <time>2022-09-22T10:50:04.603Z</time>
      </trkpt>
      <trkpt lat="44.9434" lon="5.39304">
        <ele>950</ele>
        <time>2022-09-22T10:50:05.603Z</time>
      </trkpt>
      <trkpt lat="44.94338" lon="5.39304">
        <ele>951</ele>
        <time>2022-09-22T10:50:06.603Z</time>
      </trkpt>
      <trkpt lat="44.94337" lon="5.39304">
        <ele>951</ele>
        <time>2022-09-22T10:50:07.603Z</time>
      </trkpt>
      <trkpt lat="44.94335" lon="5.39304">
        <ele>952</ele>
        <time>2022-09-22T10:50:08.602Z</time>
      </trkpt>
      <trkpt lat="44.94333" lon="5.39304">
        <ele>952</ele>
        <time>2022-09-22T10:50:09.603Z</time>
      </trkpt>
      <trkpt lat="44.94332" lon="5.39304">
        <ele>952</ele>
        <time>2022-09-22T10:50:10.603Z</time>
      </trkpt>
      <trkpt lat="44.9433" lon="5.39304">
        <ele>952</ele>
        <time>2022-09-22T10:50:11.603Z</time>
      </trkpt>
      <trkpt lat="44.94329" lon="5.39305">
        <ele>952</ele>
        <time>2022-09-22T10:50:12.602Z</time>
      </trkpt>
      <trkpt lat="44.94328" lon="5.39305">
        <ele>952</ele>
        <time>2022-09-22T10:50:13.603Z</time>
      </trkpt>
      <trkpt lat="44.94326" lon="5.39305">
        <ele>952</ele>
        <time>2022-09-22T10:50:14.603Z</time>
      </trkpt>
      <trkpt lat="44.94325" lon="5.39305">
        <ele>953</ele>
        <time>2022-09-22T10:50:15.603Z</time>
      </trkpt>
      <trkpt lat="44.94323" lon="5.39306">
        <ele>953</ele>
        <time>2022-09-22T10:50:16.603Z</time>
      </trkpt>
      <trkpt lat="44.94322" lon="5.39306">
        <ele>953</ele>
        <time>2022-09-22T10:50:17.603Z</time>
      </trkpt>
      <trkpt lat="44.9432" lon="5.39307">
        <ele>954</ele>
        <time>2022-09-22T10:50:18.603Z</time>
      </trkpt>
      <trkpt lat="44.94319" lon="5.39307">
        <ele>954</ele>
        <time>2022-09-22T10:50:19.603Z</time>
      </trkpt>
      <trkpt lat="44.94317" lon="5.39307">
        <ele>954</ele>
        <time>2022-09-22T10:50:20.603Z</time>
      </trkpt>
      <trkpt lat="44.94316" lon="5.39307">
        <ele>953</ele>
        <time>2022-09-22T10:50:21.602Z</time>
      </trkpt>
      <trkpt lat="44.94315" lon="5.39308">
        <ele>953</ele>
        <time>2022-09-22T10:50:22.602Z</time>
      </trkpt>
      <trkpt lat="44.94313" lon="5.39308">
        <ele>953</ele>
        <time>2022-09-22T10:50:23.603Z</time>
      </trkpt>
      <trkpt lat="44.94312" lon="5.39308">
        <ele>953</ele>
        <time>2022-09-22T10:50:24.603Z</time>
      </trkpt>
      <trkpt lat="44.9431" lon="5.39309">
        <ele>953</ele>
        <time>2022-09-22T10:50:25.603Z</time>
      </trkpt>
      <trkpt lat="44.94309" lon="5.39309">
        <ele>953</ele>
        <time>2022-09-22T10:50:26.602Z</time>
      </trkpt>
      <trkpt lat="44.94307" lon="5.39309">
        <ele>953</ele>
        <time>2022-09-22T10:50:27.603Z</time>
      </trkpt>
      <trkpt lat="44.94306" lon="5.3931">
        <ele>954</ele>
        <time>2022-09-22T10:50:28.603Z</time>
      </trkpt>
      <trkpt lat="44.94304" lon="5.39311">
        <ele>953</ele>
        <time>2022-09-22T10:50:29.602Z</time>
      </trkpt>
      <trkpt lat="44.94303" lon="5.39311">
        <ele>953</ele>
        <time>2022-09-22T10:50:30.603Z</time>
      </trkpt>
      <trkpt lat="44.94301" lon="5.39312">
        <ele>953</ele>
        <time>2022-09-22T10:50:31.603Z</time>
      </trkpt>
      <trkpt lat="44.94299" lon="5.39312">
        <ele>953</ele>
        <time>2022-09-22T10:50:32.603Z</time>
      </trkpt>
      <trkpt lat="44.94297" lon="5.39313">
        <ele>954</ele>
        <time>2022-09-22T10:50:33.603Z</time>
      </trkpt>
      <trkpt lat="44.94296" lon="5.39314">
        <ele>954</ele>
        <time>2022-09-22T10:50:34.603Z</time>
      </trkpt>
      <trkpt lat="44.94294" lon="5.39314">
        <ele>955</ele>
        <time>2022-09-22T10:50:35.603Z</time>
      </trkpt>
      <trkpt lat="44.94292" lon="5.39314">
        <ele>955</ele>
        <time>2022-09-22T10:50:36.602Z</time>
      </trkpt>
      <trkpt lat="44.94291" lon="5.39315">
        <ele>956</ele>
        <time>2022-09-22T10:50:37.603Z</time>
      </trkpt>
      <trkpt lat="44.94289" lon="5.39315">
        <ele>956</ele>
        <time>2022-09-22T10:50:38.603Z</time>
      </trkpt>
      <trkpt lat="44.94288" lon="5.39316">
        <ele>956</ele>
        <time>2022-09-22T10:50:39.603Z</time>
      </trkpt>
      <trkpt lat="44.94287" lon="5.39316">
        <ele>957</ele>
        <time>2022-09-22T10:50:40.603Z</time>
      </trkpt>
      <trkpt lat="44.94285" lon="5.39317">
        <ele>957</ele>
        <time>2022-09-22T10:50:41.603Z</time>
      </trkpt>
      <trkpt lat="44.94284" lon="5.39318">
        <ele>957</ele>
        <time>2022-09-22T10:50:42.603Z</time>
      </trkpt>
      <trkpt lat="44.94283" lon="5.39319">
        <ele>957</ele>
        <time>2022-09-22T10:50:43.603Z</time>
      </trkpt>
      <trkpt lat="44.94281" lon="5.3932">
        <ele>958</ele>
        <time>2022-09-22T10:50:44.602Z</time>
      </trkpt>
      <trkpt lat="44.94279" lon="5.39321">
        <ele>958</ele>
        <time>2022-09-22T10:50:45.603Z</time>
      </trkpt>
      <trkpt lat="44.94277" lon="5.39322">
        <ele>958</ele>
        <time>2022-09-22T10:50:46.603Z</time>
      </trkpt>
      <trkpt lat="44.94276" lon="5.39323">
        <ele>958</ele>
        <time>2022-09-22T10:50:47.603Z</time>
      </trkpt>
      <trkpt lat="44.94274" lon="5.39324">
        <ele>958</ele>
        <time>2022-09-22T10:50:48.603Z</time>
      </trkpt>
      <trkpt lat="44.94272" lon="5.39325">
        <ele>959</ele>
        <time>2022-09-22T10:50:49.602Z</time>
      </trkpt>
      <trkpt lat="44.94271" lon="5.39325">
        <ele>959</ele>
        <time>2022-09-22T10:50:50.603Z</time>
      </trkpt>
      <trkpt lat="44.94269" lon="5.39326">
        <ele>960</ele>
        <time>2022-09-22T10:50:51.603Z</time>
      </trkpt>
      <trkpt lat="44.94268" lon="5.39327">
        <ele>960</ele>
        <time>2022-09-22T10:50:52.603Z</time>
      </trkpt>
      <trkpt lat="44.94267" lon="5.39328">
        <ele>960</ele>
        <time>2022-09-22T10:50:53.603Z</time>
      </trkpt>
      <trkpt lat="44.94265" lon="5.39329">
        <ele>960</ele>
        <time>2022-09-22T10:50:54.602Z</time>
      </trkpt>
      <trkpt lat="44.94264" lon="5.3933">
        <ele>960</ele>
        <time>2022-09-22T10:50:55.603Z</time>
      </trkpt>
      <trkpt lat="44.94263" lon="5.39331">
        <ele>961</ele>
        <time>2022-09-22T10:50:56.603Z</time>
      </trkpt>
      <trkpt lat="44.94262" lon="5.39333">
        <ele>961</ele>
        <time>2022-09-22T10:50:57.603Z</time>
      </trkpt>
      <trkpt lat="44.9426" lon="5.39333">
        <ele>961</ele>
        <time>2022-09-22T10:50:58.603Z</time>
      </trkpt>
      <trkpt lat="44.94259" lon="5.39334">
        <ele>961</ele>
        <time>2022-09-22T10:50:59.603Z</time>
      </trkpt>
      <trkpt lat="44.94257" lon="5.39335">
        <ele>961</ele>
        <time>2022-09-22T10:51:00.603Z</time>
      </trkpt>
      <trkpt lat="44.94256" lon="5.39336">
        <ele>961</ele>
        <time>2022-09-22T10:51:01.603Z</time>
      </trkpt>
      <trkpt lat="44.94255" lon="5.39337">
        <ele>961</ele>
        <time>2022-09-22T10:51:02.603Z</time>
      </trkpt>
      <trkpt lat="44.94254" lon="5.39338">
        <ele>961</ele>
        <time>2022-09-22T10:51:03.603Z</time>
      </trkpt>
      <trkpt lat="44.94252" lon="5.39339">
        <ele>961</ele>
        <time>2022-09-22T10:51:04.603Z</time>
      </trkpt>
      <trkpt lat="44.94251" lon="5.3934">
        <ele>961</ele>
        <time>2022-09-22T10:51:05.603Z</time>
      </trkpt>
      <trkpt lat="44.9425" lon="5.39341">
        <ele>961</ele>
        <time>2022-09-22T10:51:06.603Z</time>
      </trkpt>
      <trkpt lat="44.94249" lon="5.39342">
        <ele>961</ele>
        <time>2022-09-22T10:51:07.603Z</time>
      </trkpt>
      <trkpt lat="44.94247" lon="5.39343">
        <ele>960</ele>
        <time>2022-09-22T10:51:08.603Z</time>
      </trkpt>
      <trkpt lat="44.94246" lon="5.39345">
        <ele>960</ele>
        <time>2022-09-22T10:51:09.603Z</time>
      </trkpt>
      <trkpt lat="44.94245" lon="5.39346">
        <ele>960</ele>
        <time>2022-09-22T10:51:10.603Z</time>
      </trkpt>
      <trkpt lat="44.94244" lon="5.39347">
        <ele>960</ele>
        <time>2022-09-22T10:51:11.603Z</time>
      </trkpt>
      <trkpt lat="44.94242" lon="5.39348">
        <ele>960</ele>
        <time>2022-09-22T10:51:12.603Z</time>
      </trkpt>
      <trkpt lat="44.94241" lon="5.39349">
        <ele>960</ele>
        <time>2022-09-22T10:51:13.603Z</time>
      </trkpt>
      <trkpt lat="44.9424" lon="5.39351">
        <ele>959</ele>
        <time>2022-09-22T10:51:14.603Z</time>
      </trkpt>
      <trkpt lat="44.94239" lon="5.39352">
        <ele>960</ele>
        <time>2022-09-22T10:51:15.603Z</time>
      </trkpt>
      <trkpt lat="44.94238" lon="5.39353">
        <ele>960</ele>
        <time>2022-09-22T10:51:16.602Z</time>
      </trkpt>
      <trkpt lat="44.94236" lon="5.39355">
        <ele>961</ele>
        <time>2022-09-22T10:51:17.603Z</time>
      </trkpt>
      <trkpt lat="44.94235" lon="5.39356">
        <ele>961</ele>
        <time>2022-09-22T10:51:18.602Z</time>
      </trkpt>
      <trkpt lat="44.94234" lon="5.39358">
        <ele>961</ele>
        <time>2022-09-22T10:51:19.603Z</time>
      </trkpt>
      <trkpt lat="44.94233" lon="5.39359">
        <ele>961</ele>
        <time>2022-09-22T10:51:20.603Z</time>
      </trkpt>
      <trkpt lat="44.94233" lon="5.39361">
        <ele>961</ele>
        <time>2022-09-22T10:51:21.602Z</time>
      </trkpt>
      <trkpt lat="44.94232" lon="5.39363">
        <ele>962</ele>
        <time>2022-09-22T10:51:22.603Z</time>
      </trkpt>
      <trkpt lat="44.94231" lon="5.39364">
        <ele>962</ele>
        <time>2022-09-22T10:51:23.603Z</time>
      </trkpt>
      <trkpt lat="44.9423" lon="5.39366">
        <ele>962</ele>
        <time>2022-09-22T10:51:24.603Z</time>
      </trkpt>
      <trkpt lat="44.94229" lon="5.39367">
        <ele>962</ele>
        <time>2022-09-22T10:51:25.602Z</time>
      </trkpt>
      <trkpt lat="44.94228" lon="5.39369">
        <ele>963</ele>
        <time>2022-09-22T10:51:26.603Z</time>
      </trkpt>
      <trkpt lat="44.94226" lon="5.3937">
        <ele>962</ele>
        <time>2022-09-22T10:51:27.603Z</time>
      </trkpt>
      <trkpt lat="44.94225" lon="5.39372">
        <ele>962</ele>
        <time>2022-09-22T10:51:28.602Z</time>
      </trkpt>
      <trkpt lat="44.94224" lon="5.39373">
        <ele>962</ele>
        <time>2022-09-22T10:51:29.603Z</time>
      </trkpt>
      <trkpt lat="44.94223" lon="5.39375">
        <ele>961</ele>
        <time>2022-09-22T10:51:30.603Z</time>
      </trkpt>
      <trkpt lat="44.94221" lon="5.39377">
        <ele>961</ele>
        <time>2022-09-22T10:51:31.603Z</time>
      </trkpt>
      <trkpt lat="44.9422" lon="5.39379">
        <ele>960</ele>
        <time>2022-09-22T10:51:32.603Z</time>
      </trkpt>
      <trkpt lat="44.94219" lon="5.3938">
        <ele>960</ele>
        <time>2022-09-22T10:51:33.603Z</time>
      </trkpt>
      <trkpt lat="44.94218" lon="5.3938">
        <ele>960</ele>
        <time>2022-09-22T10:51:34.603Z</time>
      </trkpt>
      <trkpt lat="44.94216" lon="5.39379">
        <ele>960</ele>
        <time>2022-09-22T10:51:35.602Z</time>
      </trkpt>
      <trkpt lat="44.94215" lon="5.39379">
        <ele>960</ele>
        <time>2022-09-22T10:51:36.603Z</time>
      </trkpt>
      <trkpt lat="44.94213" lon="5.39378">
        <ele>960</ele>
        <time>2022-09-22T10:51:37.603Z</time>
      </trkpt>
      <trkpt lat="44.94212" lon="5.39377">
        <ele>960</ele>
        <time>2022-09-22T10:51:38.603Z</time>
      </trkpt>
      <trkpt lat="44.9421" lon="5.39377">
        <ele>960</ele>
        <time>2022-09-22T10:51:39.603Z</time>
      </trkpt>
      <trkpt lat="44.94209" lon="5.39376">
        <ele>960</ele>
        <time>2022-09-22T10:51:40.603Z</time>
      </trkpt>
      <trkpt lat="44.94207" lon="5.39376">
        <ele>961</ele>
        <time>2022-09-22T10:51:41.603Z</time>
      </trkpt>
      <trkpt lat="44.94205" lon="5.39375">
        <ele>961</ele>
        <time>2022-09-22T10:51:42.603Z</time>
      </trkpt>
      <trkpt lat="44.94204" lon="5.39376">
        <ele>961</ele>
        <time>2022-09-22T10:51:43.603Z</time>
      </trkpt>
      <trkpt lat="44.94202" lon="5.39376">
        <ele>961</ele>
        <time>2022-09-22T10:51:44.602Z</time>
      </trkpt>
      <trkpt lat="44.942" lon="5.39377">
        <ele>962</ele>
        <time>2022-09-22T10:51:45.603Z</time>
      </trkpt>
      <trkpt lat="44.94199" lon="5.39378">
        <ele>963</ele>
        <time>2022-09-22T10:51:46.603Z</time>
      </trkpt>
      <trkpt lat="44.94198" lon="5.39379">
        <ele>964</ele>
        <time>2022-09-22T10:51:47.602Z</time>
      </trkpt>
      <trkpt lat="44.94198" lon="5.3938">
        <ele>965</ele>
        <time>2022-09-22T10:51:48.603Z</time>
      </trkpt>
      <trkpt lat="44.94197" lon="5.39382">
        <ele>966</ele>
        <time>2022-09-22T10:51:49.603Z</time>
      </trkpt>
      <trkpt lat="44.94197" lon="5.39383">
        <ele>967</ele>
        <time>2022-09-22T10:51:50.603Z</time>
      </trkpt>
      <trkpt lat="44.94196" lon="5.39385">
        <ele>968</ele>
        <time>2022-09-22T10:51:51.602Z</time>
      </trkpt>
      <trkpt lat="44.94195" lon="5.39387">
        <ele>968</ele>
        <time>2022-09-22T10:51:52.603Z</time>
      </trkpt>
      <trkpt lat="44.94195" lon="5.39389">
        <ele>969</ele>
        <time>2022-09-22T10:51:53.603Z</time>
      </trkpt>
      <trkpt lat="44.94194" lon="5.39391">
        <ele>970</ele>
        <time>2022-09-22T10:51:54.603Z</time>
      </trkpt>
      <trkpt lat="44.94193" lon="5.39392">
        <ele>970</ele>
        <time>2022-09-22T10:51:55.603Z</time>
      </trkpt>
      <trkpt lat="44.94192" lon="5.39394">
        <ele>971</ele>
        <time>2022-09-22T10:51:56.603Z</time>
      </trkpt>
      <trkpt lat="44.94191" lon="5.39395">
        <ele>971</ele>
        <time>2022-09-22T10:51:57.603Z</time>
      </trkpt>
      <trkpt lat="44.9419" lon="5.39395">
        <ele>972</ele>
        <time>2022-09-22T10:51:58.602Z</time>
      </trkpt>
      <trkpt lat="44.94189" lon="5.39395">
        <ele>972</ele>
        <time>2022-09-22T10:51:59.603Z</time>
      </trkpt>
      <trkpt lat="44.94188" lon="5.39394">
        <ele>971</ele>
        <time>2022-09-22T10:52:00.603Z</time>
      </trkpt>
      <trkpt lat="44.94188" lon="5.39394">
        <ele>971</ele>
        <time>2022-09-22T10:52:01.603Z</time>
      </trkpt>
      <trkpt lat="44.94188" lon="5.39394">
        <ele>971</ele>
        <time>2022-09-22T10:52:02.603Z</time>
      </trkpt>
      <trkpt lat="44.94187" lon="5.39393">
        <ele>971</ele>
        <time>2022-09-22T10:52:03.603Z</time>
      </trkpt>
      <trkpt lat="44.94188" lon="5.39394">
        <ele>971</ele>
        <time>2022-09-22T10:52:06.633Z</time>
      </trkpt>
      <trkpt lat="44.94188" lon="5.39394">
        <ele>970</ele>
        <time>2022-09-22T10:52:07.632Z</time>
      </trkpt>
      <trkpt lat="44.94187" lon="5.3939">
        <ele>970</ele>
        <time>2022-09-22T10:54:39.519Z</time>
      </trkpt>
      <trkpt lat="44.94186" lon="5.39387">
        <ele>970</ele>
        <time>2022-09-22T10:54:40.519Z</time>
      </trkpt>
      <trkpt lat="44.94186" lon="5.39385">
        <ele>970</ele>
        <time>2022-09-22T10:54:41.518Z</time>
      </trkpt>
      <trkpt lat="44.94185" lon="5.39382">
        <ele>971</ele>
        <time>2022-09-22T10:54:42.518Z</time>
      </trkpt>
      <trkpt lat="44.94184" lon="5.3938">
        <ele>970</ele>
        <time>2022-09-22T10:54:43.519Z</time>
      </trkpt>
      <trkpt lat="44.94183" lon="5.39377">
        <ele>970</ele>
        <time>2022-09-22T10:54:44.519Z</time>
      </trkpt>
      <trkpt lat="44.94182" lon="5.39375">
        <ele>970</ele>
        <time>2022-09-22T10:54:45.519Z</time>
      </trkpt>
      <trkpt lat="44.94182" lon="5.39373">
        <ele>971</ele>
        <time>2022-09-22T10:54:46.519Z</time>
      </trkpt>
      <trkpt lat="44.94182" lon="5.3937">
        <ele>971</ele>
        <time>2022-09-22T10:54:47.518Z</time>
      </trkpt>
      <trkpt lat="44.94182" lon="5.39368">
        <ele>971</ele>
        <time>2022-09-22T10:54:48.519Z</time>
      </trkpt>
      <trkpt lat="44.94182" lon="5.39366">
        <ele>971</ele>
        <time>2022-09-22T10:54:49.519Z</time>
      </trkpt>
      <trkpt lat="44.94181" lon="5.39365">
        <ele>971</ele>
        <time>2022-09-22T10:54:50.519Z</time>
      </trkpt>
      <trkpt lat="44.94181" lon="5.39363">
        <ele>971</ele>
        <time>2022-09-22T10:54:51.519Z</time>
      </trkpt>
      <trkpt lat="44.9418" lon="5.39362">
        <ele>971</ele>
        <time>2022-09-22T10:54:52.519Z</time>
      </trkpt>
      <trkpt lat="44.94179" lon="5.39361">
        <ele>971</ele>
        <time>2022-09-22T10:54:53.519Z</time>
      </trkpt>
      <trkpt lat="44.94179" lon="5.39361">
        <ele>972</ele>
        <time>2022-09-22T10:54:54.518Z</time>
      </trkpt>
      <trkpt lat="44.94178" lon="5.3936">
        <ele>972</ele>
        <time>2022-09-22T10:54:55.518Z</time>
      </trkpt>
      <trkpt lat="44.94178" lon="5.3936">
        <ele>972</ele>
        <time>2022-09-22T10:54:56.519Z</time>
      </trkpt>
      <trkpt lat="44.94178" lon="5.3936">
        <ele>972</ele>
        <time>2022-09-22T10:54:57.519Z</time>
      </trkpt>
      <trkpt lat="44.94177" lon="5.39356">
        <ele>980</ele>
        <time>2022-09-22T10:55:40.663Z</time>
      </trkpt>
      <trkpt lat="44.94177" lon="5.39353">
        <ele>980</ele>
        <time>2022-09-22T10:55:41.663Z</time>
      </trkpt>
      <trkpt lat="44.94177" lon="5.3935">
        <ele>980</ele>
        <time>2022-09-22T10:55:42.662Z</time>
      </trkpt>
      <trkpt lat="44.94177" lon="5.39347">
        <ele>980</ele>
        <time>2022-09-22T10:55:43.662Z</time>
      </trkpt>
      <trkpt lat="44.94177" lon="5.39345">
        <ele>980</ele>
        <time>2022-09-22T10:55:44.663Z</time>
      </trkpt>
      <trkpt lat="44.94177" lon="5.39342">
        <ele>980</ele>
        <time>2022-09-22T10:55:45.663Z</time>
      </trkpt>
      <trkpt lat="44.94176" lon="5.3934">
        <ele>980</ele>
        <time>2022-09-22T10:55:46.662Z</time>
      </trkpt>
      <trkpt lat="44.94176" lon="5.39337">
        <ele>980</ele>
        <time>2022-09-22T10:55:47.663Z</time>
      </trkpt>
      <trkpt lat="44.94175" lon="5.39336">
        <ele>980</ele>
        <time>2022-09-22T10:55:48.663Z</time>
      </trkpt>
      <trkpt lat="44.94175" lon="5.39334">
        <ele>979</ele>
        <time>2022-09-22T10:55:49.663Z</time>
      </trkpt>
      <trkpt lat="44.94175" lon="5.39333">
        <ele>979</ele>
        <time>2022-09-22T10:55:50.663Z</time>
      </trkpt>
      <trkpt lat="44.94174" lon="5.39332">
        <ele>979</ele>
        <time>2022-09-22T10:55:51.663Z</time>
      </trkpt>
      <trkpt lat="44.94173" lon="5.39331">
        <ele>979</ele>
        <time>2022-09-22T10:55:56.771Z</time>
      </trkpt>
      <trkpt lat="44.94174" lon="5.39329">
        <ele>981</ele>
        <time>2022-09-22T10:56:05.653Z</time>
      </trkpt>
      <trkpt lat="44.94174" lon="5.39328">
        <ele>981</ele>
        <time>2022-09-22T10:56:06.653Z</time>
      </trkpt>
      <trkpt lat="44.94173" lon="5.39328">
        <ele>981</ele>
        <time>2022-09-22T10:56:07.652Z</time>
      </trkpt>
      <trkpt lat="44.94173" lon="5.39327">
        <ele>980</ele>
        <time>2022-09-22T10:56:08.653Z</time>
      </trkpt>
      <trkpt lat="44.94173" lon="5.39326">
        <ele>980</ele>
        <time>2022-09-22T10:56:09.653Z</time>
      </trkpt>
      <trkpt lat="44.94173" lon="5.39325">
        <ele>979</ele>
        <time>2022-09-22T10:56:10.653Z</time>
      </trkpt>
      <trkpt lat="44.94173" lon="5.39324">
        <ele>979</ele>
        <time>2022-09-22T10:56:11.652Z</time>
      </trkpt>
      <trkpt lat="44.94173" lon="5.39323">
        <ele>980</ele>
        <time>2022-09-22T10:56:12.653Z</time>
      </trkpt>
      <trkpt lat="44.94173" lon="5.39322">
        <ele>980</ele>
        <time>2022-09-22T10:56:13.653Z</time>
      </trkpt>
      <trkpt lat="44.94173" lon="5.39321">
        <ele>980</ele>
        <time>2022-09-22T10:56:14.653Z</time>
      </trkpt>
      <trkpt lat="44.94172" lon="5.39321">
        <ele>981</ele>
        <time>2022-09-22T10:56:15.653Z</time>
      </trkpt>
      <trkpt lat="44.94172" lon="5.3932">
        <ele>981</ele>
        <time>2022-09-22T10:56:16.653Z</time>
      </trkpt>
      <trkpt lat="44.94172" lon="5.39319">
        <ele>981</ele>
        <time>2022-09-22T10:56:17.652Z</time>
      </trkpt>
      <trkpt lat="44.94172" lon="5.39318">
        <ele>981</ele>
        <time>2022-09-22T10:56:18.653Z</time>
      </trkpt>
      <trkpt lat="44.94172" lon="5.39317">
        <ele>981</ele>
        <time>2022-09-22T10:56:19.653Z</time>
      </trkpt>
      <trkpt lat="44.94172" lon="5.39316">
        <ele>981</ele>
        <time>2022-09-22T10:56:20.653Z</time>
      </trkpt>
      <trkpt lat="44.94171" lon="5.39315">
        <ele>981</ele>
        <time>2022-09-22T10:56:21.652Z</time>
      </trkpt>
      <trkpt lat="44.94171" lon="5.39315">
        <ele>981</ele>
        <time>2022-09-22T10:56:22.653Z</time>
      </trkpt>
      <trkpt lat="44.9417" lon="5.39313">
        <ele>981</ele>
        <time>2022-09-22T10:56:23.652Z</time>
      </trkpt>
      <trkpt lat="44.9417" lon="5.39312">
        <ele>981</ele>
        <time>2022-09-22T10:56:24.652Z</time>
      </trkpt>
      <trkpt lat="44.94169" lon="5.39311">
        <ele>981</ele>
        <time>2022-09-22T10:56:25.653Z</time>
      </trkpt>
      <trkpt lat="44.94169" lon="5.3931">
        <ele>981</ele>
        <time>2022-09-22T10:56:26.652Z</time>
      </trkpt>
      <trkpt lat="44.94169" lon="5.39309">
        <ele>981</ele>
        <time>2022-09-22T10:56:27.652Z</time>
      </trkpt>
      <trkpt lat="44.94169" lon="5.39308">
        <ele>981</ele>
        <time>2022-09-22T10:56:28.652Z</time>
      </trkpt>
      <trkpt lat="44.94169" lon="5.39307">
        <ele>981</ele>
        <time>2022-09-22T10:56:29.653Z</time>
      </trkpt>
      <trkpt lat="44.94168" lon="5.39305">
        <ele>981</ele>
        <time>2022-09-22T10:56:30.653Z</time>
      </trkpt>
      <trkpt lat="44.94168" lon="5.39304">
        <ele>981</ele>
        <time>2022-09-22T10:56:31.652Z</time>
      </trkpt>
      <trkpt lat="44.94168" lon="5.39303">
        <ele>982</ele>
        <time>2022-09-22T10:56:32.653Z</time>
      </trkpt>
      <trkpt lat="44.94168" lon="5.39302">
        <ele>983</ele>
        <time>2022-09-22T10:56:33.653Z</time>
      </trkpt>
      <trkpt lat="44.94168" lon="5.39302">
        <ele>984</ele>
        <time>2022-09-22T10:56:34.653Z</time>
      </trkpt>
      <trkpt lat="44.94168" lon="5.39299">
        <ele>985</ele>
        <time>2022-09-22T10:56:41.689Z</time>
      </trkpt>
      <trkpt lat="44.94168" lon="5.39298">
        <ele>985</ele>
        <time>2022-09-22T10:56:42.690Z</time>
      </trkpt>
      <trkpt lat="44.94168" lon="5.39297">
        <ele>984</ele>
        <time>2022-09-22T10:56:43.689Z</time>
      </trkpt>
      <trkpt lat="44.94168" lon="5.39295">
        <ele>984</ele>
        <time>2022-09-22T10:56:44.690Z</time>
      </trkpt>
      <trkpt lat="44.94168" lon="5.39293">
        <ele>984</ele>
        <time>2022-09-22T10:56:45.690Z</time>
      </trkpt>
      <trkpt lat="44.94167" lon="5.39292">
        <ele>984</ele>
        <time>2022-09-22T10:56:46.689Z</time>
      </trkpt>
      <trkpt lat="44.94167" lon="5.3929">
        <ele>984</ele>
        <time>2022-09-22T10:56:47.690Z</time>
      </trkpt>
      <trkpt lat="44.94166" lon="5.39288">
        <ele>984</ele>
        <time>2022-09-22T10:56:48.689Z</time>
      </trkpt>
      <trkpt lat="44.94165" lon="5.39286">
        <ele>984</ele>
        <time>2022-09-22T10:56:49.689Z</time>
      </trkpt>
      <trkpt lat="44.94165" lon="5.39284">
        <ele>984</ele>
        <time>2022-09-22T10:56:50.690Z</time>
      </trkpt>
      <trkpt lat="44.94164" lon="5.39283">
        <ele>984</ele>
        <time>2022-09-22T10:56:51.690Z</time>
      </trkpt>
      <trkpt lat="44.94164" lon="5.3928">
        <ele>984</ele>
        <time>2022-09-22T10:56:52.690Z</time>
      </trkpt>
      <trkpt lat="44.94164" lon="5.39278">
        <ele>984</ele>
        <time>2022-09-22T10:56:53.690Z</time>
      </trkpt>
      <trkpt lat="44.94163" lon="5.39276">
        <ele>984</ele>
        <time>2022-09-22T10:56:54.690Z</time>
      </trkpt>
      <trkpt lat="44.94163" lon="5.39275">
        <ele>984</ele>
        <time>2022-09-22T10:56:55.690Z</time>
      </trkpt>
      <trkpt lat="44.94162" lon="5.39273">
        <ele>983</ele>
        <time>2022-09-22T10:56:56.690Z</time>
      </trkpt>
      <trkpt lat="44.94161" lon="5.39271">
        <ele>983</ele>
        <time>2022-09-22T10:56:57.690Z</time>
      </trkpt>
      <trkpt lat="44.9416" lon="5.39269">
        <ele>984</ele>
        <time>2022-09-22T10:56:58.689Z</time>
      </trkpt>
      <trkpt lat="44.94159" lon="5.39267">
        <ele>984</ele>
        <time>2022-09-22T10:56:59.689Z</time>
      </trkpt>
      <trkpt lat="44.94159" lon="5.39266">
        <ele>985</ele>
        <time>2022-09-22T10:57:00.690Z</time>
      </trkpt>
      <trkpt lat="44.94158" lon="5.39265">
        <ele>986</ele>
        <time>2022-09-22T10:57:01.689Z</time>
      </trkpt>
      <trkpt lat="44.94157" lon="5.39265">
        <ele>986</ele>
        <time>2022-09-22T10:57:02.689Z</time>
      </trkpt>
      <trkpt lat="44.94156" lon="5.39265">
        <ele>986</ele>
        <time>2022-09-22T10:57:03.690Z</time>
      </trkpt>
      <trkpt lat="44.94156" lon="5.39265">
        <ele>986</ele>
        <time>2022-09-22T10:57:04.690Z</time>
      </trkpt>
      <trkpt lat="44.94156" lon="5.39264">
        <ele>987</ele>
        <time>2022-09-22T10:57:05.689Z</time>
      </trkpt>
      <trkpt lat="44.94156" lon="5.39263">
        <ele>987</ele>
        <time>2022-09-22T10:57:06.690Z</time>
      </trkpt>
      <trkpt lat="44.94155" lon="5.39261">
        <ele>987</ele>
        <time>2022-09-22T10:57:07.690Z</time>
      </trkpt>
      <trkpt lat="44.94155" lon="5.3926">
        <ele>987</ele>
        <time>2022-09-22T10:57:08.689Z</time>
      </trkpt>
      <trkpt lat="44.94156" lon="5.3926">
        <ele>987</ele>
        <time>2022-09-22T10:57:09.690Z</time>
      </trkpt>
      <trkpt lat="44.94156" lon="5.39259">
        <ele>987</ele>
        <time>2022-09-22T10:57:10.690Z</time>
      </trkpt>
      <trkpt lat="44.94156" lon="5.39259">
        <ele>988</ele>
        <time>2022-09-22T10:57:11.690Z</time>
      </trkpt>
      <trkpt lat="44.94156" lon="5.39258">
        <ele>988</ele>
        <time>2022-09-22T10:57:12.690Z</time>
      </trkpt>
      <trkpt lat="44.94158" lon="5.39254">
        <ele>986</ele>
        <time>2022-09-22T10:58:37.791Z</time>
      </trkpt>
      <trkpt lat="44.94159" lon="5.39252">
        <ele>986</ele>
        <time>2022-09-22T10:58:38.792Z</time>
      </trkpt>
      <trkpt lat="44.94159" lon="5.3925">
        <ele>986</ele>
        <time>2022-09-22T10:58:39.791Z</time>
      </trkpt>
      <trkpt lat="44.9416" lon="5.39247">
        <ele>986</ele>
        <time>2022-09-22T10:58:40.791Z</time>
      </trkpt>
      <trkpt lat="44.9416" lon="5.39245">
        <ele>986</ele>
        <time>2022-09-22T10:58:41.791Z</time>
      </trkpt>
      <trkpt lat="44.94161" lon="5.39243">
        <ele>986</ele>
        <time>2022-09-22T10:58:42.792Z</time>
      </trkpt>
      <trkpt lat="44.94162" lon="5.39241">
        <ele>986</ele>
        <time>2022-09-22T10:58:43.792Z</time>
      </trkpt>
      <trkpt lat="44.94163" lon="5.39239">
        <ele>986</ele>
        <time>2022-09-22T10:58:44.792Z</time>
      </trkpt>
      <trkpt lat="44.94163" lon="5.39237">
        <ele>986</ele>
        <time>2022-09-22T10:58:45.792Z</time>
      </trkpt>
      <trkpt lat="44.94164" lon="5.39235">
        <ele>986</ele>
        <time>2022-09-22T10:58:46.791Z</time>
      </trkpt>
      <trkpt lat="44.94165" lon="5.39233">
        <ele>986</ele>
        <time>2022-09-22T10:58:47.792Z</time>
      </trkpt>
      <trkpt lat="44.94165" lon="5.39231">
        <ele>987</ele>
        <time>2022-09-22T10:58:48.791Z</time>
      </trkpt>
      <trkpt lat="44.94166" lon="5.39229">
        <ele>986</ele>
        <time>2022-09-22T10:58:49.792Z</time>
      </trkpt>
      <trkpt lat="44.94166" lon="5.39228">
        <ele>987</ele>
        <time>2022-09-22T10:58:50.792Z</time>
      </trkpt>
      <trkpt lat="44.94166" lon="5.39226">
        <ele>987</ele>
        <time>2022-09-22T10:58:51.792Z</time>
      </trkpt>
      <trkpt lat="44.94165" lon="5.39224">
        <ele>986</ele>
        <time>2022-09-22T10:58:52.792Z</time>
      </trkpt>
      <trkpt lat="44.94165" lon="5.39222">
        <ele>987</ele>
        <time>2022-09-22T10:58:53.792Z</time>
      </trkpt>
      <trkpt lat="44.94164" lon="5.39221">
        <ele>987</ele>
        <time>2022-09-22T10:58:54.791Z</time>
      </trkpt>
      <trkpt lat="44.94163" lon="5.3922">
        <ele>987</ele>
        <time>2022-09-22T10:58:55.791Z</time>
      </trkpt>
      <trkpt lat="44.94162" lon="5.39219">
        <ele>987</ele>
        <time>2022-09-22T10:58:56.791Z</time>
      </trkpt>
      <trkpt lat="44.94161" lon="5.39217">
        <ele>987</ele>
        <time>2022-09-22T10:58:57.792Z</time>
      </trkpt>
      <trkpt lat="44.9416" lon="5.39215">
        <ele>987</ele>
        <time>2022-09-22T10:58:58.791Z</time>
      </trkpt>
      <trkpt lat="44.9416" lon="5.39213">
        <ele>987</ele>
        <time>2022-09-22T10:58:59.792Z</time>
      </trkpt>
      <trkpt lat="44.9416" lon="5.39212">
        <ele>988</ele>
        <time>2022-09-22T10:59:00.792Z</time>
      </trkpt>
      <trkpt lat="44.9416" lon="5.3921">
        <ele>988</ele>
        <time>2022-09-22T10:59:01.792Z</time>
      </trkpt>
      <trkpt lat="44.94159" lon="5.39208">
        <ele>988</ele>
        <time>2022-09-22T10:59:02.791Z</time>
      </trkpt>
      <trkpt lat="44.94158" lon="5.39207">
        <ele>989</ele>
        <time>2022-09-22T10:59:03.792Z</time>
      </trkpt>
      <trkpt lat="44.94158" lon="5.39206">
        <ele>989</ele>
        <time>2022-09-22T10:59:04.792Z</time>
      </trkpt>
      <trkpt lat="44.94157" lon="5.39205">
        <ele>990</ele>
        <time>2022-09-22T10:59:05.791Z</time>
      </trkpt>
      <trkpt lat="44.94155" lon="5.39204">
        <ele>990</ele>
        <time>2022-09-22T10:59:06.792Z</time>
      </trkpt>
      <trkpt lat="44.94154" lon="5.39203">
        <ele>990</ele>
        <time>2022-09-22T10:59:07.791Z</time>
      </trkpt>
      <trkpt lat="44.94153" lon="5.39202">
        <ele>990</ele>
        <time>2022-09-22T10:59:08.792Z</time>
      </trkpt>
      <trkpt lat="44.94152" lon="5.39201">
        <ele>990</ele>
        <time>2022-09-22T10:59:09.792Z</time>
      </trkpt>
      <trkpt lat="44.94152" lon="5.392">
        <ele>989</ele>
        <time>2022-09-22T10:59:10.792Z</time>
      </trkpt>
      <trkpt lat="44.94152" lon="5.39199">
        <ele>989</ele>
        <time>2022-09-22T10:59:11.792Z</time>
      </trkpt>
      <trkpt lat="44.94151" lon="5.39197">
        <ele>988</ele>
        <time>2022-09-22T10:59:12.792Z</time>
      </trkpt>
      <trkpt lat="44.94151" lon="5.39195">
        <ele>988</ele>
        <time>2022-09-22T10:59:13.792Z</time>
      </trkpt>
      <trkpt lat="44.9415" lon="5.39194">
        <ele>988</ele>
        <time>2022-09-22T10:59:14.792Z</time>
      </trkpt>
      <trkpt lat="44.9415" lon="5.39193">
        <ele>988</ele>
        <time>2022-09-22T10:59:15.792Z</time>
      </trkpt>
      <trkpt lat="44.94149" lon="5.39192">
        <ele>988</ele>
        <time>2022-09-22T10:59:16.792Z</time>
      </trkpt>
      <trkpt lat="44.94149" lon="5.39191">
        <ele>989</ele>
        <time>2022-09-22T10:59:17.792Z</time>
      </trkpt>
      <trkpt lat="44.94149" lon="5.3919">
        <ele>990</ele>
        <time>2022-09-22T10:59:18.792Z</time>
      </trkpt>
      <trkpt lat="44.94149" lon="5.3919">
        <ele>991</ele>
        <time>2022-09-22T10:59:19.792Z</time>
      </trkpt>
      <trkpt lat="44.94149" lon="5.39189">
        <ele>993</ele>
        <time>2022-09-22T10:59:22.879Z</time>
      </trkpt>
      <trkpt lat="44.94149" lon="5.39188">
        <ele>993</ele>
        <time>2022-09-22T10:59:23.879Z</time>
      </trkpt>
      <trkpt lat="44.94148" lon="5.39187">
        <ele>993</ele>
        <time>2022-09-22T10:59:24.878Z</time>
      </trkpt>
      <trkpt lat="44.94148" lon="5.39186">
        <ele>994</ele>
        <time>2022-09-22T10:59:25.879Z</time>
      </trkpt>
      <trkpt lat="44.94148" lon="5.39185">
        <ele>994</ele>
        <time>2022-09-22T10:59:26.879Z</time>
      </trkpt>
      <trkpt lat="44.94148" lon="5.39184">
        <ele>994</ele>
        <time>2022-09-22T10:59:27.878Z</time>
      </trkpt>
      <trkpt lat="44.94148" lon="5.39183">
        <ele>994</ele>
        <time>2022-09-22T10:59:28.879Z</time>
      </trkpt>
      <trkpt lat="44.94147" lon="5.39182">
        <ele>994</ele>
        <time>2022-09-22T10:59:29.879Z</time>
      </trkpt>
      <trkpt lat="44.94147" lon="5.39182">
        <ele>994</ele>
        <time>2022-09-22T10:59:30.879Z</time>
      </trkpt>
      <trkpt lat="44.94146" lon="5.39181">
        <ele>993</ele>
        <time>2022-09-22T10:59:31.879Z</time>
      </trkpt>
      <trkpt lat="44.94146" lon="5.3918">
        <ele>993</ele>
        <time>2022-09-22T10:59:32.878Z</time>
      </trkpt>
      <trkpt lat="44.94145" lon="5.3918">
        <ele>993</ele>
        <time>2022-09-22T10:59:33.879Z</time>
      </trkpt>
      <trkpt lat="44.94144" lon="5.39179">
        <ele>993</ele>
        <time>2022-09-22T10:59:34.879Z</time>
      </trkpt>
      <trkpt lat="44.94144" lon="5.39178">
        <ele>993</ele>
        <time>2022-09-22T10:59:35.878Z</time>
      </trkpt>
      <trkpt lat="44.94143" lon="5.39177">
        <ele>994</ele>
        <time>2022-09-22T10:59:36.878Z</time>
      </trkpt>
      <trkpt lat="44.94142" lon="5.39176">
        <ele>994</ele>
        <time>2022-09-22T10:59:37.879Z</time>
      </trkpt>
      <trkpt lat="44.94141" lon="5.39174">
        <ele>994</ele>
        <time>2022-09-22T10:59:38.879Z</time>
      </trkpt>
      <trkpt lat="44.94141" lon="5.39173">
        <ele>994</ele>
        <time>2022-09-22T10:59:39.879Z</time>
      </trkpt>
      <trkpt lat="44.9414" lon="5.39173">
        <ele>994</ele>
        <time>2022-09-22T10:59:40.878Z</time>
      </trkpt>
      <trkpt lat="44.9414" lon="5.39173">
        <ele>994</ele>
        <time>2022-09-22T10:59:41.879Z</time>
      </trkpt>
      <trkpt lat="44.9414" lon="5.39173">
        <ele>995</ele>
        <time>2022-09-22T10:59:42.879Z</time>
      </trkpt>
      <trkpt lat="44.94135" lon="5.39172">
        <ele>1011</ele>
        <time>2022-09-22T11:00:15.037Z</time>
      </trkpt>
      <trkpt lat="44.94134" lon="5.39171">
        <ele>1010</ele>
        <time>2022-09-22T11:00:16.037Z</time>
      </trkpt>
      <trkpt lat="44.94132" lon="5.3917">
        <ele>1010</ele>
        <time>2022-09-22T11:00:17.036Z</time>
      </trkpt>
      <trkpt lat="44.9413" lon="5.3917">
        <ele>1009</ele>
        <time>2022-09-22T11:00:18.036Z</time>
      </trkpt>
      <trkpt lat="44.94128" lon="5.39169">
        <ele>1008</ele>
        <time>2022-09-22T11:00:19.037Z</time>
      </trkpt>
      <trkpt lat="44.94126" lon="5.39168">
        <ele>1007</ele>
        <time>2022-09-22T11:00:20.037Z</time>
      </trkpt>
      <trkpt lat="44.94124" lon="5.39167">
        <ele>1006</ele>
        <time>2022-09-22T11:00:21.036Z</time>
      </trkpt>
      <trkpt lat="44.94122" lon="5.39165">
        <ele>1006</ele>
        <time>2022-09-22T11:00:22.037Z</time>
      </trkpt>
      <trkpt lat="44.94121" lon="5.39165">
        <ele>1005</ele>
        <time>2022-09-22T11:00:23.037Z</time>
      </trkpt>
      <trkpt lat="44.9412" lon="5.39164">
        <ele>1005</ele>
        <time>2022-09-22T11:00:24.037Z</time>
      </trkpt>
      <trkpt lat="44.94119" lon="5.39163">
        <ele>1004</ele>
        <time>2022-09-22T11:00:25.036Z</time>
      </trkpt>
      <trkpt lat="44.94118" lon="5.39162">
        <ele>1004</ele>
        <time>2022-09-22T11:00:26.036Z</time>
      </trkpt>
      <trkpt lat="44.94117" lon="5.39161">
        <ele>1003</ele>
        <time>2022-09-22T11:00:27.037Z</time>
      </trkpt>
      <trkpt lat="44.94116" lon="5.39159">
        <ele>1002</ele>
        <time>2022-09-22T11:00:28.037Z</time>
      </trkpt>
      <trkpt lat="44.94115" lon="5.39158">
        <ele>1002</ele>
        <time>2022-09-22T11:00:29.037Z</time>
      </trkpt>
      <trkpt lat="44.94114" lon="5.39156">
        <ele>1001</ele>
        <time>2022-09-22T11:00:30.037Z</time>
      </trkpt>
      <trkpt lat="44.94114" lon="5.39155">
        <ele>1001</ele>
        <time>2022-09-22T11:00:31.037Z</time>
      </trkpt>
      <trkpt lat="44.94113" lon="5.39154">
        <ele>1000</ele>
        <time>2022-09-22T11:00:32.037Z</time>
      </trkpt>
      <trkpt lat="44.94112" lon="5.39153">
        <ele>1000</ele>
        <time>2022-09-22T11:00:33.037Z</time>
      </trkpt>
      <trkpt lat="44.94111" lon="5.39152">
        <ele>999</ele>
        <time>2022-09-22T11:00:34.037Z</time>
      </trkpt>
      <trkpt lat="44.9411" lon="5.39152">
        <ele>999</ele>
        <time>2022-09-22T11:00:35.036Z</time>
      </trkpt>
      <trkpt lat="44.94109" lon="5.39152">
        <ele>999</ele>
        <time>2022-09-22T11:00:36.037Z</time>
      </trkpt>
      <trkpt lat="44.94108" lon="5.39151">
        <ele>998</ele>
        <time>2022-09-22T11:00:37.037Z</time>
      </trkpt>
      <trkpt lat="44.94107" lon="5.39151">
        <ele>998</ele>
        <time>2022-09-22T11:00:38.037Z</time>
      </trkpt>
      <trkpt lat="44.94106" lon="5.3915">
        <ele>998</ele>
        <time>2022-09-22T11:00:39.037Z</time>
      </trkpt>
      <trkpt lat="44.94106" lon="5.3915">
        <ele>998</ele>
        <time>2022-09-22T11:00:40.037Z</time>
      </trkpt>
      <trkpt lat="44.94105" lon="5.3915">
        <ele>998</ele>
        <time>2022-09-22T11:00:41.037Z</time>
      </trkpt>
      <trkpt lat="44.94104" lon="5.39149">
        <ele>999</ele>
        <time>2022-09-22T11:00:42.036Z</time>
      </trkpt>
      <trkpt lat="44.94104" lon="5.39149">
        <ele>999</ele>
        <time>2022-09-22T11:00:43.037Z</time>
      </trkpt>
      <trkpt lat="44.94104" lon="5.39149">
        <ele>1000</ele>
        <time>2022-09-22T11:00:44.037Z</time>
      </trkpt>
      <trkpt lat="44.94099" lon="5.39147">
        <ele>1014</ele>
        <time>2022-09-22T11:01:09.163Z</time>
      </trkpt>
      <trkpt lat="44.94097" lon="5.39147">
        <ele>1014</ele>
        <time>2022-09-22T11:01:10.163Z</time>
      </trkpt>
      <trkpt lat="44.94095" lon="5.39146">
        <ele>1013</ele>
        <time>2022-09-22T11:01:11.163Z</time>
      </trkpt>
      <trkpt lat="44.94093" lon="5.39146">
        <ele>1012</ele>
        <time>2022-09-22T11:01:12.162Z</time>
      </trkpt>
      <trkpt lat="44.94092" lon="5.39146">
        <ele>1011</ele>
        <time>2022-09-22T11:01:13.163Z</time>
      </trkpt>
      <trkpt lat="44.9409" lon="5.39145">
        <ele>1011</ele>
        <time>2022-09-22T11:01:14.163Z</time>
      </trkpt>
      <trkpt lat="44.94088" lon="5.39145">
        <ele>1010</ele>
        <time>2022-09-22T11:01:15.163Z</time>
      </trkpt>
      <trkpt lat="44.94087" lon="5.39144">
        <ele>1009</ele>
        <time>2022-09-22T11:01:16.163Z</time>
      </trkpt>
      <trkpt lat="44.94085" lon="5.39144">
        <ele>1009</ele>
        <time>2022-09-22T11:01:17.162Z</time>
      </trkpt>
      <trkpt lat="44.94084" lon="5.39143">
        <ele>1008</ele>
        <time>2022-09-22T11:01:18.163Z</time>
      </trkpt>
      <trkpt lat="44.94083" lon="5.39142">
        <ele>1007</ele>
        <time>2022-09-22T11:01:19.163Z</time>
      </trkpt>
      <trkpt lat="44.94081" lon="5.39141">
        <ele>1007</ele>
        <time>2022-09-22T11:01:20.163Z</time>
      </trkpt>
      <trkpt lat="44.9408" lon="5.3914">
        <ele>1006</ele>
        <time>2022-09-22T11:01:21.162Z</time>
      </trkpt>
      <trkpt lat="44.94078" lon="5.39139">
        <ele>1005</ele>
        <time>2022-09-22T11:01:22.163Z</time>
      </trkpt>
      <trkpt lat="44.94077" lon="5.39137">
        <ele>1005</ele>
        <time>2022-09-22T11:01:23.163Z</time>
      </trkpt>
      <trkpt lat="44.94076" lon="5.39136">
        <ele>1005</ele>
        <time>2022-09-22T11:01:24.163Z</time>
      </trkpt>
      <trkpt lat="44.94075" lon="5.39134">
        <ele>1004</ele>
        <time>2022-09-22T11:01:25.163Z</time>
      </trkpt>
      <trkpt lat="44.94074" lon="5.39133">
        <ele>1005</ele>
        <time>2022-09-22T11:01:26.163Z</time>
      </trkpt>
      <trkpt lat="44.94073" lon="5.39132">
        <ele>1005</ele>
        <time>2022-09-22T11:01:27.162Z</time>
      </trkpt>
      <trkpt lat="44.94072" lon="5.39131">
        <ele>1005</ele>
        <time>2022-09-22T11:01:28.162Z</time>
      </trkpt>
      <trkpt lat="44.94071" lon="5.39129">
        <ele>1005</ele>
        <time>2022-09-22T11:01:29.163Z</time>
      </trkpt>
      <trkpt lat="44.9407" lon="5.39128">
        <ele>1005</ele>
        <time>2022-09-22T11:01:30.163Z</time>
      </trkpt>
      <trkpt lat="44.94069" lon="5.39126">
        <ele>1005</ele>
        <time>2022-09-22T11:01:31.163Z</time>
      </trkpt>
      <trkpt lat="44.94069" lon="5.39125">
        <ele>1005</ele>
        <time>2022-09-22T11:01:32.163Z</time>
      </trkpt>
      <trkpt lat="44.94068" lon="5.39123">
        <ele>1005</ele>
        <time>2022-09-22T11:01:33.163Z</time>
      </trkpt>
      <trkpt lat="44.94067" lon="5.39122">
        <ele>1005</ele>
        <time>2022-09-22T11:01:34.162Z</time>
      </trkpt>
      <trkpt lat="44.94067" lon="5.3912">
        <ele>1005</ele>
        <time>2022-09-22T11:01:35.163Z</time>
      </trkpt>
      <trkpt lat="44.94066" lon="5.39119">
        <ele>1004</ele>
        <time>2022-09-22T11:01:36.162Z</time>
      </trkpt>
      <trkpt lat="44.94065" lon="5.39117">
        <ele>1004</ele>
        <time>2022-09-22T11:01:37.163Z</time>
      </trkpt>
      <trkpt lat="44.94063" lon="5.39115">
        <ele>1004</ele>
        <time>2022-09-22T11:01:38.162Z</time>
      </trkpt>
      <trkpt lat="44.94062" lon="5.39114">
        <ele>1004</ele>
        <time>2022-09-22T11:01:39.162Z</time>
      </trkpt>
      <trkpt lat="44.94062" lon="5.39112">
        <ele>1004</ele>
        <time>2022-09-22T11:01:40.162Z</time>
      </trkpt>
      <trkpt lat="44.94061" lon="5.3911">
        <ele>1004</ele>
        <time>2022-09-22T11:01:41.163Z</time>
      </trkpt>
      <trkpt lat="44.9406" lon="5.39109">
        <ele>1004</ele>
        <time>2022-09-22T11:01:42.163Z</time>
      </trkpt>
      <trkpt lat="44.9406" lon="5.39107">
        <ele>1004</ele>
        <time>2022-09-22T11:01:43.163Z</time>
      </trkpt>
      <trkpt lat="44.94059" lon="5.39106">
        <ele>1004</ele>
        <time>2022-09-22T11:01:44.163Z</time>
      </trkpt>
      <trkpt lat="44.94058" lon="5.39104">
        <ele>1004</ele>
        <time>2022-09-22T11:01:45.163Z</time>
      </trkpt>
      <trkpt lat="44.94058" lon="5.39102">
        <ele>1005</ele>
        <time>2022-09-22T11:01:46.163Z</time>
      </trkpt>
      <trkpt lat="44.94057" lon="5.391">
        <ele>1005</ele>
        <time>2022-09-22T11:01:47.163Z</time>
      </trkpt>
      <trkpt lat="44.94056" lon="5.39098">
        <ele>1005</ele>
        <time>2022-09-22T11:01:48.163Z</time>
      </trkpt>
      <trkpt lat="44.94055" lon="5.39097">
        <ele>1005</ele>
        <time>2022-09-22T11:01:49.162Z</time>
      </trkpt>
      <trkpt lat="44.94054" lon="5.39095">
        <ele>1005</ele>
        <time>2022-09-22T11:01:50.163Z</time>
      </trkpt>
      <trkpt lat="44.94053" lon="5.39093">
        <ele>1005</ele>
        <time>2022-09-22T11:01:51.163Z</time>
      </trkpt>
      <trkpt lat="44.94053" lon="5.39091">
        <ele>1005</ele>
        <time>2022-09-22T11:01:52.163Z</time>
      </trkpt>
      <trkpt lat="44.94052" lon="5.39089">
        <ele>1006</ele>
        <time>2022-09-22T11:01:53.163Z</time>
      </trkpt>
      <trkpt lat="44.94051" lon="5.39087">
        <ele>1006</ele>
        <time>2022-09-22T11:01:54.163Z</time>
      </trkpt>
      <trkpt lat="44.94049" lon="5.39085">
        <ele>1006</ele>
        <time>2022-09-22T11:01:55.163Z</time>
      </trkpt>
      <trkpt lat="44.94049" lon="5.39084">
        <ele>1006</ele>
        <time>2022-09-22T11:01:56.163Z</time>
      </trkpt>
      <trkpt lat="44.94048" lon="5.39082">
        <ele>1006</ele>
        <time>2022-09-22T11:01:57.162Z</time>
      </trkpt>
      <trkpt lat="44.94047" lon="5.3908">
        <ele>1006</ele>
        <time>2022-09-22T11:01:58.163Z</time>
      </trkpt>
      <trkpt lat="44.94047" lon="5.39078">
        <ele>1007</ele>
        <time>2022-09-22T11:01:59.163Z</time>
      </trkpt>
      <trkpt lat="44.94046" lon="5.39077">
        <ele>1007</ele>
        <time>2022-09-22T11:02:00.162Z</time>
      </trkpt>
      <trkpt lat="44.94045" lon="5.39076">
        <ele>1008</ele>
        <time>2022-09-22T11:02:01.163Z</time>
      </trkpt>
      <trkpt lat="44.94044" lon="5.39074">
        <ele>1008</ele>
        <time>2022-09-22T11:02:02.162Z</time>
      </trkpt>
      <trkpt lat="44.94043" lon="5.39073">
        <ele>1008</ele>
        <time>2022-09-22T11:02:03.163Z</time>
      </trkpt>
      <trkpt lat="44.94042" lon="5.39072">
        <ele>1008</ele>
        <time>2022-09-22T11:02:04.163Z</time>
      </trkpt>
      <trkpt lat="44.94041" lon="5.39071">
        <ele>1007</ele>
        <time>2022-09-22T11:02:05.163Z</time>
      </trkpt>
      <trkpt lat="44.9404" lon="5.3907">
        <ele>1007</ele>
        <time>2022-09-22T11:02:06.163Z</time>
      </trkpt>
      <trkpt lat="44.94038" lon="5.39069">
        <ele>1007</ele>
        <time>2022-09-22T11:02:07.162Z</time>
      </trkpt>
      <trkpt lat="44.94037" lon="5.39069">
        <ele>1007</ele>
        <time>2022-09-22T11:02:08.163Z</time>
      </trkpt>
      <trkpt lat="44.94035" lon="5.39069">
        <ele>1007</ele>
        <time>2022-09-22T11:02:09.163Z</time>
      </trkpt>
      <trkpt lat="44.94034" lon="5.39069">
        <ele>1007</ele>
        <time>2022-09-22T11:02:10.163Z</time>
      </trkpt>
      <trkpt lat="44.94032" lon="5.3907">
        <ele>1007</ele>
        <time>2022-09-22T11:02:11.163Z</time>
      </trkpt>
      <trkpt lat="44.9403" lon="5.39071">
        <ele>1007</ele>
        <time>2022-09-22T11:02:12.162Z</time>
      </trkpt>
      <trkpt lat="44.94029" lon="5.39072">
        <ele>1008</ele>
        <time>2022-09-22T11:02:13.163Z</time>
      </trkpt>
      <trkpt lat="44.94026" lon="5.39072">
        <ele>1008</ele>
        <time>2022-09-22T11:02:14.163Z</time>
      </trkpt>
      <trkpt lat="44.94025" lon="5.39073">
        <ele>1009</ele>
        <time>2022-09-22T11:02:15.163Z</time>
      </trkpt>
      <trkpt lat="44.94023" lon="5.39073">
        <ele>1009</ele>
        <time>2022-09-22T11:02:16.163Z</time>
      </trkpt>
      <trkpt lat="44.94022" lon="5.39074">
        <ele>1009</ele>
        <time>2022-09-22T11:02:17.162Z</time>
      </trkpt>
      <trkpt lat="44.9402" lon="5.39074">
        <ele>1010</ele>
        <time>2022-09-22T11:02:18.163Z</time>
      </trkpt>
      <trkpt lat="44.94019" lon="5.39075">
        <ele>1010</ele>
        <time>2022-09-22T11:02:19.162Z</time>
      </trkpt>
      <trkpt lat="44.94018" lon="5.39076">
        <ele>1010</ele>
        <time>2022-09-22T11:02:20.162Z</time>
      </trkpt>
      <trkpt lat="44.94017" lon="5.39077">
        <ele>1010</ele>
        <time>2022-09-22T11:02:21.163Z</time>
      </trkpt>
      <trkpt lat="44.94015" lon="5.39078">
        <ele>1010</ele>
        <time>2022-09-22T11:02:22.163Z</time>
      </trkpt>
      <trkpt lat="44.94014" lon="5.39079">
        <ele>1010</ele>
        <time>2022-09-22T11:02:23.162Z</time>
      </trkpt>
      <trkpt lat="44.94013" lon="5.39079">
        <ele>1010</ele>
        <time>2022-09-22T11:02:24.163Z</time>
      </trkpt>
      <trkpt lat="44.94011" lon="5.3908">
        <ele>1010</ele>
        <time>2022-09-22T11:02:25.163Z</time>
      </trkpt>
      <trkpt lat="44.9401" lon="5.39079">
        <ele>1010</ele>
        <time>2022-09-22T11:02:26.163Z</time>
      </trkpt>
      <trkpt lat="44.94009" lon="5.39079">
        <ele>1010</ele>
        <time>2022-09-22T11:02:27.162Z</time>
      </trkpt>
      <trkpt lat="44.94007" lon="5.39078">
        <ele>1011</ele>
        <time>2022-09-22T11:02:28.162Z</time>
      </trkpt>
      <trkpt lat="44.94006" lon="5.39078">
        <ele>1011</ele>
        <time>2022-09-22T11:02:29.162Z</time>
      </trkpt>
      <trkpt lat="44.94005" lon="5.39077">
        <ele>1011</ele>
        <time>2022-09-22T11:02:30.163Z</time>
      </trkpt>
      <trkpt lat="44.94004" lon="5.39076">
        <ele>1011</ele>
        <time>2022-09-22T11:02:31.162Z</time>
      </trkpt>
      <trkpt lat="44.94002" lon="5.39075">
        <ele>1011</ele>
        <time>2022-09-22T11:02:32.162Z</time>
      </trkpt>
      <trkpt lat="44.94001" lon="5.39074">
        <ele>1011</ele>
        <time>2022-09-22T11:02:33.163Z</time>
      </trkpt>
      <trkpt lat="44.94" lon="5.39072">
        <ele>1011</ele>
        <time>2022-09-22T11:02:34.163Z</time>
      </trkpt>
      <trkpt lat="44.93999" lon="5.39071">
        <ele>1011</ele>
        <time>2022-09-22T11:02:35.163Z</time>
      </trkpt>
      <trkpt lat="44.93998" lon="5.39069">
        <ele>1012</ele>
        <time>2022-09-22T11:02:36.163Z</time>
      </trkpt>
      <trkpt lat="44.93997" lon="5.39067">
        <ele>1012</ele>
        <time>2022-09-22T11:02:37.162Z</time>
      </trkpt>
      <trkpt lat="44.93996" lon="5.39065">
        <ele>1013</ele>
        <time>2022-09-22T11:02:38.163Z</time>
      </trkpt>
      <trkpt lat="44.93995" lon="5.39063">
        <ele>1013</ele>
        <time>2022-09-22T11:02:39.163Z</time>
      </trkpt>
      <trkpt lat="44.93994" lon="5.3906">
        <ele>1013</ele>
        <time>2022-09-22T11:02:40.162Z</time>
      </trkpt>
      <trkpt lat="44.93993" lon="5.39058">
        <ele>1013</ele>
        <time>2022-09-22T11:02:41.163Z</time>
      </trkpt>
      <trkpt lat="44.93993" lon="5.39055">
        <ele>1014</ele>
        <time>2022-09-22T11:02:42.163Z</time>
      </trkpt>
      <trkpt lat="44.93992" lon="5.39053">
        <ele>1014</ele>
        <time>2022-09-22T11:02:43.163Z</time>
      </trkpt>
      <trkpt lat="44.93992" lon="5.39051">
        <ele>1014</ele>
        <time>2022-09-22T11:02:44.163Z</time>
      </trkpt>
      <trkpt lat="44.93991" lon="5.39048">
        <ele>1014</ele>
        <time>2022-09-22T11:02:45.163Z</time>
      </trkpt>
      <trkpt lat="44.93991" lon="5.39046">
        <ele>1014</ele>
        <time>2022-09-22T11:02:46.163Z</time>
      </trkpt>
      <trkpt lat="44.9399" lon="5.39043">
        <ele>1014</ele>
        <time>2022-09-22T11:02:47.162Z</time>
      </trkpt>
      <trkpt lat="44.9399" lon="5.39041">
        <ele>1014</ele>
        <time>2022-09-22T11:02:48.163Z</time>
      </trkpt>
      <trkpt lat="44.9399" lon="5.39039">
        <ele>1014</ele>
        <time>2022-09-22T11:02:49.163Z</time>
      </trkpt>
      <trkpt lat="44.93989" lon="5.39037">
        <ele>1014</ele>
        <time>2022-09-22T11:02:50.163Z</time>
      </trkpt>
      <trkpt lat="44.93989" lon="5.39035">
        <ele>1014</ele>
        <time>2022-09-22T11:02:51.162Z</time>
      </trkpt>
      <trkpt lat="44.93988" lon="5.39033">
        <ele>1014</ele>
        <time>2022-09-22T11:02:52.163Z</time>
      </trkpt>
      <trkpt lat="44.93987" lon="5.39031">
        <ele>1014</ele>
        <time>2022-09-22T11:02:53.163Z</time>
      </trkpt>
      <trkpt lat="44.93987" lon="5.39029">
        <ele>1014</ele>
        <time>2022-09-22T11:02:54.163Z</time>
      </trkpt>
      <trkpt lat="44.93986" lon="5.39027">
        <ele>1014</ele>
        <time>2022-09-22T11:02:55.163Z</time>
      </trkpt>
      <trkpt lat="44.93985" lon="5.39025">
        <ele>1014</ele>
        <time>2022-09-22T11:02:56.162Z</time>
      </trkpt>
      <trkpt lat="44.93985" lon="5.39024">
        <ele>1014</ele>
        <time>2022-09-22T11:02:57.163Z</time>
      </trkpt>
      <trkpt lat="44.93984" lon="5.39023">
        <ele>1014</ele>
        <time>2022-09-22T11:02:58.163Z</time>
      </trkpt>
      <trkpt lat="44.93983" lon="5.39021">
        <ele>1015</ele>
        <time>2022-09-22T11:02:59.163Z</time>
      </trkpt>
      <trkpt lat="44.93982" lon="5.3902">
        <ele>1015</ele>
        <time>2022-09-22T11:03:00.163Z</time>
      </trkpt>
      <trkpt lat="44.93982" lon="5.39019">
        <ele>1015</ele>
        <time>2022-09-22T11:03:01.163Z</time>
      </trkpt>
      <trkpt lat="44.9398" lon="5.39019">
        <ele>1015</ele>
        <time>2022-09-22T11:03:02.163Z</time>
      </trkpt>
      <trkpt lat="44.9398" lon="5.39019">
        <ele>1016</ele>
        <time>2022-09-22T11:03:03.162Z</time>
      </trkpt>
      <trkpt lat="44.9398" lon="5.39019">
        <ele>1016</ele>
        <time>2022-09-22T11:03:04.163Z</time>
      </trkpt>
      <trkpt lat="44.9398" lon="5.3902">
        <ele>1016</ele>
        <time>2022-09-22T11:03:05.163Z</time>
      </trkpt>
      <trkpt lat="44.93977" lon="5.39019">
        <ele>1022</ele>
        <time>2022-09-22T11:03:25.293Z</time>
      </trkpt>
      <trkpt lat="44.93976" lon="5.39018">
        <ele>1022</ele>
        <time>2022-09-22T11:03:26.293Z</time>
      </trkpt>
      <trkpt lat="44.93974" lon="5.39017">
        <ele>1022</ele>
        <time>2022-09-22T11:03:27.293Z</time>
      </trkpt>
      <trkpt lat="44.93972" lon="5.39017">
        <ele>1022</ele>
        <time>2022-09-22T11:03:28.293Z</time>
      </trkpt>
      <trkpt lat="44.93969" lon="5.39016">
        <ele>1022</ele>
        <time>2022-09-22T11:03:29.293Z</time>
      </trkpt>
      <trkpt lat="44.93967" lon="5.39016">
        <ele>1022</ele>
        <time>2022-09-22T11:03:30.293Z</time>
      </trkpt>
      <trkpt lat="44.93965" lon="5.39015">
        <ele>1022</ele>
        <time>2022-09-22T11:03:31.292Z</time>
      </trkpt>
      <trkpt lat="44.93963" lon="5.39014">
        <ele>1021</ele>
        <time>2022-09-22T11:03:32.293Z</time>
      </trkpt>
      <trkpt lat="44.93962" lon="5.39013">
        <ele>1021</ele>
        <time>2022-09-22T11:03:33.293Z</time>
      </trkpt>
      <trkpt lat="44.9396" lon="5.39013">
        <ele>1021</ele>
        <time>2022-09-22T11:03:34.293Z</time>
      </trkpt>
      <trkpt lat="44.93959" lon="5.39012">
        <ele>1021</ele>
        <time>2022-09-22T11:03:35.293Z</time>
      </trkpt>
      <trkpt lat="44.93957" lon="5.39011">
        <ele>1021</ele>
        <time>2022-09-22T11:03:36.292Z</time>
      </trkpt>
      <trkpt lat="44.93955" lon="5.39011">
        <ele>1021</ele>
        <time>2022-09-22T11:03:37.292Z</time>
      </trkpt>
      <trkpt lat="44.93954" lon="5.3901">
        <ele>1022</ele>
        <time>2022-09-22T11:03:38.293Z</time>
      </trkpt>
      <trkpt lat="44.93952" lon="5.3901">
        <ele>1022</ele>
        <time>2022-09-22T11:03:39.293Z</time>
      </trkpt>
      <trkpt lat="44.93951" lon="5.39009">
        <ele>1022</ele>
        <time>2022-09-22T11:03:40.292Z</time>
      </trkpt>
      <trkpt lat="44.93949" lon="5.39008">
        <ele>1022</ele>
        <time>2022-09-22T11:03:41.292Z</time>
      </trkpt>
      <trkpt lat="44.93947" lon="5.39007">
        <ele>1022</ele>
        <time>2022-09-22T11:03:42.293Z</time>
      </trkpt>
      <trkpt lat="44.93946" lon="5.39006">
        <ele>1022</ele>
        <time>2022-09-22T11:03:43.293Z</time>
      </trkpt>
      <trkpt lat="44.93944" lon="5.39005">
        <ele>1022</ele>
        <time>2022-09-22T11:03:44.293Z</time>
      </trkpt>
      <trkpt lat="44.93943" lon="5.39004">
        <ele>1021</ele>
        <time>2022-09-22T11:03:45.293Z</time>
      </trkpt>
      <trkpt lat="44.93941" lon="5.39003">
        <ele>1021</ele>
        <time>2022-09-22T11:03:46.293Z</time>
      </trkpt>
      <trkpt lat="44.9394" lon="5.39002">
        <ele>1021</ele>
        <time>2022-09-22T11:03:47.293Z</time>
      </trkpt>
      <trkpt lat="44.93939" lon="5.39001">
        <ele>1021</ele>
        <time>2022-09-22T11:03:48.293Z</time>
      </trkpt>
      <trkpt lat="44.93937" lon="5.39">
        <ele>1021</ele>
        <time>2022-09-22T11:03:49.293Z</time>
      </trkpt>
      <trkpt lat="44.93936" lon="5.38999">
        <ele>1021</ele>
        <time>2022-09-22T11:03:50.293Z</time>
      </trkpt>
      <trkpt lat="44.93934" lon="5.38997">
        <ele>1020</ele>
        <time>2022-09-22T11:03:51.292Z</time>
      </trkpt>
      <trkpt lat="44.93933" lon="5.38996">
        <ele>1020</ele>
        <time>2022-09-22T11:03:52.293Z</time>
      </trkpt>
      <trkpt lat="44.9393" lon="5.38995">
        <ele>1019</ele>
        <time>2022-09-22T11:03:53.293Z</time>
      </trkpt>
      <trkpt lat="44.93929" lon="5.38993">
        <ele>1019</ele>
        <time>2022-09-22T11:03:54.293Z</time>
      </trkpt>
      <trkpt lat="44.93926" lon="5.38992">
        <ele>1019</ele>
        <time>2022-09-22T11:03:55.293Z</time>
      </trkpt>
      <trkpt lat="44.93925" lon="5.3899">
        <ele>1020</ele>
        <time>2022-09-22T11:03:56.292Z</time>
      </trkpt>
      <trkpt lat="44.93923" lon="5.38988">
        <ele>1020</ele>
        <time>2022-09-22T11:03:57.292Z</time>
      </trkpt>
      <trkpt lat="44.93921" lon="5.38986">
        <ele>1020</ele>
        <time>2022-09-22T11:03:58.293Z</time>
      </trkpt>
      <trkpt lat="44.93919" lon="5.38984">
        <ele>1020</ele>
        <time>2022-09-22T11:03:59.292Z</time>
      </trkpt>
      <trkpt lat="44.93918" lon="5.38982">
        <ele>1020</ele>
        <time>2022-09-22T11:04:00.292Z</time>
      </trkpt>
      <trkpt lat="44.93916" lon="5.38981">
        <ele>1020</ele>
        <time>2022-09-22T11:04:01.293Z</time>
      </trkpt>
      <trkpt lat="44.93915" lon="5.38979">
        <ele>1020</ele>
        <time>2022-09-22T11:04:02.293Z</time>
      </trkpt>
      <trkpt lat="44.93913" lon="5.38977">
        <ele>1020</ele>
        <time>2022-09-22T11:04:03.292Z</time>
      </trkpt>
      <trkpt lat="44.93912" lon="5.38976">
        <ele>1020</ele>
        <time>2022-09-22T11:04:04.292Z</time>
      </trkpt>
      <trkpt lat="44.9391" lon="5.38974">
        <ele>1021</ele>
        <time>2022-09-22T11:04:05.292Z</time>
      </trkpt>
      <trkpt lat="44.93909" lon="5.38972">
        <ele>1021</ele>
        <time>2022-09-22T11:04:06.293Z</time>
      </trkpt>
      <trkpt lat="44.93908" lon="5.3897">
        <ele>1021</ele>
        <time>2022-09-22T11:04:07.292Z</time>
      </trkpt>
      <trkpt lat="44.93907" lon="5.38969">
        <ele>1021</ele>
        <time>2022-09-22T11:04:08.293Z</time>
      </trkpt>
      <trkpt lat="44.93906" lon="5.38967">
        <ele>1021</ele>
        <time>2022-09-22T11:04:09.293Z</time>
      </trkpt>
      <trkpt lat="44.93905" lon="5.38965">
        <ele>1021</ele>
        <time>2022-09-22T11:04:10.292Z</time>
      </trkpt>
      <trkpt lat="44.93903" lon="5.38963">
        <ele>1021</ele>
        <time>2022-09-22T11:04:11.293Z</time>
      </trkpt>
      <trkpt lat="44.93902" lon="5.38961">
        <ele>1022</ele>
        <time>2022-09-22T11:04:12.293Z</time>
      </trkpt>
      <trkpt lat="44.93901" lon="5.38958">
        <ele>1022</ele>
        <time>2022-09-22T11:04:13.292Z</time>
      </trkpt>
      <trkpt lat="44.93899" lon="5.38956">
        <ele>1021</ele>
        <time>2022-09-22T11:04:14.292Z</time>
      </trkpt>
      <trkpt lat="44.93898" lon="5.38954">
        <ele>1021</ele>
        <time>2022-09-22T11:04:15.292Z</time>
      </trkpt>
      <trkpt lat="44.93897" lon="5.38953">
        <ele>1021</ele>
        <time>2022-09-22T11:04:16.292Z</time>
      </trkpt>
      <trkpt lat="44.93895" lon="5.38951">
        <ele>1020</ele>
        <time>2022-09-22T11:04:17.293Z</time>
      </trkpt>
      <trkpt lat="44.93894" lon="5.38948">
        <ele>1020</ele>
        <time>2022-09-22T11:04:18.292Z</time>
      </trkpt>
      <trkpt lat="44.93892" lon="5.38946">
        <ele>1020</ele>
        <time>2022-09-22T11:04:19.292Z</time>
      </trkpt>
      <trkpt lat="44.93891" lon="5.38945">
        <ele>1021</ele>
        <time>2022-09-22T11:04:20.293Z</time>
      </trkpt>
      <trkpt lat="44.93889" lon="5.38943">
        <ele>1022</ele>
        <time>2022-09-22T11:04:21.292Z</time>
      </trkpt>
      <trkpt lat="44.93888" lon="5.38941">
        <ele>1022</ele>
        <time>2022-09-22T11:04:22.293Z</time>
      </trkpt>
      <trkpt lat="44.93886" lon="5.3894">
        <ele>1023</ele>
        <time>2022-09-22T11:04:23.293Z</time>
      </trkpt>
      <trkpt lat="44.93885" lon="5.38938">
        <ele>1023</ele>
        <time>2022-09-22T11:04:24.293Z</time>
      </trkpt>
      <trkpt lat="44.93883" lon="5.38936">
        <ele>1023</ele>
        <time>2022-09-22T11:04:25.292Z</time>
      </trkpt>
      <trkpt lat="44.93882" lon="5.38934">
        <ele>1023</ele>
        <time>2022-09-22T11:04:26.293Z</time>
      </trkpt>
      <trkpt lat="44.9388" lon="5.38933">
        <ele>1022</ele>
        <time>2022-09-22T11:04:27.293Z</time>
      </trkpt>
      <trkpt lat="44.93878" lon="5.38931">
        <ele>1022</ele>
        <time>2022-09-22T11:04:28.292Z</time>
      </trkpt>
      <trkpt lat="44.93877" lon="5.3893">
        <ele>1022</ele>
        <time>2022-09-22T11:04:29.293Z</time>
      </trkpt>
      <trkpt lat="44.93875" lon="5.38929">
        <ele>1022</ele>
        <time>2022-09-22T11:04:30.293Z</time>
      </trkpt>
      <trkpt lat="44.93873" lon="5.38928">
        <ele>1021</ele>
        <time>2022-09-22T11:04:31.293Z</time>
      </trkpt>
      <trkpt lat="44.93871" lon="5.38926">
        <ele>1021</ele>
        <time>2022-09-22T11:04:32.293Z</time>
      </trkpt>
      <trkpt lat="44.9387" lon="5.38925">
        <ele>1021</ele>
        <time>2022-09-22T11:04:33.292Z</time>
      </trkpt>
      <trkpt lat="44.93868" lon="5.38923">
        <ele>1021</ele>
        <time>2022-09-22T11:04:34.293Z</time>
      </trkpt>
      <trkpt lat="44.93866" lon="5.38922">
        <ele>1021</ele>
        <time>2022-09-22T11:04:35.293Z</time>
      </trkpt>
      <trkpt lat="44.93865" lon="5.3892">
        <ele>1020</ele>
        <time>2022-09-22T11:04:36.292Z</time>
      </trkpt>
      <trkpt lat="44.93863" lon="5.38919">
        <ele>1020</ele>
        <time>2022-09-22T11:04:37.293Z</time>
      </trkpt>
      <trkpt lat="44.93861" lon="5.38917">
        <ele>1021</ele>
        <time>2022-09-22T11:04:38.293Z</time>
      </trkpt>
      <trkpt lat="44.93859" lon="5.38915">
        <ele>1021</ele>
        <time>2022-09-22T11:04:39.293Z</time>
      </trkpt>
      <trkpt lat="44.93858" lon="5.38913">
        <ele>1021</ele>
        <time>2022-09-22T11:04:40.292Z</time>
      </trkpt>
      <trkpt lat="44.93856" lon="5.38911">
        <ele>1021</ele>
        <time>2022-09-22T11:04:41.293Z</time>
      </trkpt>
      <trkpt lat="44.93854" lon="5.38909">
        <ele>1021</ele>
        <time>2022-09-22T11:04:42.292Z</time>
      </trkpt>
      <trkpt lat="44.93853" lon="5.38908">
        <ele>1021</ele>
        <time>2022-09-22T11:04:43.293Z</time>
      </trkpt>
      <trkpt lat="44.93852" lon="5.38906">
        <ele>1021</ele>
        <time>2022-09-22T11:04:44.293Z</time>
      </trkpt>
      <trkpt lat="44.9385" lon="5.38904">
        <ele>1021</ele>
        <time>2022-09-22T11:04:45.293Z</time>
      </trkpt>
      <trkpt lat="44.93849" lon="5.38903">
        <ele>1021</ele>
        <time>2022-09-22T11:04:46.293Z</time>
      </trkpt>
      <trkpt lat="44.93847" lon="5.38901">
        <ele>1021</ele>
        <time>2022-09-22T11:04:47.293Z</time>
      </trkpt>
      <trkpt lat="44.93846" lon="5.389">
        <ele>1022</ele>
        <time>2022-09-22T11:04:48.293Z</time>
      </trkpt>
      <trkpt lat="44.93845" lon="5.38899">
        <ele>1022</ele>
        <time>2022-09-22T11:04:49.292Z</time>
      </trkpt>
      <trkpt lat="44.93843" lon="5.38898">
        <ele>1022</ele>
        <time>2022-09-22T11:04:50.292Z</time>
      </trkpt>
      <trkpt lat="44.93842" lon="5.38897">
        <ele>1022</ele>
        <time>2022-09-22T11:04:51.293Z</time>
      </trkpt>
      <trkpt lat="44.9384" lon="5.38896">
        <ele>1021</ele>
        <time>2022-09-22T11:04:52.293Z</time>
      </trkpt>
      <trkpt lat="44.93839" lon="5.38895">
        <ele>1021</ele>
        <time>2022-09-22T11:04:53.292Z</time>
      </trkpt>
      <trkpt lat="44.93837" lon="5.38894">
        <ele>1021</ele>
        <time>2022-09-22T11:04:54.293Z</time>
      </trkpt>
      <trkpt lat="44.93835" lon="5.38893">
        <ele>1020</ele>
        <time>2022-09-22T11:04:55.293Z</time>
      </trkpt>
      <trkpt lat="44.93833" lon="5.38892">
        <ele>1020</ele>
        <time>2022-09-22T11:04:56.293Z</time>
      </trkpt>
      <trkpt lat="44.93831" lon="5.38891">
        <ele>1019</ele>
        <time>2022-09-22T11:04:57.292Z</time>
      </trkpt>
      <trkpt lat="44.93829" lon="5.3889">
        <ele>1019</ele>
        <time>2022-09-22T11:04:58.293Z</time>
      </trkpt>
      <trkpt lat="44.93827" lon="5.38889">
        <ele>1019</ele>
        <time>2022-09-22T11:04:59.293Z</time>
      </trkpt>
      <trkpt lat="44.93825" lon="5.38888">
        <ele>1019</ele>
        <time>2022-09-22T11:05:00.292Z</time>
      </trkpt>
      <trkpt lat="44.93823" lon="5.38887">
        <ele>1019</ele>
        <time>2022-09-22T11:05:01.292Z</time>
      </trkpt>
      <trkpt lat="44.93821" lon="5.38886">
        <ele>1020</ele>
        <time>2022-09-22T11:05:02.292Z</time>
      </trkpt>
      <trkpt lat="44.93819" lon="5.38886">
        <ele>1020</ele>
        <time>2022-09-22T11:05:03.292Z</time>
      </trkpt>
      <trkpt lat="44.93817" lon="5.38885">
        <ele>1020</ele>
        <time>2022-09-22T11:05:04.292Z</time>
      </trkpt>
      <trkpt lat="44.93815" lon="5.38884">
        <ele>1020</ele>
        <time>2022-09-22T11:05:05.293Z</time>
      </trkpt>
      <trkpt lat="44.93813" lon="5.38884">
        <ele>1020</ele>
        <time>2022-09-22T11:05:06.293Z</time>
      </trkpt>
      <trkpt lat="44.93811" lon="5.38883">
        <ele>1020</ele>
        <time>2022-09-22T11:05:07.292Z</time>
      </trkpt>
      <trkpt lat="44.93809" lon="5.38883">
        <ele>1021</ele>
        <time>2022-09-22T11:05:08.293Z</time>
      </trkpt>
      <trkpt lat="44.93806" lon="5.38882">
        <ele>1020</ele>
        <time>2022-09-22T11:05:09.293Z</time>
      </trkpt>
      <trkpt lat="44.93804" lon="5.38882">
        <ele>1020</ele>
        <time>2022-09-22T11:05:10.292Z</time>
      </trkpt>
      <trkpt lat="44.93802" lon="5.38882">
        <ele>1020</ele>
        <time>2022-09-22T11:05:11.293Z</time>
      </trkpt>
      <trkpt lat="44.938" lon="5.38881">
        <ele>1020</ele>
        <time>2022-09-22T11:05:12.293Z</time>
      </trkpt>
      <trkpt lat="44.93798" lon="5.3888">
        <ele>1020</ele>
        <time>2022-09-22T11:05:13.292Z</time>
      </trkpt>
      <trkpt lat="44.93796" lon="5.38879">
        <ele>1020</ele>
        <time>2022-09-22T11:05:14.293Z</time>
      </trkpt>
      <trkpt lat="44.93794" lon="5.38879">
        <ele>1021</ele>
        <time>2022-09-22T11:05:15.293Z</time>
      </trkpt>
      <trkpt lat="44.93792" lon="5.38878">
        <ele>1020</ele>
        <time>2022-09-22T11:05:16.293Z</time>
      </trkpt>
      <trkpt lat="44.9379" lon="5.38877">
        <ele>1020</ele>
        <time>2022-09-22T11:05:17.293Z</time>
      </trkpt>
      <trkpt lat="44.93789" lon="5.38876">
        <ele>1020</ele>
        <time>2022-09-22T11:05:18.293Z</time>
      </trkpt>
      <trkpt lat="44.93787" lon="5.38875">
        <ele>1020</ele>
        <time>2022-09-22T11:05:19.293Z</time>
      </trkpt>
      <trkpt lat="44.93785" lon="5.38874">
        <ele>1020</ele>
        <time>2022-09-22T11:05:20.292Z</time>
      </trkpt>
      <trkpt lat="44.93783" lon="5.38873">
        <ele>1020</ele>
        <time>2022-09-22T11:05:21.292Z</time>
      </trkpt>
      <trkpt lat="44.93782" lon="5.38872">
        <ele>1019</ele>
        <time>2022-09-22T11:05:22.293Z</time>
      </trkpt>
      <trkpt lat="44.9378" lon="5.38871">
        <ele>1020</ele>
        <time>2022-09-22T11:05:23.293Z</time>
      </trkpt>
      <trkpt lat="44.93778" lon="5.3887">
        <ele>1020</ele>
        <time>2022-09-22T11:05:24.292Z</time>
      </trkpt>
      <trkpt lat="44.93776" lon="5.38869">
        <ele>1021</ele>
        <time>2022-09-22T11:05:25.293Z</time>
      </trkpt>
      <trkpt lat="44.93774" lon="5.38868">
        <ele>1021</ele>
        <time>2022-09-22T11:05:26.293Z</time>
      </trkpt>
      <trkpt lat="44.93772" lon="5.38867">
        <ele>1021</ele>
        <time>2022-09-22T11:05:27.293Z</time>
      </trkpt>
      <trkpt lat="44.9377" lon="5.38866">
        <ele>1021</ele>
        <time>2022-09-22T11:05:28.293Z</time>
      </trkpt>
      <trkpt lat="44.93768" lon="5.38864">
        <ele>1021</ele>
        <time>2022-09-22T11:05:29.293Z</time>
      </trkpt>
      <trkpt lat="44.93766" lon="5.38863">
        <ele>1021</ele>
        <time>2022-09-22T11:05:30.292Z</time>
      </trkpt>
      <trkpt lat="44.93764" lon="5.38861">
        <ele>1021</ele>
        <time>2022-09-22T11:05:31.293Z</time>
      </trkpt>
      <trkpt lat="44.93762" lon="5.3886">
        <ele>1021</ele>
        <time>2022-09-22T11:05:32.293Z</time>
      </trkpt>
      <trkpt lat="44.9376" lon="5.38859">
        <ele>1021</ele>
        <time>2022-09-22T11:05:33.293Z</time>
      </trkpt>
      <trkpt lat="44.93758" lon="5.38857">
        <ele>1022</ele>
        <time>2022-09-22T11:05:34.292Z</time>
      </trkpt>
      <trkpt lat="44.93756" lon="5.38855">
        <ele>1022</ele>
        <time>2022-09-22T11:05:35.293Z</time>
      </trkpt>
      <trkpt lat="44.93754" lon="5.38853">
        <ele>1022</ele>
        <time>2022-09-22T11:05:36.293Z</time>
      </trkpt>
      <trkpt lat="44.93753" lon="5.38852">
        <ele>1022</ele>
        <time>2022-09-22T11:05:37.293Z</time>
      </trkpt>
      <trkpt lat="44.93751" lon="5.3885">
        <ele>1022</ele>
        <time>2022-09-22T11:05:38.293Z</time>
      </trkpt>
      <trkpt lat="44.93749" lon="5.38848">
        <ele>1022</ele>
        <time>2022-09-22T11:05:39.293Z</time>
      </trkpt>
      <trkpt lat="44.93748" lon="5.38847">
        <ele>1022</ele>
        <time>2022-09-22T11:05:40.292Z</time>
      </trkpt>
      <trkpt lat="44.93746" lon="5.38845">
        <ele>1022</ele>
        <time>2022-09-22T11:05:41.293Z</time>
      </trkpt>
      <trkpt lat="44.93744" lon="5.38843">
        <ele>1022</ele>
        <time>2022-09-22T11:05:42.293Z</time>
      </trkpt>
      <trkpt lat="44.93742" lon="5.38841">
        <ele>1023</ele>
        <time>2022-09-22T11:05:43.293Z</time>
      </trkpt>
      <trkpt lat="44.93741" lon="5.3884">
        <ele>1022</ele>
        <time>2022-09-22T11:05:44.292Z</time>
      </trkpt>
      <trkpt lat="44.93739" lon="5.38838">
        <ele>1022</ele>
        <time>2022-09-22T11:05:45.293Z</time>
      </trkpt>
      <trkpt lat="44.93737" lon="5.38837">
        <ele>1022</ele>
        <time>2022-09-22T11:05:46.293Z</time>
      </trkpt>
      <trkpt lat="44.93735" lon="5.38835">
        <ele>1022</ele>
        <time>2022-09-22T11:05:47.292Z</time>
      </trkpt>
      <trkpt lat="44.93734" lon="5.38833">
        <ele>1022</ele>
        <time>2022-09-22T11:05:48.293Z</time>
      </trkpt>
      <trkpt lat="44.93731" lon="5.38831">
        <ele>1022</ele>
        <time>2022-09-22T11:05:49.292Z</time>
      </trkpt>
      <trkpt lat="44.93729" lon="5.38829">
        <ele>1022</ele>
        <time>2022-09-22T11:05:50.293Z</time>
      </trkpt>
      <trkpt lat="44.93727" lon="5.38827">
        <ele>1022</ele>
        <time>2022-09-22T11:05:51.293Z</time>
      </trkpt>
      <trkpt lat="44.93726" lon="5.38826">
        <ele>1022</ele>
        <time>2022-09-22T11:05:52.292Z</time>
      </trkpt>
      <trkpt lat="44.93723" lon="5.38824">
        <ele>1022</ele>
        <time>2022-09-22T11:05:53.293Z</time>
      </trkpt>
      <trkpt lat="44.93721" lon="5.38823">
        <ele>1022</ele>
        <time>2022-09-22T11:05:54.292Z</time>
      </trkpt>
      <trkpt lat="44.93719" lon="5.38821">
        <ele>1022</ele>
        <time>2022-09-22T11:05:55.293Z</time>
      </trkpt>
      <trkpt lat="44.93717" lon="5.38819">
        <ele>1022</ele>
        <time>2022-09-22T11:05:56.293Z</time>
      </trkpt>
      <trkpt lat="44.93715" lon="5.38817">
        <ele>1022</ele>
        <time>2022-09-22T11:05:57.293Z</time>
      </trkpt>
      <trkpt lat="44.93713" lon="5.38816">
        <ele>1022</ele>
        <time>2022-09-22T11:05:58.293Z</time>
      </trkpt>
      <trkpt lat="44.93711" lon="5.38814">
        <ele>1021</ele>
        <time>2022-09-22T11:05:59.293Z</time>
      </trkpt>
      <trkpt lat="44.93709" lon="5.38812">
        <ele>1021</ele>
        <time>2022-09-22T11:06:00.293Z</time>
      </trkpt>
      <trkpt lat="44.93708" lon="5.38811">
        <ele>1021</ele>
        <time>2022-09-22T11:06:01.292Z</time>
      </trkpt>
      <trkpt lat="44.93706" lon="5.38809">
        <ele>1021</ele>
        <time>2022-09-22T11:06:02.293Z</time>
      </trkpt>
      <trkpt lat="44.93704" lon="5.38808">
        <ele>1021</ele>
        <time>2022-09-22T11:06:03.293Z</time>
      </trkpt>
      <trkpt lat="44.93702" lon="5.38806">
        <ele>1021</ele>
        <time>2022-09-22T11:06:04.293Z</time>
      </trkpt>
      <trkpt lat="44.93701" lon="5.38805">
        <ele>1021</ele>
        <time>2022-09-22T11:06:05.293Z</time>
      </trkpt>
      <trkpt lat="44.93699" lon="5.38803">
        <ele>1021</ele>
        <time>2022-09-22T11:06:06.293Z</time>
      </trkpt>
      <trkpt lat="44.93697" lon="5.38802">
        <ele>1021</ele>
        <time>2022-09-22T11:06:07.293Z</time>
      </trkpt>
      <trkpt lat="44.93695" lon="5.38801">
        <ele>1022</ele>
        <time>2022-09-22T11:06:08.293Z</time>
      </trkpt>
      <trkpt lat="44.93694" lon="5.38799">
        <ele>1022</ele>
        <time>2022-09-22T11:06:09.293Z</time>
      </trkpt>
      <trkpt lat="44.93693" lon="5.38798">
        <ele>1022</ele>
        <time>2022-09-22T11:06:10.292Z</time>
      </trkpt>
      <trkpt lat="44.93691" lon="5.38796">
        <ele>1021</ele>
        <time>2022-09-22T11:06:11.292Z</time>
      </trkpt>
      <trkpt lat="44.9369" lon="5.38794">
        <ele>1021</ele>
        <time>2022-09-22T11:06:12.293Z</time>
      </trkpt>
      <trkpt lat="44.93688" lon="5.38793">
        <ele>1021</ele>
        <time>2022-09-22T11:06:13.293Z</time>
      </trkpt>
      <trkpt lat="44.93687" lon="5.38791">
        <ele>1021</ele>
        <time>2022-09-22T11:06:14.293Z</time>
      </trkpt>
      <trkpt lat="44.93686" lon="5.38789">
        <ele>1022</ele>
        <time>2022-09-22T11:06:15.292Z</time>
      </trkpt>
      <trkpt lat="44.93685" lon="5.38787">
        <ele>1022</ele>
        <time>2022-09-22T11:06:16.293Z</time>
      </trkpt>
      <trkpt lat="44.93684" lon="5.38784">
        <ele>1022</ele>
        <time>2022-09-22T11:06:17.293Z</time>
      </trkpt>
      <trkpt lat="44.93683" lon="5.38782">
        <ele>1022</ele>
        <time>2022-09-22T11:06:18.293Z</time>
      </trkpt>
      <trkpt lat="44.93682" lon="5.3878">
        <ele>1022</ele>
        <time>2022-09-22T11:06:19.292Z</time>
      </trkpt>
      <trkpt lat="44.93681" lon="5.38778">
        <ele>1022</ele>
        <time>2022-09-22T11:06:20.293Z</time>
      </trkpt>
      <trkpt lat="44.9368" lon="5.38776">
        <ele>1022</ele>
        <time>2022-09-22T11:06:21.292Z</time>
      </trkpt>
      <trkpt lat="44.9368" lon="5.38773">
        <ele>1022</ele>
        <time>2022-09-22T11:06:22.293Z</time>
      </trkpt>
      <trkpt lat="44.93679" lon="5.38771">
        <ele>1022</ele>
        <time>2022-09-22T11:06:23.293Z</time>
      </trkpt>
      <trkpt lat="44.93678" lon="5.38769">
        <ele>1022</ele>
        <time>2022-09-22T11:06:24.293Z</time>
      </trkpt>
      <trkpt lat="44.93678" lon="5.38767">
        <ele>1022</ele>
        <time>2022-09-22T11:06:25.293Z</time>
      </trkpt>
      <trkpt lat="44.93676" lon="5.38765">
        <ele>1022</ele>
        <time>2022-09-22T11:06:26.293Z</time>
      </trkpt>
      <trkpt lat="44.93675" lon="5.38763">
        <ele>1022</ele>
        <time>2022-09-22T11:06:27.293Z</time>
      </trkpt>
      <trkpt lat="44.93674" lon="5.38762">
        <ele>1022</ele>
        <time>2022-09-22T11:06:28.292Z</time>
      </trkpt>
      <trkpt lat="44.93673" lon="5.3876">
        <ele>1023</ele>
        <time>2022-09-22T11:06:29.292Z</time>
      </trkpt>
      <trkpt lat="44.93671" lon="5.38758">
        <ele>1023</ele>
        <time>2022-09-22T11:06:30.293Z</time>
      </trkpt>
      <trkpt lat="44.9367" lon="5.38757">
        <ele>1023</ele>
        <time>2022-09-22T11:06:31.293Z</time>
      </trkpt>
      <trkpt lat="44.93668" lon="5.38755">
        <ele>1023</ele>
        <time>2022-09-22T11:06:32.293Z</time>
      </trkpt>
      <trkpt lat="44.93667" lon="5.38754">
        <ele>1023</ele>
        <time>2022-09-22T11:06:33.292Z</time>
      </trkpt>
      <trkpt lat="44.93666" lon="5.38753">
        <ele>1023</ele>
        <time>2022-09-22T11:06:34.293Z</time>
      </trkpt>
      <trkpt lat="44.93664" lon="5.38752">
        <ele>1023</ele>
        <time>2022-09-22T11:06:35.293Z</time>
      </trkpt>
      <trkpt lat="44.93663" lon="5.38751">
        <ele>1024</ele>
        <time>2022-09-22T11:06:36.292Z</time>
      </trkpt>
      <trkpt lat="44.93661" lon="5.3875">
        <ele>1024</ele>
        <time>2022-09-22T11:06:37.293Z</time>
      </trkpt>
      <trkpt lat="44.93659" lon="5.38749">
        <ele>1025</ele>
        <time>2022-09-22T11:06:38.292Z</time>
      </trkpt>
      <trkpt lat="44.93658" lon="5.38748">
        <ele>1024</ele>
        <time>2022-09-22T11:06:39.292Z</time>
      </trkpt>
      <trkpt lat="44.93656" lon="5.38747">
        <ele>1024</ele>
        <time>2022-09-22T11:06:40.292Z</time>
      </trkpt>
      <trkpt lat="44.93655" lon="5.38747">
        <ele>1024</ele>
        <time>2022-09-22T11:06:41.292Z</time>
      </trkpt>
      <trkpt lat="44.93653" lon="5.38746">
        <ele>1024</ele>
        <time>2022-09-22T11:06:42.292Z</time>
      </trkpt>
      <trkpt lat="44.93651" lon="5.38745">
        <ele>1024</ele>
        <time>2022-09-22T11:06:43.292Z</time>
      </trkpt>
      <trkpt lat="44.9365" lon="5.38744">
        <ele>1024</ele>
        <time>2022-09-22T11:06:44.292Z</time>
      </trkpt>
      <trkpt lat="44.93648" lon="5.38743">
        <ele>1024</ele>
        <time>2022-09-22T11:06:45.293Z</time>
      </trkpt>
      <trkpt lat="44.93646" lon="5.38742">
        <ele>1024</ele>
        <time>2022-09-22T11:06:46.293Z</time>
      </trkpt>
      <trkpt lat="44.93645" lon="5.38741">
        <ele>1024</ele>
        <time>2022-09-22T11:06:47.293Z</time>
      </trkpt>
      <trkpt lat="44.93643" lon="5.38741">
        <ele>1024</ele>
        <time>2022-09-22T11:06:48.292Z</time>
      </trkpt>
      <trkpt lat="44.93642" lon="5.3874">
        <ele>1024</ele>
        <time>2022-09-22T11:06:49.293Z</time>
      </trkpt>
      <trkpt lat="44.9364" lon="5.38739">
        <ele>1025</ele>
        <time>2022-09-22T11:06:50.293Z</time>
      </trkpt>
      <trkpt lat="44.93638" lon="5.38738">
        <ele>1025</ele>
        <time>2022-09-22T11:06:51.293Z</time>
      </trkpt>
      <trkpt lat="44.93637" lon="5.38737">
        <ele>1026</ele>
        <time>2022-09-22T11:06:52.293Z</time>
      </trkpt>
      <trkpt lat="44.93635" lon="5.38737">
        <ele>1026</ele>
        <time>2022-09-22T11:06:53.293Z</time>
      </trkpt>
      <trkpt lat="44.93634" lon="5.38736">
        <ele>1027</ele>
        <time>2022-09-22T11:06:54.293Z</time>
      </trkpt>
      <trkpt lat="44.93632" lon="5.38735">
        <ele>1027</ele>
        <time>2022-09-22T11:06:55.293Z</time>
      </trkpt>
      <trkpt lat="44.93631" lon="5.38735">
        <ele>1027</ele>
        <time>2022-09-22T11:06:56.293Z</time>
      </trkpt>
      <trkpt lat="44.93629" lon="5.38734">
        <ele>1027</ele>
        <time>2022-09-22T11:06:57.293Z</time>
      </trkpt>
      <trkpt lat="44.93628" lon="5.38733">
        <ele>1027</ele>
        <time>2022-09-22T11:06:58.293Z</time>
      </trkpt>
      <trkpt lat="44.93626" lon="5.38732">
        <ele>1027</ele>
        <time>2022-09-22T11:06:59.293Z</time>
      </trkpt>
      <trkpt lat="44.93625" lon="5.38731">
        <ele>1027</ele>
        <time>2022-09-22T11:07:00.293Z</time>
      </trkpt>
      <trkpt lat="44.93623" lon="5.3873">
        <ele>1027</ele>
        <time>2022-09-22T11:07:01.292Z</time>
      </trkpt>
      <trkpt lat="44.93622" lon="5.38729">
        <ele>1027</ele>
        <time>2022-09-22T11:07:02.292Z</time>
      </trkpt>
      <trkpt lat="44.93621" lon="5.38728">
        <ele>1028</ele>
        <time>2022-09-22T11:07:03.292Z</time>
      </trkpt>
      <trkpt lat="44.93619" lon="5.38727">
        <ele>1028</ele>
        <time>2022-09-22T11:07:04.292Z</time>
      </trkpt>
      <trkpt lat="44.93618" lon="5.38726">
        <ele>1029</ele>
        <time>2022-09-22T11:07:05.293Z</time>
      </trkpt>
      <trkpt lat="44.93617" lon="5.38725">
        <ele>1029</ele>
        <time>2022-09-22T11:07:06.293Z</time>
      </trkpt>
      <trkpt lat="44.93615" lon="5.38724">
        <ele>1029</ele>
        <time>2022-09-22T11:07:07.293Z</time>
      </trkpt>
      <trkpt lat="44.93614" lon="5.38722">
        <ele>1029</ele>
        <time>2022-09-22T11:07:08.293Z</time>
      </trkpt>
      <trkpt lat="44.93613" lon="5.38721">
        <ele>1029</ele>
        <time>2022-09-22T11:07:09.292Z</time>
      </trkpt>
      <trkpt lat="44.93611" lon="5.3872">
        <ele>1029</ele>
        <time>2022-09-22T11:07:10.293Z</time>
      </trkpt>
      <trkpt lat="44.93609" lon="5.38719">
        <ele>1029</ele>
        <time>2022-09-22T11:07:11.292Z</time>
      </trkpt>
      <trkpt lat="44.93608" lon="5.38718">
        <ele>1029</ele>
        <time>2022-09-22T11:07:12.293Z</time>
      </trkpt>
      <trkpt lat="44.93606" lon="5.38717">
        <ele>1029</ele>
        <time>2022-09-22T11:07:13.293Z</time>
      </trkpt>
      <trkpt lat="44.93604" lon="5.38716">
        <ele>1029</ele>
        <time>2022-09-22T11:07:14.293Z</time>
      </trkpt>
      <trkpt lat="44.93603" lon="5.38715">
        <ele>1029</ele>
        <time>2022-09-22T11:07:15.293Z</time>
      </trkpt>
      <trkpt lat="44.93601" lon="5.38714">
        <ele>1029</ele>
        <time>2022-09-22T11:07:16.293Z</time>
      </trkpt>
      <trkpt lat="44.936" lon="5.38713">
        <ele>1030</ele>
        <time>2022-09-22T11:07:17.292Z</time>
      </trkpt>
      <trkpt lat="44.93598" lon="5.38712">
        <ele>1029</ele>
        <time>2022-09-22T11:07:18.293Z</time>
      </trkpt>
      <trkpt lat="44.93596" lon="5.38711">
        <ele>1029</ele>
        <time>2022-09-22T11:07:19.292Z</time>
      </trkpt>
      <trkpt lat="44.93595" lon="5.3871">
        <ele>1029</ele>
        <time>2022-09-22T11:07:20.292Z</time>
      </trkpt>
      <trkpt lat="44.93593" lon="5.38709">
        <ele>1028</ele>
        <time>2022-09-22T11:07:21.293Z</time>
      </trkpt>
      <trkpt lat="44.93592" lon="5.38708">
        <ele>1028</ele>
        <time>2022-09-22T11:07:22.293Z</time>
      </trkpt>
      <trkpt lat="44.9359" lon="5.38707">
        <ele>1028</ele>
        <time>2022-09-22T11:07:23.293Z</time>
      </trkpt>
      <trkpt lat="44.93589" lon="5.38706">
        <ele>1028</ele>
        <time>2022-09-22T11:07:24.293Z</time>
      </trkpt>
      <trkpt lat="44.93588" lon="5.38705">
        <ele>1028</ele>
        <time>2022-09-22T11:07:25.293Z</time>
      </trkpt>
      <trkpt lat="44.93587" lon="5.38703">
        <ele>1029</ele>
        <time>2022-09-22T11:07:26.292Z</time>
      </trkpt>
      <trkpt lat="44.93585" lon="5.38702">
        <ele>1029</ele>
        <time>2022-09-22T11:07:27.293Z</time>
      </trkpt>
      <trkpt lat="44.93584" lon="5.387">
        <ele>1029</ele>
        <time>2022-09-22T11:07:28.293Z</time>
      </trkpt>
      <trkpt lat="44.93583" lon="5.38699">
        <ele>1028</ele>
        <time>2022-09-22T11:07:29.293Z</time>
      </trkpt>
      <trkpt lat="44.93582" lon="5.38697">
        <ele>1028</ele>
        <time>2022-09-22T11:07:30.293Z</time>
      </trkpt>
      <trkpt lat="44.93581" lon="5.38696">
        <ele>1029</ele>
        <time>2022-09-22T11:07:31.292Z</time>
      </trkpt>
      <trkpt lat="44.9358" lon="5.38694">
        <ele>1029</ele>
        <time>2022-09-22T11:07:32.292Z</time>
      </trkpt>
      <trkpt lat="44.93579" lon="5.38692">
        <ele>1029</ele>
        <time>2022-09-22T11:07:33.292Z</time>
      </trkpt>
      <trkpt lat="44.93578" lon="5.38691">
        <ele>1029</ele>
        <time>2022-09-22T11:07:34.293Z</time>
      </trkpt>
      <trkpt lat="44.93577" lon="5.38689">
        <ele>1030</ele>
        <time>2022-09-22T11:07:35.293Z</time>
      </trkpt>
      <trkpt lat="44.93575" lon="5.38688">
        <ele>1030</ele>
        <time>2022-09-22T11:07:36.293Z</time>
      </trkpt>
      <trkpt lat="44.93574" lon="5.38686">
        <ele>1030</ele>
        <time>2022-09-22T11:07:37.293Z</time>
      </trkpt>
      <trkpt lat="44.93573" lon="5.38685">
        <ele>1030</ele>
        <time>2022-09-22T11:07:38.293Z</time>
      </trkpt>
      <trkpt lat="44.93572" lon="5.38683">
        <ele>1031</ele>
        <time>2022-09-22T11:07:39.293Z</time>
      </trkpt>
      <trkpt lat="44.93571" lon="5.38682">
        <ele>1031</ele>
        <time>2022-09-22T11:07:40.293Z</time>
      </trkpt>
      <trkpt lat="44.9357" lon="5.3868">
        <ele>1032</ele>
        <time>2022-09-22T11:07:41.293Z</time>
      </trkpt>
      <trkpt lat="44.93569" lon="5.38679">
        <ele>1032</ele>
        <time>2022-09-22T11:07:42.293Z</time>
      </trkpt>
      <trkpt lat="44.93568" lon="5.38677">
        <ele>1033</ele>
        <time>2022-09-22T11:07:43.292Z</time>
      </trkpt>
      <trkpt lat="44.93567" lon="5.38675">
        <ele>1033</ele>
        <time>2022-09-22T11:07:44.292Z</time>
      </trkpt>
      <trkpt lat="44.93567" lon="5.38674">
        <ele>1033</ele>
        <time>2022-09-22T11:07:45.293Z</time>
      </trkpt>
      <trkpt lat="44.93566" lon="5.38672">
        <ele>1033</ele>
        <time>2022-09-22T11:07:46.293Z</time>
      </trkpt>
      <trkpt lat="44.93565" lon="5.3867">
        <ele>1034</ele>
        <time>2022-09-22T11:07:47.293Z</time>
      </trkpt>
      <trkpt lat="44.93565" lon="5.38668">
        <ele>1034</ele>
        <time>2022-09-22T11:07:48.293Z</time>
      </trkpt>
      <trkpt lat="44.93564" lon="5.38666">
        <ele>1034</ele>
        <time>2022-09-22T11:07:49.293Z</time>
      </trkpt>
      <trkpt lat="44.93563" lon="5.38664">
        <ele>1034</ele>
        <time>2022-09-22T11:07:50.292Z</time>
      </trkpt>
      <trkpt lat="44.93563" lon="5.38662">
        <ele>1035</ele>
        <time>2022-09-22T11:07:51.292Z</time>
      </trkpt>
      <trkpt lat="44.93562" lon="5.38661">
        <ele>1035</ele>
        <time>2022-09-22T11:07:52.292Z</time>
      </trkpt>
      <trkpt lat="44.93561" lon="5.38659">
        <ele>1035</ele>
        <time>2022-09-22T11:07:53.293Z</time>
      </trkpt>
      <trkpt lat="44.9356" lon="5.38658">
        <ele>1035</ele>
        <time>2022-09-22T11:07:54.293Z</time>
      </trkpt>
      <trkpt lat="44.93559" lon="5.38656">
        <ele>1035</ele>
        <time>2022-09-22T11:07:55.293Z</time>
      </trkpt>
      <trkpt lat="44.93558" lon="5.38654">
        <ele>1036</ele>
        <time>2022-09-22T11:07:56.293Z</time>
      </trkpt>
      <trkpt lat="44.93556" lon="5.38653">
        <ele>1036</ele>
        <time>2022-09-22T11:07:57.293Z</time>
      </trkpt>
      <trkpt lat="44.93555" lon="5.38651">
        <ele>1036</ele>
        <time>2022-09-22T11:07:58.292Z</time>
      </trkpt>
      <trkpt lat="44.93554" lon="5.3865">
        <ele>1036</ele>
        <time>2022-09-22T11:07:59.293Z</time>
      </trkpt>
      <trkpt lat="44.93553" lon="5.38649">
        <ele>1036</ele>
        <time>2022-09-22T11:08:00.293Z</time>
      </trkpt>
      <trkpt lat="44.93552" lon="5.38647">
        <ele>1036</ele>
        <time>2022-09-22T11:08:01.293Z</time>
      </trkpt>
      <trkpt lat="44.93551" lon="5.38646">
        <ele>1036</ele>
        <time>2022-09-22T11:08:02.292Z</time>
      </trkpt>
      <trkpt lat="44.9355" lon="5.38644">
        <ele>1036</ele>
        <time>2022-09-22T11:08:03.293Z</time>
      </trkpt>
      <trkpt lat="44.93549" lon="5.38643">
        <ele>1036</ele>
        <time>2022-09-22T11:08:04.293Z</time>
      </trkpt>
      <trkpt lat="44.93547" lon="5.38642">
        <ele>1036</ele>
        <time>2022-09-22T11:08:05.293Z</time>
      </trkpt>
      <trkpt lat="44.93546" lon="5.3864">
        <ele>1036</ele>
        <time>2022-09-22T11:08:06.292Z</time>
      </trkpt>
      <trkpt lat="44.93545" lon="5.38639">
        <ele>1036</ele>
        <time>2022-09-22T11:08:07.293Z</time>
      </trkpt>
      <trkpt lat="44.93544" lon="5.38638">
        <ele>1037</ele>
        <time>2022-09-22T11:08:08.293Z</time>
      </trkpt>
      <trkpt lat="44.93542" lon="5.38637">
        <ele>1037</ele>
        <time>2022-09-22T11:08:09.292Z</time>
      </trkpt>
      <trkpt lat="44.93541" lon="5.38636">
        <ele>1037</ele>
        <time>2022-09-22T11:08:10.293Z</time>
      </trkpt>
      <trkpt lat="44.9354" lon="5.38635">
        <ele>1038</ele>
        <time>2022-09-22T11:08:11.293Z</time>
      </trkpt>
      <trkpt lat="44.93538" lon="5.38635">
        <ele>1038</ele>
        <time>2022-09-22T11:08:12.293Z</time>
      </trkpt>
      <trkpt lat="44.93537" lon="5.38634">
        <ele>1038</ele>
        <time>2022-09-22T11:08:13.293Z</time>
      </trkpt>
      <trkpt lat="44.93536" lon="5.38633">
        <ele>1038</ele>
        <time>2022-09-22T11:08:14.293Z</time>
      </trkpt>
      <trkpt lat="44.93535" lon="5.38632">
        <ele>1038</ele>
        <time>2022-09-22T11:08:15.292Z</time>
      </trkpt>
      <trkpt lat="44.93534" lon="5.38631">
        <ele>1039</ele>
        <time>2022-09-22T11:08:16.293Z</time>
      </trkpt>
      <trkpt lat="44.93533" lon="5.3863">
        <ele>1039</ele>
        <time>2022-09-22T11:08:17.293Z</time>
      </trkpt>
      <trkpt lat="44.93532" lon="5.3863">
        <ele>1040</ele>
        <time>2022-09-22T11:08:18.293Z</time>
      </trkpt>
      <trkpt lat="44.9353" lon="5.38629">
        <ele>1041</ele>
        <time>2022-09-22T11:08:19.292Z</time>
      </trkpt>
      <trkpt lat="44.93529" lon="5.38627">
        <ele>1042</ele>
        <time>2022-09-22T11:08:20.293Z</time>
      </trkpt>
      <trkpt lat="44.93528" lon="5.38627">
        <ele>1042</ele>
        <time>2022-09-22T11:08:21.293Z</time>
      </trkpt>
      <trkpt lat="44.93526" lon="5.38626">
        <ele>1042</ele>
        <time>2022-09-22T11:08:22.293Z</time>
      </trkpt>
      <trkpt lat="44.93525" lon="5.38625">
        <ele>1042</ele>
        <time>2022-09-22T11:08:23.293Z</time>
      </trkpt>
      <trkpt lat="44.93524" lon="5.38624">
        <ele>1042</ele>
        <time>2022-09-22T11:08:24.293Z</time>
      </trkpt>
      <trkpt lat="44.93523" lon="5.38623">
        <ele>1042</ele>
        <time>2022-09-22T11:08:25.292Z</time>
      </trkpt>
      <trkpt lat="44.93522" lon="5.38621">
        <ele>1042</ele>
        <time>2022-09-22T11:08:26.292Z</time>
      </trkpt>
      <trkpt lat="44.9352" lon="5.3862">
        <ele>1042</ele>
        <time>2022-09-22T11:08:27.293Z</time>
      </trkpt>
      <trkpt lat="44.93519" lon="5.38619">
        <ele>1042</ele>
        <time>2022-09-22T11:08:28.293Z</time>
      </trkpt>
      <trkpt lat="44.93518" lon="5.38618">
        <ele>1042</ele>
        <time>2022-09-22T11:08:29.293Z</time>
      </trkpt>
      <trkpt lat="44.93517" lon="5.38617">
        <ele>1042</ele>
        <time>2022-09-22T11:08:30.293Z</time>
      </trkpt>
      <trkpt lat="44.93515" lon="5.38616">
        <ele>1041</ele>
        <time>2022-09-22T11:08:31.292Z</time>
      </trkpt>
      <trkpt lat="44.93514" lon="5.38615">
        <ele>1041</ele>
        <time>2022-09-22T11:08:32.293Z</time>
      </trkpt>
      <trkpt lat="44.93513" lon="5.38614">
        <ele>1042</ele>
        <time>2022-09-22T11:08:33.293Z</time>
      </trkpt>
      <trkpt lat="44.93512" lon="5.38613">
        <ele>1042</ele>
        <time>2022-09-22T11:08:34.293Z</time>
      </trkpt>
      <trkpt lat="44.9351" lon="5.38612">
        <ele>1042</ele>
        <time>2022-09-22T11:08:35.293Z</time>
      </trkpt>
      <trkpt lat="44.93509" lon="5.3861">
        <ele>1042</ele>
        <time>2022-09-22T11:08:36.293Z</time>
      </trkpt>
      <trkpt lat="44.93508" lon="5.38609">
        <ele>1043</ele>
        <time>2022-09-22T11:08:37.292Z</time>
      </trkpt>
      <trkpt lat="44.93507" lon="5.38608">
        <ele>1043</ele>
        <time>2022-09-22T11:08:38.293Z</time>
      </trkpt>
      <trkpt lat="44.93505" lon="5.38607">
        <ele>1043</ele>
        <time>2022-09-22T11:08:39.292Z</time>
      </trkpt>
      <trkpt lat="44.93504" lon="5.38606">
        <ele>1043</ele>
        <time>2022-09-22T11:08:40.293Z</time>
      </trkpt>
      <trkpt lat="44.93503" lon="5.38605">
        <ele>1043</ele>
        <time>2022-09-22T11:08:41.293Z</time>
      </trkpt>
      <trkpt lat="44.93501" lon="5.38605">
        <ele>1043</ele>
        <time>2022-09-22T11:08:42.292Z</time>
      </trkpt>
      <trkpt lat="44.935" lon="5.38605">
        <ele>1043</ele>
        <time>2022-09-22T11:08:43.293Z</time>
      </trkpt>
      <trkpt lat="44.93499" lon="5.38604">
        <ele>1043</ele>
        <time>2022-09-22T11:08:44.292Z</time>
      </trkpt>
      <trkpt lat="44.93498" lon="5.38604">
        <ele>1043</ele>
        <time>2022-09-22T11:08:45.292Z</time>
      </trkpt>
      <trkpt lat="44.93497" lon="5.38604">
        <ele>1044</ele>
        <time>2022-09-22T11:08:46.293Z</time>
      </trkpt>
      <trkpt lat="44.93496" lon="5.38605">
        <ele>1044</ele>
        <time>2022-09-22T11:08:47.293Z</time>
      </trkpt>
      <trkpt lat="44.93495" lon="5.38606">
        <ele>1044</ele>
        <time>2022-09-22T11:08:48.292Z</time>
      </trkpt>
      <trkpt lat="44.93493" lon="5.38606">
        <ele>1044</ele>
        <time>2022-09-22T11:08:49.292Z</time>
      </trkpt>
      <trkpt lat="44.93492" lon="5.38607">
        <ele>1045</ele>
        <time>2022-09-22T11:08:50.293Z</time>
      </trkpt>
      <trkpt lat="44.9349" lon="5.38607">
        <ele>1045</ele>
        <time>2022-09-22T11:08:51.293Z</time>
      </trkpt>
      <trkpt lat="44.93489" lon="5.38608">
        <ele>1045</ele>
        <time>2022-09-22T11:08:52.293Z</time>
      </trkpt>
      <trkpt lat="44.93487" lon="5.38608">
        <ele>1045</ele>
        <time>2022-09-22T11:08:53.293Z</time>
      </trkpt>
      <trkpt lat="44.93486" lon="5.38607">
        <ele>1045</ele>
        <time>2022-09-22T11:08:54.293Z</time>
      </trkpt>
      <trkpt lat="44.93485" lon="5.38605">
        <ele>1045</ele>
        <time>2022-09-22T11:08:55.292Z</time>
      </trkpt>
      <trkpt lat="44.93484" lon="5.38603">
        <ele>1045</ele>
        <time>2022-09-22T11:08:56.292Z</time>
      </trkpt>
      <trkpt lat="44.93484" lon="5.38601">
        <ele>1045</ele>
        <time>2022-09-22T11:08:57.293Z</time>
      </trkpt>
      <trkpt lat="44.93484" lon="5.38599">
        <ele>1045</ele>
        <time>2022-09-22T11:08:58.293Z</time>
      </trkpt>
      <trkpt lat="44.93485" lon="5.38597">
        <ele>1045</ele>
        <time>2022-09-22T11:08:59.293Z</time>
      </trkpt>
      <trkpt lat="44.93485" lon="5.38595">
        <ele>1045</ele>
        <time>2022-09-22T11:09:00.292Z</time>
      </trkpt>
      <trkpt lat="44.93486" lon="5.38593">
        <ele>1045</ele>
        <time>2022-09-22T11:09:01.293Z</time>
      </trkpt>
      <trkpt lat="44.93486" lon="5.38591">
        <ele>1045</ele>
        <time>2022-09-22T11:09:02.293Z</time>
      </trkpt>
      <trkpt lat="44.93487" lon="5.38589">
        <ele>1045</ele>
        <time>2022-09-22T11:09:03.293Z</time>
      </trkpt>
      <trkpt lat="44.93488" lon="5.38587">
        <ele>1046</ele>
        <time>2022-09-22T11:09:04.292Z</time>
      </trkpt>
      <trkpt lat="44.93489" lon="5.38586">
        <ele>1047</ele>
        <time>2022-09-22T11:09:05.293Z</time>
      </trkpt>
      <trkpt lat="44.93489" lon="5.38584">
        <ele>1047</ele>
        <time>2022-09-22T11:09:06.292Z</time>
      </trkpt>
      <trkpt lat="44.9349" lon="5.38582">
        <ele>1048</ele>
        <time>2022-09-22T11:09:07.292Z</time>
      </trkpt>
      <trkpt lat="44.9349" lon="5.3858">
        <ele>1048</ele>
        <time>2022-09-22T11:09:08.292Z</time>
      </trkpt>
      <trkpt lat="44.9349" lon="5.38578">
        <ele>1048</ele>
        <time>2022-09-22T11:09:09.293Z</time>
      </trkpt>
      <trkpt lat="44.9349" lon="5.38576">
        <ele>1049</ele>
        <time>2022-09-22T11:09:10.293Z</time>
      </trkpt>
      <trkpt lat="44.9349" lon="5.38574">
        <ele>1049</ele>
        <time>2022-09-22T11:09:11.293Z</time>
      </trkpt>
      <trkpt lat="44.93489" lon="5.38572">
        <ele>1050</ele>
        <time>2022-09-22T11:09:12.293Z</time>
      </trkpt>
      <trkpt lat="44.93489" lon="5.3857">
        <ele>1050</ele>
        <time>2022-09-22T11:09:13.293Z</time>
      </trkpt>
      <trkpt lat="44.93489" lon="5.38568">
        <ele>1050</ele>
        <time>2022-09-22T11:09:14.293Z</time>
      </trkpt>
      <trkpt lat="44.93489" lon="5.38565">
        <ele>1050</ele>
        <time>2022-09-22T11:09:15.293Z</time>
      </trkpt>
      <trkpt lat="44.93489" lon="5.38563">
        <ele>1050</ele>
        <time>2022-09-22T11:09:16.293Z</time>
      </trkpt>
      <trkpt lat="44.93488" lon="5.3856">
        <ele>1050</ele>
        <time>2022-09-22T11:09:17.293Z</time>
      </trkpt>
      <trkpt lat="44.93488" lon="5.38558">
        <ele>1050</ele>
        <time>2022-09-22T11:09:18.292Z</time>
      </trkpt>
      <trkpt lat="44.93487" lon="5.38556">
        <ele>1051</ele>
        <time>2022-09-22T11:09:19.293Z</time>
      </trkpt>
      <trkpt lat="44.93487" lon="5.38554">
        <ele>1051</ele>
        <time>2022-09-22T11:09:20.292Z</time>
      </trkpt>
      <trkpt lat="44.93486" lon="5.38553">
        <ele>1051</ele>
        <time>2022-09-22T11:09:21.293Z</time>
      </trkpt>
      <trkpt lat="44.93486" lon="5.38553">
        <ele>1051</ele>
        <time>2022-09-22T11:09:22.293Z</time>
      </trkpt>
      <trkpt lat="44.93486" lon="5.38553">
        <ele>1052</ele>
        <time>2022-09-22T11:09:23.292Z</time>
      </trkpt>
      <trkpt lat="44.93486" lon="5.38554">
        <ele>1052</ele>
        <time>2022-09-22T11:09:24.293Z</time>
      </trkpt>
      <trkpt lat="44.93486" lon="5.38556">
        <ele>1053</ele>
        <time>2022-09-22T11:09:25.293Z</time>
      </trkpt>
      <trkpt lat="44.93487" lon="5.38559">
        <ele>1052</ele>
        <time>2022-09-22T11:09:26.293Z</time>
      </trkpt>
      <trkpt lat="44.93487" lon="5.38562">
        <ele>1052</ele>
        <time>2022-09-22T11:09:27.293Z</time>
      </trkpt>
      <trkpt lat="44.93488" lon="5.38566">
        <ele>1052</ele>
        <time>2022-09-22T11:09:28.293Z</time>
      </trkpt>
      <trkpt lat="44.93488" lon="5.3857">
        <ele>1051</ele>
        <time>2022-09-22T11:09:29.293Z</time>
      </trkpt>
      <trkpt lat="44.93489" lon="5.38573">
        <ele>1051</ele>
        <time>2022-09-22T11:09:30.293Z</time>
      </trkpt>
      <trkpt lat="44.93489" lon="5.38576">
        <ele>1051</ele>
        <time>2022-09-22T11:09:31.293Z</time>
      </trkpt>
      <trkpt lat="44.93488" lon="5.3858">
        <ele>1051</ele>
        <time>2022-09-22T11:09:32.292Z</time>
      </trkpt>
      <trkpt lat="44.93488" lon="5.38582">
        <ele>1051</ele>
        <time>2022-09-22T11:09:33.293Z</time>
      </trkpt>
      <trkpt lat="44.93487" lon="5.38585">
        <ele>1051</ele>
        <time>2022-09-22T11:09:34.293Z</time>
      </trkpt>
      <trkpt lat="44.93487" lon="5.38588">
        <ele>1052</ele>
        <time>2022-09-22T11:09:35.293Z</time>
      </trkpt>
      <trkpt lat="44.93486" lon="5.3859">
        <ele>1052</ele>
        <time>2022-09-22T11:09:36.292Z</time>
      </trkpt>
      <trkpt lat="44.93485" lon="5.38592">
        <ele>1052</ele>
        <time>2022-09-22T11:09:37.292Z</time>
      </trkpt>
      <trkpt lat="44.93484" lon="5.38594">
        <ele>1052</ele>
        <time>2022-09-22T11:09:38.292Z</time>
      </trkpt>
      <trkpt lat="44.93483" lon="5.38596">
        <ele>1052</ele>
        <time>2022-09-22T11:09:39.293Z</time>
      </trkpt>
      <trkpt lat="44.93482" lon="5.38597">
        <ele>1051</ele>
        <time>2022-09-22T11:09:40.292Z</time>
      </trkpt>
      <trkpt lat="44.9348" lon="5.38598">
        <ele>1051</ele>
        <time>2022-09-22T11:09:41.293Z</time>
      </trkpt>
      <trkpt lat="44.93479" lon="5.38599">
        <ele>1050</ele>
        <time>2022-09-22T11:09:42.293Z</time>
      </trkpt>
      <trkpt lat="44.93478" lon="5.38599">
        <ele>1050</ele>
        <time>2022-09-22T11:09:43.292Z</time>
      </trkpt>
      <trkpt lat="44.93476" lon="5.386">
        <ele>1049</ele>
        <time>2022-09-22T11:09:44.293Z</time>
      </trkpt>
      <trkpt lat="44.93475" lon="5.38601">
        <ele>1049</ele>
        <time>2022-09-22T11:09:45.293Z</time>
      </trkpt>
      <trkpt lat="44.93474" lon="5.38602">
        <ele>1048</ele>
        <time>2022-09-22T11:09:46.293Z</time>
      </trkpt>
      <trkpt lat="44.93473" lon="5.38603">
        <ele>1047</ele>
        <time>2022-09-22T11:09:47.293Z</time>
      </trkpt>
      <trkpt lat="44.93472" lon="5.38604">
        <ele>1047</ele>
        <time>2022-09-22T11:09:48.293Z</time>
      </trkpt>
      <trkpt lat="44.93472" lon="5.38605">
        <ele>1047</ele>
        <time>2022-09-22T11:09:49.293Z</time>
      </trkpt>
      <trkpt lat="44.93471" lon="5.38607">
        <ele>1047</ele>
        <time>2022-09-22T11:09:50.293Z</time>
      </trkpt>
      <trkpt lat="44.9347" lon="5.38608">
        <ele>1047</ele>
        <time>2022-09-22T11:09:51.293Z</time>
      </trkpt>
      <trkpt lat="44.93469" lon="5.38609">
        <ele>1047</ele>
        <time>2022-09-22T11:09:52.292Z</time>
      </trkpt>
      <trkpt lat="44.93468" lon="5.38609">
        <ele>1047</ele>
        <time>2022-09-22T11:09:53.292Z</time>
      </trkpt>
      <trkpt lat="44.93467" lon="5.3861">
        <ele>1048</ele>
        <time>2022-09-22T11:09:54.293Z</time>
      </trkpt>
      <trkpt lat="44.93466" lon="5.38611">
        <ele>1048</ele>
        <time>2022-09-22T11:09:55.293Z</time>
      </trkpt>
      <trkpt lat="44.93465" lon="5.38612">
        <ele>1048</ele>
        <time>2022-09-22T11:09:56.293Z</time>
      </trkpt>
      <trkpt lat="44.93463" lon="5.38613">
        <ele>1048</ele>
        <time>2022-09-22T11:09:57.292Z</time>
      </trkpt>
      <trkpt lat="44.93462" lon="5.38614">
        <ele>1048</ele>
        <time>2022-09-22T11:09:58.292Z</time>
      </trkpt>
      <trkpt lat="44.93461" lon="5.38614">
        <ele>1048</ele>
        <time>2022-09-22T11:09:59.292Z</time>
      </trkpt>
      <trkpt lat="44.93459" lon="5.38615">
        <ele>1048</ele>
        <time>2022-09-22T11:10:00.293Z</time>
      </trkpt>
      <trkpt lat="44.93458" lon="5.38615">
        <ele>1049</ele>
        <time>2022-09-22T11:10:01.293Z</time>
      </trkpt>
      <trkpt lat="44.93456" lon="5.38616">
        <ele>1049</ele>
        <time>2022-09-22T11:10:02.292Z</time>
      </trkpt>
      <trkpt lat="44.93455" lon="5.38616">
        <ele>1050</ele>
        <time>2022-09-22T11:10:03.292Z</time>
      </trkpt>
      <trkpt lat="44.93454" lon="5.38616">
        <ele>1050</ele>
        <time>2022-09-22T11:10:04.292Z</time>
      </trkpt>
      <trkpt lat="44.93452" lon="5.38617">
        <ele>1050</ele>
        <time>2022-09-22T11:10:05.293Z</time>
      </trkpt>
      <trkpt lat="44.93451" lon="5.38618">
        <ele>1050</ele>
        <time>2022-09-22T11:10:06.293Z</time>
      </trkpt>
      <trkpt lat="44.93449" lon="5.38618">
        <ele>1051</ele>
        <time>2022-09-22T11:10:07.293Z</time>
      </trkpt>
      <trkpt lat="44.93448" lon="5.38619">
        <ele>1051</ele>
        <time>2022-09-22T11:10:08.293Z</time>
      </trkpt>
      <trkpt lat="44.93446" lon="5.38619">
        <ele>1051</ele>
        <time>2022-09-22T11:10:09.293Z</time>
      </trkpt>
      <trkpt lat="44.93445" lon="5.3862">
        <ele>1051</ele>
        <time>2022-09-22T11:10:10.293Z</time>
      </trkpt>
      <trkpt lat="44.93443" lon="5.3862">
        <ele>1051</ele>
        <time>2022-09-22T11:10:11.293Z</time>
      </trkpt>
      <trkpt lat="44.93442" lon="5.38619">
        <ele>1051</ele>
        <time>2022-09-22T11:10:12.293Z</time>
      </trkpt>
      <trkpt lat="44.93441" lon="5.38619">
        <ele>1051</ele>
        <time>2022-09-22T11:10:13.293Z</time>
      </trkpt>
      <trkpt lat="44.9344" lon="5.38618">
        <ele>1050</ele>
        <time>2022-09-22T11:10:14.293Z</time>
      </trkpt>
      <trkpt lat="44.93439" lon="5.38618">
        <ele>1050</ele>
        <time>2022-09-22T11:10:15.293Z</time>
      </trkpt>
      <trkpt lat="44.93437" lon="5.38617">
        <ele>1050</ele>
        <time>2022-09-22T11:10:16.293Z</time>
      </trkpt>
      <trkpt lat="44.93436" lon="5.38617">
        <ele>1050</ele>
        <time>2022-09-22T11:10:17.293Z</time>
      </trkpt>
      <trkpt lat="44.93435" lon="5.38616">
        <ele>1050</ele>
        <time>2022-09-22T11:10:18.293Z</time>
      </trkpt>
      <trkpt lat="44.93434" lon="5.38616">
        <ele>1050</ele>
        <time>2022-09-22T11:10:19.292Z</time>
      </trkpt>
      <trkpt lat="44.93432" lon="5.38615">
        <ele>1050</ele>
        <time>2022-09-22T11:10:20.292Z</time>
      </trkpt>
      <trkpt lat="44.93431" lon="5.38615">
        <ele>1050</ele>
        <time>2022-09-22T11:10:21.293Z</time>
      </trkpt>
      <trkpt lat="44.9343" lon="5.38614">
        <ele>1051</ele>
        <time>2022-09-22T11:10:22.292Z</time>
      </trkpt>
      <trkpt lat="44.93429" lon="5.38613">
        <ele>1051</ele>
        <time>2022-09-22T11:10:23.292Z</time>
      </trkpt>
      <trkpt lat="44.93427" lon="5.38612">
        <ele>1052</ele>
        <time>2022-09-22T11:10:24.293Z</time>
      </trkpt>
      <trkpt lat="44.93426" lon="5.38611">
        <ele>1052</ele>
        <time>2022-09-22T11:10:25.293Z</time>
      </trkpt>
      <trkpt lat="44.93425" lon="5.3861">
        <ele>1053</ele>
        <time>2022-09-22T11:10:26.292Z</time>
      </trkpt>
      <trkpt lat="44.93423" lon="5.38609">
        <ele>1054</ele>
        <time>2022-09-22T11:10:27.292Z</time>
      </trkpt>
      <trkpt lat="44.93422" lon="5.38608">
        <ele>1054</ele>
        <time>2022-09-22T11:10:28.293Z</time>
      </trkpt>
      <trkpt lat="44.93421" lon="5.38607">
        <ele>1054</ele>
        <time>2022-09-22T11:10:29.293Z</time>
      </trkpt>
      <trkpt lat="44.93419" lon="5.38606">
        <ele>1054</ele>
        <time>2022-09-22T11:10:30.293Z</time>
      </trkpt>
      <trkpt lat="44.93418" lon="5.38605">
        <ele>1054</ele>
        <time>2022-09-22T11:10:31.292Z</time>
      </trkpt>
      <trkpt lat="44.93417" lon="5.38605">
        <ele>1054</ele>
        <time>2022-09-22T11:10:32.293Z</time>
      </trkpt>
      <trkpt lat="44.93416" lon="5.38604">
        <ele>1054</ele>
        <time>2022-09-22T11:10:33.293Z</time>
      </trkpt>
      <trkpt lat="44.93414" lon="5.38603">
        <ele>1054</ele>
        <time>2022-09-22T11:10:34.292Z</time>
      </trkpt>
      <trkpt lat="44.93413" lon="5.38603">
        <ele>1054</ele>
        <time>2022-09-22T11:10:35.292Z</time>
      </trkpt>
      <trkpt lat="44.93411" lon="5.38603">
        <ele>1054</ele>
        <time>2022-09-22T11:10:36.293Z</time>
      </trkpt>
      <trkpt lat="44.9341" lon="5.38602">
        <ele>1054</ele>
        <time>2022-09-22T11:10:37.292Z</time>
      </trkpt>
      <trkpt lat="44.93408" lon="5.38602">
        <ele>1054</ele>
        <time>2022-09-22T11:10:38.292Z</time>
      </trkpt>
      <trkpt lat="44.93407" lon="5.38601">
        <ele>1055</ele>
        <time>2022-09-22T11:10:39.292Z</time>
      </trkpt>
      <trkpt lat="44.93406" lon="5.38601">
        <ele>1055</ele>
        <time>2022-09-22T11:10:40.292Z</time>
      </trkpt>
      <trkpt lat="44.93404" lon="5.386">
        <ele>1055</ele>
        <time>2022-09-22T11:10:41.293Z</time>
      </trkpt>
      <trkpt lat="44.93403" lon="5.386">
        <ele>1056</ele>
        <time>2022-09-22T11:10:42.292Z</time>
      </trkpt>
      <trkpt lat="44.93401" lon="5.38599">
        <ele>1056</ele>
        <time>2022-09-22T11:10:43.293Z</time>
      </trkpt>
      <trkpt lat="44.93399" lon="5.38599">
        <ele>1056</ele>
        <time>2022-09-22T11:10:44.293Z</time>
      </trkpt>
      <trkpt lat="44.93398" lon="5.38598">
        <ele>1056</ele>
        <time>2022-09-22T11:10:45.293Z</time>
      </trkpt>
      <trkpt lat="44.93397" lon="5.38597">
        <ele>1056</ele>
        <time>2022-09-22T11:10:46.292Z</time>
      </trkpt>
      <trkpt lat="44.93395" lon="5.38596">
        <ele>1056</ele>
        <time>2022-09-22T11:10:47.293Z</time>
      </trkpt>
      <trkpt lat="44.93394" lon="5.38595">
        <ele>1056</ele>
        <time>2022-09-22T11:10:48.293Z</time>
      </trkpt>
      <trkpt lat="44.93393" lon="5.38594">
        <ele>1056</ele>
        <time>2022-09-22T11:10:49.293Z</time>
      </trkpt>
      <trkpt lat="44.93392" lon="5.38594">
        <ele>1056</ele>
        <time>2022-09-22T11:10:50.293Z</time>
      </trkpt>
      <trkpt lat="44.9339" lon="5.38592">
        <ele>1056</ele>
        <time>2022-09-22T11:10:51.292Z</time>
      </trkpt>
      <trkpt lat="44.93389" lon="5.38591">
        <ele>1056</ele>
        <time>2022-09-22T11:10:52.292Z</time>
      </trkpt>
      <trkpt lat="44.93388" lon="5.38591">
        <ele>1057</ele>
        <time>2022-09-22T11:10:53.293Z</time>
      </trkpt>
      <trkpt lat="44.93386" lon="5.3859">
        <ele>1057</ele>
        <time>2022-09-22T11:10:54.293Z</time>
      </trkpt>
      <trkpt lat="44.93385" lon="5.38589">
        <ele>1057</ele>
        <time>2022-09-22T11:10:55.292Z</time>
      </trkpt>
      <trkpt lat="44.93384" lon="5.38588">
        <ele>1058</ele>
        <time>2022-09-22T11:10:56.292Z</time>
      </trkpt>
      <trkpt lat="44.93382" lon="5.38588">
        <ele>1058</ele>
        <time>2022-09-22T11:10:57.292Z</time>
      </trkpt>
      <trkpt lat="44.93381" lon="5.38587">
        <ele>1059</ele>
        <time>2022-09-22T11:10:58.293Z</time>
      </trkpt>
      <trkpt lat="44.9338" lon="5.38586">
        <ele>1060</ele>
        <time>2022-09-22T11:10:59.293Z</time>
      </trkpt>
      <trkpt lat="44.93378" lon="5.38586">
        <ele>1060</ele>
        <time>2022-09-22T11:11:00.293Z</time>
      </trkpt>
      <trkpt lat="44.93377" lon="5.38585">
        <ele>1060</ele>
        <time>2022-09-22T11:11:01.293Z</time>
      </trkpt>
      <trkpt lat="44.93375" lon="5.38585">
        <ele>1061</ele>
        <time>2022-09-22T11:11:02.293Z</time>
      </trkpt>
      <trkpt lat="44.93374" lon="5.38585">
        <ele>1061</ele>
        <time>2022-09-22T11:11:03.293Z</time>
      </trkpt>
      <trkpt lat="44.93372" lon="5.38584">
        <ele>1061</ele>
        <time>2022-09-22T11:11:04.293Z</time>
      </trkpt>
      <trkpt lat="44.93371" lon="5.38584">
        <ele>1060</ele>
        <time>2022-09-22T11:11:05.293Z</time>
      </trkpt>
      <trkpt lat="44.93369" lon="5.38583">
        <ele>1060</ele>
        <time>2022-09-22T11:11:06.293Z</time>
      </trkpt>
      <trkpt lat="44.93368" lon="5.38583">
        <ele>1060</ele>
        <time>2022-09-22T11:11:07.293Z</time>
      </trkpt>
      <trkpt lat="44.93367" lon="5.38582">
        <ele>1060</ele>
        <time>2022-09-22T11:11:08.293Z</time>
      </trkpt>
      <trkpt lat="44.93365" lon="5.38582">
        <ele>1060</ele>
        <time>2022-09-22T11:11:09.293Z</time>
      </trkpt>
      <trkpt lat="44.93364" lon="5.38582">
        <ele>1060</ele>
        <time>2022-09-22T11:11:10.293Z</time>
      </trkpt>
      <trkpt lat="44.93363" lon="5.38581">
        <ele>1060</ele>
        <time>2022-09-22T11:11:11.293Z</time>
      </trkpt>
      <trkpt lat="44.93361" lon="5.3858">
        <ele>1061</ele>
        <time>2022-09-22T11:11:12.293Z</time>
      </trkpt>
      <trkpt lat="44.9336" lon="5.38579">
        <ele>1061</ele>
        <time>2022-09-22T11:11:13.292Z</time>
      </trkpt>
      <trkpt lat="44.93359" lon="5.38578">
        <ele>1062</ele>
        <time>2022-09-22T11:11:14.292Z</time>
      </trkpt>
      <trkpt lat="44.93357" lon="5.38578">
        <ele>1062</ele>
        <time>2022-09-22T11:11:15.292Z</time>
      </trkpt>
      <trkpt lat="44.93356" lon="5.38577">
        <ele>1062</ele>
        <time>2022-09-22T11:11:16.293Z</time>
      </trkpt>
      <trkpt lat="44.93354" lon="5.38576">
        <ele>1062</ele>
        <time>2022-09-22T11:11:17.292Z</time>
      </trkpt>
      <trkpt lat="44.93353" lon="5.38575">
        <ele>1062</ele>
        <time>2022-09-22T11:11:18.292Z</time>
      </trkpt>
      <trkpt lat="44.93352" lon="5.38574">
        <ele>1063</ele>
        <time>2022-09-22T11:11:19.292Z</time>
      </trkpt>
      <trkpt lat="44.93351" lon="5.38573">
        <ele>1062</ele>
        <time>2022-09-22T11:11:20.293Z</time>
      </trkpt>
      <trkpt lat="44.93349" lon="5.38572">
        <ele>1062</ele>
        <time>2022-09-22T11:11:21.293Z</time>
      </trkpt>
      <trkpt lat="44.93348" lon="5.38571">
        <ele>1062</ele>
        <time>2022-09-22T11:11:22.293Z</time>
      </trkpt>
      <trkpt lat="44.93347" lon="5.38571">
        <ele>1062</ele>
        <time>2022-09-22T11:11:23.293Z</time>
      </trkpt>
      <trkpt lat="44.93345" lon="5.3857">
        <ele>1062</ele>
        <time>2022-09-22T11:11:24.293Z</time>
      </trkpt>
      <trkpt lat="44.93344" lon="5.38569">
        <ele>1062</ele>
        <time>2022-09-22T11:11:25.293Z</time>
      </trkpt>
      <trkpt lat="44.93342" lon="5.38568">
        <ele>1063</ele>
        <time>2022-09-22T11:11:26.292Z</time>
      </trkpt>
      <trkpt lat="44.93341" lon="5.38568">
        <ele>1063</ele>
        <time>2022-09-22T11:11:27.292Z</time>
      </trkpt>
      <trkpt lat="44.93339" lon="5.38567">
        <ele>1063</ele>
        <time>2022-09-22T11:11:28.293Z</time>
      </trkpt>
      <trkpt lat="44.93337" lon="5.38566">
        <ele>1064</ele>
        <time>2022-09-22T11:11:29.293Z</time>
      </trkpt>
      <trkpt lat="44.93336" lon="5.38565">
        <ele>1064</ele>
        <time>2022-09-22T11:11:30.293Z</time>
      </trkpt>
      <trkpt lat="44.93334" lon="5.38565">
        <ele>1065</ele>
        <time>2022-09-22T11:11:31.293Z</time>
      </trkpt>
      <trkpt lat="44.93333" lon="5.38563">
        <ele>1065</ele>
        <time>2022-09-22T11:11:32.292Z</time>
      </trkpt>
      <trkpt lat="44.93332" lon="5.38562">
        <ele>1065</ele>
        <time>2022-09-22T11:11:33.293Z</time>
      </trkpt>
      <trkpt lat="44.9333" lon="5.38561">
        <ele>1066</ele>
        <time>2022-09-22T11:11:34.292Z</time>
      </trkpt>
      <trkpt lat="44.93329" lon="5.38561">
        <ele>1067</ele>
        <time>2022-09-22T11:11:35.293Z</time>
      </trkpt>
      <trkpt lat="44.93328" lon="5.3856">
        <ele>1067</ele>
        <time>2022-09-22T11:11:36.292Z</time>
      </trkpt>
      <trkpt lat="44.93326" lon="5.3856">
        <ele>1067</ele>
        <time>2022-09-22T11:11:37.293Z</time>
      </trkpt>
      <trkpt lat="44.93325" lon="5.3856">
        <ele>1067</ele>
        <time>2022-09-22T11:11:38.293Z</time>
      </trkpt>
      <trkpt lat="44.93323" lon="5.38561">
        <ele>1067</ele>
        <time>2022-09-22T11:11:39.293Z</time>
      </trkpt>
      <trkpt lat="44.93322" lon="5.38561">
        <ele>1067</ele>
        <time>2022-09-22T11:11:40.292Z</time>
      </trkpt>
      <trkpt lat="44.93321" lon="5.38562">
        <ele>1067</ele>
        <time>2022-09-22T11:11:41.293Z</time>
      </trkpt>
      <trkpt lat="44.9332" lon="5.38564">
        <ele>1068</ele>
        <time>2022-09-22T11:11:42.293Z</time>
      </trkpt>
      <trkpt lat="44.93319" lon="5.38565">
        <ele>1068</ele>
        <time>2022-09-22T11:11:43.293Z</time>
      </trkpt>
      <trkpt lat="44.93319" lon="5.38565">
        <ele>1068</ele>
        <time>2022-09-22T11:11:44.293Z</time>
      </trkpt>
      <trkpt lat="44.93318" lon="5.38566">
        <ele>1068</ele>
        <time>2022-09-22T11:11:45.292Z</time>
      </trkpt>
      <trkpt lat="44.93318" lon="5.38566">
        <ele>1068</ele>
        <time>2022-09-22T11:11:46.293Z</time>
      </trkpt>
      <trkpt lat="44.93318" lon="5.38574">
        <ele>1069</ele>
        <time>2022-09-22T11:13:34.434Z</time>
      </trkpt>
      <trkpt lat="44.93318" lon="5.38577">
        <ele>1069</ele>
        <time>2022-09-22T11:13:35.433Z</time>
      </trkpt>
      <trkpt lat="44.93318" lon="5.38579">
        <ele>1069</ele>
        <time>2022-09-22T11:13:36.434Z</time>
      </trkpt>
      <trkpt lat="44.93317" lon="5.38581">
        <ele>1069</ele>
        <time>2022-09-22T11:13:37.434Z</time>
      </trkpt>
      <trkpt lat="44.93316" lon="5.38583">
        <ele>1069</ele>
        <time>2022-09-22T11:13:38.434Z</time>
      </trkpt>
      <trkpt lat="44.93316" lon="5.38585">
        <ele>1069</ele>
        <time>2022-09-22T11:13:39.433Z</time>
      </trkpt>
      <trkpt lat="44.93315" lon="5.38587">
        <ele>1070</ele>
        <time>2022-09-22T11:13:40.433Z</time>
      </trkpt>
      <trkpt lat="44.93315" lon="5.38589">
        <ele>1071</ele>
        <time>2022-09-22T11:13:41.433Z</time>
      </trkpt>
      <trkpt lat="44.93314" lon="5.38591">
        <ele>1071</ele>
        <time>2022-09-22T11:13:42.434Z</time>
      </trkpt>
      <trkpt lat="44.93314" lon="5.38592">
        <ele>1071</ele>
        <time>2022-09-22T11:13:43.434Z</time>
      </trkpt>
      <trkpt lat="44.93313" lon="5.38594">
        <ele>1072</ele>
        <time>2022-09-22T11:13:44.434Z</time>
      </trkpt>
      <trkpt lat="44.93313" lon="5.38595">
        <ele>1072</ele>
        <time>2022-09-22T11:13:45.434Z</time>
      </trkpt>
      <trkpt lat="44.93313" lon="5.38597">
        <ele>1073</ele>
        <time>2022-09-22T11:13:46.434Z</time>
      </trkpt>
      <trkpt lat="44.93312" lon="5.38599">
        <ele>1073</ele>
        <time>2022-09-22T11:13:47.434Z</time>
      </trkpt>
      <trkpt lat="44.93312" lon="5.38601">
        <ele>1074</ele>
        <time>2022-09-22T11:13:48.433Z</time>
      </trkpt>
      <trkpt lat="44.93311" lon="5.38603">
        <ele>1074</ele>
        <time>2022-09-22T11:13:49.433Z</time>
      </trkpt>
      <trkpt lat="44.93311" lon="5.38605">
        <ele>1074</ele>
        <time>2022-09-22T11:13:50.433Z</time>
      </trkpt>
      <trkpt lat="44.9331" lon="5.38607">
        <ele>1074</ele>
        <time>2022-09-22T11:13:51.434Z</time>
      </trkpt>
      <trkpt lat="44.9331" lon="5.38608">
        <ele>1074</ele>
        <time>2022-09-22T11:13:52.434Z</time>
      </trkpt>
      <trkpt lat="44.93309" lon="5.38611">
        <ele>1073</ele>
        <time>2022-09-22T11:13:53.434Z</time>
      </trkpt>
      <trkpt lat="44.93308" lon="5.38612">
        <ele>1073</ele>
        <time>2022-09-22T11:13:54.434Z</time>
      </trkpt>
      <trkpt lat="44.93307" lon="5.38613">
        <ele>1072</ele>
        <time>2022-09-22T11:13:55.434Z</time>
      </trkpt>
      <trkpt lat="44.93307" lon="5.38615">
        <ele>1072</ele>
        <time>2022-09-22T11:13:56.434Z</time>
      </trkpt>
      <trkpt lat="44.93306" lon="5.38616">
        <ele>1073</ele>
        <time>2022-09-22T11:13:57.434Z</time>
      </trkpt>
      <trkpt lat="44.93306" lon="5.38618">
        <ele>1073</ele>
        <time>2022-09-22T11:13:58.434Z</time>
      </trkpt>
      <trkpt lat="44.93305" lon="5.3862">
        <ele>1073</ele>
        <time>2022-09-22T11:13:59.434Z</time>
      </trkpt>
      <trkpt lat="44.93305" lon="5.38621">
        <ele>1073</ele>
        <time>2022-09-22T11:14:00.434Z</time>
      </trkpt>
      <trkpt lat="44.93304" lon="5.38623">
        <ele>1073</ele>
        <time>2022-09-22T11:14:01.433Z</time>
      </trkpt>
      <trkpt lat="44.93304" lon="5.38625">
        <ele>1074</ele>
        <time>2022-09-22T11:14:02.434Z</time>
      </trkpt>
      <trkpt lat="44.93304" lon="5.38627">
        <ele>1074</ele>
        <time>2022-09-22T11:14:03.434Z</time>
      </trkpt>
      <trkpt lat="44.93303" lon="5.38629">
        <ele>1074</ele>
        <time>2022-09-22T11:14:04.433Z</time>
      </trkpt>
      <trkpt lat="44.93303" lon="5.38631">
        <ele>1074</ele>
        <time>2022-09-22T11:14:05.434Z</time>
      </trkpt>
      <trkpt lat="44.93302" lon="5.38633">
        <ele>1074</ele>
        <time>2022-09-22T11:14:06.433Z</time>
      </trkpt>
      <trkpt lat="44.93301" lon="5.38634">
        <ele>1074</ele>
        <time>2022-09-22T11:14:07.433Z</time>
      </trkpt>
      <trkpt lat="44.933" lon="5.38636">
        <ele>1074</ele>
        <time>2022-09-22T11:14:08.434Z</time>
      </trkpt>
      <trkpt lat="44.93299" lon="5.38637">
        <ele>1074</ele>
        <time>2022-09-22T11:14:09.434Z</time>
      </trkpt>
      <trkpt lat="44.93299" lon="5.38638">
        <ele>1074</ele>
        <time>2022-09-22T11:14:10.434Z</time>
      </trkpt>
      <trkpt lat="44.93299" lon="5.38638">
        <ele>1073</ele>
        <time>2022-09-22T11:14:11.433Z</time>
      </trkpt>
      <trkpt lat="44.93298" lon="5.38638">
        <ele>1073</ele>
        <time>2022-09-22T11:14:12.434Z</time>
      </trkpt>
      <trkpt lat="44.93296" lon="5.38637">
        <ele>1076</ele>
        <time>2022-09-22T11:14:24.563Z</time>
      </trkpt>
      <trkpt lat="44.93296" lon="5.38636">
        <ele>1076</ele>
        <time>2022-09-22T11:14:25.562Z</time>
      </trkpt>
      <trkpt lat="44.93296" lon="5.38635">
        <ele>1075</ele>
        <time>2022-09-22T11:14:26.562Z</time>
      </trkpt>
      <trkpt lat="44.93297" lon="5.38635">
        <ele>1075</ele>
        <time>2022-09-22T11:14:27.563Z</time>
      </trkpt>
      <trkpt lat="44.93298" lon="5.38633">
        <ele>1075</ele>
        <time>2022-09-22T11:14:28.562Z</time>
      </trkpt>
      <trkpt lat="44.93299" lon="5.38633">
        <ele>1075</ele>
        <time>2022-09-22T11:14:29.562Z</time>
      </trkpt>
      <trkpt lat="44.933" lon="5.38631">
        <ele>1075</ele>
        <time>2022-09-22T11:14:30.563Z</time>
      </trkpt>
      <trkpt lat="44.933" lon="5.3863">
        <ele>1075</ele>
        <time>2022-09-22T11:14:31.563Z</time>
      </trkpt>
      <trkpt lat="44.93301" lon="5.38628">
        <ele>1074</ele>
        <time>2022-09-22T11:14:32.563Z</time>
      </trkpt>
      <trkpt lat="44.93301" lon="5.38626">
        <ele>1074</ele>
        <time>2022-09-22T11:14:33.563Z</time>
      </trkpt>
      <trkpt lat="44.933" lon="5.38624">
        <ele>1074</ele>
        <time>2022-09-22T11:14:34.563Z</time>
      </trkpt>
      <trkpt lat="44.933" lon="5.38623">
        <ele>1073</ele>
        <time>2022-09-22T11:14:35.562Z</time>
      </trkpt>
      <trkpt lat="44.93299" lon="5.38622">
        <ele>1073</ele>
        <time>2022-09-22T11:14:36.562Z</time>
      </trkpt>
      <trkpt lat="44.93297" lon="5.38621">
        <ele>1073</ele>
        <time>2022-09-22T11:14:37.562Z</time>
      </trkpt>
      <trkpt lat="44.93296" lon="5.38621">
        <ele>1073</ele>
        <time>2022-09-22T11:14:38.562Z</time>
      </trkpt>
      <trkpt lat="44.93295" lon="5.3862">
        <ele>1073</ele>
        <time>2022-09-22T11:14:39.563Z</time>
      </trkpt>
      <trkpt lat="44.93293" lon="5.3862">
        <ele>1073</ele>
        <time>2022-09-22T11:14:40.563Z</time>
      </trkpt>
      <trkpt lat="44.93292" lon="5.38621">
        <ele>1073</ele>
        <time>2022-09-22T11:14:41.563Z</time>
      </trkpt>
      <trkpt lat="44.93291" lon="5.38622">
        <ele>1073</ele>
        <time>2022-09-22T11:14:42.563Z</time>
      </trkpt>
      <trkpt lat="44.9329" lon="5.38623">
        <ele>1073</ele>
        <time>2022-09-22T11:14:43.563Z</time>
      </trkpt>
      <trkpt lat="44.93288" lon="5.38623">
        <ele>1072</ele>
        <time>2022-09-22T11:14:44.563Z</time>
      </trkpt>
      <trkpt lat="44.93287" lon="5.38623">
        <ele>1072</ele>
        <time>2022-09-22T11:14:45.563Z</time>
      </trkpt>
      <trkpt lat="44.93285" lon="5.38623">
        <ele>1072</ele>
        <time>2022-09-22T11:14:46.563Z</time>
      </trkpt>
      <trkpt lat="44.93283" lon="5.38623">
        <ele>1072</ele>
        <time>2022-09-22T11:14:47.563Z</time>
      </trkpt>
      <trkpt lat="44.93282" lon="5.38623">
        <ele>1072</ele>
        <time>2022-09-22T11:14:48.563Z</time>
      </trkpt>
      <trkpt lat="44.9328" lon="5.38623">
        <ele>1072</ele>
        <time>2022-09-22T11:14:49.563Z</time>
      </trkpt>
      <trkpt lat="44.93279" lon="5.38623">
        <ele>1072</ele>
        <time>2022-09-22T11:14:50.563Z</time>
      </trkpt>
      <trkpt lat="44.93278" lon="5.38623">
        <ele>1072</ele>
        <time>2022-09-22T11:14:51.563Z</time>
      </trkpt>
      <trkpt lat="44.93276" lon="5.38622">
        <ele>1072</ele>
        <time>2022-09-22T11:14:52.563Z</time>
      </trkpt>
      <trkpt lat="44.93275" lon="5.38622">
        <ele>1072</ele>
        <time>2022-09-22T11:14:53.563Z</time>
      </trkpt>
      <trkpt lat="44.93274" lon="5.38621">
        <ele>1072</ele>
        <time>2022-09-22T11:14:54.563Z</time>
      </trkpt>
      <trkpt lat="44.93273" lon="5.38621">
        <ele>1072</ele>
        <time>2022-09-22T11:14:55.563Z</time>
      </trkpt>
      <trkpt lat="44.93272" lon="5.38621">
        <ele>1072</ele>
        <time>2022-09-22T11:14:56.563Z</time>
      </trkpt>
      <trkpt lat="44.9327" lon="5.38621">
        <ele>1072</ele>
        <time>2022-09-22T11:14:57.563Z</time>
      </trkpt>
      <trkpt lat="44.93269" lon="5.3862">
        <ele>1072</ele>
        <time>2022-09-22T11:14:58.563Z</time>
      </trkpt>
      <trkpt lat="44.93267" lon="5.3862">
        <ele>1072</ele>
        <time>2022-09-22T11:14:59.563Z</time>
      </trkpt>
      <trkpt lat="44.93266" lon="5.3862">
        <ele>1072</ele>
        <time>2022-09-22T11:15:00.563Z</time>
      </trkpt>
      <trkpt lat="44.93265" lon="5.3862">
        <ele>1072</ele>
        <time>2022-09-22T11:15:01.563Z</time>
      </trkpt>
      <trkpt lat="44.93263" lon="5.38621">
        <ele>1072</ele>
        <time>2022-09-22T11:15:02.563Z</time>
      </trkpt>
      <trkpt lat="44.93262" lon="5.38621">
        <ele>1073</ele>
        <time>2022-09-22T11:15:03.563Z</time>
      </trkpt>
      <trkpt lat="44.9326" lon="5.38622">
        <ele>1073</ele>
        <time>2022-09-22T11:15:04.563Z</time>
      </trkpt>
      <trkpt lat="44.93259" lon="5.38622">
        <ele>1073</ele>
        <time>2022-09-22T11:15:05.563Z</time>
      </trkpt>
      <trkpt lat="44.93258" lon="5.38623">
        <ele>1074</ele>
        <time>2022-09-22T11:15:06.562Z</time>
      </trkpt>
      <trkpt lat="44.93257" lon="5.38624">
        <ele>1074</ele>
        <time>2022-09-22T11:15:07.563Z</time>
      </trkpt>
      <trkpt lat="44.93256" lon="5.38625">
        <ele>1074</ele>
        <time>2022-09-22T11:15:08.563Z</time>
      </trkpt>
      <trkpt lat="44.93254" lon="5.38626">
        <ele>1074</ele>
        <time>2022-09-22T11:15:09.563Z</time>
      </trkpt>
      <trkpt lat="44.93253" lon="5.38626">
        <ele>1074</ele>
        <time>2022-09-22T11:15:10.563Z</time>
      </trkpt>
      <trkpt lat="44.93252" lon="5.38627">
        <ele>1075</ele>
        <time>2022-09-22T11:15:11.563Z</time>
      </trkpt>
      <trkpt lat="44.9325" lon="5.38627">
        <ele>1075</ele>
        <time>2022-09-22T11:15:12.563Z</time>
      </trkpt>
      <trkpt lat="44.93249" lon="5.38628">
        <ele>1075</ele>
        <time>2022-09-22T11:15:13.563Z</time>
      </trkpt>
      <trkpt lat="44.93247" lon="5.38628">
        <ele>1075</ele>
        <time>2022-09-22T11:15:14.562Z</time>
      </trkpt>
      <trkpt lat="44.93246" lon="5.38629">
        <ele>1076</ele>
        <time>2022-09-22T11:15:15.563Z</time>
      </trkpt>
      <trkpt lat="44.93245" lon="5.38629">
        <ele>1076</ele>
        <time>2022-09-22T11:15:16.563Z</time>
      </trkpt>
      <trkpt lat="44.93243" lon="5.3863">
        <ele>1076</ele>
        <time>2022-09-22T11:15:17.563Z</time>
      </trkpt>
      <trkpt lat="44.93242" lon="5.3863">
        <ele>1076</ele>
        <time>2022-09-22T11:15:18.562Z</time>
      </trkpt>
      <trkpt lat="44.93241" lon="5.38632">
        <ele>1076</ele>
        <time>2022-09-22T11:15:19.563Z</time>
      </trkpt>
      <trkpt lat="44.93239" lon="5.38633">
        <ele>1076</ele>
        <time>2022-09-22T11:15:20.563Z</time>
      </trkpt>
      <trkpt lat="44.93238" lon="5.38633">
        <ele>1076</ele>
        <time>2022-09-22T11:15:21.563Z</time>
      </trkpt>
      <trkpt lat="44.93236" lon="5.38634">
        <ele>1076</ele>
        <time>2022-09-22T11:15:22.563Z</time>
      </trkpt>
      <trkpt lat="44.93235" lon="5.38634">
        <ele>1077</ele>
        <time>2022-09-22T11:15:23.563Z</time>
      </trkpt>
      <trkpt lat="44.93233" lon="5.38635">
        <ele>1077</ele>
        <time>2022-09-22T11:15:24.563Z</time>
      </trkpt>
      <trkpt lat="44.93232" lon="5.38635">
        <ele>1078</ele>
        <time>2022-09-22T11:15:25.563Z</time>
      </trkpt>
      <trkpt lat="44.93231" lon="5.38636">
        <ele>1078</ele>
        <time>2022-09-22T11:15:26.563Z</time>
      </trkpt>
      <trkpt lat="44.93229" lon="5.38638">
        <ele>1078</ele>
        <time>2022-09-22T11:15:27.563Z</time>
      </trkpt>
      <trkpt lat="44.93228" lon="5.38639">
        <ele>1078</ele>
        <time>2022-09-22T11:15:28.563Z</time>
      </trkpt>
      <trkpt lat="44.93227" lon="5.3864">
        <ele>1078</ele>
        <time>2022-09-22T11:15:29.563Z</time>
      </trkpt>
      <trkpt lat="44.93226" lon="5.38641">
        <ele>1078</ele>
        <time>2022-09-22T11:15:30.562Z</time>
      </trkpt>
      <trkpt lat="44.93224" lon="5.38642">
        <ele>1079</ele>
        <time>2022-09-22T11:15:31.563Z</time>
      </trkpt>
      <trkpt lat="44.93223" lon="5.38643">
        <ele>1079</ele>
        <time>2022-09-22T11:15:32.562Z</time>
      </trkpt>
      <trkpt lat="44.93222" lon="5.38645">
        <ele>1079</ele>
        <time>2022-09-22T11:15:33.562Z</time>
      </trkpt>
      <trkpt lat="44.93221" lon="5.38646">
        <ele>1078</ele>
        <time>2022-09-22T11:15:34.563Z</time>
      </trkpt>
      <trkpt lat="44.9322" lon="5.38648">
        <ele>1078</ele>
        <time>2022-09-22T11:15:35.563Z</time>
      </trkpt>
      <trkpt lat="44.93218" lon="5.3865">
        <ele>1078</ele>
        <time>2022-09-22T11:15:36.563Z</time>
      </trkpt>
      <trkpt lat="44.93217" lon="5.38651">
        <ele>1078</ele>
        <time>2022-09-22T11:15:37.563Z</time>
      </trkpt>
      <trkpt lat="44.93216" lon="5.38653">
        <ele>1078</ele>
        <time>2022-09-22T11:15:38.563Z</time>
      </trkpt>
      <trkpt lat="44.93215" lon="5.38654">
        <ele>1079</ele>
        <time>2022-09-22T11:15:39.562Z</time>
      </trkpt>
      <trkpt lat="44.93214" lon="5.38656">
        <ele>1079</ele>
        <time>2022-09-22T11:15:40.563Z</time>
      </trkpt>
      <trkpt lat="44.93212" lon="5.38658">
        <ele>1079</ele>
        <time>2022-09-22T11:15:41.563Z</time>
      </trkpt>
      <trkpt lat="44.93211" lon="5.38659">
        <ele>1079</ele>
        <time>2022-09-22T11:15:42.563Z</time>
      </trkpt>
      <trkpt lat="44.9321" lon="5.38661">
        <ele>1079</ele>
        <time>2022-09-22T11:15:43.563Z</time>
      </trkpt>
      <trkpt lat="44.93209" lon="5.38662">
        <ele>1079</ele>
        <time>2022-09-22T11:15:44.562Z</time>
      </trkpt>
      <trkpt lat="44.93209" lon="5.38663">
        <ele>1079</ele>
        <time>2022-09-22T11:15:45.562Z</time>
      </trkpt>
      <trkpt lat="44.93208" lon="5.38665">
        <ele>1079</ele>
        <time>2022-09-22T11:15:46.563Z</time>
      </trkpt>
      <trkpt lat="44.93208" lon="5.38666">
        <ele>1080</ele>
        <time>2022-09-22T11:15:47.563Z</time>
      </trkpt>
      <trkpt lat="44.93207" lon="5.38667">
        <ele>1080</ele>
        <time>2022-09-22T11:15:48.562Z</time>
      </trkpt>
      <trkpt lat="44.93206" lon="5.38669">
        <ele>1080</ele>
        <time>2022-09-22T11:15:49.563Z</time>
      </trkpt>
      <trkpt lat="44.93206" lon="5.38671">
        <ele>1080</ele>
        <time>2022-09-22T11:15:50.563Z</time>
      </trkpt>
      <trkpt lat="44.93205" lon="5.38673">
        <ele>1080</ele>
        <time>2022-09-22T11:15:51.563Z</time>
      </trkpt>
      <trkpt lat="44.93204" lon="5.38675">
        <ele>1080</ele>
        <time>2022-09-22T11:15:52.563Z</time>
      </trkpt>
      <trkpt lat="44.93204" lon="5.38677">
        <ele>1081</ele>
        <time>2022-09-22T11:15:53.563Z</time>
      </trkpt>
      <trkpt lat="44.93203" lon="5.38679">
        <ele>1081</ele>
        <time>2022-09-22T11:15:54.563Z</time>
      </trkpt>
      <trkpt lat="44.93203" lon="5.38681">
        <ele>1082</ele>
        <time>2022-09-22T11:15:55.563Z</time>
      </trkpt>
      <trkpt lat="44.93203" lon="5.38683">
        <ele>1082</ele>
        <time>2022-09-22T11:15:56.563Z</time>
      </trkpt>
      <trkpt lat="44.93203" lon="5.38685">
        <ele>1082</ele>
        <time>2022-09-22T11:15:57.563Z</time>
      </trkpt>
      <trkpt lat="44.93203" lon="5.38687">
        <ele>1083</ele>
        <time>2022-09-22T11:15:58.563Z</time>
      </trkpt>
      <trkpt lat="44.93203" lon="5.3869">
        <ele>1083</ele>
        <time>2022-09-22T11:15:59.562Z</time>
      </trkpt>
      <trkpt lat="44.93203" lon="5.38692">
        <ele>1083</ele>
        <time>2022-09-22T11:16:00.563Z</time>
      </trkpt>
      <trkpt lat="44.93202" lon="5.38695">
        <ele>1083</ele>
        <time>2022-09-22T11:16:01.563Z</time>
      </trkpt>
      <trkpt lat="44.93201" lon="5.38698">
        <ele>1083</ele>
        <time>2022-09-22T11:16:02.563Z</time>
      </trkpt>
      <trkpt lat="44.93201" lon="5.387">
        <ele>1083</ele>
        <time>2022-09-22T11:16:03.563Z</time>
      </trkpt>
      <trkpt lat="44.93202" lon="5.38702">
        <ele>1083</ele>
        <time>2022-09-22T11:16:04.563Z</time>
      </trkpt>
      <trkpt lat="44.93202" lon="5.38704">
        <ele>1083</ele>
        <time>2022-09-22T11:16:05.563Z</time>
      </trkpt>
      <trkpt lat="44.93202" lon="5.38706">
        <ele>1083</ele>
        <time>2022-09-22T11:16:06.563Z</time>
      </trkpt>
      <trkpt lat="44.93202" lon="5.38708">
        <ele>1083</ele>
        <time>2022-09-22T11:16:07.563Z</time>
      </trkpt>
      <trkpt lat="44.93203" lon="5.38709">
        <ele>1083</ele>
        <time>2022-09-22T11:16:08.563Z</time>
      </trkpt>
      <trkpt lat="44.93203" lon="5.38711">
        <ele>1083</ele>
        <time>2022-09-22T11:16:09.563Z</time>
      </trkpt>
      <trkpt lat="44.93203" lon="5.38713">
        <ele>1084</ele>
        <time>2022-09-22T11:16:10.562Z</time>
      </trkpt>
      <trkpt lat="44.93203" lon="5.38715">
        <ele>1084</ele>
        <time>2022-09-22T11:16:11.563Z</time>
      </trkpt>
      <trkpt lat="44.93203" lon="5.38717">
        <ele>1084</ele>
        <time>2022-09-22T11:16:12.563Z</time>
      </trkpt>
      <trkpt lat="44.93203" lon="5.38719">
        <ele>1084</ele>
        <time>2022-09-22T11:16:13.563Z</time>
      </trkpt>
      <trkpt lat="44.93203" lon="5.38721">
        <ele>1084</ele>
        <time>2022-09-22T11:16:14.563Z</time>
      </trkpt>
      <trkpt lat="44.93203" lon="5.38723">
        <ele>1084</ele>
        <time>2022-09-22T11:16:15.563Z</time>
      </trkpt>
      <trkpt lat="44.93204" lon="5.38724">
        <ele>1083</ele>
        <time>2022-09-22T11:16:16.562Z</time>
      </trkpt>
      <trkpt lat="44.93204" lon="5.38726">
        <ele>1083</ele>
        <time>2022-09-22T11:16:17.563Z</time>
      </trkpt>
      <trkpt lat="44.93204" lon="5.38728">
        <ele>1083</ele>
        <time>2022-09-22T11:16:18.563Z</time>
      </trkpt>
      <trkpt lat="44.93204" lon="5.3873">
        <ele>1084</ele>
        <time>2022-09-22T11:16:19.562Z</time>
      </trkpt>
      <trkpt lat="44.93204" lon="5.38732">
        <ele>1084</ele>
        <time>2022-09-22T11:16:20.562Z</time>
      </trkpt>
      <trkpt lat="44.93204" lon="5.38734">
        <ele>1085</ele>
        <time>2022-09-22T11:16:21.563Z</time>
      </trkpt>
      <trkpt lat="44.93205" lon="5.38736">
        <ele>1086</ele>
        <time>2022-09-22T11:16:22.563Z</time>
      </trkpt>
      <trkpt lat="44.93205" lon="5.38737">
        <ele>1086</ele>
        <time>2022-09-22T11:16:23.562Z</time>
      </trkpt>
      <trkpt lat="44.93205" lon="5.38739">
        <ele>1087</ele>
        <time>2022-09-22T11:16:24.562Z</time>
      </trkpt>
      <trkpt lat="44.93206" lon="5.38741">
        <ele>1088</ele>
        <time>2022-09-22T11:16:25.563Z</time>
      </trkpt>
      <trkpt lat="44.93206" lon="5.38743">
        <ele>1089</ele>
        <time>2022-09-22T11:16:26.563Z</time>
      </trkpt>
      <trkpt lat="44.93207" lon="5.38745">
        <ele>1090</ele>
        <time>2022-09-22T11:16:27.562Z</time>
      </trkpt>
      <trkpt lat="44.93207" lon="5.38747">
        <ele>1091</ele>
        <time>2022-09-22T11:16:28.562Z</time>
      </trkpt>
      <trkpt lat="44.93208" lon="5.38749">
        <ele>1092</ele>
        <time>2022-09-22T11:16:29.563Z</time>
      </trkpt>
      <trkpt lat="44.93209" lon="5.38751">
        <ele>1093</ele>
        <time>2022-09-22T11:16:30.563Z</time>
      </trkpt>
      <trkpt lat="44.9321" lon="5.38752">
        <ele>1093</ele>
        <time>2022-09-22T11:16:31.563Z</time>
      </trkpt>
      <trkpt lat="44.93211" lon="5.38754">
        <ele>1094</ele>
        <time>2022-09-22T11:16:32.563Z</time>
      </trkpt>
      <trkpt lat="44.93211" lon="5.38756">
        <ele>1095</ele>
        <time>2022-09-22T11:16:33.563Z</time>
      </trkpt>
      <trkpt lat="44.93211" lon="5.38757">
        <ele>1095</ele>
        <time>2022-09-22T11:16:34.563Z</time>
      </trkpt>
      <trkpt lat="44.93212" lon="5.3876">
        <ele>1095</ele>
        <time>2022-09-22T11:16:35.563Z</time>
      </trkpt>
      <trkpt lat="44.93213" lon="5.38762">
        <ele>1095</ele>
        <time>2022-09-22T11:16:36.563Z</time>
      </trkpt>
      <trkpt lat="44.93215" lon="5.38765">
        <ele>1095</ele>
        <time>2022-09-22T11:16:37.563Z</time>
      </trkpt>
      <trkpt lat="44.93215" lon="5.38767">
        <ele>1095</ele>
        <time>2022-09-22T11:16:38.563Z</time>
      </trkpt>
      <trkpt lat="44.93215" lon="5.3877">
        <ele>1095</ele>
        <time>2022-09-22T11:16:39.563Z</time>
      </trkpt>
      <trkpt lat="44.93216" lon="5.38772">
        <ele>1095</ele>
        <time>2022-09-22T11:16:40.563Z</time>
      </trkpt>
      <trkpt lat="44.93216" lon="5.38774">
        <ele>1095</ele>
        <time>2022-09-22T11:16:41.563Z</time>
      </trkpt>
      <trkpt lat="44.93217" lon="5.38776">
        <ele>1095</ele>
        <time>2022-09-22T11:16:42.563Z</time>
      </trkpt>
      <trkpt lat="44.93218" lon="5.38778">
        <ele>1095</ele>
        <time>2022-09-22T11:16:43.562Z</time>
      </trkpt>
      <trkpt lat="44.93219" lon="5.3878">
        <ele>1095</ele>
        <time>2022-09-22T11:16:44.563Z</time>
      </trkpt>
      <trkpt lat="44.93219" lon="5.38782">
        <ele>1096</ele>
        <time>2022-09-22T11:16:45.563Z</time>
      </trkpt>
      <trkpt lat="44.9322" lon="5.38785">
        <ele>1096</ele>
        <time>2022-09-22T11:16:46.563Z</time>
      </trkpt>
      <trkpt lat="44.93221" lon="5.38786">
        <ele>1096</ele>
        <time>2022-09-22T11:16:47.562Z</time>
      </trkpt>
      <trkpt lat="44.93221" lon="5.38788">
        <ele>1097</ele>
        <time>2022-09-22T11:16:48.563Z</time>
      </trkpt>
      <trkpt lat="44.93222" lon="5.3879">
        <ele>1097</ele>
        <time>2022-09-22T11:16:49.562Z</time>
      </trkpt>
      <trkpt lat="44.93223" lon="5.38792">
        <ele>1097</ele>
        <time>2022-09-22T11:16:50.563Z</time>
      </trkpt>
      <trkpt lat="44.93224" lon="5.38794">
        <ele>1098</ele>
        <time>2022-09-22T11:16:51.563Z</time>
      </trkpt>
      <trkpt lat="44.93225" lon="5.38796">
        <ele>1098</ele>
        <time>2022-09-22T11:16:52.562Z</time>
      </trkpt>
      <trkpt lat="44.93226" lon="5.38798">
        <ele>1098</ele>
        <time>2022-09-22T11:16:53.563Z</time>
      </trkpt>
      <trkpt lat="44.93227" lon="5.388">
        <ele>1099</ele>
        <time>2022-09-22T11:16:54.562Z</time>
      </trkpt>
      <trkpt lat="44.93227" lon="5.38802">
        <ele>1099</ele>
        <time>2022-09-22T11:16:55.562Z</time>
      </trkpt>
      <trkpt lat="44.93228" lon="5.38804">
        <ele>1099</ele>
        <time>2022-09-22T11:16:56.563Z</time>
      </trkpt>
      <trkpt lat="44.93229" lon="5.38805">
        <ele>1099</ele>
        <time>2022-09-22T11:16:57.563Z</time>
      </trkpt>
      <trkpt lat="44.9323" lon="5.38807">
        <ele>1099</ele>
        <time>2022-09-22T11:16:58.563Z</time>
      </trkpt>
      <trkpt lat="44.9323" lon="5.38808">
        <ele>1099</ele>
        <time>2022-09-22T11:16:59.563Z</time>
      </trkpt>
      <trkpt lat="44.93231" lon="5.3881">
        <ele>1099</ele>
        <time>2022-09-22T11:17:00.563Z</time>
      </trkpt>
      <trkpt lat="44.93231" lon="5.38812">
        <ele>1099</ele>
        <time>2022-09-22T11:17:01.563Z</time>
      </trkpt>
      <trkpt lat="44.93232" lon="5.38813">
        <ele>1099</ele>
        <time>2022-09-22T11:17:02.562Z</time>
      </trkpt>
      <trkpt lat="44.93233" lon="5.38815">
        <ele>1099</ele>
        <time>2022-09-22T11:17:03.563Z</time>
      </trkpt>
      <trkpt lat="44.93233" lon="5.38817">
        <ele>1098</ele>
        <time>2022-09-22T11:17:04.563Z</time>
      </trkpt>
      <trkpt lat="44.93234" lon="5.38818">
        <ele>1098</ele>
        <time>2022-09-22T11:17:05.563Z</time>
      </trkpt>
      <trkpt lat="44.93234" lon="5.3882">
        <ele>1098</ele>
        <time>2022-09-22T11:17:06.563Z</time>
      </trkpt>
      <trkpt lat="44.93234" lon="5.38822">
        <ele>1098</ele>
        <time>2022-09-22T11:17:07.563Z</time>
      </trkpt>
      <trkpt lat="44.93235" lon="5.38824">
        <ele>1099</ele>
        <time>2022-09-22T11:17:08.562Z</time>
      </trkpt>
      <trkpt lat="44.93235" lon="5.38826">
        <ele>1099</ele>
        <time>2022-09-22T11:17:09.563Z</time>
      </trkpt>
      <trkpt lat="44.93236" lon="5.38827">
        <ele>1099</ele>
        <time>2022-09-22T11:17:10.563Z</time>
      </trkpt>
      <trkpt lat="44.93237" lon="5.38829">
        <ele>1100</ele>
        <time>2022-09-22T11:17:11.563Z</time>
      </trkpt>
      <trkpt lat="44.93237" lon="5.3883">
        <ele>1100</ele>
        <time>2022-09-22T11:17:12.563Z</time>
      </trkpt>
      <trkpt lat="44.93238" lon="5.38831">
        <ele>1101</ele>
        <time>2022-09-22T11:17:13.562Z</time>
      </trkpt>
      <trkpt lat="44.93239" lon="5.38833">
        <ele>1101</ele>
        <time>2022-09-22T11:17:14.562Z</time>
      </trkpt>
      <trkpt lat="44.93239" lon="5.38835">
        <ele>1102</ele>
        <time>2022-09-22T11:17:15.563Z</time>
      </trkpt>
      <trkpt lat="44.9324" lon="5.38837">
        <ele>1102</ele>
        <time>2022-09-22T11:17:16.562Z</time>
      </trkpt>
      <trkpt lat="44.9324" lon="5.38839">
        <ele>1102</ele>
        <time>2022-09-22T11:17:17.563Z</time>
      </trkpt>
      <trkpt lat="44.9324" lon="5.38841">
        <ele>1102</ele>
        <time>2022-09-22T11:17:18.563Z</time>
      </trkpt>
      <trkpt lat="44.93241" lon="5.38843">
        <ele>1102</ele>
        <time>2022-09-22T11:17:19.562Z</time>
      </trkpt>
      <trkpt lat="44.93241" lon="5.38844">
        <ele>1102</ele>
        <time>2022-09-22T11:17:20.563Z</time>
      </trkpt>
      <trkpt lat="44.93241" lon="5.38846">
        <ele>1103</ele>
        <time>2022-09-22T11:17:21.562Z</time>
      </trkpt>
      <trkpt lat="44.93242" lon="5.38848">
        <ele>1103</ele>
        <time>2022-09-22T11:17:22.562Z</time>
      </trkpt>
      <trkpt lat="44.93242" lon="5.3885">
        <ele>1104</ele>
        <time>2022-09-22T11:17:23.563Z</time>
      </trkpt>
      <trkpt lat="44.93243" lon="5.38852">
        <ele>1104</ele>
        <time>2022-09-22T11:17:24.562Z</time>
      </trkpt>
      <trkpt lat="44.93243" lon="5.38854">
        <ele>1104</ele>
        <time>2022-09-22T11:17:25.563Z</time>
      </trkpt>
      <trkpt lat="44.93243" lon="5.38856">
        <ele>1103</ele>
        <time>2022-09-22T11:17:26.563Z</time>
      </trkpt>
      <trkpt lat="44.93243" lon="5.38858">
        <ele>1103</ele>
        <time>2022-09-22T11:17:27.563Z</time>
      </trkpt>
      <trkpt lat="44.93244" lon="5.3886">
        <ele>1103</ele>
        <time>2022-09-22T11:17:28.563Z</time>
      </trkpt>
      <trkpt lat="44.93244" lon="5.38862">
        <ele>1104</ele>
        <time>2022-09-22T11:17:29.562Z</time>
      </trkpt>
      <trkpt lat="44.93245" lon="5.38864">
        <ele>1104</ele>
        <time>2022-09-22T11:17:30.563Z</time>
      </trkpt>
      <trkpt lat="44.93244" lon="5.38866">
        <ele>1104</ele>
        <time>2022-09-22T11:17:31.563Z</time>
      </trkpt>
      <trkpt lat="44.93244" lon="5.38868">
        <ele>1103</ele>
        <time>2022-09-22T11:17:32.563Z</time>
      </trkpt>
      <trkpt lat="44.93244" lon="5.3887">
        <ele>1103</ele>
        <time>2022-09-22T11:17:33.563Z</time>
      </trkpt>
      <trkpt lat="44.93244" lon="5.38872">
        <ele>1103</ele>
        <time>2022-09-22T11:17:34.563Z</time>
      </trkpt>
      <trkpt lat="44.93244" lon="5.38874">
        <ele>1103</ele>
        <time>2022-09-22T11:17:35.563Z</time>
      </trkpt>
      <trkpt lat="44.93245" lon="5.38876">
        <ele>1103</ele>
        <time>2022-09-22T11:17:36.563Z</time>
      </trkpt>
      <trkpt lat="44.93245" lon="5.38878">
        <ele>1103</ele>
        <time>2022-09-22T11:17:37.563Z</time>
      </trkpt>
      <trkpt lat="44.93247" lon="5.38881">
        <ele>1104</ele>
        <time>2022-09-22T11:17:38.563Z</time>
      </trkpt>
      <trkpt lat="44.93247" lon="5.38884">
        <ele>1104</ele>
        <time>2022-09-22T11:17:39.563Z</time>
      </trkpt>
      <trkpt lat="44.93248" lon="5.38886">
        <ele>1104</ele>
        <time>2022-09-22T11:17:40.563Z</time>
      </trkpt>
      <trkpt lat="44.93247" lon="5.38887">
        <ele>1104</ele>
        <time>2022-09-22T11:17:41.563Z</time>
      </trkpt>
      <trkpt lat="44.93248" lon="5.3889">
        <ele>1104</ele>
        <time>2022-09-22T11:17:42.563Z</time>
      </trkpt>
      <trkpt lat="44.93248" lon="5.38891">
        <ele>1104</ele>
        <time>2022-09-22T11:17:43.563Z</time>
      </trkpt>
      <trkpt lat="44.93248" lon="5.38893">
        <ele>1105</ele>
        <time>2022-09-22T11:17:44.563Z</time>
      </trkpt>
      <trkpt lat="44.93248" lon="5.38895">
        <ele>1105</ele>
        <time>2022-09-22T11:17:45.563Z</time>
      </trkpt>
      <trkpt lat="44.93249" lon="5.38897">
        <ele>1105</ele>
        <time>2022-09-22T11:17:46.563Z</time>
      </trkpt>
      <trkpt lat="44.93249" lon="5.38899">
        <ele>1104</ele>
        <time>2022-09-22T11:17:47.563Z</time>
      </trkpt>
      <trkpt lat="44.93249" lon="5.38902">
        <ele>1104</ele>
        <time>2022-09-22T11:17:48.562Z</time>
      </trkpt>
      <trkpt lat="44.93249" lon="5.38904">
        <ele>1104</ele>
        <time>2022-09-22T11:17:49.562Z</time>
      </trkpt>
      <trkpt lat="44.9325" lon="5.38907">
        <ele>1104</ele>
        <time>2022-09-22T11:17:50.563Z</time>
      </trkpt>
      <trkpt lat="44.93251" lon="5.38909">
        <ele>1105</ele>
        <time>2022-09-22T11:17:51.563Z</time>
      </trkpt>
      <trkpt lat="44.93251" lon="5.38911">
        <ele>1105</ele>
        <time>2022-09-22T11:17:52.563Z</time>
      </trkpt>
      <trkpt lat="44.93252" lon="5.38913">
        <ele>1105</ele>
        <time>2022-09-22T11:17:53.563Z</time>
      </trkpt>
      <trkpt lat="44.93253" lon="5.38916">
        <ele>1104</ele>
        <time>2022-09-22T11:17:54.563Z</time>
      </trkpt>
      <trkpt lat="44.93253" lon="5.38918">
        <ele>1104</ele>
        <time>2022-09-22T11:17:55.563Z</time>
      </trkpt>
      <trkpt lat="44.93253" lon="5.38921">
        <ele>1104</ele>
        <time>2022-09-22T11:17:56.563Z</time>
      </trkpt>
      <trkpt lat="44.93253" lon="5.38923">
        <ele>1103</ele>
        <time>2022-09-22T11:17:57.563Z</time>
      </trkpt>
      <trkpt lat="44.93254" lon="5.38925">
        <ele>1103</ele>
        <time>2022-09-22T11:17:58.563Z</time>
      </trkpt>
      <trkpt lat="44.93255" lon="5.38927">
        <ele>1103</ele>
        <time>2022-09-22T11:17:59.563Z</time>
      </trkpt>
      <trkpt lat="44.93256" lon="5.38929">
        <ele>1103</ele>
        <time>2022-09-22T11:18:00.563Z</time>
      </trkpt>
      <trkpt lat="44.93256" lon="5.38931">
        <ele>1102</ele>
        <time>2022-09-22T11:18:01.563Z</time>
      </trkpt>
      <trkpt lat="44.93257" lon="5.38933">
        <ele>1102</ele>
        <time>2022-09-22T11:18:02.563Z</time>
      </trkpt>
      <trkpt lat="44.93257" lon="5.38936">
        <ele>1101</ele>
        <time>2022-09-22T11:18:03.563Z</time>
      </trkpt>
      <trkpt lat="44.93258" lon="5.38938">
        <ele>1101</ele>
        <time>2022-09-22T11:18:04.562Z</time>
      </trkpt>
      <trkpt lat="44.93259" lon="5.38941">
        <ele>1101</ele>
        <time>2022-09-22T11:18:05.563Z</time>
      </trkpt>
      <trkpt lat="44.9326" lon="5.38943">
        <ele>1100</ele>
        <time>2022-09-22T11:18:06.563Z</time>
      </trkpt>
      <trkpt lat="44.93261" lon="5.38946">
        <ele>1100</ele>
        <time>2022-09-22T11:18:07.562Z</time>
      </trkpt>
      <trkpt lat="44.93263" lon="5.3895">
        <ele>1100</ele>
        <time>2022-09-22T11:18:08.563Z</time>
      </trkpt>
      <trkpt lat="44.93264" lon="5.38954">
        <ele>1099</ele>
        <time>2022-09-22T11:18:09.563Z</time>
      </trkpt>
      <trkpt lat="44.93266" lon="5.38958">
        <ele>1099</ele>
        <time>2022-09-22T11:18:10.563Z</time>
      </trkpt>
      <trkpt lat="44.93268" lon="5.38962">
        <ele>1099</ele>
        <time>2022-09-22T11:18:11.562Z</time>
      </trkpt>
      <trkpt lat="44.93269" lon="5.38966">
        <ele>1099</ele>
        <time>2022-09-22T11:18:12.563Z</time>
      </trkpt>
      <trkpt lat="44.93271" lon="5.38971">
        <ele>1098</ele>
        <time>2022-09-22T11:18:13.563Z</time>
      </trkpt>
      <trkpt lat="44.93273" lon="5.38975">
        <ele>1098</ele>
        <time>2022-09-22T11:18:14.563Z</time>
      </trkpt>
      <trkpt lat="44.93275" lon="5.38979">
        <ele>1097</ele>
        <time>2022-09-22T11:18:15.563Z</time>
      </trkpt>
      <trkpt lat="44.93278" lon="5.38983">
        <ele>1097</ele>
        <time>2022-09-22T11:18:16.563Z</time>
      </trkpt>
      <trkpt lat="44.9328" lon="5.38987">
        <ele>1097</ele>
        <time>2022-09-22T11:18:17.563Z</time>
      </trkpt>
      <trkpt lat="44.93282" lon="5.38991">
        <ele>1097</ele>
        <time>2022-09-22T11:18:18.562Z</time>
      </trkpt>
      <trkpt lat="44.93282" lon="5.38993">
        <ele>1097</ele>
        <time>2022-09-22T11:18:19.563Z</time>
      </trkpt>
      <trkpt lat="44.93283" lon="5.38995">
        <ele>1097</ele>
        <time>2022-09-22T11:18:20.563Z</time>
      </trkpt>
      <trkpt lat="44.93284" lon="5.38997">
        <ele>1096</ele>
        <time>2022-09-22T11:18:21.563Z</time>
      </trkpt>
      <trkpt lat="44.93285" lon="5.38999">
        <ele>1096</ele>
        <time>2022-09-22T11:18:22.563Z</time>
      </trkpt>
      <trkpt lat="44.93287" lon="5.39">
        <ele>1096</ele>
        <time>2022-09-22T11:18:23.563Z</time>
      </trkpt>
      <trkpt lat="44.93288" lon="5.39001">
        <ele>1096</ele>
        <time>2022-09-22T11:18:24.563Z</time>
      </trkpt>
      <trkpt lat="44.9329" lon="5.39002">
        <ele>1096</ele>
        <time>2022-09-22T11:18:25.563Z</time>
      </trkpt>
      <trkpt lat="44.93291" lon="5.39003">
        <ele>1096</ele>
        <time>2022-09-22T11:18:26.563Z</time>
      </trkpt>
      <trkpt lat="44.93292" lon="5.39004">
        <ele>1096</ele>
        <time>2022-09-22T11:18:27.562Z</time>
      </trkpt>
      <trkpt lat="44.93293" lon="5.39005">
        <ele>1096</ele>
        <time>2022-09-22T11:18:28.562Z</time>
      </trkpt>
      <trkpt lat="44.93294" lon="5.39006">
        <ele>1096</ele>
        <time>2022-09-22T11:18:29.563Z</time>
      </trkpt>
      <trkpt lat="44.93296" lon="5.39007">
        <ele>1097</ele>
        <time>2022-09-22T11:18:30.563Z</time>
      </trkpt>
      <trkpt lat="44.93297" lon="5.39009">
        <ele>1097</ele>
        <time>2022-09-22T11:18:31.563Z</time>
      </trkpt>
      <trkpt lat="44.93299" lon="5.3901">
        <ele>1097</ele>
        <time>2022-09-22T11:18:32.563Z</time>
      </trkpt>
      <trkpt lat="44.933" lon="5.3901">
        <ele>1097</ele>
        <time>2022-09-22T11:18:33.563Z</time>
      </trkpt>
      <trkpt lat="44.93301" lon="5.39011">
        <ele>1097</ele>
        <time>2022-09-22T11:18:34.563Z</time>
      </trkpt>
      <trkpt lat="44.93303" lon="5.39012">
        <ele>1097</ele>
        <time>2022-09-22T11:18:35.562Z</time>
      </trkpt>
      <trkpt lat="44.93304" lon="5.39013">
        <ele>1097</ele>
        <time>2022-09-22T11:18:36.562Z</time>
      </trkpt>
      <trkpt lat="44.93305" lon="5.39014">
        <ele>1097</ele>
        <time>2022-09-22T11:18:37.563Z</time>
      </trkpt>
      <trkpt lat="44.93307" lon="5.39014">
        <ele>1098</ele>
        <time>2022-09-22T11:18:38.563Z</time>
      </trkpt>
      <trkpt lat="44.93308" lon="5.39015">
        <ele>1098</ele>
        <time>2022-09-22T11:18:39.563Z</time>
      </trkpt>
      <trkpt lat="44.93309" lon="5.39016">
        <ele>1098</ele>
        <time>2022-09-22T11:18:40.563Z</time>
      </trkpt>
      <trkpt lat="44.93311" lon="5.39017">
        <ele>1098</ele>
        <time>2022-09-22T11:18:41.563Z</time>
      </trkpt>
      <trkpt lat="44.93311" lon="5.39018">
        <ele>1098</ele>
        <time>2022-09-22T11:18:42.562Z</time>
      </trkpt>
      <trkpt lat="44.93312" lon="5.3902">
        <ele>1098</ele>
        <time>2022-09-22T11:18:43.563Z</time>
      </trkpt>
      <trkpt lat="44.93313" lon="5.39021">
        <ele>1099</ele>
        <time>2022-09-22T11:18:44.563Z</time>
      </trkpt>
      <trkpt lat="44.93314" lon="5.39023">
        <ele>1099</ele>
        <time>2022-09-22T11:18:45.563Z</time>
      </trkpt>
      <trkpt lat="44.93315" lon="5.39024">
        <ele>1099</ele>
        <time>2022-09-22T11:18:46.563Z</time>
      </trkpt>
      <trkpt lat="44.93316" lon="5.39026">
        <ele>1099</ele>
        <time>2022-09-22T11:18:47.563Z</time>
      </trkpt>
      <trkpt lat="44.93317" lon="5.39028">
        <ele>1099</ele>
        <time>2022-09-22T11:18:48.563Z</time>
      </trkpt>
      <trkpt lat="44.93317" lon="5.39029">
        <ele>1100</ele>
        <time>2022-09-22T11:18:49.562Z</time>
      </trkpt>
      <trkpt lat="44.93318" lon="5.39031">
        <ele>1100</ele>
        <time>2022-09-22T11:18:50.563Z</time>
      </trkpt>
      <trkpt lat="44.93318" lon="5.39032">
        <ele>1100</ele>
        <time>2022-09-22T11:18:51.563Z</time>
      </trkpt>
      <trkpt lat="44.93319" lon="5.39034">
        <ele>1100</ele>
        <time>2022-09-22T11:18:52.563Z</time>
      </trkpt>
      <trkpt lat="44.93319" lon="5.39036">
        <ele>1100</ele>
        <time>2022-09-22T11:18:53.562Z</time>
      </trkpt>
      <trkpt lat="44.9332" lon="5.39037">
        <ele>1100</ele>
        <time>2022-09-22T11:18:54.563Z</time>
      </trkpt>
      <trkpt lat="44.93322" lon="5.39039">
        <ele>1101</ele>
        <time>2022-09-22T11:18:55.562Z</time>
      </trkpt>
      <trkpt lat="44.93323" lon="5.3904">
        <ele>1101</ele>
        <time>2022-09-22T11:18:56.562Z</time>
      </trkpt>
      <trkpt lat="44.93323" lon="5.39041">
        <ele>1102</ele>
        <time>2022-09-22T11:18:57.563Z</time>
      </trkpt>
      <trkpt lat="44.93324" lon="5.39042">
        <ele>1102</ele>
        <time>2022-09-22T11:18:58.563Z</time>
      </trkpt>
      <trkpt lat="44.93325" lon="5.39043">
        <ele>1102</ele>
        <time>2022-09-22T11:18:59.563Z</time>
      </trkpt>
      <trkpt lat="44.93326" lon="5.39045">
        <ele>1102</ele>
        <time>2022-09-22T11:19:00.562Z</time>
      </trkpt>
      <trkpt lat="44.93328" lon="5.39046">
        <ele>1101</ele>
        <time>2022-09-22T11:19:01.563Z</time>
      </trkpt>
      <trkpt lat="44.93329" lon="5.39047">
        <ele>1101</ele>
        <time>2022-09-22T11:19:02.563Z</time>
      </trkpt>
      <trkpt lat="44.9333" lon="5.39049">
        <ele>1102</ele>
        <time>2022-09-22T11:19:03.563Z</time>
      </trkpt>
      <trkpt lat="44.93331" lon="5.3905">
        <ele>1102</ele>
        <time>2022-09-22T11:19:04.563Z</time>
      </trkpt>
      <trkpt lat="44.93332" lon="5.39052">
        <ele>1102</ele>
        <time>2022-09-22T11:19:05.563Z</time>
      </trkpt>
      <trkpt lat="44.93333" lon="5.39053">
        <ele>1102</ele>
        <time>2022-09-22T11:19:06.563Z</time>
      </trkpt>
      <trkpt lat="44.93334" lon="5.39055">
        <ele>1103</ele>
        <time>2022-09-22T11:19:07.563Z</time>
      </trkpt>
      <trkpt lat="44.93335" lon="5.39056">
        <ele>1103</ele>
        <time>2022-09-22T11:19:08.563Z</time>
      </trkpt>
      <trkpt lat="44.93335" lon="5.39058">
        <ele>1103</ele>
        <time>2022-09-22T11:19:09.563Z</time>
      </trkpt>
      <trkpt lat="44.93335" lon="5.3906">
        <ele>1103</ele>
        <time>2022-09-22T11:19:10.562Z</time>
      </trkpt>
      <trkpt lat="44.93335" lon="5.39062">
        <ele>1103</ele>
        <time>2022-09-22T11:19:11.563Z</time>
      </trkpt>
      <trkpt lat="44.93334" lon="5.39064">
        <ele>1103</ele>
        <time>2022-09-22T11:19:12.563Z</time>
      </trkpt>
      <trkpt lat="44.93334" lon="5.39065">
        <ele>1104</ele>
        <time>2022-09-22T11:19:13.563Z</time>
      </trkpt>
      <trkpt lat="44.93333" lon="5.39066">
        <ele>1104</ele>
        <time>2022-09-22T11:19:14.562Z</time>
      </trkpt>
      <trkpt lat="44.93331" lon="5.39067">
        <ele>1104</ele>
        <time>2022-09-22T11:19:15.563Z</time>
      </trkpt>
      <trkpt lat="44.9333" lon="5.39067">
        <ele>1105</ele>
        <time>2022-09-22T11:19:16.563Z</time>
      </trkpt>
      <trkpt lat="44.93329" lon="5.39067">
        <ele>1105</ele>
        <time>2022-09-22T11:19:17.563Z</time>
      </trkpt>
      <trkpt lat="44.93328" lon="5.39068">
        <ele>1105</ele>
        <time>2022-09-22T11:19:18.563Z</time>
      </trkpt>
      <trkpt lat="44.93326" lon="5.39068">
        <ele>1105</ele>
        <time>2022-09-22T11:19:19.562Z</time>
      </trkpt>
      <trkpt lat="44.93325" lon="5.39069">
        <ele>1106</ele>
        <time>2022-09-22T11:19:20.563Z</time>
      </trkpt>
      <trkpt lat="44.93323" lon="5.3907">
        <ele>1106</ele>
        <time>2022-09-22T11:19:21.563Z</time>
      </trkpt>
      <trkpt lat="44.93322" lon="5.39071">
        <ele>1107</ele>
        <time>2022-09-22T11:19:22.563Z</time>
      </trkpt>
      <trkpt lat="44.93321" lon="5.39071">
        <ele>1107</ele>
        <time>2022-09-22T11:19:23.563Z</time>
      </trkpt>
      <trkpt lat="44.9332" lon="5.39072">
        <ele>1107</ele>
        <time>2022-09-22T11:19:24.563Z</time>
      </trkpt>
      <trkpt lat="44.93318" lon="5.39073">
        <ele>1107</ele>
        <time>2022-09-22T11:19:25.563Z</time>
      </trkpt>
      <trkpt lat="44.93317" lon="5.39074">
        <ele>1108</ele>
        <time>2022-09-22T11:19:26.563Z</time>
      </trkpt>
      <trkpt lat="44.93314" lon="5.39075">
        <ele>1108</ele>
        <time>2022-09-22T11:19:27.563Z</time>
      </trkpt>
      <trkpt lat="44.93311" lon="5.39075">
        <ele>1109</ele>
        <time>2022-09-22T11:19:28.563Z</time>
      </trkpt>
      <trkpt lat="44.93307" lon="5.39076">
        <ele>1109</ele>
        <time>2022-09-22T11:19:29.563Z</time>
      </trkpt>
      <trkpt lat="44.93303" lon="5.39076">
        <ele>1109</ele>
        <time>2022-09-22T11:19:30.563Z</time>
      </trkpt>
      <trkpt lat="44.93299" lon="5.39075">
        <ele>1109</ele>
        <time>2022-09-22T11:19:31.563Z</time>
      </trkpt>
      <trkpt lat="44.93295" lon="5.39075">
        <ele>1109</ele>
        <time>2022-09-22T11:19:32.563Z</time>
      </trkpt>
      <trkpt lat="44.9329" lon="5.39075">
        <ele>1109</ele>
        <time>2022-09-22T11:19:33.563Z</time>
      </trkpt>
      <trkpt lat="44.93284" lon="5.39074">
        <ele>1109</ele>
        <time>2022-09-22T11:19:34.563Z</time>
      </trkpt>
      <trkpt lat="44.93279" lon="5.39074">
        <ele>1109</ele>
        <time>2022-09-22T11:19:35.563Z</time>
      </trkpt>
      <trkpt lat="44.93274" lon="5.39075">
        <ele>1108</ele>
        <time>2022-09-22T11:19:36.563Z</time>
      </trkpt>
      <trkpt lat="44.93269" lon="5.39077">
        <ele>1108</ele>
        <time>2022-09-22T11:19:37.562Z</time>
      </trkpt>
      <trkpt lat="44.93266" lon="5.39078">
        <ele>1107</ele>
        <time>2022-09-22T11:19:38.563Z</time>
      </trkpt>
      <trkpt lat="44.93264" lon="5.3908">
        <ele>1107</ele>
        <time>2022-09-22T11:19:39.563Z</time>
      </trkpt>
      <trkpt lat="44.93262" lon="5.39082">
        <ele>1107</ele>
        <time>2022-09-22T11:19:40.563Z</time>
      </trkpt>
      <trkpt lat="44.9326" lon="5.39083">
        <ele>1107</ele>
        <time>2022-09-22T11:19:41.563Z</time>
      </trkpt>
      <trkpt lat="44.93258" lon="5.39084">
        <ele>1107</ele>
        <time>2022-09-22T11:19:42.563Z</time>
      </trkpt>
      <trkpt lat="44.93256" lon="5.39083">
        <ele>1107</ele>
        <time>2022-09-22T11:19:43.563Z</time>
      </trkpt>
      <trkpt lat="44.93255" lon="5.39083">
        <ele>1107</ele>
        <time>2022-09-22T11:19:44.563Z</time>
      </trkpt>
      <trkpt lat="44.93254" lon="5.39082">
        <ele>1107</ele>
        <time>2022-09-22T11:19:45.563Z</time>
      </trkpt>
      <trkpt lat="44.93253" lon="5.39082">
        <ele>1107</ele>
        <time>2022-09-22T11:19:46.563Z</time>
      </trkpt>
      <trkpt lat="44.93251" lon="5.39081">
        <ele>1107</ele>
        <time>2022-09-22T11:19:47.563Z</time>
      </trkpt>
      <trkpt lat="44.9325" lon="5.39081">
        <ele>1106</ele>
        <time>2022-09-22T11:19:48.563Z</time>
      </trkpt>
      <trkpt lat="44.93249" lon="5.3908">
        <ele>1106</ele>
        <time>2022-09-22T11:19:49.563Z</time>
      </trkpt>
      <trkpt lat="44.93247" lon="5.3908">
        <ele>1106</ele>
        <time>2022-09-22T11:19:50.563Z</time>
      </trkpt>
      <trkpt lat="44.93246" lon="5.3908">
        <ele>1106</ele>
        <time>2022-09-22T11:19:51.563Z</time>
      </trkpt>
      <trkpt lat="44.93244" lon="5.3908">
        <ele>1106</ele>
        <time>2022-09-22T11:19:52.562Z</time>
      </trkpt>
      <trkpt lat="44.93243" lon="5.3908">
        <ele>1106</ele>
        <time>2022-09-22T11:19:53.563Z</time>
      </trkpt>
      <trkpt lat="44.93242" lon="5.3908">
        <ele>1106</ele>
        <time>2022-09-22T11:19:54.563Z</time>
      </trkpt>
      <trkpt lat="44.9324" lon="5.39079">
        <ele>1106</ele>
        <time>2022-09-22T11:19:55.563Z</time>
      </trkpt>
      <trkpt lat="44.93239" lon="5.3908">
        <ele>1106</ele>
        <time>2022-09-22T11:19:56.563Z</time>
      </trkpt>
      <trkpt lat="44.93237" lon="5.3908">
        <ele>1106</ele>
        <time>2022-09-22T11:19:57.562Z</time>
      </trkpt>
      <trkpt lat="44.93236" lon="5.39079">
        <ele>1107</ele>
        <time>2022-09-22T11:19:58.563Z</time>
      </trkpt>
      <trkpt lat="44.93234" lon="5.39079">
        <ele>1106</ele>
        <time>2022-09-22T11:19:59.562Z</time>
      </trkpt>
      <trkpt lat="44.93233" lon="5.39079">
        <ele>1106</ele>
        <time>2022-09-22T11:20:00.563Z</time>
      </trkpt>
      <trkpt lat="44.93231" lon="5.39079">
        <ele>1106</ele>
        <time>2022-09-22T11:20:01.563Z</time>
      </trkpt>
      <trkpt lat="44.9323" lon="5.39079">
        <ele>1106</ele>
        <time>2022-09-22T11:20:02.563Z</time>
      </trkpt>
      <trkpt lat="44.93229" lon="5.39078">
        <ele>1106</ele>
        <time>2022-09-22T11:20:03.563Z</time>
      </trkpt>
      <trkpt lat="44.93227" lon="5.39077">
        <ele>1105</ele>
        <time>2022-09-22T11:20:04.563Z</time>
      </trkpt>
      <trkpt lat="44.93226" lon="5.39077">
        <ele>1105</ele>
        <time>2022-09-22T11:20:05.563Z</time>
      </trkpt>
      <trkpt lat="44.93225" lon="5.39076">
        <ele>1106</ele>
        <time>2022-09-22T11:20:06.562Z</time>
      </trkpt>
      <trkpt lat="44.93223" lon="5.39076">
        <ele>1105</ele>
        <time>2022-09-22T11:20:07.562Z</time>
      </trkpt>
      <trkpt lat="44.93222" lon="5.39076">
        <ele>1105</ele>
        <time>2022-09-22T11:20:08.563Z</time>
      </trkpt>
      <trkpt lat="44.9322" lon="5.39076">
        <ele>1106</ele>
        <time>2022-09-22T11:20:09.563Z</time>
      </trkpt>
      <trkpt lat="44.93219" lon="5.39077">
        <ele>1106</ele>
        <time>2022-09-22T11:20:10.563Z</time>
      </trkpt>
      <trkpt lat="44.93217" lon="5.39077">
        <ele>1106</ele>
        <time>2022-09-22T11:20:11.563Z</time>
      </trkpt>
      <trkpt lat="44.93216" lon="5.39078">
        <ele>1107</ele>
        <time>2022-09-22T11:20:12.563Z</time>
      </trkpt>
      <trkpt lat="44.93215" lon="5.39078">
        <ele>1107</ele>
        <time>2022-09-22T11:20:13.562Z</time>
      </trkpt>
      <trkpt lat="44.93213" lon="5.39078">
        <ele>1107</ele>
        <time>2022-09-22T11:20:14.563Z</time>
      </trkpt>
      <trkpt lat="44.93212" lon="5.39078">
        <ele>1107</ele>
        <time>2022-09-22T11:20:15.563Z</time>
      </trkpt>
      <trkpt lat="44.9321" lon="5.39079">
        <ele>1107</ele>
        <time>2022-09-22T11:20:16.563Z</time>
      </trkpt>
      <trkpt lat="44.93209" lon="5.39079">
        <ele>1107</ele>
        <time>2022-09-22T11:20:17.563Z</time>
      </trkpt>
      <trkpt lat="44.93208" lon="5.39079">
        <ele>1107</ele>
        <time>2022-09-22T11:20:18.563Z</time>
      </trkpt>
      <trkpt lat="44.93206" lon="5.39078">
        <ele>1108</ele>
        <time>2022-09-22T11:20:19.563Z</time>
      </trkpt>
      <trkpt lat="44.93205" lon="5.39078">
        <ele>1108</ele>
        <time>2022-09-22T11:20:20.563Z</time>
      </trkpt>
      <trkpt lat="44.93204" lon="5.39077">
        <ele>1109</ele>
        <time>2022-09-22T11:20:21.562Z</time>
      </trkpt>
      <trkpt lat="44.93202" lon="5.39077">
        <ele>1109</ele>
        <time>2022-09-22T11:20:22.563Z</time>
      </trkpt>
      <trkpt lat="44.93201" lon="5.39076">
        <ele>1109</ele>
        <time>2022-09-22T11:20:23.562Z</time>
      </trkpt>
      <trkpt lat="44.932" lon="5.39075">
        <ele>1109</ele>
        <time>2022-09-22T11:20:24.563Z</time>
      </trkpt>
      <trkpt lat="44.93199" lon="5.39075">
        <ele>1110</ele>
        <time>2022-09-22T11:20:25.562Z</time>
      </trkpt>
      <trkpt lat="44.93198" lon="5.39074">
        <ele>1110</ele>
        <time>2022-09-22T11:20:26.562Z</time>
      </trkpt>
      <trkpt lat="44.93197" lon="5.39073">
        <ele>1111</ele>
        <time>2022-09-22T11:20:27.563Z</time>
      </trkpt>
      <trkpt lat="44.93195" lon="5.39072">
        <ele>1112</ele>
        <time>2022-09-22T11:20:28.563Z</time>
      </trkpt>
      <trkpt lat="44.93194" lon="5.39071">
        <ele>1113</ele>
        <time>2022-09-22T11:20:29.563Z</time>
      </trkpt>
      <trkpt lat="44.93193" lon="5.39071">
        <ele>1113</ele>
        <time>2022-09-22T11:20:30.563Z</time>
      </trkpt>
      <trkpt lat="44.93192" lon="5.3907">
        <ele>1113</ele>
        <time>2022-09-22T11:20:31.563Z</time>
      </trkpt>
      <trkpt lat="44.93191" lon="5.39069">
        <ele>1113</ele>
        <time>2022-09-22T11:20:32.563Z</time>
      </trkpt>
      <trkpt lat="44.9319" lon="5.39067">
        <ele>1113</ele>
        <time>2022-09-22T11:20:33.562Z</time>
      </trkpt>
      <trkpt lat="44.93189" lon="5.39066">
        <ele>1114</ele>
        <time>2022-09-22T11:20:34.563Z</time>
      </trkpt>
      <trkpt lat="44.93187" lon="5.39065">
        <ele>1114</ele>
        <time>2022-09-22T11:20:35.563Z</time>
      </trkpt>
      <trkpt lat="44.93186" lon="5.39064">
        <ele>1114</ele>
        <time>2022-09-22T11:20:36.563Z</time>
      </trkpt>
      <trkpt lat="44.93185" lon="5.39063">
        <ele>1115</ele>
        <time>2022-09-22T11:20:37.562Z</time>
      </trkpt>
      <trkpt lat="44.93184" lon="5.39063">
        <ele>1115</ele>
        <time>2022-09-22T11:20:38.563Z</time>
      </trkpt>
      <trkpt lat="44.93183" lon="5.39062">
        <ele>1115</ele>
        <time>2022-09-22T11:20:39.563Z</time>
      </trkpt>
      <trkpt lat="44.93182" lon="5.39061">
        <ele>1115</ele>
        <time>2022-09-22T11:20:40.563Z</time>
      </trkpt>
      <trkpt lat="44.93181" lon="5.3906">
        <ele>1115</ele>
        <time>2022-09-22T11:20:41.562Z</time>
      </trkpt>
      <trkpt lat="44.93179" lon="5.39059">
        <ele>1115</ele>
        <time>2022-09-22T11:20:42.563Z</time>
      </trkpt>
      <trkpt lat="44.93178" lon="5.39058">
        <ele>1116</ele>
        <time>2022-09-22T11:20:43.563Z</time>
      </trkpt>
      <trkpt lat="44.93177" lon="5.39057">
        <ele>1116</ele>
        <time>2022-09-22T11:20:44.563Z</time>
      </trkpt>
      <trkpt lat="44.93176" lon="5.39056">
        <ele>1117</ele>
        <time>2022-09-22T11:20:45.562Z</time>
      </trkpt>
      <trkpt lat="44.93175" lon="5.39055">
        <ele>1117</ele>
        <time>2022-09-22T11:20:46.562Z</time>
      </trkpt>
      <trkpt lat="44.93173" lon="5.39055">
        <ele>1117</ele>
        <time>2022-09-22T11:20:47.562Z</time>
      </trkpt>
      <trkpt lat="44.93172" lon="5.39054">
        <ele>1118</ele>
        <time>2022-09-22T11:20:48.563Z</time>
      </trkpt>
      <trkpt lat="44.9317" lon="5.39054">
        <ele>1118</ele>
        <time>2022-09-22T11:20:49.562Z</time>
      </trkpt>
      <trkpt lat="44.93169" lon="5.39054">
        <ele>1118</ele>
        <time>2022-09-22T11:20:50.563Z</time>
      </trkpt>
      <trkpt lat="44.93167" lon="5.39053">
        <ele>1118</ele>
        <time>2022-09-22T11:20:51.563Z</time>
      </trkpt>
      <trkpt lat="44.93166" lon="5.39053">
        <ele>1118</ele>
        <time>2022-09-22T11:20:52.562Z</time>
      </trkpt>
      <trkpt lat="44.93164" lon="5.39053">
        <ele>1117</ele>
        <time>2022-09-22T11:20:53.563Z</time>
      </trkpt>
      <trkpt lat="44.93163" lon="5.39052">
        <ele>1117</ele>
        <time>2022-09-22T11:20:54.563Z</time>
      </trkpt>
      <trkpt lat="44.93161" lon="5.39051">
        <ele>1117</ele>
        <time>2022-09-22T11:20:55.563Z</time>
      </trkpt>
      <trkpt lat="44.9316" lon="5.39051">
        <ele>1116</ele>
        <time>2022-09-22T11:20:56.563Z</time>
      </trkpt>
      <trkpt lat="44.93158" lon="5.39051">
        <ele>1117</ele>
        <time>2022-09-22T11:20:57.563Z</time>
      </trkpt>
      <trkpt lat="44.93157" lon="5.3905">
        <ele>1117</ele>
        <time>2022-09-22T11:20:58.562Z</time>
      </trkpt>
      <trkpt lat="44.93155" lon="5.3905">
        <ele>1117</ele>
        <time>2022-09-22T11:20:59.563Z</time>
      </trkpt>
      <trkpt lat="44.93154" lon="5.39049">
        <ele>1118</ele>
        <time>2022-09-22T11:21:00.563Z</time>
      </trkpt>
      <trkpt lat="44.93152" lon="5.39049">
        <ele>1118</ele>
        <time>2022-09-22T11:21:01.563Z</time>
      </trkpt>
      <trkpt lat="44.93151" lon="5.39049">
        <ele>1118</ele>
        <time>2022-09-22T11:21:02.563Z</time>
      </trkpt>
      <trkpt lat="44.93149" lon="5.39048">
        <ele>1118</ele>
        <time>2022-09-22T11:21:03.563Z</time>
      </trkpt>
      <trkpt lat="44.93148" lon="5.39048">
        <ele>1117</ele>
        <time>2022-09-22T11:21:04.563Z</time>
      </trkpt>
      <trkpt lat="44.93146" lon="5.39048">
        <ele>1117</ele>
        <time>2022-09-22T11:21:05.562Z</time>
      </trkpt>
      <trkpt lat="44.93145" lon="5.39048">
        <ele>1118</ele>
        <time>2022-09-22T11:21:06.563Z</time>
      </trkpt>
      <trkpt lat="44.93143" lon="5.39048">
        <ele>1118</ele>
        <time>2022-09-22T11:21:07.563Z</time>
      </trkpt>
      <trkpt lat="44.93142" lon="5.39048">
        <ele>1118</ele>
        <time>2022-09-22T11:21:08.562Z</time>
      </trkpt>
      <trkpt lat="44.9314" lon="5.39048">
        <ele>1118</ele>
        <time>2022-09-22T11:21:09.563Z</time>
      </trkpt>
      <trkpt lat="44.93139" lon="5.39049">
        <ele>1118</ele>
        <time>2022-09-22T11:21:10.563Z</time>
      </trkpt>
      <trkpt lat="44.93137" lon="5.39049">
        <ele>1119</ele>
        <time>2022-09-22T11:21:11.563Z</time>
      </trkpt>
      <trkpt lat="44.93135" lon="5.3905">
        <ele>1119</ele>
        <time>2022-09-22T11:21:12.562Z</time>
      </trkpt>
      <trkpt lat="44.93134" lon="5.3905">
        <ele>1119</ele>
        <time>2022-09-22T11:21:13.563Z</time>
      </trkpt>
      <trkpt lat="44.93132" lon="5.39051">
        <ele>1120</ele>
        <time>2022-09-22T11:21:14.563Z</time>
      </trkpt>
      <trkpt lat="44.93131" lon="5.39052">
        <ele>1120</ele>
        <time>2022-09-22T11:21:15.563Z</time>
      </trkpt>
      <trkpt lat="44.9313" lon="5.39053">
        <ele>1120</ele>
        <time>2022-09-22T11:21:16.563Z</time>
      </trkpt>
      <trkpt lat="44.93128" lon="5.39054">
        <ele>1120</ele>
        <time>2022-09-22T11:21:17.563Z</time>
      </trkpt>
      <trkpt lat="44.93127" lon="5.39054">
        <ele>1120</ele>
        <time>2022-09-22T11:21:18.562Z</time>
      </trkpt>
      <trkpt lat="44.93125" lon="5.39055">
        <ele>1121</ele>
        <time>2022-09-22T11:21:19.563Z</time>
      </trkpt>
      <trkpt lat="44.93124" lon="5.39056">
        <ele>1120</ele>
        <time>2022-09-22T11:21:20.562Z</time>
      </trkpt>
      <trkpt lat="44.93122" lon="5.39057">
        <ele>1120</ele>
        <time>2022-09-22T11:21:21.563Z</time>
      </trkpt>
      <trkpt lat="44.9312" lon="5.39058">
        <ele>1120</ele>
        <time>2022-09-22T11:21:22.562Z</time>
      </trkpt>
      <trkpt lat="44.93118" lon="5.39059">
        <ele>1120</ele>
        <time>2022-09-22T11:21:23.563Z</time>
      </trkpt>
      <trkpt lat="44.93117" lon="5.3906">
        <ele>1120</ele>
        <time>2022-09-22T11:21:24.563Z</time>
      </trkpt>
      <trkpt lat="44.93114" lon="5.39061">
        <ele>1120</ele>
        <time>2022-09-22T11:21:25.563Z</time>
      </trkpt>
      <trkpt lat="44.93112" lon="5.39063">
        <ele>1120</ele>
        <time>2022-09-22T11:21:26.563Z</time>
      </trkpt>
      <trkpt lat="44.9311" lon="5.39065">
        <ele>1119</ele>
        <time>2022-09-22T11:21:27.562Z</time>
      </trkpt>
      <trkpt lat="44.93109" lon="5.39066">
        <ele>1119</ele>
        <time>2022-09-22T11:21:28.563Z</time>
      </trkpt>
      <trkpt lat="44.93107" lon="5.39068">
        <ele>1118</ele>
        <time>2022-09-22T11:21:29.563Z</time>
      </trkpt>
      <trkpt lat="44.93104" lon="5.39071">
        <ele>1118</ele>
        <time>2022-09-22T11:21:30.563Z</time>
      </trkpt>
      <trkpt lat="44.93102" lon="5.39074">
        <ele>1117</ele>
        <time>2022-09-22T11:21:31.562Z</time>
      </trkpt>
      <trkpt lat="44.93099" lon="5.39077">
        <ele>1116</ele>
        <time>2022-09-22T11:21:32.563Z</time>
      </trkpt>
      <trkpt lat="44.93096" lon="5.39081">
        <ele>1116</ele>
        <time>2022-09-22T11:21:33.562Z</time>
      </trkpt>
      <trkpt lat="44.93093" lon="5.39085">
        <ele>1116</ele>
        <time>2022-09-22T11:21:34.563Z</time>
      </trkpt>
      <trkpt lat="44.93091" lon="5.3909">
        <ele>1116</ele>
        <time>2022-09-22T11:21:35.562Z</time>
      </trkpt>
      <trkpt lat="44.93088" lon="5.39095">
        <ele>1116</ele>
        <time>2022-09-22T11:21:36.563Z</time>
      </trkpt>
      <trkpt lat="44.93086" lon="5.391">
        <ele>1116</ele>
        <time>2022-09-22T11:21:37.563Z</time>
      </trkpt>
      <trkpt lat="44.93083" lon="5.39107">
        <ele>1116</ele>
        <time>2022-09-22T11:21:38.563Z</time>
      </trkpt>
      <trkpt lat="44.93081" lon="5.39113">
        <ele>1116</ele>
        <time>2022-09-22T11:21:39.563Z</time>
      </trkpt>
      <trkpt lat="44.93078" lon="5.39118">
        <ele>1115</ele>
        <time>2022-09-22T11:21:40.563Z</time>
      </trkpt>
      <trkpt lat="44.93076" lon="5.39123">
        <ele>1115</ele>
        <time>2022-09-22T11:21:41.563Z</time>
      </trkpt>
      <trkpt lat="44.93075" lon="5.39127">
        <ele>1114</ele>
        <time>2022-09-22T11:21:42.562Z</time>
      </trkpt>
      <trkpt lat="44.93074" lon="5.39132">
        <ele>1114</ele>
        <time>2022-09-22T11:21:43.563Z</time>
      </trkpt>
      <trkpt lat="44.93072" lon="5.39136">
        <ele>1113</ele>
        <time>2022-09-22T11:21:44.563Z</time>
      </trkpt>
      <trkpt lat="44.93071" lon="5.3914">
        <ele>1113</ele>
        <time>2022-09-22T11:21:45.562Z</time>
      </trkpt>
      <trkpt lat="44.9307" lon="5.39143">
        <ele>1113</ele>
        <time>2022-09-22T11:21:46.563Z</time>
      </trkpt>
      <trkpt lat="44.93069" lon="5.39147">
        <ele>1112</ele>
        <time>2022-09-22T11:21:47.562Z</time>
      </trkpt>
      <trkpt lat="44.93067" lon="5.39152">
        <ele>1112</ele>
        <time>2022-09-22T11:21:48.563Z</time>
      </trkpt>
      <trkpt lat="44.93065" lon="5.39157">
        <ele>1111</ele>
        <time>2022-09-22T11:21:49.563Z</time>
      </trkpt>
      <trkpt lat="44.93061" lon="5.39163">
        <ele>1111</ele>
        <time>2022-09-22T11:21:50.563Z</time>
      </trkpt>
      <trkpt lat="44.93059" lon="5.39166">
        <ele>1110</ele>
        <time>2022-09-22T11:21:51.563Z</time>
      </trkpt>
      <trkpt lat="44.93057" lon="5.39169">
        <ele>1110</ele>
        <time>2022-09-22T11:21:52.563Z</time>
      </trkpt>
      <trkpt lat="44.93056" lon="5.39171">
        <ele>1109</ele>
        <time>2022-09-22T11:21:53.563Z</time>
      </trkpt>
      <trkpt lat="44.93055" lon="5.39173">
        <ele>1109</ele>
        <time>2022-09-22T11:21:54.563Z</time>
      </trkpt>
      <trkpt lat="44.93054" lon="5.39174">
        <ele>1109</ele>
        <time>2022-09-22T11:21:55.563Z</time>
      </trkpt>
      <trkpt lat="44.93052" lon="5.39176">
        <ele>1109</ele>
        <time>2022-09-22T11:21:56.563Z</time>
      </trkpt>
      <trkpt lat="44.93052" lon="5.39177">
        <ele>1110</ele>
        <time>2022-09-22T11:21:57.562Z</time>
      </trkpt>
      <trkpt lat="44.93052" lon="5.39178">
        <ele>1110</ele>
        <time>2022-09-22T11:21:58.563Z</time>
      </trkpt>
      <trkpt lat="44.93052" lon="5.39178">
        <ele>1110</ele>
        <time>2022-09-22T11:21:59.563Z</time>
      </trkpt>
      <trkpt lat="44.93051" lon="5.39178">
        <ele>1110</ele>
        <time>2022-09-22T11:22:00.563Z</time>
      </trkpt>
      <trkpt lat="44.93051" lon="5.39177">
        <ele>1109</ele>
        <time>2022-09-22T11:22:06.673Z</time>
      </trkpt>
      <trkpt lat="44.93051" lon="5.39177">
        <ele>1109</ele>
        <time>2022-09-22T11:22:07.674Z</time>
      </trkpt>
      <trkpt lat="44.93051" lon="5.39176">
        <ele>1109</ele>
        <time>2022-09-22T11:22:08.673Z</time>
      </trkpt>
      <trkpt lat="44.9305" lon="5.39176">
        <ele>1109</ele>
        <time>2022-09-22T11:22:09.673Z</time>
      </trkpt>
      <trkpt lat="44.9305" lon="5.39173">
        <ele>1100</ele>
        <time>2022-09-22T11:23:12.820Z</time>
      </trkpt>
      <trkpt lat="44.93049" lon="5.39173">
        <ele>1100</ele>
        <time>2022-09-22T11:23:13.819Z</time>
      </trkpt>
      <trkpt lat="44.93048" lon="5.39172">
        <ele>1100</ele>
        <time>2022-09-22T11:23:14.820Z</time>
      </trkpt>
      <trkpt lat="44.93047" lon="5.39171">
        <ele>1100</ele>
        <time>2022-09-22T11:23:15.820Z</time>
      </trkpt>
      <trkpt lat="44.93046" lon="5.3917">
        <ele>1100</ele>
        <time>2022-09-22T11:23:16.820Z</time>
      </trkpt>
      <trkpt lat="44.93044" lon="5.39169">
        <ele>1100</ele>
        <time>2022-09-22T11:23:17.819Z</time>
      </trkpt>
      <trkpt lat="44.93042" lon="5.39168">
        <ele>1100</ele>
        <time>2022-09-22T11:23:18.819Z</time>
      </trkpt>
      <trkpt lat="44.9304" lon="5.39167">
        <ele>1100</ele>
        <time>2022-09-22T11:23:19.820Z</time>
      </trkpt>
      <trkpt lat="44.93038" lon="5.39166">
        <ele>1100</ele>
        <time>2022-09-22T11:23:20.820Z</time>
      </trkpt>
      <trkpt lat="44.93036" lon="5.39165">
        <ele>1100</ele>
        <time>2022-09-22T11:23:21.820Z</time>
      </trkpt>
      <trkpt lat="44.93035" lon="5.39165">
        <ele>1100</ele>
        <time>2022-09-22T11:23:22.819Z</time>
      </trkpt>
      <trkpt lat="44.93033" lon="5.39164">
        <ele>1100</ele>
        <time>2022-09-22T11:23:23.820Z</time>
      </trkpt>
      <trkpt lat="44.93032" lon="5.39163">
        <ele>1100</ele>
        <time>2022-09-22T11:23:24.820Z</time>
      </trkpt>
      <trkpt lat="44.9303" lon="5.39162">
        <ele>1100</ele>
        <time>2022-09-22T11:23:25.820Z</time>
      </trkpt>
      <trkpt lat="44.93028" lon="5.39162">
        <ele>1100</ele>
        <time>2022-09-22T11:23:26.820Z</time>
      </trkpt>
      <trkpt lat="44.93027" lon="5.3916">
        <ele>1100</ele>
        <time>2022-09-22T11:23:27.820Z</time>
      </trkpt>
      <trkpt lat="44.93025" lon="5.3916">
        <ele>1101</ele>
        <time>2022-09-22T11:23:28.819Z</time>
      </trkpt>
      <trkpt lat="44.93023" lon="5.39159">
        <ele>1101</ele>
        <time>2022-09-22T11:23:29.819Z</time>
      </trkpt>
      <trkpt lat="44.93022" lon="5.39158">
        <ele>1101</ele>
        <time>2022-09-22T11:23:30.819Z</time>
      </trkpt>
      <trkpt lat="44.9302" lon="5.39158">
        <ele>1101</ele>
        <time>2022-09-22T11:23:31.820Z</time>
      </trkpt>
      <trkpt lat="44.93019" lon="5.39157">
        <ele>1101</ele>
        <time>2022-09-22T11:23:32.819Z</time>
      </trkpt>
      <trkpt lat="44.93017" lon="5.39156">
        <ele>1101</ele>
        <time>2022-09-22T11:23:33.819Z</time>
      </trkpt>
      <trkpt lat="44.93016" lon="5.39156">
        <ele>1101</ele>
        <time>2022-09-22T11:23:34.819Z</time>
      </trkpt>
      <trkpt lat="44.93014" lon="5.39155">
        <ele>1101</ele>
        <time>2022-09-22T11:23:35.819Z</time>
      </trkpt>
      <trkpt lat="44.93012" lon="5.39154">
        <ele>1102</ele>
        <time>2022-09-22T11:23:36.820Z</time>
      </trkpt>
      <trkpt lat="44.9301" lon="5.39154">
        <ele>1102</ele>
        <time>2022-09-22T11:23:37.819Z</time>
      </trkpt>
      <trkpt lat="44.93008" lon="5.39153">
        <ele>1103</ele>
        <time>2022-09-22T11:23:38.819Z</time>
      </trkpt>
      <trkpt lat="44.93006" lon="5.39152">
        <ele>1103</ele>
        <time>2022-09-22T11:23:39.820Z</time>
      </trkpt>
      <trkpt lat="44.93004" lon="5.39152">
        <ele>1103</ele>
        <time>2022-09-22T11:23:40.820Z</time>
      </trkpt>
      <trkpt lat="44.93002" lon="5.39151">
        <ele>1103</ele>
        <time>2022-09-22T11:23:41.819Z</time>
      </trkpt>
      <trkpt lat="44.93" lon="5.3915">
        <ele>1103</ele>
        <time>2022-09-22T11:23:42.820Z</time>
      </trkpt>
      <trkpt lat="44.92998" lon="5.3915">
        <ele>1102</ele>
        <time>2022-09-22T11:23:43.820Z</time>
      </trkpt>
      <trkpt lat="44.92996" lon="5.3915">
        <ele>1103</ele>
        <time>2022-09-22T11:23:44.820Z</time>
      </trkpt>
      <trkpt lat="44.92993" lon="5.3915">
        <ele>1103</ele>
        <time>2022-09-22T11:23:45.820Z</time>
      </trkpt>
      <trkpt lat="44.92991" lon="5.39151">
        <ele>1102</ele>
        <time>2022-09-22T11:23:46.820Z</time>
      </trkpt>
      <trkpt lat="44.92989" lon="5.39152">
        <ele>1102</ele>
        <time>2022-09-22T11:23:47.819Z</time>
      </trkpt>
      <trkpt lat="44.92987" lon="5.39154">
        <ele>1102</ele>
        <time>2022-09-22T11:23:48.820Z</time>
      </trkpt>
      <trkpt lat="44.92986" lon="5.39156">
        <ele>1102</ele>
        <time>2022-09-22T11:23:49.819Z</time>
      </trkpt>
      <trkpt lat="44.92984" lon="5.39158">
        <ele>1102</ele>
        <time>2022-09-22T11:23:50.819Z</time>
      </trkpt>
      <trkpt lat="44.92982" lon="5.3916">
        <ele>1102</ele>
        <time>2022-09-22T11:23:51.820Z</time>
      </trkpt>
      <trkpt lat="44.9298" lon="5.39162">
        <ele>1102</ele>
        <time>2022-09-22T11:23:52.820Z</time>
      </trkpt>
      <trkpt lat="44.92979" lon="5.39164">
        <ele>1102</ele>
        <time>2022-09-22T11:23:53.820Z</time>
      </trkpt>
      <trkpt lat="44.92977" lon="5.39167">
        <ele>1102</ele>
        <time>2022-09-22T11:23:54.820Z</time>
      </trkpt>
      <trkpt lat="44.92976" lon="5.39169">
        <ele>1102</ele>
        <time>2022-09-22T11:23:55.820Z</time>
      </trkpt>
      <trkpt lat="44.92974" lon="5.39171">
        <ele>1102</ele>
        <time>2022-09-22T11:23:56.820Z</time>
      </trkpt>
      <trkpt lat="44.92973" lon="5.39173">
        <ele>1102</ele>
        <time>2022-09-22T11:23:57.820Z</time>
      </trkpt>
      <trkpt lat="44.92972" lon="5.39175">
        <ele>1102</ele>
        <time>2022-09-22T11:23:58.820Z</time>
      </trkpt>
      <trkpt lat="44.9297" lon="5.39177">
        <ele>1103</ele>
        <time>2022-09-22T11:23:59.820Z</time>
      </trkpt>
      <trkpt lat="44.92969" lon="5.39179">
        <ele>1103</ele>
        <time>2022-09-22T11:24:00.820Z</time>
      </trkpt>
      <trkpt lat="44.92968" lon="5.39182">
        <ele>1103</ele>
        <time>2022-09-22T11:24:01.819Z</time>
      </trkpt>
      <trkpt lat="44.92966" lon="5.39184">
        <ele>1103</ele>
        <time>2022-09-22T11:24:02.820Z</time>
      </trkpt>
      <trkpt lat="44.92965" lon="5.39185">
        <ele>1104</ele>
        <time>2022-09-22T11:24:03.820Z</time>
      </trkpt>
      <trkpt lat="44.92964" lon="5.39186">
        <ele>1104</ele>
        <time>2022-09-22T11:24:04.819Z</time>
      </trkpt>
      <trkpt lat="44.92962" lon="5.39188">
        <ele>1104</ele>
        <time>2022-09-22T11:24:05.820Z</time>
      </trkpt>
      <trkpt lat="44.9296" lon="5.39189">
        <ele>1104</ele>
        <time>2022-09-22T11:24:06.820Z</time>
      </trkpt>
      <trkpt lat="44.92959" lon="5.39189">
        <ele>1105</ele>
        <time>2022-09-22T11:24:07.820Z</time>
      </trkpt>
      <trkpt lat="44.92958" lon="5.3919">
        <ele>1105</ele>
        <time>2022-09-22T11:24:08.819Z</time>
      </trkpt>
      <trkpt lat="44.92957" lon="5.3919">
        <ele>1105</ele>
        <time>2022-09-22T11:24:09.820Z</time>
      </trkpt>
      <trkpt lat="44.92956" lon="5.39192">
        <ele>1105</ele>
        <time>2022-09-22T11:24:10.819Z</time>
      </trkpt>
      <trkpt lat="44.92955" lon="5.39193">
        <ele>1105</ele>
        <time>2022-09-22T11:24:11.819Z</time>
      </trkpt>
      <trkpt lat="44.92954" lon="5.39193">
        <ele>1105</ele>
        <time>2022-09-22T11:24:12.820Z</time>
      </trkpt>
      <trkpt lat="44.92952" lon="5.39194">
        <ele>1105</ele>
        <time>2022-09-22T11:24:13.820Z</time>
      </trkpt>
      <trkpt lat="44.92951" lon="5.39194">
        <ele>1105</ele>
        <time>2022-09-22T11:24:14.819Z</time>
      </trkpt>
      <trkpt lat="44.92949" lon="5.39194">
        <ele>1105</ele>
        <time>2022-09-22T11:24:15.819Z</time>
      </trkpt>
      <trkpt lat="44.92946" lon="5.39193">
        <ele>1105</ele>
        <time>2022-09-22T11:24:16.820Z</time>
      </trkpt>
      <trkpt lat="44.92944" lon="5.39192">
        <ele>1106</ele>
        <time>2022-09-22T11:24:17.820Z</time>
      </trkpt>
      <trkpt lat="44.92942" lon="5.3919">
        <ele>1106</ele>
        <time>2022-09-22T11:24:18.820Z</time>
      </trkpt>
      <trkpt lat="44.9294" lon="5.39188">
        <ele>1107</ele>
        <time>2022-09-22T11:24:19.820Z</time>
      </trkpt>
      <trkpt lat="44.92938" lon="5.39186">
        <ele>1107</ele>
        <time>2022-09-22T11:24:20.820Z</time>
      </trkpt>
      <trkpt lat="44.92935" lon="5.39183">
        <ele>1107</ele>
        <time>2022-09-22T11:24:21.820Z</time>
      </trkpt>
      <trkpt lat="44.92932" lon="5.39179">
        <ele>1107</ele>
        <time>2022-09-22T11:24:22.820Z</time>
      </trkpt>
      <trkpt lat="44.9293" lon="5.39176">
        <ele>1107</ele>
        <time>2022-09-22T11:24:23.820Z</time>
      </trkpt>
      <trkpt lat="44.92928" lon="5.39172">
        <ele>1107</ele>
        <time>2022-09-22T11:24:24.820Z</time>
      </trkpt>
      <trkpt lat="44.92925" lon="5.39168">
        <ele>1107</ele>
        <time>2022-09-22T11:24:25.820Z</time>
      </trkpt>
      <trkpt lat="44.92923" lon="5.39163">
        <ele>1106</ele>
        <time>2022-09-22T11:24:26.820Z</time>
      </trkpt>
      <trkpt lat="44.92921" lon="5.39158">
        <ele>1106</ele>
        <time>2022-09-22T11:24:27.820Z</time>
      </trkpt>
      <trkpt lat="44.92919" lon="5.39152">
        <ele>1105</ele>
        <time>2022-09-22T11:24:28.819Z</time>
      </trkpt>
      <trkpt lat="44.92916" lon="5.39146">
        <ele>1105</ele>
        <time>2022-09-22T11:24:29.819Z</time>
      </trkpt>
      <trkpt lat="44.92912" lon="5.3914">
        <ele>1104</ele>
        <time>2022-09-22T11:24:30.820Z</time>
      </trkpt>
      <trkpt lat="44.92908" lon="5.39132">
        <ele>1104</ele>
        <time>2022-09-22T11:24:31.819Z</time>
      </trkpt>
      <trkpt lat="44.92904" lon="5.39126">
        <ele>1104</ele>
        <time>2022-09-22T11:24:32.820Z</time>
      </trkpt>
      <trkpt lat="44.92901" lon="5.3912">
        <ele>1103</ele>
        <time>2022-09-22T11:24:33.819Z</time>
      </trkpt>
      <trkpt lat="44.92898" lon="5.39112">
        <ele>1103</ele>
        <time>2022-09-22T11:24:34.820Z</time>
      </trkpt>
      <trkpt lat="44.92895" lon="5.39105">
        <ele>1102</ele>
        <time>2022-09-22T11:24:35.820Z</time>
      </trkpt>
      <trkpt lat="44.92892" lon="5.39098">
        <ele>1101</ele>
        <time>2022-09-22T11:24:36.820Z</time>
      </trkpt>
      <trkpt lat="44.92889" lon="5.39092">
        <ele>1101</ele>
        <time>2022-09-22T11:24:37.820Z</time>
      </trkpt>
      <trkpt lat="44.92888" lon="5.39088">
        <ele>1100</ele>
        <time>2022-09-22T11:24:38.819Z</time>
      </trkpt>
      <trkpt lat="44.92886" lon="5.39085">
        <ele>1100</ele>
        <time>2022-09-22T11:24:39.820Z</time>
      </trkpt>
      <trkpt lat="44.92885" lon="5.39082">
        <ele>1099</ele>
        <time>2022-09-22T11:24:40.820Z</time>
      </trkpt>
      <trkpt lat="44.92884" lon="5.39081">
        <ele>1099</ele>
        <time>2022-09-22T11:24:41.820Z</time>
      </trkpt>
      <trkpt lat="44.92883" lon="5.3908">
        <ele>1098</ele>
        <time>2022-09-22T11:24:42.820Z</time>
      </trkpt>
      <trkpt lat="44.92882" lon="5.39079">
        <ele>1098</ele>
        <time>2022-09-22T11:24:43.819Z</time>
      </trkpt>
      <trkpt lat="44.92881" lon="5.39077">
        <ele>1098</ele>
        <time>2022-09-22T11:24:44.820Z</time>
      </trkpt>
      <trkpt lat="44.9288" lon="5.39076">
        <ele>1098</ele>
        <time>2022-09-22T11:24:45.820Z</time>
      </trkpt>
      <trkpt lat="44.92879" lon="5.39074">
        <ele>1098</ele>
        <time>2022-09-22T11:24:46.820Z</time>
      </trkpt>
      <trkpt lat="44.92878" lon="5.39073">
        <ele>1098</ele>
        <time>2022-09-22T11:24:47.820Z</time>
      </trkpt>
      <trkpt lat="44.92877" lon="5.39072">
        <ele>1099</ele>
        <time>2022-09-22T11:24:48.820Z</time>
      </trkpt>
      <trkpt lat="44.92875" lon="5.39071">
        <ele>1098</ele>
        <time>2022-09-22T11:24:49.819Z</time>
      </trkpt>
      <trkpt lat="44.92874" lon="5.3907">
        <ele>1098</ele>
        <time>2022-09-22T11:24:50.820Z</time>
      </trkpt>
      <trkpt lat="44.92872" lon="5.3907">
        <ele>1099</ele>
        <time>2022-09-22T11:24:51.820Z</time>
      </trkpt>
      <trkpt lat="44.92871" lon="5.3907">
        <ele>1099</ele>
        <time>2022-09-22T11:24:52.819Z</time>
      </trkpt>
      <trkpt lat="44.9287" lon="5.39069">
        <ele>1099</ele>
        <time>2022-09-22T11:24:53.820Z</time>
      </trkpt>
      <trkpt lat="44.92868" lon="5.39069">
        <ele>1099</ele>
        <time>2022-09-22T11:24:54.820Z</time>
      </trkpt>
      <trkpt lat="44.92867" lon="5.39068">
        <ele>1099</ele>
        <time>2022-09-22T11:24:55.819Z</time>
      </trkpt>
      <trkpt lat="44.92865" lon="5.39068">
        <ele>1100</ele>
        <time>2022-09-22T11:24:56.820Z</time>
      </trkpt>
      <trkpt lat="44.92864" lon="5.39067">
        <ele>1100</ele>
        <time>2022-09-22T11:24:57.820Z</time>
      </trkpt>
      <trkpt lat="44.92863" lon="5.39066">
        <ele>1100</ele>
        <time>2022-09-22T11:24:58.819Z</time>
      </trkpt>
      <trkpt lat="44.92862" lon="5.39065">
        <ele>1100</ele>
        <time>2022-09-22T11:24:59.819Z</time>
      </trkpt>
      <trkpt lat="44.9286" lon="5.39063">
        <ele>1100</ele>
        <time>2022-09-22T11:25:00.820Z</time>
      </trkpt>
      <trkpt lat="44.92859" lon="5.39063">
        <ele>1099</ele>
        <time>2022-09-22T11:25:01.819Z</time>
      </trkpt>
      <trkpt lat="44.92858" lon="5.39062">
        <ele>1099</ele>
        <time>2022-09-22T11:25:02.820Z</time>
      </trkpt>
      <trkpt lat="44.92856" lon="5.39061">
        <ele>1099</ele>
        <time>2022-09-22T11:25:03.820Z</time>
      </trkpt>
      <trkpt lat="44.92854" lon="5.3906">
        <ele>1099</ele>
        <time>2022-09-22T11:25:04.819Z</time>
      </trkpt>
      <trkpt lat="44.92853" lon="5.39059">
        <ele>1099</ele>
        <time>2022-09-22T11:25:05.820Z</time>
      </trkpt>
      <trkpt lat="44.92852" lon="5.39058">
        <ele>1099</ele>
        <time>2022-09-22T11:25:06.819Z</time>
      </trkpt>
      <trkpt lat="44.9285" lon="5.39055">
        <ele>1099</ele>
        <time>2022-09-22T11:25:07.820Z</time>
      </trkpt>
      <trkpt lat="44.92848" lon="5.39054">
        <ele>1100</ele>
        <time>2022-09-22T11:25:08.820Z</time>
      </trkpt>
      <trkpt lat="44.92847" lon="5.39052">
        <ele>1099</ele>
        <time>2022-09-22T11:25:09.820Z</time>
      </trkpt>
      <trkpt lat="44.92845" lon="5.39051">
        <ele>1099</ele>
        <time>2022-09-22T11:25:10.820Z</time>
      </trkpt>
      <trkpt lat="44.92843" lon="5.3905">
        <ele>1099</ele>
        <time>2022-09-22T11:25:11.820Z</time>
      </trkpt>
      <trkpt lat="44.9284" lon="5.39047">
        <ele>1099</ele>
        <time>2022-09-22T11:25:12.820Z</time>
      </trkpt>
      <trkpt lat="44.92838" lon="5.39045">
        <ele>1099</ele>
        <time>2022-09-22T11:25:13.819Z</time>
      </trkpt>
      <trkpt lat="44.92835" lon="5.39043">
        <ele>1099</ele>
        <time>2022-09-22T11:25:14.820Z</time>
      </trkpt>
      <trkpt lat="44.92833" lon="5.3904">
        <ele>1099</ele>
        <time>2022-09-22T11:25:15.819Z</time>
      </trkpt>
      <trkpt lat="44.9283" lon="5.39038">
        <ele>1099</ele>
        <time>2022-09-22T11:25:16.820Z</time>
      </trkpt>
      <trkpt lat="44.92827" lon="5.39036">
        <ele>1099</ele>
        <time>2022-09-22T11:25:17.819Z</time>
      </trkpt>
      <trkpt lat="44.92823" lon="5.39033">
        <ele>1099</ele>
        <time>2022-09-22T11:25:18.819Z</time>
      </trkpt>
      <trkpt lat="44.92821" lon="5.39031">
        <ele>1099</ele>
        <time>2022-09-22T11:25:19.820Z</time>
      </trkpt>
      <trkpt lat="44.92819" lon="5.39029">
        <ele>1099</ele>
        <time>2022-09-22T11:25:20.820Z</time>
      </trkpt>
      <trkpt lat="44.92817" lon="5.39028">
        <ele>1099</ele>
        <time>2022-09-22T11:25:21.820Z</time>
      </trkpt>
      <trkpt lat="44.92815" lon="5.39026">
        <ele>1098</ele>
        <time>2022-09-22T11:25:22.820Z</time>
      </trkpt>
      <trkpt lat="44.92813" lon="5.39025">
        <ele>1098</ele>
        <time>2022-09-22T11:25:23.820Z</time>
      </trkpt>
      <trkpt lat="44.92811" lon="5.39024">
        <ele>1098</ele>
        <time>2022-09-22T11:25:24.820Z</time>
      </trkpt>
      <trkpt lat="44.9281" lon="5.39023">
        <ele>1098</ele>
        <time>2022-09-22T11:25:25.820Z</time>
      </trkpt>
      <trkpt lat="44.92809" lon="5.39022">
        <ele>1098</ele>
        <time>2022-09-22T11:25:26.820Z</time>
      </trkpt>
      <trkpt lat="44.92808" lon="5.39022">
        <ele>1098</ele>
        <time>2022-09-22T11:25:27.820Z</time>
      </trkpt>
      <trkpt lat="44.92806" lon="5.39021">
        <ele>1098</ele>
        <time>2022-09-22T11:25:28.820Z</time>
      </trkpt>
      <trkpt lat="44.92805" lon="5.3902">
        <ele>1098</ele>
        <time>2022-09-22T11:25:29.820Z</time>
      </trkpt>
      <trkpt lat="44.92803" lon="5.39018">
        <ele>1098</ele>
        <time>2022-09-22T11:25:30.820Z</time>
      </trkpt>
      <trkpt lat="44.92802" lon="5.39017">
        <ele>1098</ele>
        <time>2022-09-22T11:25:31.820Z</time>
      </trkpt>
      <trkpt lat="44.928" lon="5.39015">
        <ele>1098</ele>
        <time>2022-09-22T11:25:32.819Z</time>
      </trkpt>
      <trkpt lat="44.92799" lon="5.39014">
        <ele>1098</ele>
        <time>2022-09-22T11:25:33.819Z</time>
      </trkpt>
      <trkpt lat="44.92798" lon="5.39012">
        <ele>1098</ele>
        <time>2022-09-22T11:25:34.819Z</time>
      </trkpt>
      <trkpt lat="44.92796" lon="5.39011">
        <ele>1098</ele>
        <time>2022-09-22T11:25:35.820Z</time>
      </trkpt>
      <trkpt lat="44.92795" lon="5.39009">
        <ele>1098</ele>
        <time>2022-09-22T11:25:36.820Z</time>
      </trkpt>
      <trkpt lat="44.92794" lon="5.39008">
        <ele>1099</ele>
        <time>2022-09-22T11:25:37.820Z</time>
      </trkpt>
      <trkpt lat="44.92792" lon="5.39006">
        <ele>1099</ele>
        <time>2022-09-22T11:25:38.820Z</time>
      </trkpt>
      <trkpt lat="44.92791" lon="5.39005">
        <ele>1099</ele>
        <time>2022-09-22T11:25:39.819Z</time>
      </trkpt>
      <trkpt lat="44.9279" lon="5.39003">
        <ele>1099</ele>
        <time>2022-09-22T11:25:40.820Z</time>
      </trkpt>
      <trkpt lat="44.92788" lon="5.39002">
        <ele>1099</ele>
        <time>2022-09-22T11:25:41.819Z</time>
      </trkpt>
      <trkpt lat="44.92787" lon="5.38999">
        <ele>1099</ele>
        <time>2022-09-22T11:25:42.819Z</time>
      </trkpt>
      <trkpt lat="44.92786" lon="5.38998">
        <ele>1099</ele>
        <time>2022-09-22T11:25:43.820Z</time>
      </trkpt>
      <trkpt lat="44.92784" lon="5.38996">
        <ele>1100</ele>
        <time>2022-09-22T11:25:44.820Z</time>
      </trkpt>
      <trkpt lat="44.92783" lon="5.38995">
        <ele>1100</ele>
        <time>2022-09-22T11:25:45.820Z</time>
      </trkpt>
      <trkpt lat="44.92781" lon="5.38993">
        <ele>1101</ele>
        <time>2022-09-22T11:25:46.820Z</time>
      </trkpt>
      <trkpt lat="44.9278" lon="5.38991">
        <ele>1101</ele>
        <time>2022-09-22T11:25:47.819Z</time>
      </trkpt>
      <trkpt lat="44.92779" lon="5.3899">
        <ele>1102</ele>
        <time>2022-09-22T11:25:48.820Z</time>
      </trkpt>
      <trkpt lat="44.92777" lon="5.38988">
        <ele>1102</ele>
        <time>2022-09-22T11:25:49.820Z</time>
      </trkpt>
      <trkpt lat="44.92776" lon="5.38986">
        <ele>1103</ele>
        <time>2022-09-22T11:25:50.820Z</time>
      </trkpt>
      <trkpt lat="44.92775" lon="5.38984">
        <ele>1103</ele>
        <time>2022-09-22T11:25:51.820Z</time>
      </trkpt>
      <trkpt lat="44.92774" lon="5.38982">
        <ele>1103</ele>
        <time>2022-09-22T11:25:52.820Z</time>
      </trkpt>
      <trkpt lat="44.92773" lon="5.3898">
        <ele>1103</ele>
        <time>2022-09-22T11:25:53.820Z</time>
      </trkpt>
      <trkpt lat="44.92773" lon="5.38978">
        <ele>1103</ele>
        <time>2022-09-22T11:25:54.820Z</time>
      </trkpt>
      <trkpt lat="44.92772" lon="5.38975">
        <ele>1102</ele>
        <time>2022-09-22T11:25:55.819Z</time>
      </trkpt>
      <trkpt lat="44.92772" lon="5.38973">
        <ele>1102</ele>
        <time>2022-09-22T11:25:56.820Z</time>
      </trkpt>
      <trkpt lat="44.92771" lon="5.3897">
        <ele>1103</ele>
        <time>2022-09-22T11:25:57.820Z</time>
      </trkpt>
      <trkpt lat="44.92771" lon="5.38967">
        <ele>1103</ele>
        <time>2022-09-22T11:25:58.820Z</time>
      </trkpt>
      <trkpt lat="44.92771" lon="5.38964">
        <ele>1103</ele>
        <time>2022-09-22T11:25:59.820Z</time>
      </trkpt>
      <trkpt lat="44.92772" lon="5.38961">
        <ele>1103</ele>
        <time>2022-09-22T11:26:00.820Z</time>
      </trkpt>
      <trkpt lat="44.92772" lon="5.38958">
        <ele>1103</ele>
        <time>2022-09-22T11:26:01.820Z</time>
      </trkpt>
      <trkpt lat="44.92772" lon="5.38956">
        <ele>1103</ele>
        <time>2022-09-22T11:26:02.819Z</time>
      </trkpt>
      <trkpt lat="44.92772" lon="5.38953">
        <ele>1103</ele>
        <time>2022-09-22T11:26:03.820Z</time>
      </trkpt>
      <trkpt lat="44.92772" lon="5.38951">
        <ele>1104</ele>
        <time>2022-09-22T11:26:04.819Z</time>
      </trkpt>
      <trkpt lat="44.92772" lon="5.38949">
        <ele>1105</ele>
        <time>2022-09-22T11:26:05.820Z</time>
      </trkpt>
      <trkpt lat="44.92773" lon="5.38946">
        <ele>1105</ele>
        <time>2022-09-22T11:26:06.819Z</time>
      </trkpt>
      <trkpt lat="44.92773" lon="5.38944">
        <ele>1105</ele>
        <time>2022-09-22T11:26:07.820Z</time>
      </trkpt>
      <trkpt lat="44.92772" lon="5.38942">
        <ele>1106</ele>
        <time>2022-09-22T11:26:08.820Z</time>
      </trkpt>
      <trkpt lat="44.92772" lon="5.3894">
        <ele>1106</ele>
        <time>2022-09-22T11:26:09.820Z</time>
      </trkpt>
      <trkpt lat="44.92772" lon="5.38938">
        <ele>1106</ele>
        <time>2022-09-22T11:26:10.820Z</time>
      </trkpt>
      <trkpt lat="44.92772" lon="5.38936">
        <ele>1106</ele>
        <time>2022-09-22T11:26:11.819Z</time>
      </trkpt>
      <trkpt lat="44.92771" lon="5.38935">
        <ele>1107</ele>
        <time>2022-09-22T11:26:12.819Z</time>
      </trkpt>
      <trkpt lat="44.92771" lon="5.38933">
        <ele>1107</ele>
        <time>2022-09-22T11:26:13.820Z</time>
      </trkpt>
      <trkpt lat="44.92771" lon="5.38931">
        <ele>1108</ele>
        <time>2022-09-22T11:26:14.820Z</time>
      </trkpt>
      <trkpt lat="44.92771" lon="5.38928">
        <ele>1108</ele>
        <time>2022-09-22T11:26:15.820Z</time>
      </trkpt>
      <trkpt lat="44.92771" lon="5.38926">
        <ele>1108</ele>
        <time>2022-09-22T11:26:16.820Z</time>
      </trkpt>
      <trkpt lat="44.92771" lon="5.38923">
        <ele>1109</ele>
        <time>2022-09-22T11:26:17.820Z</time>
      </trkpt>
      <trkpt lat="44.92771" lon="5.38921">
        <ele>1109</ele>
        <time>2022-09-22T11:26:18.819Z</time>
      </trkpt>
      <trkpt lat="44.9277" lon="5.38919">
        <ele>1109</ele>
        <time>2022-09-22T11:26:19.820Z</time>
      </trkpt>
      <trkpt lat="44.9277" lon="5.38916">
        <ele>1109</ele>
        <time>2022-09-22T11:26:20.820Z</time>
      </trkpt>
      <trkpt lat="44.9277" lon="5.38913">
        <ele>1110</ele>
        <time>2022-09-22T11:26:21.820Z</time>
      </trkpt>
      <trkpt lat="44.9277" lon="5.38911">
        <ele>1110</ele>
        <time>2022-09-22T11:26:22.819Z</time>
      </trkpt>
      <trkpt lat="44.92769" lon="5.38909">
        <ele>1110</ele>
        <time>2022-09-22T11:26:23.820Z</time>
      </trkpt>
      <trkpt lat="44.92769" lon="5.38906">
        <ele>1110</ele>
        <time>2022-09-22T11:26:24.819Z</time>
      </trkpt>
      <trkpt lat="44.92769" lon="5.38904">
        <ele>1110</ele>
        <time>2022-09-22T11:26:25.820Z</time>
      </trkpt>
      <trkpt lat="44.92769" lon="5.38901">
        <ele>1109</ele>
        <time>2022-09-22T11:26:26.819Z</time>
      </trkpt>
      <trkpt lat="44.92769" lon="5.38899">
        <ele>1109</ele>
        <time>2022-09-22T11:26:27.820Z</time>
      </trkpt>
      <trkpt lat="44.92769" lon="5.38896">
        <ele>1110</ele>
        <time>2022-09-22T11:26:28.820Z</time>
      </trkpt>
      <trkpt lat="44.92769" lon="5.38893">
        <ele>1110</ele>
        <time>2022-09-22T11:26:29.820Z</time>
      </trkpt>
      <trkpt lat="44.9277" lon="5.38891">
        <ele>1110</ele>
        <time>2022-09-22T11:26:30.819Z</time>
      </trkpt>
      <trkpt lat="44.9277" lon="5.38889">
        <ele>1110</ele>
        <time>2022-09-22T11:26:31.820Z</time>
      </trkpt>
      <trkpt lat="44.9277" lon="5.38886">
        <ele>1110</ele>
        <time>2022-09-22T11:26:32.819Z</time>
      </trkpt>
      <trkpt lat="44.9277" lon="5.38883">
        <ele>1110</ele>
        <time>2022-09-22T11:26:33.820Z</time>
      </trkpt>
      <trkpt lat="44.92771" lon="5.3888">
        <ele>1110</ele>
        <time>2022-09-22T11:26:34.820Z</time>
      </trkpt>
      <trkpt lat="44.92772" lon="5.38877">
        <ele>1110</ele>
        <time>2022-09-22T11:26:35.819Z</time>
      </trkpt>
      <trkpt lat="44.92772" lon="5.38874">
        <ele>1110</ele>
        <time>2022-09-22T11:26:36.820Z</time>
      </trkpt>
      <trkpt lat="44.92772" lon="5.38872">
        <ele>1110</ele>
        <time>2022-09-22T11:26:37.819Z</time>
      </trkpt>
      <trkpt lat="44.92772" lon="5.38869">
        <ele>1110</ele>
        <time>2022-09-22T11:26:38.819Z</time>
      </trkpt>
      <trkpt lat="44.92772" lon="5.38867">
        <ele>1110</ele>
        <time>2022-09-22T11:26:39.820Z</time>
      </trkpt>
      <trkpt lat="44.92772" lon="5.38865">
        <ele>1109</ele>
        <time>2022-09-22T11:26:40.819Z</time>
      </trkpt>
      <trkpt lat="44.92773" lon="5.38863">
        <ele>1109</ele>
        <time>2022-09-22T11:26:41.820Z</time>
      </trkpt>
      <trkpt lat="44.92773" lon="5.38861">
        <ele>1109</ele>
        <time>2022-09-22T11:26:42.819Z</time>
      </trkpt>
      <trkpt lat="44.92774" lon="5.38859">
        <ele>1109</ele>
        <time>2022-09-22T11:26:43.820Z</time>
      </trkpt>
      <trkpt lat="44.92775" lon="5.38857">
        <ele>1110</ele>
        <time>2022-09-22T11:26:44.820Z</time>
      </trkpt>
      <trkpt lat="44.92775" lon="5.38854">
        <ele>1110</ele>
        <time>2022-09-22T11:26:45.820Z</time>
      </trkpt>
      <trkpt lat="44.92776" lon="5.38851">
        <ele>1110</ele>
        <time>2022-09-22T11:26:46.819Z</time>
      </trkpt>
      <trkpt lat="44.92776" lon="5.38847">
        <ele>1109</ele>
        <time>2022-09-22T11:26:47.820Z</time>
      </trkpt>
      <trkpt lat="44.92776" lon="5.38844">
        <ele>1109</ele>
        <time>2022-09-22T11:26:48.820Z</time>
      </trkpt>
      <trkpt lat="44.92774" lon="5.3884">
        <ele>1109</ele>
        <time>2022-09-22T11:26:49.819Z</time>
      </trkpt>
      <trkpt lat="44.92772" lon="5.38836">
        <ele>1109</ele>
        <time>2022-09-22T11:26:50.820Z</time>
      </trkpt>
      <trkpt lat="44.92769" lon="5.38833">
        <ele>1108</ele>
        <time>2022-09-22T11:26:51.820Z</time>
      </trkpt>
      <trkpt lat="44.92766" lon="5.3883">
        <ele>1107</ele>
        <time>2022-09-22T11:26:52.820Z</time>
      </trkpt>
      <trkpt lat="44.92762" lon="5.38826">
        <ele>1106</ele>
        <time>2022-09-22T11:26:53.819Z</time>
      </trkpt>
      <trkpt lat="44.92759" lon="5.38822">
        <ele>1106</ele>
        <time>2022-09-22T11:26:54.820Z</time>
      </trkpt>
      <trkpt lat="44.92757" lon="5.38818">
        <ele>1105</ele>
        <time>2022-09-22T11:26:55.820Z</time>
      </trkpt>
      <trkpt lat="44.92754" lon="5.38815">
        <ele>1105</ele>
        <time>2022-09-22T11:26:56.820Z</time>
      </trkpt>
      <trkpt lat="44.92752" lon="5.38811">
        <ele>1105</ele>
        <time>2022-09-22T11:26:57.820Z</time>
      </trkpt>
      <trkpt lat="44.92751" lon="5.38808">
        <ele>1105</ele>
        <time>2022-09-22T11:26:58.819Z</time>
      </trkpt>
      <trkpt lat="44.92749" lon="5.38806">
        <ele>1105</ele>
        <time>2022-09-22T11:26:59.820Z</time>
      </trkpt>
      <trkpt lat="44.92748" lon="5.38803">
        <ele>1105</ele>
        <time>2022-09-22T11:27:00.820Z</time>
      </trkpt>
      <trkpt lat="44.92746" lon="5.38801">
        <ele>1105</ele>
        <time>2022-09-22T11:27:01.820Z</time>
      </trkpt>
      <trkpt lat="44.92745" lon="5.388">
        <ele>1104</ele>
        <time>2022-09-22T11:27:02.820Z</time>
      </trkpt>
      <trkpt lat="44.92743" lon="5.38798">
        <ele>1104</ele>
        <time>2022-09-22T11:27:03.820Z</time>
      </trkpt>
      <trkpt lat="44.92742" lon="5.38796">
        <ele>1103</ele>
        <time>2022-09-22T11:27:04.820Z</time>
      </trkpt>
      <trkpt lat="44.92741" lon="5.38794">
        <ele>1103</ele>
        <time>2022-09-22T11:27:05.820Z</time>
      </trkpt>
      <trkpt lat="44.9274" lon="5.38793">
        <ele>1103</ele>
        <time>2022-09-22T11:27:06.820Z</time>
      </trkpt>
      <trkpt lat="44.92739" lon="5.38792">
        <ele>1103</ele>
        <time>2022-09-22T11:27:07.819Z</time>
      </trkpt>
      <trkpt lat="44.92737" lon="5.38791">
        <ele>1103</ele>
        <time>2022-09-22T11:27:08.820Z</time>
      </trkpt>
      <trkpt lat="44.92736" lon="5.38789">
        <ele>1103</ele>
        <time>2022-09-22T11:27:09.820Z</time>
      </trkpt>
      <trkpt lat="44.92735" lon="5.38788">
        <ele>1102</ele>
        <time>2022-09-22T11:27:10.820Z</time>
      </trkpt>
      <trkpt lat="44.92733" lon="5.38786">
        <ele>1102</ele>
        <time>2022-09-22T11:27:11.820Z</time>
      </trkpt>
      <trkpt lat="44.92732" lon="5.38785">
        <ele>1102</ele>
        <time>2022-09-22T11:27:12.820Z</time>
      </trkpt>
      <trkpt lat="44.9273" lon="5.38782">
        <ele>1102</ele>
        <time>2022-09-22T11:27:13.820Z</time>
      </trkpt>
      <trkpt lat="44.92729" lon="5.3878">
        <ele>1102</ele>
        <time>2022-09-22T11:27:14.819Z</time>
      </trkpt>
      <trkpt lat="44.92727" lon="5.38779">
        <ele>1102</ele>
        <time>2022-09-22T11:27:15.820Z</time>
      </trkpt>
      <trkpt lat="44.92725" lon="5.38778">
        <ele>1102</ele>
        <time>2022-09-22T11:27:16.820Z</time>
      </trkpt>
      <trkpt lat="44.92723" lon="5.38776">
        <ele>1102</ele>
        <time>2022-09-22T11:27:17.820Z</time>
      </trkpt>
      <trkpt lat="44.92721" lon="5.38775">
        <ele>1102</ele>
        <time>2022-09-22T11:27:18.820Z</time>
      </trkpt>
      <trkpt lat="44.92719" lon="5.38773">
        <ele>1102</ele>
        <time>2022-09-22T11:27:19.819Z</time>
      </trkpt>
      <trkpt lat="44.92717" lon="5.38772">
        <ele>1102</ele>
        <time>2022-09-22T11:27:20.820Z</time>
      </trkpt>
      <trkpt lat="44.92714" lon="5.3877">
        <ele>1102</ele>
        <time>2022-09-22T11:27:21.820Z</time>
      </trkpt>
      <trkpt lat="44.92712" lon="5.38769">
        <ele>1102</ele>
        <time>2022-09-22T11:27:22.820Z</time>
      </trkpt>
      <trkpt lat="44.92709" lon="5.38768">
        <ele>1102</ele>
        <time>2022-09-22T11:27:23.819Z</time>
      </trkpt>
      <trkpt lat="44.92706" lon="5.38766">
        <ele>1102</ele>
        <time>2022-09-22T11:27:24.820Z</time>
      </trkpt>
      <trkpt lat="44.92702" lon="5.38765">
        <ele>1102</ele>
        <time>2022-09-22T11:27:25.820Z</time>
      </trkpt>
      <trkpt lat="44.92699" lon="5.38763">
        <ele>1102</ele>
        <time>2022-09-22T11:27:26.820Z</time>
      </trkpt>
      <trkpt lat="44.92695" lon="5.3876">
        <ele>1102</ele>
        <time>2022-09-22T11:27:27.820Z</time>
      </trkpt>
      <trkpt lat="44.92691" lon="5.38758">
        <ele>1102</ele>
        <time>2022-09-22T11:27:28.820Z</time>
      </trkpt>
      <trkpt lat="44.92688" lon="5.38756">
        <ele>1102</ele>
        <time>2022-09-22T11:27:29.820Z</time>
      </trkpt>
      <trkpt lat="44.92685" lon="5.38753">
        <ele>1102</ele>
        <time>2022-09-22T11:27:30.819Z</time>
      </trkpt>
      <trkpt lat="44.92682" lon="5.38752">
        <ele>1102</ele>
        <time>2022-09-22T11:27:31.819Z</time>
      </trkpt>
      <trkpt lat="44.92679" lon="5.38751">
        <ele>1102</ele>
        <time>2022-09-22T11:27:32.820Z</time>
      </trkpt>
      <trkpt lat="44.92678" lon="5.3875">
        <ele>1101</ele>
        <time>2022-09-22T11:27:33.820Z</time>
      </trkpt>
      <trkpt lat="44.92677" lon="5.3875">
        <ele>1101</ele>
        <time>2022-09-22T11:27:34.820Z</time>
      </trkpt>
      <trkpt lat="44.92676" lon="5.38749">
        <ele>1101</ele>
        <time>2022-09-22T11:27:35.819Z</time>
      </trkpt>
      <trkpt lat="44.92676" lon="5.38749">
        <ele>1102</ele>
        <time>2022-09-22T11:27:36.819Z</time>
      </trkpt>
      <trkpt lat="44.92671" lon="5.3875">
        <ele>1096</ele>
        <time>2022-09-22T11:28:03.831Z</time>
      </trkpt>
      <trkpt lat="44.92668" lon="5.38749">
        <ele>1096</ele>
        <time>2022-09-22T11:28:04.830Z</time>
      </trkpt>
      <trkpt lat="44.92665" lon="5.38748">
        <ele>1096</ele>
        <time>2022-09-22T11:28:05.831Z</time>
      </trkpt>
      <trkpt lat="44.92661" lon="5.38746">
        <ele>1095</ele>
        <time>2022-09-22T11:28:06.831Z</time>
      </trkpt>
      <trkpt lat="44.92658" lon="5.38744">
        <ele>1095</ele>
        <time>2022-09-22T11:28:07.831Z</time>
      </trkpt>
      <trkpt lat="44.92655" lon="5.38741">
        <ele>1095</ele>
        <time>2022-09-22T11:28:08.830Z</time>
      </trkpt>
      <trkpt lat="44.92652" lon="5.38739">
        <ele>1095</ele>
        <time>2022-09-22T11:28:09.830Z</time>
      </trkpt>
      <trkpt lat="44.92648" lon="5.38736">
        <ele>1095</ele>
        <time>2022-09-22T11:28:10.831Z</time>
      </trkpt>
      <trkpt lat="44.92645" lon="5.38734">
        <ele>1095</ele>
        <time>2022-09-22T11:28:11.831Z</time>
      </trkpt>
      <trkpt lat="44.92642" lon="5.38731">
        <ele>1096</ele>
        <time>2022-09-22T11:28:12.830Z</time>
      </trkpt>
      <trkpt lat="44.92638" lon="5.38729">
        <ele>1096</ele>
        <time>2022-09-22T11:28:13.830Z</time>
      </trkpt>
      <trkpt lat="44.92634" lon="5.38725">
        <ele>1096</ele>
        <time>2022-09-22T11:28:14.831Z</time>
      </trkpt>
      <trkpt lat="44.92631" lon="5.38721">
        <ele>1096</ele>
        <time>2022-09-22T11:28:15.831Z</time>
      </trkpt>
      <trkpt lat="44.92627" lon="5.38716">
        <ele>1096</ele>
        <time>2022-09-22T11:28:16.831Z</time>
      </trkpt>
      <trkpt lat="44.92624" lon="5.38712">
        <ele>1095</ele>
        <time>2022-09-22T11:28:17.831Z</time>
      </trkpt>
      <trkpt lat="44.92621" lon="5.38709">
        <ele>1095</ele>
        <time>2022-09-22T11:28:18.830Z</time>
      </trkpt>
      <trkpt lat="44.92619" lon="5.38705">
        <ele>1095</ele>
        <time>2022-09-22T11:28:19.830Z</time>
      </trkpt>
      <trkpt lat="44.92617" lon="5.38699">
        <ele>1094</ele>
        <time>2022-09-22T11:28:20.831Z</time>
      </trkpt>
      <trkpt lat="44.92615" lon="5.38693">
        <ele>1094</ele>
        <time>2022-09-22T11:28:21.831Z</time>
      </trkpt>
      <trkpt lat="44.92613" lon="5.38684">
        <ele>1094</ele>
        <time>2022-09-22T11:28:22.831Z</time>
      </trkpt>
      <trkpt lat="44.92611" lon="5.38678">
        <ele>1093</ele>
        <time>2022-09-22T11:28:23.831Z</time>
      </trkpt>
      <trkpt lat="44.92609" lon="5.38672">
        <ele>1093</ele>
        <time>2022-09-22T11:28:24.830Z</time>
      </trkpt>
      <trkpt lat="44.92607" lon="5.38665">
        <ele>1093</ele>
        <time>2022-09-22T11:28:25.831Z</time>
      </trkpt>
      <trkpt lat="44.92604" lon="5.3866">
        <ele>1092</ele>
        <time>2022-09-22T11:28:26.831Z</time>
      </trkpt>
      <trkpt lat="44.92602" lon="5.38655">
        <ele>1092</ele>
        <time>2022-09-22T11:28:27.831Z</time>
      </trkpt>
      <trkpt lat="44.926" lon="5.38651">
        <ele>1092</ele>
        <time>2022-09-22T11:28:28.831Z</time>
      </trkpt>
      <trkpt lat="44.92599" lon="5.38648">
        <ele>1091</ele>
        <time>2022-09-22T11:28:29.831Z</time>
      </trkpt>
      <trkpt lat="44.92599" lon="5.38645">
        <ele>1090</ele>
        <time>2022-09-22T11:28:30.830Z</time>
      </trkpt>
      <trkpt lat="44.92598" lon="5.38642">
        <ele>1090</ele>
        <time>2022-09-22T11:28:31.831Z</time>
      </trkpt>
      <trkpt lat="44.92597" lon="5.3864">
        <ele>1089</ele>
        <time>2022-09-22T11:28:32.831Z</time>
      </trkpt>
      <trkpt lat="44.92596" lon="5.38638">
        <ele>1089</ele>
        <time>2022-09-22T11:28:33.830Z</time>
      </trkpt>
      <trkpt lat="44.92594" lon="5.38637">
        <ele>1088</ele>
        <time>2022-09-22T11:28:34.831Z</time>
      </trkpt>
      <trkpt lat="44.92593" lon="5.38635">
        <ele>1088</ele>
        <time>2022-09-22T11:28:35.831Z</time>
      </trkpt>
      <trkpt lat="44.92592" lon="5.38634">
        <ele>1087</ele>
        <time>2022-09-22T11:28:36.831Z</time>
      </trkpt>
      <trkpt lat="44.92591" lon="5.38633">
        <ele>1087</ele>
        <time>2022-09-22T11:28:37.830Z</time>
      </trkpt>
      <trkpt lat="44.9259" lon="5.38632">
        <ele>1087</ele>
        <time>2022-09-22T11:28:38.831Z</time>
      </trkpt>
      <trkpt lat="44.92589" lon="5.38632">
        <ele>1087</ele>
        <time>2022-09-22T11:28:39.831Z</time>
      </trkpt>
      <trkpt lat="44.92588" lon="5.38632">
        <ele>1086</ele>
        <time>2022-09-22T11:28:40.831Z</time>
      </trkpt>
      <trkpt lat="44.92588" lon="5.38632">
        <ele>1086</ele>
        <time>2022-09-22T11:28:41.831Z</time>
      </trkpt>
      <trkpt lat="44.92588" lon="5.38631">
        <ele>1086</ele>
        <time>2022-09-22T11:28:42.831Z</time>
      </trkpt>
      <trkpt lat="44.92588" lon="5.3863">
        <ele>1085</ele>
        <time>2022-09-22T11:28:44.923Z</time>
      </trkpt>
      <trkpt lat="44.92587" lon="5.38629">
        <ele>1085</ele>
        <time>2022-09-22T11:28:45.923Z</time>
      </trkpt>
      <trkpt lat="44.92586" lon="5.38628">
        <ele>1085</ele>
        <time>2022-09-22T11:28:46.922Z</time>
      </trkpt>
      <trkpt lat="44.92585" lon="5.38627">
        <ele>1085</ele>
        <time>2022-09-22T11:28:47.923Z</time>
      </trkpt>
      <trkpt lat="44.92584" lon="5.38627">
        <ele>1085</ele>
        <time>2022-09-22T11:28:48.923Z</time>
      </trkpt>
      <trkpt lat="44.92583" lon="5.38626">
        <ele>1085</ele>
        <time>2022-09-22T11:28:49.922Z</time>
      </trkpt>
      <trkpt lat="44.92581" lon="5.38625">
        <ele>1085</ele>
        <time>2022-09-22T11:28:50.923Z</time>
      </trkpt>
      <trkpt lat="44.9258" lon="5.38624">
        <ele>1085</ele>
        <time>2022-09-22T11:28:51.922Z</time>
      </trkpt>
      <trkpt lat="44.92579" lon="5.38622">
        <ele>1086</ele>
        <time>2022-09-22T11:28:52.923Z</time>
      </trkpt>
      <trkpt lat="44.92578" lon="5.38621">
        <ele>1086</ele>
        <time>2022-09-22T11:28:53.923Z</time>
      </trkpt>
      <trkpt lat="44.92576" lon="5.3862">
        <ele>1086</ele>
        <time>2022-09-22T11:28:54.922Z</time>
      </trkpt>
      <trkpt lat="44.92576" lon="5.38618">
        <ele>1086</ele>
        <time>2022-09-22T11:28:55.923Z</time>
      </trkpt>
      <trkpt lat="44.92575" lon="5.38618">
        <ele>1086</ele>
        <time>2022-09-22T11:28:56.923Z</time>
      </trkpt>
      <trkpt lat="44.92575" lon="5.38617">
        <ele>1086</ele>
        <time>2022-09-22T11:28:57.923Z</time>
      </trkpt>
      <trkpt lat="44.92575" lon="5.38617">
        <ele>1086</ele>
        <time>2022-09-22T11:28:58.923Z</time>
      </trkpt>
      <trkpt lat="44.92573" lon="5.38615">
        <ele>1087</ele>
        <time>2022-09-22T11:29:10.057Z</time>
      </trkpt>
      <trkpt lat="44.92572" lon="5.38615">
        <ele>1087</ele>
        <time>2022-09-22T11:29:11.057Z</time>
      </trkpt>
      <trkpt lat="44.92571" lon="5.38614">
        <ele>1087</ele>
        <time>2022-09-22T11:29:12.057Z</time>
      </trkpt>
      <trkpt lat="44.9257" lon="5.38613">
        <ele>1087</ele>
        <time>2022-09-22T11:29:13.057Z</time>
      </trkpt>
      <trkpt lat="44.92569" lon="5.38611">
        <ele>1087</ele>
        <time>2022-09-22T11:29:14.057Z</time>
      </trkpt>
      <trkpt lat="44.92567" lon="5.3861">
        <ele>1087</ele>
        <time>2022-09-22T11:29:15.057Z</time>
      </trkpt>
      <trkpt lat="44.92566" lon="5.38607">
        <ele>1087</ele>
        <time>2022-09-22T11:29:16.057Z</time>
      </trkpt>
      <trkpt lat="44.92564" lon="5.38605">
        <ele>1087</ele>
        <time>2022-09-22T11:29:17.057Z</time>
      </trkpt>
      <trkpt lat="44.92563" lon="5.38601">
        <ele>1088</ele>
        <time>2022-09-22T11:29:18.056Z</time>
      </trkpt>
      <trkpt lat="44.92561" lon="5.38598">
        <ele>1088</ele>
        <time>2022-09-22T11:29:19.057Z</time>
      </trkpt>
      <trkpt lat="44.9256" lon="5.38595">
        <ele>1089</ele>
        <time>2022-09-22T11:29:20.056Z</time>
      </trkpt>
      <trkpt lat="44.92559" lon="5.38592">
        <ele>1089</ele>
        <time>2022-09-22T11:29:21.057Z</time>
      </trkpt>
      <trkpt lat="44.92558" lon="5.38589">
        <ele>1089</ele>
        <time>2022-09-22T11:29:22.057Z</time>
      </trkpt>
      <trkpt lat="44.92558" lon="5.38587">
        <ele>1089</ele>
        <time>2022-09-22T11:29:23.056Z</time>
      </trkpt>
      <trkpt lat="44.92557" lon="5.38584">
        <ele>1090</ele>
        <time>2022-09-22T11:29:24.057Z</time>
      </trkpt>
      <trkpt lat="44.92556" lon="5.38582">
        <ele>1090</ele>
        <time>2022-09-22T11:29:25.057Z</time>
      </trkpt>
      <trkpt lat="44.92556" lon="5.38579">
        <ele>1090</ele>
        <time>2022-09-22T11:29:26.056Z</time>
      </trkpt>
      <trkpt lat="44.92555" lon="5.38577">
        <ele>1090</ele>
        <time>2022-09-22T11:29:27.057Z</time>
      </trkpt>
      <trkpt lat="44.92553" lon="5.38576">
        <ele>1090</ele>
        <time>2022-09-22T11:29:28.057Z</time>
      </trkpt>
      <trkpt lat="44.92552" lon="5.38575">
        <ele>1090</ele>
        <time>2022-09-22T11:29:29.057Z</time>
      </trkpt>
      <trkpt lat="44.92551" lon="5.38573">
        <ele>1090</ele>
        <time>2022-09-22T11:29:30.057Z</time>
      </trkpt>
      <trkpt lat="44.92549" lon="5.38571">
        <ele>1089</ele>
        <time>2022-09-22T11:29:31.056Z</time>
      </trkpt>
      <trkpt lat="44.92548" lon="5.38569">
        <ele>1090</ele>
        <time>2022-09-22T11:29:32.057Z</time>
      </trkpt>
      <trkpt lat="44.92547" lon="5.38566">
        <ele>1090</ele>
        <time>2022-09-22T11:29:33.057Z</time>
      </trkpt>
      <trkpt lat="44.92547" lon="5.38563">
        <ele>1090</ele>
        <time>2022-09-22T11:29:34.056Z</time>
      </trkpt>
      <trkpt lat="44.92547" lon="5.38561">
        <ele>1091</ele>
        <time>2022-09-22T11:29:35.057Z</time>
      </trkpt>
      <trkpt lat="44.92546" lon="5.3856">
        <ele>1091</ele>
        <time>2022-09-22T11:29:36.057Z</time>
      </trkpt>
      <trkpt lat="44.92545" lon="5.38558">
        <ele>1091</ele>
        <time>2022-09-22T11:29:37.056Z</time>
      </trkpt>
      <trkpt lat="44.92543" lon="5.38557">
        <ele>1091</ele>
        <time>2022-09-22T11:29:38.057Z</time>
      </trkpt>
      <trkpt lat="44.92542" lon="5.38556">
        <ele>1091</ele>
        <time>2022-09-22T11:29:39.057Z</time>
      </trkpt>
      <trkpt lat="44.9254" lon="5.38555">
        <ele>1090</ele>
        <time>2022-09-22T11:29:40.057Z</time>
      </trkpt>
      <trkpt lat="44.92539" lon="5.38554">
        <ele>1090</ele>
        <time>2022-09-22T11:29:41.057Z</time>
      </trkpt>
      <trkpt lat="44.92537" lon="5.38554">
        <ele>1089</ele>
        <time>2022-09-22T11:29:42.057Z</time>
      </trkpt>
      <trkpt lat="44.92536" lon="5.38554">
        <ele>1089</ele>
        <time>2022-09-22T11:29:43.057Z</time>
      </trkpt>
      <trkpt lat="44.92534" lon="5.38554">
        <ele>1089</ele>
        <time>2022-09-22T11:29:44.056Z</time>
      </trkpt>
      <trkpt lat="44.92531" lon="5.38553">
        <ele>1089</ele>
        <time>2022-09-22T11:29:45.057Z</time>
      </trkpt>
      <trkpt lat="44.92529" lon="5.38552">
        <ele>1089</ele>
        <time>2022-09-22T11:29:46.057Z</time>
      </trkpt>
      <trkpt lat="44.92528" lon="5.38551">
        <ele>1089</ele>
        <time>2022-09-22T11:29:47.057Z</time>
      </trkpt>
      <trkpt lat="44.92526" lon="5.3855">
        <ele>1089</ele>
        <time>2022-09-22T11:29:48.057Z</time>
      </trkpt>
      <trkpt lat="44.92525" lon="5.38548">
        <ele>1089</ele>
        <time>2022-09-22T11:29:49.057Z</time>
      </trkpt>
      <trkpt lat="44.92524" lon="5.38547">
        <ele>1089</ele>
        <time>2022-09-22T11:29:50.057Z</time>
      </trkpt>
      <trkpt lat="44.92523" lon="5.38546">
        <ele>1088</ele>
        <time>2022-09-22T11:29:51.056Z</time>
      </trkpt>
      <trkpt lat="44.92521" lon="5.38545">
        <ele>1088</ele>
        <time>2022-09-22T11:29:52.057Z</time>
      </trkpt>
      <trkpt lat="44.9252" lon="5.38543">
        <ele>1088</ele>
        <time>2022-09-22T11:29:53.057Z</time>
      </trkpt>
      <trkpt lat="44.92518" lon="5.38541">
        <ele>1087</ele>
        <time>2022-09-22T11:29:54.056Z</time>
      </trkpt>
      <trkpt lat="44.92516" lon="5.3854">
        <ele>1087</ele>
        <time>2022-09-22T11:29:55.057Z</time>
      </trkpt>
      <trkpt lat="44.92514" lon="5.38538">
        <ele>1087</ele>
        <time>2022-09-22T11:29:56.057Z</time>
      </trkpt>
      <trkpt lat="44.92513" lon="5.38537">
        <ele>1086</ele>
        <time>2022-09-22T11:29:57.056Z</time>
      </trkpt>
      <trkpt lat="44.92511" lon="5.38536">
        <ele>1087</ele>
        <time>2022-09-22T11:29:58.057Z</time>
      </trkpt>
      <trkpt lat="44.92509" lon="5.38535">
        <ele>1087</ele>
        <time>2022-09-22T11:29:59.056Z</time>
      </trkpt>
      <trkpt lat="44.92507" lon="5.38534">
        <ele>1086</ele>
        <time>2022-09-22T11:30:00.057Z</time>
      </trkpt>
      <trkpt lat="44.92505" lon="5.38532">
        <ele>1086</ele>
        <time>2022-09-22T11:30:01.057Z</time>
      </trkpt>
      <trkpt lat="44.92503" lon="5.38531">
        <ele>1086</ele>
        <time>2022-09-22T11:30:02.057Z</time>
      </trkpt>
      <trkpt lat="44.92502" lon="5.3853">
        <ele>1086</ele>
        <time>2022-09-22T11:30:03.057Z</time>
      </trkpt>
      <trkpt lat="44.925" lon="5.38529">
        <ele>1086</ele>
        <time>2022-09-22T11:30:04.057Z</time>
      </trkpt>
      <trkpt lat="44.92498" lon="5.38528">
        <ele>1085</ele>
        <time>2022-09-22T11:30:05.056Z</time>
      </trkpt>
      <trkpt lat="44.92496" lon="5.38526">
        <ele>1085</ele>
        <time>2022-09-22T11:30:06.057Z</time>
      </trkpt>
      <trkpt lat="44.92494" lon="5.38525">
        <ele>1085</ele>
        <time>2022-09-22T11:30:07.056Z</time>
      </trkpt>
      <trkpt lat="44.92492" lon="5.38524">
        <ele>1085</ele>
        <time>2022-09-22T11:30:08.057Z</time>
      </trkpt>
      <trkpt lat="44.9249" lon="5.38524">
        <ele>1085</ele>
        <time>2022-09-22T11:30:09.057Z</time>
      </trkpt>
      <trkpt lat="44.92488" lon="5.38522">
        <ele>1085</ele>
        <time>2022-09-22T11:30:10.057Z</time>
      </trkpt>
      <trkpt lat="44.92486" lon="5.38521">
        <ele>1085</ele>
        <time>2022-09-22T11:30:11.057Z</time>
      </trkpt>
      <trkpt lat="44.92484" lon="5.3852">
        <ele>1085</ele>
        <time>2022-09-22T11:30:12.056Z</time>
      </trkpt>
      <trkpt lat="44.92482" lon="5.38519">
        <ele>1085</ele>
        <time>2022-09-22T11:30:13.056Z</time>
      </trkpt>
      <trkpt lat="44.9248" lon="5.38517">
        <ele>1085</ele>
        <time>2022-09-22T11:30:14.056Z</time>
      </trkpt>
      <trkpt lat="44.92478" lon="5.38515">
        <ele>1085</ele>
        <time>2022-09-22T11:30:15.057Z</time>
      </trkpt>
      <trkpt lat="44.92476" lon="5.38514">
        <ele>1085</ele>
        <time>2022-09-22T11:30:16.056Z</time>
      </trkpt>
      <trkpt lat="44.92475" lon="5.38512">
        <ele>1084</ele>
        <time>2022-09-22T11:30:17.056Z</time>
      </trkpt>
      <trkpt lat="44.92473" lon="5.3851">
        <ele>1084</ele>
        <time>2022-09-22T11:30:18.057Z</time>
      </trkpt>
      <trkpt lat="44.92472" lon="5.38507">
        <ele>1085</ele>
        <time>2022-09-22T11:30:19.057Z</time>
      </trkpt>
      <trkpt lat="44.9247" lon="5.38505">
        <ele>1085</ele>
        <time>2022-09-22T11:30:20.057Z</time>
      </trkpt>
      <trkpt lat="44.92469" lon="5.38502">
        <ele>1085</ele>
        <time>2022-09-22T11:30:21.057Z</time>
      </trkpt>
      <trkpt lat="44.92468" lon="5.38498">
        <ele>1085</ele>
        <time>2022-09-22T11:30:22.056Z</time>
      </trkpt>
      <trkpt lat="44.92466" lon="5.38495">
        <ele>1086</ele>
        <time>2022-09-22T11:30:23.057Z</time>
      </trkpt>
      <trkpt lat="44.92465" lon="5.38492">
        <ele>1086</ele>
        <time>2022-09-22T11:30:24.056Z</time>
      </trkpt>
      <trkpt lat="44.92463" lon="5.38489">
        <ele>1086</ele>
        <time>2022-09-22T11:30:25.057Z</time>
      </trkpt>
      <trkpt lat="44.92462" lon="5.38486">
        <ele>1086</ele>
        <time>2022-09-22T11:30:26.057Z</time>
      </trkpt>
      <trkpt lat="44.9246" lon="5.38484">
        <ele>1085</ele>
        <time>2022-09-22T11:30:27.056Z</time>
      </trkpt>
      <trkpt lat="44.92458" lon="5.38482">
        <ele>1085</ele>
        <time>2022-09-22T11:30:28.057Z</time>
      </trkpt>
      <trkpt lat="44.92456" lon="5.3848">
        <ele>1085</ele>
        <time>2022-09-22T11:30:29.057Z</time>
      </trkpt>
      <trkpt lat="44.92453" lon="5.38479">
        <ele>1085</ele>
        <time>2022-09-22T11:30:30.057Z</time>
      </trkpt>
      <trkpt lat="44.92451" lon="5.38477">
        <ele>1085</ele>
        <time>2022-09-22T11:30:31.057Z</time>
      </trkpt>
      <trkpt lat="44.92449" lon="5.38475">
        <ele>1085</ele>
        <time>2022-09-22T11:30:32.057Z</time>
      </trkpt>
      <trkpt lat="44.92446" lon="5.38474">
        <ele>1085</ele>
        <time>2022-09-22T11:30:33.056Z</time>
      </trkpt>
      <trkpt lat="44.92444" lon="5.38472">
        <ele>1085</ele>
        <time>2022-09-22T11:30:34.057Z</time>
      </trkpt>
      <trkpt lat="44.92441" lon="5.38471">
        <ele>1084</ele>
        <time>2022-09-22T11:30:35.056Z</time>
      </trkpt>
      <trkpt lat="44.92439" lon="5.3847">
        <ele>1084</ele>
        <time>2022-09-22T11:30:36.057Z</time>
      </trkpt>
      <trkpt lat="44.92437" lon="5.38469">
        <ele>1084</ele>
        <time>2022-09-22T11:30:37.057Z</time>
      </trkpt>
      <trkpt lat="44.92434" lon="5.38469">
        <ele>1084</ele>
        <time>2022-09-22T11:30:38.056Z</time>
      </trkpt>
      <trkpt lat="44.92432" lon="5.38467">
        <ele>1084</ele>
        <time>2022-09-22T11:30:39.057Z</time>
      </trkpt>
      <trkpt lat="44.9243" lon="5.38466">
        <ele>1084</ele>
        <time>2022-09-22T11:30:40.057Z</time>
      </trkpt>
      <trkpt lat="44.92428" lon="5.38464">
        <ele>1084</ele>
        <time>2022-09-22T11:30:41.056Z</time>
      </trkpt>
      <trkpt lat="44.92425" lon="5.38463">
        <ele>1083</ele>
        <time>2022-09-22T11:30:42.057Z</time>
      </trkpt>
      <trkpt lat="44.92422" lon="5.38462">
        <ele>1083</ele>
        <time>2022-09-22T11:30:43.056Z</time>
      </trkpt>
      <trkpt lat="44.9242" lon="5.3846">
        <ele>1083</ele>
        <time>2022-09-22T11:30:44.057Z</time>
      </trkpt>
      <trkpt lat="44.92417" lon="5.38459">
        <ele>1083</ele>
        <time>2022-09-22T11:30:45.057Z</time>
      </trkpt>
      <trkpt lat="44.92415" lon="5.38457">
        <ele>1082</ele>
        <time>2022-09-22T11:30:46.057Z</time>
      </trkpt>
      <trkpt lat="44.92412" lon="5.38456">
        <ele>1082</ele>
        <time>2022-09-22T11:30:47.057Z</time>
      </trkpt>
      <trkpt lat="44.92409" lon="5.38454">
        <ele>1082</ele>
        <time>2022-09-22T11:30:48.057Z</time>
      </trkpt>
      <trkpt lat="44.92407" lon="5.38453">
        <ele>1082</ele>
        <time>2022-09-22T11:30:49.057Z</time>
      </trkpt>
      <trkpt lat="44.92404" lon="5.38451">
        <ele>1082</ele>
        <time>2022-09-22T11:30:50.057Z</time>
      </trkpt>
      <trkpt lat="44.92401" lon="5.38448">
        <ele>1082</ele>
        <time>2022-09-22T11:30:51.057Z</time>
      </trkpt>
      <trkpt lat="44.92399" lon="5.38446">
        <ele>1083</ele>
        <time>2022-09-22T11:30:52.057Z</time>
      </trkpt>
      <trkpt lat="44.92397" lon="5.38443">
        <ele>1083</ele>
        <time>2022-09-22T11:30:53.056Z</time>
      </trkpt>
      <trkpt lat="44.92394" lon="5.3844">
        <ele>1083</ele>
        <time>2022-09-22T11:30:54.057Z</time>
      </trkpt>
      <trkpt lat="44.92392" lon="5.38437">
        <ele>1083</ele>
        <time>2022-09-22T11:30:55.056Z</time>
      </trkpt>
      <trkpt lat="44.9239" lon="5.38434">
        <ele>1084</ele>
        <time>2022-09-22T11:30:56.057Z</time>
      </trkpt>
      <trkpt lat="44.92388" lon="5.38431">
        <ele>1084</ele>
        <time>2022-09-22T11:30:57.056Z</time>
      </trkpt>
      <trkpt lat="44.92386" lon="5.38428">
        <ele>1084</ele>
        <time>2022-09-22T11:30:58.057Z</time>
      </trkpt>
      <trkpt lat="44.92384" lon="5.38425">
        <ele>1084</ele>
        <time>2022-09-22T11:30:59.056Z</time>
      </trkpt>
      <trkpt lat="44.92382" lon="5.38422">
        <ele>1085</ele>
        <time>2022-09-22T11:31:00.057Z</time>
      </trkpt>
      <trkpt lat="44.9238" lon="5.38419">
        <ele>1085</ele>
        <time>2022-09-22T11:31:01.057Z</time>
      </trkpt>
      <trkpt lat="44.92377" lon="5.38416">
        <ele>1085</ele>
        <time>2022-09-22T11:31:02.057Z</time>
      </trkpt>
      <trkpt lat="44.92375" lon="5.38414">
        <ele>1084</ele>
        <time>2022-09-22T11:31:03.057Z</time>
      </trkpt>
      <trkpt lat="44.92373" lon="5.38411">
        <ele>1084</ele>
        <time>2022-09-22T11:31:04.056Z</time>
      </trkpt>
      <trkpt lat="44.92371" lon="5.38408">
        <ele>1084</ele>
        <time>2022-09-22T11:31:05.057Z</time>
      </trkpt>
      <trkpt lat="44.92369" lon="5.38405">
        <ele>1084</ele>
        <time>2022-09-22T11:31:06.057Z</time>
      </trkpt>
      <trkpt lat="44.92366" lon="5.38402">
        <ele>1083</ele>
        <time>2022-09-22T11:31:07.057Z</time>
      </trkpt>
      <trkpt lat="44.92364" lon="5.384">
        <ele>1083</ele>
        <time>2022-09-22T11:31:08.057Z</time>
      </trkpt>
      <trkpt lat="44.92362" lon="5.38397">
        <ele>1083</ele>
        <time>2022-09-22T11:31:09.057Z</time>
      </trkpt>
      <trkpt lat="44.92359" lon="5.38395">
        <ele>1083</ele>
        <time>2022-09-22T11:31:10.057Z</time>
      </trkpt>
      <trkpt lat="44.92357" lon="5.38393">
        <ele>1082</ele>
        <time>2022-09-22T11:31:11.057Z</time>
      </trkpt>
      <trkpt lat="44.92354" lon="5.3839">
        <ele>1082</ele>
        <time>2022-09-22T11:31:12.057Z</time>
      </trkpt>
      <trkpt lat="44.92352" lon="5.38388">
        <ele>1083</ele>
        <time>2022-09-22T11:31:13.056Z</time>
      </trkpt>
      <trkpt lat="44.9235" lon="5.38386">
        <ele>1083</ele>
        <time>2022-09-22T11:31:14.057Z</time>
      </trkpt>
      <trkpt lat="44.92348" lon="5.38385">
        <ele>1083</ele>
        <time>2022-09-22T11:31:15.056Z</time>
      </trkpt>
      <trkpt lat="44.92347" lon="5.38383">
        <ele>1082</ele>
        <time>2022-09-22T11:31:16.056Z</time>
      </trkpt>
      <trkpt lat="44.92345" lon="5.38382">
        <ele>1082</ele>
        <time>2022-09-22T11:31:17.057Z</time>
      </trkpt>
      <trkpt lat="44.92344" lon="5.3838">
        <ele>1082</ele>
        <time>2022-09-22T11:31:18.057Z</time>
      </trkpt>
      <trkpt lat="44.92342" lon="5.38379">
        <ele>1082</ele>
        <time>2022-09-22T11:31:19.057Z</time>
      </trkpt>
      <trkpt lat="44.92341" lon="5.38378">
        <ele>1082</ele>
        <time>2022-09-22T11:31:20.056Z</time>
      </trkpt>
      <trkpt lat="44.9234" lon="5.38377">
        <ele>1082</ele>
        <time>2022-09-22T11:31:21.056Z</time>
      </trkpt>
      <trkpt lat="44.92338" lon="5.38377">
        <ele>1083</ele>
        <time>2022-09-22T11:31:22.056Z</time>
      </trkpt>
      <trkpt lat="44.92336" lon="5.38377">
        <ele>1083</ele>
        <time>2022-09-22T11:31:23.056Z</time>
      </trkpt>
      <trkpt lat="44.92335" lon="5.38377">
        <ele>1083</ele>
        <time>2022-09-22T11:31:24.056Z</time>
      </trkpt>
      <trkpt lat="44.92333" lon="5.38377">
        <ele>1083</ele>
        <time>2022-09-22T11:31:25.056Z</time>
      </trkpt>
      <trkpt lat="44.92331" lon="5.38376">
        <ele>1082</ele>
        <time>2022-09-22T11:31:26.056Z</time>
      </trkpt>
      <trkpt lat="44.92329" lon="5.38376">
        <ele>1082</ele>
        <time>2022-09-22T11:31:27.057Z</time>
      </trkpt>
      <trkpt lat="44.92328" lon="5.38375">
        <ele>1082</ele>
        <time>2022-09-22T11:31:28.057Z</time>
      </trkpt>
      <trkpt lat="44.92326" lon="5.38375">
        <ele>1082</ele>
        <time>2022-09-22T11:31:29.056Z</time>
      </trkpt>
      <trkpt lat="44.92324" lon="5.38374">
        <ele>1083</ele>
        <time>2022-09-22T11:31:30.057Z</time>
      </trkpt>
      <trkpt lat="44.92322" lon="5.38374">
        <ele>1083</ele>
        <time>2022-09-22T11:31:31.056Z</time>
      </trkpt>
      <trkpt lat="44.9232" lon="5.38373">
        <ele>1083</ele>
        <time>2022-09-22T11:31:32.057Z</time>
      </trkpt>
      <trkpt lat="44.92318" lon="5.38372">
        <ele>1083</ele>
        <time>2022-09-22T11:31:33.056Z</time>
      </trkpt>
      <trkpt lat="44.92317" lon="5.38372">
        <ele>1083</ele>
        <time>2022-09-22T11:31:34.057Z</time>
      </trkpt>
      <trkpt lat="44.92315" lon="5.38371">
        <ele>1083</ele>
        <time>2022-09-22T11:31:35.057Z</time>
      </trkpt>
      <trkpt lat="44.92313" lon="5.38371">
        <ele>1082</ele>
        <time>2022-09-22T11:31:36.057Z</time>
      </trkpt>
      <trkpt lat="44.92311" lon="5.38371">
        <ele>1082</ele>
        <time>2022-09-22T11:31:37.056Z</time>
      </trkpt>
      <trkpt lat="44.9231" lon="5.38371">
        <ele>1082</ele>
        <time>2022-09-22T11:31:38.056Z</time>
      </trkpt>
      <trkpt lat="44.92308" lon="5.3837">
        <ele>1082</ele>
        <time>2022-09-22T11:31:39.056Z</time>
      </trkpt>
      <trkpt lat="44.92307" lon="5.3837">
        <ele>1082</ele>
        <time>2022-09-22T11:31:40.056Z</time>
      </trkpt>
      <trkpt lat="44.92305" lon="5.38369">
        <ele>1082</ele>
        <time>2022-09-22T11:31:41.056Z</time>
      </trkpt>
      <trkpt lat="44.92303" lon="5.38368">
        <ele>1082</ele>
        <time>2022-09-22T11:31:42.057Z</time>
      </trkpt>
      <trkpt lat="44.92302" lon="5.38367">
        <ele>1082</ele>
        <time>2022-09-22T11:31:43.056Z</time>
      </trkpt>
      <trkpt lat="44.923" lon="5.38366">
        <ele>1082</ele>
        <time>2022-09-22T11:31:44.057Z</time>
      </trkpt>
      <trkpt lat="44.92299" lon="5.38365">
        <ele>1082</ele>
        <time>2022-09-22T11:31:45.057Z</time>
      </trkpt>
      <trkpt lat="44.92297" lon="5.38363">
        <ele>1082</ele>
        <time>2022-09-22T11:31:46.057Z</time>
      </trkpt>
      <trkpt lat="44.92295" lon="5.38363">
        <ele>1082</ele>
        <time>2022-09-22T11:31:47.057Z</time>
      </trkpt>
      <trkpt lat="44.92294" lon="5.38361">
        <ele>1082</ele>
        <time>2022-09-22T11:31:48.057Z</time>
      </trkpt>
      <trkpt lat="44.92292" lon="5.3836">
        <ele>1083</ele>
        <time>2022-09-22T11:31:49.057Z</time>
      </trkpt>
      <trkpt lat="44.9229" lon="5.3836">
        <ele>1083</ele>
        <time>2022-09-22T11:31:50.057Z</time>
      </trkpt>
      <trkpt lat="44.92289" lon="5.38359">
        <ele>1083</ele>
        <time>2022-09-22T11:31:51.057Z</time>
      </trkpt>
      <trkpt lat="44.92287" lon="5.38358">
        <ele>1083</ele>
        <time>2022-09-22T11:31:52.057Z</time>
      </trkpt>
      <trkpt lat="44.92285" lon="5.38357">
        <ele>1083</ele>
        <time>2022-09-22T11:31:53.056Z</time>
      </trkpt>
      <trkpt lat="44.92284" lon="5.38356">
        <ele>1083</ele>
        <time>2022-09-22T11:31:54.057Z</time>
      </trkpt>
      <trkpt lat="44.92282" lon="5.38355">
        <ele>1083</ele>
        <time>2022-09-22T11:31:55.057Z</time>
      </trkpt>
      <trkpt lat="44.9228" lon="5.38354">
        <ele>1083</ele>
        <time>2022-09-22T11:31:56.057Z</time>
      </trkpt>
      <trkpt lat="44.92278" lon="5.38353">
        <ele>1083</ele>
        <time>2022-09-22T11:31:57.057Z</time>
      </trkpt>
      <trkpt lat="44.92277" lon="5.38352">
        <ele>1083</ele>
        <time>2022-09-22T11:31:58.056Z</time>
      </trkpt>
      <trkpt lat="44.92275" lon="5.38351">
        <ele>1083</ele>
        <time>2022-09-22T11:31:59.056Z</time>
      </trkpt>
      <trkpt lat="44.92274" lon="5.38349">
        <ele>1083</ele>
        <time>2022-09-22T11:32:00.057Z</time>
      </trkpt>
      <trkpt lat="44.92272" lon="5.38348">
        <ele>1083</ele>
        <time>2022-09-22T11:32:01.057Z</time>
      </trkpt>
      <trkpt lat="44.9227" lon="5.38346">
        <ele>1084</ele>
        <time>2022-09-22T11:32:02.057Z</time>
      </trkpt>
      <trkpt lat="44.92268" lon="5.38345">
        <ele>1084</ele>
        <time>2022-09-22T11:32:03.057Z</time>
      </trkpt>
      <trkpt lat="44.92267" lon="5.38344">
        <ele>1085</ele>
        <time>2022-09-22T11:32:04.057Z</time>
      </trkpt>
      <trkpt lat="44.92265" lon="5.38343">
        <ele>1085</ele>
        <time>2022-09-22T11:32:05.057Z</time>
      </trkpt>
      <trkpt lat="44.92263" lon="5.38342">
        <ele>1085</ele>
        <time>2022-09-22T11:32:06.056Z</time>
      </trkpt>
      <trkpt lat="44.92261" lon="5.38341">
        <ele>1085</ele>
        <time>2022-09-22T11:32:07.057Z</time>
      </trkpt>
      <trkpt lat="44.92259" lon="5.38341">
        <ele>1085</ele>
        <time>2022-09-22T11:32:08.057Z</time>
      </trkpt>
      <trkpt lat="44.92257" lon="5.3834">
        <ele>1085</ele>
        <time>2022-09-22T11:32:09.057Z</time>
      </trkpt>
      <trkpt lat="44.92256" lon="5.38339">
        <ele>1085</ele>
        <time>2022-09-22T11:32:10.057Z</time>
      </trkpt>
      <trkpt lat="44.92254" lon="5.38338">
        <ele>1085</ele>
        <time>2022-09-22T11:32:11.057Z</time>
      </trkpt>
      <trkpt lat="44.92252" lon="5.38338">
        <ele>1085</ele>
        <time>2022-09-22T11:32:12.057Z</time>
      </trkpt>
      <trkpt lat="44.92251" lon="5.38338">
        <ele>1085</ele>
        <time>2022-09-22T11:32:13.057Z</time>
      </trkpt>
      <trkpt lat="44.92249" lon="5.38338">
        <ele>1085</ele>
        <time>2022-09-22T11:32:14.057Z</time>
      </trkpt>
      <trkpt lat="44.92247" lon="5.38338">
        <ele>1086</ele>
        <time>2022-09-22T11:32:15.056Z</time>
      </trkpt>
      <trkpt lat="44.92244" lon="5.38338">
        <ele>1086</ele>
        <time>2022-09-22T11:32:16.057Z</time>
      </trkpt>
      <trkpt lat="44.92243" lon="5.38338">
        <ele>1086</ele>
        <time>2022-09-22T11:32:17.056Z</time>
      </trkpt>
      <trkpt lat="44.92241" lon="5.38339">
        <ele>1086</ele>
        <time>2022-09-22T11:32:18.056Z</time>
      </trkpt>
      <trkpt lat="44.9224" lon="5.38339">
        <ele>1086</ele>
        <time>2022-09-22T11:32:19.057Z</time>
      </trkpt>
      <trkpt lat="44.92238" lon="5.38339">
        <ele>1086</ele>
        <time>2022-09-22T11:32:20.057Z</time>
      </trkpt>
      <trkpt lat="44.92236" lon="5.38339">
        <ele>1086</ele>
        <time>2022-09-22T11:32:21.057Z</time>
      </trkpt>
      <trkpt lat="44.92234" lon="5.3834">
        <ele>1086</ele>
        <time>2022-09-22T11:32:22.056Z</time>
      </trkpt>
      <trkpt lat="44.92233" lon="5.3834">
        <ele>1086</ele>
        <time>2022-09-22T11:32:23.056Z</time>
      </trkpt>
      <trkpt lat="44.92231" lon="5.38341">
        <ele>1086</ele>
        <time>2022-09-22T11:32:24.057Z</time>
      </trkpt>
      <trkpt lat="44.92228" lon="5.38342">
        <ele>1086</ele>
        <time>2022-09-22T11:32:25.056Z</time>
      </trkpt>
      <trkpt lat="44.92226" lon="5.38342">
        <ele>1087</ele>
        <time>2022-09-22T11:32:26.057Z</time>
      </trkpt>
      <trkpt lat="44.92224" lon="5.38343">
        <ele>1087</ele>
        <time>2022-09-22T11:32:27.056Z</time>
      </trkpt>
      <trkpt lat="44.92222" lon="5.38344">
        <ele>1087</ele>
        <time>2022-09-22T11:32:28.057Z</time>
      </trkpt>
      <trkpt lat="44.92219" lon="5.38345">
        <ele>1086</ele>
        <time>2022-09-22T11:32:29.057Z</time>
      </trkpt>
      <trkpt lat="44.92217" lon="5.38345">
        <ele>1086</ele>
        <time>2022-09-22T11:32:30.057Z</time>
      </trkpt>
      <trkpt lat="44.92214" lon="5.38346">
        <ele>1086</ele>
        <time>2022-09-22T11:32:31.057Z</time>
      </trkpt>
      <trkpt lat="44.92212" lon="5.38346">
        <ele>1086</ele>
        <time>2022-09-22T11:32:32.057Z</time>
      </trkpt>
      <trkpt lat="44.92208" lon="5.38345">
        <ele>1086</ele>
        <time>2022-09-22T11:32:33.057Z</time>
      </trkpt>
      <trkpt lat="44.92206" lon="5.38345">
        <ele>1086</ele>
        <time>2022-09-22T11:32:34.056Z</time>
      </trkpt>
      <trkpt lat="44.92203" lon="5.38344">
        <ele>1086</ele>
        <time>2022-09-22T11:32:35.056Z</time>
      </trkpt>
      <trkpt lat="44.922" lon="5.38343">
        <ele>1086</ele>
        <time>2022-09-22T11:32:36.056Z</time>
      </trkpt>
      <trkpt lat="44.92199" lon="5.38342">
        <ele>1085</ele>
        <time>2022-09-22T11:32:37.057Z</time>
      </trkpt>
      <trkpt lat="44.92196" lon="5.3834">
        <ele>1085</ele>
        <time>2022-09-22T11:32:38.057Z</time>
      </trkpt>
      <trkpt lat="44.92194" lon="5.38339">
        <ele>1085</ele>
        <time>2022-09-22T11:32:39.057Z</time>
      </trkpt>
      <trkpt lat="44.92192" lon="5.38337">
        <ele>1085</ele>
        <time>2022-09-22T11:32:40.057Z</time>
      </trkpt>
      <trkpt lat="44.9219" lon="5.38335">
        <ele>1086</ele>
        <time>2022-09-22T11:32:41.057Z</time>
      </trkpt>
      <trkpt lat="44.92188" lon="5.38333">
        <ele>1086</ele>
        <time>2022-09-22T11:32:42.057Z</time>
      </trkpt>
      <trkpt lat="44.92186" lon="5.38331">
        <ele>1086</ele>
        <time>2022-09-22T11:32:43.056Z</time>
      </trkpt>
      <trkpt lat="44.92184" lon="5.38329">
        <ele>1086</ele>
        <time>2022-09-22T11:32:44.057Z</time>
      </trkpt>
      <trkpt lat="44.92181" lon="5.38327">
        <ele>1086</ele>
        <time>2022-09-22T11:32:45.056Z</time>
      </trkpt>
      <trkpt lat="44.9218" lon="5.38325">
        <ele>1085</ele>
        <time>2022-09-22T11:32:46.056Z</time>
      </trkpt>
      <trkpt lat="44.92177" lon="5.38323">
        <ele>1085</ele>
        <time>2022-09-22T11:32:47.057Z</time>
      </trkpt>
      <trkpt lat="44.92175" lon="5.38321">
        <ele>1085</ele>
        <time>2022-09-22T11:32:48.057Z</time>
      </trkpt>
      <trkpt lat="44.92173" lon="5.38319">
        <ele>1085</ele>
        <time>2022-09-22T11:32:49.057Z</time>
      </trkpt>
      <trkpt lat="44.9217" lon="5.38318">
        <ele>1085</ele>
        <time>2022-09-22T11:32:50.057Z</time>
      </trkpt>
      <trkpt lat="44.92167" lon="5.38316">
        <ele>1085</ele>
        <time>2022-09-22T11:32:51.057Z</time>
      </trkpt>
      <trkpt lat="44.92166" lon="5.38314">
        <ele>1085</ele>
        <time>2022-09-22T11:32:52.056Z</time>
      </trkpt>
      <trkpt lat="44.92163" lon="5.38313">
        <ele>1085</ele>
        <time>2022-09-22T11:32:53.056Z</time>
      </trkpt>
      <trkpt lat="44.92162" lon="5.38312">
        <ele>1084</ele>
        <time>2022-09-22T11:32:54.056Z</time>
      </trkpt>
      <trkpt lat="44.9216" lon="5.38311">
        <ele>1084</ele>
        <time>2022-09-22T11:32:55.057Z</time>
      </trkpt>
      <trkpt lat="44.92158" lon="5.3831">
        <ele>1084</ele>
        <time>2022-09-22T11:32:56.057Z</time>
      </trkpt>
      <trkpt lat="44.92157" lon="5.38309">
        <ele>1084</ele>
        <time>2022-09-22T11:32:57.057Z</time>
      </trkpt>
      <trkpt lat="44.92155" lon="5.38308">
        <ele>1084</ele>
        <time>2022-09-22T11:32:58.057Z</time>
      </trkpt>
      <trkpt lat="44.92153" lon="5.38307">
        <ele>1084</ele>
        <time>2022-09-22T11:32:59.056Z</time>
      </trkpt>
      <trkpt lat="44.92151" lon="5.38306">
        <ele>1083</ele>
        <time>2022-09-22T11:33:00.057Z</time>
      </trkpt>
      <trkpt lat="44.92149" lon="5.38304">
        <ele>1083</ele>
        <time>2022-09-22T11:33:01.056Z</time>
      </trkpt>
      <trkpt lat="44.92147" lon="5.38303">
        <ele>1083</ele>
        <time>2022-09-22T11:33:02.056Z</time>
      </trkpt>
      <trkpt lat="44.92144" lon="5.38301">
        <ele>1084</ele>
        <time>2022-09-22T11:33:03.057Z</time>
      </trkpt>
      <trkpt lat="44.92142" lon="5.38299">
        <ele>1084</ele>
        <time>2022-09-22T11:33:04.056Z</time>
      </trkpt>
      <trkpt lat="44.9214" lon="5.38296">
        <ele>1084</ele>
        <time>2022-09-22T11:33:05.057Z</time>
      </trkpt>
      <trkpt lat="44.92138" lon="5.38293">
        <ele>1084</ele>
        <time>2022-09-22T11:33:06.057Z</time>
      </trkpt>
      <trkpt lat="44.92135" lon="5.3829">
        <ele>1084</ele>
        <time>2022-09-22T11:33:07.056Z</time>
      </trkpt>
      <trkpt lat="44.92133" lon="5.38287">
        <ele>1084</ele>
        <time>2022-09-22T11:33:08.056Z</time>
      </trkpt>
      <trkpt lat="44.9213" lon="5.38284">
        <ele>1084</ele>
        <time>2022-09-22T11:33:09.057Z</time>
      </trkpt>
      <trkpt lat="44.92126" lon="5.3828">
        <ele>1084</ele>
        <time>2022-09-22T11:33:10.057Z</time>
      </trkpt>
      <trkpt lat="44.92122" lon="5.38277">
        <ele>1084</ele>
        <time>2022-09-22T11:33:11.057Z</time>
      </trkpt>
      <trkpt lat="44.92119" lon="5.38275">
        <ele>1084</ele>
        <time>2022-09-22T11:33:12.057Z</time>
      </trkpt>
      <trkpt lat="44.92116" lon="5.38272">
        <ele>1083</ele>
        <time>2022-09-22T11:33:13.057Z</time>
      </trkpt>
      <trkpt lat="44.92112" lon="5.38269">
        <ele>1083</ele>
        <time>2022-09-22T11:33:14.057Z</time>
      </trkpt>
      <trkpt lat="44.92108" lon="5.38266">
        <ele>1082</ele>
        <time>2022-09-22T11:33:15.057Z</time>
      </trkpt>
      <trkpt lat="44.92105" lon="5.38264">
        <ele>1082</ele>
        <time>2022-09-22T11:33:16.057Z</time>
      </trkpt>
      <trkpt lat="44.92103" lon="5.38262">
        <ele>1082</ele>
        <time>2022-09-22T11:33:17.057Z</time>
      </trkpt>
      <trkpt lat="44.921" lon="5.38261">
        <ele>1081</ele>
        <time>2022-09-22T11:33:18.057Z</time>
      </trkpt>
      <trkpt lat="44.92099" lon="5.3826">
        <ele>1081</ele>
        <time>2022-09-22T11:33:19.056Z</time>
      </trkpt>
      <trkpt lat="44.92096" lon="5.38258">
        <ele>1081</ele>
        <time>2022-09-22T11:33:20.057Z</time>
      </trkpt>
      <trkpt lat="44.92094" lon="5.38257">
        <ele>1081</ele>
        <time>2022-09-22T11:33:21.057Z</time>
      </trkpt>
      <trkpt lat="44.92092" lon="5.38256">
        <ele>1081</ele>
        <time>2022-09-22T11:33:22.057Z</time>
      </trkpt>
      <trkpt lat="44.92091" lon="5.38255">
        <ele>1081</ele>
        <time>2022-09-22T11:33:23.057Z</time>
      </trkpt>
      <trkpt lat="44.92089" lon="5.38253">
        <ele>1081</ele>
        <time>2022-09-22T11:33:24.057Z</time>
      </trkpt>
      <trkpt lat="44.92087" lon="5.38252">
        <ele>1081</ele>
        <time>2022-09-22T11:33:25.057Z</time>
      </trkpt>
      <trkpt lat="44.92085" lon="5.3825">
        <ele>1081</ele>
        <time>2022-09-22T11:33:26.057Z</time>
      </trkpt>
      <trkpt lat="44.92083" lon="5.38249">
        <ele>1081</ele>
        <time>2022-09-22T11:33:27.057Z</time>
      </trkpt>
      <trkpt lat="44.92082" lon="5.38248">
        <ele>1081</ele>
        <time>2022-09-22T11:33:28.057Z</time>
      </trkpt>
      <trkpt lat="44.9208" lon="5.38247">
        <ele>1081</ele>
        <time>2022-09-22T11:33:29.057Z</time>
      </trkpt>
      <trkpt lat="44.92078" lon="5.38246">
        <ele>1081</ele>
        <time>2022-09-22T11:33:30.057Z</time>
      </trkpt>
      <trkpt lat="44.92077" lon="5.38244">
        <ele>1081</ele>
        <time>2022-09-22T11:33:31.056Z</time>
      </trkpt>
      <trkpt lat="44.92075" lon="5.38243">
        <ele>1081</ele>
        <time>2022-09-22T11:33:32.057Z</time>
      </trkpt>
      <trkpt lat="44.92075" lon="5.38242">
        <ele>1081</ele>
        <time>2022-09-22T11:33:33.057Z</time>
      </trkpt>
      <trkpt lat="44.92073" lon="5.3824">
        <ele>1080</ele>
        <time>2022-09-22T11:33:34.057Z</time>
      </trkpt>
      <trkpt lat="44.92072" lon="5.3824">
        <ele>1080</ele>
        <time>2022-09-22T11:33:35.057Z</time>
      </trkpt>
      <trkpt lat="44.92071" lon="5.38239">
        <ele>1080</ele>
        <time>2022-09-22T11:33:36.057Z</time>
      </trkpt>
      <trkpt lat="44.9207" lon="5.38237">
        <ele>1081</ele>
        <time>2022-09-22T11:33:37.057Z</time>
      </trkpt>
      <trkpt lat="44.92069" lon="5.38236">
        <ele>1081</ele>
        <time>2022-09-22T11:33:38.057Z</time>
      </trkpt>
      <trkpt lat="44.92067" lon="5.38234">
        <ele>1081</ele>
        <time>2022-09-22T11:33:39.056Z</time>
      </trkpt>
      <trkpt lat="44.92067" lon="5.38233">
        <ele>1081</ele>
        <time>2022-09-22T11:33:40.057Z</time>
      </trkpt>
      <trkpt lat="44.92066" lon="5.38231">
        <ele>1082</ele>
        <time>2022-09-22T11:33:41.056Z</time>
      </trkpt>
      <trkpt lat="44.92065" lon="5.38229">
        <ele>1082</ele>
        <time>2022-09-22T11:33:42.057Z</time>
      </trkpt>
      <trkpt lat="44.92064" lon="5.38227">
        <ele>1082</ele>
        <time>2022-09-22T11:33:43.057Z</time>
      </trkpt>
      <trkpt lat="44.92063" lon="5.38225">
        <ele>1082</ele>
        <time>2022-09-22T11:33:44.057Z</time>
      </trkpt>
      <trkpt lat="44.92062" lon="5.38223">
        <ele>1082</ele>
        <time>2022-09-22T11:33:45.057Z</time>
      </trkpt>
      <trkpt lat="44.92061" lon="5.38221">
        <ele>1081</ele>
        <time>2022-09-22T11:33:46.057Z</time>
      </trkpt>
      <trkpt lat="44.92059" lon="5.38218">
        <ele>1081</ele>
        <time>2022-09-22T11:33:47.057Z</time>
      </trkpt>
      <trkpt lat="44.92058" lon="5.38216">
        <ele>1081</ele>
        <time>2022-09-22T11:33:48.057Z</time>
      </trkpt>
      <trkpt lat="44.92056" lon="5.38213">
        <ele>1081</ele>
        <time>2022-09-22T11:33:49.057Z</time>
      </trkpt>
      <trkpt lat="44.92055" lon="5.38211">
        <ele>1080</ele>
        <time>2022-09-22T11:33:50.057Z</time>
      </trkpt>
      <trkpt lat="44.92053" lon="5.38207">
        <ele>1080</ele>
        <time>2022-09-22T11:33:51.057Z</time>
      </trkpt>
      <trkpt lat="44.92052" lon="5.38203">
        <ele>1080</ele>
        <time>2022-09-22T11:33:52.057Z</time>
      </trkpt>
      <trkpt lat="44.9205" lon="5.38199">
        <ele>1080</ele>
        <time>2022-09-22T11:33:53.057Z</time>
      </trkpt>
      <trkpt lat="44.92049" lon="5.38195">
        <ele>1080</ele>
        <time>2022-09-22T11:33:54.057Z</time>
      </trkpt>
      <trkpt lat="44.92048" lon="5.3819">
        <ele>1080</ele>
        <time>2022-09-22T11:33:55.057Z</time>
      </trkpt>
      <trkpt lat="44.92047" lon="5.38186">
        <ele>1081</ele>
        <time>2022-09-22T11:33:56.057Z</time>
      </trkpt>
      <trkpt lat="44.92045" lon="5.38181">
        <ele>1081</ele>
        <time>2022-09-22T11:33:57.057Z</time>
      </trkpt>
      <trkpt lat="44.92043" lon="5.38175">
        <ele>1081</ele>
        <time>2022-09-22T11:33:58.056Z</time>
      </trkpt>
      <trkpt lat="44.92041" lon="5.3817">
        <ele>1080</ele>
        <time>2022-09-22T11:33:59.057Z</time>
      </trkpt>
      <trkpt lat="44.92038" lon="5.38166">
        <ele>1080</ele>
        <time>2022-09-22T11:34:00.057Z</time>
      </trkpt>
      <trkpt lat="44.92034" lon="5.38162">
        <ele>1080</ele>
        <time>2022-09-22T11:34:01.056Z</time>
      </trkpt>
      <trkpt lat="44.9203" lon="5.38159">
        <ele>1080</ele>
        <time>2022-09-22T11:34:02.056Z</time>
      </trkpt>
      <trkpt lat="44.92025" lon="5.38156">
        <ele>1080</ele>
        <time>2022-09-22T11:34:03.057Z</time>
      </trkpt>
      <trkpt lat="44.92022" lon="5.38154">
        <ele>1079</ele>
        <time>2022-09-22T11:34:04.057Z</time>
      </trkpt>
      <trkpt lat="44.9202" lon="5.38152">
        <ele>1079</ele>
        <time>2022-09-22T11:34:05.057Z</time>
      </trkpt>
      <trkpt lat="44.92017" lon="5.38151">
        <ele>1079</ele>
        <time>2022-09-22T11:34:06.056Z</time>
      </trkpt>
      <trkpt lat="44.92015" lon="5.3815">
        <ele>1079</ele>
        <time>2022-09-22T11:34:07.057Z</time>
      </trkpt>
      <trkpt lat="44.92014" lon="5.38149">
        <ele>1079</ele>
        <time>2022-09-22T11:34:08.057Z</time>
      </trkpt>
      <trkpt lat="44.92013" lon="5.38148">
        <ele>1078</ele>
        <time>2022-09-22T11:34:09.057Z</time>
      </trkpt>
      <trkpt lat="44.92011" lon="5.38148">
        <ele>1078</ele>
        <time>2022-09-22T11:34:10.057Z</time>
      </trkpt>
      <trkpt lat="44.9201" lon="5.38147">
        <ele>1078</ele>
        <time>2022-09-22T11:34:11.057Z</time>
      </trkpt>
      <trkpt lat="44.92008" lon="5.38147">
        <ele>1078</ele>
        <time>2022-09-22T11:34:12.057Z</time>
      </trkpt>
      <trkpt lat="44.92007" lon="5.38147">
        <ele>1078</ele>
        <time>2022-09-22T11:34:13.057Z</time>
      </trkpt>
      <trkpt lat="44.92005" lon="5.38146">
        <ele>1078</ele>
        <time>2022-09-22T11:34:14.056Z</time>
      </trkpt>
      <trkpt lat="44.92003" lon="5.38146">
        <ele>1078</ele>
        <time>2022-09-22T11:34:15.056Z</time>
      </trkpt>
      <trkpt lat="44.92001" lon="5.38146">
        <ele>1078</ele>
        <time>2022-09-22T11:34:16.057Z</time>
      </trkpt>
      <trkpt lat="44.91998" lon="5.38146">
        <ele>1078</ele>
        <time>2022-09-22T11:34:17.057Z</time>
      </trkpt>
      <trkpt lat="44.91997" lon="5.38146">
        <ele>1078</ele>
        <time>2022-09-22T11:34:18.057Z</time>
      </trkpt>
      <trkpt lat="44.91995" lon="5.38145">
        <ele>1078</ele>
        <time>2022-09-22T11:34:19.056Z</time>
      </trkpt>
      <trkpt lat="44.91992" lon="5.38145">
        <ele>1078</ele>
        <time>2022-09-22T11:34:20.057Z</time>
      </trkpt>
      <trkpt lat="44.9199" lon="5.38145">
        <ele>1078</ele>
        <time>2022-09-22T11:34:21.057Z</time>
      </trkpt>
      <trkpt lat="44.91988" lon="5.38144">
        <ele>1078</ele>
        <time>2022-09-22T11:34:22.057Z</time>
      </trkpt>
      <trkpt lat="44.91986" lon="5.38144">
        <ele>1079</ele>
        <time>2022-09-22T11:34:23.057Z</time>
      </trkpt>
      <trkpt lat="44.91984" lon="5.38143">
        <ele>1079</ele>
        <time>2022-09-22T11:34:24.057Z</time>
      </trkpt>
      <trkpt lat="44.91981" lon="5.38143">
        <ele>1079</ele>
        <time>2022-09-22T11:34:25.057Z</time>
      </trkpt>
      <trkpt lat="44.9198" lon="5.38142">
        <ele>1079</ele>
        <time>2022-09-22T11:34:26.056Z</time>
      </trkpt>
      <trkpt lat="44.91978" lon="5.38142">
        <ele>1079</ele>
        <time>2022-09-22T11:34:27.057Z</time>
      </trkpt>
      <trkpt lat="44.91976" lon="5.38141">
        <ele>1079</ele>
        <time>2022-09-22T11:34:28.057Z</time>
      </trkpt>
      <trkpt lat="44.91975" lon="5.3814">
        <ele>1079</ele>
        <time>2022-09-22T11:34:29.057Z</time>
      </trkpt>
      <trkpt lat="44.91972" lon="5.38139">
        <ele>1079</ele>
        <time>2022-09-22T11:34:30.056Z</time>
      </trkpt>
      <trkpt lat="44.91971" lon="5.38139">
        <ele>1078</ele>
        <time>2022-09-22T11:34:31.056Z</time>
      </trkpt>
      <trkpt lat="44.91969" lon="5.38138">
        <ele>1078</ele>
        <time>2022-09-22T11:34:32.057Z</time>
      </trkpt>
      <trkpt lat="44.91967" lon="5.38137">
        <ele>1078</ele>
        <time>2022-09-22T11:34:33.057Z</time>
      </trkpt>
      <trkpt lat="44.91965" lon="5.38137">
        <ele>1078</ele>
        <time>2022-09-22T11:34:34.057Z</time>
      </trkpt>
      <trkpt lat="44.91963" lon="5.38136">
        <ele>1078</ele>
        <time>2022-09-22T11:34:35.056Z</time>
      </trkpt>
      <trkpt lat="44.91961" lon="5.38136">
        <ele>1078</ele>
        <time>2022-09-22T11:34:36.057Z</time>
      </trkpt>
      <trkpt lat="44.9196" lon="5.38135">
        <ele>1078</ele>
        <time>2022-09-22T11:34:37.056Z</time>
      </trkpt>
      <trkpt lat="44.91958" lon="5.38135">
        <ele>1078</ele>
        <time>2022-09-22T11:34:38.057Z</time>
      </trkpt>
      <trkpt lat="44.91956" lon="5.38135">
        <ele>1078</ele>
        <time>2022-09-22T11:34:39.057Z</time>
      </trkpt>
      <trkpt lat="44.91953" lon="5.38134">
        <ele>1078</ele>
        <time>2022-09-22T11:34:40.057Z</time>
      </trkpt>
      <trkpt lat="44.91952" lon="5.38134">
        <ele>1079</ele>
        <time>2022-09-22T11:34:41.057Z</time>
      </trkpt>
      <trkpt lat="44.9195" lon="5.38134">
        <ele>1079</ele>
        <time>2022-09-22T11:34:42.057Z</time>
      </trkpt>
      <trkpt lat="44.91947" lon="5.38134">
        <ele>1079</ele>
        <time>2022-09-22T11:34:43.057Z</time>
      </trkpt>
      <trkpt lat="44.91946" lon="5.38134">
        <ele>1079</ele>
        <time>2022-09-22T11:34:44.057Z</time>
      </trkpt>
      <trkpt lat="44.91944" lon="5.38134">
        <ele>1079</ele>
        <time>2022-09-22T11:34:45.057Z</time>
      </trkpt>
      <trkpt lat="44.91942" lon="5.38134">
        <ele>1079</ele>
        <time>2022-09-22T11:34:46.057Z</time>
      </trkpt>
      <trkpt lat="44.9194" lon="5.38135">
        <ele>1079</ele>
        <time>2022-09-22T11:34:47.057Z</time>
      </trkpt>
      <trkpt lat="44.91938" lon="5.38135">
        <ele>1079</ele>
        <time>2022-09-22T11:34:48.057Z</time>
      </trkpt>
      <trkpt lat="44.91936" lon="5.38136">
        <ele>1079</ele>
        <time>2022-09-22T11:34:49.057Z</time>
      </trkpt>
      <trkpt lat="44.91934" lon="5.38137">
        <ele>1080</ele>
        <time>2022-09-22T11:34:50.056Z</time>
      </trkpt>
      <trkpt lat="44.91933" lon="5.38137">
        <ele>1080</ele>
        <time>2022-09-22T11:34:51.056Z</time>
      </trkpt>
      <trkpt lat="44.9193" lon="5.38138">
        <ele>1080</ele>
        <time>2022-09-22T11:34:52.057Z</time>
      </trkpt>
      <trkpt lat="44.91929" lon="5.38138">
        <ele>1080</ele>
        <time>2022-09-22T11:34:53.056Z</time>
      </trkpt>
      <trkpt lat="44.91927" lon="5.38139">
        <ele>1080</ele>
        <time>2022-09-22T11:34:54.057Z</time>
      </trkpt>
      <trkpt lat="44.91925" lon="5.38139">
        <ele>1081</ele>
        <time>2022-09-22T11:34:55.057Z</time>
      </trkpt>
      <trkpt lat="44.91923" lon="5.3814">
        <ele>1081</ele>
        <time>2022-09-22T11:34:56.057Z</time>
      </trkpt>
      <trkpt lat="44.91921" lon="5.3814">
        <ele>1081</ele>
        <time>2022-09-22T11:34:57.057Z</time>
      </trkpt>
      <trkpt lat="44.9192" lon="5.38141">
        <ele>1082</ele>
        <time>2022-09-22T11:34:58.057Z</time>
      </trkpt>
      <trkpt lat="44.91918" lon="5.38141">
        <ele>1082</ele>
        <time>2022-09-22T11:34:59.057Z</time>
      </trkpt>
      <trkpt lat="44.91916" lon="5.38141">
        <ele>1081</ele>
        <time>2022-09-22T11:35:00.057Z</time>
      </trkpt>
      <trkpt lat="44.91914" lon="5.38141">
        <ele>1082</ele>
        <time>2022-09-22T11:35:01.057Z</time>
      </trkpt>
      <trkpt lat="44.91912" lon="5.38142">
        <ele>1082</ele>
        <time>2022-09-22T11:35:02.056Z</time>
      </trkpt>
      <trkpt lat="44.91911" lon="5.38142">
        <ele>1082</ele>
        <time>2022-09-22T11:35:03.057Z</time>
      </trkpt>
      <trkpt lat="44.91909" lon="5.38142">
        <ele>1082</ele>
        <time>2022-09-22T11:35:04.057Z</time>
      </trkpt>
      <trkpt lat="44.91908" lon="5.38142">
        <ele>1082</ele>
        <time>2022-09-22T11:35:05.056Z</time>
      </trkpt>
      <trkpt lat="44.91905" lon="5.38142">
        <ele>1081</ele>
        <time>2022-09-22T11:35:06.056Z</time>
      </trkpt>
      <trkpt lat="44.91904" lon="5.38142">
        <ele>1082</ele>
        <time>2022-09-22T11:35:07.057Z</time>
      </trkpt>
      <trkpt lat="44.91902" lon="5.38143">
        <ele>1081</ele>
        <time>2022-09-22T11:35:08.057Z</time>
      </trkpt>
      <trkpt lat="44.91901" lon="5.38143">
        <ele>1081</ele>
        <time>2022-09-22T11:35:09.057Z</time>
      </trkpt>
      <trkpt lat="44.91899" lon="5.38143">
        <ele>1081</ele>
        <time>2022-09-22T11:35:10.057Z</time>
      </trkpt>
      <trkpt lat="44.91896" lon="5.38143">
        <ele>1082</ele>
        <time>2022-09-22T11:35:11.057Z</time>
      </trkpt>
      <trkpt lat="44.91894" lon="5.38143">
        <ele>1082</ele>
        <time>2022-09-22T11:35:12.056Z</time>
      </trkpt>
      <trkpt lat="44.91893" lon="5.38144">
        <ele>1082</ele>
        <time>2022-09-22T11:35:13.057Z</time>
      </trkpt>
      <trkpt lat="44.91891" lon="5.38144">
        <ele>1082</ele>
        <time>2022-09-22T11:35:14.056Z</time>
      </trkpt>
      <trkpt lat="44.9189" lon="5.38144">
        <ele>1082</ele>
        <time>2022-09-22T11:35:15.057Z</time>
      </trkpt>
      <trkpt lat="44.91888" lon="5.38145">
        <ele>1082</ele>
        <time>2022-09-22T11:35:16.057Z</time>
      </trkpt>
      <trkpt lat="44.91886" lon="5.38145">
        <ele>1082</ele>
        <time>2022-09-22T11:35:17.056Z</time>
      </trkpt>
      <trkpt lat="44.91884" lon="5.38145">
        <ele>1082</ele>
        <time>2022-09-22T11:35:18.057Z</time>
      </trkpt>
      <trkpt lat="44.91882" lon="5.38146">
        <ele>1082</ele>
        <time>2022-09-22T11:35:19.057Z</time>
      </trkpt>
      <trkpt lat="44.9188" lon="5.38146">
        <ele>1082</ele>
        <time>2022-09-22T11:35:20.057Z</time>
      </trkpt>
      <trkpt lat="44.91878" lon="5.38146">
        <ele>1082</ele>
        <time>2022-09-22T11:35:21.057Z</time>
      </trkpt>
      <trkpt lat="44.91876" lon="5.38147">
        <ele>1082</ele>
        <time>2022-09-22T11:35:22.056Z</time>
      </trkpt>
      <trkpt lat="44.91874" lon="5.38147">
        <ele>1082</ele>
        <time>2022-09-22T11:35:23.057Z</time>
      </trkpt>
      <trkpt lat="44.91872" lon="5.38147">
        <ele>1082</ele>
        <time>2022-09-22T11:35:24.056Z</time>
      </trkpt>
      <trkpt lat="44.9187" lon="5.38147">
        <ele>1082</ele>
        <time>2022-09-22T11:35:25.057Z</time>
      </trkpt>
      <trkpt lat="44.91868" lon="5.38148">
        <ele>1082</ele>
        <time>2022-09-22T11:35:26.056Z</time>
      </trkpt>
      <trkpt lat="44.91866" lon="5.38148">
        <ele>1082</ele>
        <time>2022-09-22T11:35:27.057Z</time>
      </trkpt>
      <trkpt lat="44.91864" lon="5.38148">
        <ele>1082</ele>
        <time>2022-09-22T11:35:28.056Z</time>
      </trkpt>
      <trkpt lat="44.91862" lon="5.38148">
        <ele>1082</ele>
        <time>2022-09-22T11:35:29.057Z</time>
      </trkpt>
      <trkpt lat="44.9186" lon="5.38147">
        <ele>1082</ele>
        <time>2022-09-22T11:35:30.057Z</time>
      </trkpt>
      <trkpt lat="44.91858" lon="5.38147">
        <ele>1083</ele>
        <time>2022-09-22T11:35:31.057Z</time>
      </trkpt>
      <trkpt lat="44.91856" lon="5.38146">
        <ele>1082</ele>
        <time>2022-09-22T11:35:32.057Z</time>
      </trkpt>
      <trkpt lat="44.91854" lon="5.38145">
        <ele>1082</ele>
        <time>2022-09-22T11:35:33.057Z</time>
      </trkpt>
      <trkpt lat="44.91853" lon="5.38145">
        <ele>1082</ele>
        <time>2022-09-22T11:35:34.057Z</time>
      </trkpt>
      <trkpt lat="44.91851" lon="5.38144">
        <ele>1082</ele>
        <time>2022-09-22T11:35:35.057Z</time>
      </trkpt>
      <trkpt lat="44.91849" lon="5.38143">
        <ele>1082</ele>
        <time>2022-09-22T11:35:36.056Z</time>
      </trkpt>
      <trkpt lat="44.91847" lon="5.38142">
        <ele>1082</ele>
        <time>2022-09-22T11:35:37.057Z</time>
      </trkpt>
      <trkpt lat="44.91845" lon="5.38141">
        <ele>1082</ele>
        <time>2022-09-22T11:35:38.056Z</time>
      </trkpt>
      <trkpt lat="44.91844" lon="5.3814">
        <ele>1082</ele>
        <time>2022-09-22T11:35:39.056Z</time>
      </trkpt>
      <trkpt lat="44.91842" lon="5.38139">
        <ele>1082</ele>
        <time>2022-09-22T11:35:40.057Z</time>
      </trkpt>
      <trkpt lat="44.9184" lon="5.38138">
        <ele>1082</ele>
        <time>2022-09-22T11:35:41.056Z</time>
      </trkpt>
      <trkpt lat="44.91838" lon="5.38137">
        <ele>1082</ele>
        <time>2022-09-22T11:35:42.057Z</time>
      </trkpt>
      <trkpt lat="44.91837" lon="5.38137">
        <ele>1082</ele>
        <time>2022-09-22T11:35:43.056Z</time>
      </trkpt>
      <trkpt lat="44.91835" lon="5.38136">
        <ele>1082</ele>
        <time>2022-09-22T11:35:44.057Z</time>
      </trkpt>
      <trkpt lat="44.91834" lon="5.38135">
        <ele>1082</ele>
        <time>2022-09-22T11:35:45.057Z</time>
      </trkpt>
      <trkpt lat="44.91832" lon="5.38134">
        <ele>1082</ele>
        <time>2022-09-22T11:35:46.057Z</time>
      </trkpt>
      <trkpt lat="44.91831" lon="5.38134">
        <ele>1082</ele>
        <time>2022-09-22T11:35:47.057Z</time>
      </trkpt>
      <trkpt lat="44.91829" lon="5.38133">
        <ele>1082</ele>
        <time>2022-09-22T11:35:48.056Z</time>
      </trkpt>
      <trkpt lat="44.91827" lon="5.38132">
        <ele>1082</ele>
        <time>2022-09-22T11:35:49.057Z</time>
      </trkpt>
      <trkpt lat="44.91826" lon="5.38131">
        <ele>1083</ele>
        <time>2022-09-22T11:35:50.057Z</time>
      </trkpt>
      <trkpt lat="44.91824" lon="5.3813">
        <ele>1083</ele>
        <time>2022-09-22T11:35:51.057Z</time>
      </trkpt>
      <trkpt lat="44.91822" lon="5.38129">
        <ele>1083</ele>
        <time>2022-09-22T11:35:52.057Z</time>
      </trkpt>
      <trkpt lat="44.9182" lon="5.38128">
        <ele>1083</ele>
        <time>2022-09-22T11:35:53.057Z</time>
      </trkpt>
      <trkpt lat="44.91819" lon="5.38127">
        <ele>1083</ele>
        <time>2022-09-22T11:35:54.056Z</time>
      </trkpt>
      <trkpt lat="44.91817" lon="5.38126">
        <ele>1084</ele>
        <time>2022-09-22T11:35:55.057Z</time>
      </trkpt>
      <trkpt lat="44.91816" lon="5.38125">
        <ele>1084</ele>
        <time>2022-09-22T11:35:56.057Z</time>
      </trkpt>
      <trkpt lat="44.91814" lon="5.38124">
        <ele>1085</ele>
        <time>2022-09-22T11:35:57.056Z</time>
      </trkpt>
      <trkpt lat="44.91812" lon="5.38123">
        <ele>1085</ele>
        <time>2022-09-22T11:35:58.057Z</time>
      </trkpt>
      <trkpt lat="44.91811" lon="5.38122">
        <ele>1086</ele>
        <time>2022-09-22T11:35:59.057Z</time>
      </trkpt>
      <trkpt lat="44.91809" lon="5.38121">
        <ele>1085</ele>
        <time>2022-09-22T11:36:00.057Z</time>
      </trkpt>
      <trkpt lat="44.91808" lon="5.3812">
        <ele>1085</ele>
        <time>2022-09-22T11:36:01.056Z</time>
      </trkpt>
      <trkpt lat="44.91806" lon="5.38119">
        <ele>1085</ele>
        <time>2022-09-22T11:36:02.057Z</time>
      </trkpt>
      <trkpt lat="44.91804" lon="5.38117">
        <ele>1085</ele>
        <time>2022-09-22T11:36:03.057Z</time>
      </trkpt>
      <trkpt lat="44.91803" lon="5.38116">
        <ele>1085</ele>
        <time>2022-09-22T11:36:04.057Z</time>
      </trkpt>
      <trkpt lat="44.91801" lon="5.38115">
        <ele>1086</ele>
        <time>2022-09-22T11:36:05.057Z</time>
      </trkpt>
      <trkpt lat="44.918" lon="5.38114">
        <ele>1086</ele>
        <time>2022-09-22T11:36:06.057Z</time>
      </trkpt>
      <trkpt lat="44.91798" lon="5.38113">
        <ele>1086</ele>
        <time>2022-09-22T11:36:07.057Z</time>
      </trkpt>
      <trkpt lat="44.91797" lon="5.38112">
        <ele>1086</ele>
        <time>2022-09-22T11:36:08.056Z</time>
      </trkpt>
      <trkpt lat="44.91796" lon="5.3811">
        <ele>1086</ele>
        <time>2022-09-22T11:36:09.057Z</time>
      </trkpt>
      <trkpt lat="44.91794" lon="5.38109">
        <ele>1086</ele>
        <time>2022-09-22T11:36:10.056Z</time>
      </trkpt>
      <trkpt lat="44.91793" lon="5.38108">
        <ele>1086</ele>
        <time>2022-09-22T11:36:11.057Z</time>
      </trkpt>
      <trkpt lat="44.91792" lon="5.38106">
        <ele>1086</ele>
        <time>2022-09-22T11:36:12.057Z</time>
      </trkpt>
      <trkpt lat="44.9179" lon="5.38105">
        <ele>1085</ele>
        <time>2022-09-22T11:36:13.057Z</time>
      </trkpt>
      <trkpt lat="44.91789" lon="5.38103">
        <ele>1085</ele>
        <time>2022-09-22T11:36:14.057Z</time>
      </trkpt>
      <trkpt lat="44.91787" lon="5.38102">
        <ele>1086</ele>
        <time>2022-09-22T11:36:15.057Z</time>
      </trkpt>
      <trkpt lat="44.91786" lon="5.381">
        <ele>1086</ele>
        <time>2022-09-22T11:36:16.057Z</time>
      </trkpt>
      <trkpt lat="44.91785" lon="5.38099">
        <ele>1086</ele>
        <time>2022-09-22T11:36:17.056Z</time>
      </trkpt>
      <trkpt lat="44.91783" lon="5.38097">
        <ele>1086</ele>
        <time>2022-09-22T11:36:18.057Z</time>
      </trkpt>
      <trkpt lat="44.91782" lon="5.38096">
        <ele>1086</ele>
        <time>2022-09-22T11:36:19.057Z</time>
      </trkpt>
      <trkpt lat="44.91781" lon="5.38094">
        <ele>1086</ele>
        <time>2022-09-22T11:36:20.057Z</time>
      </trkpt>
      <trkpt lat="44.9178" lon="5.38093">
        <ele>1085</ele>
        <time>2022-09-22T11:36:21.057Z</time>
      </trkpt>
      <trkpt lat="44.91778" lon="5.38091">
        <ele>1085</ele>
        <time>2022-09-22T11:36:22.056Z</time>
      </trkpt>
      <trkpt lat="44.91777" lon="5.3809">
        <ele>1085</ele>
        <time>2022-09-22T11:36:23.057Z</time>
      </trkpt>
      <trkpt lat="44.91776" lon="5.38088">
        <ele>1085</ele>
        <time>2022-09-22T11:36:24.056Z</time>
      </trkpt>
      <trkpt lat="44.91775" lon="5.38086">
        <ele>1086</ele>
        <time>2022-09-22T11:36:25.057Z</time>
      </trkpt>
      <trkpt lat="44.91774" lon="5.38084">
        <ele>1086</ele>
        <time>2022-09-22T11:36:26.057Z</time>
      </trkpt>
      <trkpt lat="44.91773" lon="5.38083">
        <ele>1086</ele>
        <time>2022-09-22T11:36:27.056Z</time>
      </trkpt>
      <trkpt lat="44.91772" lon="5.38081">
        <ele>1086</ele>
        <time>2022-09-22T11:36:28.057Z</time>
      </trkpt>
      <trkpt lat="44.91772" lon="5.38079">
        <ele>1087</ele>
        <time>2022-09-22T11:36:29.057Z</time>
      </trkpt>
      <trkpt lat="44.91771" lon="5.38076">
        <ele>1087</ele>
        <time>2022-09-22T11:36:30.056Z</time>
      </trkpt>
      <trkpt lat="44.9177" lon="5.38074">
        <ele>1088</ele>
        <time>2022-09-22T11:36:31.057Z</time>
      </trkpt>
      <trkpt lat="44.91769" lon="5.38072">
        <ele>1088</ele>
        <time>2022-09-22T11:36:32.057Z</time>
      </trkpt>
      <trkpt lat="44.91769" lon="5.38069">
        <ele>1089</ele>
        <time>2022-09-22T11:36:33.057Z</time>
      </trkpt>
      <trkpt lat="44.91768" lon="5.38067">
        <ele>1089</ele>
        <time>2022-09-22T11:36:34.057Z</time>
      </trkpt>
      <trkpt lat="44.91767" lon="5.38064">
        <ele>1089</ele>
        <time>2022-09-22T11:36:35.057Z</time>
      </trkpt>
      <trkpt lat="44.91766" lon="5.38061">
        <ele>1090</ele>
        <time>2022-09-22T11:36:36.057Z</time>
      </trkpt>
      <trkpt lat="44.91766" lon="5.38059">
        <ele>1090</ele>
        <time>2022-09-22T11:36:37.057Z</time>
      </trkpt>
      <trkpt lat="44.91765" lon="5.38056">
        <ele>1090</ele>
        <time>2022-09-22T11:36:38.057Z</time>
      </trkpt>
      <trkpt lat="44.91765" lon="5.38054">
        <ele>1090</ele>
        <time>2022-09-22T11:36:39.057Z</time>
      </trkpt>
      <trkpt lat="44.91764" lon="5.38052">
        <ele>1090</ele>
        <time>2022-09-22T11:36:40.056Z</time>
      </trkpt>
      <trkpt lat="44.91763" lon="5.3805">
        <ele>1090</ele>
        <time>2022-09-22T11:36:41.057Z</time>
      </trkpt>
      <trkpt lat="44.91763" lon="5.38048">
        <ele>1090</ele>
        <time>2022-09-22T11:36:42.056Z</time>
      </trkpt>
      <trkpt lat="44.91763" lon="5.38045">
        <ele>1089</ele>
        <time>2022-09-22T11:36:43.057Z</time>
      </trkpt>
      <trkpt lat="44.91762" lon="5.38043">
        <ele>1090</ele>
        <time>2022-09-22T11:36:44.057Z</time>
      </trkpt>
      <trkpt lat="44.91762" lon="5.38041">
        <ele>1089</ele>
        <time>2022-09-22T11:36:45.057Z</time>
      </trkpt>
      <trkpt lat="44.91761" lon="5.38039">
        <ele>1089</ele>
        <time>2022-09-22T11:36:46.057Z</time>
      </trkpt>
      <trkpt lat="44.91761" lon="5.38036">
        <ele>1089</ele>
        <time>2022-09-22T11:36:47.057Z</time>
      </trkpt>
      <trkpt lat="44.9176" lon="5.38034">
        <ele>1089</ele>
        <time>2022-09-22T11:36:48.057Z</time>
      </trkpt>
      <trkpt lat="44.9176" lon="5.38032">
        <ele>1089</ele>
        <time>2022-09-22T11:36:49.057Z</time>
      </trkpt>
      <trkpt lat="44.91759" lon="5.38029">
        <ele>1089</ele>
        <time>2022-09-22T11:36:50.056Z</time>
      </trkpt>
      <trkpt lat="44.91759" lon="5.38027">
        <ele>1088</ele>
        <time>2022-09-22T11:36:51.056Z</time>
      </trkpt>
      <trkpt lat="44.91758" lon="5.38025">
        <ele>1088</ele>
        <time>2022-09-22T11:36:52.056Z</time>
      </trkpt>
      <trkpt lat="44.91757" lon="5.38022">
        <ele>1088</ele>
        <time>2022-09-22T11:36:53.056Z</time>
      </trkpt>
      <trkpt lat="44.91757" lon="5.3802">
        <ele>1088</ele>
        <time>2022-09-22T11:36:54.057Z</time>
      </trkpt>
      <trkpt lat="44.91756" lon="5.38018">
        <ele>1088</ele>
        <time>2022-09-22T11:36:55.057Z</time>
      </trkpt>
      <trkpt lat="44.91755" lon="5.38016">
        <ele>1088</ele>
        <time>2022-09-22T11:36:56.057Z</time>
      </trkpt>
      <trkpt lat="44.91755" lon="5.38014">
        <ele>1088</ele>
        <time>2022-09-22T11:36:57.057Z</time>
      </trkpt>
      <trkpt lat="44.91754" lon="5.38011">
        <ele>1088</ele>
        <time>2022-09-22T11:36:58.057Z</time>
      </trkpt>
      <trkpt lat="44.91753" lon="5.38009">
        <ele>1088</ele>
        <time>2022-09-22T11:36:59.057Z</time>
      </trkpt>
      <trkpt lat="44.91752" lon="5.38007">
        <ele>1088</ele>
        <time>2022-09-22T11:37:00.057Z</time>
      </trkpt>
      <trkpt lat="44.91751" lon="5.38005">
        <ele>1088</ele>
        <time>2022-09-22T11:37:01.057Z</time>
      </trkpt>
      <trkpt lat="44.9175" lon="5.38003">
        <ele>1088</ele>
        <time>2022-09-22T11:37:02.057Z</time>
      </trkpt>
      <trkpt lat="44.91749" lon="5.38001">
        <ele>1088</ele>
        <time>2022-09-22T11:37:03.057Z</time>
      </trkpt>
      <trkpt lat="44.91748" lon="5.37999">
        <ele>1088</ele>
        <time>2022-09-22T11:37:04.057Z</time>
      </trkpt>
      <trkpt lat="44.91747" lon="5.37997">
        <ele>1088</ele>
        <time>2022-09-22T11:37:05.056Z</time>
      </trkpt>
      <trkpt lat="44.91746" lon="5.37995">
        <ele>1088</ele>
        <time>2022-09-22T11:37:06.057Z</time>
      </trkpt>
      <trkpt lat="44.91745" lon="5.37993">
        <ele>1087</ele>
        <time>2022-09-22T11:37:07.057Z</time>
      </trkpt>
      <trkpt lat="44.91744" lon="5.37991">
        <ele>1087</ele>
        <time>2022-09-22T11:37:08.057Z</time>
      </trkpt>
      <trkpt lat="44.91743" lon="5.37989">
        <ele>1087</ele>
        <time>2022-09-22T11:37:09.057Z</time>
      </trkpt>
      <trkpt lat="44.91741" lon="5.37987">
        <ele>1087</ele>
        <time>2022-09-22T11:37:10.057Z</time>
      </trkpt>
      <trkpt lat="44.9174" lon="5.37985">
        <ele>1087</ele>
        <time>2022-09-22T11:37:11.057Z</time>
      </trkpt>
      <trkpt lat="44.91739" lon="5.37983">
        <ele>1088</ele>
        <time>2022-09-22T11:37:12.057Z</time>
      </trkpt>
      <trkpt lat="44.91738" lon="5.37982">
        <ele>1088</ele>
        <time>2022-09-22T11:37:13.056Z</time>
      </trkpt>
      <trkpt lat="44.91736" lon="5.3798">
        <ele>1088</ele>
        <time>2022-09-22T11:37:14.057Z</time>
      </trkpt>
      <trkpt lat="44.91735" lon="5.37978">
        <ele>1088</ele>
        <time>2022-09-22T11:37:15.056Z</time>
      </trkpt>
      <trkpt lat="44.91733" lon="5.37977">
        <ele>1089</ele>
        <time>2022-09-22T11:37:16.057Z</time>
      </trkpt>
      <trkpt lat="44.91731" lon="5.37975">
        <ele>1089</ele>
        <time>2022-09-22T11:37:17.057Z</time>
      </trkpt>
      <trkpt lat="44.9173" lon="5.37974">
        <ele>1089</ele>
        <time>2022-09-22T11:37:18.056Z</time>
      </trkpt>
      <trkpt lat="44.91728" lon="5.37973">
        <ele>1089</ele>
        <time>2022-09-22T11:37:19.056Z</time>
      </trkpt>
      <trkpt lat="44.91726" lon="5.37972">
        <ele>1090</ele>
        <time>2022-09-22T11:37:20.057Z</time>
      </trkpt>
      <trkpt lat="44.91724" lon="5.37971">
        <ele>1090</ele>
        <time>2022-09-22T11:37:21.057Z</time>
      </trkpt>
      <trkpt lat="44.91722" lon="5.37971">
        <ele>1090</ele>
        <time>2022-09-22T11:37:22.056Z</time>
      </trkpt>
      <trkpt lat="44.91721" lon="5.3797">
        <ele>1090</ele>
        <time>2022-09-22T11:37:23.057Z</time>
      </trkpt>
      <trkpt lat="44.91719" lon="5.3797">
        <ele>1090</ele>
        <time>2022-09-22T11:37:24.057Z</time>
      </trkpt>
      <trkpt lat="44.91717" lon="5.3797">
        <ele>1090</ele>
        <time>2022-09-22T11:37:25.057Z</time>
      </trkpt>
      <trkpt lat="44.91714" lon="5.3797">
        <ele>1090</ele>
        <time>2022-09-22T11:37:26.056Z</time>
      </trkpt>
      <trkpt lat="44.91712" lon="5.3797">
        <ele>1090</ele>
        <time>2022-09-22T11:37:27.057Z</time>
      </trkpt>
      <trkpt lat="44.9171" lon="5.3797">
        <ele>1090</ele>
        <time>2022-09-22T11:37:28.057Z</time>
      </trkpt>
      <trkpt lat="44.91708" lon="5.3797">
        <ele>1090</ele>
        <time>2022-09-22T11:37:29.057Z</time>
      </trkpt>
      <trkpt lat="44.91706" lon="5.3797">
        <ele>1090</ele>
        <time>2022-09-22T11:37:30.057Z</time>
      </trkpt>
      <trkpt lat="44.91704" lon="5.3797">
        <ele>1090</ele>
        <time>2022-09-22T11:37:31.057Z</time>
      </trkpt>
      <trkpt lat="44.91703" lon="5.3797">
        <ele>1090</ele>
        <time>2022-09-22T11:37:32.057Z</time>
      </trkpt>
      <trkpt lat="44.917" lon="5.3797">
        <ele>1090</ele>
        <time>2022-09-22T11:37:33.057Z</time>
      </trkpt>
      <trkpt lat="44.91698" lon="5.3797">
        <ele>1090</ele>
        <time>2022-09-22T11:37:34.056Z</time>
      </trkpt>
      <trkpt lat="44.91696" lon="5.3797">
        <ele>1091</ele>
        <time>2022-09-22T11:37:35.057Z</time>
      </trkpt>
      <trkpt lat="44.91694" lon="5.3797">
        <ele>1091</ele>
        <time>2022-09-22T11:37:36.056Z</time>
      </trkpt>
      <trkpt lat="44.91693" lon="5.37969">
        <ele>1091</ele>
        <time>2022-09-22T11:37:37.057Z</time>
      </trkpt>
      <trkpt lat="44.91691" lon="5.37969">
        <ele>1091</ele>
        <time>2022-09-22T11:37:38.057Z</time>
      </trkpt>
      <trkpt lat="44.91689" lon="5.37969">
        <ele>1091</ele>
        <time>2022-09-22T11:37:39.056Z</time>
      </trkpt>
      <trkpt lat="44.91687" lon="5.37969">
        <ele>1091</ele>
        <time>2022-09-22T11:37:40.057Z</time>
      </trkpt>
      <trkpt lat="44.91685" lon="5.37968">
        <ele>1092</ele>
        <time>2022-09-22T11:37:41.057Z</time>
      </trkpt>
      <trkpt lat="44.91682" lon="5.37968">
        <ele>1092</ele>
        <time>2022-09-22T11:37:42.056Z</time>
      </trkpt>
      <trkpt lat="44.9168" lon="5.37968">
        <ele>1092</ele>
        <time>2022-09-22T11:37:43.057Z</time>
      </trkpt>
      <trkpt lat="44.91678" lon="5.37968">
        <ele>1092</ele>
        <time>2022-09-22T11:37:44.057Z</time>
      </trkpt>
      <trkpt lat="44.91676" lon="5.37967">
        <ele>1092</ele>
        <time>2022-09-22T11:37:45.057Z</time>
      </trkpt>
      <trkpt lat="44.91674" lon="5.37966">
        <ele>1092</ele>
        <time>2022-09-22T11:37:46.056Z</time>
      </trkpt>
      <trkpt lat="44.91672" lon="5.37966">
        <ele>1092</ele>
        <time>2022-09-22T11:37:47.057Z</time>
      </trkpt>
      <trkpt lat="44.9167" lon="5.37965">
        <ele>1093</ele>
        <time>2022-09-22T11:37:48.056Z</time>
      </trkpt>
      <trkpt lat="44.91668" lon="5.37964">
        <ele>1092</ele>
        <time>2022-09-22T11:37:49.056Z</time>
      </trkpt>
      <trkpt lat="44.91666" lon="5.37963">
        <ele>1092</ele>
        <time>2022-09-22T11:37:50.056Z</time>
      </trkpt>
      <trkpt lat="44.91664" lon="5.37962">
        <ele>1092</ele>
        <time>2022-09-22T11:37:51.057Z</time>
      </trkpt>
      <trkpt lat="44.91662" lon="5.37962">
        <ele>1092</ele>
        <time>2022-09-22T11:37:52.057Z</time>
      </trkpt>
      <trkpt lat="44.9166" lon="5.37961">
        <ele>1092</ele>
        <time>2022-09-22T11:37:53.056Z</time>
      </trkpt>
      <trkpt lat="44.91658" lon="5.3796">
        <ele>1092</ele>
        <time>2022-09-22T11:37:54.057Z</time>
      </trkpt>
      <trkpt lat="44.91656" lon="5.37959">
        <ele>1093</ele>
        <time>2022-09-22T11:37:55.056Z</time>
      </trkpt>
      <trkpt lat="44.91654" lon="5.37958">
        <ele>1093</ele>
        <time>2022-09-22T11:37:56.057Z</time>
      </trkpt>
      <trkpt lat="44.91653" lon="5.37958">
        <ele>1093</ele>
        <time>2022-09-22T11:37:57.057Z</time>
      </trkpt>
      <trkpt lat="44.91651" lon="5.37957">
        <ele>1092</ele>
        <time>2022-09-22T11:37:58.057Z</time>
      </trkpt>
      <trkpt lat="44.91649" lon="5.37957">
        <ele>1092</ele>
        <time>2022-09-22T11:37:59.057Z</time>
      </trkpt>
      <trkpt lat="44.91647" lon="5.37957">
        <ele>1092</ele>
        <time>2022-09-22T11:38:00.056Z</time>
      </trkpt>
      <trkpt lat="44.91645" lon="5.37957">
        <ele>1093</ele>
        <time>2022-09-22T11:38:01.057Z</time>
      </trkpt>
      <trkpt lat="44.91644" lon="5.37957">
        <ele>1093</ele>
        <time>2022-09-22T11:38:02.057Z</time>
      </trkpt>
      <trkpt lat="44.91642" lon="5.37957">
        <ele>1093</ele>
        <time>2022-09-22T11:38:03.057Z</time>
      </trkpt>
      <trkpt lat="44.9164" lon="5.37957">
        <ele>1093</ele>
        <time>2022-09-22T11:38:04.057Z</time>
      </trkpt>
      <trkpt lat="44.91639" lon="5.37957">
        <ele>1093</ele>
        <time>2022-09-22T11:38:05.057Z</time>
      </trkpt>
      <trkpt lat="44.91637" lon="5.37958">
        <ele>1093</ele>
        <time>2022-09-22T11:38:06.057Z</time>
      </trkpt>
      <trkpt lat="44.91636" lon="5.37958">
        <ele>1093</ele>
        <time>2022-09-22T11:38:07.057Z</time>
      </trkpt>
      <trkpt lat="44.91634" lon="5.37958">
        <ele>1093</ele>
        <time>2022-09-22T11:38:08.056Z</time>
      </trkpt>
      <trkpt lat="44.91632" lon="5.37958">
        <ele>1093</ele>
        <time>2022-09-22T11:38:09.056Z</time>
      </trkpt>
      <trkpt lat="44.9163" lon="5.37959">
        <ele>1093</ele>
        <time>2022-09-22T11:38:10.057Z</time>
      </trkpt>
      <trkpt lat="44.91627" lon="5.37959">
        <ele>1093</ele>
        <time>2022-09-22T11:38:11.057Z</time>
      </trkpt>
      <trkpt lat="44.91625" lon="5.37959">
        <ele>1094</ele>
        <time>2022-09-22T11:38:12.056Z</time>
      </trkpt>
      <trkpt lat="44.91623" lon="5.37959">
        <ele>1094</ele>
        <time>2022-09-22T11:38:13.057Z</time>
      </trkpt>
      <trkpt lat="44.9162" lon="5.37959">
        <ele>1094</ele>
        <time>2022-09-22T11:38:14.056Z</time>
      </trkpt>
      <trkpt lat="44.91618" lon="5.37959">
        <ele>1094</ele>
        <time>2022-09-22T11:38:15.057Z</time>
      </trkpt>
      <trkpt lat="44.91616" lon="5.37959">
        <ele>1095</ele>
        <time>2022-09-22T11:38:16.057Z</time>
      </trkpt>
      <trkpt lat="44.91613" lon="5.3796">
        <ele>1095</ele>
        <time>2022-09-22T11:38:17.057Z</time>
      </trkpt>
      <trkpt lat="44.91611" lon="5.3796">
        <ele>1095</ele>
        <time>2022-09-22T11:38:18.056Z</time>
      </trkpt>
      <trkpt lat="44.91608" lon="5.3796">
        <ele>1095</ele>
        <time>2022-09-22T11:38:19.057Z</time>
      </trkpt>
      <trkpt lat="44.91606" lon="5.37961">
        <ele>1095</ele>
        <time>2022-09-22T11:38:20.057Z</time>
      </trkpt>
      <trkpt lat="44.91603" lon="5.37961">
        <ele>1094</ele>
        <time>2022-09-22T11:38:21.057Z</time>
      </trkpt>
      <trkpt lat="44.91601" lon="5.37961">
        <ele>1094</ele>
        <time>2022-09-22T11:38:22.056Z</time>
      </trkpt>
      <trkpt lat="44.91598" lon="5.37961">
        <ele>1094</ele>
        <time>2022-09-22T11:38:23.057Z</time>
      </trkpt>
      <trkpt lat="44.91595" lon="5.37961">
        <ele>1095</ele>
        <time>2022-09-22T11:38:24.056Z</time>
      </trkpt>
      <trkpt lat="44.91592" lon="5.37962">
        <ele>1095</ele>
        <time>2022-09-22T11:38:25.057Z</time>
      </trkpt>
      <trkpt lat="44.9159" lon="5.37962">
        <ele>1095</ele>
        <time>2022-09-22T11:38:26.057Z</time>
      </trkpt>
      <trkpt lat="44.91587" lon="5.37962">
        <ele>1095</ele>
        <time>2022-09-22T11:38:27.057Z</time>
      </trkpt>
      <trkpt lat="44.91585" lon="5.37963">
        <ele>1095</ele>
        <time>2022-09-22T11:38:28.057Z</time>
      </trkpt>
      <trkpt lat="44.91582" lon="5.37963">
        <ele>1095</ele>
        <time>2022-09-22T11:38:29.057Z</time>
      </trkpt>
      <trkpt lat="44.91579" lon="5.37964">
        <ele>1095</ele>
        <time>2022-09-22T11:38:30.056Z</time>
      </trkpt>
      <trkpt lat="44.91576" lon="5.37964">
        <ele>1095</ele>
        <time>2022-09-22T11:38:31.057Z</time>
      </trkpt>
      <trkpt lat="44.91573" lon="5.37964">
        <ele>1095</ele>
        <time>2022-09-22T11:38:32.056Z</time>
      </trkpt>
      <trkpt lat="44.91569" lon="5.37964">
        <ele>1095</ele>
        <time>2022-09-22T11:38:33.057Z</time>
      </trkpt>
      <trkpt lat="44.91566" lon="5.37964">
        <ele>1095</ele>
        <time>2022-09-22T11:38:34.057Z</time>
      </trkpt>
      <trkpt lat="44.91563" lon="5.37964">
        <ele>1095</ele>
        <time>2022-09-22T11:38:35.057Z</time>
      </trkpt>
      <trkpt lat="44.9156" lon="5.37964">
        <ele>1095</ele>
        <time>2022-09-22T11:38:36.057Z</time>
      </trkpt>
      <trkpt lat="44.91557" lon="5.37965">
        <ele>1095</ele>
        <time>2022-09-22T11:38:37.056Z</time>
      </trkpt>
      <trkpt lat="44.91554" lon="5.37965">
        <ele>1095</ele>
        <time>2022-09-22T11:38:38.056Z</time>
      </trkpt>
      <trkpt lat="44.9155" lon="5.37965">
        <ele>1095</ele>
        <time>2022-09-22T11:38:39.056Z</time>
      </trkpt>
      <trkpt lat="44.91548" lon="5.37965">
        <ele>1095</ele>
        <time>2022-09-22T11:38:40.056Z</time>
      </trkpt>
      <trkpt lat="44.91545" lon="5.37965">
        <ele>1095</ele>
        <time>2022-09-22T11:38:41.056Z</time>
      </trkpt>
      <trkpt lat="44.91542" lon="5.37965">
        <ele>1095</ele>
        <time>2022-09-22T11:38:42.057Z</time>
      </trkpt>
      <trkpt lat="44.91539" lon="5.37966">
        <ele>1095</ele>
        <time>2022-09-22T11:38:43.057Z</time>
      </trkpt>
      <trkpt lat="44.91536" lon="5.37966">
        <ele>1095</ele>
        <time>2022-09-22T11:38:44.057Z</time>
      </trkpt>
      <trkpt lat="44.91533" lon="5.37966">
        <ele>1095</ele>
        <time>2022-09-22T11:38:45.057Z</time>
      </trkpt>
      <trkpt lat="44.9153" lon="5.37966">
        <ele>1095</ele>
        <time>2022-09-22T11:38:46.057Z</time>
      </trkpt>
      <trkpt lat="44.91527" lon="5.37967">
        <ele>1095</ele>
        <time>2022-09-22T11:38:47.057Z</time>
      </trkpt>
      <trkpt lat="44.91523" lon="5.37967">
        <ele>1095</ele>
        <time>2022-09-22T11:38:48.057Z</time>
      </trkpt>
      <trkpt lat="44.9152" lon="5.37967">
        <ele>1095</ele>
        <time>2022-09-22T11:38:49.057Z</time>
      </trkpt>
      <trkpt lat="44.91517" lon="5.37968">
        <ele>1095</ele>
        <time>2022-09-22T11:38:50.056Z</time>
      </trkpt>
      <trkpt lat="44.91514" lon="5.37968">
        <ele>1095</ele>
        <time>2022-09-22T11:38:51.057Z</time>
      </trkpt>
      <trkpt lat="44.91512" lon="5.37968">
        <ele>1095</ele>
        <time>2022-09-22T11:38:52.056Z</time>
      </trkpt>
      <trkpt lat="44.91509" lon="5.37969">
        <ele>1094</ele>
        <time>2022-09-22T11:38:53.057Z</time>
      </trkpt>
      <trkpt lat="44.91506" lon="5.37969">
        <ele>1094</ele>
        <time>2022-09-22T11:38:54.057Z</time>
      </trkpt>
      <trkpt lat="44.91504" lon="5.37969">
        <ele>1094</ele>
        <time>2022-09-22T11:38:55.057Z</time>
      </trkpt>
      <trkpt lat="44.91501" lon="5.37969">
        <ele>1094</ele>
        <time>2022-09-22T11:38:56.057Z</time>
      </trkpt>
      <trkpt lat="44.91498" lon="5.3797">
        <ele>1094</ele>
        <time>2022-09-22T11:38:57.057Z</time>
      </trkpt>
      <trkpt lat="44.91495" lon="5.3797">
        <ele>1094</ele>
        <time>2022-09-22T11:38:58.057Z</time>
      </trkpt>
      <trkpt lat="44.91492" lon="5.3797">
        <ele>1094</ele>
        <time>2022-09-22T11:38:59.057Z</time>
      </trkpt>
      <trkpt lat="44.91488" lon="5.3797">
        <ele>1094</ele>
        <time>2022-09-22T11:39:00.056Z</time>
      </trkpt>
      <trkpt lat="44.91485" lon="5.37971">
        <ele>1095</ele>
        <time>2022-09-22T11:39:01.056Z</time>
      </trkpt>
      <trkpt lat="44.91482" lon="5.37971">
        <ele>1095</ele>
        <time>2022-09-22T11:39:02.056Z</time>
      </trkpt>
      <trkpt lat="44.91479" lon="5.37972">
        <ele>1095</ele>
        <time>2022-09-22T11:39:03.056Z</time>
      </trkpt>
      <trkpt lat="44.91475" lon="5.37972">
        <ele>1095</ele>
        <time>2022-09-22T11:39:04.056Z</time>
      </trkpt>
      <trkpt lat="44.91471" lon="5.37972">
        <ele>1095</ele>
        <time>2022-09-22T11:39:05.057Z</time>
      </trkpt>
      <trkpt lat="44.91467" lon="5.37971">
        <ele>1095</ele>
        <time>2022-09-22T11:39:06.057Z</time>
      </trkpt>
      <trkpt lat="44.91463" lon="5.37972">
        <ele>1094</ele>
        <time>2022-09-22T11:39:07.057Z</time>
      </trkpt>
      <trkpt lat="44.9146" lon="5.37972">
        <ele>1094</ele>
        <time>2022-09-22T11:39:08.057Z</time>
      </trkpt>
      <trkpt lat="44.91457" lon="5.37973">
        <ele>1093</ele>
        <time>2022-09-22T11:39:09.057Z</time>
      </trkpt>
      <trkpt lat="44.91454" lon="5.37974">
        <ele>1093</ele>
        <time>2022-09-22T11:39:10.057Z</time>
      </trkpt>
      <trkpt lat="44.91451" lon="5.37976">
        <ele>1093</ele>
        <time>2022-09-22T11:39:11.057Z</time>
      </trkpt>
      <trkpt lat="44.91449" lon="5.37979">
        <ele>1093</ele>
        <time>2022-09-22T11:39:12.056Z</time>
      </trkpt>
      <trkpt lat="44.91448" lon="5.37981">
        <ele>1093</ele>
        <time>2022-09-22T11:39:13.057Z</time>
      </trkpt>
      <trkpt lat="44.91447" lon="5.37984">
        <ele>1093</ele>
        <time>2022-09-22T11:39:14.057Z</time>
      </trkpt>
      <trkpt lat="44.91448" lon="5.37987">
        <ele>1092</ele>
        <time>2022-09-22T11:39:15.056Z</time>
      </trkpt>
      <trkpt lat="44.91448" lon="5.3799">
        <ele>1092</ele>
        <time>2022-09-22T11:39:16.057Z</time>
      </trkpt>
      <trkpt lat="44.91449" lon="5.37993">
        <ele>1092</ele>
        <time>2022-09-22T11:39:17.057Z</time>
      </trkpt>
      <trkpt lat="44.9145" lon="5.37996">
        <ele>1091</ele>
        <time>2022-09-22T11:39:18.057Z</time>
      </trkpt>
      <trkpt lat="44.91451" lon="5.37999">
        <ele>1091</ele>
        <time>2022-09-22T11:39:19.057Z</time>
      </trkpt>
      <trkpt lat="44.91452" lon="5.38002">
        <ele>1091</ele>
        <time>2022-09-22T11:39:20.057Z</time>
      </trkpt>
      <trkpt lat="44.91453" lon="5.38006">
        <ele>1091</ele>
        <time>2022-09-22T11:39:21.057Z</time>
      </trkpt>
      <trkpt lat="44.91454" lon="5.3801">
        <ele>1091</ele>
        <time>2022-09-22T11:39:22.057Z</time>
      </trkpt>
      <trkpt lat="44.91455" lon="5.38015">
        <ele>1092</ele>
        <time>2022-09-22T11:39:23.057Z</time>
      </trkpt>
      <trkpt lat="44.91456" lon="5.3802">
        <ele>1092</ele>
        <time>2022-09-22T11:39:24.057Z</time>
      </trkpt>
      <trkpt lat="44.91457" lon="5.38025">
        <ele>1091</ele>
        <time>2022-09-22T11:39:25.057Z</time>
      </trkpt>
      <trkpt lat="44.91458" lon="5.38029">
        <ele>1091</ele>
        <time>2022-09-22T11:39:26.057Z</time>
      </trkpt>
      <trkpt lat="44.9146" lon="5.38034">
        <ele>1091</ele>
        <time>2022-09-22T11:39:27.057Z</time>
      </trkpt>
      <trkpt lat="44.91461" lon="5.38039">
        <ele>1091</ele>
        <time>2022-09-22T11:39:28.056Z</time>
      </trkpt>
      <trkpt lat="44.91462" lon="5.38043">
        <ele>1091</ele>
        <time>2022-09-22T11:39:29.056Z</time>
      </trkpt>
      <trkpt lat="44.91463" lon="5.38048">
        <ele>1091</ele>
        <time>2022-09-22T11:39:30.057Z</time>
      </trkpt>
      <trkpt lat="44.91464" lon="5.38052">
        <ele>1092</ele>
        <time>2022-09-22T11:39:31.056Z</time>
      </trkpt>
      <trkpt lat="44.91465" lon="5.38056">
        <ele>1092</ele>
        <time>2022-09-22T11:39:32.057Z</time>
      </trkpt>
      <trkpt lat="44.91466" lon="5.38061">
        <ele>1092</ele>
        <time>2022-09-22T11:39:33.057Z</time>
      </trkpt>
      <trkpt lat="44.91466" lon="5.38065">
        <ele>1092</ele>
        <time>2022-09-22T11:39:34.056Z</time>
      </trkpt>
      <trkpt lat="44.91467" lon="5.38069">
        <ele>1092</ele>
        <time>2022-09-22T11:39:35.057Z</time>
      </trkpt>
      <trkpt lat="44.91467" lon="5.38074">
        <ele>1091</ele>
        <time>2022-09-22T11:39:36.056Z</time>
      </trkpt>
      <trkpt lat="44.91468" lon="5.38078">
        <ele>1091</ele>
        <time>2022-09-22T11:39:37.057Z</time>
      </trkpt>
      <trkpt lat="44.91468" lon="5.38082">
        <ele>1090</ele>
        <time>2022-09-22T11:39:38.057Z</time>
      </trkpt>
      <trkpt lat="44.91468" lon="5.38086">
        <ele>1090</ele>
        <time>2022-09-22T11:39:39.056Z</time>
      </trkpt>
      <trkpt lat="44.91468" lon="5.3809">
        <ele>1090</ele>
        <time>2022-09-22T11:39:40.057Z</time>
      </trkpt>
      <trkpt lat="44.91468" lon="5.38094">
        <ele>1090</ele>
        <time>2022-09-22T11:39:41.057Z</time>
      </trkpt>
      <trkpt lat="44.91468" lon="5.38098">
        <ele>1091</ele>
        <time>2022-09-22T11:39:42.057Z</time>
      </trkpt>
      <trkpt lat="44.91467" lon="5.38102">
        <ele>1091</ele>
        <time>2022-09-22T11:39:43.057Z</time>
      </trkpt>
      <trkpt lat="44.91467" lon="5.38105">
        <ele>1091</ele>
        <time>2022-09-22T11:39:44.057Z</time>
      </trkpt>
      <trkpt lat="44.91467" lon="5.38109">
        <ele>1091</ele>
        <time>2022-09-22T11:39:45.057Z</time>
      </trkpt>
      <trkpt lat="44.91467" lon="5.38112">
        <ele>1091</ele>
        <time>2022-09-22T11:39:46.057Z</time>
      </trkpt>
      <trkpt lat="44.91467" lon="5.38116">
        <ele>1090</ele>
        <time>2022-09-22T11:39:47.056Z</time>
      </trkpt>
      <trkpt lat="44.91467" lon="5.38119">
        <ele>1090</ele>
        <time>2022-09-22T11:39:48.056Z</time>
      </trkpt>
      <trkpt lat="44.91467" lon="5.38123">
        <ele>1090</ele>
        <time>2022-09-22T11:39:49.057Z</time>
      </trkpt>
      <trkpt lat="44.91466" lon="5.38126">
        <ele>1090</ele>
        <time>2022-09-22T11:39:50.056Z</time>
      </trkpt>
      <trkpt lat="44.91466" lon="5.3813">
        <ele>1091</ele>
        <time>2022-09-22T11:39:51.057Z</time>
      </trkpt>
      <trkpt lat="44.91466" lon="5.38133">
        <ele>1091</ele>
        <time>2022-09-22T11:39:52.057Z</time>
      </trkpt>
      <trkpt lat="44.91466" lon="5.38136">
        <ele>1091</ele>
        <time>2022-09-22T11:39:53.056Z</time>
      </trkpt>
      <trkpt lat="44.91466" lon="5.38138">
        <ele>1092</ele>
        <time>2022-09-22T11:39:54.056Z</time>
      </trkpt>
      <trkpt lat="44.91466" lon="5.38141">
        <ele>1092</ele>
        <time>2022-09-22T11:39:55.056Z</time>
      </trkpt>
      <trkpt lat="44.91466" lon="5.38144">
        <ele>1092</ele>
        <time>2022-09-22T11:39:56.056Z</time>
      </trkpt>
      <trkpt lat="44.91466" lon="5.38147">
        <ele>1092</ele>
        <time>2022-09-22T11:39:57.057Z</time>
      </trkpt>
      <trkpt lat="44.91466" lon="5.38149">
        <ele>1093</ele>
        <time>2022-09-22T11:39:58.057Z</time>
      </trkpt>
      <trkpt lat="44.91466" lon="5.38152">
        <ele>1093</ele>
        <time>2022-09-22T11:39:59.057Z</time>
      </trkpt>
      <trkpt lat="44.91466" lon="5.38154">
        <ele>1093</ele>
        <time>2022-09-22T11:40:00.056Z</time>
      </trkpt>
      <trkpt lat="44.91465" lon="5.38156">
        <ele>1093</ele>
        <time>2022-09-22T11:40:01.056Z</time>
      </trkpt>
      <trkpt lat="44.91465" lon="5.38158">
        <ele>1093</ele>
        <time>2022-09-22T11:40:02.056Z</time>
      </trkpt>
      <trkpt lat="44.91464" lon="5.38161">
        <ele>1093</ele>
        <time>2022-09-22T11:40:03.057Z</time>
      </trkpt>
      <trkpt lat="44.91463" lon="5.38163">
        <ele>1092</ele>
        <time>2022-09-22T11:40:04.057Z</time>
      </trkpt>
      <trkpt lat="44.91462" lon="5.38165">
        <ele>1092</ele>
        <time>2022-09-22T11:40:05.056Z</time>
      </trkpt>
      <trkpt lat="44.91462" lon="5.38166">
        <ele>1092</ele>
        <time>2022-09-22T11:40:06.057Z</time>
      </trkpt>
      <trkpt lat="44.91462" lon="5.38168">
        <ele>1092</ele>
        <time>2022-09-22T11:40:07.057Z</time>
      </trkpt>
      <trkpt lat="44.91461" lon="5.38169">
        <ele>1092</ele>
        <time>2022-09-22T11:40:08.057Z</time>
      </trkpt>
      <trkpt lat="44.91461" lon="5.3817">
        <ele>1092</ele>
        <time>2022-09-22T11:40:09.056Z</time>
      </trkpt>
      <trkpt lat="44.91461" lon="5.3817">
        <ele>1092</ele>
        <time>2022-09-22T11:40:10.056Z</time>
      </trkpt>
      <trkpt lat="44.9146" lon="5.38171">
        <ele>1093</ele>
        <time>2022-09-22T11:40:11.057Z</time>
      </trkpt>
      <trkpt lat="44.9146" lon="5.38171">
        <ele>1093</ele>
        <time>2022-09-22T11:40:12.057Z</time>
      </trkpt>
      <trkpt lat="44.91459" lon="5.38176">
        <ele>1092</ele>
        <time>2022-09-22T11:41:48.222Z</time>
      </trkpt>
      <trkpt lat="44.91457" lon="5.3818">
        <ele>1092</ele>
        <time>2022-09-22T11:41:49.221Z</time>
      </trkpt>
      <trkpt lat="44.91456" lon="5.38182">
        <ele>1092</ele>
        <time>2022-09-22T11:41:50.222Z</time>
      </trkpt>
      <trkpt lat="44.91455" lon="5.38185">
        <ele>1092</ele>
        <time>2022-09-22T11:41:51.222Z</time>
      </trkpt>
      <trkpt lat="44.91454" lon="5.38189">
        <ele>1093</ele>
        <time>2022-09-22T11:41:52.221Z</time>
      </trkpt>
      <trkpt lat="44.91452" lon="5.38192">
        <ele>1093</ele>
        <time>2022-09-22T11:41:53.222Z</time>
      </trkpt>
      <trkpt lat="44.91451" lon="5.38195">
        <ele>1093</ele>
        <time>2022-09-22T11:41:54.222Z</time>
      </trkpt>
      <trkpt lat="44.9145" lon="5.38199">
        <ele>1093</ele>
        <time>2022-09-22T11:41:55.222Z</time>
      </trkpt>
      <trkpt lat="44.91449" lon="5.38202">
        <ele>1094</ele>
        <time>2022-09-22T11:41:56.222Z</time>
      </trkpt>
      <trkpt lat="44.91448" lon="5.38204">
        <ele>1093</ele>
        <time>2022-09-22T11:41:57.222Z</time>
      </trkpt>
      <trkpt lat="44.91447" lon="5.38207">
        <ele>1093</ele>
        <time>2022-09-22T11:41:58.222Z</time>
      </trkpt>
      <trkpt lat="44.91446" lon="5.3821">
        <ele>1093</ele>
        <time>2022-09-22T11:41:59.222Z</time>
      </trkpt>
      <trkpt lat="44.91445" lon="5.38213">
        <ele>1092</ele>
        <time>2022-09-22T11:42:00.222Z</time>
      </trkpt>
      <trkpt lat="44.91444" lon="5.38216">
        <ele>1092</ele>
        <time>2022-09-22T11:42:01.222Z</time>
      </trkpt>
      <trkpt lat="44.91443" lon="5.38219">
        <ele>1092</ele>
        <time>2022-09-22T11:42:02.221Z</time>
      </trkpt>
      <trkpt lat="44.91443" lon="5.38221">
        <ele>1092</ele>
        <time>2022-09-22T11:42:03.222Z</time>
      </trkpt>
      <trkpt lat="44.91442" lon="5.38224">
        <ele>1092</ele>
        <time>2022-09-22T11:42:04.222Z</time>
      </trkpt>
      <trkpt lat="44.91441" lon="5.38226">
        <ele>1092</ele>
        <time>2022-09-22T11:42:05.222Z</time>
      </trkpt>
      <trkpt lat="44.9144" lon="5.38227">
        <ele>1092</ele>
        <time>2022-09-22T11:42:06.222Z</time>
      </trkpt>
      <trkpt lat="44.91438" lon="5.38228">
        <ele>1093</ele>
        <time>2022-09-22T11:42:07.222Z</time>
      </trkpt>
      <trkpt lat="44.91437" lon="5.38229">
        <ele>1093</ele>
        <time>2022-09-22T11:42:08.221Z</time>
      </trkpt>
      <trkpt lat="44.91437" lon="5.38229">
        <ele>1093</ele>
        <time>2022-09-22T11:42:09.221Z</time>
      </trkpt>
      <trkpt lat="44.91437" lon="5.38229">
        <ele>1093</ele>
        <time>2022-09-22T11:42:10.222Z</time>
      </trkpt>
      <trkpt lat="44.91438" lon="5.38229">
        <ele>1094</ele>
        <time>2022-09-22T11:42:22.325Z</time>
      </trkpt>
      <trkpt lat="44.91438" lon="5.38229">
        <ele>1094</ele>
        <time>2022-09-22T11:42:23.325Z</time>
      </trkpt>
      <trkpt lat="44.91439" lon="5.38231">
        <ele>1094</ele>
        <time>2022-09-22T11:42:25.190Z</time>
      </trkpt>
      <trkpt lat="44.91439" lon="5.38232">
        <ele>1093</ele>
        <time>2022-09-22T11:42:26.191Z</time>
      </trkpt>
      <trkpt lat="44.91439" lon="5.38233">
        <ele>1093</ele>
        <time>2022-09-22T11:42:27.190Z</time>
      </trkpt>
      <trkpt lat="44.9144" lon="5.38235">
        <ele>1093</ele>
        <time>2022-09-22T11:42:28.191Z</time>
      </trkpt>
      <trkpt lat="44.9144" lon="5.38236">
        <ele>1094</ele>
        <time>2022-09-22T11:42:29.190Z</time>
      </trkpt>
      <trkpt lat="44.9144" lon="5.38238">
        <ele>1094</ele>
        <time>2022-09-22T11:42:30.191Z</time>
      </trkpt>
      <trkpt lat="44.9144" lon="5.38239">
        <ele>1094</ele>
        <time>2022-09-22T11:42:31.191Z</time>
      </trkpt>
      <trkpt lat="44.91439" lon="5.38241">
        <ele>1094</ele>
        <time>2022-09-22T11:42:32.191Z</time>
      </trkpt>
      <trkpt lat="44.91439" lon="5.38242">
        <ele>1094</ele>
        <time>2022-09-22T11:42:33.191Z</time>
      </trkpt>
      <trkpt lat="44.91439" lon="5.38243">
        <ele>1094</ele>
        <time>2022-09-22T11:42:34.191Z</time>
      </trkpt>
      <trkpt lat="44.91439" lon="5.38244">
        <ele>1095</ele>
        <time>2022-09-22T11:42:35.191Z</time>
      </trkpt>
      <trkpt lat="44.91439" lon="5.38244">
        <ele>1095</ele>
        <time>2022-09-22T11:42:36.191Z</time>
      </trkpt>
      <trkpt lat="44.9144" lon="5.38244">
        <ele>1095</ele>
        <time>2022-09-22T11:42:37.190Z</time>
      </trkpt>
      <trkpt lat="44.9144" lon="5.38245">
        <ele>1095</ele>
        <time>2022-09-22T11:42:38.191Z</time>
      </trkpt>
      <trkpt lat="44.9144" lon="5.38245">
        <ele>1095</ele>
        <time>2022-09-22T11:42:39.191Z</time>
      </trkpt>
      <trkpt lat="44.91439" lon="5.38247">
        <ele>1095</ele>
        <time>2022-09-22T11:42:43.349Z</time>
      </trkpt>
      <trkpt lat="44.91438" lon="5.38248">
        <ele>1094</ele>
        <time>2022-09-22T11:42:44.349Z</time>
      </trkpt>
      <trkpt lat="44.91438" lon="5.38248">
        <ele>1094</ele>
        <time>2022-09-22T11:42:45.348Z</time>
      </trkpt>
      <trkpt lat="44.91437" lon="5.38249">
        <ele>1094</ele>
        <time>2022-09-22T11:42:46.348Z</time>
      </trkpt>
      <trkpt lat="44.91436" lon="5.3825">
        <ele>1093</ele>
        <time>2022-09-22T11:42:47.349Z</time>
      </trkpt>
      <trkpt lat="44.91434" lon="5.38251">
        <ele>1093</ele>
        <time>2022-09-22T11:42:48.349Z</time>
      </trkpt>
      <trkpt lat="44.91433" lon="5.38251">
        <ele>1093</ele>
        <time>2022-09-22T11:42:49.348Z</time>
      </trkpt>
      <trkpt lat="44.91432" lon="5.38252">
        <ele>1093</ele>
        <time>2022-09-22T11:42:50.349Z</time>
      </trkpt>
      <trkpt lat="44.91431" lon="5.38252">
        <ele>1093</ele>
        <time>2022-09-22T11:42:51.349Z</time>
      </trkpt>
      <trkpt lat="44.91429" lon="5.38252">
        <ele>1093</ele>
        <time>2022-09-22T11:42:52.348Z</time>
      </trkpt>
      <trkpt lat="44.91428" lon="5.38252">
        <ele>1093</ele>
        <time>2022-09-22T11:42:53.349Z</time>
      </trkpt>
      <trkpt lat="44.91427" lon="5.38253">
        <ele>1093</ele>
        <time>2022-09-22T11:42:54.348Z</time>
      </trkpt>
      <trkpt lat="44.91426" lon="5.38253">
        <ele>1093</ele>
        <time>2022-09-22T11:42:55.349Z</time>
      </trkpt>
      <trkpt lat="44.91426" lon="5.38253">
        <ele>1092</ele>
        <time>2022-09-22T11:42:56.349Z</time>
      </trkpt>
      <trkpt lat="44.91426" lon="5.38253">
        <ele>1092</ele>
        <time>2022-09-22T11:42:57.348Z</time>
      </trkpt>
      <trkpt lat="44.9143" lon="5.38258">
        <ele>1094</ele>
        <time>2022-09-22T11:43:52.476Z</time>
      </trkpt>
      <trkpt lat="44.91431" lon="5.38259">
        <ele>1094</ele>
        <time>2022-09-22T11:43:53.475Z</time>
      </trkpt>
      <trkpt lat="44.91432" lon="5.38261">
        <ele>1094</ele>
        <time>2022-09-22T11:43:54.475Z</time>
      </trkpt>
      <trkpt lat="44.91433" lon="5.38261">
        <ele>1094</ele>
        <time>2022-09-22T11:43:55.476Z</time>
      </trkpt>
      <trkpt lat="44.91434" lon="5.38262">
        <ele>1094</ele>
        <time>2022-09-22T11:43:56.476Z</time>
      </trkpt>
      <trkpt lat="44.91434" lon="5.38263">
        <ele>1094</ele>
        <time>2022-09-22T11:43:57.476Z</time>
      </trkpt>
      <trkpt lat="44.91434" lon="5.38263">
        <ele>1094</ele>
        <time>2022-09-22T11:43:58.476Z</time>
      </trkpt>
      <trkpt lat="44.91442" lon="5.38243">
        <ele>1096</ele>
        <time>2022-09-22T12:12:40.029Z</time>
      </trkpt>
      <trkpt lat="44.91442" lon="5.38243">
        <ele>1096</ele>
        <time>2022-09-22T12:12:41.029Z</time>
      </trkpt>
      <trkpt lat="44.91442" lon="5.38243">
        <ele>1096</ele>
        <time>2022-09-22T12:12:42.029Z</time>
      </trkpt>
      <trkpt lat="44.91442" lon="5.38243">
        <ele>1096</ele>
        <time>2022-09-22T12:12:43.029Z</time>
      </trkpt>
      <trkpt lat="44.91442" lon="5.38243">
        <ele>1096</ele>
        <time>2022-09-22T12:12:44.030Z</time>
      </trkpt>
      <trkpt lat="44.91442" lon="5.38243">
        <ele>1096</ele>
        <time>2022-09-22T12:12:45.029Z</time>
      </trkpt>
      <trkpt lat="44.91441" lon="5.38243">
        <ele>1096</ele>
        <time>2022-09-22T12:12:46.030Z</time>
      </trkpt>
      <trkpt lat="44.91441" lon="5.38243">
        <ele>1096</ele>
        <time>2022-09-22T12:12:47.030Z</time>
      </trkpt>
      <trkpt lat="44.91441" lon="5.38243">
        <ele>1096</ele>
        <time>2022-09-22T12:12:48.029Z</time>
      </trkpt>
      <trkpt lat="44.91441" lon="5.38243">
        <ele>1096</ele>
        <time>2022-09-22T12:12:49.030Z</time>
      </trkpt>
      <trkpt lat="44.91441" lon="5.38243">
        <ele>1096</ele>
        <time>2022-09-22T12:12:50.030Z</time>
      </trkpt>
      <trkpt lat="44.9144" lon="5.38243">
        <ele>1096</ele>
        <time>2022-09-22T12:12:51.030Z</time>
      </trkpt>
      <trkpt lat="44.9144" lon="5.38241">
        <ele>1096</ele>
        <time>2022-09-22T12:12:52.030Z</time>
      </trkpt>
      <trkpt lat="44.9144" lon="5.38239">
        <ele>1096</ele>
        <time>2022-09-22T12:12:53.029Z</time>
      </trkpt>
      <trkpt lat="44.91439" lon="5.38238">
        <ele>1096</ele>
        <time>2022-09-22T12:12:54.030Z</time>
      </trkpt>
      <trkpt lat="44.91439" lon="5.38236">
        <ele>1096</ele>
        <time>2022-09-22T12:12:55.030Z</time>
      </trkpt>
      <trkpt lat="44.91439" lon="5.38235">
        <ele>1096</ele>
        <time>2022-09-22T12:12:56.030Z</time>
      </trkpt>
      <trkpt lat="44.91439" lon="5.38232">
        <ele>1096</ele>
        <time>2022-09-22T12:12:57.030Z</time>
      </trkpt>
      <trkpt lat="44.91439" lon="5.3823">
        <ele>1096</ele>
        <time>2022-09-22T12:12:58.029Z</time>
      </trkpt>
      <trkpt lat="44.91439" lon="5.38228">
        <ele>1095</ele>
        <time>2022-09-22T12:12:59.029Z</time>
      </trkpt>
      <trkpt lat="44.91439" lon="5.38225">
        <ele>1095</ele>
        <time>2022-09-22T12:13:00.030Z</time>
      </trkpt>
      <trkpt lat="44.91439" lon="5.38222">
        <ele>1095</ele>
        <time>2022-09-22T12:13:01.029Z</time>
      </trkpt>
      <trkpt lat="44.9144" lon="5.3822">
        <ele>1095</ele>
        <time>2022-09-22T12:13:02.029Z</time>
      </trkpt>
      <trkpt lat="44.91442" lon="5.38218">
        <ele>1095</ele>
        <time>2022-09-22T12:13:03.030Z</time>
      </trkpt>
      <trkpt lat="44.91443" lon="5.38217">
        <ele>1095</ele>
        <time>2022-09-22T12:13:04.030Z</time>
      </trkpt>
      <trkpt lat="44.91444" lon="5.38215">
        <ele>1095</ele>
        <time>2022-09-22T12:13:05.029Z</time>
      </trkpt>
      <trkpt lat="44.91445" lon="5.38213">
        <ele>1094</ele>
        <time>2022-09-22T12:13:06.030Z</time>
      </trkpt>
      <trkpt lat="44.91446" lon="5.38212">
        <ele>1094</ele>
        <time>2022-09-22T12:13:07.030Z</time>
      </trkpt>
      <trkpt lat="44.91447" lon="5.3821">
        <ele>1094</ele>
        <time>2022-09-22T12:13:08.030Z</time>
      </trkpt>
      <trkpt lat="44.91447" lon="5.38208">
        <ele>1094</ele>
        <time>2022-09-22T12:13:09.030Z</time>
      </trkpt>
      <trkpt lat="44.91448" lon="5.38206">
        <ele>1093</ele>
        <time>2022-09-22T12:13:10.030Z</time>
      </trkpt>
      <trkpt lat="44.91449" lon="5.38204">
        <ele>1093</ele>
        <time>2022-09-22T12:13:11.029Z</time>
      </trkpt>
      <trkpt lat="44.91449" lon="5.38201">
        <ele>1093</ele>
        <time>2022-09-22T12:13:12.030Z</time>
      </trkpt>
      <trkpt lat="44.9145" lon="5.38199">
        <ele>1092</ele>
        <time>2022-09-22T12:13:13.030Z</time>
      </trkpt>
      <trkpt lat="44.91451" lon="5.38197">
        <ele>1092</ele>
        <time>2022-09-22T12:13:14.029Z</time>
      </trkpt>
      <trkpt lat="44.91452" lon="5.38195">
        <ele>1092</ele>
        <time>2022-09-22T12:13:15.030Z</time>
      </trkpt>
      <trkpt lat="44.91453" lon="5.38192">
        <ele>1092</ele>
        <time>2022-09-22T12:13:16.029Z</time>
      </trkpt>
      <trkpt lat="44.91453" lon="5.38189">
        <ele>1092</ele>
        <time>2022-09-22T12:13:17.029Z</time>
      </trkpt>
      <trkpt lat="44.91454" lon="5.38186">
        <ele>1092</ele>
        <time>2022-09-22T12:13:18.030Z</time>
      </trkpt>
      <trkpt lat="44.91455" lon="5.38183">
        <ele>1092</ele>
        <time>2022-09-22T12:13:19.030Z</time>
      </trkpt>
      <trkpt lat="44.91456" lon="5.3818">
        <ele>1092</ele>
        <time>2022-09-22T12:13:20.030Z</time>
      </trkpt>
      <trkpt lat="44.91458" lon="5.38177">
        <ele>1092</ele>
        <time>2022-09-22T12:13:21.030Z</time>
      </trkpt>
      <trkpt lat="44.9146" lon="5.38173">
        <ele>1092</ele>
        <time>2022-09-22T12:13:22.030Z</time>
      </trkpt>
      <trkpt lat="44.91461" lon="5.38169">
        <ele>1091</ele>
        <time>2022-09-22T12:13:23.029Z</time>
      </trkpt>
      <trkpt lat="44.91462" lon="5.38164">
        <ele>1091</ele>
        <time>2022-09-22T12:13:24.029Z</time>
      </trkpt>
      <trkpt lat="44.91463" lon="5.3816">
        <ele>1091</ele>
        <time>2022-09-22T12:13:25.029Z</time>
      </trkpt>
      <trkpt lat="44.91465" lon="5.38157">
        <ele>1091</ele>
        <time>2022-09-22T12:13:26.030Z</time>
      </trkpt>
      <trkpt lat="44.91466" lon="5.38156">
        <ele>1090</ele>
        <time>2022-09-22T12:13:27.030Z</time>
      </trkpt>
      <trkpt lat="44.91467" lon="5.38156">
        <ele>1090</ele>
        <time>2022-09-22T12:13:28.030Z</time>
      </trkpt>
      <trkpt lat="44.91467" lon="5.38157">
        <ele>1090</ele>
        <time>2022-09-22T12:13:29.030Z</time>
      </trkpt>
      <trkpt lat="44.91467" lon="5.38158">
        <ele>1090</ele>
        <time>2022-09-22T12:13:30.029Z</time>
      </trkpt>
      <trkpt lat="44.91466" lon="5.38159">
        <ele>1090</ele>
        <time>2022-09-22T12:13:31.030Z</time>
      </trkpt>
      <trkpt lat="44.91466" lon="5.38159">
        <ele>1089</ele>
        <time>2022-09-22T12:13:32.030Z</time>
      </trkpt>
      <trkpt lat="44.91466" lon="5.3816">
        <ele>1089</ele>
        <time>2022-09-22T12:13:33.029Z</time>
      </trkpt>
      <trkpt lat="44.91465" lon="5.38155">
        <ele>1090</ele>
        <time>2022-09-22T12:13:49.157Z</time>
      </trkpt>
      <trkpt lat="44.91465" lon="5.38153">
        <ele>1090</ele>
        <time>2022-09-22T12:13:50.158Z</time>
      </trkpt>
      <trkpt lat="44.91466" lon="5.38151">
        <ele>1091</ele>
        <time>2022-09-22T12:13:51.157Z</time>
      </trkpt>
      <trkpt lat="44.91467" lon="5.38149">
        <ele>1091</ele>
        <time>2022-09-22T12:13:52.158Z</time>
      </trkpt>
      <trkpt lat="44.91467" lon="5.38146">
        <ele>1091</ele>
        <time>2022-09-22T12:13:53.158Z</time>
      </trkpt>
      <trkpt lat="44.91468" lon="5.38143">
        <ele>1091</ele>
        <time>2022-09-22T12:13:54.158Z</time>
      </trkpt>
      <trkpt lat="44.91468" lon="5.38139">
        <ele>1091</ele>
        <time>2022-09-22T12:13:55.158Z</time>
      </trkpt>
      <trkpt lat="44.91468" lon="5.38135">
        <ele>1090</ele>
        <time>2022-09-22T12:13:56.158Z</time>
      </trkpt>
      <trkpt lat="44.91468" lon="5.38131">
        <ele>1090</ele>
        <time>2022-09-22T12:13:57.158Z</time>
      </trkpt>
      <trkpt lat="44.91469" lon="5.38127">
        <ele>1090</ele>
        <time>2022-09-22T12:13:58.157Z</time>
      </trkpt>
      <trkpt lat="44.91469" lon="5.38122">
        <ele>1090</ele>
        <time>2022-09-22T12:13:59.157Z</time>
      </trkpt>
      <trkpt lat="44.9147" lon="5.38116">
        <ele>1090</ele>
        <time>2022-09-22T12:14:00.157Z</time>
      </trkpt>
      <trkpt lat="44.9147" lon="5.3811">
        <ele>1090</ele>
        <time>2022-09-22T12:14:01.158Z</time>
      </trkpt>
      <trkpt lat="44.91471" lon="5.38105">
        <ele>1090</ele>
        <time>2022-09-22T12:14:02.158Z</time>
      </trkpt>
      <trkpt lat="44.91472" lon="5.38099">
        <ele>1090</ele>
        <time>2022-09-22T12:14:03.158Z</time>
      </trkpt>
      <trkpt lat="44.91472" lon="5.38093">
        <ele>1090</ele>
        <time>2022-09-22T12:14:04.158Z</time>
      </trkpt>
      <trkpt lat="44.91473" lon="5.38087">
        <ele>1090</ele>
        <time>2022-09-22T12:14:05.158Z</time>
      </trkpt>
      <trkpt lat="44.91473" lon="5.38082">
        <ele>1089</ele>
        <time>2022-09-22T12:14:06.158Z</time>
      </trkpt>
      <trkpt lat="44.91473" lon="5.38077">
        <ele>1089</ele>
        <time>2022-09-22T12:14:07.158Z</time>
      </trkpt>
      <trkpt lat="44.91473" lon="5.38071">
        <ele>1089</ele>
        <time>2022-09-22T12:14:08.158Z</time>
      </trkpt>
      <trkpt lat="44.91472" lon="5.38066">
        <ele>1089</ele>
        <time>2022-09-22T12:14:09.158Z</time>
      </trkpt>
      <trkpt lat="44.91471" lon="5.38061">
        <ele>1089</ele>
        <time>2022-09-22T12:14:10.158Z</time>
      </trkpt>
      <trkpt lat="44.91471" lon="5.38056">
        <ele>1088</ele>
        <time>2022-09-22T12:14:11.157Z</time>
      </trkpt>
      <trkpt lat="44.9147" lon="5.38052">
        <ele>1088</ele>
        <time>2022-09-22T12:14:12.157Z</time>
      </trkpt>
      <trkpt lat="44.91469" lon="5.38047">
        <ele>1088</ele>
        <time>2022-09-22T12:14:13.157Z</time>
      </trkpt>
      <trkpt lat="44.91468" lon="5.38041">
        <ele>1088</ele>
        <time>2022-09-22T12:14:14.157Z</time>
      </trkpt>
      <trkpt lat="44.91467" lon="5.38035">
        <ele>1088</ele>
        <time>2022-09-22T12:14:15.158Z</time>
      </trkpt>
      <trkpt lat="44.91466" lon="5.38031">
        <ele>1088</ele>
        <time>2022-09-22T12:14:16.157Z</time>
      </trkpt>
      <trkpt lat="44.91465" lon="5.38027">
        <ele>1088</ele>
        <time>2022-09-22T12:14:17.157Z</time>
      </trkpt>
      <trkpt lat="44.91463" lon="5.38021">
        <ele>1088</ele>
        <time>2022-09-22T12:14:18.157Z</time>
      </trkpt>
      <trkpt lat="44.91461" lon="5.38018">
        <ele>1088</ele>
        <time>2022-09-22T12:14:19.158Z</time>
      </trkpt>
      <trkpt lat="44.9146" lon="5.38013">
        <ele>1088</ele>
        <time>2022-09-22T12:14:20.157Z</time>
      </trkpt>
      <trkpt lat="44.91459" lon="5.38009">
        <ele>1088</ele>
        <time>2022-09-22T12:14:21.158Z</time>
      </trkpt>
      <trkpt lat="44.91458" lon="5.38004">
        <ele>1089</ele>
        <time>2022-09-22T12:14:22.158Z</time>
      </trkpt>
      <trkpt lat="44.91456" lon="5.37999">
        <ele>1089</ele>
        <time>2022-09-22T12:14:23.158Z</time>
      </trkpt>
      <trkpt lat="44.91455" lon="5.37994">
        <ele>1089</ele>
        <time>2022-09-22T12:14:24.157Z</time>
      </trkpt>
      <trkpt lat="44.91454" lon="5.37989">
        <ele>1089</ele>
        <time>2022-09-22T12:14:25.157Z</time>
      </trkpt>
      <trkpt lat="44.91452" lon="5.37986">
        <ele>1089</ele>
        <time>2022-09-22T12:14:26.158Z</time>
      </trkpt>
      <trkpt lat="44.9145" lon="5.37983">
        <ele>1089</ele>
        <time>2022-09-22T12:14:27.158Z</time>
      </trkpt>
      <trkpt lat="44.91448" lon="5.37981">
        <ele>1089</ele>
        <time>2022-09-22T12:14:28.158Z</time>
      </trkpt>
      <trkpt lat="44.91446" lon="5.3798">
        <ele>1089</ele>
        <time>2022-09-22T12:14:29.158Z</time>
      </trkpt>
      <trkpt lat="44.91444" lon="5.37979">
        <ele>1090</ele>
        <time>2022-09-22T12:14:30.158Z</time>
      </trkpt>
      <trkpt lat="44.91442" lon="5.37979">
        <ele>1090</ele>
        <time>2022-09-22T12:14:31.158Z</time>
      </trkpt>
      <trkpt lat="44.9144" lon="5.37979">
        <ele>1090</ele>
        <time>2022-09-22T12:14:32.158Z</time>
      </trkpt>
      <trkpt lat="44.91438" lon="5.37979">
        <ele>1090</ele>
        <time>2022-09-22T12:14:33.158Z</time>
      </trkpt>
      <trkpt lat="44.91435" lon="5.37979">
        <ele>1090</ele>
        <time>2022-09-22T12:14:34.157Z</time>
      </trkpt>
      <trkpt lat="44.91432" lon="5.37979">
        <ele>1090</ele>
        <time>2022-09-22T12:14:35.158Z</time>
      </trkpt>
      <trkpt lat="44.91429" lon="5.37979">
        <ele>1090</ele>
        <time>2022-09-22T12:14:36.158Z</time>
      </trkpt>
      <trkpt lat="44.91426" lon="5.37979">
        <ele>1089</ele>
        <time>2022-09-22T12:14:37.158Z</time>
      </trkpt>
      <trkpt lat="44.91423" lon="5.37979">
        <ele>1089</ele>
        <time>2022-09-22T12:14:38.158Z</time>
      </trkpt>
      <trkpt lat="44.9142" lon="5.37978">
        <ele>1089</ele>
        <time>2022-09-22T12:14:39.158Z</time>
      </trkpt>
      <trkpt lat="44.91417" lon="5.37977">
        <ele>1089</ele>
        <time>2022-09-22T12:14:40.158Z</time>
      </trkpt>
      <trkpt lat="44.91414" lon="5.37976">
        <ele>1089</ele>
        <time>2022-09-22T12:14:41.158Z</time>
      </trkpt>
      <trkpt lat="44.9141" lon="5.37975">
        <ele>1089</ele>
        <time>2022-09-22T12:14:42.158Z</time>
      </trkpt>
      <trkpt lat="44.91407" lon="5.37973">
        <ele>1089</ele>
        <time>2022-09-22T12:14:43.158Z</time>
      </trkpt>
      <trkpt lat="44.91403" lon="5.37972">
        <ele>1089</ele>
        <time>2022-09-22T12:14:44.158Z</time>
      </trkpt>
      <trkpt lat="44.914" lon="5.37971">
        <ele>1090</ele>
        <time>2022-09-22T12:14:45.157Z</time>
      </trkpt>
      <trkpt lat="44.91396" lon="5.3797">
        <ele>1090</ele>
        <time>2022-09-22T12:14:46.158Z</time>
      </trkpt>
      <trkpt lat="44.91393" lon="5.3797">
        <ele>1089</ele>
        <time>2022-09-22T12:14:47.158Z</time>
      </trkpt>
      <trkpt lat="44.9139" lon="5.37969">
        <ele>1089</ele>
        <time>2022-09-22T12:14:48.158Z</time>
      </trkpt>
      <trkpt lat="44.91388" lon="5.37968">
        <ele>1089</ele>
        <time>2022-09-22T12:14:49.157Z</time>
      </trkpt>
      <trkpt lat="44.91385" lon="5.37968">
        <ele>1088</ele>
        <time>2022-09-22T12:14:50.157Z</time>
      </trkpt>
      <trkpt lat="44.91383" lon="5.37968">
        <ele>1088</ele>
        <time>2022-09-22T12:14:51.158Z</time>
      </trkpt>
      <trkpt lat="44.91381" lon="5.37969">
        <ele>1088</ele>
        <time>2022-09-22T12:14:52.158Z</time>
      </trkpt>
      <trkpt lat="44.91379" lon="5.3797">
        <ele>1087</ele>
        <time>2022-09-22T12:14:53.158Z</time>
      </trkpt>
      <trkpt lat="44.91376" lon="5.3797">
        <ele>1087</ele>
        <time>2022-09-22T12:14:54.157Z</time>
      </trkpt>
      <trkpt lat="44.91373" lon="5.3797">
        <ele>1087</ele>
        <time>2022-09-22T12:14:55.157Z</time>
      </trkpt>
      <trkpt lat="44.91369" lon="5.37972">
        <ele>1086</ele>
        <time>2022-09-22T12:14:56.158Z</time>
      </trkpt>
      <trkpt lat="44.91366" lon="5.37972">
        <ele>1086</ele>
        <time>2022-09-22T12:14:57.158Z</time>
      </trkpt>
      <trkpt lat="44.91363" lon="5.37973">
        <ele>1086</ele>
        <time>2022-09-22T12:14:58.158Z</time>
      </trkpt>
      <trkpt lat="44.9136" lon="5.37973">
        <ele>1086</ele>
        <time>2022-09-22T12:14:59.158Z</time>
      </trkpt>
      <trkpt lat="44.91357" lon="5.37973">
        <ele>1085</ele>
        <time>2022-09-22T12:15:00.158Z</time>
      </trkpt>
      <trkpt lat="44.91354" lon="5.37973">
        <ele>1085</ele>
        <time>2022-09-22T12:15:01.158Z</time>
      </trkpt>
      <trkpt lat="44.91351" lon="5.37972">
        <ele>1084</ele>
        <time>2022-09-22T12:15:02.158Z</time>
      </trkpt>
      <trkpt lat="44.91349" lon="5.37972">
        <ele>1084</ele>
        <time>2022-09-22T12:15:03.158Z</time>
      </trkpt>
      <trkpt lat="44.91347" lon="5.37972">
        <ele>1084</ele>
        <time>2022-09-22T12:15:04.158Z</time>
      </trkpt>
      <trkpt lat="44.91344" lon="5.37972">
        <ele>1084</ele>
        <time>2022-09-22T12:15:05.158Z</time>
      </trkpt>
      <trkpt lat="44.91342" lon="5.37972">
        <ele>1083</ele>
        <time>2022-09-22T12:15:06.158Z</time>
      </trkpt>
      <trkpt lat="44.9134" lon="5.37971">
        <ele>1083</ele>
        <time>2022-09-22T12:15:07.158Z</time>
      </trkpt>
      <trkpt lat="44.91337" lon="5.37971">
        <ele>1083</ele>
        <time>2022-09-22T12:15:08.158Z</time>
      </trkpt>
      <trkpt lat="44.91335" lon="5.37973">
        <ele>1082</ele>
        <time>2022-09-22T12:15:09.158Z</time>
      </trkpt>
      <trkpt lat="44.91333" lon="5.37975">
        <ele>1082</ele>
        <time>2022-09-22T12:15:10.157Z</time>
      </trkpt>
      <trkpt lat="44.9133" lon="5.37979">
        <ele>1081</ele>
        <time>2022-09-22T12:15:11.157Z</time>
      </trkpt>
      <trkpt lat="44.91328" lon="5.37983">
        <ele>1081</ele>
        <time>2022-09-22T12:15:12.158Z</time>
      </trkpt>
      <trkpt lat="44.91326" lon="5.37986">
        <ele>1080</ele>
        <time>2022-09-22T12:15:13.157Z</time>
      </trkpt>
      <trkpt lat="44.91324" lon="5.37989">
        <ele>1080</ele>
        <time>2022-09-22T12:15:14.158Z</time>
      </trkpt>
      <trkpt lat="44.91322" lon="5.37992">
        <ele>1080</ele>
        <time>2022-09-22T12:15:15.158Z</time>
      </trkpt>
      <trkpt lat="44.91321" lon="5.37994">
        <ele>1079</ele>
        <time>2022-09-22T12:15:16.157Z</time>
      </trkpt>
      <trkpt lat="44.9132" lon="5.37995">
        <ele>1079</ele>
        <time>2022-09-22T12:15:17.158Z</time>
      </trkpt>
      <trkpt lat="44.91318" lon="5.37997">
        <ele>1079</ele>
        <time>2022-09-22T12:15:18.158Z</time>
      </trkpt>
      <trkpt lat="44.91318" lon="5.37999">
        <ele>1078</ele>
        <time>2022-09-22T12:15:19.157Z</time>
      </trkpt>
      <trkpt lat="44.91316" lon="5.38001">
        <ele>1078</ele>
        <time>2022-09-22T12:15:20.158Z</time>
      </trkpt>
      <trkpt lat="44.91314" lon="5.38003">
        <ele>1077</ele>
        <time>2022-09-22T12:15:21.158Z</time>
      </trkpt>
      <trkpt lat="44.91311" lon="5.38004">
        <ele>1076</ele>
        <time>2022-09-22T12:15:22.158Z</time>
      </trkpt>
      <trkpt lat="44.91309" lon="5.38005">
        <ele>1076</ele>
        <time>2022-09-22T12:15:23.157Z</time>
      </trkpt>
      <trkpt lat="44.91306" lon="5.38005">
        <ele>1075</ele>
        <time>2022-09-22T12:15:24.158Z</time>
      </trkpt>
      <trkpt lat="44.91302" lon="5.38005">
        <ele>1075</ele>
        <time>2022-09-22T12:15:25.157Z</time>
      </trkpt>
      <trkpt lat="44.913" lon="5.38002">
        <ele>1075</ele>
        <time>2022-09-22T12:15:26.158Z</time>
      </trkpt>
      <trkpt lat="44.91295" lon="5.37999">
        <ele>1075</ele>
        <time>2022-09-22T12:15:27.158Z</time>
      </trkpt>
      <trkpt lat="44.91291" lon="5.37996">
        <ele>1075</ele>
        <time>2022-09-22T12:15:28.158Z</time>
      </trkpt>
      <trkpt lat="44.91287" lon="5.37993">
        <ele>1075</ele>
        <time>2022-09-22T12:15:29.158Z</time>
      </trkpt>
      <trkpt lat="44.91282" lon="5.37991">
        <ele>1075</ele>
        <time>2022-09-22T12:15:30.158Z</time>
      </trkpt>
      <trkpt lat="44.91277" lon="5.37989">
        <ele>1075</ele>
        <time>2022-09-22T12:15:31.158Z</time>
      </trkpt>
      <trkpt lat="44.91271" lon="5.37986">
        <ele>1074</ele>
        <time>2022-09-22T12:15:32.157Z</time>
      </trkpt>
      <trkpt lat="44.91266" lon="5.37983">
        <ele>1074</ele>
        <time>2022-09-22T12:15:33.157Z</time>
      </trkpt>
      <trkpt lat="44.91262" lon="5.37979">
        <ele>1073</ele>
        <time>2022-09-22T12:15:34.158Z</time>
      </trkpt>
      <trkpt lat="44.91258" lon="5.37975">
        <ele>1073</ele>
        <time>2022-09-22T12:15:35.158Z</time>
      </trkpt>
      <trkpt lat="44.91253" lon="5.3797">
        <ele>1073</ele>
        <time>2022-09-22T12:15:36.157Z</time>
      </trkpt>
      <trkpt lat="44.91249" lon="5.37966">
        <ele>1073</ele>
        <time>2022-09-22T12:15:37.158Z</time>
      </trkpt>
      <trkpt lat="44.91244" lon="5.37963">
        <ele>1073</ele>
        <time>2022-09-22T12:15:38.158Z</time>
      </trkpt>
      <trkpt lat="44.9124" lon="5.3796">
        <ele>1072</ele>
        <time>2022-09-22T12:15:39.157Z</time>
      </trkpt>
      <trkpt lat="44.91237" lon="5.37957">
        <ele>1072</ele>
        <time>2022-09-22T12:15:40.158Z</time>
      </trkpt>
      <trkpt lat="44.91231" lon="5.37954">
        <ele>1071</ele>
        <time>2022-09-22T12:15:41.158Z</time>
      </trkpt>
      <trkpt lat="44.91227" lon="5.37951">
        <ele>1070</ele>
        <time>2022-09-22T12:15:42.157Z</time>
      </trkpt>
      <trkpt lat="44.91222" lon="5.37949">
        <ele>1069</ele>
        <time>2022-09-22T12:15:43.157Z</time>
      </trkpt>
      <trkpt lat="44.91218" lon="5.37948">
        <ele>1068</ele>
        <time>2022-09-22T12:15:44.157Z</time>
      </trkpt>
      <trkpt lat="44.91214" lon="5.37948">
        <ele>1068</ele>
        <time>2022-09-22T12:15:45.157Z</time>
      </trkpt>
      <trkpt lat="44.9121" lon="5.37948">
        <ele>1067</ele>
        <time>2022-09-22T12:15:46.158Z</time>
      </trkpt>
      <trkpt lat="44.91206" lon="5.37949">
        <ele>1067</ele>
        <time>2022-09-22T12:15:47.158Z</time>
      </trkpt>
      <trkpt lat="44.91202" lon="5.37951">
        <ele>1067</ele>
        <time>2022-09-22T12:15:48.158Z</time>
      </trkpt>
      <trkpt lat="44.91197" lon="5.37952">
        <ele>1066</ele>
        <time>2022-09-22T12:15:49.157Z</time>
      </trkpt>
      <trkpt lat="44.91192" lon="5.37954">
        <ele>1067</ele>
        <time>2022-09-22T12:15:50.158Z</time>
      </trkpt>
      <trkpt lat="44.91187" lon="5.37955">
        <ele>1067</ele>
        <time>2022-09-22T12:15:51.158Z</time>
      </trkpt>
      <trkpt lat="44.91183" lon="5.37956">
        <ele>1067</ele>
        <time>2022-09-22T12:15:52.158Z</time>
      </trkpt>
      <trkpt lat="44.91177" lon="5.37957">
        <ele>1066</ele>
        <time>2022-09-22T12:15:53.158Z</time>
      </trkpt>
      <trkpt lat="44.91171" lon="5.37959">
        <ele>1066</ele>
        <time>2022-09-22T12:15:54.158Z</time>
      </trkpt>
      <trkpt lat="44.91165" lon="5.37962">
        <ele>1065</ele>
        <time>2022-09-22T12:15:55.157Z</time>
      </trkpt>
      <trkpt lat="44.91161" lon="5.37966">
        <ele>1065</ele>
        <time>2022-09-22T12:15:56.158Z</time>
      </trkpt>
      <trkpt lat="44.91154" lon="5.37973">
        <ele>1064</ele>
        <time>2022-09-22T12:15:57.158Z</time>
      </trkpt>
      <trkpt lat="44.91149" lon="5.3798">
        <ele>1064</ele>
        <time>2022-09-22T12:15:58.158Z</time>
      </trkpt>
      <trkpt lat="44.91145" lon="5.37988">
        <ele>1063</ele>
        <time>2022-09-22T12:15:59.158Z</time>
      </trkpt>
      <trkpt lat="44.91143" lon="5.37994">
        <ele>1063</ele>
        <time>2022-09-22T12:16:00.158Z</time>
      </trkpt>
      <trkpt lat="44.91139" lon="5.38004">
        <ele>1062</ele>
        <time>2022-09-22T12:16:01.158Z</time>
      </trkpt>
      <trkpt lat="44.91136" lon="5.38013">
        <ele>1061</ele>
        <time>2022-09-22T12:16:02.158Z</time>
      </trkpt>
      <trkpt lat="44.91133" lon="5.3802">
        <ele>1061</ele>
        <time>2022-09-22T12:16:03.158Z</time>
      </trkpt>
      <trkpt lat="44.91129" lon="5.38027">
        <ele>1060</ele>
        <time>2022-09-22T12:16:04.157Z</time>
      </trkpt>
      <trkpt lat="44.91124" lon="5.38033">
        <ele>1060</ele>
        <time>2022-09-22T12:16:05.158Z</time>
      </trkpt>
      <trkpt lat="44.91121" lon="5.38038">
        <ele>1060</ele>
        <time>2022-09-22T12:16:06.158Z</time>
      </trkpt>
      <trkpt lat="44.91115" lon="5.38045">
        <ele>1060</ele>
        <time>2022-09-22T12:16:07.157Z</time>
      </trkpt>
      <trkpt lat="44.91111" lon="5.38051">
        <ele>1059</ele>
        <time>2022-09-22T12:16:08.158Z</time>
      </trkpt>
      <trkpt lat="44.91108" lon="5.38056">
        <ele>1059</ele>
        <time>2022-09-22T12:16:09.158Z</time>
      </trkpt>
      <trkpt lat="44.91105" lon="5.38061">
        <ele>1059</ele>
        <time>2022-09-22T12:16:10.157Z</time>
      </trkpt>
      <trkpt lat="44.91102" lon="5.38065">
        <ele>1059</ele>
        <time>2022-09-22T12:16:11.158Z</time>
      </trkpt>
      <trkpt lat="44.91099" lon="5.38069">
        <ele>1059</ele>
        <time>2022-09-22T12:16:12.158Z</time>
      </trkpt>
      <trkpt lat="44.91097" lon="5.38072">
        <ele>1059</ele>
        <time>2022-09-22T12:16:13.157Z</time>
      </trkpt>
      <trkpt lat="44.91095" lon="5.38074">
        <ele>1060</ele>
        <time>2022-09-22T12:16:14.158Z</time>
      </trkpt>
      <trkpt lat="44.91094" lon="5.38075">
        <ele>1059</ele>
        <time>2022-09-22T12:16:15.158Z</time>
      </trkpt>
      <trkpt lat="44.91093" lon="5.38077">
        <ele>1059</ele>
        <time>2022-09-22T12:16:16.158Z</time>
      </trkpt>
      <trkpt lat="44.91092" lon="5.38079">
        <ele>1059</ele>
        <time>2022-09-22T12:16:17.158Z</time>
      </trkpt>
      <trkpt lat="44.9109" lon="5.3808">
        <ele>1059</ele>
        <time>2022-09-22T12:16:18.158Z</time>
      </trkpt>
      <trkpt lat="44.91089" lon="5.38082">
        <ele>1059</ele>
        <time>2022-09-22T12:16:19.158Z</time>
      </trkpt>
      <trkpt lat="44.91088" lon="5.38084">
        <ele>1059</ele>
        <time>2022-09-22T12:16:20.158Z</time>
      </trkpt>
      <trkpt lat="44.91087" lon="5.38085">
        <ele>1059</ele>
        <time>2022-09-22T12:16:21.158Z</time>
      </trkpt>
      <trkpt lat="44.91085" lon="5.38087">
        <ele>1058</ele>
        <time>2022-09-22T12:16:22.158Z</time>
      </trkpt>
      <trkpt lat="44.91084" lon="5.38088">
        <ele>1058</ele>
        <time>2022-09-22T12:16:23.158Z</time>
      </trkpt>
      <trkpt lat="44.91083" lon="5.3809">
        <ele>1058</ele>
        <time>2022-09-22T12:16:24.158Z</time>
      </trkpt>
      <trkpt lat="44.91081" lon="5.38091">
        <ele>1058</ele>
        <time>2022-09-22T12:16:25.158Z</time>
      </trkpt>
      <trkpt lat="44.91079" lon="5.38093">
        <ele>1058</ele>
        <time>2022-09-22T12:16:26.158Z</time>
      </trkpt>
      <trkpt lat="44.91077" lon="5.38095">
        <ele>1057</ele>
        <time>2022-09-22T12:16:27.158Z</time>
      </trkpt>
      <trkpt lat="44.91075" lon="5.38097">
        <ele>1057</ele>
        <time>2022-09-22T12:16:28.157Z</time>
      </trkpt>
      <trkpt lat="44.91073" lon="5.38099">
        <ele>1057</ele>
        <time>2022-09-22T12:16:29.157Z</time>
      </trkpt>
      <trkpt lat="44.91071" lon="5.38101">
        <ele>1057</ele>
        <time>2022-09-22T12:16:30.158Z</time>
      </trkpt>
      <trkpt lat="44.9107" lon="5.38103">
        <ele>1058</ele>
        <time>2022-09-22T12:16:31.158Z</time>
      </trkpt>
      <trkpt lat="44.91068" lon="5.38105">
        <ele>1057</ele>
        <time>2022-09-22T12:16:32.158Z</time>
      </trkpt>
      <trkpt lat="44.91066" lon="5.38106">
        <ele>1057</ele>
        <time>2022-09-22T12:16:33.157Z</time>
      </trkpt>
      <trkpt lat="44.91065" lon="5.38108">
        <ele>1057</ele>
        <time>2022-09-22T12:16:34.158Z</time>
      </trkpt>
      <trkpt lat="44.91064" lon="5.38109">
        <ele>1057</ele>
        <time>2022-09-22T12:16:35.158Z</time>
      </trkpt>
      <trkpt lat="44.91062" lon="5.38111">
        <ele>1058</ele>
        <time>2022-09-22T12:16:36.158Z</time>
      </trkpt>
      <trkpt lat="44.91061" lon="5.38112">
        <ele>1058</ele>
        <time>2022-09-22T12:16:37.158Z</time>
      </trkpt>
      <trkpt lat="44.91059" lon="5.38114">
        <ele>1057</ele>
        <time>2022-09-22T12:16:38.158Z</time>
      </trkpt>
      <trkpt lat="44.91058" lon="5.38115">
        <ele>1058</ele>
        <time>2022-09-22T12:16:39.158Z</time>
      </trkpt>
      <trkpt lat="44.91056" lon="5.38116">
        <ele>1058</ele>
        <time>2022-09-22T12:16:40.157Z</time>
      </trkpt>
      <trkpt lat="44.91054" lon="5.38117">
        <ele>1058</ele>
        <time>2022-09-22T12:16:41.158Z</time>
      </trkpt>
      <trkpt lat="44.91053" lon="5.38118">
        <ele>1058</ele>
        <time>2022-09-22T12:16:42.158Z</time>
      </trkpt>
      <trkpt lat="44.91051" lon="5.3812">
        <ele>1058</ele>
        <time>2022-09-22T12:16:43.158Z</time>
      </trkpt>
      <trkpt lat="44.9105" lon="5.38121">
        <ele>1058</ele>
        <time>2022-09-22T12:16:44.157Z</time>
      </trkpt>
      <trkpt lat="44.91048" lon="5.38122">
        <ele>1058</ele>
        <time>2022-09-22T12:16:45.157Z</time>
      </trkpt>
      <trkpt lat="44.91046" lon="5.38123">
        <ele>1058</ele>
        <time>2022-09-22T12:16:46.158Z</time>
      </trkpt>
      <trkpt lat="44.91044" lon="5.38124">
        <ele>1058</ele>
        <time>2022-09-22T12:16:47.158Z</time>
      </trkpt>
      <trkpt lat="44.91042" lon="5.38125">
        <ele>1057</ele>
        <time>2022-09-22T12:16:48.157Z</time>
      </trkpt>
      <trkpt lat="44.91041" lon="5.38126">
        <ele>1057</ele>
        <time>2022-09-22T12:16:49.158Z</time>
      </trkpt>
      <trkpt lat="44.91038" lon="5.38128">
        <ele>1057</ele>
        <time>2022-09-22T12:16:50.158Z</time>
      </trkpt>
      <trkpt lat="44.91036" lon="5.38129">
        <ele>1057</ele>
        <time>2022-09-22T12:16:51.158Z</time>
      </trkpt>
      <trkpt lat="44.91034" lon="5.3813">
        <ele>1057</ele>
        <time>2022-09-22T12:16:52.157Z</time>
      </trkpt>
      <trkpt lat="44.91032" lon="5.38132">
        <ele>1057</ele>
        <time>2022-09-22T12:16:53.158Z</time>
      </trkpt>
      <trkpt lat="44.9103" lon="5.38134">
        <ele>1057</ele>
        <time>2022-09-22T12:16:54.158Z</time>
      </trkpt>
      <trkpt lat="44.91028" lon="5.38136">
        <ele>1057</ele>
        <time>2022-09-22T12:16:55.158Z</time>
      </trkpt>
      <trkpt lat="44.91026" lon="5.38138">
        <ele>1057</ele>
        <time>2022-09-22T12:16:56.157Z</time>
      </trkpt>
      <trkpt lat="44.91024" lon="5.3814">
        <ele>1057</ele>
        <time>2022-09-22T12:16:57.158Z</time>
      </trkpt>
      <trkpt lat="44.91022" lon="5.38143">
        <ele>1058</ele>
        <time>2022-09-22T12:16:58.158Z</time>
      </trkpt>
      <trkpt lat="44.9102" lon="5.38146">
        <ele>1058</ele>
        <time>2022-09-22T12:16:59.158Z</time>
      </trkpt>
      <trkpt lat="44.91018" lon="5.38149">
        <ele>1058</ele>
        <time>2022-09-22T12:17:00.157Z</time>
      </trkpt>
      <trkpt lat="44.91016" lon="5.38153">
        <ele>1058</ele>
        <time>2022-09-22T12:17:01.158Z</time>
      </trkpt>
      <trkpt lat="44.91014" lon="5.38157">
        <ele>1058</ele>
        <time>2022-09-22T12:17:02.157Z</time>
      </trkpt>
      <trkpt lat="44.91012" lon="5.38159">
        <ele>1058</ele>
        <time>2022-09-22T12:17:03.158Z</time>
      </trkpt>
      <trkpt lat="44.91009" lon="5.38163">
        <ele>1058</ele>
        <time>2022-09-22T12:17:04.158Z</time>
      </trkpt>
      <trkpt lat="44.91007" lon="5.38165">
        <ele>1058</ele>
        <time>2022-09-22T12:17:05.157Z</time>
      </trkpt>
      <trkpt lat="44.91004" lon="5.38166">
        <ele>1057</ele>
        <time>2022-09-22T12:17:06.158Z</time>
      </trkpt>
      <trkpt lat="44.91001" lon="5.38167">
        <ele>1057</ele>
        <time>2022-09-22T12:17:07.158Z</time>
      </trkpt>
      <trkpt lat="44.90999" lon="5.38167">
        <ele>1057</ele>
        <time>2022-09-22T12:17:08.158Z</time>
      </trkpt>
      <trkpt lat="44.90997" lon="5.38168">
        <ele>1056</ele>
        <time>2022-09-22T12:17:09.158Z</time>
      </trkpt>
      <trkpt lat="44.90994" lon="5.38168">
        <ele>1056</ele>
        <time>2022-09-22T12:17:10.157Z</time>
      </trkpt>
      <trkpt lat="44.90992" lon="5.38168">
        <ele>1056</ele>
        <time>2022-09-22T12:17:11.158Z</time>
      </trkpt>
      <trkpt lat="44.9099" lon="5.38168">
        <ele>1055</ele>
        <time>2022-09-22T12:17:12.158Z</time>
      </trkpt>
      <trkpt lat="44.90987" lon="5.38168">
        <ele>1055</ele>
        <time>2022-09-22T12:17:13.158Z</time>
      </trkpt>
      <trkpt lat="44.90985" lon="5.38168">
        <ele>1055</ele>
        <time>2022-09-22T12:17:14.158Z</time>
      </trkpt>
      <trkpt lat="44.90982" lon="5.38169">
        <ele>1055</ele>
        <time>2022-09-22T12:17:15.158Z</time>
      </trkpt>
      <trkpt lat="44.9098" lon="5.38169">
        <ele>1055</ele>
        <time>2022-09-22T12:17:16.158Z</time>
      </trkpt>
      <trkpt lat="44.90977" lon="5.3817">
        <ele>1055</ele>
        <time>2022-09-22T12:17:17.158Z</time>
      </trkpt>
      <trkpt lat="44.90975" lon="5.3817">
        <ele>1056</ele>
        <time>2022-09-22T12:17:18.158Z</time>
      </trkpt>
      <trkpt lat="44.90973" lon="5.38171">
        <ele>1056</ele>
        <time>2022-09-22T12:17:19.158Z</time>
      </trkpt>
      <trkpt lat="44.9097" lon="5.38171">
        <ele>1056</ele>
        <time>2022-09-22T12:17:20.158Z</time>
      </trkpt>
      <trkpt lat="44.90968" lon="5.38172">
        <ele>1056</ele>
        <time>2022-09-22T12:17:21.158Z</time>
      </trkpt>
      <trkpt lat="44.90965" lon="5.38172">
        <ele>1056</ele>
        <time>2022-09-22T12:17:22.158Z</time>
      </trkpt>
      <trkpt lat="44.90963" lon="5.38172">
        <ele>1056</ele>
        <time>2022-09-22T12:17:23.158Z</time>
      </trkpt>
      <trkpt lat="44.90961" lon="5.38173">
        <ele>1056</ele>
        <time>2022-09-22T12:17:24.158Z</time>
      </trkpt>
      <trkpt lat="44.90959" lon="5.38173">
        <ele>1056</ele>
        <time>2022-09-22T12:17:25.158Z</time>
      </trkpt>
      <trkpt lat="44.90956" lon="5.38173">
        <ele>1056</ele>
        <time>2022-09-22T12:17:26.158Z</time>
      </trkpt>
      <trkpt lat="44.90954" lon="5.38172">
        <ele>1055</ele>
        <time>2022-09-22T12:17:27.157Z</time>
      </trkpt>
      <trkpt lat="44.90952" lon="5.38172">
        <ele>1055</ele>
        <time>2022-09-22T12:17:28.158Z</time>
      </trkpt>
      <trkpt lat="44.90949" lon="5.38172">
        <ele>1055</ele>
        <time>2022-09-22T12:17:29.158Z</time>
      </trkpt>
      <trkpt lat="44.90945" lon="5.38171">
        <ele>1055</ele>
        <time>2022-09-22T12:17:30.157Z</time>
      </trkpt>
      <trkpt lat="44.90941" lon="5.38171">
        <ele>1055</ele>
        <time>2022-09-22T12:17:31.158Z</time>
      </trkpt>
      <trkpt lat="44.90938" lon="5.3817">
        <ele>1055</ele>
        <time>2022-09-22T12:17:32.158Z</time>
      </trkpt>
      <trkpt lat="44.90934" lon="5.3817">
        <ele>1055</ele>
        <time>2022-09-22T12:17:33.157Z</time>
      </trkpt>
      <trkpt lat="44.9093" lon="5.38169">
        <ele>1055</ele>
        <time>2022-09-22T12:17:34.157Z</time>
      </trkpt>
      <trkpt lat="44.90923" lon="5.38169">
        <ele>1055</ele>
        <time>2022-09-22T12:17:35.158Z</time>
      </trkpt>
      <trkpt lat="44.90917" lon="5.3817">
        <ele>1055</ele>
        <time>2022-09-22T12:17:36.157Z</time>
      </trkpt>
      <trkpt lat="44.90912" lon="5.38172">
        <ele>1055</ele>
        <time>2022-09-22T12:17:37.158Z</time>
      </trkpt>
      <trkpt lat="44.90907" lon="5.38173">
        <ele>1054</ele>
        <time>2022-09-22T12:17:38.158Z</time>
      </trkpt>
      <trkpt lat="44.909" lon="5.38175">
        <ele>1054</ele>
        <time>2022-09-22T12:17:39.158Z</time>
      </trkpt>
      <trkpt lat="44.90895" lon="5.38177">
        <ele>1054</ele>
        <time>2022-09-22T12:17:40.158Z</time>
      </trkpt>
      <trkpt lat="44.90889" lon="5.38178">
        <ele>1054</ele>
        <time>2022-09-22T12:17:41.158Z</time>
      </trkpt>
      <trkpt lat="44.90885" lon="5.38179">
        <ele>1054</ele>
        <time>2022-09-22T12:17:42.157Z</time>
      </trkpt>
      <trkpt lat="44.90879" lon="5.3818">
        <ele>1054</ele>
        <time>2022-09-22T12:17:43.158Z</time>
      </trkpt>
      <trkpt lat="44.90872" lon="5.3818">
        <ele>1054</ele>
        <time>2022-09-22T12:17:44.158Z</time>
      </trkpt>
      <trkpt lat="44.90866" lon="5.3818">
        <ele>1054</ele>
        <time>2022-09-22T12:17:45.157Z</time>
      </trkpt>
      <trkpt lat="44.9086" lon="5.38179">
        <ele>1053</ele>
        <time>2022-09-22T12:17:46.158Z</time>
      </trkpt>
      <trkpt lat="44.90854" lon="5.38178">
        <ele>1053</ele>
        <time>2022-09-22T12:17:47.158Z</time>
      </trkpt>
      <trkpt lat="44.90847" lon="5.38176">
        <ele>1052</ele>
        <time>2022-09-22T12:17:48.158Z</time>
      </trkpt>
      <trkpt lat="44.90838" lon="5.38174">
        <ele>1052</ele>
        <time>2022-09-22T12:17:49.158Z</time>
      </trkpt>
      <trkpt lat="44.90832" lon="5.38172">
        <ele>1051</ele>
        <time>2022-09-22T12:17:50.157Z</time>
      </trkpt>
      <trkpt lat="44.90826" lon="5.38169">
        <ele>1051</ele>
        <time>2022-09-22T12:17:51.158Z</time>
      </trkpt>
      <trkpt lat="44.9082" lon="5.38166">
        <ele>1051</ele>
        <time>2022-09-22T12:17:52.158Z</time>
      </trkpt>
      <trkpt lat="44.90817" lon="5.38163">
        <ele>1051</ele>
        <time>2022-09-22T12:17:53.158Z</time>
      </trkpt>
      <trkpt lat="44.90813" lon="5.38158">
        <ele>1051</ele>
        <time>2022-09-22T12:17:54.158Z</time>
      </trkpt>
      <trkpt lat="44.90811" lon="5.38155">
        <ele>1051</ele>
        <time>2022-09-22T12:17:55.158Z</time>
      </trkpt>
      <trkpt lat="44.90809" lon="5.38152">
        <ele>1051</ele>
        <time>2022-09-22T12:17:56.158Z</time>
      </trkpt>
      <trkpt lat="44.90808" lon="5.38149">
        <ele>1051</ele>
        <time>2022-09-22T12:17:57.157Z</time>
      </trkpt>
      <trkpt lat="44.90806" lon="5.38147">
        <ele>1051</ele>
        <time>2022-09-22T12:17:58.158Z</time>
      </trkpt>
      <trkpt lat="44.90805" lon="5.38144">
        <ele>1051</ele>
        <time>2022-09-22T12:17:59.158Z</time>
      </trkpt>
      <trkpt lat="44.90804" lon="5.38142">
        <ele>1050</ele>
        <time>2022-09-22T12:18:00.158Z</time>
      </trkpt>
      <trkpt lat="44.90803" lon="5.3814">
        <ele>1050</ele>
        <time>2022-09-22T12:18:01.158Z</time>
      </trkpt>
      <trkpt lat="44.90803" lon="5.38138">
        <ele>1050</ele>
        <time>2022-09-22T12:18:02.157Z</time>
      </trkpt>
      <trkpt lat="44.90802" lon="5.38135">
        <ele>1050</ele>
        <time>2022-09-22T12:18:03.158Z</time>
      </trkpt>
      <trkpt lat="44.90801" lon="5.38133">
        <ele>1050</ele>
        <time>2022-09-22T12:18:04.157Z</time>
      </trkpt>
      <trkpt lat="44.90799" lon="5.38131">
        <ele>1050</ele>
        <time>2022-09-22T12:18:05.157Z</time>
      </trkpt>
      <trkpt lat="44.90799" lon="5.3813">
        <ele>1050</ele>
        <time>2022-09-22T12:18:06.158Z</time>
      </trkpt>
      <trkpt lat="44.90797" lon="5.38127">
        <ele>1050</ele>
        <time>2022-09-22T12:18:07.158Z</time>
      </trkpt>
      <trkpt lat="44.90796" lon="5.38125">
        <ele>1050</ele>
        <time>2022-09-22T12:18:08.158Z</time>
      </trkpt>
      <trkpt lat="44.90795" lon="5.38123">
        <ele>1050</ele>
        <time>2022-09-22T12:18:09.158Z</time>
      </trkpt>
      <trkpt lat="44.90794" lon="5.38121">
        <ele>1050</ele>
        <time>2022-09-22T12:18:10.158Z</time>
      </trkpt>
      <trkpt lat="44.90792" lon="5.38118">
        <ele>1050</ele>
        <time>2022-09-22T12:18:11.158Z</time>
      </trkpt>
      <trkpt lat="44.90791" lon="5.38116">
        <ele>1051</ele>
        <time>2022-09-22T12:18:12.157Z</time>
      </trkpt>
      <trkpt lat="44.9079" lon="5.38114">
        <ele>1051</ele>
        <time>2022-09-22T12:18:13.158Z</time>
      </trkpt>
      <trkpt lat="44.90788" lon="5.38112">
        <ele>1051</ele>
        <time>2022-09-22T12:18:14.157Z</time>
      </trkpt>
      <trkpt lat="44.90787" lon="5.3811">
        <ele>1051</ele>
        <time>2022-09-22T12:18:15.157Z</time>
      </trkpt>
      <trkpt lat="44.90786" lon="5.38107">
        <ele>1051</ele>
        <time>2022-09-22T12:18:16.157Z</time>
      </trkpt>
      <trkpt lat="44.90784" lon="5.38105">
        <ele>1051</ele>
        <time>2022-09-22T12:18:17.158Z</time>
      </trkpt>
      <trkpt lat="44.90783" lon="5.38103">
        <ele>1052</ele>
        <time>2022-09-22T12:18:18.157Z</time>
      </trkpt>
      <trkpt lat="44.90782" lon="5.38101">
        <ele>1052</ele>
        <time>2022-09-22T12:18:19.158Z</time>
      </trkpt>
      <trkpt lat="44.9078" lon="5.381">
        <ele>1052</ele>
        <time>2022-09-22T12:18:20.158Z</time>
      </trkpt>
      <trkpt lat="44.90779" lon="5.38098">
        <ele>1052</ele>
        <time>2022-09-22T12:18:21.158Z</time>
      </trkpt>
      <trkpt lat="44.90778" lon="5.38097">
        <ele>1053</ele>
        <time>2022-09-22T12:18:22.157Z</time>
      </trkpt>
      <trkpt lat="44.90776" lon="5.38096">
        <ele>1053</ele>
        <time>2022-09-22T12:18:23.158Z</time>
      </trkpt>
      <trkpt lat="44.90775" lon="5.38094">
        <ele>1053</ele>
        <time>2022-09-22T12:18:24.157Z</time>
      </trkpt>
      <trkpt lat="44.90773" lon="5.38093">
        <ele>1053</ele>
        <time>2022-09-22T12:18:25.158Z</time>
      </trkpt>
      <trkpt lat="44.90771" lon="5.38093">
        <ele>1054</ele>
        <time>2022-09-22T12:18:26.158Z</time>
      </trkpt>
      <trkpt lat="44.90769" lon="5.38092">
        <ele>1054</ele>
        <time>2022-09-22T12:18:27.158Z</time>
      </trkpt>
      <trkpt lat="44.90767" lon="5.38092">
        <ele>1054</ele>
        <time>2022-09-22T12:18:28.157Z</time>
      </trkpt>
      <trkpt lat="44.90765" lon="5.38092">
        <ele>1054</ele>
        <time>2022-09-22T12:18:29.157Z</time>
      </trkpt>
      <trkpt lat="44.90763" lon="5.38092">
        <ele>1054</ele>
        <time>2022-09-22T12:18:30.158Z</time>
      </trkpt>
      <trkpt lat="44.90762" lon="5.38091">
        <ele>1054</ele>
        <time>2022-09-22T12:18:31.158Z</time>
      </trkpt>
      <trkpt lat="44.9076" lon="5.38091">
        <ele>1054</ele>
        <time>2022-09-22T12:18:32.158Z</time>
      </trkpt>
      <trkpt lat="44.90759" lon="5.38092">
        <ele>1054</ele>
        <time>2022-09-22T12:18:33.158Z</time>
      </trkpt>
      <trkpt lat="44.90758" lon="5.38093">
        <ele>1054</ele>
        <time>2022-09-22T12:18:34.157Z</time>
      </trkpt>
      <trkpt lat="44.90756" lon="5.38094">
        <ele>1054</ele>
        <time>2022-09-22T12:18:35.158Z</time>
      </trkpt>
      <trkpt lat="44.90755" lon="5.38095">
        <ele>1054</ele>
        <time>2022-09-22T12:18:36.158Z</time>
      </trkpt>
      <trkpt lat="44.90753" lon="5.38096">
        <ele>1054</ele>
        <time>2022-09-22T12:18:37.158Z</time>
      </trkpt>
      <trkpt lat="44.90751" lon="5.38096">
        <ele>1054</ele>
        <time>2022-09-22T12:18:38.158Z</time>
      </trkpt>
      <trkpt lat="44.90749" lon="5.38097">
        <ele>1054</ele>
        <time>2022-09-22T12:18:39.158Z</time>
      </trkpt>
      <trkpt lat="44.90747" lon="5.38098">
        <ele>1055</ele>
        <time>2022-09-22T12:18:40.158Z</time>
      </trkpt>
      <trkpt lat="44.90744" lon="5.38098">
        <ele>1055</ele>
        <time>2022-09-22T12:18:41.158Z</time>
      </trkpt>
      <trkpt lat="44.90743" lon="5.38098">
        <ele>1055</ele>
        <time>2022-09-22T12:18:42.158Z</time>
      </trkpt>
      <trkpt lat="44.90741" lon="5.38098">
        <ele>1055</ele>
        <time>2022-09-22T12:18:43.158Z</time>
      </trkpt>
      <trkpt lat="44.9074" lon="5.38098">
        <ele>1055</ele>
        <time>2022-09-22T12:18:44.158Z</time>
      </trkpt>
      <trkpt lat="44.90739" lon="5.38098">
        <ele>1055</ele>
        <time>2022-09-22T12:18:45.157Z</time>
      </trkpt>
      <trkpt lat="44.90738" lon="5.38098">
        <ele>1056</ele>
        <time>2022-09-22T12:18:46.158Z</time>
      </trkpt>
      <trkpt lat="44.90737" lon="5.38099">
        <ele>1056</ele>
        <time>2022-09-22T12:18:47.157Z</time>
      </trkpt>
      <trkpt lat="44.90735" lon="5.38099">
        <ele>1056</ele>
        <time>2022-09-22T12:18:48.158Z</time>
      </trkpt>
      <trkpt lat="44.90734" lon="5.38099">
        <ele>1056</ele>
        <time>2022-09-22T12:18:49.157Z</time>
      </trkpt>
      <trkpt lat="44.90733" lon="5.38099">
        <ele>1056</ele>
        <time>2022-09-22T12:18:50.158Z</time>
      </trkpt>
      <trkpt lat="44.90732" lon="5.381">
        <ele>1056</ele>
        <time>2022-09-22T12:18:51.158Z</time>
      </trkpt>
      <trkpt lat="44.9073" lon="5.381">
        <ele>1056</ele>
        <time>2022-09-22T12:18:52.157Z</time>
      </trkpt>
      <trkpt lat="44.90729" lon="5.38099">
        <ele>1056</ele>
        <time>2022-09-22T12:18:53.158Z</time>
      </trkpt>
      <trkpt lat="44.90728" lon="5.38099">
        <ele>1056</ele>
        <time>2022-09-22T12:18:54.158Z</time>
      </trkpt>
      <trkpt lat="44.90727" lon="5.38099">
        <ele>1056</ele>
        <time>2022-09-22T12:18:55.157Z</time>
      </trkpt>
      <trkpt lat="44.90725" lon="5.38099">
        <ele>1056</ele>
        <time>2022-09-22T12:18:56.158Z</time>
      </trkpt>
      <trkpt lat="44.90723" lon="5.38098">
        <ele>1055</ele>
        <time>2022-09-22T12:18:57.158Z</time>
      </trkpt>
      <trkpt lat="44.90721" lon="5.38098">
        <ele>1056</ele>
        <time>2022-09-22T12:18:58.158Z</time>
      </trkpt>
      <trkpt lat="44.90719" lon="5.38097">
        <ele>1056</ele>
        <time>2022-09-22T12:18:59.157Z</time>
      </trkpt>
      <trkpt lat="44.90717" lon="5.38097">
        <ele>1056</ele>
        <time>2022-09-22T12:19:00.158Z</time>
      </trkpt>
      <trkpt lat="44.90715" lon="5.38096">
        <ele>1056</ele>
        <time>2022-09-22T12:19:01.158Z</time>
      </trkpt>
      <trkpt lat="44.90712" lon="5.38096">
        <ele>1056</ele>
        <time>2022-09-22T12:19:02.158Z</time>
      </trkpt>
      <trkpt lat="44.9071" lon="5.38095">
        <ele>1056</ele>
        <time>2022-09-22T12:19:03.158Z</time>
      </trkpt>
      <trkpt lat="44.90708" lon="5.38095">
        <ele>1056</ele>
        <time>2022-09-22T12:19:04.158Z</time>
      </trkpt>
      <trkpt lat="44.90706" lon="5.38095">
        <ele>1056</ele>
        <time>2022-09-22T12:19:05.158Z</time>
      </trkpt>
      <trkpt lat="44.90704" lon="5.38094">
        <ele>1056</ele>
        <time>2022-09-22T12:19:06.158Z</time>
      </trkpt>
      <trkpt lat="44.90701" lon="5.38094">
        <ele>1056</ele>
        <time>2022-09-22T12:19:07.157Z</time>
      </trkpt>
      <trkpt lat="44.90699" lon="5.38093">
        <ele>1057</ele>
        <time>2022-09-22T12:19:08.157Z</time>
      </trkpt>
      <trkpt lat="44.90697" lon="5.38093">
        <ele>1057</ele>
        <time>2022-09-22T12:19:09.158Z</time>
      </trkpt>
      <trkpt lat="44.90695" lon="5.38092">
        <ele>1058</ele>
        <time>2022-09-22T12:19:10.158Z</time>
      </trkpt>
      <trkpt lat="44.90693" lon="5.38092">
        <ele>1058</ele>
        <time>2022-09-22T12:19:11.158Z</time>
      </trkpt>
      <trkpt lat="44.90691" lon="5.38092">
        <ele>1058</ele>
        <time>2022-09-22T12:19:12.158Z</time>
      </trkpt>
      <trkpt lat="44.90689" lon="5.38092">
        <ele>1058</ele>
        <time>2022-09-22T12:19:13.157Z</time>
      </trkpt>
      <trkpt lat="44.90687" lon="5.38091">
        <ele>1059</ele>
        <time>2022-09-22T12:19:14.158Z</time>
      </trkpt>
      <trkpt lat="44.90685" lon="5.38091">
        <ele>1059</ele>
        <time>2022-09-22T12:19:15.158Z</time>
      </trkpt>
      <trkpt lat="44.90683" lon="5.38091">
        <ele>1059</ele>
        <time>2022-09-22T12:19:16.158Z</time>
      </trkpt>
      <trkpt lat="44.90681" lon="5.38091">
        <ele>1060</ele>
        <time>2022-09-22T12:19:17.158Z</time>
      </trkpt>
      <trkpt lat="44.90679" lon="5.38091">
        <ele>1060</ele>
        <time>2022-09-22T12:19:18.158Z</time>
      </trkpt>
      <trkpt lat="44.90677" lon="5.38091">
        <ele>1060</ele>
        <time>2022-09-22T12:19:19.158Z</time>
      </trkpt>
      <trkpt lat="44.90675" lon="5.38091">
        <ele>1060</ele>
        <time>2022-09-22T12:19:20.158Z</time>
      </trkpt>
      <trkpt lat="44.90674" lon="5.3809">
        <ele>1060</ele>
        <time>2022-09-22T12:19:21.157Z</time>
      </trkpt>
      <trkpt lat="44.90672" lon="5.3809">
        <ele>1060</ele>
        <time>2022-09-22T12:19:22.157Z</time>
      </trkpt>
      <trkpt lat="44.9067" lon="5.38089">
        <ele>1060</ele>
        <time>2022-09-22T12:19:23.158Z</time>
      </trkpt>
      <trkpt lat="44.90669" lon="5.38088">
        <ele>1060</ele>
        <time>2022-09-22T12:19:24.158Z</time>
      </trkpt>
      <trkpt lat="44.90667" lon="5.38087">
        <ele>1060</ele>
        <time>2022-09-22T12:19:25.157Z</time>
      </trkpt>
      <trkpt lat="44.90665" lon="5.38085">
        <ele>1059</ele>
        <time>2022-09-22T12:19:26.158Z</time>
      </trkpt>
      <trkpt lat="44.90663" lon="5.38083">
        <ele>1059</ele>
        <time>2022-09-22T12:19:27.158Z</time>
      </trkpt>
      <trkpt lat="44.90661" lon="5.38081">
        <ele>1059</ele>
        <time>2022-09-22T12:19:28.158Z</time>
      </trkpt>
      <trkpt lat="44.90659" lon="5.38079">
        <ele>1059</ele>
        <time>2022-09-22T12:19:29.158Z</time>
      </trkpt>
      <trkpt lat="44.90657" lon="5.38078">
        <ele>1059</ele>
        <time>2022-09-22T12:19:30.158Z</time>
      </trkpt>
      <trkpt lat="44.90655" lon="5.38076">
        <ele>1059</ele>
        <time>2022-09-22T12:19:31.158Z</time>
      </trkpt>
      <trkpt lat="44.90653" lon="5.38074">
        <ele>1059</ele>
        <time>2022-09-22T12:19:32.157Z</time>
      </trkpt>
      <trkpt lat="44.90651" lon="5.38071">
        <ele>1059</ele>
        <time>2022-09-22T12:19:33.157Z</time>
      </trkpt>
      <trkpt lat="44.90649" lon="5.38069">
        <ele>1059</ele>
        <time>2022-09-22T12:19:34.158Z</time>
      </trkpt>
      <trkpt lat="44.90647" lon="5.38067">
        <ele>1059</ele>
        <time>2022-09-22T12:19:35.157Z</time>
      </trkpt>
      <trkpt lat="44.90645" lon="5.38064">
        <ele>1059</ele>
        <time>2022-09-22T12:19:36.158Z</time>
      </trkpt>
      <trkpt lat="44.90644" lon="5.38061">
        <ele>1060</ele>
        <time>2022-09-22T12:19:37.158Z</time>
      </trkpt>
      <trkpt lat="44.90642" lon="5.38058">
        <ele>1060</ele>
        <time>2022-09-22T12:19:38.158Z</time>
      </trkpt>
      <trkpt lat="44.90641" lon="5.38055">
        <ele>1060</ele>
        <time>2022-09-22T12:19:39.158Z</time>
      </trkpt>
      <trkpt lat="44.9064" lon="5.38052">
        <ele>1060</ele>
        <time>2022-09-22T12:19:40.157Z</time>
      </trkpt>
      <trkpt lat="44.90639" lon="5.38048">
        <ele>1059</ele>
        <time>2022-09-22T12:19:41.158Z</time>
      </trkpt>
      <trkpt lat="44.90639" lon="5.38045">
        <ele>1060</ele>
        <time>2022-09-22T12:19:42.158Z</time>
      </trkpt>
      <trkpt lat="44.90638" lon="5.38041">
        <ele>1059</ele>
        <time>2022-09-22T12:19:43.157Z</time>
      </trkpt>
      <trkpt lat="44.90638" lon="5.38037">
        <ele>1059</ele>
        <time>2022-09-22T12:19:44.158Z</time>
      </trkpt>
      <trkpt lat="44.90639" lon="5.38033">
        <ele>1060</ele>
        <time>2022-09-22T12:19:45.158Z</time>
      </trkpt>
      <trkpt lat="44.90639" lon="5.38029">
        <ele>1060</ele>
        <time>2022-09-22T12:19:46.158Z</time>
      </trkpt>
      <trkpt lat="44.9064" lon="5.38025">
        <ele>1060</ele>
        <time>2022-09-22T12:19:47.158Z</time>
      </trkpt>
      <trkpt lat="44.9064" lon="5.38021">
        <ele>1059</ele>
        <time>2022-09-22T12:19:48.158Z</time>
      </trkpt>
      <trkpt lat="44.90641" lon="5.38016">
        <ele>1059</ele>
        <time>2022-09-22T12:19:49.157Z</time>
      </trkpt>
      <trkpt lat="44.90642" lon="5.38012">
        <ele>1059</ele>
        <time>2022-09-22T12:19:50.158Z</time>
      </trkpt>
      <trkpt lat="44.90642" lon="5.38007">
        <ele>1059</ele>
        <time>2022-09-22T12:19:51.158Z</time>
      </trkpt>
      <trkpt lat="44.90643" lon="5.38002">
        <ele>1059</ele>
        <time>2022-09-22T12:19:52.158Z</time>
      </trkpt>
      <trkpt lat="44.90643" lon="5.37996">
        <ele>1059</ele>
        <time>2022-09-22T12:19:53.158Z</time>
      </trkpt>
      <trkpt lat="44.90643" lon="5.37991">
        <ele>1059</ele>
        <time>2022-09-22T12:19:54.158Z</time>
      </trkpt>
      <trkpt lat="44.90643" lon="5.37985">
        <ele>1059</ele>
        <time>2022-09-22T12:19:55.158Z</time>
      </trkpt>
      <trkpt lat="44.90643" lon="5.3798">
        <ele>1058</ele>
        <time>2022-09-22T12:19:56.157Z</time>
      </trkpt>
      <trkpt lat="44.90643" lon="5.37974">
        <ele>1058</ele>
        <time>2022-09-22T12:19:57.158Z</time>
      </trkpt>
      <trkpt lat="44.90643" lon="5.37968">
        <ele>1058</ele>
        <time>2022-09-22T12:19:58.158Z</time>
      </trkpt>
      <trkpt lat="44.90642" lon="5.37963">
        <ele>1057</ele>
        <time>2022-09-22T12:19:59.158Z</time>
      </trkpt>
      <trkpt lat="44.90641" lon="5.37957">
        <ele>1057</ele>
        <time>2022-09-22T12:20:00.157Z</time>
      </trkpt>
      <trkpt lat="44.9064" lon="5.37951">
        <ele>1057</ele>
        <time>2022-09-22T12:20:01.158Z</time>
      </trkpt>
      <trkpt lat="44.90638" lon="5.37945">
        <ele>1057</ele>
        <time>2022-09-22T12:20:02.158Z</time>
      </trkpt>
      <trkpt lat="44.90636" lon="5.37939">
        <ele>1057</ele>
        <time>2022-09-22T12:20:03.158Z</time>
      </trkpt>
      <trkpt lat="44.90634" lon="5.37933">
        <ele>1057</ele>
        <time>2022-09-22T12:20:04.158Z</time>
      </trkpt>
      <trkpt lat="44.90632" lon="5.37928">
        <ele>1057</ele>
        <time>2022-09-22T12:20:05.158Z</time>
      </trkpt>
      <trkpt lat="44.90629" lon="5.37922">
        <ele>1056</ele>
        <time>2022-09-22T12:20:06.158Z</time>
      </trkpt>
      <trkpt lat="44.90626" lon="5.37917">
        <ele>1056</ele>
        <time>2022-09-22T12:20:07.158Z</time>
      </trkpt>
      <trkpt lat="44.90623" lon="5.37912">
        <ele>1056</ele>
        <time>2022-09-22T12:20:08.158Z</time>
      </trkpt>
      <trkpt lat="44.9062" lon="5.37906">
        <ele>1056</ele>
        <time>2022-09-22T12:20:09.157Z</time>
      </trkpt>
      <trkpt lat="44.90617" lon="5.37902">
        <ele>1055</ele>
        <time>2022-09-22T12:20:10.158Z</time>
      </trkpt>
      <trkpt lat="44.90613" lon="5.37897">
        <ele>1055</ele>
        <time>2022-09-22T12:20:11.158Z</time>
      </trkpt>
      <trkpt lat="44.90609" lon="5.37893">
        <ele>1055</ele>
        <time>2022-09-22T12:20:12.158Z</time>
      </trkpt>
      <trkpt lat="44.90606" lon="5.37889">
        <ele>1055</ele>
        <time>2022-09-22T12:20:13.157Z</time>
      </trkpt>
      <trkpt lat="44.90602" lon="5.37886">
        <ele>1055</ele>
        <time>2022-09-22T12:20:14.158Z</time>
      </trkpt>
      <trkpt lat="44.90598" lon="5.37884">
        <ele>1054</ele>
        <time>2022-09-22T12:20:15.157Z</time>
      </trkpt>
      <trkpt lat="44.90595" lon="5.37881">
        <ele>1054</ele>
        <time>2022-09-22T12:20:16.157Z</time>
      </trkpt>
      <trkpt lat="44.90592" lon="5.37878">
        <ele>1054</ele>
        <time>2022-09-22T12:20:17.157Z</time>
      </trkpt>
      <trkpt lat="44.9059" lon="5.37876">
        <ele>1054</ele>
        <time>2022-09-22T12:20:18.158Z</time>
      </trkpt>
      <trkpt lat="44.90587" lon="5.37874">
        <ele>1054</ele>
        <time>2022-09-22T12:20:19.158Z</time>
      </trkpt>
      <trkpt lat="44.90585" lon="5.37872">
        <ele>1054</ele>
        <time>2022-09-22T12:20:20.158Z</time>
      </trkpt>
      <trkpt lat="44.90584" lon="5.3787">
        <ele>1054</ele>
        <time>2022-09-22T12:20:21.157Z</time>
      </trkpt>
      <trkpt lat="44.90582" lon="5.37868">
        <ele>1054</ele>
        <time>2022-09-22T12:20:22.158Z</time>
      </trkpt>
      <trkpt lat="44.9058" lon="5.37867">
        <ele>1054</ele>
        <time>2022-09-22T12:20:23.158Z</time>
      </trkpt>
      <trkpt lat="44.90579" lon="5.37865">
        <ele>1054</ele>
        <time>2022-09-22T12:20:24.158Z</time>
      </trkpt>
      <trkpt lat="44.90577" lon="5.37863">
        <ele>1054</ele>
        <time>2022-09-22T12:20:25.158Z</time>
      </trkpt>
      <trkpt lat="44.90576" lon="5.37861">
        <ele>1054</ele>
        <time>2022-09-22T12:20:26.158Z</time>
      </trkpt>
      <trkpt lat="44.90575" lon="5.3786">
        <ele>1055</ele>
        <time>2022-09-22T12:20:27.158Z</time>
      </trkpt>
      <trkpt lat="44.90573" lon="5.37859">
        <ele>1055</ele>
        <time>2022-09-22T12:20:28.158Z</time>
      </trkpt>
      <trkpt lat="44.90572" lon="5.37858">
        <ele>1055</ele>
        <time>2022-09-22T12:20:29.158Z</time>
      </trkpt>
      <trkpt lat="44.90571" lon="5.37856">
        <ele>1055</ele>
        <time>2022-09-22T12:20:30.158Z</time>
      </trkpt>
      <trkpt lat="44.90571" lon="5.37855">
        <ele>1055</ele>
        <time>2022-09-22T12:20:31.157Z</time>
      </trkpt>
      <trkpt lat="44.90569" lon="5.37854">
        <ele>1055</ele>
        <time>2022-09-22T12:20:32.158Z</time>
      </trkpt>
      <trkpt lat="44.90568" lon="5.37853">
        <ele>1056</ele>
        <time>2022-09-22T12:20:33.158Z</time>
      </trkpt>
      <trkpt lat="44.90566" lon="5.37852">
        <ele>1056</ele>
        <time>2022-09-22T12:20:34.158Z</time>
      </trkpt>
      <trkpt lat="44.90565" lon="5.3785">
        <ele>1056</ele>
        <time>2022-09-22T12:20:35.158Z</time>
      </trkpt>
      <trkpt lat="44.90564" lon="5.37849">
        <ele>1056</ele>
        <time>2022-09-22T12:20:36.158Z</time>
      </trkpt>
      <trkpt lat="44.90563" lon="5.37848">
        <ele>1056</ele>
        <time>2022-09-22T12:20:37.158Z</time>
      </trkpt>
      <trkpt lat="44.90561" lon="5.37846">
        <ele>1056</ele>
        <time>2022-09-22T12:20:38.158Z</time>
      </trkpt>
      <trkpt lat="44.9056" lon="5.37844">
        <ele>1056</ele>
        <time>2022-09-22T12:20:39.158Z</time>
      </trkpt>
      <trkpt lat="44.90558" lon="5.37843">
        <ele>1057</ele>
        <time>2022-09-22T12:20:40.158Z</time>
      </trkpt>
      <trkpt lat="44.90557" lon="5.37841">
        <ele>1057</ele>
        <time>2022-09-22T12:20:41.158Z</time>
      </trkpt>
      <trkpt lat="44.90555" lon="5.37839">
        <ele>1057</ele>
        <time>2022-09-22T12:20:42.158Z</time>
      </trkpt>
      <trkpt lat="44.90554" lon="5.37837">
        <ele>1057</ele>
        <time>2022-09-22T12:20:43.158Z</time>
      </trkpt>
      <trkpt lat="44.90552" lon="5.37835">
        <ele>1057</ele>
        <time>2022-09-22T12:20:44.158Z</time>
      </trkpt>
      <trkpt lat="44.90551" lon="5.37833">
        <ele>1057</ele>
        <time>2022-09-22T12:20:45.158Z</time>
      </trkpt>
      <trkpt lat="44.90549" lon="5.37831">
        <ele>1057</ele>
        <time>2022-09-22T12:20:46.157Z</time>
      </trkpt>
      <trkpt lat="44.90547" lon="5.37828">
        <ele>1057</ele>
        <time>2022-09-22T12:20:47.158Z</time>
      </trkpt>
      <trkpt lat="44.90545" lon="5.37825">
        <ele>1057</ele>
        <time>2022-09-22T12:20:48.158Z</time>
      </trkpt>
      <trkpt lat="44.90543" lon="5.37822">
        <ele>1057</ele>
        <time>2022-09-22T12:20:49.157Z</time>
      </trkpt>
      <trkpt lat="44.90542" lon="5.37818">
        <ele>1057</ele>
        <time>2022-09-22T12:20:50.158Z</time>
      </trkpt>
      <trkpt lat="44.9054" lon="5.37816">
        <ele>1057</ele>
        <time>2022-09-22T12:20:51.157Z</time>
      </trkpt>
      <trkpt lat="44.90538" lon="5.37813">
        <ele>1057</ele>
        <time>2022-09-22T12:20:52.158Z</time>
      </trkpt>
      <trkpt lat="44.90536" lon="5.3781">
        <ele>1057</ele>
        <time>2022-09-22T12:20:53.158Z</time>
      </trkpt>
      <trkpt lat="44.90534" lon="5.37806">
        <ele>1057</ele>
        <time>2022-09-22T12:20:54.157Z</time>
      </trkpt>
      <trkpt lat="44.90532" lon="5.37804">
        <ele>1057</ele>
        <time>2022-09-22T12:20:55.158Z</time>
      </trkpt>
      <trkpt lat="44.9053" lon="5.37801">
        <ele>1057</ele>
        <time>2022-09-22T12:20:56.157Z</time>
      </trkpt>
      <trkpt lat="44.90529" lon="5.37798">
        <ele>1057</ele>
        <time>2022-09-22T12:20:57.158Z</time>
      </trkpt>
      <trkpt lat="44.90527" lon="5.37794">
        <ele>1057</ele>
        <time>2022-09-22T12:20:58.158Z</time>
      </trkpt>
      <trkpt lat="44.90525" lon="5.37791">
        <ele>1056</ele>
        <time>2022-09-22T12:20:59.158Z</time>
      </trkpt>
      <trkpt lat="44.90523" lon="5.37788">
        <ele>1056</ele>
        <time>2022-09-22T12:21:00.157Z</time>
      </trkpt>
      <trkpt lat="44.90521" lon="5.37785">
        <ele>1057</ele>
        <time>2022-09-22T12:21:01.158Z</time>
      </trkpt>
      <trkpt lat="44.90519" lon="5.37782">
        <ele>1057</ele>
        <time>2022-09-22T12:21:02.158Z</time>
      </trkpt>
      <trkpt lat="44.90518" lon="5.3778">
        <ele>1057</ele>
        <time>2022-09-22T12:21:03.158Z</time>
      </trkpt>
      <trkpt lat="44.90516" lon="5.37779">
        <ele>1057</ele>
        <time>2022-09-22T12:21:04.158Z</time>
      </trkpt>
      <trkpt lat="44.90515" lon="5.37778">
        <ele>1057</ele>
        <time>2022-09-22T12:21:05.158Z</time>
      </trkpt>
      <trkpt lat="44.90513" lon="5.37777">
        <ele>1057</ele>
        <time>2022-09-22T12:21:06.158Z</time>
      </trkpt>
      <trkpt lat="44.90512" lon="5.37775">
        <ele>1057</ele>
        <time>2022-09-22T12:21:07.157Z</time>
      </trkpt>
      <trkpt lat="44.9051" lon="5.37773">
        <ele>1057</ele>
        <time>2022-09-22T12:21:08.158Z</time>
      </trkpt>
      <trkpt lat="44.90509" lon="5.3777">
        <ele>1057</ele>
        <time>2022-09-22T12:21:09.158Z</time>
      </trkpt>
      <trkpt lat="44.90508" lon="5.37768">
        <ele>1057</ele>
        <time>2022-09-22T12:21:10.157Z</time>
      </trkpt>
      <trkpt lat="44.90507" lon="5.37765">
        <ele>1057</ele>
        <time>2022-09-22T12:21:11.158Z</time>
      </trkpt>
      <trkpt lat="44.90506" lon="5.37762">
        <ele>1057</ele>
        <time>2022-09-22T12:21:12.158Z</time>
      </trkpt>
      <trkpt lat="44.90506" lon="5.37759">
        <ele>1057</ele>
        <time>2022-09-22T12:21:13.158Z</time>
      </trkpt>
      <trkpt lat="44.90505" lon="5.37756">
        <ele>1056</ele>
        <time>2022-09-22T12:21:14.157Z</time>
      </trkpt>
      <trkpt lat="44.90504" lon="5.37753">
        <ele>1056</ele>
        <time>2022-09-22T12:21:15.158Z</time>
      </trkpt>
      <trkpt lat="44.90503" lon="5.3775">
        <ele>1056</ele>
        <time>2022-09-22T12:21:16.157Z</time>
      </trkpt>
      <trkpt lat="44.90502" lon="5.37746">
        <ele>1057</ele>
        <time>2022-09-22T12:21:17.158Z</time>
      </trkpt>
      <trkpt lat="44.90501" lon="5.37743">
        <ele>1057</ele>
        <time>2022-09-22T12:21:18.157Z</time>
      </trkpt>
      <trkpt lat="44.90499" lon="5.37739">
        <ele>1057</ele>
        <time>2022-09-22T12:21:19.158Z</time>
      </trkpt>
      <trkpt lat="44.90498" lon="5.37735">
        <ele>1057</ele>
        <time>2022-09-22T12:21:20.157Z</time>
      </trkpt>
      <trkpt lat="44.90496" lon="5.3773">
        <ele>1057</ele>
        <time>2022-09-22T12:21:21.158Z</time>
      </trkpt>
      <trkpt lat="44.90494" lon="5.37725">
        <ele>1056</ele>
        <time>2022-09-22T12:21:22.157Z</time>
      </trkpt>
      <trkpt lat="44.90493" lon="5.3772">
        <ele>1056</ele>
        <time>2022-09-22T12:21:23.158Z</time>
      </trkpt>
      <trkpt lat="44.90491" lon="5.37715">
        <ele>1056</ele>
        <time>2022-09-22T12:21:24.158Z</time>
      </trkpt>
      <trkpt lat="44.90489" lon="5.37709">
        <ele>1056</ele>
        <time>2022-09-22T12:21:25.157Z</time>
      </trkpt>
      <trkpt lat="44.90486" lon="5.37703">
        <ele>1055</ele>
        <time>2022-09-22T12:21:26.158Z</time>
      </trkpt>
      <trkpt lat="44.90483" lon="5.37697">
        <ele>1055</ele>
        <time>2022-09-22T12:21:27.158Z</time>
      </trkpt>
      <trkpt lat="44.90479" lon="5.37692">
        <ele>1055</ele>
        <time>2022-09-22T12:21:28.158Z</time>
      </trkpt>
      <trkpt lat="44.90475" lon="5.37686">
        <ele>1054</ele>
        <time>2022-09-22T12:21:29.158Z</time>
      </trkpt>
      <trkpt lat="44.9047" lon="5.37682">
        <ele>1054</ele>
        <time>2022-09-22T12:21:30.158Z</time>
      </trkpt>
      <trkpt lat="44.90466" lon="5.37678">
        <ele>1054</ele>
        <time>2022-09-22T12:21:31.158Z</time>
      </trkpt>
      <trkpt lat="44.90461" lon="5.37675">
        <ele>1054</ele>
        <time>2022-09-22T12:21:32.158Z</time>
      </trkpt>
      <trkpt lat="44.90457" lon="5.37672">
        <ele>1054</ele>
        <time>2022-09-22T12:21:33.158Z</time>
      </trkpt>
      <trkpt lat="44.90453" lon="5.37669">
        <ele>1054</ele>
        <time>2022-09-22T12:21:34.158Z</time>
      </trkpt>
      <trkpt lat="44.90449" lon="5.37666">
        <ele>1054</ele>
        <time>2022-09-22T12:21:35.158Z</time>
      </trkpt>
      <trkpt lat="44.90446" lon="5.37665">
        <ele>1053</ele>
        <time>2022-09-22T12:21:36.157Z</time>
      </trkpt>
      <trkpt lat="44.90443" lon="5.37663">
        <ele>1053</ele>
        <time>2022-09-22T12:21:37.157Z</time>
      </trkpt>
      <trkpt lat="44.9044" lon="5.37661">
        <ele>1053</ele>
        <time>2022-09-22T12:21:38.157Z</time>
      </trkpt>
      <trkpt lat="44.90437" lon="5.3766">
        <ele>1053</ele>
        <time>2022-09-22T12:21:39.158Z</time>
      </trkpt>
      <trkpt lat="44.90435" lon="5.37659">
        <ele>1053</ele>
        <time>2022-09-22T12:21:40.158Z</time>
      </trkpt>
      <trkpt lat="44.90432" lon="5.37657">
        <ele>1053</ele>
        <time>2022-09-22T12:21:41.158Z</time>
      </trkpt>
      <trkpt lat="44.9043" lon="5.37656">
        <ele>1053</ele>
        <time>2022-09-22T12:21:42.158Z</time>
      </trkpt>
      <trkpt lat="44.90427" lon="5.37654">
        <ele>1053</ele>
        <time>2022-09-22T12:21:43.158Z</time>
      </trkpt>
      <trkpt lat="44.90425" lon="5.37652">
        <ele>1053</ele>
        <time>2022-09-22T12:21:44.158Z</time>
      </trkpt>
      <trkpt lat="44.90422" lon="5.37651">
        <ele>1054</ele>
        <time>2022-09-22T12:21:45.158Z</time>
      </trkpt>
      <trkpt lat="44.90419" lon="5.3765">
        <ele>1054</ele>
        <time>2022-09-22T12:21:46.158Z</time>
      </trkpt>
      <trkpt lat="44.90416" lon="5.37649">
        <ele>1054</ele>
        <time>2022-09-22T12:21:47.157Z</time>
      </trkpt>
      <trkpt lat="44.90413" lon="5.37649">
        <ele>1054</ele>
        <time>2022-09-22T12:21:48.158Z</time>
      </trkpt>
      <trkpt lat="44.9041" lon="5.37648">
        <ele>1054</ele>
        <time>2022-09-22T12:21:49.158Z</time>
      </trkpt>
      <trkpt lat="44.90408" lon="5.37648">
        <ele>1053</ele>
        <time>2022-09-22T12:21:50.158Z</time>
      </trkpt>
      <trkpt lat="44.90405" lon="5.37649">
        <ele>1053</ele>
        <time>2022-09-22T12:21:51.158Z</time>
      </trkpt>
      <trkpt lat="44.90403" lon="5.37648">
        <ele>1053</ele>
        <time>2022-09-22T12:21:52.158Z</time>
      </trkpt>
      <trkpt lat="44.90401" lon="5.37648">
        <ele>1053</ele>
        <time>2022-09-22T12:21:53.158Z</time>
      </trkpt>
      <trkpt lat="44.904" lon="5.37647">
        <ele>1053</ele>
        <time>2022-09-22T12:21:54.158Z</time>
      </trkpt>
      <trkpt lat="44.90398" lon="5.37647">
        <ele>1052</ele>
        <time>2022-09-22T12:21:55.158Z</time>
      </trkpt>
      <trkpt lat="44.90396" lon="5.37646">
        <ele>1052</ele>
        <time>2022-09-22T12:21:56.158Z</time>
      </trkpt>
      <trkpt lat="44.90395" lon="5.37645">
        <ele>1052</ele>
        <time>2022-09-22T12:21:57.158Z</time>
      </trkpt>
      <trkpt lat="44.90393" lon="5.37645">
        <ele>1052</ele>
        <time>2022-09-22T12:21:58.157Z</time>
      </trkpt>
      <trkpt lat="44.90391" lon="5.37644">
        <ele>1052</ele>
        <time>2022-09-22T12:21:59.158Z</time>
      </trkpt>
      <trkpt lat="44.90389" lon="5.37644">
        <ele>1052</ele>
        <time>2022-09-22T12:22:00.158Z</time>
      </trkpt>
      <trkpt lat="44.90387" lon="5.37643">
        <ele>1051</ele>
        <time>2022-09-22T12:22:01.158Z</time>
      </trkpt>
      <trkpt lat="44.90385" lon="5.37643">
        <ele>1051</ele>
        <time>2022-09-22T12:22:02.158Z</time>
      </trkpt>
      <trkpt lat="44.90383" lon="5.37642">
        <ele>1052</ele>
        <time>2022-09-22T12:22:03.158Z</time>
      </trkpt>
      <trkpt lat="44.90381" lon="5.37642">
        <ele>1052</ele>
        <time>2022-09-22T12:22:04.158Z</time>
      </trkpt>
      <trkpt lat="44.9038" lon="5.37641">
        <ele>1052</ele>
        <time>2022-09-22T12:22:05.157Z</time>
      </trkpt>
      <trkpt lat="44.90378" lon="5.37641">
        <ele>1052</ele>
        <time>2022-09-22T12:22:06.158Z</time>
      </trkpt>
      <trkpt lat="44.90376" lon="5.37641">
        <ele>1051</ele>
        <time>2022-09-22T12:22:07.158Z</time>
      </trkpt>
      <trkpt lat="44.90375" lon="5.3764">
        <ele>1051</ele>
        <time>2022-09-22T12:22:08.158Z</time>
      </trkpt>
      <trkpt lat="44.90373" lon="5.3764">
        <ele>1051</ele>
        <time>2022-09-22T12:22:09.158Z</time>
      </trkpt>
      <trkpt lat="44.90371" lon="5.37639">
        <ele>1051</ele>
        <time>2022-09-22T12:22:10.158Z</time>
      </trkpt>
      <trkpt lat="44.90369" lon="5.37638">
        <ele>1051</ele>
        <time>2022-09-22T12:22:11.158Z</time>
      </trkpt>
      <trkpt lat="44.90367" lon="5.37638">
        <ele>1052</ele>
        <time>2022-09-22T12:22:12.157Z</time>
      </trkpt>
      <trkpt lat="44.90365" lon="5.37637">
        <ele>1052</ele>
        <time>2022-09-22T12:22:13.158Z</time>
      </trkpt>
      <trkpt lat="44.90364" lon="5.37637">
        <ele>1052</ele>
        <time>2022-09-22T12:22:14.158Z</time>
      </trkpt>
      <trkpt lat="44.90362" lon="5.37637">
        <ele>1052</ele>
        <time>2022-09-22T12:22:15.158Z</time>
      </trkpt>
      <trkpt lat="44.9036" lon="5.37636">
        <ele>1051</ele>
        <time>2022-09-22T12:22:16.158Z</time>
      </trkpt>
      <trkpt lat="44.90358" lon="5.37635">
        <ele>1051</ele>
        <time>2022-09-22T12:22:17.157Z</time>
      </trkpt>
      <trkpt lat="44.90356" lon="5.37634">
        <ele>1051</ele>
        <time>2022-09-22T12:22:18.158Z</time>
      </trkpt>
      <trkpt lat="44.90353" lon="5.37634">
        <ele>1051</ele>
        <time>2022-09-22T12:22:19.158Z</time>
      </trkpt>
      <trkpt lat="44.90351" lon="5.37633">
        <ele>1052</ele>
        <time>2022-09-22T12:22:20.157Z</time>
      </trkpt>
      <trkpt lat="44.90349" lon="5.37633">
        <ele>1052</ele>
        <time>2022-09-22T12:22:21.158Z</time>
      </trkpt>
      <trkpt lat="44.90347" lon="5.37633">
        <ele>1051</ele>
        <time>2022-09-22T12:22:22.158Z</time>
      </trkpt>
      <trkpt lat="44.90345" lon="5.37633">
        <ele>1051</ele>
        <time>2022-09-22T12:22:23.158Z</time>
      </trkpt>
      <trkpt lat="44.90343" lon="5.37632">
        <ele>1051</ele>
        <time>2022-09-22T12:22:24.157Z</time>
      </trkpt>
      <trkpt lat="44.90341" lon="5.37632">
        <ele>1051</ele>
        <time>2022-09-22T12:22:25.158Z</time>
      </trkpt>
      <trkpt lat="44.90339" lon="5.37632">
        <ele>1051</ele>
        <time>2022-09-22T12:22:26.158Z</time>
      </trkpt>
      <trkpt lat="44.90337" lon="5.37632">
        <ele>1050</ele>
        <time>2022-09-22T12:22:27.158Z</time>
      </trkpt>
      <trkpt lat="44.90335" lon="5.37632">
        <ele>1051</ele>
        <time>2022-09-22T12:22:28.158Z</time>
      </trkpt>
      <trkpt lat="44.90333" lon="5.37632">
        <ele>1050</ele>
        <time>2022-09-22T12:22:29.157Z</time>
      </trkpt>
      <trkpt lat="44.90331" lon="5.37632">
        <ele>1050</ele>
        <time>2022-09-22T12:22:30.158Z</time>
      </trkpt>
      <trkpt lat="44.9033" lon="5.37633">
        <ele>1050</ele>
        <time>2022-09-22T12:22:31.158Z</time>
      </trkpt>
      <trkpt lat="44.90328" lon="5.37633">
        <ele>1051</ele>
        <time>2022-09-22T12:22:32.158Z</time>
      </trkpt>
      <trkpt lat="44.90325" lon="5.37633">
        <ele>1051</ele>
        <time>2022-09-22T12:22:33.158Z</time>
      </trkpt>
      <trkpt lat="44.90324" lon="5.37634">
        <ele>1051</ele>
        <time>2022-09-22T12:22:34.157Z</time>
      </trkpt>
      <trkpt lat="44.90322" lon="5.37635">
        <ele>1051</ele>
        <time>2022-09-22T12:22:35.158Z</time>
      </trkpt>
      <trkpt lat="44.9032" lon="5.37635">
        <ele>1051</ele>
        <time>2022-09-22T12:22:36.158Z</time>
      </trkpt>
      <trkpt lat="44.90318" lon="5.37636">
        <ele>1051</ele>
        <time>2022-09-22T12:22:37.158Z</time>
      </trkpt>
      <trkpt lat="44.90315" lon="5.37636">
        <ele>1051</ele>
        <time>2022-09-22T12:22:38.158Z</time>
      </trkpt>
      <trkpt lat="44.90313" lon="5.37635">
        <ele>1051</ele>
        <time>2022-09-22T12:22:39.157Z</time>
      </trkpt>
      <trkpt lat="44.90311" lon="5.37635">
        <ele>1052</ele>
        <time>2022-09-22T12:22:40.157Z</time>
      </trkpt>
      <trkpt lat="44.90308" lon="5.37634">
        <ele>1052</ele>
        <time>2022-09-22T12:22:41.158Z</time>
      </trkpt>
      <trkpt lat="44.90306" lon="5.37633">
        <ele>1052</ele>
        <time>2022-09-22T12:22:42.158Z</time>
      </trkpt>
      <trkpt lat="44.90304" lon="5.37632">
        <ele>1051</ele>
        <time>2022-09-22T12:22:43.158Z</time>
      </trkpt>
      <trkpt lat="44.90302" lon="5.37631">
        <ele>1051</ele>
        <time>2022-09-22T12:22:44.158Z</time>
      </trkpt>
      <trkpt lat="44.903" lon="5.37629">
        <ele>1052</ele>
        <time>2022-09-22T12:22:45.158Z</time>
      </trkpt>
      <trkpt lat="44.90298" lon="5.37627">
        <ele>1052</ele>
        <time>2022-09-22T12:22:46.157Z</time>
      </trkpt>
      <trkpt lat="44.90297" lon="5.37625">
        <ele>1053</ele>
        <time>2022-09-22T12:22:47.158Z</time>
      </trkpt>
      <trkpt lat="44.90295" lon="5.37623">
        <ele>1053</ele>
        <time>2022-09-22T12:22:48.158Z</time>
      </trkpt>
      <trkpt lat="44.90294" lon="5.3762">
        <ele>1053</ele>
        <time>2022-09-22T12:22:49.158Z</time>
      </trkpt>
      <trkpt lat="44.90292" lon="5.37617">
        <ele>1053</ele>
        <time>2022-09-22T12:22:50.158Z</time>
      </trkpt>
      <trkpt lat="44.90291" lon="5.37615">
        <ele>1053</ele>
        <time>2022-09-22T12:22:51.157Z</time>
      </trkpt>
      <trkpt lat="44.9029" lon="5.37613">
        <ele>1053</ele>
        <time>2022-09-22T12:22:52.157Z</time>
      </trkpt>
      <trkpt lat="44.90288" lon="5.3761">
        <ele>1053</ele>
        <time>2022-09-22T12:22:53.158Z</time>
      </trkpt>
      <trkpt lat="44.90287" lon="5.37608">
        <ele>1054</ele>
        <time>2022-09-22T12:22:54.157Z</time>
      </trkpt>
      <trkpt lat="44.90286" lon="5.37606">
        <ele>1053</ele>
        <time>2022-09-22T12:22:55.158Z</time>
      </trkpt>
      <trkpt lat="44.90285" lon="5.37604">
        <ele>1053</ele>
        <time>2022-09-22T12:22:56.158Z</time>
      </trkpt>
      <trkpt lat="44.90283" lon="5.37602">
        <ele>1053</ele>
        <time>2022-09-22T12:22:57.158Z</time>
      </trkpt>
      <trkpt lat="44.90282" lon="5.37601">
        <ele>1053</ele>
        <time>2022-09-22T12:22:58.158Z</time>
      </trkpt>
      <trkpt lat="44.9028" lon="5.37599">
        <ele>1054</ele>
        <time>2022-09-22T12:22:59.158Z</time>
      </trkpt>
      <trkpt lat="44.90278" lon="5.37597">
        <ele>1054</ele>
        <time>2022-09-22T12:23:00.158Z</time>
      </trkpt>
      <trkpt lat="44.90277" lon="5.37595">
        <ele>1055</ele>
        <time>2022-09-22T12:23:01.158Z</time>
      </trkpt>
      <trkpt lat="44.90275" lon="5.37593">
        <ele>1055</ele>
        <time>2022-09-22T12:23:02.158Z</time>
      </trkpt>
      <trkpt lat="44.90273" lon="5.37591">
        <ele>1055</ele>
        <time>2022-09-22T12:23:03.158Z</time>
      </trkpt>
      <trkpt lat="44.90271" lon="5.3759">
        <ele>1055</ele>
        <time>2022-09-22T12:23:04.157Z</time>
      </trkpt>
      <trkpt lat="44.90269" lon="5.37588">
        <ele>1055</ele>
        <time>2022-09-22T12:23:05.158Z</time>
      </trkpt>
      <trkpt lat="44.90267" lon="5.37587">
        <ele>1055</ele>
        <time>2022-09-22T12:23:06.158Z</time>
      </trkpt>
      <trkpt lat="44.90265" lon="5.37586">
        <ele>1056</ele>
        <time>2022-09-22T12:23:07.158Z</time>
      </trkpt>
      <trkpt lat="44.90264" lon="5.37584">
        <ele>1056</ele>
        <time>2022-09-22T12:23:08.158Z</time>
      </trkpt>
      <trkpt lat="44.90262" lon="5.37583">
        <ele>1057</ele>
        <time>2022-09-22T12:23:09.158Z</time>
      </trkpt>
      <trkpt lat="44.9026" lon="5.37582">
        <ele>1057</ele>
        <time>2022-09-22T12:23:10.158Z</time>
      </trkpt>
      <trkpt lat="44.90259" lon="5.37581">
        <ele>1058</ele>
        <time>2022-09-22T12:23:11.158Z</time>
      </trkpt>
      <trkpt lat="44.90257" lon="5.3758">
        <ele>1058</ele>
        <time>2022-09-22T12:23:12.158Z</time>
      </trkpt>
      <trkpt lat="44.90255" lon="5.37578">
        <ele>1058</ele>
        <time>2022-09-22T12:23:13.158Z</time>
      </trkpt>
      <trkpt lat="44.90254" lon="5.37577">
        <ele>1058</ele>
        <time>2022-09-22T12:23:14.158Z</time>
      </trkpt>
      <trkpt lat="44.90252" lon="5.37576">
        <ele>1058</ele>
        <time>2022-09-22T12:23:15.158Z</time>
      </trkpt>
      <trkpt lat="44.9025" lon="5.37574">
        <ele>1057</ele>
        <time>2022-09-22T12:23:16.158Z</time>
      </trkpt>
      <trkpt lat="44.90248" lon="5.37573">
        <ele>1057</ele>
        <time>2022-09-22T12:23:17.158Z</time>
      </trkpt>
      <trkpt lat="44.90246" lon="5.37571">
        <ele>1057</ele>
        <time>2022-09-22T12:23:18.157Z</time>
      </trkpt>
      <trkpt lat="44.90245" lon="5.3757">
        <ele>1057</ele>
        <time>2022-09-22T12:23:19.158Z</time>
      </trkpt>
      <trkpt lat="44.90243" lon="5.37568">
        <ele>1057</ele>
        <time>2022-09-22T12:23:20.158Z</time>
      </trkpt>
      <trkpt lat="44.90241" lon="5.37568">
        <ele>1056</ele>
        <time>2022-09-22T12:23:21.158Z</time>
      </trkpt>
      <trkpt lat="44.90239" lon="5.37566">
        <ele>1056</ele>
        <time>2022-09-22T12:23:22.158Z</time>
      </trkpt>
      <trkpt lat="44.90238" lon="5.37564">
        <ele>1057</ele>
        <time>2022-09-22T12:23:23.157Z</time>
      </trkpt>
      <trkpt lat="44.90236" lon="5.37563">
        <ele>1057</ele>
        <time>2022-09-22T12:23:24.158Z</time>
      </trkpt>
      <trkpt lat="44.90233" lon="5.37562">
        <ele>1057</ele>
        <time>2022-09-22T12:23:25.158Z</time>
      </trkpt>
      <trkpt lat="44.90231" lon="5.37561">
        <ele>1057</ele>
        <time>2022-09-22T12:23:26.158Z</time>
      </trkpt>
      <trkpt lat="44.90229" lon="5.3756">
        <ele>1057</ele>
        <time>2022-09-22T12:23:27.158Z</time>
      </trkpt>
      <trkpt lat="44.90227" lon="5.37559">
        <ele>1057</ele>
        <time>2022-09-22T12:23:28.158Z</time>
      </trkpt>
      <trkpt lat="44.90225" lon="5.37559">
        <ele>1057</ele>
        <time>2022-09-22T12:23:29.158Z</time>
      </trkpt>
      <trkpt lat="44.90223" lon="5.37558">
        <ele>1057</ele>
        <time>2022-09-22T12:23:30.157Z</time>
      </trkpt>
      <trkpt lat="44.90221" lon="5.37557">
        <ele>1057</ele>
        <time>2022-09-22T12:23:31.158Z</time>
      </trkpt>
      <trkpt lat="44.90219" lon="5.37556">
        <ele>1057</ele>
        <time>2022-09-22T12:23:32.158Z</time>
      </trkpt>
      <trkpt lat="44.90217" lon="5.37555">
        <ele>1057</ele>
        <time>2022-09-22T12:23:33.158Z</time>
      </trkpt>
      <trkpt lat="44.90215" lon="5.37553">
        <ele>1057</ele>
        <time>2022-09-22T12:23:34.157Z</time>
      </trkpt>
      <trkpt lat="44.90214" lon="5.37552">
        <ele>1057</ele>
        <time>2022-09-22T12:23:35.157Z</time>
      </trkpt>
      <trkpt lat="44.90212" lon="5.37551">
        <ele>1057</ele>
        <time>2022-09-22T12:23:36.158Z</time>
      </trkpt>
      <trkpt lat="44.9021" lon="5.37549">
        <ele>1057</ele>
        <time>2022-09-22T12:23:37.158Z</time>
      </trkpt>
      <trkpt lat="44.90208" lon="5.37547">
        <ele>1057</ele>
        <time>2022-09-22T12:23:38.158Z</time>
      </trkpt>
      <trkpt lat="44.90206" lon="5.37546">
        <ele>1057</ele>
        <time>2022-09-22T12:23:39.158Z</time>
      </trkpt>
      <trkpt lat="44.90205" lon="5.37545">
        <ele>1056</ele>
        <time>2022-09-22T12:23:40.158Z</time>
      </trkpt>
      <trkpt lat="44.90203" lon="5.37543">
        <ele>1056</ele>
        <time>2022-09-22T12:23:41.158Z</time>
      </trkpt>
      <trkpt lat="44.90201" lon="5.37542">
        <ele>1056</ele>
        <time>2022-09-22T12:23:42.158Z</time>
      </trkpt>
      <trkpt lat="44.902" lon="5.3754">
        <ele>1056</ele>
        <time>2022-09-22T12:23:43.158Z</time>
      </trkpt>
      <trkpt lat="44.90198" lon="5.37538">
        <ele>1056</ele>
        <time>2022-09-22T12:23:44.157Z</time>
      </trkpt>
      <trkpt lat="44.90197" lon="5.37537">
        <ele>1055</ele>
        <time>2022-09-22T12:23:45.158Z</time>
      </trkpt>
      <trkpt lat="44.90195" lon="5.37535">
        <ele>1055</ele>
        <time>2022-09-22T12:23:46.158Z</time>
      </trkpt>
      <trkpt lat="44.90194" lon="5.37533">
        <ele>1056</ele>
        <time>2022-09-22T12:23:47.158Z</time>
      </trkpt>
      <trkpt lat="44.90192" lon="5.37531">
        <ele>1056</ele>
        <time>2022-09-22T12:23:48.157Z</time>
      </trkpt>
      <trkpt lat="44.9019" lon="5.37529">
        <ele>1056</ele>
        <time>2022-09-22T12:23:49.158Z</time>
      </trkpt>
      <trkpt lat="44.90189" lon="5.37527">
        <ele>1056</ele>
        <time>2022-09-22T12:23:50.157Z</time>
      </trkpt>
      <trkpt lat="44.90187" lon="5.37525">
        <ele>1056</ele>
        <time>2022-09-22T12:23:51.157Z</time>
      </trkpt>
      <trkpt lat="44.90186" lon="5.37524">
        <ele>1056</ele>
        <time>2022-09-22T12:23:52.158Z</time>
      </trkpt>
      <trkpt lat="44.90184" lon="5.37523">
        <ele>1056</ele>
        <time>2022-09-22T12:23:53.158Z</time>
      </trkpt>
      <trkpt lat="44.90183" lon="5.37521">
        <ele>1056</ele>
        <time>2022-09-22T12:23:54.157Z</time>
      </trkpt>
      <trkpt lat="44.90181" lon="5.3752">
        <ele>1056</ele>
        <time>2022-09-22T12:23:55.158Z</time>
      </trkpt>
      <trkpt lat="44.9018" lon="5.37518">
        <ele>1056</ele>
        <time>2022-09-22T12:23:56.157Z</time>
      </trkpt>
      <trkpt lat="44.90179" lon="5.37517">
        <ele>1056</ele>
        <time>2022-09-22T12:23:57.157Z</time>
      </trkpt>
      <trkpt lat="44.90177" lon="5.37515">
        <ele>1056</ele>
        <time>2022-09-22T12:23:58.158Z</time>
      </trkpt>
      <trkpt lat="44.90176" lon="5.37514">
        <ele>1056</ele>
        <time>2022-09-22T12:23:59.158Z</time>
      </trkpt>
      <trkpt lat="44.90175" lon="5.37513">
        <ele>1056</ele>
        <time>2022-09-22T12:24:00.158Z</time>
      </trkpt>
      <trkpt lat="44.90174" lon="5.37512">
        <ele>1056</ele>
        <time>2022-09-22T12:24:01.158Z</time>
      </trkpt>
      <trkpt lat="44.90172" lon="5.3751">
        <ele>1056</ele>
        <time>2022-09-22T12:24:02.157Z</time>
      </trkpt>
      <trkpt lat="44.90171" lon="5.37509">
        <ele>1056</ele>
        <time>2022-09-22T12:24:03.157Z</time>
      </trkpt>
      <trkpt lat="44.90169" lon="5.37507">
        <ele>1057</ele>
        <time>2022-09-22T12:24:04.158Z</time>
      </trkpt>
      <trkpt lat="44.90167" lon="5.37506">
        <ele>1057</ele>
        <time>2022-09-22T12:24:05.158Z</time>
      </trkpt>
      <trkpt lat="44.90166" lon="5.37504">
        <ele>1057</ele>
        <time>2022-09-22T12:24:06.158Z</time>
      </trkpt>
      <trkpt lat="44.90164" lon="5.37503">
        <ele>1057</ele>
        <time>2022-09-22T12:24:07.157Z</time>
      </trkpt>
      <trkpt lat="44.90162" lon="5.37502">
        <ele>1058</ele>
        <time>2022-09-22T12:24:08.158Z</time>
      </trkpt>
      <trkpt lat="44.90159" lon="5.375">
        <ele>1058</ele>
        <time>2022-09-22T12:24:09.158Z</time>
      </trkpt>
      <trkpt lat="44.90157" lon="5.37499">
        <ele>1058</ele>
        <time>2022-09-22T12:24:10.158Z</time>
      </trkpt>
      <trkpt lat="44.90154" lon="5.37498">
        <ele>1058</ele>
        <time>2022-09-22T12:24:11.158Z</time>
      </trkpt>
      <trkpt lat="44.9015" lon="5.37498">
        <ele>1058</ele>
        <time>2022-09-22T12:24:12.158Z</time>
      </trkpt>
      <trkpt lat="44.90146" lon="5.37498">
        <ele>1057</ele>
        <time>2022-09-22T12:24:13.157Z</time>
      </trkpt>
      <trkpt lat="44.90142" lon="5.37497">
        <ele>1058</ele>
        <time>2022-09-22T12:24:14.158Z</time>
      </trkpt>
      <trkpt lat="44.90138" lon="5.37498">
        <ele>1058</ele>
        <time>2022-09-22T12:24:15.158Z</time>
      </trkpt>
      <trkpt lat="44.90133" lon="5.37498">
        <ele>1058</ele>
        <time>2022-09-22T12:24:16.158Z</time>
      </trkpt>
      <trkpt lat="44.90128" lon="5.37498">
        <ele>1057</ele>
        <time>2022-09-22T12:24:17.157Z</time>
      </trkpt>
      <trkpt lat="44.90124" lon="5.37499">
        <ele>1057</ele>
        <time>2022-09-22T12:24:18.158Z</time>
      </trkpt>
      <trkpt lat="44.9012" lon="5.37499">
        <ele>1057</ele>
        <time>2022-09-22T12:24:19.158Z</time>
      </trkpt>
      <trkpt lat="44.90116" lon="5.37499">
        <ele>1057</ele>
        <time>2022-09-22T12:24:20.158Z</time>
      </trkpt>
      <trkpt lat="44.90113" lon="5.37498">
        <ele>1056</ele>
        <time>2022-09-22T12:24:21.158Z</time>
      </trkpt>
      <trkpt lat="44.90109" lon="5.37498">
        <ele>1056</ele>
        <time>2022-09-22T12:24:22.157Z</time>
      </trkpt>
      <trkpt lat="44.90105" lon="5.37498">
        <ele>1056</ele>
        <time>2022-09-22T12:24:23.158Z</time>
      </trkpt>
      <trkpt lat="44.90102" lon="5.37498">
        <ele>1056</ele>
        <time>2022-09-22T12:24:24.157Z</time>
      </trkpt>
      <trkpt lat="44.90098" lon="5.37497">
        <ele>1056</ele>
        <time>2022-09-22T12:24:25.158Z</time>
      </trkpt>
      <trkpt lat="44.90095" lon="5.37495">
        <ele>1056</ele>
        <time>2022-09-22T12:24:26.158Z</time>
      </trkpt>
      <trkpt lat="44.90091" lon="5.37494">
        <ele>1055</ele>
        <time>2022-09-22T12:24:27.158Z</time>
      </trkpt>
      <trkpt lat="44.90087" lon="5.37492">
        <ele>1055</ele>
        <time>2022-09-22T12:24:28.158Z</time>
      </trkpt>
      <trkpt lat="44.90083" lon="5.3749">
        <ele>1055</ele>
        <time>2022-09-22T12:24:29.158Z</time>
      </trkpt>
      <trkpt lat="44.90079" lon="5.37488">
        <ele>1055</ele>
        <time>2022-09-22T12:24:30.158Z</time>
      </trkpt>
      <trkpt lat="44.90075" lon="5.37486">
        <ele>1055</ele>
        <time>2022-09-22T12:24:31.157Z</time>
      </trkpt>
      <trkpt lat="44.90071" lon="5.37485">
        <ele>1055</ele>
        <time>2022-09-22T12:24:32.157Z</time>
      </trkpt>
      <trkpt lat="44.90067" lon="5.37484">
        <ele>1055</ele>
        <time>2022-09-22T12:24:33.158Z</time>
      </trkpt>
      <trkpt lat="44.90063" lon="5.37483">
        <ele>1055</ele>
        <time>2022-09-22T12:24:34.158Z</time>
      </trkpt>
      <trkpt lat="44.90058" lon="5.37483">
        <ele>1055</ele>
        <time>2022-09-22T12:24:35.157Z</time>
      </trkpt>
      <trkpt lat="44.90055" lon="5.37483">
        <ele>1055</ele>
        <time>2022-09-22T12:24:36.158Z</time>
      </trkpt>
      <trkpt lat="44.9005" lon="5.37483">
        <ele>1055</ele>
        <time>2022-09-22T12:24:37.158Z</time>
      </trkpt>
      <trkpt lat="44.90046" lon="5.37483">
        <ele>1055</ele>
        <time>2022-09-22T12:24:38.157Z</time>
      </trkpt>
      <trkpt lat="44.90042" lon="5.37484">
        <ele>1055</ele>
        <time>2022-09-22T12:24:39.158Z</time>
      </trkpt>
      <trkpt lat="44.90037" lon="5.37483">
        <ele>1055</ele>
        <time>2022-09-22T12:24:40.157Z</time>
      </trkpt>
      <trkpt lat="44.90033" lon="5.37482">
        <ele>1054</ele>
        <time>2022-09-22T12:24:41.157Z</time>
      </trkpt>
      <trkpt lat="44.90028" lon="5.37481">
        <ele>1054</ele>
        <time>2022-09-22T12:24:42.158Z</time>
      </trkpt>
      <trkpt lat="44.90025" lon="5.37478">
        <ele>1054</ele>
        <time>2022-09-22T12:24:43.158Z</time>
      </trkpt>
      <trkpt lat="44.90022" lon="5.37476">
        <ele>1054</ele>
        <time>2022-09-22T12:24:44.158Z</time>
      </trkpt>
      <trkpt lat="44.90019" lon="5.37474">
        <ele>1053</ele>
        <time>2022-09-22T12:24:45.158Z</time>
      </trkpt>
      <trkpt lat="44.90016" lon="5.37473">
        <ele>1053</ele>
        <time>2022-09-22T12:24:46.158Z</time>
      </trkpt>
      <trkpt lat="44.90013" lon="5.37473">
        <ele>1053</ele>
        <time>2022-09-22T12:24:47.158Z</time>
      </trkpt>
      <trkpt lat="44.90011" lon="5.37476">
        <ele>1053</ele>
        <time>2022-09-22T12:24:48.158Z</time>
      </trkpt>
      <trkpt lat="44.90008" lon="5.37479">
        <ele>1053</ele>
        <time>2022-09-22T12:24:49.157Z</time>
      </trkpt>
      <trkpt lat="44.90006" lon="5.37483">
        <ele>1052</ele>
        <time>2022-09-22T12:24:50.157Z</time>
      </trkpt>
      <trkpt lat="44.90003" lon="5.37487">
        <ele>1052</ele>
        <time>2022-09-22T12:24:51.158Z</time>
      </trkpt>
      <trkpt lat="44.9" lon="5.37491">
        <ele>1052</ele>
        <time>2022-09-22T12:24:52.158Z</time>
      </trkpt>
      <trkpt lat="44.89998" lon="5.37496">
        <ele>1052</ele>
        <time>2022-09-22T12:24:53.157Z</time>
      </trkpt>
      <trkpt lat="44.89995" lon="5.37501">
        <ele>1052</ele>
        <time>2022-09-22T12:24:54.157Z</time>
      </trkpt>
      <trkpt lat="44.89993" lon="5.37506">
        <ele>1052</ele>
        <time>2022-09-22T12:24:55.157Z</time>
      </trkpt>
      <trkpt lat="44.8999" lon="5.37511">
        <ele>1052</ele>
        <time>2022-09-22T12:24:56.158Z</time>
      </trkpt>
      <trkpt lat="44.89987" lon="5.37516">
        <ele>1052</ele>
        <time>2022-09-22T12:24:57.158Z</time>
      </trkpt>
      <trkpt lat="44.89985" lon="5.37521">
        <ele>1052</ele>
        <time>2022-09-22T12:24:58.158Z</time>
      </trkpt>
      <trkpt lat="44.89983" lon="5.37526">
        <ele>1052</ele>
        <time>2022-09-22T12:24:59.158Z</time>
      </trkpt>
      <trkpt lat="44.8998" lon="5.37531">
        <ele>1052</ele>
        <time>2022-09-22T12:25:00.157Z</time>
      </trkpt>
      <trkpt lat="44.89978" lon="5.37536">
        <ele>1053</ele>
        <time>2022-09-22T12:25:01.158Z</time>
      </trkpt>
      <trkpt lat="44.89976" lon="5.37541">
        <ele>1053</ele>
        <time>2022-09-22T12:25:02.158Z</time>
      </trkpt>
      <trkpt lat="44.89974" lon="5.37545">
        <ele>1052</ele>
        <time>2022-09-22T12:25:03.158Z</time>
      </trkpt>
      <trkpt lat="44.89972" lon="5.3755">
        <ele>1052</ele>
        <time>2022-09-22T12:25:04.158Z</time>
      </trkpt>
      <trkpt lat="44.89969" lon="5.37554">
        <ele>1052</ele>
        <time>2022-09-22T12:25:05.158Z</time>
      </trkpt>
      <trkpt lat="44.89967" lon="5.37559">
        <ele>1051</ele>
        <time>2022-09-22T12:25:06.158Z</time>
      </trkpt>
      <trkpt lat="44.89965" lon="5.37563">
        <ele>1051</ele>
        <time>2022-09-22T12:25:07.157Z</time>
      </trkpt>
      <trkpt lat="44.89963" lon="5.37568">
        <ele>1051</ele>
        <time>2022-09-22T12:25:08.158Z</time>
      </trkpt>
      <trkpt lat="44.8996" lon="5.37572">
        <ele>1050</ele>
        <time>2022-09-22T12:25:09.157Z</time>
      </trkpt>
      <trkpt lat="44.89958" lon="5.37577">
        <ele>1049</ele>
        <time>2022-09-22T12:25:10.157Z</time>
      </trkpt>
      <trkpt lat="44.89956" lon="5.37581">
        <ele>1049</ele>
        <time>2022-09-22T12:25:11.158Z</time>
      </trkpt>
      <trkpt lat="44.89954" lon="5.37586">
        <ele>1049</ele>
        <time>2022-09-22T12:25:12.157Z</time>
      </trkpt>
      <trkpt lat="44.89952" lon="5.37591">
        <ele>1049</ele>
        <time>2022-09-22T12:25:13.158Z</time>
      </trkpt>
      <trkpt lat="44.8995" lon="5.37595">
        <ele>1048</ele>
        <time>2022-09-22T12:25:14.158Z</time>
      </trkpt>
      <trkpt lat="44.89947" lon="5.376">
        <ele>1048</ele>
        <time>2022-09-22T12:25:15.158Z</time>
      </trkpt>
      <trkpt lat="44.89945" lon="5.37606">
        <ele>1049</ele>
        <time>2022-09-22T12:25:16.158Z</time>
      </trkpt>
      <trkpt lat="44.89942" lon="5.37611">
        <ele>1048</ele>
        <time>2022-09-22T12:25:17.158Z</time>
      </trkpt>
      <trkpt lat="44.89939" lon="5.37616">
        <ele>1048</ele>
        <time>2022-09-22T12:25:18.158Z</time>
      </trkpt>
      <trkpt lat="44.89936" lon="5.37622">
        <ele>1048</ele>
        <time>2022-09-22T12:25:19.158Z</time>
      </trkpt>
      <trkpt lat="44.89933" lon="5.37628">
        <ele>1048</ele>
        <time>2022-09-22T12:25:20.157Z</time>
      </trkpt>
      <trkpt lat="44.89931" lon="5.37635">
        <ele>1048</ele>
        <time>2022-09-22T12:25:21.158Z</time>
      </trkpt>
      <trkpt lat="44.89929" lon="5.37642">
        <ele>1048</ele>
        <time>2022-09-22T12:25:22.158Z</time>
      </trkpt>
      <trkpt lat="44.89929" lon="5.37649">
        <ele>1048</ele>
        <time>2022-09-22T12:25:23.157Z</time>
      </trkpt>
      <trkpt lat="44.89929" lon="5.37655">
        <ele>1048</ele>
        <time>2022-09-22T12:25:24.158Z</time>
      </trkpt>
      <trkpt lat="44.89929" lon="5.37661">
        <ele>1048</ele>
        <time>2022-09-22T12:25:25.158Z</time>
      </trkpt>
      <trkpt lat="44.8993" lon="5.37667">
        <ele>1047</ele>
        <time>2022-09-22T12:25:26.157Z</time>
      </trkpt>
      <trkpt lat="44.89932" lon="5.37672">
        <ele>1047</ele>
        <time>2022-09-22T12:25:27.158Z</time>
      </trkpt>
      <trkpt lat="44.89933" lon="5.37677">
        <ele>1047</ele>
        <time>2022-09-22T12:25:28.158Z</time>
      </trkpt>
      <trkpt lat="44.89935" lon="5.37682">
        <ele>1046</ele>
        <time>2022-09-22T12:25:29.158Z</time>
      </trkpt>
      <trkpt lat="44.89936" lon="5.37686">
        <ele>1046</ele>
        <time>2022-09-22T12:25:30.158Z</time>
      </trkpt>
      <trkpt lat="44.89937" lon="5.37691">
        <ele>1046</ele>
        <time>2022-09-22T12:25:31.158Z</time>
      </trkpt>
      <trkpt lat="44.89938" lon="5.37696">
        <ele>1046</ele>
        <time>2022-09-22T12:25:32.158Z</time>
      </trkpt>
      <trkpt lat="44.89939" lon="5.377">
        <ele>1046</ele>
        <time>2022-09-22T12:25:33.157Z</time>
      </trkpt>
      <trkpt lat="44.89941" lon="5.37704">
        <ele>1046</ele>
        <time>2022-09-22T12:25:34.158Z</time>
      </trkpt>
      <trkpt lat="44.89942" lon="5.37708">
        <ele>1046</ele>
        <time>2022-09-22T12:25:35.158Z</time>
      </trkpt>
      <trkpt lat="44.89944" lon="5.37712">
        <ele>1046</ele>
        <time>2022-09-22T12:25:36.158Z</time>
      </trkpt>
      <trkpt lat="44.89946" lon="5.37716">
        <ele>1046</ele>
        <time>2022-09-22T12:25:37.158Z</time>
      </trkpt>
      <trkpt lat="44.89949" lon="5.3772">
        <ele>1046</ele>
        <time>2022-09-22T12:25:38.158Z</time>
      </trkpt>
      <trkpt lat="44.89952" lon="5.37723">
        <ele>1045</ele>
        <time>2022-09-22T12:25:39.158Z</time>
      </trkpt>
      <trkpt lat="44.89955" lon="5.37728">
        <ele>1045</ele>
        <time>2022-09-22T12:25:40.157Z</time>
      </trkpt>
      <trkpt lat="44.89958" lon="5.37732">
        <ele>1044</ele>
        <time>2022-09-22T12:25:41.158Z</time>
      </trkpt>
      <trkpt lat="44.89961" lon="5.37737">
        <ele>1044</ele>
        <time>2022-09-22T12:25:42.158Z</time>
      </trkpt>
      <trkpt lat="44.89963" lon="5.37742">
        <ele>1044</ele>
        <time>2022-09-22T12:25:43.157Z</time>
      </trkpt>
      <trkpt lat="44.89965" lon="5.37747">
        <ele>1044</ele>
        <time>2022-09-22T12:25:44.158Z</time>
      </trkpt>
      <trkpt lat="44.89967" lon="5.37752">
        <ele>1043</ele>
        <time>2022-09-22T12:25:45.158Z</time>
      </trkpt>
      <trkpt lat="44.89968" lon="5.37757">
        <ele>1043</ele>
        <time>2022-09-22T12:25:46.158Z</time>
      </trkpt>
      <trkpt lat="44.8997" lon="5.37762">
        <ele>1044</ele>
        <time>2022-09-22T12:25:47.158Z</time>
      </trkpt>
      <trkpt lat="44.89971" lon="5.37767">
        <ele>1044</ele>
        <time>2022-09-22T12:25:48.158Z</time>
      </trkpt>
      <trkpt lat="44.89972" lon="5.37772">
        <ele>1043</ele>
        <time>2022-09-22T12:25:49.157Z</time>
      </trkpt>
      <trkpt lat="44.89973" lon="5.37777">
        <ele>1043</ele>
        <time>2022-09-22T12:25:50.158Z</time>
      </trkpt>
      <trkpt lat="44.89973" lon="5.37782">
        <ele>1043</ele>
        <time>2022-09-22T12:25:51.158Z</time>
      </trkpt>
      <trkpt lat="44.89973" lon="5.37787">
        <ele>1043</ele>
        <time>2022-09-22T12:25:52.158Z</time>
      </trkpt>
      <trkpt lat="44.89972" lon="5.37792">
        <ele>1042</ele>
        <time>2022-09-22T12:25:53.157Z</time>
      </trkpt>
      <trkpt lat="44.89971" lon="5.37797">
        <ele>1042</ele>
        <time>2022-09-22T12:25:54.158Z</time>
      </trkpt>
      <trkpt lat="44.8997" lon="5.37802">
        <ele>1042</ele>
        <time>2022-09-22T12:25:55.158Z</time>
      </trkpt>
      <trkpt lat="44.89969" lon="5.37806">
        <ele>1042</ele>
        <time>2022-09-22T12:25:56.157Z</time>
      </trkpt>
      <trkpt lat="44.89967" lon="5.37811">
        <ele>1042</ele>
        <time>2022-09-22T12:25:57.158Z</time>
      </trkpt>
      <trkpt lat="44.89966" lon="5.37816">
        <ele>1042</ele>
        <time>2022-09-22T12:25:58.158Z</time>
      </trkpt>
      <trkpt lat="44.89964" lon="5.3782">
        <ele>1042</ele>
        <time>2022-09-22T12:25:59.158Z</time>
      </trkpt>
      <trkpt lat="44.89963" lon="5.37825">
        <ele>1042</ele>
        <time>2022-09-22T12:26:00.158Z</time>
      </trkpt>
      <trkpt lat="44.89961" lon="5.3783">
        <ele>1042</ele>
        <time>2022-09-22T12:26:01.158Z</time>
      </trkpt>
      <trkpt lat="44.8996" lon="5.37835">
        <ele>1042</ele>
        <time>2022-09-22T12:26:02.157Z</time>
      </trkpt>
      <trkpt lat="44.89958" lon="5.3784">
        <ele>1042</ele>
        <time>2022-09-22T12:26:03.157Z</time>
      </trkpt>
      <trkpt lat="44.89956" lon="5.37845">
        <ele>1043</ele>
        <time>2022-09-22T12:26:04.158Z</time>
      </trkpt>
      <trkpt lat="44.89954" lon="5.37849">
        <ele>1043</ele>
        <time>2022-09-22T12:26:05.158Z</time>
      </trkpt>
      <trkpt lat="44.89952" lon="5.37854">
        <ele>1043</ele>
        <time>2022-09-22T12:26:06.157Z</time>
      </trkpt>
      <trkpt lat="44.8995" lon="5.37858">
        <ele>1043</ele>
        <time>2022-09-22T12:26:07.158Z</time>
      </trkpt>
      <trkpt lat="44.89948" lon="5.37862">
        <ele>1043</ele>
        <time>2022-09-22T12:26:08.158Z</time>
      </trkpt>
      <trkpt lat="44.89946" lon="5.37865">
        <ele>1043</ele>
        <time>2022-09-22T12:26:09.158Z</time>
      </trkpt>
      <trkpt lat="44.89944" lon="5.37868">
        <ele>1043</ele>
        <time>2022-09-22T12:26:10.158Z</time>
      </trkpt>
      <trkpt lat="44.89942" lon="5.37872">
        <ele>1044</ele>
        <time>2022-09-22T12:26:11.158Z</time>
      </trkpt>
      <trkpt lat="44.89941" lon="5.37875">
        <ele>1044</ele>
        <time>2022-09-22T12:26:12.158Z</time>
      </trkpt>
      <trkpt lat="44.89939" lon="5.37877">
        <ele>1044</ele>
        <time>2022-09-22T12:26:13.157Z</time>
      </trkpt>
      <trkpt lat="44.89937" lon="5.3788">
        <ele>1045</ele>
        <time>2022-09-22T12:26:14.157Z</time>
      </trkpt>
      <trkpt lat="44.89935" lon="5.37882">
        <ele>1045</ele>
        <time>2022-09-22T12:26:15.157Z</time>
      </trkpt>
      <trkpt lat="44.89933" lon="5.37885">
        <ele>1046</ele>
        <time>2022-09-22T12:26:16.157Z</time>
      </trkpt>
      <trkpt lat="44.89931" lon="5.37888">
        <ele>1045</ele>
        <time>2022-09-22T12:26:17.157Z</time>
      </trkpt>
      <trkpt lat="44.89929" lon="5.37891">
        <ele>1045</ele>
        <time>2022-09-22T12:26:18.157Z</time>
      </trkpt>
      <trkpt lat="44.89926" lon="5.37894">
        <ele>1045</ele>
        <time>2022-09-22T12:26:19.157Z</time>
      </trkpt>
      <trkpt lat="44.89924" lon="5.37898">
        <ele>1045</ele>
        <time>2022-09-22T12:26:20.157Z</time>
      </trkpt>
      <trkpt lat="44.89921" lon="5.37902">
        <ele>1045</ele>
        <time>2022-09-22T12:26:21.157Z</time>
      </trkpt>
      <trkpt lat="44.89918" lon="5.37906">
        <ele>1045</ele>
        <time>2022-09-22T12:26:22.158Z</time>
      </trkpt>
      <trkpt lat="44.89916" lon="5.3791">
        <ele>1045</ele>
        <time>2022-09-22T12:26:23.158Z</time>
      </trkpt>
      <trkpt lat="44.89914" lon="5.37914">
        <ele>1046</ele>
        <time>2022-09-22T12:26:24.158Z</time>
      </trkpt>
      <trkpt lat="44.89912" lon="5.37919">
        <ele>1046</ele>
        <time>2022-09-22T12:26:25.158Z</time>
      </trkpt>
      <trkpt lat="44.8991" lon="5.37923">
        <ele>1046</ele>
        <time>2022-09-22T12:26:26.158Z</time>
      </trkpt>
      <trkpt lat="44.89908" lon="5.37928">
        <ele>1046</ele>
        <time>2022-09-22T12:26:27.158Z</time>
      </trkpt>
      <trkpt lat="44.89906" lon="5.37932">
        <ele>1045</ele>
        <time>2022-09-22T12:26:28.158Z</time>
      </trkpt>
      <trkpt lat="44.89905" lon="5.37936">
        <ele>1045</ele>
        <time>2022-09-22T12:26:29.157Z</time>
      </trkpt>
      <trkpt lat="44.89903" lon="5.37941">
        <ele>1045</ele>
        <time>2022-09-22T12:26:30.158Z</time>
      </trkpt>
      <trkpt lat="44.89902" lon="5.37945">
        <ele>1045</ele>
        <time>2022-09-22T12:26:31.158Z</time>
      </trkpt>
      <trkpt lat="44.899" lon="5.37949">
        <ele>1044</ele>
        <time>2022-09-22T12:26:32.158Z</time>
      </trkpt>
      <trkpt lat="44.89898" lon="5.37953">
        <ele>1044</ele>
        <time>2022-09-22T12:26:33.157Z</time>
      </trkpt>
      <trkpt lat="44.89897" lon="5.37956">
        <ele>1045</ele>
        <time>2022-09-22T12:26:34.158Z</time>
      </trkpt>
      <trkpt lat="44.89896" lon="5.3796">
        <ele>1044</ele>
        <time>2022-09-22T12:26:35.158Z</time>
      </trkpt>
      <trkpt lat="44.89895" lon="5.37963">
        <ele>1044</ele>
        <time>2022-09-22T12:26:36.158Z</time>
      </trkpt>
      <trkpt lat="44.89894" lon="5.37966">
        <ele>1044</ele>
        <time>2022-09-22T12:26:37.158Z</time>
      </trkpt>
      <trkpt lat="44.89893" lon="5.37969">
        <ele>1045</ele>
        <time>2022-09-22T12:26:38.158Z</time>
      </trkpt>
      <trkpt lat="44.89892" lon="5.37972">
        <ele>1044</ele>
        <time>2022-09-22T12:26:39.157Z</time>
      </trkpt>
      <trkpt lat="44.89891" lon="5.37975">
        <ele>1045</ele>
        <time>2022-09-22T12:26:40.158Z</time>
      </trkpt>
      <trkpt lat="44.8989" lon="5.37978">
        <ele>1045</ele>
        <time>2022-09-22T12:26:41.157Z</time>
      </trkpt>
      <trkpt lat="44.89889" lon="5.37981">
        <ele>1045</ele>
        <time>2022-09-22T12:26:42.158Z</time>
      </trkpt>
      <trkpt lat="44.89888" lon="5.37985">
        <ele>1045</ele>
        <time>2022-09-22T12:26:43.157Z</time>
      </trkpt>
      <trkpt lat="44.89887" lon="5.37988">
        <ele>1045</ele>
        <time>2022-09-22T12:26:44.158Z</time>
      </trkpt>
      <trkpt lat="44.89886" lon="5.37991">
        <ele>1045</ele>
        <time>2022-09-22T12:26:45.157Z</time>
      </trkpt>
      <trkpt lat="44.89885" lon="5.37994">
        <ele>1046</ele>
        <time>2022-09-22T12:26:46.158Z</time>
      </trkpt>
      <trkpt lat="44.89884" lon="5.37998">
        <ele>1046</ele>
        <time>2022-09-22T12:26:47.158Z</time>
      </trkpt>
      <trkpt lat="44.89882" lon="5.38001">
        <ele>1046</ele>
        <time>2022-09-22T12:26:48.158Z</time>
      </trkpt>
      <trkpt lat="44.89882" lon="5.38005">
        <ele>1046</ele>
        <time>2022-09-22T12:26:49.158Z</time>
      </trkpt>
      <trkpt lat="44.89881" lon="5.38008">
        <ele>1046</ele>
        <time>2022-09-22T12:26:50.157Z</time>
      </trkpt>
      <trkpt lat="44.8988" lon="5.38012">
        <ele>1046</ele>
        <time>2022-09-22T12:26:51.158Z</time>
      </trkpt>
      <trkpt lat="44.8988" lon="5.38017">
        <ele>1046</ele>
        <time>2022-09-22T12:26:52.158Z</time>
      </trkpt>
      <trkpt lat="44.89879" lon="5.3802">
        <ele>1046</ele>
        <time>2022-09-22T12:26:53.158Z</time>
      </trkpt>
      <trkpt lat="44.89879" lon="5.38023">
        <ele>1046</ele>
        <time>2022-09-22T12:26:54.157Z</time>
      </trkpt>
      <trkpt lat="44.8988" lon="5.38026">
        <ele>1045</ele>
        <time>2022-09-22T12:26:55.157Z</time>
      </trkpt>
      <trkpt lat="44.8988" lon="5.3803">
        <ele>1046</ele>
        <time>2022-09-22T12:26:56.158Z</time>
      </trkpt>
      <trkpt lat="44.8988" lon="5.38033">
        <ele>1046</ele>
        <time>2022-09-22T12:26:57.158Z</time>
      </trkpt>
      <trkpt lat="44.8988" lon="5.38037">
        <ele>1046</ele>
        <time>2022-09-22T12:26:58.158Z</time>
      </trkpt>
      <trkpt lat="44.89881" lon="5.38041">
        <ele>1047</ele>
        <time>2022-09-22T12:26:59.157Z</time>
      </trkpt>
      <trkpt lat="44.89882" lon="5.38046">
        <ele>1047</ele>
        <time>2022-09-22T12:27:00.157Z</time>
      </trkpt>
      <trkpt lat="44.89883" lon="5.38049">
        <ele>1046</ele>
        <time>2022-09-22T12:27:01.157Z</time>
      </trkpt>
      <trkpt lat="44.89886" lon="5.38053">
        <ele>1046</ele>
        <time>2022-09-22T12:27:02.158Z</time>
      </trkpt>
      <trkpt lat="44.89888" lon="5.38055">
        <ele>1046</ele>
        <time>2022-09-22T12:27:03.158Z</time>
      </trkpt>
      <trkpt lat="44.89891" lon="5.38056">
        <ele>1046</ele>
        <time>2022-09-22T12:27:04.158Z</time>
      </trkpt>
      <trkpt lat="44.89895" lon="5.38057">
        <ele>1046</ele>
        <time>2022-09-22T12:27:05.158Z</time>
      </trkpt>
      <trkpt lat="44.89899" lon="5.38056">
        <ele>1046</ele>
        <time>2022-09-22T12:27:06.158Z</time>
      </trkpt>
      <trkpt lat="44.89903" lon="5.38056">
        <ele>1046</ele>
        <time>2022-09-22T12:27:07.158Z</time>
      </trkpt>
      <trkpt lat="44.89907" lon="5.38056">
        <ele>1046</ele>
        <time>2022-09-22T12:27:08.158Z</time>
      </trkpt>
      <trkpt lat="44.89911" lon="5.38056">
        <ele>1046</ele>
        <time>2022-09-22T12:27:09.158Z</time>
      </trkpt>
      <trkpt lat="44.89915" lon="5.38056">
        <ele>1046</ele>
        <time>2022-09-22T12:27:10.158Z</time>
      </trkpt>
      <trkpt lat="44.89919" lon="5.38056">
        <ele>1046</ele>
        <time>2022-09-22T12:27:11.157Z</time>
      </trkpt>
      <trkpt lat="44.89923" lon="5.38057">
        <ele>1046</ele>
        <time>2022-09-22T12:27:12.158Z</time>
      </trkpt>
      <trkpt lat="44.89927" lon="5.38057">
        <ele>1046</ele>
        <time>2022-09-22T12:27:13.158Z</time>
      </trkpt>
      <trkpt lat="44.89931" lon="5.38058">
        <ele>1046</ele>
        <time>2022-09-22T12:27:14.158Z</time>
      </trkpt>
      <trkpt lat="44.89934" lon="5.38059">
        <ele>1046</ele>
        <time>2022-09-22T12:27:15.158Z</time>
      </trkpt>
      <trkpt lat="44.89938" lon="5.38061">
        <ele>1046</ele>
        <time>2022-09-22T12:27:16.158Z</time>
      </trkpt>
      <trkpt lat="44.89941" lon="5.38063">
        <ele>1046</ele>
        <time>2022-09-22T12:27:17.158Z</time>
      </trkpt>
      <trkpt lat="44.89944" lon="5.38065">
        <ele>1045</ele>
        <time>2022-09-22T12:27:18.158Z</time>
      </trkpt>
      <trkpt lat="44.89947" lon="5.38068">
        <ele>1045</ele>
        <time>2022-09-22T12:27:19.157Z</time>
      </trkpt>
      <trkpt lat="44.8995" lon="5.38071">
        <ele>1046</ele>
        <time>2022-09-22T12:27:20.158Z</time>
      </trkpt>
      <trkpt lat="44.89952" lon="5.38075">
        <ele>1046</ele>
        <time>2022-09-22T12:27:21.157Z</time>
      </trkpt>
      <trkpt lat="44.89954" lon="5.38079">
        <ele>1046</ele>
        <time>2022-09-22T12:27:22.158Z</time>
      </trkpt>
      <trkpt lat="44.89956" lon="5.38083">
        <ele>1046</ele>
        <time>2022-09-22T12:27:23.157Z</time>
      </trkpt>
      <trkpt lat="44.89957" lon="5.38087">
        <ele>1046</ele>
        <time>2022-09-22T12:27:24.157Z</time>
      </trkpt>
      <trkpt lat="44.89959" lon="5.3809">
        <ele>1046</ele>
        <time>2022-09-22T12:27:25.157Z</time>
      </trkpt>
      <trkpt lat="44.8996" lon="5.38094">
        <ele>1046</ele>
        <time>2022-09-22T12:27:26.158Z</time>
      </trkpt>
      <trkpt lat="44.89961" lon="5.38097">
        <ele>1046</ele>
        <time>2022-09-22T12:27:27.157Z</time>
      </trkpt>
      <trkpt lat="44.89962" lon="5.38101">
        <ele>1046</ele>
        <time>2022-09-22T12:27:28.157Z</time>
      </trkpt>
      <trkpt lat="44.89962" lon="5.38105">
        <ele>1046</ele>
        <time>2022-09-22T12:27:29.157Z</time>
      </trkpt>
      <trkpt lat="44.89963" lon="5.38108">
        <ele>1046</ele>
        <time>2022-09-22T12:27:30.158Z</time>
      </trkpt>
      <trkpt lat="44.89964" lon="5.38112">
        <ele>1046</ele>
        <time>2022-09-22T12:27:31.157Z</time>
      </trkpt>
      <trkpt lat="44.89965" lon="5.38116">
        <ele>1046</ele>
        <time>2022-09-22T12:27:32.157Z</time>
      </trkpt>
      <trkpt lat="44.89966" lon="5.38119">
        <ele>1047</ele>
        <time>2022-09-22T12:27:33.158Z</time>
      </trkpt>
      <trkpt lat="44.89967" lon="5.38123">
        <ele>1047</ele>
        <time>2022-09-22T12:27:34.158Z</time>
      </trkpt>
      <trkpt lat="44.89969" lon="5.38126">
        <ele>1048</ele>
        <time>2022-09-22T12:27:35.158Z</time>
      </trkpt>
      <trkpt lat="44.8997" lon="5.3813">
        <ele>1048</ele>
        <time>2022-09-22T12:27:36.158Z</time>
      </trkpt>
      <trkpt lat="44.89972" lon="5.38133">
        <ele>1048</ele>
        <time>2022-09-22T12:27:37.157Z</time>
      </trkpt>
      <trkpt lat="44.89973" lon="5.38136">
        <ele>1047</ele>
        <time>2022-09-22T12:27:38.158Z</time>
      </trkpt>
      <trkpt lat="44.89975" lon="5.38139">
        <ele>1047</ele>
        <time>2022-09-22T12:27:39.158Z</time>
      </trkpt>
      <trkpt lat="44.89977" lon="5.38142">
        <ele>1047</ele>
        <time>2022-09-22T12:27:40.158Z</time>
      </trkpt>
      <trkpt lat="44.89979" lon="5.38145">
        <ele>1047</ele>
        <time>2022-09-22T12:27:41.157Z</time>
      </trkpt>
      <trkpt lat="44.8998" lon="5.38149">
        <ele>1047</ele>
        <time>2022-09-22T12:27:42.158Z</time>
      </trkpt>
      <trkpt lat="44.89982" lon="5.38152">
        <ele>1047</ele>
        <time>2022-09-22T12:27:43.157Z</time>
      </trkpt>
      <trkpt lat="44.89984" lon="5.38155">
        <ele>1047</ele>
        <time>2022-09-22T12:27:44.158Z</time>
      </trkpt>
      <trkpt lat="44.89985" lon="5.38159">
        <ele>1047</ele>
        <time>2022-09-22T12:27:45.158Z</time>
      </trkpt>
      <trkpt lat="44.89986" lon="5.38163">
        <ele>1047</ele>
        <time>2022-09-22T12:27:46.158Z</time>
      </trkpt>
      <trkpt lat="44.89988" lon="5.38166">
        <ele>1048</ele>
        <time>2022-09-22T12:27:47.158Z</time>
      </trkpt>
      <trkpt lat="44.89989" lon="5.3817">
        <ele>1048</ele>
        <time>2022-09-22T12:27:48.158Z</time>
      </trkpt>
      <trkpt lat="44.89989" lon="5.38174">
        <ele>1049</ele>
        <time>2022-09-22T12:27:49.158Z</time>
      </trkpt>
      <trkpt lat="44.8999" lon="5.38177">
        <ele>1049</ele>
        <time>2022-09-22T12:27:50.158Z</time>
      </trkpt>
      <trkpt lat="44.89991" lon="5.38181">
        <ele>1050</ele>
        <time>2022-09-22T12:27:51.157Z</time>
      </trkpt>
      <trkpt lat="44.89992" lon="5.38185">
        <ele>1050</ele>
        <time>2022-09-22T12:27:52.157Z</time>
      </trkpt>
      <trkpt lat="44.89993" lon="5.38188">
        <ele>1050</ele>
        <time>2022-09-22T12:27:53.157Z</time>
      </trkpt>
      <trkpt lat="44.89994" lon="5.38192">
        <ele>1050</ele>
        <time>2022-09-22T12:27:54.157Z</time>
      </trkpt>
      <trkpt lat="44.89995" lon="5.38195">
        <ele>1050</ele>
        <time>2022-09-22T12:27:55.158Z</time>
      </trkpt>
      <trkpt lat="44.89996" lon="5.38199">
        <ele>1050</ele>
        <time>2022-09-22T12:27:56.157Z</time>
      </trkpt>
      <trkpt lat="44.89997" lon="5.38202">
        <ele>1050</ele>
        <time>2022-09-22T12:27:57.157Z</time>
      </trkpt>
      <trkpt lat="44.89998" lon="5.38205">
        <ele>1050</ele>
        <time>2022-09-22T12:27:58.158Z</time>
      </trkpt>
      <trkpt lat="44.9" lon="5.38209">
        <ele>1050</ele>
        <time>2022-09-22T12:27:59.158Z</time>
      </trkpt>
      <trkpt lat="44.90001" lon="5.38213">
        <ele>1049</ele>
        <time>2022-09-22T12:28:00.158Z</time>
      </trkpt>
      <trkpt lat="44.90002" lon="5.38216">
        <ele>1049</ele>
        <time>2022-09-22T12:28:01.158Z</time>
      </trkpt>
      <trkpt lat="44.90002" lon="5.3822">
        <ele>1049</ele>
        <time>2022-09-22T12:28:02.158Z</time>
      </trkpt>
      <trkpt lat="44.90003" lon="5.38224">
        <ele>1050</ele>
        <time>2022-09-22T12:28:03.157Z</time>
      </trkpt>
      <trkpt lat="44.90004" lon="5.38227">
        <ele>1050</ele>
        <time>2022-09-22T12:28:04.158Z</time>
      </trkpt>
      <trkpt lat="44.90004" lon="5.38231">
        <ele>1050</ele>
        <time>2022-09-22T12:28:05.158Z</time>
      </trkpt>
      <trkpt lat="44.90005" lon="5.38234">
        <ele>1051</ele>
        <time>2022-09-22T12:28:06.158Z</time>
      </trkpt>
      <trkpt lat="44.90005" lon="5.38237">
        <ele>1051</ele>
        <time>2022-09-22T12:28:07.158Z</time>
      </trkpt>
      <trkpt lat="44.90006" lon="5.38241">
        <ele>1052</ele>
        <time>2022-09-22T12:28:08.158Z</time>
      </trkpt>
      <trkpt lat="44.90006" lon="5.38244">
        <ele>1052</ele>
        <time>2022-09-22T12:28:09.158Z</time>
      </trkpt>
      <trkpt lat="44.90006" lon="5.38247">
        <ele>1053</ele>
        <time>2022-09-22T12:28:10.158Z</time>
      </trkpt>
      <trkpt lat="44.90007" lon="5.38251">
        <ele>1053</ele>
        <time>2022-09-22T12:28:11.157Z</time>
      </trkpt>
      <trkpt lat="44.90007" lon="5.38254">
        <ele>1054</ele>
        <time>2022-09-22T12:28:12.158Z</time>
      </trkpt>
      <trkpt lat="44.90007" lon="5.38258">
        <ele>1054</ele>
        <time>2022-09-22T12:28:13.158Z</time>
      </trkpt>
      <trkpt lat="44.90008" lon="5.38261">
        <ele>1054</ele>
        <time>2022-09-22T12:28:14.158Z</time>
      </trkpt>
      <trkpt lat="44.90008" lon="5.38265">
        <ele>1055</ele>
        <time>2022-09-22T12:28:15.157Z</time>
      </trkpt>
      <trkpt lat="44.90008" lon="5.38268">
        <ele>1055</ele>
        <time>2022-09-22T12:28:16.158Z</time>
      </trkpt>
      <trkpt lat="44.90008" lon="5.38272">
        <ele>1055</ele>
        <time>2022-09-22T12:28:17.158Z</time>
      </trkpt>
      <trkpt lat="44.90009" lon="5.38275">
        <ele>1056</ele>
        <time>2022-09-22T12:28:18.158Z</time>
      </trkpt>
      <trkpt lat="44.90009" lon="5.38278">
        <ele>1056</ele>
        <time>2022-09-22T12:28:19.157Z</time>
      </trkpt>
      <trkpt lat="44.9001" lon="5.38281">
        <ele>1056</ele>
        <time>2022-09-22T12:28:20.157Z</time>
      </trkpt>
      <trkpt lat="44.90012" lon="5.38283">
        <ele>1055</ele>
        <time>2022-09-22T12:28:21.158Z</time>
      </trkpt>
      <trkpt lat="44.90013" lon="5.38286">
        <ele>1055</ele>
        <time>2022-09-22T12:28:22.158Z</time>
      </trkpt>
      <trkpt lat="44.90014" lon="5.38289">
        <ele>1055</ele>
        <time>2022-09-22T12:28:23.158Z</time>
      </trkpt>
      <trkpt lat="44.90015" lon="5.38292">
        <ele>1055</ele>
        <time>2022-09-22T12:28:24.158Z</time>
      </trkpt>
      <trkpt lat="44.90017" lon="5.38295">
        <ele>1055</ele>
        <time>2022-09-22T12:28:25.158Z</time>
      </trkpt>
      <trkpt lat="44.90018" lon="5.38297">
        <ele>1055</ele>
        <time>2022-09-22T12:28:26.158Z</time>
      </trkpt>
      <trkpt lat="44.9002" lon="5.38299">
        <ele>1055</ele>
        <time>2022-09-22T12:28:27.158Z</time>
      </trkpt>
      <trkpt lat="44.90021" lon="5.38302">
        <ele>1055</ele>
        <time>2022-09-22T12:28:28.158Z</time>
      </trkpt>
      <trkpt lat="44.90022" lon="5.38304">
        <ele>1055</ele>
        <time>2022-09-22T12:28:29.158Z</time>
      </trkpt>
      <trkpt lat="44.90024" lon="5.38307">
        <ele>1055</ele>
        <time>2022-09-22T12:28:30.157Z</time>
      </trkpt>
      <trkpt lat="44.90025" lon="5.38309">
        <ele>1056</ele>
        <time>2022-09-22T12:28:31.158Z</time>
      </trkpt>
      <trkpt lat="44.90027" lon="5.38311">
        <ele>1056</ele>
        <time>2022-09-22T12:28:32.157Z</time>
      </trkpt>
      <trkpt lat="44.90029" lon="5.38313">
        <ele>1056</ele>
        <time>2022-09-22T12:28:33.158Z</time>
      </trkpt>
      <trkpt lat="44.9003" lon="5.38316">
        <ele>1056</ele>
        <time>2022-09-22T12:28:34.158Z</time>
      </trkpt>
      <trkpt lat="44.90032" lon="5.38318">
        <ele>1056</ele>
        <time>2022-09-22T12:28:35.158Z</time>
      </trkpt>
      <trkpt lat="44.90034" lon="5.38321">
        <ele>1056</ele>
        <time>2022-09-22T12:28:36.157Z</time>
      </trkpt>
      <trkpt lat="44.90036" lon="5.38323">
        <ele>1056</ele>
        <time>2022-09-22T12:28:37.158Z</time>
      </trkpt>
      <trkpt lat="44.90038" lon="5.38325">
        <ele>1057</ele>
        <time>2022-09-22T12:28:38.158Z</time>
      </trkpt>
      <trkpt lat="44.9004" lon="5.38328">
        <ele>1057</ele>
        <time>2022-09-22T12:28:39.158Z</time>
      </trkpt>
      <trkpt lat="44.90043" lon="5.38331">
        <ele>1057</ele>
        <time>2022-09-22T12:28:40.158Z</time>
      </trkpt>
      <trkpt lat="44.90045" lon="5.38334">
        <ele>1057</ele>
        <time>2022-09-22T12:28:41.158Z</time>
      </trkpt>
      <trkpt lat="44.90048" lon="5.38337">
        <ele>1057</ele>
        <time>2022-09-22T12:28:42.158Z</time>
      </trkpt>
      <trkpt lat="44.9005" lon="5.3834">
        <ele>1057</ele>
        <time>2022-09-22T12:28:43.158Z</time>
      </trkpt>
      <trkpt lat="44.90053" lon="5.38343">
        <ele>1057</ele>
        <time>2022-09-22T12:28:44.158Z</time>
      </trkpt>
      <trkpt lat="44.90056" lon="5.38346">
        <ele>1057</ele>
        <time>2022-09-22T12:28:45.158Z</time>
      </trkpt>
      <trkpt lat="44.90058" lon="5.38349">
        <ele>1057</ele>
        <time>2022-09-22T12:28:46.158Z</time>
      </trkpt>
      <trkpt lat="44.90061" lon="5.38352">
        <ele>1058</ele>
        <time>2022-09-22T12:28:47.158Z</time>
      </trkpt>
      <trkpt lat="44.90064" lon="5.38355">
        <ele>1058</ele>
        <time>2022-09-22T12:28:48.158Z</time>
      </trkpt>
      <trkpt lat="44.90067" lon="5.38358">
        <ele>1058</ele>
        <time>2022-09-22T12:28:49.158Z</time>
      </trkpt>
      <trkpt lat="44.90069" lon="5.38361">
        <ele>1058</ele>
        <time>2022-09-22T12:28:50.158Z</time>
      </trkpt>
      <trkpt lat="44.90072" lon="5.38365">
        <ele>1058</ele>
        <time>2022-09-22T12:28:51.158Z</time>
      </trkpt>
      <trkpt lat="44.90075" lon="5.38367">
        <ele>1058</ele>
        <time>2022-09-22T12:28:52.158Z</time>
      </trkpt>
      <trkpt lat="44.90078" lon="5.3837">
        <ele>1058</ele>
        <time>2022-09-22T12:28:53.157Z</time>
      </trkpt>
      <trkpt lat="44.9008" lon="5.38373">
        <ele>1058</ele>
        <time>2022-09-22T12:28:54.158Z</time>
      </trkpt>
      <trkpt lat="44.90083" lon="5.38376">
        <ele>1058</ele>
        <time>2022-09-22T12:28:55.157Z</time>
      </trkpt>
      <trkpt lat="44.90087" lon="5.38379">
        <ele>1058</ele>
        <time>2022-09-22T12:28:56.157Z</time>
      </trkpt>
      <trkpt lat="44.9009" lon="5.38382">
        <ele>1058</ele>
        <time>2022-09-22T12:28:57.158Z</time>
      </trkpt>
      <trkpt lat="44.90093" lon="5.38384">
        <ele>1058</ele>
        <time>2022-09-22T12:28:58.158Z</time>
      </trkpt>
      <trkpt lat="44.90096" lon="5.38388">
        <ele>1058</ele>
        <time>2022-09-22T12:28:59.158Z</time>
      </trkpt>
      <trkpt lat="44.901" lon="5.38391">
        <ele>1058</ele>
        <time>2022-09-22T12:29:00.157Z</time>
      </trkpt>
      <trkpt lat="44.90102" lon="5.38393">
        <ele>1058</ele>
        <time>2022-09-22T12:29:01.157Z</time>
      </trkpt>
      <trkpt lat="44.90106" lon="5.38397">
        <ele>1058</ele>
        <time>2022-09-22T12:29:02.158Z</time>
      </trkpt>
      <trkpt lat="44.90109" lon="5.384">
        <ele>1058</ele>
        <time>2022-09-22T12:29:03.157Z</time>
      </trkpt>
      <trkpt lat="44.90113" lon="5.38403">
        <ele>1058</ele>
        <time>2022-09-22T12:29:04.157Z</time>
      </trkpt>
      <trkpt lat="44.90117" lon="5.38407">
        <ele>1058</ele>
        <time>2022-09-22T12:29:05.158Z</time>
      </trkpt>
      <trkpt lat="44.90121" lon="5.3841">
        <ele>1058</ele>
        <time>2022-09-22T12:29:06.157Z</time>
      </trkpt>
      <trkpt lat="44.90125" lon="5.38413">
        <ele>1058</ele>
        <time>2022-09-22T12:29:07.158Z</time>
      </trkpt>
      <trkpt lat="44.9013" lon="5.38416">
        <ele>1057</ele>
        <time>2022-09-22T12:29:08.158Z</time>
      </trkpt>
      <trkpt lat="44.90134" lon="5.38419">
        <ele>1057</ele>
        <time>2022-09-22T12:29:09.157Z</time>
      </trkpt>
      <trkpt lat="44.90139" lon="5.38422">
        <ele>1057</ele>
        <time>2022-09-22T12:29:10.157Z</time>
      </trkpt>
      <trkpt lat="44.90144" lon="5.38426">
        <ele>1056</ele>
        <time>2022-09-22T12:29:11.158Z</time>
      </trkpt>
      <trkpt lat="44.9015" lon="5.3843">
        <ele>1056</ele>
        <time>2022-09-22T12:29:12.157Z</time>
      </trkpt>
      <trkpt lat="44.90155" lon="5.38435">
        <ele>1055</ele>
        <time>2022-09-22T12:29:13.157Z</time>
      </trkpt>
      <trkpt lat="44.90161" lon="5.3844">
        <ele>1055</ele>
        <time>2022-09-22T12:29:14.158Z</time>
      </trkpt>
      <trkpt lat="44.90166" lon="5.38445">
        <ele>1055</ele>
        <time>2022-09-22T12:29:15.157Z</time>
      </trkpt>
      <trkpt lat="44.9017" lon="5.38451">
        <ele>1055</ele>
        <time>2022-09-22T12:29:16.157Z</time>
      </trkpt>
      <trkpt lat="44.90174" lon="5.38457">
        <ele>1054</ele>
        <time>2022-09-22T12:29:17.157Z</time>
      </trkpt>
      <trkpt lat="44.90178" lon="5.38462">
        <ele>1055</ele>
        <time>2022-09-22T12:29:18.158Z</time>
      </trkpt>
      <trkpt lat="44.90183" lon="5.38469">
        <ele>1055</ele>
        <time>2022-09-22T12:29:19.158Z</time>
      </trkpt>
      <trkpt lat="44.90187" lon="5.38473">
        <ele>1054</ele>
        <time>2022-09-22T12:29:20.157Z</time>
      </trkpt>
      <trkpt lat="44.90191" lon="5.38479">
        <ele>1054</ele>
        <time>2022-09-22T12:29:21.157Z</time>
      </trkpt>
      <trkpt lat="44.90196" lon="5.38485">
        <ele>1054</ele>
        <time>2022-09-22T12:29:22.157Z</time>
      </trkpt>
      <trkpt lat="44.902" lon="5.3849">
        <ele>1054</ele>
        <time>2022-09-22T12:29:23.158Z</time>
      </trkpt>
      <trkpt lat="44.90204" lon="5.38496">
        <ele>1054</ele>
        <time>2022-09-22T12:29:24.158Z</time>
      </trkpt>
      <trkpt lat="44.90207" lon="5.38501">
        <ele>1054</ele>
        <time>2022-09-22T12:29:25.157Z</time>
      </trkpt>
      <trkpt lat="44.9021" lon="5.38508">
        <ele>1053</ele>
        <time>2022-09-22T12:29:26.158Z</time>
      </trkpt>
      <trkpt lat="44.90214" lon="5.38514">
        <ele>1053</ele>
        <time>2022-09-22T12:29:27.158Z</time>
      </trkpt>
      <trkpt lat="44.90217" lon="5.3852">
        <ele>1053</ele>
        <time>2022-09-22T12:29:28.158Z</time>
      </trkpt>
      <trkpt lat="44.9022" lon="5.38525">
        <ele>1053</ele>
        <time>2022-09-22T12:29:29.158Z</time>
      </trkpt>
      <trkpt lat="44.90224" lon="5.38528">
        <ele>1053</ele>
        <time>2022-09-22T12:29:30.158Z</time>
      </trkpt>
      <trkpt lat="44.90229" lon="5.38533">
        <ele>1053</ele>
        <time>2022-09-22T12:29:31.158Z</time>
      </trkpt>
      <trkpt lat="44.90233" lon="5.38537">
        <ele>1053</ele>
        <time>2022-09-22T12:29:32.157Z</time>
      </trkpt>
      <trkpt lat="44.90236" lon="5.38539">
        <ele>1053</ele>
        <time>2022-09-22T12:29:33.157Z</time>
      </trkpt>
      <trkpt lat="44.90239" lon="5.38542">
        <ele>1052</ele>
        <time>2022-09-22T12:29:34.158Z</time>
      </trkpt>
      <trkpt lat="44.90243" lon="5.38544">
        <ele>1053</ele>
        <time>2022-09-22T12:29:35.157Z</time>
      </trkpt>
      <trkpt lat="44.90247" lon="5.38547">
        <ele>1053</ele>
        <time>2022-09-22T12:29:36.158Z</time>
      </trkpt>
      <trkpt lat="44.90251" lon="5.3855">
        <ele>1053</ele>
        <time>2022-09-22T12:29:37.157Z</time>
      </trkpt>
      <trkpt lat="44.90255" lon="5.38552">
        <ele>1053</ele>
        <time>2022-09-22T12:29:38.158Z</time>
      </trkpt>
      <trkpt lat="44.9026" lon="5.38554">
        <ele>1053</ele>
        <time>2022-09-22T12:29:39.158Z</time>
      </trkpt>
      <trkpt lat="44.90263" lon="5.38556">
        <ele>1052</ele>
        <time>2022-09-22T12:29:40.157Z</time>
      </trkpt>
      <trkpt lat="44.90266" lon="5.38558">
        <ele>1053</ele>
        <time>2022-09-22T12:29:41.158Z</time>
      </trkpt>
      <trkpt lat="44.9027" lon="5.3856">
        <ele>1053</ele>
        <time>2022-09-22T12:29:42.158Z</time>
      </trkpt>
      <trkpt lat="44.90274" lon="5.38562">
        <ele>1053</ele>
        <time>2022-09-22T12:29:43.158Z</time>
      </trkpt>
      <trkpt lat="44.90278" lon="5.38565">
        <ele>1053</ele>
        <time>2022-09-22T12:29:44.158Z</time>
      </trkpt>
      <trkpt lat="44.90283" lon="5.38567">
        <ele>1053</ele>
        <time>2022-09-22T12:29:45.158Z</time>
      </trkpt>
      <trkpt lat="44.90287" lon="5.38569">
        <ele>1053</ele>
        <time>2022-09-22T12:29:46.158Z</time>
      </trkpt>
      <trkpt lat="44.9029" lon="5.38571">
        <ele>1053</ele>
        <time>2022-09-22T12:29:47.158Z</time>
      </trkpt>
      <trkpt lat="44.90296" lon="5.38574">
        <ele>1053</ele>
        <time>2022-09-22T12:29:48.158Z</time>
      </trkpt>
      <trkpt lat="44.903" lon="5.38577">
        <ele>1053</ele>
        <time>2022-09-22T12:29:49.158Z</time>
      </trkpt>
      <trkpt lat="44.90305" lon="5.3858">
        <ele>1053</ele>
        <time>2022-09-22T12:29:50.157Z</time>
      </trkpt>
      <trkpt lat="44.90309" lon="5.38583">
        <ele>1053</ele>
        <time>2022-09-22T12:29:51.158Z</time>
      </trkpt>
      <trkpt lat="44.90313" lon="5.38587">
        <ele>1053</ele>
        <time>2022-09-22T12:29:52.158Z</time>
      </trkpt>
      <trkpt lat="44.90319" lon="5.38592">
        <ele>1053</ele>
        <time>2022-09-22T12:29:53.157Z</time>
      </trkpt>
      <trkpt lat="44.90324" lon="5.38597">
        <ele>1053</ele>
        <time>2022-09-22T12:29:54.158Z</time>
      </trkpt>
      <trkpt lat="44.90328" lon="5.38601">
        <ele>1053</ele>
        <time>2022-09-22T12:29:55.157Z</time>
      </trkpt>
      <trkpt lat="44.90334" lon="5.38606">
        <ele>1053</ele>
        <time>2022-09-22T12:29:56.158Z</time>
      </trkpt>
      <trkpt lat="44.90339" lon="5.3861">
        <ele>1053</ele>
        <time>2022-09-22T12:29:57.157Z</time>
      </trkpt>
      <trkpt lat="44.90344" lon="5.38614">
        <ele>1052</ele>
        <time>2022-09-22T12:29:58.158Z</time>
      </trkpt>
      <trkpt lat="44.90349" lon="5.38617">
        <ele>1052</ele>
        <time>2022-09-22T12:29:59.158Z</time>
      </trkpt>
      <trkpt lat="44.90353" lon="5.3862">
        <ele>1052</ele>
        <time>2022-09-22T12:30:00.158Z</time>
      </trkpt>
      <trkpt lat="44.90357" lon="5.38623">
        <ele>1052</ele>
        <time>2022-09-22T12:30:01.157Z</time>
      </trkpt>
      <trkpt lat="44.90362" lon="5.38627">
        <ele>1052</ele>
        <time>2022-09-22T12:30:02.157Z</time>
      </trkpt>
      <trkpt lat="44.90365" lon="5.38631">
        <ele>1052</ele>
        <time>2022-09-22T12:30:03.158Z</time>
      </trkpt>
      <trkpt lat="44.90369" lon="5.38634">
        <ele>1051</ele>
        <time>2022-09-22T12:30:04.158Z</time>
      </trkpt>
      <trkpt lat="44.90372" lon="5.38638">
        <ele>1051</ele>
        <time>2022-09-22T12:30:05.158Z</time>
      </trkpt>
      <trkpt lat="44.90375" lon="5.38641">
        <ele>1050</ele>
        <time>2022-09-22T12:30:06.158Z</time>
      </trkpt>
      <trkpt lat="44.90377" lon="5.38645">
        <ele>1050</ele>
        <time>2022-09-22T12:30:07.158Z</time>
      </trkpt>
      <trkpt lat="44.9038" lon="5.38648">
        <ele>1050</ele>
        <time>2022-09-22T12:30:08.157Z</time>
      </trkpt>
      <trkpt lat="44.90382" lon="5.38651">
        <ele>1050</ele>
        <time>2022-09-22T12:30:09.158Z</time>
      </trkpt>
      <trkpt lat="44.90384" lon="5.38654">
        <ele>1050</ele>
        <time>2022-09-22T12:30:10.158Z</time>
      </trkpt>
      <trkpt lat="44.90387" lon="5.38657">
        <ele>1051</ele>
        <time>2022-09-22T12:30:11.158Z</time>
      </trkpt>
      <trkpt lat="44.9039" lon="5.3866">
        <ele>1050</ele>
        <time>2022-09-22T12:30:12.158Z</time>
      </trkpt>
      <trkpt lat="44.90392" lon="5.38663">
        <ele>1050</ele>
        <time>2022-09-22T12:30:13.158Z</time>
      </trkpt>
      <trkpt lat="44.90394" lon="5.38666">
        <ele>1050</ele>
        <time>2022-09-22T12:30:14.157Z</time>
      </trkpt>
      <trkpt lat="44.90396" lon="5.38668">
        <ele>1050</ele>
        <time>2022-09-22T12:30:15.157Z</time>
      </trkpt>
      <trkpt lat="44.90398" lon="5.38671">
        <ele>1050</ele>
        <time>2022-09-22T12:30:16.158Z</time>
      </trkpt>
      <trkpt lat="44.904" lon="5.38674">
        <ele>1050</ele>
        <time>2022-09-22T12:30:17.158Z</time>
      </trkpt>
      <trkpt lat="44.90401" lon="5.38676">
        <ele>1050</ele>
        <time>2022-09-22T12:30:18.158Z</time>
      </trkpt>
      <trkpt lat="44.90402" lon="5.38679">
        <ele>1050</ele>
        <time>2022-09-22T12:30:19.157Z</time>
      </trkpt>
      <trkpt lat="44.90404" lon="5.38682">
        <ele>1050</ele>
        <time>2022-09-22T12:30:20.158Z</time>
      </trkpt>
      <trkpt lat="44.90405" lon="5.38685">
        <ele>1050</ele>
        <time>2022-09-22T12:30:21.158Z</time>
      </trkpt>
      <trkpt lat="44.90407" lon="5.38687">
        <ele>1049</ele>
        <time>2022-09-22T12:30:22.158Z</time>
      </trkpt>
      <trkpt lat="44.90408" lon="5.38689">
        <ele>1049</ele>
        <time>2022-09-22T12:30:23.157Z</time>
      </trkpt>
      <trkpt lat="44.9041" lon="5.38693">
        <ele>1049</ele>
        <time>2022-09-22T12:30:24.158Z</time>
      </trkpt>
      <trkpt lat="44.90411" lon="5.38695">
        <ele>1050</ele>
        <time>2022-09-22T12:30:25.158Z</time>
      </trkpt>
      <trkpt lat="44.90413" lon="5.38697">
        <ele>1050</ele>
        <time>2022-09-22T12:30:26.158Z</time>
      </trkpt>
      <trkpt lat="44.90414" lon="5.38698">
        <ele>1050</ele>
        <time>2022-09-22T12:30:27.158Z</time>
      </trkpt>
      <trkpt lat="44.90416" lon="5.387">
        <ele>1051</ele>
        <time>2022-09-22T12:30:28.158Z</time>
      </trkpt>
      <trkpt lat="44.90419" lon="5.38702">
        <ele>1051</ele>
        <time>2022-09-22T12:30:29.158Z</time>
      </trkpt>
      <trkpt lat="44.90421" lon="5.38704">
        <ele>1051</ele>
        <time>2022-09-22T12:30:30.157Z</time>
      </trkpt>
      <trkpt lat="44.90423" lon="5.38705">
        <ele>1051</ele>
        <time>2022-09-22T12:30:31.157Z</time>
      </trkpt>
      <trkpt lat="44.90424" lon="5.38706">
        <ele>1052</ele>
        <time>2022-09-22T12:30:32.157Z</time>
      </trkpt>
      <trkpt lat="44.90426" lon="5.38708">
        <ele>1052</ele>
        <time>2022-09-22T12:30:33.158Z</time>
      </trkpt>
      <trkpt lat="44.90428" lon="5.38709">
        <ele>1053</ele>
        <time>2022-09-22T12:30:34.158Z</time>
      </trkpt>
      <trkpt lat="44.9043" lon="5.3871">
        <ele>1053</ele>
        <time>2022-09-22T12:30:35.158Z</time>
      </trkpt>
      <trkpt lat="44.90432" lon="5.38711">
        <ele>1053</ele>
        <time>2022-09-22T12:30:36.158Z</time>
      </trkpt>
      <trkpt lat="44.90435" lon="5.38713">
        <ele>1054</ele>
        <time>2022-09-22T12:30:37.157Z</time>
      </trkpt>
      <trkpt lat="44.90437" lon="5.38714">
        <ele>1054</ele>
        <time>2022-09-22T12:30:38.158Z</time>
      </trkpt>
      <trkpt lat="44.90439" lon="5.38715">
        <ele>1054</ele>
        <time>2022-09-22T12:30:39.158Z</time>
      </trkpt>
      <trkpt lat="44.90441" lon="5.38716">
        <ele>1055</ele>
        <time>2022-09-22T12:30:40.158Z</time>
      </trkpt>
      <trkpt lat="44.90443" lon="5.38718">
        <ele>1055</ele>
        <time>2022-09-22T12:30:41.158Z</time>
      </trkpt>
      <trkpt lat="44.90445" lon="5.38719">
        <ele>1055</ele>
        <time>2022-09-22T12:30:42.158Z</time>
      </trkpt>
      <trkpt lat="44.90447" lon="5.3872">
        <ele>1055</ele>
        <time>2022-09-22T12:30:43.158Z</time>
      </trkpt>
      <trkpt lat="44.90449" lon="5.38721">
        <ele>1055</ele>
        <time>2022-09-22T12:30:44.158Z</time>
      </trkpt>
      <trkpt lat="44.9045" lon="5.38723">
        <ele>1054</ele>
        <time>2022-09-22T12:30:45.158Z</time>
      </trkpt>
      <trkpt lat="44.90452" lon="5.38724">
        <ele>1054</ele>
        <time>2022-09-22T12:30:46.157Z</time>
      </trkpt>
      <trkpt lat="44.90455" lon="5.38726">
        <ele>1054</ele>
        <time>2022-09-22T12:30:47.158Z</time>
      </trkpt>
      <trkpt lat="44.90457" lon="5.38728">
        <ele>1054</ele>
        <time>2022-09-22T12:30:48.158Z</time>
      </trkpt>
      <trkpt lat="44.90459" lon="5.38729">
        <ele>1054</ele>
        <time>2022-09-22T12:30:49.157Z</time>
      </trkpt>
      <trkpt lat="44.90461" lon="5.3873">
        <ele>1054</ele>
        <time>2022-09-22T12:30:50.158Z</time>
      </trkpt>
      <trkpt lat="44.90463" lon="5.38732">
        <ele>1054</ele>
        <time>2022-09-22T12:30:51.158Z</time>
      </trkpt>
      <trkpt lat="44.90465" lon="5.38734">
        <ele>1055</ele>
        <time>2022-09-22T12:30:52.158Z</time>
      </trkpt>
      <trkpt lat="44.90468" lon="5.38736">
        <ele>1055</ele>
        <time>2022-09-22T12:30:53.158Z</time>
      </trkpt>
      <trkpt lat="44.90469" lon="5.38738">
        <ele>1055</ele>
        <time>2022-09-22T12:30:54.158Z</time>
      </trkpt>
      <trkpt lat="44.90471" lon="5.3874">
        <ele>1055</ele>
        <time>2022-09-22T12:30:55.158Z</time>
      </trkpt>
      <trkpt lat="44.90472" lon="5.38742">
        <ele>1055</ele>
        <time>2022-09-22T12:30:56.158Z</time>
      </trkpt>
      <trkpt lat="44.90473" lon="5.38743">
        <ele>1055</ele>
        <time>2022-09-22T12:30:57.158Z</time>
      </trkpt>
      <trkpt lat="44.90474" lon="5.38745">
        <ele>1055</ele>
        <time>2022-09-22T12:30:58.158Z</time>
      </trkpt>
      <trkpt lat="44.90475" lon="5.38747">
        <ele>1055</ele>
        <time>2022-09-22T12:30:59.158Z</time>
      </trkpt>
      <trkpt lat="44.90476" lon="5.38749">
        <ele>1056</ele>
        <time>2022-09-22T12:31:00.158Z</time>
      </trkpt>
      <trkpt lat="44.90476" lon="5.38751">
        <ele>1056</ele>
        <time>2022-09-22T12:31:01.158Z</time>
      </trkpt>
      <trkpt lat="44.90476" lon="5.38753">
        <ele>1056</ele>
        <time>2022-09-22T12:31:02.158Z</time>
      </trkpt>
      <trkpt lat="44.90476" lon="5.38754">
        <ele>1056</ele>
        <time>2022-09-22T12:31:03.158Z</time>
      </trkpt>
      <trkpt lat="44.90475" lon="5.38756">
        <ele>1057</ele>
        <time>2022-09-22T12:31:04.158Z</time>
      </trkpt>
      <trkpt lat="44.90474" lon="5.38757">
        <ele>1057</ele>
        <time>2022-09-22T12:31:05.158Z</time>
      </trkpt>
      <trkpt lat="44.90473" lon="5.38758">
        <ele>1057</ele>
        <time>2022-09-22T12:31:06.158Z</time>
      </trkpt>
      <trkpt lat="44.90471" lon="5.38759">
        <ele>1057</ele>
        <time>2022-09-22T12:31:07.158Z</time>
      </trkpt>
      <trkpt lat="44.90469" lon="5.3876">
        <ele>1057</ele>
        <time>2022-09-22T12:31:08.158Z</time>
      </trkpt>
      <trkpt lat="44.90467" lon="5.38762">
        <ele>1057</ele>
        <time>2022-09-22T12:31:09.158Z</time>
      </trkpt>
      <trkpt lat="44.90465" lon="5.38763">
        <ele>1057</ele>
        <time>2022-09-22T12:31:10.158Z</time>
      </trkpt>
      <trkpt lat="44.90463" lon="5.38765">
        <ele>1057</ele>
        <time>2022-09-22T12:31:11.158Z</time>
      </trkpt>
      <trkpt lat="44.90461" lon="5.38766">
        <ele>1057</ele>
        <time>2022-09-22T12:31:12.158Z</time>
      </trkpt>
      <trkpt lat="44.90459" lon="5.38769">
        <ele>1057</ele>
        <time>2022-09-22T12:31:13.158Z</time>
      </trkpt>
      <trkpt lat="44.90457" lon="5.38771">
        <ele>1056</ele>
        <time>2022-09-22T12:31:14.158Z</time>
      </trkpt>
      <trkpt lat="44.90455" lon="5.38773">
        <ele>1056</ele>
        <time>2022-09-22T12:31:15.158Z</time>
      </trkpt>
      <trkpt lat="44.90453" lon="5.38775">
        <ele>1056</ele>
        <time>2022-09-22T12:31:16.158Z</time>
      </trkpt>
      <trkpt lat="44.90451" lon="5.38777">
        <ele>1057</ele>
        <time>2022-09-22T12:31:17.158Z</time>
      </trkpt>
      <trkpt lat="44.90449" lon="5.38779">
        <ele>1056</ele>
        <time>2022-09-22T12:31:18.158Z</time>
      </trkpt>
      <trkpt lat="44.90447" lon="5.38781">
        <ele>1057</ele>
        <time>2022-09-22T12:31:19.158Z</time>
      </trkpt>
      <trkpt lat="44.90445" lon="5.38782">
        <ele>1056</ele>
        <time>2022-09-22T12:31:20.158Z</time>
      </trkpt>
      <trkpt lat="44.90443" lon="5.38783">
        <ele>1056</ele>
        <time>2022-09-22T12:31:21.158Z</time>
      </trkpt>
      <trkpt lat="44.9044" lon="5.38784">
        <ele>1056</ele>
        <time>2022-09-22T12:31:22.158Z</time>
      </trkpt>
      <trkpt lat="44.90437" lon="5.38785">
        <ele>1057</ele>
        <time>2022-09-22T12:31:23.158Z</time>
      </trkpt>
      <trkpt lat="44.90435" lon="5.38785">
        <ele>1057</ele>
        <time>2022-09-22T12:31:24.157Z</time>
      </trkpt>
      <trkpt lat="44.90433" lon="5.38785">
        <ele>1057</ele>
        <time>2022-09-22T12:31:25.158Z</time>
      </trkpt>
      <trkpt lat="44.9043" lon="5.38784">
        <ele>1057</ele>
        <time>2022-09-22T12:31:26.158Z</time>
      </trkpt>
      <trkpt lat="44.90427" lon="5.38784">
        <ele>1057</ele>
        <time>2022-09-22T12:31:27.158Z</time>
      </trkpt>
      <trkpt lat="44.90425" lon="5.38784">
        <ele>1057</ele>
        <time>2022-09-22T12:31:28.158Z</time>
      </trkpt>
      <trkpt lat="44.90423" lon="5.38784">
        <ele>1057</ele>
        <time>2022-09-22T12:31:29.158Z</time>
      </trkpt>
      <trkpt lat="44.90421" lon="5.38785">
        <ele>1057</ele>
        <time>2022-09-22T12:31:30.158Z</time>
      </trkpt>
      <trkpt lat="44.90418" lon="5.38785">
        <ele>1057</ele>
        <time>2022-09-22T12:31:31.158Z</time>
      </trkpt>
      <trkpt lat="44.90415" lon="5.38786">
        <ele>1057</ele>
        <time>2022-09-22T12:31:32.158Z</time>
      </trkpt>
      <trkpt lat="44.90413" lon="5.38787">
        <ele>1057</ele>
        <time>2022-09-22T12:31:33.158Z</time>
      </trkpt>
      <trkpt lat="44.9041" lon="5.38788">
        <ele>1058</ele>
        <time>2022-09-22T12:31:34.158Z</time>
      </trkpt>
      <trkpt lat="44.90408" lon="5.38789">
        <ele>1058</ele>
        <time>2022-09-22T12:31:35.158Z</time>
      </trkpt>
      <trkpt lat="44.90405" lon="5.3879">
        <ele>1059</ele>
        <time>2022-09-22T12:31:36.157Z</time>
      </trkpt>
      <trkpt lat="44.90403" lon="5.38791">
        <ele>1059</ele>
        <time>2022-09-22T12:31:37.158Z</time>
      </trkpt>
      <trkpt lat="44.90401" lon="5.38792">
        <ele>1058</ele>
        <time>2022-09-22T12:31:38.158Z</time>
      </trkpt>
      <trkpt lat="44.90399" lon="5.38793">
        <ele>1058</ele>
        <time>2022-09-22T12:31:39.158Z</time>
      </trkpt>
      <trkpt lat="44.90396" lon="5.38793">
        <ele>1058</ele>
        <time>2022-09-22T12:31:40.158Z</time>
      </trkpt>
      <trkpt lat="44.90392" lon="5.38794">
        <ele>1058</ele>
        <time>2022-09-22T12:31:41.158Z</time>
      </trkpt>
      <trkpt lat="44.9039" lon="5.38794">
        <ele>1058</ele>
        <time>2022-09-22T12:31:42.158Z</time>
      </trkpt>
      <trkpt lat="44.90386" lon="5.38795">
        <ele>1058</ele>
        <time>2022-09-22T12:31:43.158Z</time>
      </trkpt>
      <trkpt lat="44.90384" lon="5.38795">
        <ele>1058</ele>
        <time>2022-09-22T12:31:44.158Z</time>
      </trkpt>
      <trkpt lat="44.9038" lon="5.38796">
        <ele>1058</ele>
        <time>2022-09-22T12:31:45.158Z</time>
      </trkpt>
      <trkpt lat="44.90376" lon="5.38797">
        <ele>1058</ele>
        <time>2022-09-22T12:31:46.158Z</time>
      </trkpt>
      <trkpt lat="44.90372" lon="5.38798">
        <ele>1058</ele>
        <time>2022-09-22T12:31:47.158Z</time>
      </trkpt>
      <trkpt lat="44.90369" lon="5.388">
        <ele>1058</ele>
        <time>2022-09-22T12:31:48.158Z</time>
      </trkpt>
      <trkpt lat="44.90365" lon="5.38802">
        <ele>1058</ele>
        <time>2022-09-22T12:31:49.157Z</time>
      </trkpt>
      <trkpt lat="44.90361" lon="5.38805">
        <ele>1058</ele>
        <time>2022-09-22T12:31:50.158Z</time>
      </trkpt>
      <trkpt lat="44.90358" lon="5.38809">
        <ele>1058</ele>
        <time>2022-09-22T12:31:51.158Z</time>
      </trkpt>
      <trkpt lat="44.90355" lon="5.38813">
        <ele>1058</ele>
        <time>2022-09-22T12:31:52.158Z</time>
      </trkpt>
      <trkpt lat="44.90353" lon="5.38818">
        <ele>1059</ele>
        <time>2022-09-22T12:31:53.158Z</time>
      </trkpt>
      <trkpt lat="44.90351" lon="5.38822">
        <ele>1059</ele>
        <time>2022-09-22T12:31:54.157Z</time>
      </trkpt>
      <trkpt lat="44.90349" lon="5.38827">
        <ele>1058</ele>
        <time>2022-09-22T12:31:55.157Z</time>
      </trkpt>
      <trkpt lat="44.90347" lon="5.38832">
        <ele>1058</ele>
        <time>2022-09-22T12:31:56.158Z</time>
      </trkpt>
      <trkpt lat="44.90346" lon="5.38836">
        <ele>1058</ele>
        <time>2022-09-22T12:31:57.158Z</time>
      </trkpt>
      <trkpt lat="44.90345" lon="5.38842">
        <ele>1058</ele>
        <time>2022-09-22T12:31:58.158Z</time>
      </trkpt>
      <trkpt lat="44.90344" lon="5.38846">
        <ele>1057</ele>
        <time>2022-09-22T12:31:59.158Z</time>
      </trkpt>
      <trkpt lat="44.90343" lon="5.38851">
        <ele>1057</ele>
        <time>2022-09-22T12:32:00.158Z</time>
      </trkpt>
      <trkpt lat="44.90342" lon="5.38854">
        <ele>1058</ele>
        <time>2022-09-22T12:32:01.158Z</time>
      </trkpt>
      <trkpt lat="44.90342" lon="5.38857">
        <ele>1058</ele>
        <time>2022-09-22T12:32:02.158Z</time>
      </trkpt>
      <trkpt lat="44.90341" lon="5.3886">
        <ele>1058</ele>
        <time>2022-09-22T12:32:03.158Z</time>
      </trkpt>
      <trkpt lat="44.90341" lon="5.38862">
        <ele>1058</ele>
        <time>2022-09-22T12:32:04.158Z</time>
      </trkpt>
      <trkpt lat="44.90341" lon="5.38864">
        <ele>1058</ele>
        <time>2022-09-22T12:32:05.158Z</time>
      </trkpt>
      <trkpt lat="44.90341" lon="5.38864">
        <ele>1058</ele>
        <time>2022-09-22T12:32:06.158Z</time>
      </trkpt>
      <trkpt lat="44.90341" lon="5.38864">
        <ele>1059</ele>
        <time>2022-09-22T12:32:07.158Z</time>
      </trkpt>
      <trkpt lat="44.9034" lon="5.38865">
        <ele>1059</ele>
        <time>2022-09-22T12:32:09.252Z</time>
      </trkpt>
      <trkpt lat="44.90339" lon="5.38865">
        <ele>1059</ele>
        <time>2022-09-22T12:32:10.251Z</time>
      </trkpt>
      <trkpt lat="44.90338" lon="5.38867">
        <ele>1059</ele>
        <time>2022-09-22T12:32:11.252Z</time>
      </trkpt>
      <trkpt lat="44.90338" lon="5.38868">
        <ele>1059</ele>
        <time>2022-09-22T12:32:12.252Z</time>
      </trkpt>
      <trkpt lat="44.90337" lon="5.38871">
        <ele>1059</ele>
        <time>2022-09-22T12:32:13.252Z</time>
      </trkpt>
      <trkpt lat="44.90336" lon="5.38873">
        <ele>1059</ele>
        <time>2022-09-22T12:32:14.252Z</time>
      </trkpt>
      <trkpt lat="44.90336" lon="5.38875">
        <ele>1059</ele>
        <time>2022-09-22T12:32:15.252Z</time>
      </trkpt>
      <trkpt lat="44.90335" lon="5.38877">
        <ele>1059</ele>
        <time>2022-09-22T12:32:16.252Z</time>
      </trkpt>
      <trkpt lat="44.90334" lon="5.38879">
        <ele>1059</ele>
        <time>2022-09-22T12:32:17.252Z</time>
      </trkpt>
      <trkpt lat="44.90334" lon="5.38881">
        <ele>1060</ele>
        <time>2022-09-22T12:32:18.252Z</time>
      </trkpt>
      <trkpt lat="44.90333" lon="5.38883">
        <ele>1059</ele>
        <time>2022-09-22T12:32:19.252Z</time>
      </trkpt>
      <trkpt lat="44.90333" lon="5.38886">
        <ele>1059</ele>
        <time>2022-09-22T12:32:20.252Z</time>
      </trkpt>
      <trkpt lat="44.90332" lon="5.38889">
        <ele>1059</ele>
        <time>2022-09-22T12:32:21.252Z</time>
      </trkpt>
      <trkpt lat="44.90331" lon="5.38893">
        <ele>1059</ele>
        <time>2022-09-22T12:32:22.252Z</time>
      </trkpt>
      <trkpt lat="44.9033" lon="5.38897">
        <ele>1059</ele>
        <time>2022-09-22T12:32:23.252Z</time>
      </trkpt>
      <trkpt lat="44.90329" lon="5.38901">
        <ele>1059</ele>
        <time>2022-09-22T12:32:24.251Z</time>
      </trkpt>
      <trkpt lat="44.90328" lon="5.38905">
        <ele>1058</ele>
        <time>2022-09-22T12:32:25.252Z</time>
      </trkpt>
      <trkpt lat="44.90326" lon="5.38909">
        <ele>1058</ele>
        <time>2022-09-22T12:32:26.251Z</time>
      </trkpt>
      <trkpt lat="44.90325" lon="5.38913">
        <ele>1057</ele>
        <time>2022-09-22T12:32:27.252Z</time>
      </trkpt>
      <trkpt lat="44.90324" lon="5.38917">
        <ele>1057</ele>
        <time>2022-09-22T12:32:28.252Z</time>
      </trkpt>
      <trkpt lat="44.90322" lon="5.38921">
        <ele>1057</ele>
        <time>2022-09-22T12:32:29.251Z</time>
      </trkpt>
      <trkpt lat="44.9032" lon="5.38925">
        <ele>1057</ele>
        <time>2022-09-22T12:32:30.252Z</time>
      </trkpt>
      <trkpt lat="44.90319" lon="5.3893">
        <ele>1056</ele>
        <time>2022-09-22T12:32:31.252Z</time>
      </trkpt>
      <trkpt lat="44.90317" lon="5.38934">
        <ele>1056</ele>
        <time>2022-09-22T12:32:32.251Z</time>
      </trkpt>
      <trkpt lat="44.90316" lon="5.38938">
        <ele>1056</ele>
        <time>2022-09-22T12:32:33.252Z</time>
      </trkpt>
      <trkpt lat="44.90314" lon="5.38942">
        <ele>1056</ele>
        <time>2022-09-22T12:32:34.251Z</time>
      </trkpt>
      <trkpt lat="44.90312" lon="5.38946">
        <ele>1056</ele>
        <time>2022-09-22T12:32:35.252Z</time>
      </trkpt>
      <trkpt lat="44.9031" lon="5.3895">
        <ele>1056</ele>
        <time>2022-09-22T12:32:36.252Z</time>
      </trkpt>
      <trkpt lat="44.90307" lon="5.38954">
        <ele>1056</ele>
        <time>2022-09-22T12:32:37.252Z</time>
      </trkpt>
      <trkpt lat="44.90305" lon="5.38957">
        <ele>1056</ele>
        <time>2022-09-22T12:32:38.251Z</time>
      </trkpt>
      <trkpt lat="44.90301" lon="5.3896">
        <ele>1057</ele>
        <time>2022-09-22T12:32:39.252Z</time>
      </trkpt>
      <trkpt lat="44.90298" lon="5.38963">
        <ele>1057</ele>
        <time>2022-09-22T12:32:40.251Z</time>
      </trkpt>
      <trkpt lat="44.90295" lon="5.38965">
        <ele>1057</ele>
        <time>2022-09-22T12:32:41.252Z</time>
      </trkpt>
      <trkpt lat="44.90291" lon="5.38966">
        <ele>1058</ele>
        <time>2022-09-22T12:32:42.252Z</time>
      </trkpt>
      <trkpt lat="44.90288" lon="5.38968">
        <ele>1058</ele>
        <time>2022-09-22T12:32:43.252Z</time>
      </trkpt>
      <trkpt lat="44.90285" lon="5.3897">
        <ele>1058</ele>
        <time>2022-09-22T12:32:44.252Z</time>
      </trkpt>
      <trkpt lat="44.90281" lon="5.38971">
        <ele>1058</ele>
        <time>2022-09-22T12:32:45.252Z</time>
      </trkpt>
      <trkpt lat="44.90278" lon="5.38972">
        <ele>1058</ele>
        <time>2022-09-22T12:32:46.252Z</time>
      </trkpt>
      <trkpt lat="44.90275" lon="5.38974">
        <ele>1058</ele>
        <time>2022-09-22T12:32:47.252Z</time>
      </trkpt>
      <trkpt lat="44.90272" lon="5.38975">
        <ele>1058</ele>
        <time>2022-09-22T12:32:48.251Z</time>
      </trkpt>
      <trkpt lat="44.90269" lon="5.38977">
        <ele>1058</ele>
        <time>2022-09-22T12:32:49.251Z</time>
      </trkpt>
      <trkpt lat="44.90266" lon="5.38978">
        <ele>1058</ele>
        <time>2022-09-22T12:32:50.252Z</time>
      </trkpt>
      <trkpt lat="44.90263" lon="5.3898">
        <ele>1058</ele>
        <time>2022-09-22T12:32:51.252Z</time>
      </trkpt>
      <trkpt lat="44.9026" lon="5.38981">
        <ele>1058</ele>
        <time>2022-09-22T12:32:52.252Z</time>
      </trkpt>
      <trkpt lat="44.90257" lon="5.38983">
        <ele>1058</ele>
        <time>2022-09-22T12:32:53.251Z</time>
      </trkpt>
      <trkpt lat="44.90254" lon="5.38984">
        <ele>1058</ele>
        <time>2022-09-22T12:32:54.252Z</time>
      </trkpt>
      <trkpt lat="44.90251" lon="5.38986">
        <ele>1058</ele>
        <time>2022-09-22T12:32:55.252Z</time>
      </trkpt>
      <trkpt lat="44.90248" lon="5.38987">
        <ele>1058</ele>
        <time>2022-09-22T12:32:56.252Z</time>
      </trkpt>
      <trkpt lat="44.90246" lon="5.38989">
        <ele>1058</ele>
        <time>2022-09-22T12:32:57.252Z</time>
      </trkpt>
      <trkpt lat="44.90243" lon="5.3899">
        <ele>1057</ele>
        <time>2022-09-22T12:32:58.252Z</time>
      </trkpt>
      <trkpt lat="44.9024" lon="5.38991">
        <ele>1057</ele>
        <time>2022-09-22T12:32:59.252Z</time>
      </trkpt>
      <trkpt lat="44.90237" lon="5.38992">
        <ele>1057</ele>
        <time>2022-09-22T12:33:00.252Z</time>
      </trkpt>
      <trkpt lat="44.90234" lon="5.38994">
        <ele>1057</ele>
        <time>2022-09-22T12:33:01.252Z</time>
      </trkpt>
      <trkpt lat="44.90231" lon="5.38995">
        <ele>1057</ele>
        <time>2022-09-22T12:33:02.252Z</time>
      </trkpt>
      <trkpt lat="44.90229" lon="5.38997">
        <ele>1056</ele>
        <time>2022-09-22T12:33:03.251Z</time>
      </trkpt>
      <trkpt lat="44.90226" lon="5.38998">
        <ele>1056</ele>
        <time>2022-09-22T12:33:04.252Z</time>
      </trkpt>
      <trkpt lat="44.90223" lon="5.39">
        <ele>1056</ele>
        <time>2022-09-22T12:33:05.252Z</time>
      </trkpt>
      <trkpt lat="44.90221" lon="5.39002">
        <ele>1057</ele>
        <time>2022-09-22T12:33:06.252Z</time>
      </trkpt>
      <trkpt lat="44.90218" lon="5.39004">
        <ele>1057</ele>
        <time>2022-09-22T12:33:07.252Z</time>
      </trkpt>
      <trkpt lat="44.90215" lon="5.39005">
        <ele>1056</ele>
        <time>2022-09-22T12:33:08.251Z</time>
      </trkpt>
      <trkpt lat="44.90213" lon="5.39007">
        <ele>1056</ele>
        <time>2022-09-22T12:33:09.251Z</time>
      </trkpt>
      <trkpt lat="44.9021" lon="5.39008">
        <ele>1056</ele>
        <time>2022-09-22T12:33:10.251Z</time>
      </trkpt>
      <trkpt lat="44.90207" lon="5.3901">
        <ele>1057</ele>
        <time>2022-09-22T12:33:11.252Z</time>
      </trkpt>
      <trkpt lat="44.90205" lon="5.39012">
        <ele>1057</ele>
        <time>2022-09-22T12:33:12.252Z</time>
      </trkpt>
      <trkpt lat="44.90202" lon="5.39014">
        <ele>1058</ele>
        <time>2022-09-22T12:33:13.251Z</time>
      </trkpt>
      <trkpt lat="44.902" lon="5.39015">
        <ele>1058</ele>
        <time>2022-09-22T12:33:14.252Z</time>
      </trkpt>
      <trkpt lat="44.90198" lon="5.39016">
        <ele>1058</ele>
        <time>2022-09-22T12:33:15.252Z</time>
      </trkpt>
      <trkpt lat="44.90196" lon="5.39018">
        <ele>1058</ele>
        <time>2022-09-22T12:33:16.252Z</time>
      </trkpt>
      <trkpt lat="44.90194" lon="5.39019">
        <ele>1058</ele>
        <time>2022-09-22T12:33:17.252Z</time>
      </trkpt>
      <trkpt lat="44.90191" lon="5.3902">
        <ele>1058</ele>
        <time>2022-09-22T12:33:18.252Z</time>
      </trkpt>
      <trkpt lat="44.90189" lon="5.39022">
        <ele>1058</ele>
        <time>2022-09-22T12:33:19.252Z</time>
      </trkpt>
      <trkpt lat="44.90187" lon="5.39023">
        <ele>1058</ele>
        <time>2022-09-22T12:33:20.252Z</time>
      </trkpt>
      <trkpt lat="44.90186" lon="5.39024">
        <ele>1059</ele>
        <time>2022-09-22T12:33:21.252Z</time>
      </trkpt>
      <trkpt lat="44.90184" lon="5.39025">
        <ele>1059</ele>
        <time>2022-09-22T12:33:22.252Z</time>
      </trkpt>
      <trkpt lat="44.90183" lon="5.39026">
        <ele>1059</ele>
        <time>2022-09-22T12:33:23.251Z</time>
      </trkpt>
      <trkpt lat="44.90182" lon="5.39027">
        <ele>1059</ele>
        <time>2022-09-22T12:33:24.252Z</time>
      </trkpt>
      <trkpt lat="44.90181" lon="5.39029">
        <ele>1059</ele>
        <time>2022-09-22T12:33:25.251Z</time>
      </trkpt>
      <trkpt lat="44.9018" lon="5.39032">
        <ele>1059</ele>
        <time>2022-09-22T12:33:26.252Z</time>
      </trkpt>
      <trkpt lat="44.9018" lon="5.39034">
        <ele>1059</ele>
        <time>2022-09-22T12:33:27.251Z</time>
      </trkpt>
      <trkpt lat="44.90179" lon="5.39037">
        <ele>1059</ele>
        <time>2022-09-22T12:33:28.252Z</time>
      </trkpt>
      <trkpt lat="44.90178" lon="5.39039">
        <ele>1059</ele>
        <time>2022-09-22T12:33:29.251Z</time>
      </trkpt>
      <trkpt lat="44.90177" lon="5.39041">
        <ele>1059</ele>
        <time>2022-09-22T12:33:30.252Z</time>
      </trkpt>
      <trkpt lat="44.90176" lon="5.39044">
        <ele>1059</ele>
        <time>2022-09-22T12:33:31.252Z</time>
      </trkpt>
      <trkpt lat="44.90175" lon="5.39046">
        <ele>1059</ele>
        <time>2022-09-22T12:33:32.252Z</time>
      </trkpt>
      <trkpt lat="44.90175" lon="5.39049">
        <ele>1059</ele>
        <time>2022-09-22T12:33:33.252Z</time>
      </trkpt>
      <trkpt lat="44.90174" lon="5.39052">
        <ele>1059</ele>
        <time>2022-09-22T12:33:34.251Z</time>
      </trkpt>
      <trkpt lat="44.90174" lon="5.39055">
        <ele>1059</ele>
        <time>2022-09-22T12:33:35.252Z</time>
      </trkpt>
      <trkpt lat="44.90173" lon="5.39058">
        <ele>1059</ele>
        <time>2022-09-22T12:33:36.252Z</time>
      </trkpt>
      <trkpt lat="44.90173" lon="5.3906">
        <ele>1059</ele>
        <time>2022-09-22T12:33:37.252Z</time>
      </trkpt>
      <trkpt lat="44.90172" lon="5.39063">
        <ele>1060</ele>
        <time>2022-09-22T12:33:38.252Z</time>
      </trkpt>
      <trkpt lat="44.90172" lon="5.39066">
        <ele>1060</ele>
        <time>2022-09-22T12:33:39.252Z</time>
      </trkpt>
      <trkpt lat="44.90172" lon="5.39068">
        <ele>1060</ele>
        <time>2022-09-22T12:33:40.251Z</time>
      </trkpt>
      <trkpt lat="44.90171" lon="5.39071">
        <ele>1060</ele>
        <time>2022-09-22T12:33:41.252Z</time>
      </trkpt>
      <trkpt lat="44.90171" lon="5.39074">
        <ele>1060</ele>
        <time>2022-09-22T12:33:42.252Z</time>
      </trkpt>
      <trkpt lat="44.90171" lon="5.39077">
        <ele>1060</ele>
        <time>2022-09-22T12:33:43.252Z</time>
      </trkpt>
      <trkpt lat="44.90171" lon="5.3908">
        <ele>1060</ele>
        <time>2022-09-22T12:33:44.251Z</time>
      </trkpt>
      <trkpt lat="44.90171" lon="5.39083">
        <ele>1060</ele>
        <time>2022-09-22T12:33:45.252Z</time>
      </trkpt>
      <trkpt lat="44.90171" lon="5.39086">
        <ele>1060</ele>
        <time>2022-09-22T12:33:46.252Z</time>
      </trkpt>
      <trkpt lat="44.90171" lon="5.39089">
        <ele>1060</ele>
        <time>2022-09-22T12:33:47.252Z</time>
      </trkpt>
      <trkpt lat="44.90172" lon="5.39092">
        <ele>1060</ele>
        <time>2022-09-22T12:33:48.252Z</time>
      </trkpt>
      <trkpt lat="44.90171" lon="5.39094">
        <ele>1060</ele>
        <time>2022-09-22T12:33:49.252Z</time>
      </trkpt>
      <trkpt lat="44.90171" lon="5.39097">
        <ele>1061</ele>
        <time>2022-09-22T12:33:50.251Z</time>
      </trkpt>
      <trkpt lat="44.90172" lon="5.391">
        <ele>1060</ele>
        <time>2022-09-22T12:33:51.252Z</time>
      </trkpt>
      <trkpt lat="44.90172" lon="5.39102">
        <ele>1060</ele>
        <time>2022-09-22T12:33:52.252Z</time>
      </trkpt>
      <trkpt lat="44.90172" lon="5.39105">
        <ele>1060</ele>
        <time>2022-09-22T12:33:53.251Z</time>
      </trkpt>
      <trkpt lat="44.90172" lon="5.39108">
        <ele>1060</ele>
        <time>2022-09-22T12:33:54.252Z</time>
      </trkpt>
      <trkpt lat="44.90172" lon="5.39111">
        <ele>1060</ele>
        <time>2022-09-22T12:33:55.252Z</time>
      </trkpt>
      <trkpt lat="44.90172" lon="5.39114">
        <ele>1060</ele>
        <time>2022-09-22T12:33:56.252Z</time>
      </trkpt>
      <trkpt lat="44.90173" lon="5.39116">
        <ele>1060</ele>
        <time>2022-09-22T12:33:57.252Z</time>
      </trkpt>
      <trkpt lat="44.90173" lon="5.39119">
        <ele>1060</ele>
        <time>2022-09-22T12:33:58.252Z</time>
      </trkpt>
      <trkpt lat="44.90173" lon="5.39122">
        <ele>1060</ele>
        <time>2022-09-22T12:33:59.252Z</time>
      </trkpt>
      <trkpt lat="44.90174" lon="5.39125">
        <ele>1060</ele>
        <time>2022-09-22T12:34:00.252Z</time>
      </trkpt>
      <trkpt lat="44.90174" lon="5.39128">
        <ele>1060</ele>
        <time>2022-09-22T12:34:01.252Z</time>
      </trkpt>
      <trkpt lat="44.90174" lon="5.3913">
        <ele>1060</ele>
        <time>2022-09-22T12:34:02.252Z</time>
      </trkpt>
      <trkpt lat="44.90174" lon="5.39133">
        <ele>1060</ele>
        <time>2022-09-22T12:34:03.252Z</time>
      </trkpt>
      <trkpt lat="44.90174" lon="5.39136">
        <ele>1059</ele>
        <time>2022-09-22T12:34:04.251Z</time>
      </trkpt>
      <trkpt lat="44.90174" lon="5.39139">
        <ele>1059</ele>
        <time>2022-09-22T12:34:05.252Z</time>
      </trkpt>
      <trkpt lat="44.90174" lon="5.39142">
        <ele>1060</ele>
        <time>2022-09-22T12:34:06.252Z</time>
      </trkpt>
      <trkpt lat="44.90174" lon="5.39145">
        <ele>1060</ele>
        <time>2022-09-22T12:34:07.252Z</time>
      </trkpt>
      <trkpt lat="44.90174" lon="5.39148">
        <ele>1060</ele>
        <time>2022-09-22T12:34:08.252Z</time>
      </trkpt>
      <trkpt lat="44.90173" lon="5.39151">
        <ele>1061</ele>
        <time>2022-09-22T12:34:09.252Z</time>
      </trkpt>
      <trkpt lat="44.90173" lon="5.39154">
        <ele>1061</ele>
        <time>2022-09-22T12:34:10.252Z</time>
      </trkpt>
      <trkpt lat="44.90172" lon="5.39157">
        <ele>1061</ele>
        <time>2022-09-22T12:34:11.252Z</time>
      </trkpt>
      <trkpt lat="44.90172" lon="5.3916">
        <ele>1061</ele>
        <time>2022-09-22T12:34:12.252Z</time>
      </trkpt>
      <trkpt lat="44.90171" lon="5.39163">
        <ele>1062</ele>
        <time>2022-09-22T12:34:13.251Z</time>
      </trkpt>
      <trkpt lat="44.9017" lon="5.39165">
        <ele>1062</ele>
        <time>2022-09-22T12:34:14.251Z</time>
      </trkpt>
      <trkpt lat="44.90169" lon="5.39168">
        <ele>1062</ele>
        <time>2022-09-22T12:34:15.251Z</time>
      </trkpt>
      <trkpt lat="44.90167" lon="5.39172">
        <ele>1062</ele>
        <time>2022-09-22T12:34:16.251Z</time>
      </trkpt>
      <trkpt lat="44.90166" lon="5.39176">
        <ele>1062</ele>
        <time>2022-09-22T12:34:17.251Z</time>
      </trkpt>
      <trkpt lat="44.90164" lon="5.3918">
        <ele>1063</ele>
        <time>2022-09-22T12:34:18.251Z</time>
      </trkpt>
      <trkpt lat="44.90162" lon="5.39185">
        <ele>1063</ele>
        <time>2022-09-22T12:34:19.251Z</time>
      </trkpt>
      <trkpt lat="44.9016" lon="5.3919">
        <ele>1063</ele>
        <time>2022-09-22T12:34:20.252Z</time>
      </trkpt>
      <trkpt lat="44.90157" lon="5.39195">
        <ele>1063</ele>
        <time>2022-09-22T12:34:21.251Z</time>
      </trkpt>
      <trkpt lat="44.90155" lon="5.39201">
        <ele>1063</ele>
        <time>2022-09-22T12:34:22.251Z</time>
      </trkpt>
      <trkpt lat="44.90153" lon="5.39207">
        <ele>1062</ele>
        <time>2022-09-22T12:34:23.252Z</time>
      </trkpt>
      <trkpt lat="44.9015" lon="5.39214">
        <ele>1062</ele>
        <time>2022-09-22T12:34:24.252Z</time>
      </trkpt>
      <trkpt lat="44.90148" lon="5.39221">
        <ele>1063</ele>
        <time>2022-09-22T12:34:25.251Z</time>
      </trkpt>
      <trkpt lat="44.90146" lon="5.39227">
        <ele>1063</ele>
        <time>2022-09-22T12:34:26.252Z</time>
      </trkpt>
      <trkpt lat="44.90144" lon="5.39234">
        <ele>1062</ele>
        <time>2022-09-22T12:34:27.251Z</time>
      </trkpt>
      <trkpt lat="44.90142" lon="5.39241">
        <ele>1062</ele>
        <time>2022-09-22T12:34:28.252Z</time>
      </trkpt>
      <trkpt lat="44.90141" lon="5.39248">
        <ele>1062</ele>
        <time>2022-09-22T12:34:29.252Z</time>
      </trkpt>
      <trkpt lat="44.90139" lon="5.39255">
        <ele>1061</ele>
        <time>2022-09-22T12:34:30.252Z</time>
      </trkpt>
      <trkpt lat="44.90138" lon="5.39262">
        <ele>1061</ele>
        <time>2022-09-22T12:34:31.252Z</time>
      </trkpt>
      <trkpt lat="44.90137" lon="5.39268">
        <ele>1061</ele>
        <time>2022-09-22T12:34:32.251Z</time>
      </trkpt>
      <trkpt lat="44.90136" lon="5.39274">
        <ele>1062</ele>
        <time>2022-09-22T12:34:33.252Z</time>
      </trkpt>
      <trkpt lat="44.90135" lon="5.39279">
        <ele>1063</ele>
        <time>2022-09-22T12:34:34.251Z</time>
      </trkpt>
      <trkpt lat="44.90134" lon="5.39284">
        <ele>1063</ele>
        <time>2022-09-22T12:34:35.252Z</time>
      </trkpt>
      <trkpt lat="44.90133" lon="5.39288">
        <ele>1063</ele>
        <time>2022-09-22T12:34:36.251Z</time>
      </trkpt>
      <trkpt lat="44.90132" lon="5.39293">
        <ele>1063</ele>
        <time>2022-09-22T12:34:37.252Z</time>
      </trkpt>
      <trkpt lat="44.90131" lon="5.39297">
        <ele>1063</ele>
        <time>2022-09-22T12:34:38.252Z</time>
      </trkpt>
      <trkpt lat="44.90131" lon="5.393">
        <ele>1063</ele>
        <time>2022-09-22T12:34:39.252Z</time>
      </trkpt>
      <trkpt lat="44.9013" lon="5.39304">
        <ele>1063</ele>
        <time>2022-09-22T12:34:40.252Z</time>
      </trkpt>
      <trkpt lat="44.9013" lon="5.39308">
        <ele>1063</ele>
        <time>2022-09-22T12:34:41.252Z</time>
      </trkpt>
      <trkpt lat="44.90129" lon="5.39311">
        <ele>1063</ele>
        <time>2022-09-22T12:34:42.252Z</time>
      </trkpt>
      <trkpt lat="44.90128" lon="5.39315">
        <ele>1064</ele>
        <time>2022-09-22T12:34:43.252Z</time>
      </trkpt>
      <trkpt lat="44.90128" lon="5.39318">
        <ele>1064</ele>
        <time>2022-09-22T12:34:44.252Z</time>
      </trkpt>
      <trkpt lat="44.90127" lon="5.39322">
        <ele>1064</ele>
        <time>2022-09-22T12:34:45.252Z</time>
      </trkpt>
      <trkpt lat="44.90127" lon="5.39326">
        <ele>1064</ele>
        <time>2022-09-22T12:34:46.252Z</time>
      </trkpt>
      <trkpt lat="44.90126" lon="5.39329">
        <ele>1064</ele>
        <time>2022-09-22T12:34:47.252Z</time>
      </trkpt>
      <trkpt lat="44.90126" lon="5.39332">
        <ele>1064</ele>
        <time>2022-09-22T12:34:48.251Z</time>
      </trkpt>
      <trkpt lat="44.90125" lon="5.39335">
        <ele>1064</ele>
        <time>2022-09-22T12:34:49.251Z</time>
      </trkpt>
      <trkpt lat="44.90125" lon="5.39338">
        <ele>1064</ele>
        <time>2022-09-22T12:34:50.252Z</time>
      </trkpt>
      <trkpt lat="44.90124" lon="5.39341">
        <ele>1064</ele>
        <time>2022-09-22T12:34:51.252Z</time>
      </trkpt>
      <trkpt lat="44.90124" lon="5.39344">
        <ele>1064</ele>
        <time>2022-09-22T12:34:52.252Z</time>
      </trkpt>
      <trkpt lat="44.90123" lon="5.39346">
        <ele>1064</ele>
        <time>2022-09-22T12:34:53.252Z</time>
      </trkpt>
      <trkpt lat="44.90122" lon="5.3935">
        <ele>1064</ele>
        <time>2022-09-22T12:34:54.251Z</time>
      </trkpt>
      <trkpt lat="44.90122" lon="5.39353">
        <ele>1064</ele>
        <time>2022-09-22T12:34:55.252Z</time>
      </trkpt>
      <trkpt lat="44.90121" lon="5.39357">
        <ele>1064</ele>
        <time>2022-09-22T12:34:56.252Z</time>
      </trkpt>
      <trkpt lat="44.9012" lon="5.3936">
        <ele>1064</ele>
        <time>2022-09-22T12:34:57.252Z</time>
      </trkpt>
      <trkpt lat="44.90119" lon="5.39363">
        <ele>1064</ele>
        <time>2022-09-22T12:34:58.252Z</time>
      </trkpt>
      <trkpt lat="44.90118" lon="5.39367">
        <ele>1063</ele>
        <time>2022-09-22T12:34:59.252Z</time>
      </trkpt>
      <trkpt lat="44.90118" lon="5.3937">
        <ele>1063</ele>
        <time>2022-09-22T12:35:00.251Z</time>
      </trkpt>
      <trkpt lat="44.90117" lon="5.39373">
        <ele>1063</ele>
        <time>2022-09-22T12:35:01.252Z</time>
      </trkpt>
      <trkpt lat="44.90116" lon="5.39377">
        <ele>1064</ele>
        <time>2022-09-22T12:35:02.251Z</time>
      </trkpt>
      <trkpt lat="44.90115" lon="5.3938">
        <ele>1064</ele>
        <time>2022-09-22T12:35:03.252Z</time>
      </trkpt>
      <trkpt lat="44.90114" lon="5.39384">
        <ele>1064</ele>
        <time>2022-09-22T12:35:04.252Z</time>
      </trkpt>
      <trkpt lat="44.90113" lon="5.39387">
        <ele>1064</ele>
        <time>2022-09-22T12:35:05.251Z</time>
      </trkpt>
      <trkpt lat="44.90113" lon="5.3939">
        <ele>1063</ele>
        <time>2022-09-22T12:35:06.251Z</time>
      </trkpt>
      <trkpt lat="44.90112" lon="5.39394">
        <ele>1063</ele>
        <time>2022-09-22T12:35:07.252Z</time>
      </trkpt>
      <trkpt lat="44.90111" lon="5.39398">
        <ele>1063</ele>
        <time>2022-09-22T12:35:08.252Z</time>
      </trkpt>
      <trkpt lat="44.9011" lon="5.39401">
        <ele>1063</ele>
        <time>2022-09-22T12:35:09.252Z</time>
      </trkpt>
      <trkpt lat="44.90109" lon="5.39405">
        <ele>1063</ele>
        <time>2022-09-22T12:35:10.252Z</time>
      </trkpt>
      <trkpt lat="44.90109" lon="5.39409">
        <ele>1064</ele>
        <time>2022-09-22T12:35:11.251Z</time>
      </trkpt>
      <trkpt lat="44.90109" lon="5.39413">
        <ele>1064</ele>
        <time>2022-09-22T12:35:12.252Z</time>
      </trkpt>
      <trkpt lat="44.90109" lon="5.39417">
        <ele>1064</ele>
        <time>2022-09-22T12:35:13.252Z</time>
      </trkpt>
      <trkpt lat="44.90109" lon="5.39421">
        <ele>1064</ele>
        <time>2022-09-22T12:35:14.251Z</time>
      </trkpt>
      <trkpt lat="44.9011" lon="5.39425">
        <ele>1064</ele>
        <time>2022-09-22T12:35:15.252Z</time>
      </trkpt>
      <trkpt lat="44.90111" lon="5.39428">
        <ele>1063</ele>
        <time>2022-09-22T12:35:16.252Z</time>
      </trkpt>
      <trkpt lat="44.90112" lon="5.39432">
        <ele>1063</ele>
        <time>2022-09-22T12:35:17.251Z</time>
      </trkpt>
      <trkpt lat="44.90113" lon="5.39435">
        <ele>1063</ele>
        <time>2022-09-22T12:35:18.251Z</time>
      </trkpt>
      <trkpt lat="44.90115" lon="5.39438">
        <ele>1062</ele>
        <time>2022-09-22T12:35:19.251Z</time>
      </trkpt>
      <trkpt lat="44.90116" lon="5.39441">
        <ele>1062</ele>
        <time>2022-09-22T12:35:20.252Z</time>
      </trkpt>
      <trkpt lat="44.90118" lon="5.39444">
        <ele>1061</ele>
        <time>2022-09-22T12:35:21.252Z</time>
      </trkpt>
      <trkpt lat="44.9012" lon="5.39447">
        <ele>1061</ele>
        <time>2022-09-22T12:35:22.251Z</time>
      </trkpt>
      <trkpt lat="44.90122" lon="5.3945">
        <ele>1061</ele>
        <time>2022-09-22T12:35:23.251Z</time>
      </trkpt>
      <trkpt lat="44.90125" lon="5.39453">
        <ele>1061</ele>
        <time>2022-09-22T12:35:24.251Z</time>
      </trkpt>
      <trkpt lat="44.90127" lon="5.39456">
        <ele>1062</ele>
        <time>2022-09-22T12:35:25.252Z</time>
      </trkpt>
      <trkpt lat="44.9013" lon="5.39458">
        <ele>1062</ele>
        <time>2022-09-22T12:35:26.252Z</time>
      </trkpt>
      <trkpt lat="44.90132" lon="5.3946">
        <ele>1062</ele>
        <time>2022-09-22T12:35:27.252Z</time>
      </trkpt>
      <trkpt lat="44.90133" lon="5.39461">
        <ele>1062</ele>
        <time>2022-09-22T12:35:28.252Z</time>
      </trkpt>
      <trkpt lat="44.90134" lon="5.39461">
        <ele>1062</ele>
        <time>2022-09-22T12:35:29.252Z</time>
      </trkpt>
      <trkpt lat="44.90134" lon="5.39461">
        <ele>1062</ele>
        <time>2022-09-22T12:35:30.251Z</time>
      </trkpt>
      <trkpt lat="44.90134" lon="5.39461">
        <ele>1062</ele>
        <time>2022-09-22T12:35:31.252Z</time>
      </trkpt>
      <trkpt lat="44.90133" lon="5.3946">
        <ele>1064</ele>
        <time>2022-09-22T12:35:38.299Z</time>
      </trkpt>
      <trkpt lat="44.90133" lon="5.3946">
        <ele>1064</ele>
        <time>2022-09-22T12:35:39.299Z</time>
      </trkpt>
      <trkpt lat="44.90132" lon="5.39459">
        <ele>1064</ele>
        <time>2022-09-22T12:35:40.300Z</time>
      </trkpt>
      <trkpt lat="44.90132" lon="5.39459">
        <ele>1063</ele>
        <time>2022-09-22T12:35:41.300Z</time>
      </trkpt>
      <trkpt lat="44.9013" lon="5.39458">
        <ele>1064</ele>
        <time>2022-09-22T12:35:43.411Z</time>
      </trkpt>
      <trkpt lat="44.90129" lon="5.39457">
        <ele>1064</ele>
        <time>2022-09-22T12:35:44.410Z</time>
      </trkpt>
      <trkpt lat="44.90127" lon="5.39455">
        <ele>1065</ele>
        <time>2022-09-22T12:35:45.411Z</time>
      </trkpt>
      <trkpt lat="44.90125" lon="5.39453">
        <ele>1065</ele>
        <time>2022-09-22T12:35:46.411Z</time>
      </trkpt>
      <trkpt lat="44.90123" lon="5.3945">
        <ele>1066</ele>
        <time>2022-09-22T12:35:47.411Z</time>
      </trkpt>
      <trkpt lat="44.90121" lon="5.39448">
        <ele>1066</ele>
        <time>2022-09-22T12:35:48.410Z</time>
      </trkpt>
      <trkpt lat="44.9012" lon="5.39446">
        <ele>1066</ele>
        <time>2022-09-22T12:35:49.410Z</time>
      </trkpt>
      <trkpt lat="44.90118" lon="5.39443">
        <ele>1065</ele>
        <time>2022-09-22T12:35:50.411Z</time>
      </trkpt>
      <trkpt lat="44.90117" lon="5.39441">
        <ele>1065</ele>
        <time>2022-09-22T12:35:51.411Z</time>
      </trkpt>
      <trkpt lat="44.90116" lon="5.39439">
        <ele>1065</ele>
        <time>2022-09-22T12:35:52.411Z</time>
      </trkpt>
      <trkpt lat="44.90114" lon="5.39436">
        <ele>1065</ele>
        <time>2022-09-22T12:35:53.410Z</time>
      </trkpt>
      <trkpt lat="44.90113" lon="5.39433">
        <ele>1065</ele>
        <time>2022-09-22T12:35:54.411Z</time>
      </trkpt>
      <trkpt lat="44.90112" lon="5.3943">
        <ele>1065</ele>
        <time>2022-09-22T12:35:55.411Z</time>
      </trkpt>
      <trkpt lat="44.90111" lon="5.39427">
        <ele>1065</ele>
        <time>2022-09-22T12:35:56.411Z</time>
      </trkpt>
      <trkpt lat="44.9011" lon="5.39424">
        <ele>1064</ele>
        <time>2022-09-22T12:35:57.410Z</time>
      </trkpt>
      <trkpt lat="44.9011" lon="5.39422">
        <ele>1064</ele>
        <time>2022-09-22T12:35:58.411Z</time>
      </trkpt>
      <trkpt lat="44.90109" lon="5.39421">
        <ele>1064</ele>
        <time>2022-09-22T12:35:59.411Z</time>
      </trkpt>
      <trkpt lat="44.90109" lon="5.39421">
        <ele>1064</ele>
        <time>2022-09-22T12:36:00.410Z</time>
      </trkpt>
      <trkpt lat="44.90109" lon="5.39421">
        <ele>1064</ele>
        <time>2022-09-22T12:36:01.411Z</time>
      </trkpt>
      <trkpt lat="44.90109" lon="5.39421">
        <ele>1065</ele>
        <time>2022-09-22T12:36:02.410Z</time>
      </trkpt>
      <trkpt lat="44.90109" lon="5.39421">
        <ele>1065</ele>
        <time>2022-09-22T12:36:03.411Z</time>
      </trkpt>
      <trkpt lat="44.90108" lon="5.39421">
        <ele>1065</ele>
        <time>2022-09-22T12:36:04.411Z</time>
      </trkpt>
      <trkpt lat="44.90109" lon="5.39421">
        <ele>1065</ele>
        <time>2022-09-22T12:36:05.411Z</time>
      </trkpt>
      <trkpt lat="44.90108" lon="5.39424">
        <ele>1065</ele>
        <time>2022-09-22T12:36:10.533Z</time>
      </trkpt>
      <trkpt lat="44.90108" lon="5.39424">
        <ele>1064</ele>
        <time>2022-09-22T12:36:11.533Z</time>
      </trkpt>
      <trkpt lat="44.90108" lon="5.39425">
        <ele>1064</ele>
        <time>2022-09-22T12:36:12.533Z</time>
      </trkpt>
      <trkpt lat="44.90107" lon="5.39425">
        <ele>1064</ele>
        <time>2022-09-22T12:36:13.534Z</time>
      </trkpt>
      <trkpt lat="44.90107" lon="5.39426">
        <ele>1063</ele>
        <time>2022-09-22T12:36:14.534Z</time>
      </trkpt>
      <trkpt lat="44.90107" lon="5.39426">
        <ele>1064</ele>
        <time>2022-09-22T12:36:15.534Z</time>
      </trkpt>
      <trkpt lat="44.90107" lon="5.39433">
        <ele>1064</ele>
        <time>2022-09-22T12:36:51.678Z</time>
      </trkpt>
      <trkpt lat="44.90108" lon="5.39435">
        <ele>1064</ele>
        <time>2022-09-22T12:36:52.679Z</time>
      </trkpt>
      <trkpt lat="44.90108" lon="5.39437">
        <ele>1063</ele>
        <time>2022-09-22T12:36:53.678Z</time>
      </trkpt>
      <trkpt lat="44.90109" lon="5.39439">
        <ele>1063</ele>
        <time>2022-09-22T12:36:54.679Z</time>
      </trkpt>
      <trkpt lat="44.9011" lon="5.39441">
        <ele>1062</ele>
        <time>2022-09-22T12:36:55.679Z</time>
      </trkpt>
      <trkpt lat="44.9011" lon="5.39442">
        <ele>1062</ele>
        <time>2022-09-22T12:36:56.679Z</time>
      </trkpt>
      <trkpt lat="44.90109" lon="5.39443">
        <ele>1062</ele>
        <time>2022-09-22T12:36:57.679Z</time>
      </trkpt>
      <trkpt lat="44.9011" lon="5.39447">
        <ele>1063</ele>
        <time>2022-09-22T12:37:47.834Z</time>
      </trkpt>
      <trkpt lat="44.90111" lon="5.39449">
        <ele>1062</ele>
        <time>2022-09-22T12:37:48.833Z</time>
      </trkpt>
      <trkpt lat="44.90113" lon="5.39452">
        <ele>1062</ele>
        <time>2022-09-22T12:37:49.833Z</time>
      </trkpt>
      <trkpt lat="44.90114" lon="5.39455">
        <ele>1062</ele>
        <time>2022-09-22T12:37:50.833Z</time>
      </trkpt>
      <trkpt lat="44.90115" lon="5.39459">
        <ele>1062</ele>
        <time>2022-09-22T12:37:51.834Z</time>
      </trkpt>
      <trkpt lat="44.90117" lon="5.39463">
        <ele>1062</ele>
        <time>2022-09-22T12:37:52.834Z</time>
      </trkpt>
      <trkpt lat="44.90118" lon="5.39468">
        <ele>1061</ele>
        <time>2022-09-22T12:37:53.834Z</time>
      </trkpt>
      <trkpt lat="44.90119" lon="5.39473">
        <ele>1061</ele>
        <time>2022-09-22T12:37:54.833Z</time>
      </trkpt>
      <trkpt lat="44.90119" lon="5.39479">
        <ele>1061</ele>
        <time>2022-09-22T12:37:55.834Z</time>
      </trkpt>
      <trkpt lat="44.90119" lon="5.39485">
        <ele>1061</ele>
        <time>2022-09-22T12:37:56.834Z</time>
      </trkpt>
      <trkpt lat="44.90119" lon="5.39491">
        <ele>1061</ele>
        <time>2022-09-22T12:37:57.833Z</time>
      </trkpt>
      <trkpt lat="44.90119" lon="5.39496">
        <ele>1061</ele>
        <time>2022-09-22T12:37:58.833Z</time>
      </trkpt>
      <trkpt lat="44.90118" lon="5.39501">
        <ele>1061</ele>
        <time>2022-09-22T12:37:59.833Z</time>
      </trkpt>
      <trkpt lat="44.90118" lon="5.39506">
        <ele>1061</ele>
        <time>2022-09-22T12:38:00.834Z</time>
      </trkpt>
      <trkpt lat="44.90118" lon="5.3951">
        <ele>1062</ele>
        <time>2022-09-22T12:38:01.834Z</time>
      </trkpt>
      <trkpt lat="44.90117" lon="5.39514">
        <ele>1062</ele>
        <time>2022-09-22T12:38:02.834Z</time>
      </trkpt>
      <trkpt lat="44.90116" lon="5.39517">
        <ele>1062</ele>
        <time>2022-09-22T12:38:03.833Z</time>
      </trkpt>
      <trkpt lat="44.90115" lon="5.3952">
        <ele>1062</ele>
        <time>2022-09-22T12:38:04.834Z</time>
      </trkpt>
      <trkpt lat="44.90114" lon="5.39523">
        <ele>1062</ele>
        <time>2022-09-22T12:38:05.834Z</time>
      </trkpt>
      <trkpt lat="44.90114" lon="5.39525">
        <ele>1061</ele>
        <time>2022-09-22T12:38:06.833Z</time>
      </trkpt>
      <trkpt lat="44.90112" lon="5.39528">
        <ele>1061</ele>
        <time>2022-09-22T12:38:07.834Z</time>
      </trkpt>
      <trkpt lat="44.90111" lon="5.3953">
        <ele>1061</ele>
        <time>2022-09-22T12:38:08.834Z</time>
      </trkpt>
      <trkpt lat="44.90109" lon="5.39533">
        <ele>1061</ele>
        <time>2022-09-22T12:38:09.834Z</time>
      </trkpt>
      <trkpt lat="44.90108" lon="5.39536">
        <ele>1061</ele>
        <time>2022-09-22T12:38:10.833Z</time>
      </trkpt>
      <trkpt lat="44.90106" lon="5.39538">
        <ele>1062</ele>
        <time>2022-09-22T12:38:11.834Z</time>
      </trkpt>
      <trkpt lat="44.90105" lon="5.3954">
        <ele>1062</ele>
        <time>2022-09-22T12:38:12.833Z</time>
      </trkpt>
      <trkpt lat="44.90104" lon="5.39542">
        <ele>1062</ele>
        <time>2022-09-22T12:38:13.833Z</time>
      </trkpt>
      <trkpt lat="44.90103" lon="5.39545">
        <ele>1062</ele>
        <time>2022-09-22T12:38:14.834Z</time>
      </trkpt>
      <trkpt lat="44.90101" lon="5.39548">
        <ele>1063</ele>
        <time>2022-09-22T12:38:15.833Z</time>
      </trkpt>
      <trkpt lat="44.901" lon="5.3955">
        <ele>1062</ele>
        <time>2022-09-22T12:38:16.834Z</time>
      </trkpt>
      <trkpt lat="44.90099" lon="5.39553">
        <ele>1063</ele>
        <time>2022-09-22T12:38:17.833Z</time>
      </trkpt>
      <trkpt lat="44.90098" lon="5.39556">
        <ele>1063</ele>
        <time>2022-09-22T12:38:18.834Z</time>
      </trkpt>
      <trkpt lat="44.90097" lon="5.39559">
        <ele>1064</ele>
        <time>2022-09-22T12:38:19.834Z</time>
      </trkpt>
      <trkpt lat="44.90096" lon="5.39562">
        <ele>1064</ele>
        <time>2022-09-22T12:38:20.834Z</time>
      </trkpt>
      <trkpt lat="44.90095" lon="5.39565">
        <ele>1064</ele>
        <time>2022-09-22T12:38:21.834Z</time>
      </trkpt>
      <trkpt lat="44.90094" lon="5.39569">
        <ele>1064</ele>
        <time>2022-09-22T12:38:22.833Z</time>
      </trkpt>
      <trkpt lat="44.90093" lon="5.39572">
        <ele>1065</ele>
        <time>2022-09-22T12:38:23.834Z</time>
      </trkpt>
      <trkpt lat="44.90092" lon="5.39575">
        <ele>1065</ele>
        <time>2022-09-22T12:38:24.834Z</time>
      </trkpt>
      <trkpt lat="44.90091" lon="5.39579">
        <ele>1065</ele>
        <time>2022-09-22T12:38:25.834Z</time>
      </trkpt>
      <trkpt lat="44.9009" lon="5.39582">
        <ele>1065</ele>
        <time>2022-09-22T12:38:26.833Z</time>
      </trkpt>
      <trkpt lat="44.9009" lon="5.39585">
        <ele>1064</ele>
        <time>2022-09-22T12:38:27.834Z</time>
      </trkpt>
      <trkpt lat="44.9009" lon="5.39588">
        <ele>1064</ele>
        <time>2022-09-22T12:38:28.833Z</time>
      </trkpt>
      <trkpt lat="44.9009" lon="5.39591">
        <ele>1063</ele>
        <time>2022-09-22T12:38:29.834Z</time>
      </trkpt>
      <trkpt lat="44.9009" lon="5.39594">
        <ele>1063</ele>
        <time>2022-09-22T12:38:30.834Z</time>
      </trkpt>
      <trkpt lat="44.90089" lon="5.39597">
        <ele>1063</ele>
        <time>2022-09-22T12:38:31.833Z</time>
      </trkpt>
      <trkpt lat="44.90089" lon="5.396">
        <ele>1062</ele>
        <time>2022-09-22T12:38:32.833Z</time>
      </trkpt>
      <trkpt lat="44.90089" lon="5.39604">
        <ele>1062</ele>
        <time>2022-09-22T12:38:33.834Z</time>
      </trkpt>
      <trkpt lat="44.90089" lon="5.39607">
        <ele>1062</ele>
        <time>2022-09-22T12:38:34.834Z</time>
      </trkpt>
      <trkpt lat="44.90088" lon="5.3961">
        <ele>1062</ele>
        <time>2022-09-22T12:38:35.834Z</time>
      </trkpt>
      <trkpt lat="44.90088" lon="5.39614">
        <ele>1062</ele>
        <time>2022-09-22T12:38:36.834Z</time>
      </trkpt>
      <trkpt lat="44.90087" lon="5.39617">
        <ele>1062</ele>
        <time>2022-09-22T12:38:37.834Z</time>
      </trkpt>
      <trkpt lat="44.90086" lon="5.3962">
        <ele>1062</ele>
        <time>2022-09-22T12:38:38.833Z</time>
      </trkpt>
      <trkpt lat="44.90085" lon="5.39622">
        <ele>1062</ele>
        <time>2022-09-22T12:38:39.833Z</time>
      </trkpt>
      <trkpt lat="44.90084" lon="5.39625">
        <ele>1062</ele>
        <time>2022-09-22T12:38:40.834Z</time>
      </trkpt>
      <trkpt lat="44.90082" lon="5.39628">
        <ele>1062</ele>
        <time>2022-09-22T12:38:41.834Z</time>
      </trkpt>
      <trkpt lat="44.90081" lon="5.3963">
        <ele>1062</ele>
        <time>2022-09-22T12:38:42.834Z</time>
      </trkpt>
      <trkpt lat="44.9008" lon="5.39633">
        <ele>1062</ele>
        <time>2022-09-22T12:38:43.834Z</time>
      </trkpt>
      <trkpt lat="44.90079" lon="5.39636">
        <ele>1062</ele>
        <time>2022-09-22T12:38:44.834Z</time>
      </trkpt>
      <trkpt lat="44.90078" lon="5.39639">
        <ele>1062</ele>
        <time>2022-09-22T12:38:45.833Z</time>
      </trkpt>
      <trkpt lat="44.90077" lon="5.39642">
        <ele>1062</ele>
        <time>2022-09-22T12:38:46.834Z</time>
      </trkpt>
      <trkpt lat="44.90076" lon="5.39645">
        <ele>1062</ele>
        <time>2022-09-22T12:38:47.833Z</time>
      </trkpt>
      <trkpt lat="44.90075" lon="5.39649">
        <ele>1062</ele>
        <time>2022-09-22T12:38:48.834Z</time>
      </trkpt>
      <trkpt lat="44.90075" lon="5.39652">
        <ele>1062</ele>
        <time>2022-09-22T12:38:49.834Z</time>
      </trkpt>
      <trkpt lat="44.90075" lon="5.39655">
        <ele>1063</ele>
        <time>2022-09-22T12:38:50.833Z</time>
      </trkpt>
      <trkpt lat="44.90075" lon="5.39659">
        <ele>1063</ele>
        <time>2022-09-22T12:38:51.834Z</time>
      </trkpt>
      <trkpt lat="44.90075" lon="5.39662">
        <ele>1063</ele>
        <time>2022-09-22T12:38:52.834Z</time>
      </trkpt>
      <trkpt lat="44.90075" lon="5.39665">
        <ele>1063</ele>
        <time>2022-09-22T12:38:53.833Z</time>
      </trkpt>
      <trkpt lat="44.90075" lon="5.39668">
        <ele>1064</ele>
        <time>2022-09-22T12:38:54.834Z</time>
      </trkpt>
      <trkpt lat="44.90075" lon="5.39672">
        <ele>1064</ele>
        <time>2022-09-22T12:38:55.833Z</time>
      </trkpt>
      <trkpt lat="44.90075" lon="5.39675">
        <ele>1064</ele>
        <time>2022-09-22T12:38:56.834Z</time>
      </trkpt>
      <trkpt lat="44.90076" lon="5.39677">
        <ele>1065</ele>
        <time>2022-09-22T12:38:57.834Z</time>
      </trkpt>
      <trkpt lat="44.90076" lon="5.3968">
        <ele>1065</ele>
        <time>2022-09-22T12:38:58.834Z</time>
      </trkpt>
      <trkpt lat="44.90076" lon="5.39683">
        <ele>1065</ele>
        <time>2022-09-22T12:38:59.834Z</time>
      </trkpt>
      <trkpt lat="44.90076" lon="5.39686">
        <ele>1066</ele>
        <time>2022-09-22T12:39:00.834Z</time>
      </trkpt>
      <trkpt lat="44.90076" lon="5.39689">
        <ele>1066</ele>
        <time>2022-09-22T12:39:01.833Z</time>
      </trkpt>
      <trkpt lat="44.90075" lon="5.39692">
        <ele>1066</ele>
        <time>2022-09-22T12:39:02.834Z</time>
      </trkpt>
      <trkpt lat="44.90075" lon="5.39695">
        <ele>1066</ele>
        <time>2022-09-22T12:39:03.834Z</time>
      </trkpt>
      <trkpt lat="44.90075" lon="5.39698">
        <ele>1066</ele>
        <time>2022-09-22T12:39:04.834Z</time>
      </trkpt>
      <trkpt lat="44.90074" lon="5.39701">
        <ele>1066</ele>
        <time>2022-09-22T12:39:05.834Z</time>
      </trkpt>
      <trkpt lat="44.90073" lon="5.39704">
        <ele>1067</ele>
        <time>2022-09-22T12:39:06.834Z</time>
      </trkpt>
      <trkpt lat="44.90073" lon="5.39707">
        <ele>1067</ele>
        <time>2022-09-22T12:39:07.834Z</time>
      </trkpt>
      <trkpt lat="44.90072" lon="5.3971">
        <ele>1067</ele>
        <time>2022-09-22T12:39:08.834Z</time>
      </trkpt>
      <trkpt lat="44.90072" lon="5.39713">
        <ele>1067</ele>
        <time>2022-09-22T12:39:09.834Z</time>
      </trkpt>
      <trkpt lat="44.90072" lon="5.39715">
        <ele>1067</ele>
        <time>2022-09-22T12:39:10.833Z</time>
      </trkpt>
      <trkpt lat="44.90071" lon="5.39718">
        <ele>1067</ele>
        <time>2022-09-22T12:39:11.834Z</time>
      </trkpt>
      <trkpt lat="44.90071" lon="5.39721">
        <ele>1067</ele>
        <time>2022-09-22T12:39:12.834Z</time>
      </trkpt>
      <trkpt lat="44.90071" lon="5.39724">
        <ele>1068</ele>
        <time>2022-09-22T12:39:13.834Z</time>
      </trkpt>
      <trkpt lat="44.9007" lon="5.39727">
        <ele>1068</ele>
        <time>2022-09-22T12:39:14.834Z</time>
      </trkpt>
      <trkpt lat="44.90071" lon="5.39729">
        <ele>1068</ele>
        <time>2022-09-22T12:39:15.833Z</time>
      </trkpt>
      <trkpt lat="44.90071" lon="5.39732">
        <ele>1068</ele>
        <time>2022-09-22T12:39:16.833Z</time>
      </trkpt>
      <trkpt lat="44.90072" lon="5.39735">
        <ele>1068</ele>
        <time>2022-09-22T12:39:17.834Z</time>
      </trkpt>
      <trkpt lat="44.90072" lon="5.39738">
        <ele>1069</ele>
        <time>2022-09-22T12:39:18.834Z</time>
      </trkpt>
      <trkpt lat="44.90073" lon="5.39741">
        <ele>1069</ele>
        <time>2022-09-22T12:39:19.834Z</time>
      </trkpt>
      <trkpt lat="44.90074" lon="5.39743">
        <ele>1069</ele>
        <time>2022-09-22T12:39:20.833Z</time>
      </trkpt>
      <trkpt lat="44.90075" lon="5.39745">
        <ele>1069</ele>
        <time>2022-09-22T12:39:21.833Z</time>
      </trkpt>
      <trkpt lat="44.90077" lon="5.39747">
        <ele>1069</ele>
        <time>2022-09-22T12:39:22.834Z</time>
      </trkpt>
      <trkpt lat="44.90078" lon="5.3975">
        <ele>1069</ele>
        <time>2022-09-22T12:39:23.834Z</time>
      </trkpt>
      <trkpt lat="44.90079" lon="5.39752">
        <ele>1069</ele>
        <time>2022-09-22T12:39:24.834Z</time>
      </trkpt>
      <trkpt lat="44.90081" lon="5.39753">
        <ele>1069</ele>
        <time>2022-09-22T12:39:25.833Z</time>
      </trkpt>
      <trkpt lat="44.90082" lon="5.39755">
        <ele>1069</ele>
        <time>2022-09-22T12:39:26.834Z</time>
      </trkpt>
      <trkpt lat="44.90084" lon="5.39757">
        <ele>1069</ele>
        <time>2022-09-22T12:39:27.834Z</time>
      </trkpt>
      <trkpt lat="44.90086" lon="5.39758">
        <ele>1069</ele>
        <time>2022-09-22T12:39:28.834Z</time>
      </trkpt>
      <trkpt lat="44.90087" lon="5.3976">
        <ele>1070</ele>
        <time>2022-09-22T12:39:29.834Z</time>
      </trkpt>
      <trkpt lat="44.90089" lon="5.39762">
        <ele>1070</ele>
        <time>2022-09-22T12:39:30.834Z</time>
      </trkpt>
      <trkpt lat="44.9009" lon="5.39764">
        <ele>1070</ele>
        <time>2022-09-22T12:39:31.833Z</time>
      </trkpt>
      <trkpt lat="44.90091" lon="5.39766">
        <ele>1071</ele>
        <time>2022-09-22T12:39:32.834Z</time>
      </trkpt>
      <trkpt lat="44.90092" lon="5.39769">
        <ele>1071</ele>
        <time>2022-09-22T12:39:33.834Z</time>
      </trkpt>
      <trkpt lat="44.90093" lon="5.39771">
        <ele>1071</ele>
        <time>2022-09-22T12:39:34.834Z</time>
      </trkpt>
      <trkpt lat="44.90094" lon="5.39774">
        <ele>1072</ele>
        <time>2022-09-22T12:39:35.834Z</time>
      </trkpt>
      <trkpt lat="44.90094" lon="5.39776">
        <ele>1072</ele>
        <time>2022-09-22T12:39:36.833Z</time>
      </trkpt>
      <trkpt lat="44.90095" lon="5.39779">
        <ele>1072</ele>
        <time>2022-09-22T12:39:37.834Z</time>
      </trkpt>
      <trkpt lat="44.90095" lon="5.39782">
        <ele>1071</ele>
        <time>2022-09-22T12:39:38.834Z</time>
      </trkpt>
      <trkpt lat="44.90096" lon="5.39784">
        <ele>1071</ele>
        <time>2022-09-22T12:39:39.833Z</time>
      </trkpt>
      <trkpt lat="44.90096" lon="5.39787">
        <ele>1071</ele>
        <time>2022-09-22T12:39:40.833Z</time>
      </trkpt>
      <trkpt lat="44.90096" lon="5.3979">
        <ele>1072</ele>
        <time>2022-09-22T12:39:41.833Z</time>
      </trkpt>
      <trkpt lat="44.90096" lon="5.39793">
        <ele>1072</ele>
        <time>2022-09-22T12:39:42.834Z</time>
      </trkpt>
      <trkpt lat="44.90096" lon="5.39795">
        <ele>1072</ele>
        <time>2022-09-22T12:39:43.833Z</time>
      </trkpt>
      <trkpt lat="44.90096" lon="5.39798">
        <ele>1072</ele>
        <time>2022-09-22T12:39:44.834Z</time>
      </trkpt>
      <trkpt lat="44.90097" lon="5.39801">
        <ele>1072</ele>
        <time>2022-09-22T12:39:45.833Z</time>
      </trkpt>
      <trkpt lat="44.90097" lon="5.39803">
        <ele>1072</ele>
        <time>2022-09-22T12:39:46.833Z</time>
      </trkpt>
      <trkpt lat="44.90098" lon="5.39806">
        <ele>1072</ele>
        <time>2022-09-22T12:39:47.833Z</time>
      </trkpt>
      <trkpt lat="44.90098" lon="5.39808">
        <ele>1072</ele>
        <time>2022-09-22T12:39:48.833Z</time>
      </trkpt>
      <trkpt lat="44.90099" lon="5.39811">
        <ele>1072</ele>
        <time>2022-09-22T12:39:49.833Z</time>
      </trkpt>
      <trkpt lat="44.90099" lon="5.39814">
        <ele>1072</ele>
        <time>2022-09-22T12:39:50.833Z</time>
      </trkpt>
      <trkpt lat="44.901" lon="5.39816">
        <ele>1072</ele>
        <time>2022-09-22T12:39:51.833Z</time>
      </trkpt>
      <trkpt lat="44.901" lon="5.39819">
        <ele>1073</ele>
        <time>2022-09-22T12:39:52.833Z</time>
      </trkpt>
      <trkpt lat="44.901" lon="5.39821">
        <ele>1073</ele>
        <time>2022-09-22T12:39:53.833Z</time>
      </trkpt>
      <trkpt lat="44.90101" lon="5.39823">
        <ele>1073</ele>
        <time>2022-09-22T12:39:54.833Z</time>
      </trkpt>
      <trkpt lat="44.90101" lon="5.39825">
        <ele>1073</ele>
        <time>2022-09-22T12:39:55.833Z</time>
      </trkpt>
      <trkpt lat="44.90102" lon="5.39827">
        <ele>1073</ele>
        <time>2022-09-22T12:39:56.833Z</time>
      </trkpt>
      <trkpt lat="44.90102" lon="5.3983">
        <ele>1073</ele>
        <time>2022-09-22T12:39:57.834Z</time>
      </trkpt>
      <trkpt lat="44.90103" lon="5.39832">
        <ele>1073</ele>
        <time>2022-09-22T12:39:58.834Z</time>
      </trkpt>
      <trkpt lat="44.90103" lon="5.39834">
        <ele>1072</ele>
        <time>2022-09-22T12:39:59.834Z</time>
      </trkpt>
      <trkpt lat="44.90104" lon="5.39837">
        <ele>1072</ele>
        <time>2022-09-22T12:40:00.834Z</time>
      </trkpt>
      <trkpt lat="44.90104" lon="5.39839">
        <ele>1072</ele>
        <time>2022-09-22T12:40:01.833Z</time>
      </trkpt>
      <trkpt lat="44.90105" lon="5.39842">
        <ele>1073</ele>
        <time>2022-09-22T12:40:02.834Z</time>
      </trkpt>
      <trkpt lat="44.90106" lon="5.39844">
        <ele>1073</ele>
        <time>2022-09-22T12:40:03.834Z</time>
      </trkpt>
      <trkpt lat="44.90106" lon="5.39846">
        <ele>1073</ele>
        <time>2022-09-22T12:40:04.833Z</time>
      </trkpt>
      <trkpt lat="44.90107" lon="5.39849">
        <ele>1073</ele>
        <time>2022-09-22T12:40:05.834Z</time>
      </trkpt>
      <trkpt lat="44.90107" lon="5.39851">
        <ele>1072</ele>
        <time>2022-09-22T12:40:06.833Z</time>
      </trkpt>
      <trkpt lat="44.90108" lon="5.39854">
        <ele>1072</ele>
        <time>2022-09-22T12:40:07.833Z</time>
      </trkpt>
      <trkpt lat="44.90108" lon="5.39857">
        <ele>1072</ele>
        <time>2022-09-22T12:40:08.834Z</time>
      </trkpt>
      <trkpt lat="44.90109" lon="5.39859">
        <ele>1072</ele>
        <time>2022-09-22T12:40:09.833Z</time>
      </trkpt>
      <trkpt lat="44.90109" lon="5.39862">
        <ele>1073</ele>
        <time>2022-09-22T12:40:10.834Z</time>
      </trkpt>
      <trkpt lat="44.9011" lon="5.39865">
        <ele>1073</ele>
        <time>2022-09-22T12:40:11.834Z</time>
      </trkpt>
      <trkpt lat="44.90111" lon="5.39868">
        <ele>1073</ele>
        <time>2022-09-22T12:40:12.834Z</time>
      </trkpt>
      <trkpt lat="44.90111" lon="5.3987">
        <ele>1073</ele>
        <time>2022-09-22T12:40:13.834Z</time>
      </trkpt>
      <trkpt lat="44.90112" lon="5.39873">
        <ele>1073</ele>
        <time>2022-09-22T12:40:14.834Z</time>
      </trkpt>
      <trkpt lat="44.90112" lon="5.39876">
        <ele>1073</ele>
        <time>2022-09-22T12:40:15.833Z</time>
      </trkpt>
      <trkpt lat="44.90112" lon="5.39879">
        <ele>1073</ele>
        <time>2022-09-22T12:40:16.834Z</time>
      </trkpt>
      <trkpt lat="44.90113" lon="5.39882">
        <ele>1073</ele>
        <time>2022-09-22T12:40:17.833Z</time>
      </trkpt>
      <trkpt lat="44.90113" lon="5.39885">
        <ele>1074</ele>
        <time>2022-09-22T12:40:18.833Z</time>
      </trkpt>
      <trkpt lat="44.90113" lon="5.39888">
        <ele>1074</ele>
        <time>2022-09-22T12:40:19.834Z</time>
      </trkpt>
      <trkpt lat="44.90114" lon="5.3989">
        <ele>1075</ele>
        <time>2022-09-22T12:40:20.834Z</time>
      </trkpt>
      <trkpt lat="44.90114" lon="5.39893">
        <ele>1075</ele>
        <time>2022-09-22T12:40:21.834Z</time>
      </trkpt>
      <trkpt lat="44.90114" lon="5.39896">
        <ele>1075</ele>
        <time>2022-09-22T12:40:22.834Z</time>
      </trkpt>
      <trkpt lat="44.90114" lon="5.39898">
        <ele>1076</ele>
        <time>2022-09-22T12:40:23.834Z</time>
      </trkpt>
      <trkpt lat="44.90114" lon="5.399">
        <ele>1076</ele>
        <time>2022-09-22T12:40:24.833Z</time>
      </trkpt>
      <trkpt lat="44.90114" lon="5.39902">
        <ele>1075</ele>
        <time>2022-09-22T12:40:25.834Z</time>
      </trkpt>
      <trkpt lat="44.90114" lon="5.39904">
        <ele>1075</ele>
        <time>2022-09-22T12:40:26.834Z</time>
      </trkpt>
      <trkpt lat="44.90115" lon="5.39906">
        <ele>1075</ele>
        <time>2022-09-22T12:40:27.834Z</time>
      </trkpt>
      <trkpt lat="44.90115" lon="5.39908">
        <ele>1075</ele>
        <time>2022-09-22T12:40:28.834Z</time>
      </trkpt>
      <trkpt lat="44.90115" lon="5.3991">
        <ele>1075</ele>
        <time>2022-09-22T12:40:29.834Z</time>
      </trkpt>
      <trkpt lat="44.90115" lon="5.39911">
        <ele>1075</ele>
        <time>2022-09-22T12:40:30.834Z</time>
      </trkpt>
      <trkpt lat="44.90115" lon="5.39911">
        <ele>1075</ele>
        <time>2022-09-22T12:40:31.834Z</time>
      </trkpt>
      <trkpt lat="44.90115" lon="5.39911">
        <ele>1075</ele>
        <time>2022-09-22T12:40:32.833Z</time>
      </trkpt>
      <trkpt lat="44.90115" lon="5.39912">
        <ele>1074</ele>
        <time>2022-09-22T12:40:44.934Z</time>
      </trkpt>
      <trkpt lat="44.90115" lon="5.39912">
        <ele>1074</ele>
        <time>2022-09-22T12:40:45.933Z</time>
      </trkpt>
      <trkpt lat="44.90115" lon="5.39913">
        <ele>1074</ele>
        <time>2022-09-22T12:40:46.933Z</time>
      </trkpt>
      <trkpt lat="44.90115" lon="5.39914">
        <ele>1074</ele>
        <time>2022-09-22T12:40:47.934Z</time>
      </trkpt>
      <trkpt lat="44.90115" lon="5.39915">
        <ele>1074</ele>
        <time>2022-09-22T12:40:48.934Z</time>
      </trkpt>
      <trkpt lat="44.90115" lon="5.39916">
        <ele>1074</ele>
        <time>2022-09-22T12:40:49.934Z</time>
      </trkpt>
      <trkpt lat="44.90115" lon="5.39917">
        <ele>1075</ele>
        <time>2022-09-22T12:40:50.933Z</time>
      </trkpt>
      <trkpt lat="44.90115" lon="5.39918">
        <ele>1075</ele>
        <time>2022-09-22T12:40:51.933Z</time>
      </trkpt>
      <trkpt lat="44.90115" lon="5.39918">
        <ele>1075</ele>
        <time>2022-09-22T12:40:52.934Z</time>
      </trkpt>
      <trkpt lat="44.90115" lon="5.39919">
        <ele>1076</ele>
        <time>2022-09-22T12:40:53.933Z</time>
      </trkpt>
      <trkpt lat="44.90114" lon="5.3992">
        <ele>1076</ele>
        <time>2022-09-22T12:40:54.934Z</time>
      </trkpt>
      <trkpt lat="44.90114" lon="5.39919">
        <ele>1076</ele>
        <time>2022-09-22T12:40:55.934Z</time>
      </trkpt>
      <trkpt lat="44.90114" lon="5.39918">
        <ele>1076</ele>
        <time>2022-09-22T12:40:56.933Z</time>
      </trkpt>
      <trkpt lat="44.90114" lon="5.39917">
        <ele>1076</ele>
        <time>2022-09-22T12:40:57.933Z</time>
      </trkpt>
      <trkpt lat="44.90115" lon="5.39916">
        <ele>1076</ele>
        <time>2022-09-22T12:40:58.934Z</time>
      </trkpt>
      <trkpt lat="44.90116" lon="5.39914">
        <ele>1076</ele>
        <time>2022-09-22T12:40:59.934Z</time>
      </trkpt>
      <trkpt lat="44.90116" lon="5.39914">
        <ele>1077</ele>
        <time>2022-09-22T12:41:00.934Z</time>
      </trkpt>
      <trkpt lat="44.90116" lon="5.39913">
        <ele>1077</ele>
        <time>2022-09-22T12:41:01.934Z</time>
      </trkpt>
      <trkpt lat="44.90116" lon="5.39913">
        <ele>1077</ele>
        <time>2022-09-22T12:41:02.934Z</time>
      </trkpt>
      <trkpt lat="44.90117" lon="5.39914">
        <ele>1077</ele>
        <time>2022-09-22T12:41:03.934Z</time>
      </trkpt>
      <trkpt lat="44.90116" lon="5.39915">
        <ele>1077</ele>
        <time>2022-09-22T12:41:04.934Z</time>
      </trkpt>
      <trkpt lat="44.90116" lon="5.39916">
        <ele>1077</ele>
        <time>2022-09-22T12:41:05.933Z</time>
      </trkpt>
      <trkpt lat="44.90116" lon="5.39917">
        <ele>1077</ele>
        <time>2022-09-22T12:41:06.934Z</time>
      </trkpt>
      <trkpt lat="44.90115" lon="5.39917">
        <ele>1077</ele>
        <time>2022-09-22T12:41:07.934Z</time>
      </trkpt>
      <trkpt lat="44.90115" lon="5.39918">
        <ele>1077</ele>
        <time>2022-09-22T12:41:08.934Z</time>
      </trkpt>
      <trkpt lat="44.90115" lon="5.39918">
        <ele>1077</ele>
        <time>2022-09-22T12:41:09.933Z</time>
      </trkpt>
      <trkpt lat="44.90115" lon="5.39918">
        <ele>1077</ele>
        <time>2022-09-22T12:41:10.934Z</time>
      </trkpt>
      <trkpt lat="44.90113" lon="5.39924">
        <ele>1074</ele>
        <time>2022-09-22T12:41:23.061Z</time>
      </trkpt>
      <trkpt lat="44.90112" lon="5.39927">
        <ele>1074</ele>
        <time>2022-09-22T12:41:24.061Z</time>
      </trkpt>
      <trkpt lat="44.90111" lon="5.3993">
        <ele>1075</ele>
        <time>2022-09-22T12:41:25.060Z</time>
      </trkpt>
      <trkpt lat="44.9011" lon="5.39933">
        <ele>1075</ele>
        <time>2022-09-22T12:41:26.061Z</time>
      </trkpt>
      <trkpt lat="44.9011" lon="5.39936">
        <ele>1075</ele>
        <time>2022-09-22T12:41:27.060Z</time>
      </trkpt>
      <trkpt lat="44.90109" lon="5.39939">
        <ele>1076</ele>
        <time>2022-09-22T12:41:28.061Z</time>
      </trkpt>
      <trkpt lat="44.90109" lon="5.39942">
        <ele>1076</ele>
        <time>2022-09-22T12:41:29.061Z</time>
      </trkpt>
      <trkpt lat="44.90109" lon="5.39945">
        <ele>1076</ele>
        <time>2022-09-22T12:41:30.061Z</time>
      </trkpt>
      <trkpt lat="44.90109" lon="5.39947">
        <ele>1076</ele>
        <time>2022-09-22T12:41:31.061Z</time>
      </trkpt>
      <trkpt lat="44.90109" lon="5.39949">
        <ele>1076</ele>
        <time>2022-09-22T12:41:32.061Z</time>
      </trkpt>
      <trkpt lat="44.9011" lon="5.39951">
        <ele>1077</ele>
        <time>2022-09-22T12:41:33.061Z</time>
      </trkpt>
      <trkpt lat="44.90111" lon="5.39953">
        <ele>1077</ele>
        <time>2022-09-22T12:41:34.061Z</time>
      </trkpt>
      <trkpt lat="44.90112" lon="5.39956">
        <ele>1078</ele>
        <time>2022-09-22T12:41:35.061Z</time>
      </trkpt>
      <trkpt lat="44.90112" lon="5.39957">
        <ele>1079</ele>
        <time>2022-09-22T12:41:36.061Z</time>
      </trkpt>
      <trkpt lat="44.90114" lon="5.39959">
        <ele>1079</ele>
        <time>2022-09-22T12:41:37.060Z</time>
      </trkpt>
      <trkpt lat="44.90115" lon="5.39961">
        <ele>1080</ele>
        <time>2022-09-22T12:41:38.061Z</time>
      </trkpt>
      <trkpt lat="44.90115" lon="5.39963">
        <ele>1080</ele>
        <time>2022-09-22T12:41:39.061Z</time>
      </trkpt>
      <trkpt lat="44.90117" lon="5.39964">
        <ele>1080</ele>
        <time>2022-09-22T12:41:40.061Z</time>
      </trkpt>
      <trkpt lat="44.90118" lon="5.39965">
        <ele>1081</ele>
        <time>2022-09-22T12:41:41.061Z</time>
      </trkpt>
      <trkpt lat="44.90119" lon="5.39967">
        <ele>1081</ele>
        <time>2022-09-22T12:41:42.061Z</time>
      </trkpt>
      <trkpt lat="44.9012" lon="5.39969">
        <ele>1082</ele>
        <time>2022-09-22T12:41:43.061Z</time>
      </trkpt>
      <trkpt lat="44.9012" lon="5.39971">
        <ele>1082</ele>
        <time>2022-09-22T12:41:44.061Z</time>
      </trkpt>
      <trkpt lat="44.90121" lon="5.39973">
        <ele>1082</ele>
        <time>2022-09-22T12:41:45.061Z</time>
      </trkpt>
      <trkpt lat="44.90121" lon="5.39975">
        <ele>1082</ele>
        <time>2022-09-22T12:41:46.061Z</time>
      </trkpt>
      <trkpt lat="44.90122" lon="5.39976">
        <ele>1082</ele>
        <time>2022-09-22T12:41:47.061Z</time>
      </trkpt>
      <trkpt lat="44.90123" lon="5.39978">
        <ele>1082</ele>
        <time>2022-09-22T12:41:48.061Z</time>
      </trkpt>
      <trkpt lat="44.90124" lon="5.39979">
        <ele>1082</ele>
        <time>2022-09-22T12:41:49.061Z</time>
      </trkpt>
      <trkpt lat="44.90126" lon="5.39981">
        <ele>1083</ele>
        <time>2022-09-22T12:41:50.060Z</time>
      </trkpt>
      <trkpt lat="44.90126" lon="5.39983">
        <ele>1083</ele>
        <time>2022-09-22T12:41:51.061Z</time>
      </trkpt>
      <trkpt lat="44.90127" lon="5.39985">
        <ele>1083</ele>
        <time>2022-09-22T12:41:52.061Z</time>
      </trkpt>
      <trkpt lat="44.90128" lon="5.39987">
        <ele>1083</ele>
        <time>2022-09-22T12:41:53.061Z</time>
      </trkpt>
      <trkpt lat="44.90129" lon="5.39989">
        <ele>1084</ele>
        <time>2022-09-22T12:41:54.061Z</time>
      </trkpt>
      <trkpt lat="44.90129" lon="5.39991">
        <ele>1083</ele>
        <time>2022-09-22T12:41:55.060Z</time>
      </trkpt>
      <trkpt lat="44.9013" lon="5.39993">
        <ele>1084</ele>
        <time>2022-09-22T12:41:56.061Z</time>
      </trkpt>
      <trkpt lat="44.9013" lon="5.39995">
        <ele>1083</ele>
        <time>2022-09-22T12:41:57.061Z</time>
      </trkpt>
      <trkpt lat="44.9013" lon="5.39998">
        <ele>1083</ele>
        <time>2022-09-22T12:41:58.060Z</time>
      </trkpt>
      <trkpt lat="44.90131" lon="5.4">
        <ele>1083</ele>
        <time>2022-09-22T12:41:59.061Z</time>
      </trkpt>
      <trkpt lat="44.90131" lon="5.40002">
        <ele>1083</ele>
        <time>2022-09-22T12:42:00.060Z</time>
      </trkpt>
      <trkpt lat="44.90131" lon="5.40004">
        <ele>1083</ele>
        <time>2022-09-22T12:42:01.060Z</time>
      </trkpt>
      <trkpt lat="44.90131" lon="5.40007">
        <ele>1083</ele>
        <time>2022-09-22T12:42:02.061Z</time>
      </trkpt>
      <trkpt lat="44.90131" lon="5.40009">
        <ele>1083</ele>
        <time>2022-09-22T12:42:03.061Z</time>
      </trkpt>
      <trkpt lat="44.9013" lon="5.40011">
        <ele>1083</ele>
        <time>2022-09-22T12:42:04.061Z</time>
      </trkpt>
      <trkpt lat="44.9013" lon="5.40013">
        <ele>1083</ele>
        <time>2022-09-22T12:42:05.061Z</time>
      </trkpt>
      <trkpt lat="44.90129" lon="5.40015">
        <ele>1083</ele>
        <time>2022-09-22T12:42:06.061Z</time>
      </trkpt>
      <trkpt lat="44.90129" lon="5.40017">
        <ele>1083</ele>
        <time>2022-09-22T12:42:07.061Z</time>
      </trkpt>
      <trkpt lat="44.90128" lon="5.40019">
        <ele>1083</ele>
        <time>2022-09-22T12:42:08.061Z</time>
      </trkpt>
      <trkpt lat="44.90126" lon="5.40021">
        <ele>1082</ele>
        <time>2022-09-22T12:42:09.060Z</time>
      </trkpt>
      <trkpt lat="44.90125" lon="5.40022">
        <ele>1082</ele>
        <time>2022-09-22T12:42:10.061Z</time>
      </trkpt>
      <trkpt lat="44.90124" lon="5.40023">
        <ele>1082</ele>
        <time>2022-09-22T12:42:11.061Z</time>
      </trkpt>
      <trkpt lat="44.90122" lon="5.40023">
        <ele>1082</ele>
        <time>2022-09-22T12:42:12.060Z</time>
      </trkpt>
      <trkpt lat="44.9012" lon="5.40024">
        <ele>1083</ele>
        <time>2022-09-22T12:42:13.061Z</time>
      </trkpt>
      <trkpt lat="44.90119" lon="5.40024">
        <ele>1084</ele>
        <time>2022-09-22T12:42:14.061Z</time>
      </trkpt>
      <trkpt lat="44.90117" lon="5.40025">
        <ele>1084</ele>
        <time>2022-09-22T12:42:15.061Z</time>
      </trkpt>
      <trkpt lat="44.90115" lon="5.40025">
        <ele>1085</ele>
        <time>2022-09-22T12:42:16.060Z</time>
      </trkpt>
      <trkpt lat="44.90113" lon="5.40025">
        <ele>1085</ele>
        <time>2022-09-22T12:42:17.061Z</time>
      </trkpt>
      <trkpt lat="44.90111" lon="5.40025">
        <ele>1085</ele>
        <time>2022-09-22T12:42:18.061Z</time>
      </trkpt>
      <trkpt lat="44.9011" lon="5.40025">
        <ele>1086</ele>
        <time>2022-09-22T12:42:19.060Z</time>
      </trkpt>
      <trkpt lat="44.90108" lon="5.40025">
        <ele>1086</ele>
        <time>2022-09-22T12:42:20.061Z</time>
      </trkpt>
      <trkpt lat="44.90106" lon="5.40025">
        <ele>1086</ele>
        <time>2022-09-22T12:42:21.060Z</time>
      </trkpt>
      <trkpt lat="44.90105" lon="5.40026">
        <ele>1086</ele>
        <time>2022-09-22T12:42:22.061Z</time>
      </trkpt>
      <trkpt lat="44.90103" lon="5.40026">
        <ele>1087</ele>
        <time>2022-09-22T12:42:23.061Z</time>
      </trkpt>
      <trkpt lat="44.90102" lon="5.40026">
        <ele>1087</ele>
        <time>2022-09-22T12:42:24.061Z</time>
      </trkpt>
      <trkpt lat="44.901" lon="5.40027">
        <ele>1087</ele>
        <time>2022-09-22T12:42:25.060Z</time>
      </trkpt>
      <trkpt lat="44.90099" lon="5.40027">
        <ele>1088</ele>
        <time>2022-09-22T12:42:26.061Z</time>
      </trkpt>
      <trkpt lat="44.90097" lon="5.40027">
        <ele>1087</ele>
        <time>2022-09-22T12:42:27.061Z</time>
      </trkpt>
      <trkpt lat="44.90096" lon="5.40028">
        <ele>1087</ele>
        <time>2022-09-22T12:42:28.060Z</time>
      </trkpt>
      <trkpt lat="44.90094" lon="5.40028">
        <ele>1086</ele>
        <time>2022-09-22T12:42:29.061Z</time>
      </trkpt>
      <trkpt lat="44.90092" lon="5.40029">
        <ele>1087</ele>
        <time>2022-09-22T12:42:30.061Z</time>
      </trkpt>
      <trkpt lat="44.90091" lon="5.40029">
        <ele>1087</ele>
        <time>2022-09-22T12:42:31.061Z</time>
      </trkpt>
      <trkpt lat="44.90089" lon="5.4003">
        <ele>1087</ele>
        <time>2022-09-22T12:42:32.061Z</time>
      </trkpt>
      <trkpt lat="44.90088" lon="5.40031">
        <ele>1087</ele>
        <time>2022-09-22T12:42:33.061Z</time>
      </trkpt>
      <trkpt lat="44.90086" lon="5.40032">
        <ele>1088</ele>
        <time>2022-09-22T12:42:34.061Z</time>
      </trkpt>
      <trkpt lat="44.90085" lon="5.40033">
        <ele>1088</ele>
        <time>2022-09-22T12:42:35.061Z</time>
      </trkpt>
      <trkpt lat="44.90083" lon="5.40034">
        <ele>1089</ele>
        <time>2022-09-22T12:42:36.061Z</time>
      </trkpt>
      <trkpt lat="44.90082" lon="5.40036">
        <ele>1090</ele>
        <time>2022-09-22T12:42:37.061Z</time>
      </trkpt>
      <trkpt lat="44.9008" lon="5.40037">
        <ele>1090</ele>
        <time>2022-09-22T12:42:38.061Z</time>
      </trkpt>
      <trkpt lat="44.90079" lon="5.40037">
        <ele>1091</ele>
        <time>2022-09-22T12:42:39.061Z</time>
      </trkpt>
      <trkpt lat="44.90077" lon="5.40038">
        <ele>1091</ele>
        <time>2022-09-22T12:42:40.061Z</time>
      </trkpt>
      <trkpt lat="44.90075" lon="5.4004">
        <ele>1091</ele>
        <time>2022-09-22T12:42:41.061Z</time>
      </trkpt>
      <trkpt lat="44.90074" lon="5.40041">
        <ele>1092</ele>
        <time>2022-09-22T12:42:42.061Z</time>
      </trkpt>
      <trkpt lat="44.90072" lon="5.40042">
        <ele>1093</ele>
        <time>2022-09-22T12:42:43.061Z</time>
      </trkpt>
      <trkpt lat="44.90071" lon="5.40043">
        <ele>1093</ele>
        <time>2022-09-22T12:42:44.061Z</time>
      </trkpt>
      <trkpt lat="44.9007" lon="5.40044">
        <ele>1094</ele>
        <time>2022-09-22T12:42:45.061Z</time>
      </trkpt>
      <trkpt lat="44.90069" lon="5.40045">
        <ele>1094</ele>
        <time>2022-09-22T12:42:46.061Z</time>
      </trkpt>
      <trkpt lat="44.90068" lon="5.40046">
        <ele>1094</ele>
        <time>2022-09-22T12:42:47.061Z</time>
      </trkpt>
      <trkpt lat="44.90067" lon="5.40047">
        <ele>1095</ele>
        <time>2022-09-22T12:42:48.061Z</time>
      </trkpt>
      <trkpt lat="44.90066" lon="5.40048">
        <ele>1096</ele>
        <time>2022-09-22T12:42:49.061Z</time>
      </trkpt>
      <trkpt lat="44.90065" lon="5.4005">
        <ele>1096</ele>
        <time>2022-09-22T12:42:50.061Z</time>
      </trkpt>
      <trkpt lat="44.90064" lon="5.40051">
        <ele>1096</ele>
        <time>2022-09-22T12:42:51.061Z</time>
      </trkpt>
      <trkpt lat="44.90063" lon="5.40052">
        <ele>1097</ele>
        <time>2022-09-22T12:42:52.061Z</time>
      </trkpt>
      <trkpt lat="44.90062" lon="5.40054">
        <ele>1097</ele>
        <time>2022-09-22T12:42:53.061Z</time>
      </trkpt>
      <trkpt lat="44.9006" lon="5.40055">
        <ele>1098</ele>
        <time>2022-09-22T12:42:54.061Z</time>
      </trkpt>
      <trkpt lat="44.90059" lon="5.40056">
        <ele>1099</ele>
        <time>2022-09-22T12:42:55.061Z</time>
      </trkpt>
      <trkpt lat="44.90058" lon="5.40057">
        <ele>1099</ele>
        <time>2022-09-22T12:42:56.060Z</time>
      </trkpt>
      <trkpt lat="44.90056" lon="5.40058">
        <ele>1100</ele>
        <time>2022-09-22T12:42:57.060Z</time>
      </trkpt>
      <trkpt lat="44.90055" lon="5.40059">
        <ele>1100</ele>
        <time>2022-09-22T12:42:58.061Z</time>
      </trkpt>
      <trkpt lat="44.90054" lon="5.4006">
        <ele>1100</ele>
        <time>2022-09-22T12:42:59.061Z</time>
      </trkpt>
      <trkpt lat="44.90052" lon="5.40061">
        <ele>1101</ele>
        <time>2022-09-22T12:43:00.061Z</time>
      </trkpt>
      <trkpt lat="44.90051" lon="5.40062">
        <ele>1101</ele>
        <time>2022-09-22T12:43:01.061Z</time>
      </trkpt>
      <trkpt lat="44.9005" lon="5.40063">
        <ele>1102</ele>
        <time>2022-09-22T12:43:02.060Z</time>
      </trkpt>
      <trkpt lat="44.90049" lon="5.40063">
        <ele>1102</ele>
        <time>2022-09-22T12:43:03.060Z</time>
      </trkpt>
      <trkpt lat="44.90048" lon="5.40064">
        <ele>1102</ele>
        <time>2022-09-22T12:43:04.060Z</time>
      </trkpt>
      <trkpt lat="44.90048" lon="5.40066">
        <ele>1102</ele>
        <time>2022-09-22T12:43:05.061Z</time>
      </trkpt>
      <trkpt lat="44.90047" lon="5.40067">
        <ele>1103</ele>
        <time>2022-09-22T12:43:06.061Z</time>
      </trkpt>
      <trkpt lat="44.90046" lon="5.40068">
        <ele>1103</ele>
        <time>2022-09-22T12:43:07.061Z</time>
      </trkpt>
      <trkpt lat="44.90045" lon="5.4007">
        <ele>1103</ele>
        <time>2022-09-22T12:43:08.061Z</time>
      </trkpt>
      <trkpt lat="44.90044" lon="5.40072">
        <ele>1104</ele>
        <time>2022-09-22T12:43:09.061Z</time>
      </trkpt>
      <trkpt lat="44.90044" lon="5.40074">
        <ele>1104</ele>
        <time>2022-09-22T12:43:10.060Z</time>
      </trkpt>
      <trkpt lat="44.90044" lon="5.40075">
        <ele>1104</ele>
        <time>2022-09-22T12:43:11.061Z</time>
      </trkpt>
      <trkpt lat="44.90044" lon="5.40077">
        <ele>1104</ele>
        <time>2022-09-22T12:43:12.061Z</time>
      </trkpt>
      <trkpt lat="44.90044" lon="5.40079">
        <ele>1104</ele>
        <time>2022-09-22T12:43:13.061Z</time>
      </trkpt>
      <trkpt lat="44.90045" lon="5.40081">
        <ele>1104</ele>
        <time>2022-09-22T12:43:14.061Z</time>
      </trkpt>
      <trkpt lat="44.90045" lon="5.40083">
        <ele>1103</ele>
        <time>2022-09-22T12:43:15.061Z</time>
      </trkpt>
      <trkpt lat="44.90047" lon="5.40085">
        <ele>1103</ele>
        <time>2022-09-22T12:43:16.061Z</time>
      </trkpt>
      <trkpt lat="44.90048" lon="5.40086">
        <ele>1103</ele>
        <time>2022-09-22T12:43:17.061Z</time>
      </trkpt>
      <trkpt lat="44.90049" lon="5.40087">
        <ele>1103</ele>
        <time>2022-09-22T12:43:18.061Z</time>
      </trkpt>
      <trkpt lat="44.9005" lon="5.40087">
        <ele>1103</ele>
        <time>2022-09-22T12:43:19.061Z</time>
      </trkpt>
      <trkpt lat="44.90052" lon="5.40088">
        <ele>1103</ele>
        <time>2022-09-22T12:43:20.061Z</time>
      </trkpt>
      <trkpt lat="44.90054" lon="5.40089">
        <ele>1103</ele>
        <time>2022-09-22T12:43:21.061Z</time>
      </trkpt>
      <trkpt lat="44.90056" lon="5.40089">
        <ele>1103</ele>
        <time>2022-09-22T12:43:22.061Z</time>
      </trkpt>
      <trkpt lat="44.90057" lon="5.4009">
        <ele>1103</ele>
        <time>2022-09-22T12:43:23.060Z</time>
      </trkpt>
      <trkpt lat="44.90057" lon="5.4009">
        <ele>1103</ele>
        <time>2022-09-22T12:43:24.061Z</time>
      </trkpt>
      <trkpt lat="44.90059" lon="5.4009">
        <ele>1104</ele>
        <time>2022-09-22T12:43:25.061Z</time>
      </trkpt>
      <trkpt lat="44.9006" lon="5.40091">
        <ele>1104</ele>
        <time>2022-09-22T12:43:26.061Z</time>
      </trkpt>
      <trkpt lat="44.90062" lon="5.40092">
        <ele>1104</ele>
        <time>2022-09-22T12:43:27.061Z</time>
      </trkpt>
      <trkpt lat="44.90063" lon="5.40092">
        <ele>1105</ele>
        <time>2022-09-22T12:43:28.061Z</time>
      </trkpt>
      <trkpt lat="44.90065" lon="5.40094">
        <ele>1105</ele>
        <time>2022-09-22T12:43:29.060Z</time>
      </trkpt>
      <trkpt lat="44.90066" lon="5.40095">
        <ele>1105</ele>
        <time>2022-09-22T12:43:30.061Z</time>
      </trkpt>
      <trkpt lat="44.90067" lon="5.40096">
        <ele>1105</ele>
        <time>2022-09-22T12:43:31.061Z</time>
      </trkpt>
      <trkpt lat="44.90068" lon="5.40097">
        <ele>1104</ele>
        <time>2022-09-22T12:43:32.061Z</time>
      </trkpt>
      <trkpt lat="44.9007" lon="5.40098">
        <ele>1105</ele>
        <time>2022-09-22T12:43:33.061Z</time>
      </trkpt>
      <trkpt lat="44.90072" lon="5.40099">
        <ele>1105</ele>
        <time>2022-09-22T12:43:34.061Z</time>
      </trkpt>
      <trkpt lat="44.90074" lon="5.401">
        <ele>1105</ele>
        <time>2022-09-22T12:43:35.061Z</time>
      </trkpt>
      <trkpt lat="44.90075" lon="5.40101">
        <ele>1105</ele>
        <time>2022-09-22T12:43:36.061Z</time>
      </trkpt>
      <trkpt lat="44.90076" lon="5.40102">
        <ele>1105</ele>
        <time>2022-09-22T12:43:37.060Z</time>
      </trkpt>
      <trkpt lat="44.90078" lon="5.40103">
        <ele>1104</ele>
        <time>2022-09-22T12:43:38.061Z</time>
      </trkpt>
      <trkpt lat="44.90079" lon="5.40104">
        <ele>1104</ele>
        <time>2022-09-22T12:43:39.061Z</time>
      </trkpt>
      <trkpt lat="44.90081" lon="5.40104">
        <ele>1104</ele>
        <time>2022-09-22T12:43:40.061Z</time>
      </trkpt>
      <trkpt lat="44.90081" lon="5.40105">
        <ele>1104</ele>
        <time>2022-09-22T12:43:41.061Z</time>
      </trkpt>
      <trkpt lat="44.90082" lon="5.40106">
        <ele>1104</ele>
        <time>2022-09-22T12:43:42.061Z</time>
      </trkpt>
      <trkpt lat="44.90083" lon="5.40107">
        <ele>1104</ele>
        <time>2022-09-22T12:43:43.060Z</time>
      </trkpt>
      <trkpt lat="44.90085" lon="5.40108">
        <ele>1104</ele>
        <time>2022-09-22T12:43:44.061Z</time>
      </trkpt>
      <trkpt lat="44.90086" lon="5.40109">
        <ele>1104</ele>
        <time>2022-09-22T12:43:45.061Z</time>
      </trkpt>
      <trkpt lat="44.90087" lon="5.4011">
        <ele>1104</ele>
        <time>2022-09-22T12:43:46.061Z</time>
      </trkpt>
      <trkpt lat="44.90089" lon="5.40111">
        <ele>1104</ele>
        <time>2022-09-22T12:43:47.061Z</time>
      </trkpt>
      <trkpt lat="44.9009" lon="5.40111">
        <ele>1104</ele>
        <time>2022-09-22T12:43:48.061Z</time>
      </trkpt>
      <trkpt lat="44.90091" lon="5.40112">
        <ele>1104</ele>
        <time>2022-09-22T12:43:49.061Z</time>
      </trkpt>
      <trkpt lat="44.90092" lon="5.40113">
        <ele>1103</ele>
        <time>2022-09-22T12:43:50.061Z</time>
      </trkpt>
      <trkpt lat="44.90093" lon="5.40114">
        <ele>1103</ele>
        <time>2022-09-22T12:43:51.061Z</time>
      </trkpt>
      <trkpt lat="44.90095" lon="5.40115">
        <ele>1103</ele>
        <time>2022-09-22T12:43:52.061Z</time>
      </trkpt>
      <trkpt lat="44.90096" lon="5.40116">
        <ele>1103</ele>
        <time>2022-09-22T12:43:53.061Z</time>
      </trkpt>
      <trkpt lat="44.90097" lon="5.40117">
        <ele>1103</ele>
        <time>2022-09-22T12:43:54.061Z</time>
      </trkpt>
      <trkpt lat="44.90099" lon="5.40118">
        <ele>1103</ele>
        <time>2022-09-22T12:43:55.060Z</time>
      </trkpt>
      <trkpt lat="44.901" lon="5.40119">
        <ele>1103</ele>
        <time>2022-09-22T12:43:56.061Z</time>
      </trkpt>
      <trkpt lat="44.90102" lon="5.40121">
        <ele>1104</ele>
        <time>2022-09-22T12:43:57.060Z</time>
      </trkpt>
      <trkpt lat="44.90103" lon="5.40122">
        <ele>1104</ele>
        <time>2022-09-22T12:43:58.060Z</time>
      </trkpt>
      <trkpt lat="44.90104" lon="5.40123">
        <ele>1104</ele>
        <time>2022-09-22T12:43:59.060Z</time>
      </trkpt>
      <trkpt lat="44.90105" lon="5.40125">
        <ele>1104</ele>
        <time>2022-09-22T12:44:00.060Z</time>
      </trkpt>
      <trkpt lat="44.90105" lon="5.40126">
        <ele>1105</ele>
        <time>2022-09-22T12:44:01.060Z</time>
      </trkpt>
      <trkpt lat="44.90105" lon="5.40126">
        <ele>1105</ele>
        <time>2022-09-22T12:44:02.061Z</time>
      </trkpt>
      <trkpt lat="44.90105" lon="5.40126">
        <ele>1106</ele>
        <time>2022-09-22T12:44:03.061Z</time>
      </trkpt>
      <trkpt lat="44.90107" lon="5.4013">
        <ele>1106</ele>
        <time>2022-09-22T12:44:21.204Z</time>
      </trkpt>
      <trkpt lat="44.90108" lon="5.40131">
        <ele>1106</ele>
        <time>2022-09-22T12:44:22.204Z</time>
      </trkpt>
      <trkpt lat="44.9011" lon="5.40133">
        <ele>1106</ele>
        <time>2022-09-22T12:44:23.204Z</time>
      </trkpt>
      <trkpt lat="44.90111" lon="5.40135">
        <ele>1106</ele>
        <time>2022-09-22T12:44:24.204Z</time>
      </trkpt>
      <trkpt lat="44.90113" lon="5.40136">
        <ele>1105</ele>
        <time>2022-09-22T12:44:25.204Z</time>
      </trkpt>
      <trkpt lat="44.90114" lon="5.40138">
        <ele>1105</ele>
        <time>2022-09-22T12:44:26.203Z</time>
      </trkpt>
      <trkpt lat="44.90115" lon="5.4014">
        <ele>1105</ele>
        <time>2022-09-22T12:44:27.203Z</time>
      </trkpt>
      <trkpt lat="44.90116" lon="5.40143">
        <ele>1106</ele>
        <time>2022-09-22T12:44:28.204Z</time>
      </trkpt>
      <trkpt lat="44.90117" lon="5.40144">
        <ele>1106</ele>
        <time>2022-09-22T12:44:29.204Z</time>
      </trkpt>
      <trkpt lat="44.90118" lon="5.40146">
        <ele>1106</ele>
        <time>2022-09-22T12:44:30.203Z</time>
      </trkpt>
      <trkpt lat="44.90119" lon="5.40147">
        <ele>1106</ele>
        <time>2022-09-22T12:44:31.203Z</time>
      </trkpt>
      <trkpt lat="44.9012" lon="5.40149">
        <ele>1106</ele>
        <time>2022-09-22T12:44:32.204Z</time>
      </trkpt>
      <trkpt lat="44.90121" lon="5.4015">
        <ele>1106</ele>
        <time>2022-09-22T12:44:33.203Z</time>
      </trkpt>
      <trkpt lat="44.90122" lon="5.40152">
        <ele>1106</ele>
        <time>2022-09-22T12:44:34.203Z</time>
      </trkpt>
      <trkpt lat="44.90122" lon="5.40154">
        <ele>1106</ele>
        <time>2022-09-22T12:44:35.204Z</time>
      </trkpt>
      <trkpt lat="44.90123" lon="5.40156">
        <ele>1106</ele>
        <time>2022-09-22T12:44:36.203Z</time>
      </trkpt>
      <trkpt lat="44.90124" lon="5.40157">
        <ele>1106</ele>
        <time>2022-09-22T12:44:37.203Z</time>
      </trkpt>
      <trkpt lat="44.90126" lon="5.40158">
        <ele>1106</ele>
        <time>2022-09-22T12:44:38.204Z</time>
      </trkpt>
      <trkpt lat="44.90127" lon="5.40159">
        <ele>1106</ele>
        <time>2022-09-22T12:44:39.204Z</time>
      </trkpt>
      <trkpt lat="44.90128" lon="5.40161">
        <ele>1107</ele>
        <time>2022-09-22T12:44:40.204Z</time>
      </trkpt>
      <trkpt lat="44.90129" lon="5.40163">
        <ele>1107</ele>
        <time>2022-09-22T12:44:41.204Z</time>
      </trkpt>
      <trkpt lat="44.9013" lon="5.40164">
        <ele>1107</ele>
        <time>2022-09-22T12:44:42.204Z</time>
      </trkpt>
      <trkpt lat="44.90131" lon="5.40165">
        <ele>1106</ele>
        <time>2022-09-22T12:44:43.204Z</time>
      </trkpt>
      <trkpt lat="44.90132" lon="5.40167">
        <ele>1106</ele>
        <time>2022-09-22T12:44:44.204Z</time>
      </trkpt>
      <trkpt lat="44.90134" lon="5.40168">
        <ele>1106</ele>
        <time>2022-09-22T12:44:45.204Z</time>
      </trkpt>
      <trkpt lat="44.90135" lon="5.40169">
        <ele>1107</ele>
        <time>2022-09-22T12:44:46.204Z</time>
      </trkpt>
      <trkpt lat="44.90136" lon="5.4017">
        <ele>1107</ele>
        <time>2022-09-22T12:44:47.204Z</time>
      </trkpt>
      <trkpt lat="44.90137" lon="5.40172">
        <ele>1107</ele>
        <time>2022-09-22T12:44:48.203Z</time>
      </trkpt>
      <trkpt lat="44.90139" lon="5.40173">
        <ele>1107</ele>
        <time>2022-09-22T12:44:49.204Z</time>
      </trkpt>
      <trkpt lat="44.9014" lon="5.40175">
        <ele>1107</ele>
        <time>2022-09-22T12:44:50.204Z</time>
      </trkpt>
      <trkpt lat="44.90141" lon="5.40176">
        <ele>1108</ele>
        <time>2022-09-22T12:44:51.204Z</time>
      </trkpt>
      <trkpt lat="44.90143" lon="5.40177">
        <ele>1109</ele>
        <time>2022-09-22T12:44:52.204Z</time>
      </trkpt>
      <trkpt lat="44.90144" lon="5.40178">
        <ele>1109</ele>
        <time>2022-09-22T12:44:53.203Z</time>
      </trkpt>
      <trkpt lat="44.90145" lon="5.4018">
        <ele>1109</ele>
        <time>2022-09-22T12:44:54.204Z</time>
      </trkpt>
      <trkpt lat="44.90146" lon="5.40182">
        <ele>1110</ele>
        <time>2022-09-22T12:44:55.204Z</time>
      </trkpt>
      <trkpt lat="44.90148" lon="5.40183">
        <ele>1110</ele>
        <time>2022-09-22T12:44:56.204Z</time>
      </trkpt>
      <trkpt lat="44.90149" lon="5.40184">
        <ele>1110</ele>
        <time>2022-09-22T12:44:57.204Z</time>
      </trkpt>
      <trkpt lat="44.9015" lon="5.40185">
        <ele>1110</ele>
        <time>2022-09-22T12:44:58.204Z</time>
      </trkpt>
      <trkpt lat="44.90152" lon="5.40187">
        <ele>1110</ele>
        <time>2022-09-22T12:44:59.203Z</time>
      </trkpt>
      <trkpt lat="44.90153" lon="5.40188">
        <ele>1110</ele>
        <time>2022-09-22T12:45:00.203Z</time>
      </trkpt>
      <trkpt lat="44.90154" lon="5.40189">
        <ele>1109</ele>
        <time>2022-09-22T12:45:01.204Z</time>
      </trkpt>
      <trkpt lat="44.90155" lon="5.40191">
        <ele>1109</ele>
        <time>2022-09-22T12:45:02.204Z</time>
      </trkpt>
      <trkpt lat="44.90156" lon="5.40193">
        <ele>1109</ele>
        <time>2022-09-22T12:45:03.204Z</time>
      </trkpt>
      <trkpt lat="44.90157" lon="5.40194">
        <ele>1109</ele>
        <time>2022-09-22T12:45:04.204Z</time>
      </trkpt>
      <trkpt lat="44.90159" lon="5.40195">
        <ele>1109</ele>
        <time>2022-09-22T12:45:05.204Z</time>
      </trkpt>
      <trkpt lat="44.9016" lon="5.40196">
        <ele>1110</ele>
        <time>2022-09-22T12:45:06.204Z</time>
      </trkpt>
      <trkpt lat="44.90161" lon="5.40197">
        <ele>1110</ele>
        <time>2022-09-22T12:45:07.204Z</time>
      </trkpt>
      <trkpt lat="44.90162" lon="5.40198">
        <ele>1110</ele>
        <time>2022-09-22T12:45:08.204Z</time>
      </trkpt>
      <trkpt lat="44.90163" lon="5.40199">
        <ele>1111</ele>
        <time>2022-09-22T12:45:09.204Z</time>
      </trkpt>
      <trkpt lat="44.90164" lon="5.40201">
        <ele>1111</ele>
        <time>2022-09-22T12:45:10.204Z</time>
      </trkpt>
      <trkpt lat="44.90165" lon="5.40203">
        <ele>1111</ele>
        <time>2022-09-22T12:45:11.203Z</time>
      </trkpt>
      <trkpt lat="44.90167" lon="5.40204">
        <ele>1111</ele>
        <time>2022-09-22T12:45:12.204Z</time>
      </trkpt>
      <trkpt lat="44.90168" lon="5.40206">
        <ele>1111</ele>
        <time>2022-09-22T12:45:13.204Z</time>
      </trkpt>
      <trkpt lat="44.90169" lon="5.40208">
        <ele>1111</ele>
        <time>2022-09-22T12:45:14.204Z</time>
      </trkpt>
      <trkpt lat="44.9017" lon="5.40209">
        <ele>1111</ele>
        <time>2022-09-22T12:45:15.204Z</time>
      </trkpt>
      <trkpt lat="44.90171" lon="5.40211">
        <ele>1111</ele>
        <time>2022-09-22T12:45:16.204Z</time>
      </trkpt>
      <trkpt lat="44.90173" lon="5.40213">
        <ele>1111</ele>
        <time>2022-09-22T12:45:17.204Z</time>
      </trkpt>
      <trkpt lat="44.90174" lon="5.40215">
        <ele>1112</ele>
        <time>2022-09-22T12:45:18.204Z</time>
      </trkpt>
      <trkpt lat="44.90175" lon="5.40216">
        <ele>1112</ele>
        <time>2022-09-22T12:45:19.204Z</time>
      </trkpt>
      <trkpt lat="44.90176" lon="5.40218">
        <ele>1111</ele>
        <time>2022-09-22T12:45:20.204Z</time>
      </trkpt>
      <trkpt lat="44.90177" lon="5.4022">
        <ele>1111</ele>
        <time>2022-09-22T12:45:21.204Z</time>
      </trkpt>
      <trkpt lat="44.90178" lon="5.40222">
        <ele>1111</ele>
        <time>2022-09-22T12:45:22.204Z</time>
      </trkpt>
      <trkpt lat="44.90179" lon="5.40223">
        <ele>1111</ele>
        <time>2022-09-22T12:45:23.204Z</time>
      </trkpt>
      <trkpt lat="44.9018" lon="5.40225">
        <ele>1111</ele>
        <time>2022-09-22T12:45:24.204Z</time>
      </trkpt>
      <trkpt lat="44.90181" lon="5.40227">
        <ele>1111</ele>
        <time>2022-09-22T12:45:25.203Z</time>
      </trkpt>
      <trkpt lat="44.90182" lon="5.40228">
        <ele>1111</ele>
        <time>2022-09-22T12:45:26.204Z</time>
      </trkpt>
      <trkpt lat="44.90183" lon="5.4023">
        <ele>1112</ele>
        <time>2022-09-22T12:45:27.203Z</time>
      </trkpt>
      <trkpt lat="44.90184" lon="5.40232">
        <ele>1112</ele>
        <time>2022-09-22T12:45:28.204Z</time>
      </trkpt>
      <trkpt lat="44.90185" lon="5.40234">
        <ele>1112</ele>
        <time>2022-09-22T12:45:29.204Z</time>
      </trkpt>
      <trkpt lat="44.90186" lon="5.40236">
        <ele>1112</ele>
        <time>2022-09-22T12:45:30.204Z</time>
      </trkpt>
      <trkpt lat="44.90186" lon="5.40238">
        <ele>1112</ele>
        <time>2022-09-22T12:45:31.203Z</time>
      </trkpt>
      <trkpt lat="44.90188" lon="5.4024">
        <ele>1112</ele>
        <time>2022-09-22T12:45:32.204Z</time>
      </trkpt>
      <trkpt lat="44.90189" lon="5.40241">
        <ele>1113</ele>
        <time>2022-09-22T12:45:33.204Z</time>
      </trkpt>
      <trkpt lat="44.9019" lon="5.40244">
        <ele>1113</ele>
        <time>2022-09-22T12:45:34.204Z</time>
      </trkpt>
      <trkpt lat="44.90191" lon="5.40246">
        <ele>1113</ele>
        <time>2022-09-22T12:45:35.203Z</time>
      </trkpt>
      <trkpt lat="44.90191" lon="5.40247">
        <ele>1113</ele>
        <time>2022-09-22T12:45:36.204Z</time>
      </trkpt>
      <trkpt lat="44.90191" lon="5.4025">
        <ele>1113</ele>
        <time>2022-09-22T12:45:37.204Z</time>
      </trkpt>
      <trkpt lat="44.90191" lon="5.40252">
        <ele>1113</ele>
        <time>2022-09-22T12:45:38.204Z</time>
      </trkpt>
      <trkpt lat="44.90192" lon="5.40255">
        <ele>1113</ele>
        <time>2022-09-22T12:45:39.204Z</time>
      </trkpt>
      <trkpt lat="44.90192" lon="5.40256">
        <ele>1114</ele>
        <time>2022-09-22T12:45:40.204Z</time>
      </trkpt>
      <trkpt lat="44.90191" lon="5.40258">
        <ele>1114</ele>
        <time>2022-09-22T12:45:41.204Z</time>
      </trkpt>
      <trkpt lat="44.90191" lon="5.4026">
        <ele>1114</ele>
        <time>2022-09-22T12:45:42.204Z</time>
      </trkpt>
      <trkpt lat="44.90191" lon="5.40262">
        <ele>1114</ele>
        <time>2022-09-22T12:45:43.204Z</time>
      </trkpt>
      <trkpt lat="44.90191" lon="5.40264">
        <ele>1115</ele>
        <time>2022-09-22T12:45:44.204Z</time>
      </trkpt>
      <trkpt lat="44.90191" lon="5.40265">
        <ele>1115</ele>
        <time>2022-09-22T12:45:45.204Z</time>
      </trkpt>
      <trkpt lat="44.90192" lon="5.40267">
        <ele>1115</ele>
        <time>2022-09-22T12:45:46.204Z</time>
      </trkpt>
      <trkpt lat="44.90193" lon="5.40267">
        <ele>1115</ele>
        <time>2022-09-22T12:45:47.203Z</time>
      </trkpt>
      <trkpt lat="44.90195" lon="5.40268">
        <ele>1115</ele>
        <time>2022-09-22T12:45:48.204Z</time>
      </trkpt>
      <trkpt lat="44.90197" lon="5.40269">
        <ele>1115</ele>
        <time>2022-09-22T12:45:49.204Z</time>
      </trkpt>
      <trkpt lat="44.90198" lon="5.40269">
        <ele>1115</ele>
        <time>2022-09-22T12:45:50.203Z</time>
      </trkpt>
      <trkpt lat="44.90201" lon="5.40269">
        <ele>1116</ele>
        <time>2022-09-22T12:45:51.204Z</time>
      </trkpt>
      <trkpt lat="44.90204" lon="5.4027">
        <ele>1116</ele>
        <time>2022-09-22T12:45:52.204Z</time>
      </trkpt>
      <trkpt lat="44.90206" lon="5.4027">
        <ele>1116</ele>
        <time>2022-09-22T12:45:53.204Z</time>
      </trkpt>
      <trkpt lat="44.90208" lon="5.4027">
        <ele>1116</ele>
        <time>2022-09-22T12:45:54.204Z</time>
      </trkpt>
      <trkpt lat="44.9021" lon="5.40271">
        <ele>1116</ele>
        <time>2022-09-22T12:45:55.204Z</time>
      </trkpt>
      <trkpt lat="44.90212" lon="5.40271">
        <ele>1116</ele>
        <time>2022-09-22T12:45:56.204Z</time>
      </trkpt>
      <trkpt lat="44.90214" lon="5.40272">
        <ele>1116</ele>
        <time>2022-09-22T12:45:57.204Z</time>
      </trkpt>
      <trkpt lat="44.90216" lon="5.40272">
        <ele>1116</ele>
        <time>2022-09-22T12:45:58.204Z</time>
      </trkpt>
      <trkpt lat="44.90218" lon="5.40273">
        <ele>1115</ele>
        <time>2022-09-22T12:45:59.204Z</time>
      </trkpt>
      <trkpt lat="44.9022" lon="5.40273">
        <ele>1115</ele>
        <time>2022-09-22T12:46:00.204Z</time>
      </trkpt>
      <trkpt lat="44.90223" lon="5.40274">
        <ele>1115</ele>
        <time>2022-09-22T12:46:01.203Z</time>
      </trkpt>
      <trkpt lat="44.90225" lon="5.40274">
        <ele>1115</ele>
        <time>2022-09-22T12:46:02.204Z</time>
      </trkpt>
      <trkpt lat="44.90228" lon="5.40274">
        <ele>1114</ele>
        <time>2022-09-22T12:46:03.203Z</time>
      </trkpt>
      <trkpt lat="44.9023" lon="5.40275">
        <ele>1115</ele>
        <time>2022-09-22T12:46:04.204Z</time>
      </trkpt>
      <trkpt lat="44.90233" lon="5.40276">
        <ele>1115</ele>
        <time>2022-09-22T12:46:05.203Z</time>
      </trkpt>
      <trkpt lat="44.90235" lon="5.40276">
        <ele>1115</ele>
        <time>2022-09-22T12:46:06.204Z</time>
      </trkpt>
      <trkpt lat="44.90238" lon="5.40277">
        <ele>1115</ele>
        <time>2022-09-22T12:46:07.204Z</time>
      </trkpt>
      <trkpt lat="44.90241" lon="5.40277">
        <ele>1115</ele>
        <time>2022-09-22T12:46:08.204Z</time>
      </trkpt>
      <trkpt lat="44.90243" lon="5.40277">
        <ele>1115</ele>
        <time>2022-09-22T12:46:09.204Z</time>
      </trkpt>
      <trkpt lat="44.90247" lon="5.40278">
        <ele>1115</ele>
        <time>2022-09-22T12:46:10.203Z</time>
      </trkpt>
      <trkpt lat="44.90251" lon="5.40279">
        <ele>1115</ele>
        <time>2022-09-22T12:46:11.204Z</time>
      </trkpt>
      <trkpt lat="44.90255" lon="5.4028">
        <ele>1114</ele>
        <time>2022-09-22T12:46:12.204Z</time>
      </trkpt>
      <trkpt lat="44.9026" lon="5.40281">
        <ele>1114</ele>
        <time>2022-09-22T12:46:13.204Z</time>
      </trkpt>
      <trkpt lat="44.90265" lon="5.40282">
        <ele>1113</ele>
        <time>2022-09-22T12:46:14.203Z</time>
      </trkpt>
      <trkpt lat="44.90271" lon="5.40284">
        <ele>1113</ele>
        <time>2022-09-22T12:46:15.204Z</time>
      </trkpt>
      <trkpt lat="44.90277" lon="5.40285">
        <ele>1113</ele>
        <time>2022-09-22T12:46:16.204Z</time>
      </trkpt>
      <trkpt lat="44.90283" lon="5.40285">
        <ele>1113</ele>
        <time>2022-09-22T12:46:17.204Z</time>
      </trkpt>
      <trkpt lat="44.90288" lon="5.40286">
        <ele>1113</ele>
        <time>2022-09-22T12:46:18.204Z</time>
      </trkpt>
      <trkpt lat="44.90296" lon="5.40287">
        <ele>1112</ele>
        <time>2022-09-22T12:46:19.203Z</time>
      </trkpt>
      <trkpt lat="44.90301" lon="5.40288">
        <ele>1112</ele>
        <time>2022-09-22T12:46:20.204Z</time>
      </trkpt>
      <trkpt lat="44.90308" lon="5.40289">
        <ele>1112</ele>
        <time>2022-09-22T12:46:21.204Z</time>
      </trkpt>
      <trkpt lat="44.90315" lon="5.40291">
        <ele>1111</ele>
        <time>2022-09-22T12:46:22.204Z</time>
      </trkpt>
      <trkpt lat="44.90322" lon="5.40294">
        <ele>1111</ele>
        <time>2022-09-22T12:46:23.204Z</time>
      </trkpt>
      <trkpt lat="44.9033" lon="5.40295">
        <ele>1111</ele>
        <time>2022-09-22T12:46:24.204Z</time>
      </trkpt>
      <trkpt lat="44.90339" lon="5.40298">
        <ele>1110</ele>
        <time>2022-09-22T12:46:25.204Z</time>
      </trkpt>
      <trkpt lat="44.90347" lon="5.403">
        <ele>1110</ele>
        <time>2022-09-22T12:46:26.203Z</time>
      </trkpt>
      <trkpt lat="44.90353" lon="5.40302">
        <ele>1110</ele>
        <time>2022-09-22T12:46:27.203Z</time>
      </trkpt>
      <trkpt lat="44.9036" lon="5.40306">
        <ele>1110</ele>
        <time>2022-09-22T12:46:28.203Z</time>
      </trkpt>
      <trkpt lat="44.90367" lon="5.40312">
        <ele>1109</ele>
        <time>2022-09-22T12:46:29.204Z</time>
      </trkpt>
      <trkpt lat="44.90372" lon="5.40319">
        <ele>1109</ele>
        <time>2022-09-22T12:46:30.203Z</time>
      </trkpt>
      <trkpt lat="44.90375" lon="5.40328">
        <ele>1108</ele>
        <time>2022-09-22T12:46:31.204Z</time>
      </trkpt>
      <trkpt lat="44.90377" lon="5.40335">
        <ele>1107</ele>
        <time>2022-09-22T12:46:32.204Z</time>
      </trkpt>
      <trkpt lat="44.90378" lon="5.40348">
        <ele>1106</ele>
        <time>2022-09-22T12:46:33.204Z</time>
      </trkpt>
      <trkpt lat="44.90378" lon="5.4036">
        <ele>1105</ele>
        <time>2022-09-22T12:46:34.204Z</time>
      </trkpt>
      <trkpt lat="44.90378" lon="5.4037">
        <ele>1104</ele>
        <time>2022-09-22T12:46:35.204Z</time>
      </trkpt>
      <trkpt lat="44.90378" lon="5.40384">
        <ele>1103</ele>
        <time>2022-09-22T12:46:36.203Z</time>
      </trkpt>
      <trkpt lat="44.90378" lon="5.40399">
        <ele>1103</ele>
        <time>2022-09-22T12:46:37.203Z</time>
      </trkpt>
      <trkpt lat="44.90378" lon="5.40412">
        <ele>1102</ele>
        <time>2022-09-22T12:46:38.204Z</time>
      </trkpt>
      <trkpt lat="44.90381" lon="5.40425">
        <ele>1102</ele>
        <time>2022-09-22T12:46:39.204Z</time>
      </trkpt>
      <trkpt lat="44.90384" lon="5.40436">
        <ele>1102</ele>
        <time>2022-09-22T12:46:40.203Z</time>
      </trkpt>
      <trkpt lat="44.9039" lon="5.40445">
        <ele>1102</ele>
        <time>2022-09-22T12:46:41.203Z</time>
      </trkpt>
      <trkpt lat="44.90397" lon="5.40452">
        <ele>1101</ele>
        <time>2022-09-22T12:46:42.204Z</time>
      </trkpt>
      <trkpt lat="44.90406" lon="5.40457">
        <ele>1102</ele>
        <time>2022-09-22T12:46:43.204Z</time>
      </trkpt>
      <trkpt lat="44.90414" lon="5.40462">
        <ele>1102</ele>
        <time>2022-09-22T12:46:44.204Z</time>
      </trkpt>
      <trkpt lat="44.90424" lon="5.40467">
        <ele>1102</ele>
        <time>2022-09-22T12:46:45.204Z</time>
      </trkpt>
      <trkpt lat="44.90433" lon="5.40472">
        <ele>1101</ele>
        <time>2022-09-22T12:46:46.204Z</time>
      </trkpt>
      <trkpt lat="44.90443" lon="5.40476">
        <ele>1101</ele>
        <time>2022-09-22T12:46:47.203Z</time>
      </trkpt>
      <trkpt lat="44.90454" lon="5.40477">
        <ele>1101</ele>
        <time>2022-09-22T12:46:48.204Z</time>
      </trkpt>
      <trkpt lat="44.90464" lon="5.40476">
        <ele>1101</ele>
        <time>2022-09-22T12:46:49.204Z</time>
      </trkpt>
      <trkpt lat="44.90474" lon="5.40473">
        <ele>1100</ele>
        <time>2022-09-22T12:46:50.203Z</time>
      </trkpt>
      <trkpt lat="44.90483" lon="5.40468">
        <ele>1100</ele>
        <time>2022-09-22T12:46:51.204Z</time>
      </trkpt>
      <trkpt lat="44.90493" lon="5.40463">
        <ele>1099</ele>
        <time>2022-09-22T12:46:52.204Z</time>
      </trkpt>
      <trkpt lat="44.90504" lon="5.40457">
        <ele>1098</ele>
        <time>2022-09-22T12:46:53.204Z</time>
      </trkpt>
      <trkpt lat="44.90514" lon="5.40452">
        <ele>1097</ele>
        <time>2022-09-22T12:46:54.204Z</time>
      </trkpt>
      <trkpt lat="44.90523" lon="5.40447">
        <ele>1096</ele>
        <time>2022-09-22T12:46:55.203Z</time>
      </trkpt>
      <trkpt lat="44.90532" lon="5.40441">
        <ele>1095</ele>
        <time>2022-09-22T12:46:56.204Z</time>
      </trkpt>
      <trkpt lat="44.9054" lon="5.40434">
        <ele>1094</ele>
        <time>2022-09-22T12:46:57.204Z</time>
      </trkpt>
      <trkpt lat="44.90547" lon="5.40427">
        <ele>1093</ele>
        <time>2022-09-22T12:46:58.204Z</time>
      </trkpt>
      <trkpt lat="44.90553" lon="5.40417">
        <ele>1092</ele>
        <time>2022-09-22T12:46:59.204Z</time>
      </trkpt>
      <trkpt lat="44.90557" lon="5.40408">
        <ele>1092</ele>
        <time>2022-09-22T12:47:00.204Z</time>
      </trkpt>
      <trkpt lat="44.90559" lon="5.404">
        <ele>1091</ele>
        <time>2022-09-22T12:47:01.204Z</time>
      </trkpt>
      <trkpt lat="44.90561" lon="5.40388">
        <ele>1091</ele>
        <time>2022-09-22T12:47:02.204Z</time>
      </trkpt>
      <trkpt lat="44.90561" lon="5.40379">
        <ele>1090</ele>
        <time>2022-09-22T12:47:03.204Z</time>
      </trkpt>
      <trkpt lat="44.90562" lon="5.4037">
        <ele>1089</ele>
        <time>2022-09-22T12:47:04.204Z</time>
      </trkpt>
      <trkpt lat="44.90562" lon="5.40363">
        <ele>1089</ele>
        <time>2022-09-22T12:47:05.204Z</time>
      </trkpt>
      <trkpt lat="44.90562" lon="5.40355">
        <ele>1088</ele>
        <time>2022-09-22T12:47:06.204Z</time>
      </trkpt>
      <trkpt lat="44.90563" lon="5.40348">
        <ele>1088</ele>
        <time>2022-09-22T12:47:07.204Z</time>
      </trkpt>
      <trkpt lat="44.90563" lon="5.40344">
        <ele>1088</ele>
        <time>2022-09-22T12:47:08.204Z</time>
      </trkpt>
      <trkpt lat="44.90564" lon="5.40342">
        <ele>1088</ele>
        <time>2022-09-22T12:47:09.203Z</time>
      </trkpt>
      <trkpt lat="44.90565" lon="5.40341">
        <ele>1087</ele>
        <time>2022-09-22T12:47:10.204Z</time>
      </trkpt>
      <trkpt lat="44.90566" lon="5.4034">
        <ele>1087</ele>
        <time>2022-09-22T12:47:11.204Z</time>
      </trkpt>
      <trkpt lat="44.90566" lon="5.40341">
        <ele>1087</ele>
        <time>2022-09-22T12:47:12.204Z</time>
      </trkpt>
      <trkpt lat="44.90566" lon="5.40342">
        <ele>1087</ele>
        <time>2022-09-22T12:47:13.204Z</time>
      </trkpt>
      <trkpt lat="44.90564" lon="5.40343">
        <ele>1087</ele>
        <time>2022-09-22T12:47:14.204Z</time>
      </trkpt>
      <trkpt lat="44.90563" lon="5.40343">
        <ele>1087</ele>
        <time>2022-09-22T12:47:15.203Z</time>
      </trkpt>
      <trkpt lat="44.90562" lon="5.40343">
        <ele>1088</ele>
        <time>2022-09-22T12:47:16.204Z</time>
      </trkpt>
      <trkpt lat="44.9056" lon="5.40343">
        <ele>1087</ele>
        <time>2022-09-22T12:47:17.204Z</time>
      </trkpt>
      <trkpt lat="44.90559" lon="5.40341">
        <ele>1087</ele>
        <time>2022-09-22T12:47:18.204Z</time>
      </trkpt>
      <trkpt lat="44.90558" lon="5.4034">
        <ele>1087</ele>
        <time>2022-09-22T12:47:19.204Z</time>
      </trkpt>
      <trkpt lat="44.90557" lon="5.40339">
        <ele>1086</ele>
        <time>2022-09-22T12:47:20.204Z</time>
      </trkpt>
      <trkpt lat="44.90556" lon="5.40339">
        <ele>1085</ele>
        <time>2022-09-22T12:47:21.204Z</time>
      </trkpt>
      <trkpt lat="44.90555" lon="5.40338">
        <ele>1084</ele>
        <time>2022-09-22T12:47:22.204Z</time>
      </trkpt>
      <trkpt lat="44.90554" lon="5.40338">
        <ele>1084</ele>
        <time>2022-09-22T12:47:23.204Z</time>
      </trkpt>
      <trkpt lat="44.90556" lon="5.40337">
        <ele>1082</ele>
        <time>2022-09-22T12:47:25.307Z</time>
      </trkpt>
      <trkpt lat="44.90557" lon="5.40337">
        <ele>1082</ele>
        <time>2022-09-22T12:47:26.308Z</time>
      </trkpt>
      <trkpt lat="44.90559" lon="5.40338">
        <ele>1082</ele>
        <time>2022-09-22T12:47:27.308Z</time>
      </trkpt>
      <trkpt lat="44.9056" lon="5.4034">
        <ele>1082</ele>
        <time>2022-09-22T12:47:28.308Z</time>
      </trkpt>
      <trkpt lat="44.90562" lon="5.40341">
        <ele>1082</ele>
        <time>2022-09-22T12:47:29.308Z</time>
      </trkpt>
      <trkpt lat="44.90564" lon="5.40342">
        <ele>1082</ele>
        <time>2022-09-22T12:47:30.308Z</time>
      </trkpt>
      <trkpt lat="44.90565" lon="5.40342">
        <ele>1082</ele>
        <time>2022-09-22T12:47:31.308Z</time>
      </trkpt>
      <trkpt lat="44.90566" lon="5.40343">
        <ele>1081</ele>
        <time>2022-09-22T12:47:32.308Z</time>
      </trkpt>
      <trkpt lat="44.90567" lon="5.40343">
        <ele>1081</ele>
        <time>2022-09-22T12:47:33.308Z</time>
      </trkpt>
      <trkpt lat="44.90568" lon="5.40344">
        <ele>1080</ele>
        <time>2022-09-22T12:47:34.308Z</time>
      </trkpt>
      <trkpt lat="44.90569" lon="5.40345">
        <ele>1080</ele>
        <time>2022-09-22T12:47:35.308Z</time>
      </trkpt>
      <trkpt lat="44.90569" lon="5.40345">
        <ele>1079</ele>
        <time>2022-09-22T12:47:36.308Z</time>
      </trkpt>
      <trkpt lat="44.9057" lon="5.40345">
        <ele>1079</ele>
        <time>2022-09-22T12:47:37.308Z</time>
      </trkpt>
      <trkpt lat="44.90571" lon="5.40345">
        <ele>1079</ele>
        <time>2022-09-22T12:47:38.308Z</time>
      </trkpt>
      <trkpt lat="44.90572" lon="5.40345">
        <ele>1079</ele>
        <time>2022-09-22T12:47:39.308Z</time>
      </trkpt>
      <trkpt lat="44.90573" lon="5.40345">
        <ele>1079</ele>
        <time>2022-09-22T12:47:40.308Z</time>
      </trkpt>
      <trkpt lat="44.90574" lon="5.40344">
        <ele>1080</ele>
        <time>2022-09-22T12:47:41.308Z</time>
      </trkpt>
      <trkpt lat="44.90576" lon="5.40344">
        <ele>1080</ele>
        <time>2022-09-22T12:47:42.308Z</time>
      </trkpt>
      <trkpt lat="44.90578" lon="5.40344">
        <ele>1080</ele>
        <time>2022-09-22T12:47:43.308Z</time>
      </trkpt>
      <trkpt lat="44.90579" lon="5.40345">
        <ele>1080</ele>
        <time>2022-09-22T12:47:44.307Z</time>
      </trkpt>
      <trkpt lat="44.90581" lon="5.40345">
        <ele>1081</ele>
        <time>2022-09-22T12:47:45.308Z</time>
      </trkpt>
      <trkpt lat="44.90582" lon="5.40345">
        <ele>1081</ele>
        <time>2022-09-22T12:47:46.308Z</time>
      </trkpt>
      <trkpt lat="44.90584" lon="5.40346">
        <ele>1081</ele>
        <time>2022-09-22T12:47:47.308Z</time>
      </trkpt>
      <trkpt lat="44.90585" lon="5.40346">
        <ele>1081</ele>
        <time>2022-09-22T12:47:48.308Z</time>
      </trkpt>
      <trkpt lat="44.90587" lon="5.40346">
        <ele>1081</ele>
        <time>2022-09-22T12:47:49.308Z</time>
      </trkpt>
      <trkpt lat="44.90589" lon="5.40347">
        <ele>1080</ele>
        <time>2022-09-22T12:47:50.308Z</time>
      </trkpt>
      <trkpt lat="44.9059" lon="5.40347">
        <ele>1080</ele>
        <time>2022-09-22T12:47:51.308Z</time>
      </trkpt>
      <trkpt lat="44.90592" lon="5.40348">
        <ele>1080</ele>
        <time>2022-09-22T12:47:52.308Z</time>
      </trkpt>
      <trkpt lat="44.90593" lon="5.40349">
        <ele>1080</ele>
        <time>2022-09-22T12:47:53.308Z</time>
      </trkpt>
      <trkpt lat="44.90595" lon="5.40349">
        <ele>1080</ele>
        <time>2022-09-22T12:47:54.308Z</time>
      </trkpt>
      <trkpt lat="44.90596" lon="5.4035">
        <ele>1080</ele>
        <time>2022-09-22T12:47:55.308Z</time>
      </trkpt>
      <trkpt lat="44.90598" lon="5.40351">
        <ele>1081</ele>
        <time>2022-09-22T12:47:56.307Z</time>
      </trkpt>
      <trkpt lat="44.90599" lon="5.40351">
        <ele>1081</ele>
        <time>2022-09-22T12:47:57.308Z</time>
      </trkpt>
      <trkpt lat="44.90601" lon="5.40352">
        <ele>1082</ele>
        <time>2022-09-22T12:47:58.308Z</time>
      </trkpt>
      <trkpt lat="44.90602" lon="5.40352">
        <ele>1082</ele>
        <time>2022-09-22T12:47:59.308Z</time>
      </trkpt>
      <trkpt lat="44.90604" lon="5.40352">
        <ele>1083</ele>
        <time>2022-09-22T12:48:00.308Z</time>
      </trkpt>
      <trkpt lat="44.90606" lon="5.40353">
        <ele>1083</ele>
        <time>2022-09-22T12:48:01.308Z</time>
      </trkpt>
      <trkpt lat="44.90607" lon="5.40353">
        <ele>1083</ele>
        <time>2022-09-22T12:48:02.307Z</time>
      </trkpt>
      <trkpt lat="44.90609" lon="5.40354">
        <ele>1083</ele>
        <time>2022-09-22T12:48:03.308Z</time>
      </trkpt>
      <trkpt lat="44.9061" lon="5.40354">
        <ele>1083</ele>
        <time>2022-09-22T12:48:04.308Z</time>
      </trkpt>
      <trkpt lat="44.90612" lon="5.40355">
        <ele>1083</ele>
        <time>2022-09-22T12:48:05.308Z</time>
      </trkpt>
      <trkpt lat="44.90613" lon="5.40355">
        <ele>1084</ele>
        <time>2022-09-22T12:48:06.308Z</time>
      </trkpt>
      <trkpt lat="44.90615" lon="5.40355">
        <ele>1084</ele>
        <time>2022-09-22T12:48:07.308Z</time>
      </trkpt>
      <trkpt lat="44.90617" lon="5.40355">
        <ele>1084</ele>
        <time>2022-09-22T12:48:08.307Z</time>
      </trkpt>
      <trkpt lat="44.90619" lon="5.40355">
        <ele>1085</ele>
        <time>2022-09-22T12:48:09.308Z</time>
      </trkpt>
      <trkpt lat="44.9062" lon="5.40356">
        <ele>1085</ele>
        <time>2022-09-22T12:48:10.308Z</time>
      </trkpt>
      <trkpt lat="44.90622" lon="5.40356">
        <ele>1085</ele>
        <time>2022-09-22T12:48:11.308Z</time>
      </trkpt>
      <trkpt lat="44.90624" lon="5.40357">
        <ele>1085</ele>
        <time>2022-09-22T12:48:12.308Z</time>
      </trkpt>
      <trkpt lat="44.90626" lon="5.40357">
        <ele>1086</ele>
        <time>2022-09-22T12:48:13.308Z</time>
      </trkpt>
      <trkpt lat="44.90628" lon="5.40357">
        <ele>1086</ele>
        <time>2022-09-22T12:48:14.308Z</time>
      </trkpt>
      <trkpt lat="44.9063" lon="5.40357">
        <ele>1086</ele>
        <time>2022-09-22T12:48:15.308Z</time>
      </trkpt>
      <trkpt lat="44.90631" lon="5.40357">
        <ele>1086</ele>
        <time>2022-09-22T12:48:16.307Z</time>
      </trkpt>
      <trkpt lat="44.90633" lon="5.40358">
        <ele>1086</ele>
        <time>2022-09-22T12:48:17.308Z</time>
      </trkpt>
      <trkpt lat="44.90634" lon="5.40359">
        <ele>1086</ele>
        <time>2022-09-22T12:48:18.308Z</time>
      </trkpt>
      <trkpt lat="44.90636" lon="5.40359">
        <ele>1086</ele>
        <time>2022-09-22T12:48:19.308Z</time>
      </trkpt>
      <trkpt lat="44.90638" lon="5.4036">
        <ele>1086</ele>
        <time>2022-09-22T12:48:20.308Z</time>
      </trkpt>
      <trkpt lat="44.90639" lon="5.4036">
        <ele>1086</ele>
        <time>2022-09-22T12:48:21.308Z</time>
      </trkpt>
      <trkpt lat="44.90641" lon="5.4036">
        <ele>1086</ele>
        <time>2022-09-22T12:48:22.308Z</time>
      </trkpt>
      <trkpt lat="44.90642" lon="5.4036">
        <ele>1087</ele>
        <time>2022-09-22T12:48:23.307Z</time>
      </trkpt>
      <trkpt lat="44.90644" lon="5.40361">
        <ele>1087</ele>
        <time>2022-09-22T12:48:24.308Z</time>
      </trkpt>
      <trkpt lat="44.90646" lon="5.40361">
        <ele>1086</ele>
        <time>2022-09-22T12:48:25.308Z</time>
      </trkpt>
      <trkpt lat="44.90647" lon="5.40361">
        <ele>1087</ele>
        <time>2022-09-22T12:48:26.308Z</time>
      </trkpt>
      <trkpt lat="44.90649" lon="5.40361">
        <ele>1087</ele>
        <time>2022-09-22T12:48:27.308Z</time>
      </trkpt>
      <trkpt lat="44.9065" lon="5.40361">
        <ele>1087</ele>
        <time>2022-09-22T12:48:28.307Z</time>
      </trkpt>
      <trkpt lat="44.90652" lon="5.40361">
        <ele>1087</ele>
        <time>2022-09-22T12:48:29.308Z</time>
      </trkpt>
      <trkpt lat="44.90654" lon="5.40361">
        <ele>1087</ele>
        <time>2022-09-22T12:48:30.308Z</time>
      </trkpt>
      <trkpt lat="44.90655" lon="5.40361">
        <ele>1088</ele>
        <time>2022-09-22T12:48:31.307Z</time>
      </trkpt>
      <trkpt lat="44.90657" lon="5.40361">
        <ele>1088</ele>
        <time>2022-09-22T12:48:32.308Z</time>
      </trkpt>
      <trkpt lat="44.90658" lon="5.40362">
        <ele>1089</ele>
        <time>2022-09-22T12:48:33.307Z</time>
      </trkpt>
      <trkpt lat="44.9066" lon="5.40362">
        <ele>1089</ele>
        <time>2022-09-22T12:48:34.308Z</time>
      </trkpt>
      <trkpt lat="44.90662" lon="5.40362">
        <ele>1089</ele>
        <time>2022-09-22T12:48:35.308Z</time>
      </trkpt>
      <trkpt lat="44.90663" lon="5.40363">
        <ele>1089</ele>
        <time>2022-09-22T12:48:36.307Z</time>
      </trkpt>
      <trkpt lat="44.90665" lon="5.40363">
        <ele>1089</ele>
        <time>2022-09-22T12:48:37.307Z</time>
      </trkpt>
      <trkpt lat="44.90666" lon="5.40363">
        <ele>1089</ele>
        <time>2022-09-22T12:48:38.308Z</time>
      </trkpt>
      <trkpt lat="44.90668" lon="5.40364">
        <ele>1090</ele>
        <time>2022-09-22T12:48:39.308Z</time>
      </trkpt>
      <trkpt lat="44.90669" lon="5.40364">
        <ele>1090</ele>
        <time>2022-09-22T12:48:40.307Z</time>
      </trkpt>
      <trkpt lat="44.90671" lon="5.40364">
        <ele>1090</ele>
        <time>2022-09-22T12:48:41.308Z</time>
      </trkpt>
      <trkpt lat="44.90672" lon="5.40364">
        <ele>1090</ele>
        <time>2022-09-22T12:48:42.308Z</time>
      </trkpt>
      <trkpt lat="44.90674" lon="5.40365">
        <ele>1090</ele>
        <time>2022-09-22T12:48:43.308Z</time>
      </trkpt>
      <trkpt lat="44.90676" lon="5.40365">
        <ele>1090</ele>
        <time>2022-09-22T12:48:44.308Z</time>
      </trkpt>
      <trkpt lat="44.90677" lon="5.40365">
        <ele>1089</ele>
        <time>2022-09-22T12:48:45.308Z</time>
      </trkpt>
      <trkpt lat="44.90679" lon="5.40365">
        <ele>1089</ele>
        <time>2022-09-22T12:48:46.307Z</time>
      </trkpt>
      <trkpt lat="44.90681" lon="5.40365">
        <ele>1089</ele>
        <time>2022-09-22T12:48:47.308Z</time>
      </trkpt>
      <trkpt lat="44.90682" lon="5.40366">
        <ele>1089</ele>
        <time>2022-09-22T12:48:48.308Z</time>
      </trkpt>
      <trkpt lat="44.90684" lon="5.40367">
        <ele>1089</ele>
        <time>2022-09-22T12:48:49.307Z</time>
      </trkpt>
      <trkpt lat="44.90685" lon="5.40368">
        <ele>1090</ele>
        <time>2022-09-22T12:48:50.308Z</time>
      </trkpt>
      <trkpt lat="44.90686" lon="5.40368">
        <ele>1090</ele>
        <time>2022-09-22T12:48:51.307Z</time>
      </trkpt>
      <trkpt lat="44.90687" lon="5.40369">
        <ele>1091</ele>
        <time>2022-09-22T12:48:52.308Z</time>
      </trkpt>
      <trkpt lat="44.90688" lon="5.40369">
        <ele>1091</ele>
        <time>2022-09-22T12:48:53.307Z</time>
      </trkpt>
      <trkpt lat="44.9069" lon="5.4037">
        <ele>1092</ele>
        <time>2022-09-22T12:48:54.308Z</time>
      </trkpt>
      <trkpt lat="44.90691" lon="5.4037">
        <ele>1093</ele>
        <time>2022-09-22T12:48:55.307Z</time>
      </trkpt>
      <trkpt lat="44.90692" lon="5.4037">
        <ele>1094</ele>
        <time>2022-09-22T12:48:56.308Z</time>
      </trkpt>
      <trkpt lat="44.90694" lon="5.40371">
        <ele>1095</ele>
        <time>2022-09-22T12:48:57.307Z</time>
      </trkpt>
      <trkpt lat="44.90696" lon="5.40371">
        <ele>1095</ele>
        <time>2022-09-22T12:48:58.308Z</time>
      </trkpt>
      <trkpt lat="44.90697" lon="5.40372">
        <ele>1095</ele>
        <time>2022-09-22T12:48:59.308Z</time>
      </trkpt>
      <trkpt lat="44.90698" lon="5.40372">
        <ele>1095</ele>
        <time>2022-09-22T12:49:00.308Z</time>
      </trkpt>
      <trkpt lat="44.90699" lon="5.40372">
        <ele>1095</ele>
        <time>2022-09-22T12:49:01.308Z</time>
      </trkpt>
      <trkpt lat="44.90701" lon="5.40373">
        <ele>1096</ele>
        <time>2022-09-22T12:49:02.307Z</time>
      </trkpt>
      <trkpt lat="44.90702" lon="5.40373">
        <ele>1096</ele>
        <time>2022-09-22T12:49:03.308Z</time>
      </trkpt>
      <trkpt lat="44.90703" lon="5.40374">
        <ele>1096</ele>
        <time>2022-09-22T12:49:04.307Z</time>
      </trkpt>
      <trkpt lat="44.90704" lon="5.40374">
        <ele>1096</ele>
        <time>2022-09-22T12:49:05.307Z</time>
      </trkpt>
      <trkpt lat="44.90706" lon="5.40374">
        <ele>1096</ele>
        <time>2022-09-22T12:49:06.308Z</time>
      </trkpt>
      <trkpt lat="44.90707" lon="5.40374">
        <ele>1096</ele>
        <time>2022-09-22T12:49:07.308Z</time>
      </trkpt>
      <trkpt lat="44.90709" lon="5.40375">
        <ele>1096</ele>
        <time>2022-09-22T12:49:08.308Z</time>
      </trkpt>
      <trkpt lat="44.9071" lon="5.40375">
        <ele>1096</ele>
        <time>2022-09-22T12:49:09.307Z</time>
      </trkpt>
      <trkpt lat="44.90712" lon="5.40376">
        <ele>1096</ele>
        <time>2022-09-22T12:49:10.308Z</time>
      </trkpt>
      <trkpt lat="44.90713" lon="5.40376">
        <ele>1096</ele>
        <time>2022-09-22T12:49:11.308Z</time>
      </trkpt>
      <trkpt lat="44.90715" lon="5.40376">
        <ele>1097</ele>
        <time>2022-09-22T12:49:12.308Z</time>
      </trkpt>
      <trkpt lat="44.90717" lon="5.40376">
        <ele>1097</ele>
        <time>2022-09-22T12:49:13.308Z</time>
      </trkpt>
      <trkpt lat="44.90718" lon="5.40377">
        <ele>1097</ele>
        <time>2022-09-22T12:49:14.308Z</time>
      </trkpt>
      <trkpt lat="44.90719" lon="5.40377">
        <ele>1098</ele>
        <time>2022-09-22T12:49:15.307Z</time>
      </trkpt>
      <trkpt lat="44.90721" lon="5.40377">
        <ele>1098</ele>
        <time>2022-09-22T12:49:16.308Z</time>
      </trkpt>
      <trkpt lat="44.90722" lon="5.40378">
        <ele>1098</ele>
        <time>2022-09-22T12:49:17.307Z</time>
      </trkpt>
      <trkpt lat="44.90724" lon="5.40378">
        <ele>1098</ele>
        <time>2022-09-22T12:49:18.308Z</time>
      </trkpt>
      <trkpt lat="44.90725" lon="5.40379">
        <ele>1098</ele>
        <time>2022-09-22T12:49:19.308Z</time>
      </trkpt>
      <trkpt lat="44.90727" lon="5.40379">
        <ele>1098</ele>
        <time>2022-09-22T12:49:20.308Z</time>
      </trkpt>
      <trkpt lat="44.90728" lon="5.4038">
        <ele>1098</ele>
        <time>2022-09-22T12:49:21.308Z</time>
      </trkpt>
      <trkpt lat="44.9073" lon="5.4038">
        <ele>1098</ele>
        <time>2022-09-22T12:49:22.307Z</time>
      </trkpt>
      <trkpt lat="44.90731" lon="5.4038">
        <ele>1098</ele>
        <time>2022-09-22T12:49:23.308Z</time>
      </trkpt>
      <trkpt lat="44.90733" lon="5.40381">
        <ele>1098</ele>
        <time>2022-09-22T12:49:24.307Z</time>
      </trkpt>
      <trkpt lat="44.90734" lon="5.40381">
        <ele>1098</ele>
        <time>2022-09-22T12:49:25.307Z</time>
      </trkpt>
      <trkpt lat="44.90735" lon="5.40381">
        <ele>1099</ele>
        <time>2022-09-22T12:49:26.308Z</time>
      </trkpt>
      <trkpt lat="44.90737" lon="5.40381">
        <ele>1099</ele>
        <time>2022-09-22T12:49:27.308Z</time>
      </trkpt>
      <trkpt lat="44.90738" lon="5.40382">
        <ele>1100</ele>
        <time>2022-09-22T12:49:28.308Z</time>
      </trkpt>
      <trkpt lat="44.9074" lon="5.40382">
        <ele>1100</ele>
        <time>2022-09-22T12:49:29.308Z</time>
      </trkpt>
      <trkpt lat="44.90741" lon="5.40382">
        <ele>1099</ele>
        <time>2022-09-22T12:49:30.308Z</time>
      </trkpt>
      <trkpt lat="44.90743" lon="5.40382">
        <ele>1099</ele>
        <time>2022-09-22T12:49:31.307Z</time>
      </trkpt>
      <trkpt lat="44.90745" lon="5.40382">
        <ele>1099</ele>
        <time>2022-09-22T12:49:32.307Z</time>
      </trkpt>
      <trkpt lat="44.90746" lon="5.40382">
        <ele>1099</ele>
        <time>2022-09-22T12:49:33.307Z</time>
      </trkpt>
      <trkpt lat="44.90748" lon="5.40383">
        <ele>1099</ele>
        <time>2022-09-22T12:49:34.308Z</time>
      </trkpt>
      <trkpt lat="44.90749" lon="5.40383">
        <ele>1099</ele>
        <time>2022-09-22T12:49:35.307Z</time>
      </trkpt>
      <trkpt lat="44.90751" lon="5.40383">
        <ele>1099</ele>
        <time>2022-09-22T12:49:36.308Z</time>
      </trkpt>
      <trkpt lat="44.90752" lon="5.40383">
        <ele>1099</ele>
        <time>2022-09-22T12:49:37.308Z</time>
      </trkpt>
      <trkpt lat="44.90754" lon="5.40383">
        <ele>1099</ele>
        <time>2022-09-22T12:49:38.307Z</time>
      </trkpt>
      <trkpt lat="44.90755" lon="5.40384">
        <ele>1099</ele>
        <time>2022-09-22T12:49:39.308Z</time>
      </trkpt>
      <trkpt lat="44.90756" lon="5.40383">
        <ele>1100</ele>
        <time>2022-09-22T12:49:40.307Z</time>
      </trkpt>
      <trkpt lat="44.90758" lon="5.40383">
        <ele>1100</ele>
        <time>2022-09-22T12:49:41.308Z</time>
      </trkpt>
      <trkpt lat="44.90759" lon="5.40384">
        <ele>1100</ele>
        <time>2022-09-22T12:49:42.308Z</time>
      </trkpt>
      <trkpt lat="44.9076" lon="5.40383">
        <ele>1100</ele>
        <time>2022-09-22T12:49:43.308Z</time>
      </trkpt>
      <trkpt lat="44.90762" lon="5.40383">
        <ele>1100</ele>
        <time>2022-09-22T12:49:44.307Z</time>
      </trkpt>
      <trkpt lat="44.90763" lon="5.40383">
        <ele>1100</ele>
        <time>2022-09-22T12:49:45.308Z</time>
      </trkpt>
      <trkpt lat="44.90764" lon="5.40383">
        <ele>1100</ele>
        <time>2022-09-22T12:49:46.308Z</time>
      </trkpt>
      <trkpt lat="44.90766" lon="5.40382">
        <ele>1099</ele>
        <time>2022-09-22T12:49:47.308Z</time>
      </trkpt>
      <trkpt lat="44.90768" lon="5.40382">
        <ele>1099</ele>
        <time>2022-09-22T12:49:48.307Z</time>
      </trkpt>
      <trkpt lat="44.90769" lon="5.40381">
        <ele>1099</ele>
        <time>2022-09-22T12:49:49.308Z</time>
      </trkpt>
      <trkpt lat="44.90771" lon="5.40381">
        <ele>1099</ele>
        <time>2022-09-22T12:49:50.308Z</time>
      </trkpt>
      <trkpt lat="44.90772" lon="5.40381">
        <ele>1098</ele>
        <time>2022-09-22T12:49:51.308Z</time>
      </trkpt>
      <trkpt lat="44.90774" lon="5.40381">
        <ele>1098</ele>
        <time>2022-09-22T12:49:52.307Z</time>
      </trkpt>
      <trkpt lat="44.90775" lon="5.4038">
        <ele>1099</ele>
        <time>2022-09-22T12:49:53.308Z</time>
      </trkpt>
      <trkpt lat="44.90777" lon="5.4038">
        <ele>1099</ele>
        <time>2022-09-22T12:49:54.307Z</time>
      </trkpt>
      <trkpt lat="44.90778" lon="5.4038">
        <ele>1099</ele>
        <time>2022-09-22T12:49:55.308Z</time>
      </trkpt>
      <trkpt lat="44.9078" lon="5.4038">
        <ele>1099</ele>
        <time>2022-09-22T12:49:56.308Z</time>
      </trkpt>
      <trkpt lat="44.90781" lon="5.4038">
        <ele>1100</ele>
        <time>2022-09-22T12:49:57.308Z</time>
      </trkpt>
      <trkpt lat="44.90783" lon="5.4038">
        <ele>1099</ele>
        <time>2022-09-22T12:49:58.308Z</time>
      </trkpt>
      <trkpt lat="44.90785" lon="5.40379">
        <ele>1099</ele>
        <time>2022-09-22T12:49:59.307Z</time>
      </trkpt>
      <trkpt lat="44.90787" lon="5.40379">
        <ele>1099</ele>
        <time>2022-09-22T12:50:00.308Z</time>
      </trkpt>
      <trkpt lat="44.90788" lon="5.40379">
        <ele>1099</ele>
        <time>2022-09-22T12:50:01.308Z</time>
      </trkpt>
      <trkpt lat="44.9079" lon="5.40379">
        <ele>1099</ele>
        <time>2022-09-22T12:50:02.308Z</time>
      </trkpt>
      <trkpt lat="44.90791" lon="5.40379">
        <ele>1099</ele>
        <time>2022-09-22T12:50:03.308Z</time>
      </trkpt>
      <trkpt lat="44.90792" lon="5.40379">
        <ele>1099</ele>
        <time>2022-09-22T12:50:04.308Z</time>
      </trkpt>
      <trkpt lat="44.90794" lon="5.40379">
        <ele>1099</ele>
        <time>2022-09-22T12:50:05.308Z</time>
      </trkpt>
      <trkpt lat="44.90795" lon="5.40379">
        <ele>1100</ele>
        <time>2022-09-22T12:50:06.308Z</time>
      </trkpt>
      <trkpt lat="44.90797" lon="5.40379">
        <ele>1100</ele>
        <time>2022-09-22T12:50:07.308Z</time>
      </trkpt>
      <trkpt lat="44.90798" lon="5.40378">
        <ele>1100</ele>
        <time>2022-09-22T12:50:08.308Z</time>
      </trkpt>
      <trkpt lat="44.908" lon="5.40378">
        <ele>1100</ele>
        <time>2022-09-22T12:50:09.308Z</time>
      </trkpt>
      <trkpt lat="44.90801" lon="5.40378">
        <ele>1100</ele>
        <time>2022-09-22T12:50:10.307Z</time>
      </trkpt>
      <trkpt lat="44.90803" lon="5.40378">
        <ele>1100</ele>
        <time>2022-09-22T12:50:11.308Z</time>
      </trkpt>
      <trkpt lat="44.90805" lon="5.40378">
        <ele>1100</ele>
        <time>2022-09-22T12:50:12.307Z</time>
      </trkpt>
      <trkpt lat="44.90806" lon="5.40378">
        <ele>1100</ele>
        <time>2022-09-22T12:50:13.308Z</time>
      </trkpt>
      <trkpt lat="44.90808" lon="5.40379">
        <ele>1100</ele>
        <time>2022-09-22T12:50:14.308Z</time>
      </trkpt>
      <trkpt lat="44.9081" lon="5.40379">
        <ele>1100</ele>
        <time>2022-09-22T12:50:15.308Z</time>
      </trkpt>
      <trkpt lat="44.90811" lon="5.4038">
        <ele>1100</ele>
        <time>2022-09-22T12:50:16.308Z</time>
      </trkpt>
      <trkpt lat="44.90812" lon="5.40381">
        <ele>1100</ele>
        <time>2022-09-22T12:50:17.308Z</time>
      </trkpt>
      <trkpt lat="44.90814" lon="5.40381">
        <ele>1100</ele>
        <time>2022-09-22T12:50:18.308Z</time>
      </trkpt>
      <trkpt lat="44.90815" lon="5.40381">
        <ele>1100</ele>
        <time>2022-09-22T12:50:19.308Z</time>
      </trkpt>
      <trkpt lat="44.90817" lon="5.40381">
        <ele>1101</ele>
        <time>2022-09-22T12:50:20.308Z</time>
      </trkpt>
      <trkpt lat="44.90818" lon="5.40381">
        <ele>1101</ele>
        <time>2022-09-22T12:50:21.308Z</time>
      </trkpt>
      <trkpt lat="44.90819" lon="5.40381">
        <ele>1101</ele>
        <time>2022-09-22T12:50:22.308Z</time>
      </trkpt>
      <trkpt lat="44.9082" lon="5.40382">
        <ele>1102</ele>
        <time>2022-09-22T12:50:23.308Z</time>
      </trkpt>
      <trkpt lat="44.90822" lon="5.40382">
        <ele>1101</ele>
        <time>2022-09-22T12:50:24.308Z</time>
      </trkpt>
      <trkpt lat="44.90823" lon="5.40383">
        <ele>1101</ele>
        <time>2022-09-22T12:50:25.308Z</time>
      </trkpt>
      <trkpt lat="44.90825" lon="5.40384">
        <ele>1102</ele>
        <time>2022-09-22T12:50:26.308Z</time>
      </trkpt>
      <trkpt lat="44.90826" lon="5.40384">
        <ele>1102</ele>
        <time>2022-09-22T12:50:27.308Z</time>
      </trkpt>
      <trkpt lat="44.90827" lon="5.40385">
        <ele>1102</ele>
        <time>2022-09-22T12:50:28.308Z</time>
      </trkpt>
      <trkpt lat="44.90828" lon="5.40386">
        <ele>1103</ele>
        <time>2022-09-22T12:50:29.308Z</time>
      </trkpt>
      <trkpt lat="44.90829" lon="5.40386">
        <ele>1103</ele>
        <time>2022-09-22T12:50:30.308Z</time>
      </trkpt>
      <trkpt lat="44.9083" lon="5.40386">
        <ele>1104</ele>
        <time>2022-09-22T12:50:31.307Z</time>
      </trkpt>
      <trkpt lat="44.90831" lon="5.40386">
        <ele>1105</ele>
        <time>2022-09-22T12:50:32.308Z</time>
      </trkpt>
      <trkpt lat="44.90833" lon="5.40387">
        <ele>1105</ele>
        <time>2022-09-22T12:50:33.307Z</time>
      </trkpt>
      <trkpt lat="44.90834" lon="5.40388">
        <ele>1105</ele>
        <time>2022-09-22T12:50:34.307Z</time>
      </trkpt>
      <trkpt lat="44.90836" lon="5.40389">
        <ele>1105</ele>
        <time>2022-09-22T12:50:35.308Z</time>
      </trkpt>
      <trkpt lat="44.90837" lon="5.4039">
        <ele>1104</ele>
        <time>2022-09-22T12:50:36.308Z</time>
      </trkpt>
      <trkpt lat="44.90838" lon="5.40391">
        <ele>1105</ele>
        <time>2022-09-22T12:50:37.308Z</time>
      </trkpt>
      <trkpt lat="44.9084" lon="5.40391">
        <ele>1105</ele>
        <time>2022-09-22T12:50:38.308Z</time>
      </trkpt>
      <trkpt lat="44.90841" lon="5.40392">
        <ele>1105</ele>
        <time>2022-09-22T12:50:39.308Z</time>
      </trkpt>
      <trkpt lat="44.90842" lon="5.40393">
        <ele>1106</ele>
        <time>2022-09-22T12:50:40.308Z</time>
      </trkpt>
      <trkpt lat="44.90844" lon="5.40393">
        <ele>1106</ele>
        <time>2022-09-22T12:50:41.308Z</time>
      </trkpt>
      <trkpt lat="44.90845" lon="5.40394">
        <ele>1107</ele>
        <time>2022-09-22T12:50:42.308Z</time>
      </trkpt>
      <trkpt lat="44.90846" lon="5.40394">
        <ele>1107</ele>
        <time>2022-09-22T12:50:43.308Z</time>
      </trkpt>
      <trkpt lat="44.90848" lon="5.40395">
        <ele>1107</ele>
        <time>2022-09-22T12:50:44.308Z</time>
      </trkpt>
      <trkpt lat="44.90849" lon="5.40396">
        <ele>1107</ele>
        <time>2022-09-22T12:50:45.308Z</time>
      </trkpt>
      <trkpt lat="44.90851" lon="5.40397">
        <ele>1107</ele>
        <time>2022-09-22T12:50:46.308Z</time>
      </trkpt>
      <trkpt lat="44.90852" lon="5.40398">
        <ele>1107</ele>
        <time>2022-09-22T12:50:47.307Z</time>
      </trkpt>
      <trkpt lat="44.90854" lon="5.40399">
        <ele>1108</ele>
        <time>2022-09-22T12:50:48.308Z</time>
      </trkpt>
      <trkpt lat="44.90855" lon="5.40401">
        <ele>1108</ele>
        <time>2022-09-22T12:50:49.307Z</time>
      </trkpt>
      <trkpt lat="44.90856" lon="5.40403">
        <ele>1108</ele>
        <time>2022-09-22T12:50:50.308Z</time>
      </trkpt>
      <trkpt lat="44.90856" lon="5.40405">
        <ele>1108</ele>
        <time>2022-09-22T12:50:51.307Z</time>
      </trkpt>
      <trkpt lat="44.90857" lon="5.40406">
        <ele>1108</ele>
        <time>2022-09-22T12:50:52.308Z</time>
      </trkpt>
      <trkpt lat="44.90858" lon="5.40408">
        <ele>1108</ele>
        <time>2022-09-22T12:50:53.308Z</time>
      </trkpt>
      <trkpt lat="44.90859" lon="5.4041">
        <ele>1108</ele>
        <time>2022-09-22T12:50:54.308Z</time>
      </trkpt>
      <trkpt lat="44.9086" lon="5.40412">
        <ele>1108</ele>
        <time>2022-09-22T12:50:55.308Z</time>
      </trkpt>
      <trkpt lat="44.90861" lon="5.40414">
        <ele>1108</ele>
        <time>2022-09-22T12:50:56.308Z</time>
      </trkpt>
      <trkpt lat="44.90862" lon="5.40416">
        <ele>1108</ele>
        <time>2022-09-22T12:50:57.307Z</time>
      </trkpt>
      <trkpt lat="44.90863" lon="5.40418">
        <ele>1108</ele>
        <time>2022-09-22T12:50:58.308Z</time>
      </trkpt>
      <trkpt lat="44.90864" lon="5.4042">
        <ele>1108</ele>
        <time>2022-09-22T12:50:59.308Z</time>
      </trkpt>
      <trkpt lat="44.90865" lon="5.40422">
        <ele>1108</ele>
        <time>2022-09-22T12:51:00.308Z</time>
      </trkpt>
      <trkpt lat="44.90866" lon="5.40424">
        <ele>1108</ele>
        <time>2022-09-22T12:51:01.308Z</time>
      </trkpt>
      <trkpt lat="44.90867" lon="5.40426">
        <ele>1108</ele>
        <time>2022-09-22T12:51:02.308Z</time>
      </trkpt>
      <trkpt lat="44.90869" lon="5.40428">
        <ele>1108</ele>
        <time>2022-09-22T12:51:03.308Z</time>
      </trkpt>
      <trkpt lat="44.9087" lon="5.4043">
        <ele>1108</ele>
        <time>2022-09-22T12:51:04.308Z</time>
      </trkpt>
      <trkpt lat="44.90872" lon="5.40431">
        <ele>1108</ele>
        <time>2022-09-22T12:51:05.308Z</time>
      </trkpt>
      <trkpt lat="44.90873" lon="5.40433">
        <ele>1107</ele>
        <time>2022-09-22T12:51:06.308Z</time>
      </trkpt>
      <trkpt lat="44.90874" lon="5.40435">
        <ele>1107</ele>
        <time>2022-09-22T12:51:07.307Z</time>
      </trkpt>
      <trkpt lat="44.90875" lon="5.40436">
        <ele>1107</ele>
        <time>2022-09-22T12:51:08.307Z</time>
      </trkpt>
      <trkpt lat="44.90876" lon="5.40438">
        <ele>1107</ele>
        <time>2022-09-22T12:51:09.307Z</time>
      </trkpt>
      <trkpt lat="44.90878" lon="5.4044">
        <ele>1107</ele>
        <time>2022-09-22T12:51:10.308Z</time>
      </trkpt>
      <trkpt lat="44.90879" lon="5.40442">
        <ele>1107</ele>
        <time>2022-09-22T12:51:11.308Z</time>
      </trkpt>
      <trkpt lat="44.9088" lon="5.40444">
        <ele>1107</ele>
        <time>2022-09-22T12:51:12.308Z</time>
      </trkpt>
      <trkpt lat="44.90881" lon="5.40446">
        <ele>1107</ele>
        <time>2022-09-22T12:51:13.308Z</time>
      </trkpt>
      <trkpt lat="44.90882" lon="5.40448">
        <ele>1107</ele>
        <time>2022-09-22T12:51:14.308Z</time>
      </trkpt>
      <trkpt lat="44.90884" lon="5.4045">
        <ele>1107</ele>
        <time>2022-09-22T12:51:15.307Z</time>
      </trkpt>
      <trkpt lat="44.90885" lon="5.40452">
        <ele>1107</ele>
        <time>2022-09-22T12:51:16.308Z</time>
      </trkpt>
      <trkpt lat="44.90886" lon="5.40454">
        <ele>1107</ele>
        <time>2022-09-22T12:51:17.308Z</time>
      </trkpt>
      <trkpt lat="44.90888" lon="5.40456">
        <ele>1107</ele>
        <time>2022-09-22T12:51:18.308Z</time>
      </trkpt>
      <trkpt lat="44.90889" lon="5.40457">
        <ele>1107</ele>
        <time>2022-09-22T12:51:19.307Z</time>
      </trkpt>
      <trkpt lat="44.90891" lon="5.40459">
        <ele>1107</ele>
        <time>2022-09-22T12:51:20.307Z</time>
      </trkpt>
      <trkpt lat="44.90892" lon="5.40461">
        <ele>1107</ele>
        <time>2022-09-22T12:51:21.307Z</time>
      </trkpt>
      <trkpt lat="44.90894" lon="5.40464">
        <ele>1106</ele>
        <time>2022-09-22T12:51:22.308Z</time>
      </trkpt>
      <trkpt lat="44.90895" lon="5.40466">
        <ele>1106</ele>
        <time>2022-09-22T12:51:23.308Z</time>
      </trkpt>
      <trkpt lat="44.90896" lon="5.40468">
        <ele>1106</ele>
        <time>2022-09-22T12:51:24.308Z</time>
      </trkpt>
      <trkpt lat="44.90897" lon="5.4047">
        <ele>1106</ele>
        <time>2022-09-22T12:51:25.308Z</time>
      </trkpt>
      <trkpt lat="44.90899" lon="5.40472">
        <ele>1106</ele>
        <time>2022-09-22T12:51:26.307Z</time>
      </trkpt>
      <trkpt lat="44.909" lon="5.40474">
        <ele>1106</ele>
        <time>2022-09-22T12:51:27.308Z</time>
      </trkpt>
      <trkpt lat="44.90902" lon="5.40476">
        <ele>1106</ele>
        <time>2022-09-22T12:51:28.308Z</time>
      </trkpt>
      <trkpt lat="44.90903" lon="5.40478">
        <ele>1106</ele>
        <time>2022-09-22T12:51:29.308Z</time>
      </trkpt>
      <trkpt lat="44.90904" lon="5.4048">
        <ele>1106</ele>
        <time>2022-09-22T12:51:30.308Z</time>
      </trkpt>
      <trkpt lat="44.90906" lon="5.40482">
        <ele>1106</ele>
        <time>2022-09-22T12:51:31.308Z</time>
      </trkpt>
      <trkpt lat="44.90907" lon="5.40484">
        <ele>1106</ele>
        <time>2022-09-22T12:51:32.308Z</time>
      </trkpt>
      <trkpt lat="44.90908" lon="5.40487">
        <ele>1106</ele>
        <time>2022-09-22T12:51:33.308Z</time>
      </trkpt>
      <trkpt lat="44.90909" lon="5.40489">
        <ele>1106</ele>
        <time>2022-09-22T12:51:34.307Z</time>
      </trkpt>
      <trkpt lat="44.9091" lon="5.40491">
        <ele>1106</ele>
        <time>2022-09-22T12:51:35.308Z</time>
      </trkpt>
      <trkpt lat="44.90912" lon="5.40493">
        <ele>1107</ele>
        <time>2022-09-22T12:51:36.308Z</time>
      </trkpt>
      <trkpt lat="44.90913" lon="5.40494">
        <ele>1107</ele>
        <time>2022-09-22T12:51:37.308Z</time>
      </trkpt>
      <trkpt lat="44.90914" lon="5.40496">
        <ele>1107</ele>
        <time>2022-09-22T12:51:38.308Z</time>
      </trkpt>
      <trkpt lat="44.90915" lon="5.40498">
        <ele>1107</ele>
        <time>2022-09-22T12:51:39.308Z</time>
      </trkpt>
      <trkpt lat="44.90916" lon="5.405">
        <ele>1107</ele>
        <time>2022-09-22T12:51:40.308Z</time>
      </trkpt>
      <trkpt lat="44.90917" lon="5.40502">
        <ele>1107</ele>
        <time>2022-09-22T12:51:41.308Z</time>
      </trkpt>
      <trkpt lat="44.90918" lon="5.40504">
        <ele>1107</ele>
        <time>2022-09-22T12:51:42.308Z</time>
      </trkpt>
      <trkpt lat="44.9092" lon="5.40505">
        <ele>1107</ele>
        <time>2022-09-22T12:51:43.308Z</time>
      </trkpt>
      <trkpt lat="44.90921" lon="5.40508">
        <ele>1107</ele>
        <time>2022-09-22T12:51:44.308Z</time>
      </trkpt>
      <trkpt lat="44.90922" lon="5.40509">
        <ele>1108</ele>
        <time>2022-09-22T12:51:45.308Z</time>
      </trkpt>
      <trkpt lat="44.90923" lon="5.40511">
        <ele>1108</ele>
        <time>2022-09-22T12:51:46.308Z</time>
      </trkpt>
      <trkpt lat="44.90924" lon="5.40513">
        <ele>1108</ele>
        <time>2022-09-22T12:51:47.307Z</time>
      </trkpt>
      <trkpt lat="44.90926" lon="5.40515">
        <ele>1108</ele>
        <time>2022-09-22T12:51:48.308Z</time>
      </trkpt>
      <trkpt lat="44.90927" lon="5.40516">
        <ele>1108</ele>
        <time>2022-09-22T12:51:49.308Z</time>
      </trkpt>
      <trkpt lat="44.90929" lon="5.40518">
        <ele>1108</ele>
        <time>2022-09-22T12:51:50.308Z</time>
      </trkpt>
      <trkpt lat="44.9093" lon="5.4052">
        <ele>1108</ele>
        <time>2022-09-22T12:51:51.308Z</time>
      </trkpt>
      <trkpt lat="44.90931" lon="5.40521">
        <ele>1108</ele>
        <time>2022-09-22T12:51:52.308Z</time>
      </trkpt>
      <trkpt lat="44.90933" lon="5.40523">
        <ele>1109</ele>
        <time>2022-09-22T12:51:53.308Z</time>
      </trkpt>
      <trkpt lat="44.90935" lon="5.40524">
        <ele>1109</ele>
        <time>2022-09-22T12:51:54.308Z</time>
      </trkpt>
      <trkpt lat="44.90936" lon="5.40526">
        <ele>1109</ele>
        <time>2022-09-22T12:51:55.308Z</time>
      </trkpt>
      <trkpt lat="44.90938" lon="5.40527">
        <ele>1109</ele>
        <time>2022-09-22T12:51:56.308Z</time>
      </trkpt>
      <trkpt lat="44.9094" lon="5.40528">
        <ele>1109</ele>
        <time>2022-09-22T12:51:57.307Z</time>
      </trkpt>
      <trkpt lat="44.90942" lon="5.40529">
        <ele>1109</ele>
        <time>2022-09-22T12:51:58.308Z</time>
      </trkpt>
      <trkpt lat="44.90944" lon="5.4053">
        <ele>1109</ele>
        <time>2022-09-22T12:51:59.308Z</time>
      </trkpt>
      <trkpt lat="44.90946" lon="5.40531">
        <ele>1109</ele>
        <time>2022-09-22T12:52:00.308Z</time>
      </trkpt>
      <trkpt lat="44.90948" lon="5.40531">
        <ele>1109</ele>
        <time>2022-09-22T12:52:01.308Z</time>
      </trkpt>
      <trkpt lat="44.90949" lon="5.40532">
        <ele>1110</ele>
        <time>2022-09-22T12:52:02.308Z</time>
      </trkpt>
      <trkpt lat="44.90951" lon="5.40533">
        <ele>1110</ele>
        <time>2022-09-22T12:52:03.308Z</time>
      </trkpt>
      <trkpt lat="44.90953" lon="5.40534">
        <ele>1110</ele>
        <time>2022-09-22T12:52:04.308Z</time>
      </trkpt>
      <trkpt lat="44.90955" lon="5.40534">
        <ele>1109</ele>
        <time>2022-09-22T12:52:05.307Z</time>
      </trkpt>
      <trkpt lat="44.90957" lon="5.40534">
        <ele>1109</ele>
        <time>2022-09-22T12:52:06.308Z</time>
      </trkpt>
      <trkpt lat="44.90959" lon="5.40534">
        <ele>1109</ele>
        <time>2022-09-22T12:52:07.308Z</time>
      </trkpt>
      <trkpt lat="44.90961" lon="5.40534">
        <ele>1110</ele>
        <time>2022-09-22T12:52:08.308Z</time>
      </trkpt>
      <trkpt lat="44.90963" lon="5.40534">
        <ele>1110</ele>
        <time>2022-09-22T12:52:09.307Z</time>
      </trkpt>
      <trkpt lat="44.90965" lon="5.40534">
        <ele>1110</ele>
        <time>2022-09-22T12:52:10.308Z</time>
      </trkpt>
      <trkpt lat="44.90967" lon="5.40533">
        <ele>1110</ele>
        <time>2022-09-22T12:52:11.308Z</time>
      </trkpt>
      <trkpt lat="44.90969" lon="5.40532">
        <ele>1110</ele>
        <time>2022-09-22T12:52:12.307Z</time>
      </trkpt>
      <trkpt lat="44.90971" lon="5.40531">
        <ele>1111</ele>
        <time>2022-09-22T12:52:13.308Z</time>
      </trkpt>
      <trkpt lat="44.90973" lon="5.4053">
        <ele>1111</ele>
        <time>2022-09-22T12:52:14.308Z</time>
      </trkpt>
      <trkpt lat="44.90974" lon="5.40529">
        <ele>1112</ele>
        <time>2022-09-22T12:52:15.308Z</time>
      </trkpt>
      <trkpt lat="44.90976" lon="5.40528">
        <ele>1112</ele>
        <time>2022-09-22T12:52:16.308Z</time>
      </trkpt>
      <trkpt lat="44.90977" lon="5.40527">
        <ele>1112</ele>
        <time>2022-09-22T12:52:17.308Z</time>
      </trkpt>
      <trkpt lat="44.90979" lon="5.40525">
        <ele>1112</ele>
        <time>2022-09-22T12:52:18.307Z</time>
      </trkpt>
      <trkpt lat="44.9098" lon="5.40523">
        <ele>1112</ele>
        <time>2022-09-22T12:52:19.308Z</time>
      </trkpt>
      <trkpt lat="44.90982" lon="5.40522">
        <ele>1112</ele>
        <time>2022-09-22T12:52:20.308Z</time>
      </trkpt>
      <trkpt lat="44.90983" lon="5.4052">
        <ele>1112</ele>
        <time>2022-09-22T12:52:21.307Z</time>
      </trkpt>
      <trkpt lat="44.90985" lon="5.40519">
        <ele>1112</ele>
        <time>2022-09-22T12:52:22.308Z</time>
      </trkpt>
      <trkpt lat="44.90987" lon="5.40517">
        <ele>1112</ele>
        <time>2022-09-22T12:52:23.308Z</time>
      </trkpt>
      <trkpt lat="44.90989" lon="5.40516">
        <ele>1112</ele>
        <time>2022-09-22T12:52:24.307Z</time>
      </trkpt>
      <trkpt lat="44.9099" lon="5.40514">
        <ele>1113</ele>
        <time>2022-09-22T12:52:25.308Z</time>
      </trkpt>
      <trkpt lat="44.90992" lon="5.40512">
        <ele>1113</ele>
        <time>2022-09-22T12:52:26.308Z</time>
      </trkpt>
      <trkpt lat="44.90994" lon="5.40511">
        <ele>1113</ele>
        <time>2022-09-22T12:52:27.308Z</time>
      </trkpt>
      <trkpt lat="44.90996" lon="5.40509">
        <ele>1114</ele>
        <time>2022-09-22T12:52:28.308Z</time>
      </trkpt>
      <trkpt lat="44.90998" lon="5.40508">
        <ele>1114</ele>
        <time>2022-09-22T12:52:29.307Z</time>
      </trkpt>
      <trkpt lat="44.91" lon="5.40507">
        <ele>1114</ele>
        <time>2022-09-22T12:52:30.308Z</time>
      </trkpt>
      <trkpt lat="44.91001" lon="5.40506">
        <ele>1114</ele>
        <time>2022-09-22T12:52:31.308Z</time>
      </trkpt>
      <trkpt lat="44.91003" lon="5.40505">
        <ele>1114</ele>
        <time>2022-09-22T12:52:32.308Z</time>
      </trkpt>
      <trkpt lat="44.91005" lon="5.40504">
        <ele>1113</ele>
        <time>2022-09-22T12:52:33.308Z</time>
      </trkpt>
      <trkpt lat="44.91007" lon="5.40504">
        <ele>1113</ele>
        <time>2022-09-22T12:52:34.307Z</time>
      </trkpt>
      <trkpt lat="44.91008" lon="5.40503">
        <ele>1113</ele>
        <time>2022-09-22T12:52:35.308Z</time>
      </trkpt>
      <trkpt lat="44.9101" lon="5.40503">
        <ele>1113</ele>
        <time>2022-09-22T12:52:36.308Z</time>
      </trkpt>
      <trkpt lat="44.91012" lon="5.40502">
        <ele>1113</ele>
        <time>2022-09-22T12:52:37.308Z</time>
      </trkpt>
      <trkpt lat="44.91014" lon="5.40502">
        <ele>1113</ele>
        <time>2022-09-22T12:52:38.308Z</time>
      </trkpt>
      <trkpt lat="44.91016" lon="5.40502">
        <ele>1114</ele>
        <time>2022-09-22T12:52:39.308Z</time>
      </trkpt>
      <trkpt lat="44.91018" lon="5.40502">
        <ele>1114</ele>
        <time>2022-09-22T12:52:40.308Z</time>
      </trkpt>
      <trkpt lat="44.9102" lon="5.40502">
        <ele>1114</ele>
        <time>2022-09-22T12:52:41.308Z</time>
      </trkpt>
      <trkpt lat="44.91022" lon="5.40502">
        <ele>1115</ele>
        <time>2022-09-22T12:52:42.308Z</time>
      </trkpt>
      <trkpt lat="44.91024" lon="5.40502">
        <ele>1115</ele>
        <time>2022-09-22T12:52:43.307Z</time>
      </trkpt>
      <trkpt lat="44.91026" lon="5.40502">
        <ele>1116</ele>
        <time>2022-09-22T12:52:44.308Z</time>
      </trkpt>
      <trkpt lat="44.91028" lon="5.40503">
        <ele>1116</ele>
        <time>2022-09-22T12:52:45.308Z</time>
      </trkpt>
      <trkpt lat="44.9103" lon="5.40504">
        <ele>1117</ele>
        <time>2022-09-22T12:52:46.308Z</time>
      </trkpt>
      <trkpt lat="44.91031" lon="5.40505">
        <ele>1117</ele>
        <time>2022-09-22T12:52:47.308Z</time>
      </trkpt>
      <trkpt lat="44.91033" lon="5.40507">
        <ele>1118</ele>
        <time>2022-09-22T12:52:48.307Z</time>
      </trkpt>
      <trkpt lat="44.91035" lon="5.40508">
        <ele>1118</ele>
        <time>2022-09-22T12:52:49.308Z</time>
      </trkpt>
      <trkpt lat="44.91037" lon="5.40509">
        <ele>1118</ele>
        <time>2022-09-22T12:52:50.308Z</time>
      </trkpt>
      <trkpt lat="44.91039" lon="5.4051">
        <ele>1118</ele>
        <time>2022-09-22T12:52:51.308Z</time>
      </trkpt>
      <trkpt lat="44.91041" lon="5.40511">
        <ele>1118</ele>
        <time>2022-09-22T12:52:52.308Z</time>
      </trkpt>
      <trkpt lat="44.91043" lon="5.40511">
        <ele>1118</ele>
        <time>2022-09-22T12:52:53.308Z</time>
      </trkpt>
      <trkpt lat="44.91045" lon="5.40512">
        <ele>1118</ele>
        <time>2022-09-22T12:52:54.308Z</time>
      </trkpt>
      <trkpt lat="44.91046" lon="5.40512">
        <ele>1119</ele>
        <time>2022-09-22T12:52:55.307Z</time>
      </trkpt>
      <trkpt lat="44.91048" lon="5.40513">
        <ele>1119</ele>
        <time>2022-09-22T12:52:56.307Z</time>
      </trkpt>
      <trkpt lat="44.9105" lon="5.40514">
        <ele>1120</ele>
        <time>2022-09-22T12:52:57.308Z</time>
      </trkpt>
      <trkpt lat="44.91052" lon="5.40514">
        <ele>1120</ele>
        <time>2022-09-22T12:52:58.308Z</time>
      </trkpt>
      <trkpt lat="44.91054" lon="5.40515">
        <ele>1121</ele>
        <time>2022-09-22T12:52:59.308Z</time>
      </trkpt>
      <trkpt lat="44.91057" lon="5.40515">
        <ele>1121</ele>
        <time>2022-09-22T12:53:00.308Z</time>
      </trkpt>
      <trkpt lat="44.9106" lon="5.40516">
        <ele>1121</ele>
        <time>2022-09-22T12:53:01.308Z</time>
      </trkpt>
      <trkpt lat="44.91062" lon="5.40517">
        <ele>1121</ele>
        <time>2022-09-22T12:53:02.307Z</time>
      </trkpt>
      <trkpt lat="44.91064" lon="5.40517">
        <ele>1120</ele>
        <time>2022-09-22T12:53:03.308Z</time>
      </trkpt>
      <trkpt lat="44.91065" lon="5.40518">
        <ele>1120</ele>
        <time>2022-09-22T12:53:04.308Z</time>
      </trkpt>
      <trkpt lat="44.91067" lon="5.40519">
        <ele>1120</ele>
        <time>2022-09-22T12:53:05.308Z</time>
      </trkpt>
      <trkpt lat="44.91069" lon="5.4052">
        <ele>1120</ele>
        <time>2022-09-22T12:53:06.308Z</time>
      </trkpt>
      <trkpt lat="44.91072" lon="5.4052">
        <ele>1119</ele>
        <time>2022-09-22T12:53:07.308Z</time>
      </trkpt>
      <trkpt lat="44.91074" lon="5.40521">
        <ele>1119</ele>
        <time>2022-09-22T12:53:08.308Z</time>
      </trkpt>
      <trkpt lat="44.91076" lon="5.40521">
        <ele>1118</ele>
        <time>2022-09-22T12:53:09.308Z</time>
      </trkpt>
      <trkpt lat="44.91079" lon="5.40522">
        <ele>1118</ele>
        <time>2022-09-22T12:53:10.308Z</time>
      </trkpt>
      <trkpt lat="44.91081" lon="5.40523">
        <ele>1118</ele>
        <time>2022-09-22T12:53:11.308Z</time>
      </trkpt>
      <trkpt lat="44.91084" lon="5.40524">
        <ele>1117</ele>
        <time>2022-09-22T12:53:12.308Z</time>
      </trkpt>
      <trkpt lat="44.91087" lon="5.40525">
        <ele>1117</ele>
        <time>2022-09-22T12:53:13.308Z</time>
      </trkpt>
      <trkpt lat="44.91091" lon="5.40526">
        <ele>1117</ele>
        <time>2022-09-22T12:53:14.308Z</time>
      </trkpt>
      <trkpt lat="44.91095" lon="5.40529">
        <ele>1117</ele>
        <time>2022-09-22T12:53:15.307Z</time>
      </trkpt>
      <trkpt lat="44.911" lon="5.40532">
        <ele>1117</ele>
        <time>2022-09-22T12:53:16.308Z</time>
      </trkpt>
      <trkpt lat="44.91104" lon="5.40536">
        <ele>1117</ele>
        <time>2022-09-22T12:53:17.308Z</time>
      </trkpt>
      <trkpt lat="44.91109" lon="5.4054">
        <ele>1117</ele>
        <time>2022-09-22T12:53:18.308Z</time>
      </trkpt>
      <trkpt lat="44.91114" lon="5.40545">
        <ele>1116</ele>
        <time>2022-09-22T12:53:19.308Z</time>
      </trkpt>
      <trkpt lat="44.91119" lon="5.40549">
        <ele>1116</ele>
        <time>2022-09-22T12:53:20.308Z</time>
      </trkpt>
      <trkpt lat="44.91124" lon="5.40552">
        <ele>1115</ele>
        <time>2022-09-22T12:53:21.308Z</time>
      </trkpt>
      <trkpt lat="44.91129" lon="5.40555">
        <ele>1115</ele>
        <time>2022-09-22T12:53:22.307Z</time>
      </trkpt>
      <trkpt lat="44.91133" lon="5.40556">
        <ele>1115</ele>
        <time>2022-09-22T12:53:23.307Z</time>
      </trkpt>
      <trkpt lat="44.91137" lon="5.40557">
        <ele>1114</ele>
        <time>2022-09-22T12:53:24.308Z</time>
      </trkpt>
      <trkpt lat="44.9114" lon="5.40558">
        <ele>1114</ele>
        <time>2022-09-22T12:53:25.307Z</time>
      </trkpt>
      <trkpt lat="44.91143" lon="5.40559">
        <ele>1114</ele>
        <time>2022-09-22T12:53:26.308Z</time>
      </trkpt>
      <trkpt lat="44.91145" lon="5.40559">
        <ele>1114</ele>
        <time>2022-09-22T12:53:27.307Z</time>
      </trkpt>
      <trkpt lat="44.91147" lon="5.4056">
        <ele>1113</ele>
        <time>2022-09-22T12:53:28.307Z</time>
      </trkpt>
      <trkpt lat="44.91148" lon="5.4056">
        <ele>1113</ele>
        <time>2022-09-22T12:53:29.307Z</time>
      </trkpt>
      <trkpt lat="44.91149" lon="5.40561">
        <ele>1114</ele>
        <time>2022-09-22T12:53:30.308Z</time>
      </trkpt>
      <trkpt lat="44.9115" lon="5.40562">
        <ele>1114</ele>
        <time>2022-09-22T12:53:31.308Z</time>
      </trkpt>
      <trkpt lat="44.91151" lon="5.40563">
        <ele>1114</ele>
        <time>2022-09-22T12:53:32.308Z</time>
      </trkpt>
      <trkpt lat="44.91153" lon="5.40564">
        <ele>1114</ele>
        <time>2022-09-22T12:53:33.308Z</time>
      </trkpt>
      <trkpt lat="44.91155" lon="5.40565">
        <ele>1114</ele>
        <time>2022-09-22T12:53:34.308Z</time>
      </trkpt>
      <trkpt lat="44.91157" lon="5.40566">
        <ele>1114</ele>
        <time>2022-09-22T12:53:35.308Z</time>
      </trkpt>
      <trkpt lat="44.9116" lon="5.40568">
        <ele>1114</ele>
        <time>2022-09-22T12:53:36.308Z</time>
      </trkpt>
      <trkpt lat="44.91162" lon="5.4057">
        <ele>1114</ele>
        <time>2022-09-22T12:53:37.308Z</time>
      </trkpt>
      <trkpt lat="44.91165" lon="5.40572">
        <ele>1114</ele>
        <time>2022-09-22T12:53:38.308Z</time>
      </trkpt>
      <trkpt lat="44.91169" lon="5.40574">
        <ele>1114</ele>
        <time>2022-09-22T12:53:39.308Z</time>
      </trkpt>
      <trkpt lat="44.91172" lon="5.40576">
        <ele>1114</ele>
        <time>2022-09-22T12:53:40.308Z</time>
      </trkpt>
      <trkpt lat="44.91176" lon="5.4058">
        <ele>1113</ele>
        <time>2022-09-22T12:53:41.308Z</time>
      </trkpt>
      <trkpt lat="44.9118" lon="5.40583">
        <ele>1113</ele>
        <time>2022-09-22T12:53:42.308Z</time>
      </trkpt>
      <trkpt lat="44.91185" lon="5.40586">
        <ele>1113</ele>
        <time>2022-09-22T12:53:43.308Z</time>
      </trkpt>
      <trkpt lat="44.91191" lon="5.40588">
        <ele>1112</ele>
        <time>2022-09-22T12:53:44.308Z</time>
      </trkpt>
      <trkpt lat="44.91197" lon="5.40591">
        <ele>1111</ele>
        <time>2022-09-22T12:53:45.308Z</time>
      </trkpt>
      <trkpt lat="44.91203" lon="5.40593">
        <ele>1111</ele>
        <time>2022-09-22T12:53:46.308Z</time>
      </trkpt>
      <trkpt lat="44.9121" lon="5.40595">
        <ele>1110</ele>
        <time>2022-09-22T12:53:47.308Z</time>
      </trkpt>
      <trkpt lat="44.91217" lon="5.40596">
        <ele>1109</ele>
        <time>2022-09-22T12:53:48.308Z</time>
      </trkpt>
      <trkpt lat="44.91223" lon="5.40595">
        <ele>1109</ele>
        <time>2022-09-22T12:53:49.308Z</time>
      </trkpt>
      <trkpt lat="44.9123" lon="5.40593">
        <ele>1108</ele>
        <time>2022-09-22T12:53:50.308Z</time>
      </trkpt>
      <trkpt lat="44.91236" lon="5.40591">
        <ele>1108</ele>
        <time>2022-09-22T12:53:51.308Z</time>
      </trkpt>
      <trkpt lat="44.91243" lon="5.40589">
        <ele>1108</ele>
        <time>2022-09-22T12:53:52.307Z</time>
      </trkpt>
      <trkpt lat="44.9125" lon="5.40587">
        <ele>1107</ele>
        <time>2022-09-22T12:53:53.307Z</time>
      </trkpt>
      <trkpt lat="44.91257" lon="5.40586">
        <ele>1106</ele>
        <time>2022-09-22T12:53:54.307Z</time>
      </trkpt>
      <trkpt lat="44.91264" lon="5.40586">
        <ele>1106</ele>
        <time>2022-09-22T12:53:55.307Z</time>
      </trkpt>
      <trkpt lat="44.91272" lon="5.40587">
        <ele>1105</ele>
        <time>2022-09-22T12:53:56.308Z</time>
      </trkpt>
      <trkpt lat="44.91279" lon="5.4059">
        <ele>1105</ele>
        <time>2022-09-22T12:53:57.308Z</time>
      </trkpt>
      <trkpt lat="44.91285" lon="5.40595">
        <ele>1104</ele>
        <time>2022-09-22T12:53:58.308Z</time>
      </trkpt>
      <trkpt lat="44.91292" lon="5.40601">
        <ele>1104</ele>
        <time>2022-09-22T12:53:59.308Z</time>
      </trkpt>
      <trkpt lat="44.91298" lon="5.40607">
        <ele>1103</ele>
        <time>2022-09-22T12:54:00.308Z</time>
      </trkpt>
      <trkpt lat="44.91305" lon="5.40612">
        <ele>1103</ele>
        <time>2022-09-22T12:54:01.307Z</time>
      </trkpt>
      <trkpt lat="44.91311" lon="5.40616">
        <ele>1102</ele>
        <time>2022-09-22T12:54:02.308Z</time>
      </trkpt>
      <trkpt lat="44.91318" lon="5.40618">
        <ele>1102</ele>
        <time>2022-09-22T12:54:03.307Z</time>
      </trkpt>
      <trkpt lat="44.91324" lon="5.40622">
        <ele>1102</ele>
        <time>2022-09-22T12:54:04.308Z</time>
      </trkpt>
      <trkpt lat="44.9133" lon="5.40626">
        <ele>1102</ele>
        <time>2022-09-22T12:54:05.308Z</time>
      </trkpt>
      <trkpt lat="44.91335" lon="5.40631">
        <ele>1102</ele>
        <time>2022-09-22T12:54:06.308Z</time>
      </trkpt>
      <trkpt lat="44.9134" lon="5.40635">
        <ele>1102</ele>
        <time>2022-09-22T12:54:07.307Z</time>
      </trkpt>
      <trkpt lat="44.91346" lon="5.40637">
        <ele>1101</ele>
        <time>2022-09-22T12:54:08.308Z</time>
      </trkpt>
      <trkpt lat="44.91351" lon="5.40639">
        <ele>1100</ele>
        <time>2022-09-22T12:54:09.307Z</time>
      </trkpt>
      <trkpt lat="44.91356" lon="5.4064">
        <ele>1100</ele>
        <time>2022-09-22T12:54:10.308Z</time>
      </trkpt>
      <trkpt lat="44.9136" lon="5.40642">
        <ele>1099</ele>
        <time>2022-09-22T12:54:11.308Z</time>
      </trkpt>
      <trkpt lat="44.91363" lon="5.40644">
        <ele>1098</ele>
        <time>2022-09-22T12:54:12.308Z</time>
      </trkpt>
      <trkpt lat="44.91366" lon="5.40645">
        <ele>1098</ele>
        <time>2022-09-22T12:54:13.308Z</time>
      </trkpt>
      <trkpt lat="44.91367" lon="5.40646">
        <ele>1098</ele>
        <time>2022-09-22T12:54:14.308Z</time>
      </trkpt>
      <trkpt lat="44.91368" lon="5.40647">
        <ele>1097</ele>
        <time>2022-09-22T12:54:15.308Z</time>
      </trkpt>
      <trkpt lat="44.91368" lon="5.40648">
        <ele>1097</ele>
        <time>2022-09-22T12:54:16.308Z</time>
      </trkpt>
      <trkpt lat="44.91368" lon="5.40649">
        <ele>1097</ele>
        <time>2022-09-22T12:54:17.307Z</time>
      </trkpt>
      <trkpt lat="44.91368" lon="5.4065">
        <ele>1096</ele>
        <time>2022-09-22T12:54:18.307Z</time>
      </trkpt>
      <trkpt lat="44.91369" lon="5.40653">
        <ele>1097</ele>
        <time>2022-09-22T12:54:19.308Z</time>
      </trkpt>
      <trkpt lat="44.91369" lon="5.40654">
        <ele>1096</ele>
        <time>2022-09-22T12:54:20.308Z</time>
      </trkpt>
      <trkpt lat="44.91369" lon="5.40656">
        <ele>1096</ele>
        <time>2022-09-22T12:54:21.308Z</time>
      </trkpt>
      <trkpt lat="44.9137" lon="5.40658">
        <ele>1095</ele>
        <time>2022-09-22T12:54:22.308Z</time>
      </trkpt>
      <trkpt lat="44.91371" lon="5.4066">
        <ele>1095</ele>
        <time>2022-09-22T12:54:23.307Z</time>
      </trkpt>
      <trkpt lat="44.91371" lon="5.40662">
        <ele>1094</ele>
        <time>2022-09-22T12:54:24.308Z</time>
      </trkpt>
      <trkpt lat="44.91371" lon="5.40662">
        <ele>1094</ele>
        <time>2022-09-22T12:54:25.307Z</time>
      </trkpt>
      <trkpt lat="44.91371" lon="5.40662">
        <ele>1093</ele>
        <time>2022-09-22T12:54:26.307Z</time>
      </trkpt>
      <trkpt lat="44.91371" lon="5.40663">
        <ele>1093</ele>
        <time>2022-09-22T12:54:27.307Z</time>
      </trkpt>
      <trkpt lat="44.91369" lon="5.40661">
        <ele>1099</ele>
        <time>2022-09-22T12:54:55.445Z</time>
      </trkpt>
      <trkpt lat="44.91368" lon="5.40662">
        <ele>1099</ele>
        <time>2022-09-22T12:54:56.445Z</time>
      </trkpt>
      <trkpt lat="44.91368" lon="5.40664">
        <ele>1099</ele>
        <time>2022-09-22T12:54:57.445Z</time>
      </trkpt>
      <trkpt lat="44.91367" lon="5.40667">
        <ele>1099</ele>
        <time>2022-09-22T12:54:58.445Z</time>
      </trkpt>
      <trkpt lat="44.91367" lon="5.40671">
        <ele>1099</ele>
        <time>2022-09-22T12:54:59.445Z</time>
      </trkpt>
      <trkpt lat="44.91366" lon="5.40675">
        <ele>1099</ele>
        <time>2022-09-22T12:55:00.445Z</time>
      </trkpt>
      <trkpt lat="44.91366" lon="5.4068">
        <ele>1099</ele>
        <time>2022-09-22T12:55:01.445Z</time>
      </trkpt>
      <trkpt lat="44.91366" lon="5.40686">
        <ele>1099</ele>
        <time>2022-09-22T12:55:02.445Z</time>
      </trkpt>
      <trkpt lat="44.91367" lon="5.40692">
        <ele>1099</ele>
        <time>2022-09-22T12:55:03.445Z</time>
      </trkpt>
      <trkpt lat="44.9137" lon="5.40698">
        <ele>1099</ele>
        <time>2022-09-22T12:55:04.445Z</time>
      </trkpt>
      <trkpt lat="44.91373" lon="5.40704">
        <ele>1099</ele>
        <time>2022-09-22T12:55:05.445Z</time>
      </trkpt>
      <trkpt lat="44.91376" lon="5.40709">
        <ele>1099</ele>
        <time>2022-09-22T12:55:06.445Z</time>
      </trkpt>
      <trkpt lat="44.9138" lon="5.40714">
        <ele>1099</ele>
        <time>2022-09-22T12:55:07.445Z</time>
      </trkpt>
      <trkpt lat="44.91385" lon="5.40718">
        <ele>1098</ele>
        <time>2022-09-22T12:55:08.445Z</time>
      </trkpt>
      <trkpt lat="44.91389" lon="5.40723">
        <ele>1098</ele>
        <time>2022-09-22T12:55:09.445Z</time>
      </trkpt>
      <trkpt lat="44.91393" lon="5.40727">
        <ele>1098</ele>
        <time>2022-09-22T12:55:10.445Z</time>
      </trkpt>
      <trkpt lat="44.91397" lon="5.40732">
        <ele>1098</ele>
        <time>2022-09-22T12:55:11.445Z</time>
      </trkpt>
      <trkpt lat="44.91401" lon="5.40736">
        <ele>1097</ele>
        <time>2022-09-22T12:55:12.444Z</time>
      </trkpt>
      <trkpt lat="44.91405" lon="5.4074">
        <ele>1097</ele>
        <time>2022-09-22T12:55:13.445Z</time>
      </trkpt>
      <trkpt lat="44.91409" lon="5.40744">
        <ele>1096</ele>
        <time>2022-09-22T12:55:14.445Z</time>
      </trkpt>
      <trkpt lat="44.91412" lon="5.40749">
        <ele>1096</ele>
        <time>2022-09-22T12:55:15.445Z</time>
      </trkpt>
      <trkpt lat="44.91415" lon="5.40753">
        <ele>1095</ele>
        <time>2022-09-22T12:55:16.445Z</time>
      </trkpt>
      <trkpt lat="44.91417" lon="5.40757">
        <ele>1094</ele>
        <time>2022-09-22T12:55:17.445Z</time>
      </trkpt>
      <trkpt lat="44.91419" lon="5.4076">
        <ele>1094</ele>
        <time>2022-09-22T12:55:18.445Z</time>
      </trkpt>
      <trkpt lat="44.91422" lon="5.40763">
        <ele>1093</ele>
        <time>2022-09-22T12:55:19.445Z</time>
      </trkpt>
      <trkpt lat="44.91424" lon="5.40765">
        <ele>1092</ele>
        <time>2022-09-22T12:55:20.445Z</time>
      </trkpt>
      <trkpt lat="44.91426" lon="5.40767">
        <ele>1091</ele>
        <time>2022-09-22T12:55:21.444Z</time>
      </trkpt>
      <trkpt lat="44.91428" lon="5.40769">
        <ele>1091</ele>
        <time>2022-09-22T12:55:22.445Z</time>
      </trkpt>
      <trkpt lat="44.9143" lon="5.40771">
        <ele>1091</ele>
        <time>2022-09-22T12:55:23.445Z</time>
      </trkpt>
      <trkpt lat="44.91432" lon="5.40773">
        <ele>1090</ele>
        <time>2022-09-22T12:55:24.445Z</time>
      </trkpt>
      <trkpt lat="44.91434" lon="5.40775">
        <ele>1090</ele>
        <time>2022-09-22T12:55:25.445Z</time>
      </trkpt>
      <trkpt lat="44.91436" lon="5.40777">
        <ele>1090</ele>
        <time>2022-09-22T12:55:26.445Z</time>
      </trkpt>
      <trkpt lat="44.91438" lon="5.40779">
        <ele>1090</ele>
        <time>2022-09-22T12:55:27.445Z</time>
      </trkpt>
      <trkpt lat="44.9144" lon="5.4078">
        <ele>1089</ele>
        <time>2022-09-22T12:55:28.445Z</time>
      </trkpt>
      <trkpt lat="44.91443" lon="5.4078">
        <ele>1089</ele>
        <time>2022-09-22T12:55:29.445Z</time>
      </trkpt>
      <trkpt lat="44.91446" lon="5.40781">
        <ele>1089</ele>
        <time>2022-09-22T12:55:30.445Z</time>
      </trkpt>
      <trkpt lat="44.91448" lon="5.40782">
        <ele>1090</ele>
        <time>2022-09-22T12:55:31.445Z</time>
      </trkpt>
      <trkpt lat="44.9145" lon="5.40782">
        <ele>1090</ele>
        <time>2022-09-22T12:55:32.445Z</time>
      </trkpt>
      <trkpt lat="44.91453" lon="5.40782">
        <ele>1090</ele>
        <time>2022-09-22T12:55:33.444Z</time>
      </trkpt>
      <trkpt lat="44.91455" lon="5.40782">
        <ele>1089</ele>
        <time>2022-09-22T12:55:34.445Z</time>
      </trkpt>
      <trkpt lat="44.91457" lon="5.40783">
        <ele>1089</ele>
        <time>2022-09-22T12:55:35.445Z</time>
      </trkpt>
      <trkpt lat="44.91458" lon="5.40783">
        <ele>1089</ele>
        <time>2022-09-22T12:55:36.445Z</time>
      </trkpt>
      <trkpt lat="44.91459" lon="5.40783">
        <ele>1089</ele>
        <time>2022-09-22T12:55:37.444Z</time>
      </trkpt>
      <trkpt lat="44.91461" lon="5.40782">
        <ele>1089</ele>
        <time>2022-09-22T12:55:38.445Z</time>
      </trkpt>
      <trkpt lat="44.91462" lon="5.40782">
        <ele>1089</ele>
        <time>2022-09-22T12:55:39.445Z</time>
      </trkpt>
      <trkpt lat="44.91464" lon="5.40782">
        <ele>1089</ele>
        <time>2022-09-22T12:55:40.445Z</time>
      </trkpt>
      <trkpt lat="44.91465" lon="5.40781">
        <ele>1089</ele>
        <time>2022-09-22T12:55:41.444Z</time>
      </trkpt>
      <trkpt lat="44.91466" lon="5.40781">
        <ele>1089</ele>
        <time>2022-09-22T12:55:42.444Z</time>
      </trkpt>
      <trkpt lat="44.91468" lon="5.4078">
        <ele>1089</ele>
        <time>2022-09-22T12:55:43.445Z</time>
      </trkpt>
      <trkpt lat="44.9147" lon="5.40779">
        <ele>1090</ele>
        <time>2022-09-22T12:55:44.445Z</time>
      </trkpt>
      <trkpt lat="44.91472" lon="5.40778">
        <ele>1090</ele>
        <time>2022-09-22T12:55:45.445Z</time>
      </trkpt>
      <trkpt lat="44.91473" lon="5.40777">
        <ele>1091</ele>
        <time>2022-09-22T12:55:46.445Z</time>
      </trkpt>
      <trkpt lat="44.91475" lon="5.40777">
        <ele>1091</ele>
        <time>2022-09-22T12:55:47.444Z</time>
      </trkpt>
      <trkpt lat="44.91477" lon="5.40776">
        <ele>1091</ele>
        <time>2022-09-22T12:55:48.445Z</time>
      </trkpt>
      <trkpt lat="44.91479" lon="5.40776">
        <ele>1092</ele>
        <time>2022-09-22T12:55:49.445Z</time>
      </trkpt>
      <trkpt lat="44.91481" lon="5.40775">
        <ele>1092</ele>
        <time>2022-09-22T12:55:50.445Z</time>
      </trkpt>
      <trkpt lat="44.91483" lon="5.40776">
        <ele>1092</ele>
        <time>2022-09-22T12:55:51.445Z</time>
      </trkpt>
      <trkpt lat="44.91485" lon="5.40776">
        <ele>1092</ele>
        <time>2022-09-22T12:55:52.445Z</time>
      </trkpt>
      <trkpt lat="44.91487" lon="5.40776">
        <ele>1092</ele>
        <time>2022-09-22T12:55:53.444Z</time>
      </trkpt>
      <trkpt lat="44.91488" lon="5.40775">
        <ele>1092</ele>
        <time>2022-09-22T12:55:54.445Z</time>
      </trkpt>
      <trkpt lat="44.9149" lon="5.40774">
        <ele>1093</ele>
        <time>2022-09-22T12:55:55.444Z</time>
      </trkpt>
      <trkpt lat="44.91492" lon="5.40774">
        <ele>1093</ele>
        <time>2022-09-22T12:55:56.444Z</time>
      </trkpt>
      <trkpt lat="44.91494" lon="5.40773">
        <ele>1093</ele>
        <time>2022-09-22T12:55:57.444Z</time>
      </trkpt>
      <trkpt lat="44.91496" lon="5.40772">
        <ele>1093</ele>
        <time>2022-09-22T12:55:58.444Z</time>
      </trkpt>
      <trkpt lat="44.91498" lon="5.40772">
        <ele>1093</ele>
        <time>2022-09-22T12:55:59.445Z</time>
      </trkpt>
      <trkpt lat="44.91501" lon="5.40772">
        <ele>1093</ele>
        <time>2022-09-22T12:56:00.445Z</time>
      </trkpt>
      <trkpt lat="44.91502" lon="5.40771">
        <ele>1092</ele>
        <time>2022-09-22T12:56:01.445Z</time>
      </trkpt>
      <trkpt lat="44.91504" lon="5.4077">
        <ele>1092</ele>
        <time>2022-09-22T12:56:02.445Z</time>
      </trkpt>
      <trkpt lat="44.91505" lon="5.40769">
        <ele>1092</ele>
        <time>2022-09-22T12:56:03.444Z</time>
      </trkpt>
      <trkpt lat="44.91507" lon="5.40768">
        <ele>1092</ele>
        <time>2022-09-22T12:56:04.445Z</time>
      </trkpt>
      <trkpt lat="44.91509" lon="5.40767">
        <ele>1091</ele>
        <time>2022-09-22T12:56:05.444Z</time>
      </trkpt>
      <trkpt lat="44.91511" lon="5.40765">
        <ele>1091</ele>
        <time>2022-09-22T12:56:06.445Z</time>
      </trkpt>
      <trkpt lat="44.91513" lon="5.40764">
        <ele>1091</ele>
        <time>2022-09-22T12:56:07.444Z</time>
      </trkpt>
      <trkpt lat="44.91514" lon="5.40761">
        <ele>1091</ele>
        <time>2022-09-22T12:56:08.445Z</time>
      </trkpt>
      <trkpt lat="44.91516" lon="5.40759">
        <ele>1091</ele>
        <time>2022-09-22T12:56:09.445Z</time>
      </trkpt>
      <trkpt lat="44.91519" lon="5.40756">
        <ele>1090</ele>
        <time>2022-09-22T12:56:10.445Z</time>
      </trkpt>
      <trkpt lat="44.91522" lon="5.40754">
        <ele>1090</ele>
        <time>2022-09-22T12:56:11.445Z</time>
      </trkpt>
      <trkpt lat="44.91525" lon="5.4075">
        <ele>1089</ele>
        <time>2022-09-22T12:56:12.445Z</time>
      </trkpt>
      <trkpt lat="44.91528" lon="5.40747">
        <ele>1089</ele>
        <time>2022-09-22T12:56:13.445Z</time>
      </trkpt>
      <trkpt lat="44.91532" lon="5.40743">
        <ele>1089</ele>
        <time>2022-09-22T12:56:14.445Z</time>
      </trkpt>
      <trkpt lat="44.91536" lon="5.4074">
        <ele>1089</ele>
        <time>2022-09-22T12:56:15.445Z</time>
      </trkpt>
      <trkpt lat="44.9154" lon="5.40735">
        <ele>1089</ele>
        <time>2022-09-22T12:56:16.445Z</time>
      </trkpt>
      <trkpt lat="44.91544" lon="5.40731">
        <ele>1089</ele>
        <time>2022-09-22T12:56:17.445Z</time>
      </trkpt>
      <trkpt lat="44.91547" lon="5.40726">
        <ele>1089</ele>
        <time>2022-09-22T12:56:18.444Z</time>
      </trkpt>
      <trkpt lat="44.9155" lon="5.40721">
        <ele>1089</ele>
        <time>2022-09-22T12:56:19.445Z</time>
      </trkpt>
      <trkpt lat="44.91552" lon="5.40715">
        <ele>1089</ele>
        <time>2022-09-22T12:56:20.445Z</time>
      </trkpt>
      <trkpt lat="44.91555" lon="5.40709">
        <ele>1089</ele>
        <time>2022-09-22T12:56:21.445Z</time>
      </trkpt>
      <trkpt lat="44.91558" lon="5.40703">
        <ele>1089</ele>
        <time>2022-09-22T12:56:22.445Z</time>
      </trkpt>
      <trkpt lat="44.91561" lon="5.40698">
        <ele>1089</ele>
        <time>2022-09-22T12:56:23.445Z</time>
      </trkpt>
      <trkpt lat="44.91565" lon="5.40694">
        <ele>1089</ele>
        <time>2022-09-22T12:56:24.445Z</time>
      </trkpt>
      <trkpt lat="44.91568" lon="5.40692">
        <ele>1089</ele>
        <time>2022-09-22T12:56:25.445Z</time>
      </trkpt>
      <trkpt lat="44.91573" lon="5.40691">
        <ele>1089</ele>
        <time>2022-09-22T12:56:26.445Z</time>
      </trkpt>
      <trkpt lat="44.91578" lon="5.4069">
        <ele>1089</ele>
        <time>2022-09-22T12:56:27.444Z</time>
      </trkpt>
      <trkpt lat="44.91583" lon="5.4069">
        <ele>1089</ele>
        <time>2022-09-22T12:56:28.445Z</time>
      </trkpt>
      <trkpt lat="44.91587" lon="5.40691">
        <ele>1089</ele>
        <time>2022-09-22T12:56:29.445Z</time>
      </trkpt>
      <trkpt lat="44.9159" lon="5.4069">
        <ele>1089</ele>
        <time>2022-09-22T12:56:30.445Z</time>
      </trkpt>
      <trkpt lat="44.91592" lon="5.40691">
        <ele>1089</ele>
        <time>2022-09-22T12:56:31.445Z</time>
      </trkpt>
      <trkpt lat="44.91594" lon="5.40691">
        <ele>1089</ele>
        <time>2022-09-22T12:56:32.444Z</time>
      </trkpt>
      <trkpt lat="44.91597" lon="5.40691">
        <ele>1090</ele>
        <time>2022-09-22T12:56:33.445Z</time>
      </trkpt>
      <trkpt lat="44.91599" lon="5.40691">
        <ele>1090</ele>
        <time>2022-09-22T12:56:34.444Z</time>
      </trkpt>
      <trkpt lat="44.91602" lon="5.40693">
        <ele>1090</ele>
        <time>2022-09-22T12:56:35.445Z</time>
      </trkpt>
      <trkpt lat="44.91605" lon="5.40694">
        <ele>1090</ele>
        <time>2022-09-22T12:56:36.445Z</time>
      </trkpt>
      <trkpt lat="44.91607" lon="5.40695">
        <ele>1091</ele>
        <time>2022-09-22T12:56:37.445Z</time>
      </trkpt>
      <trkpt lat="44.91609" lon="5.40697">
        <ele>1091</ele>
        <time>2022-09-22T12:56:38.445Z</time>
      </trkpt>
      <trkpt lat="44.91611" lon="5.407">
        <ele>1092</ele>
        <time>2022-09-22T12:56:39.445Z</time>
      </trkpt>
      <trkpt lat="44.91612" lon="5.40702">
        <ele>1092</ele>
        <time>2022-09-22T12:56:40.445Z</time>
      </trkpt>
      <trkpt lat="44.91613" lon="5.40705">
        <ele>1093</ele>
        <time>2022-09-22T12:56:41.445Z</time>
      </trkpt>
      <trkpt lat="44.91614" lon="5.40707">
        <ele>1093</ele>
        <time>2022-09-22T12:56:42.444Z</time>
      </trkpt>
      <trkpt lat="44.91615" lon="5.4071">
        <ele>1093</ele>
        <time>2022-09-22T12:56:43.444Z</time>
      </trkpt>
      <trkpt lat="44.91616" lon="5.40712">
        <ele>1094</ele>
        <time>2022-09-22T12:56:44.445Z</time>
      </trkpt>
      <trkpt lat="44.91615" lon="5.40716">
        <ele>1094</ele>
        <time>2022-09-22T12:56:45.444Z</time>
      </trkpt>
      <trkpt lat="44.91615" lon="5.4072">
        <ele>1094</ele>
        <time>2022-09-22T12:56:46.445Z</time>
      </trkpt>
      <trkpt lat="44.91615" lon="5.40725">
        <ele>1095</ele>
        <time>2022-09-22T12:56:47.445Z</time>
      </trkpt>
      <trkpt lat="44.91615" lon="5.4073">
        <ele>1095</ele>
        <time>2022-09-22T12:56:48.445Z</time>
      </trkpt>
      <trkpt lat="44.91614" lon="5.40734">
        <ele>1095</ele>
        <time>2022-09-22T12:56:49.445Z</time>
      </trkpt>
      <trkpt lat="44.91614" lon="5.40739">
        <ele>1096</ele>
        <time>2022-09-22T12:56:50.445Z</time>
      </trkpt>
      <trkpt lat="44.91614" lon="5.40744">
        <ele>1096</ele>
        <time>2022-09-22T12:56:51.445Z</time>
      </trkpt>
      <trkpt lat="44.91613" lon="5.40751">
        <ele>1097</ele>
        <time>2022-09-22T12:56:52.445Z</time>
      </trkpt>
      <trkpt lat="44.91613" lon="5.40759">
        <ele>1097</ele>
        <time>2022-09-22T12:56:53.444Z</time>
      </trkpt>
      <trkpt lat="44.91614" lon="5.40769">
        <ele>1097</ele>
        <time>2022-09-22T12:56:54.445Z</time>
      </trkpt>
      <trkpt lat="44.91614" lon="5.4078">
        <ele>1097</ele>
        <time>2022-09-22T12:56:55.445Z</time>
      </trkpt>
      <trkpt lat="44.91615" lon="5.4079">
        <ele>1097</ele>
        <time>2022-09-22T12:56:56.445Z</time>
      </trkpt>
      <trkpt lat="44.91615" lon="5.40801">
        <ele>1096</ele>
        <time>2022-09-22T12:56:57.445Z</time>
      </trkpt>
      <trkpt lat="44.91614" lon="5.4081">
        <ele>1096</ele>
        <time>2022-09-22T12:56:58.445Z</time>
      </trkpt>
      <trkpt lat="44.91613" lon="5.40819">
        <ele>1096</ele>
        <time>2022-09-22T12:56:59.445Z</time>
      </trkpt>
      <trkpt lat="44.91612" lon="5.40827">
        <ele>1096</ele>
        <time>2022-09-22T12:57:00.445Z</time>
      </trkpt>
      <trkpt lat="44.91613" lon="5.40834">
        <ele>1096</ele>
        <time>2022-09-22T12:57:01.445Z</time>
      </trkpt>
      <trkpt lat="44.91614" lon="5.40839">
        <ele>1095</ele>
        <time>2022-09-22T12:57:02.444Z</time>
      </trkpt>
      <trkpt lat="44.91616" lon="5.40843">
        <ele>1095</ele>
        <time>2022-09-22T12:57:03.445Z</time>
      </trkpt>
      <trkpt lat="44.91617" lon="5.40847">
        <ele>1095</ele>
        <time>2022-09-22T12:57:04.445Z</time>
      </trkpt>
      <trkpt lat="44.9162" lon="5.40849">
        <ele>1094</ele>
        <time>2022-09-22T12:57:05.445Z</time>
      </trkpt>
      <trkpt lat="44.91622" lon="5.40852">
        <ele>1094</ele>
        <time>2022-09-22T12:57:06.444Z</time>
      </trkpt>
      <trkpt lat="44.91625" lon="5.40855">
        <ele>1094</ele>
        <time>2022-09-22T12:57:07.444Z</time>
      </trkpt>
      <trkpt lat="44.91628" lon="5.40858">
        <ele>1094</ele>
        <time>2022-09-22T12:57:08.445Z</time>
      </trkpt>
      <trkpt lat="44.91631" lon="5.4086">
        <ele>1093</ele>
        <time>2022-09-22T12:57:09.444Z</time>
      </trkpt>
      <trkpt lat="44.91634" lon="5.40862">
        <ele>1093</ele>
        <time>2022-09-22T12:57:10.445Z</time>
      </trkpt>
      <trkpt lat="44.91637" lon="5.40865">
        <ele>1093</ele>
        <time>2022-09-22T12:57:11.444Z</time>
      </trkpt>
      <trkpt lat="44.91639" lon="5.40866">
        <ele>1093</ele>
        <time>2022-09-22T12:57:12.444Z</time>
      </trkpt>
      <trkpt lat="44.91643" lon="5.40867">
        <ele>1093</ele>
        <time>2022-09-22T12:57:13.445Z</time>
      </trkpt>
      <trkpt lat="44.91646" lon="5.40867">
        <ele>1093</ele>
        <time>2022-09-22T12:57:14.445Z</time>
      </trkpt>
      <trkpt lat="44.91648" lon="5.40867">
        <ele>1093</ele>
        <time>2022-09-22T12:57:15.445Z</time>
      </trkpt>
      <trkpt lat="44.91651" lon="5.40867">
        <ele>1093</ele>
        <time>2022-09-22T12:57:16.445Z</time>
      </trkpt>
      <trkpt lat="44.91654" lon="5.40866">
        <ele>1094</ele>
        <time>2022-09-22T12:57:17.444Z</time>
      </trkpt>
      <trkpt lat="44.91656" lon="5.40865">
        <ele>1094</ele>
        <time>2022-09-22T12:57:18.445Z</time>
      </trkpt>
      <trkpt lat="44.91658" lon="5.40864">
        <ele>1095</ele>
        <time>2022-09-22T12:57:19.445Z</time>
      </trkpt>
      <trkpt lat="44.9166" lon="5.40863">
        <ele>1096</ele>
        <time>2022-09-22T12:57:20.445Z</time>
      </trkpt>
      <trkpt lat="44.91662" lon="5.40863">
        <ele>1096</ele>
        <time>2022-09-22T12:57:21.445Z</time>
      </trkpt>
      <trkpt lat="44.91664" lon="5.40863">
        <ele>1096</ele>
        <time>2022-09-22T12:57:22.445Z</time>
      </trkpt>
      <trkpt lat="44.91666" lon="5.40862">
        <ele>1095</ele>
        <time>2022-09-22T12:57:23.445Z</time>
      </trkpt>
      <trkpt lat="44.91668" lon="5.40862">
        <ele>1095</ele>
        <time>2022-09-22T12:57:24.445Z</time>
      </trkpt>
      <trkpt lat="44.91671" lon="5.40862">
        <ele>1095</ele>
        <time>2022-09-22T12:57:25.445Z</time>
      </trkpt>
      <trkpt lat="44.91673" lon="5.40861">
        <ele>1094</ele>
        <time>2022-09-22T12:57:26.445Z</time>
      </trkpt>
      <trkpt lat="44.91675" lon="5.40861">
        <ele>1094</ele>
        <time>2022-09-22T12:57:27.444Z</time>
      </trkpt>
      <trkpt lat="44.91677" lon="5.40861">
        <ele>1093</ele>
        <time>2022-09-22T12:57:28.445Z</time>
      </trkpt>
      <trkpt lat="44.91679" lon="5.4086">
        <ele>1093</ele>
        <time>2022-09-22T12:57:29.445Z</time>
      </trkpt>
      <trkpt lat="44.9168" lon="5.4086">
        <ele>1093</ele>
        <time>2022-09-22T12:57:30.444Z</time>
      </trkpt>
      <trkpt lat="44.91683" lon="5.4086">
        <ele>1093</ele>
        <time>2022-09-22T12:57:31.445Z</time>
      </trkpt>
      <trkpt lat="44.91685" lon="5.40861">
        <ele>1093</ele>
        <time>2022-09-22T12:57:32.445Z</time>
      </trkpt>
      <trkpt lat="44.91688" lon="5.40861">
        <ele>1093</ele>
        <time>2022-09-22T12:57:33.445Z</time>
      </trkpt>
      <trkpt lat="44.9169" lon="5.4086">
        <ele>1092</ele>
        <time>2022-09-22T12:57:34.445Z</time>
      </trkpt>
      <trkpt lat="44.91693" lon="5.40859">
        <ele>1092</ele>
        <time>2022-09-22T12:57:35.445Z</time>
      </trkpt>
      <trkpt lat="44.91695" lon="5.40859">
        <ele>1091</ele>
        <time>2022-09-22T12:57:36.445Z</time>
      </trkpt>
      <trkpt lat="44.91698" lon="5.40858">
        <ele>1091</ele>
        <time>2022-09-22T12:57:37.444Z</time>
      </trkpt>
      <trkpt lat="44.917" lon="5.40857">
        <ele>1090</ele>
        <time>2022-09-22T12:57:38.445Z</time>
      </trkpt>
      <trkpt lat="44.91703" lon="5.40856">
        <ele>1090</ele>
        <time>2022-09-22T12:57:39.445Z</time>
      </trkpt>
      <trkpt lat="44.91706" lon="5.40856">
        <ele>1089</ele>
        <time>2022-09-22T12:57:40.445Z</time>
      </trkpt>
      <trkpt lat="44.91708" lon="5.40855">
        <ele>1089</ele>
        <time>2022-09-22T12:57:41.445Z</time>
      </trkpt>
      <trkpt lat="44.9171" lon="5.40854">
        <ele>1089</ele>
        <time>2022-09-22T12:57:42.445Z</time>
      </trkpt>
      <trkpt lat="44.91712" lon="5.40853">
        <ele>1088</ele>
        <time>2022-09-22T12:57:43.444Z</time>
      </trkpt>
      <trkpt lat="44.91714" lon="5.40853">
        <ele>1088</ele>
        <time>2022-09-22T12:57:44.445Z</time>
      </trkpt>
      <trkpt lat="44.91716" lon="5.40852">
        <ele>1088</ele>
        <time>2022-09-22T12:57:45.445Z</time>
      </trkpt>
      <trkpt lat="44.91718" lon="5.40852">
        <ele>1088</ele>
        <time>2022-09-22T12:57:46.445Z</time>
      </trkpt>
      <trkpt lat="44.9172" lon="5.40851">
        <ele>1088</ele>
        <time>2022-09-22T12:57:47.445Z</time>
      </trkpt>
      <trkpt lat="44.91722" lon="5.4085">
        <ele>1088</ele>
        <time>2022-09-22T12:57:48.444Z</time>
      </trkpt>
      <trkpt lat="44.91724" lon="5.40849">
        <ele>1088</ele>
        <time>2022-09-22T12:57:49.444Z</time>
      </trkpt>
      <trkpt lat="44.91726" lon="5.40849">
        <ele>1088</ele>
        <time>2022-09-22T12:57:50.445Z</time>
      </trkpt>
      <trkpt lat="44.91727" lon="5.40848">
        <ele>1088</ele>
        <time>2022-09-22T12:57:51.445Z</time>
      </trkpt>
      <trkpt lat="44.91729" lon="5.40848">
        <ele>1087</ele>
        <time>2022-09-22T12:57:52.445Z</time>
      </trkpt>
      <trkpt lat="44.91731" lon="5.40848">
        <ele>1087</ele>
        <time>2022-09-22T12:57:53.445Z</time>
      </trkpt>
      <trkpt lat="44.91733" lon="5.40847">
        <ele>1087</ele>
        <time>2022-09-22T12:57:54.445Z</time>
      </trkpt>
      <trkpt lat="44.91734" lon="5.40846">
        <ele>1087</ele>
        <time>2022-09-22T12:57:55.445Z</time>
      </trkpt>
      <trkpt lat="44.91736" lon="5.40846">
        <ele>1087</ele>
        <time>2022-09-22T12:57:56.445Z</time>
      </trkpt>
      <trkpt lat="44.91738" lon="5.40845">
        <ele>1087</ele>
        <time>2022-09-22T12:57:57.445Z</time>
      </trkpt>
      <trkpt lat="44.91739" lon="5.40845">
        <ele>1087</ele>
        <time>2022-09-22T12:57:58.444Z</time>
      </trkpt>
      <trkpt lat="44.91741" lon="5.40845">
        <ele>1086</ele>
        <time>2022-09-22T12:57:59.445Z</time>
      </trkpt>
      <trkpt lat="44.91743" lon="5.40844">
        <ele>1086</ele>
        <time>2022-09-22T12:58:00.445Z</time>
      </trkpt>
      <trkpt lat="44.91745" lon="5.40844">
        <ele>1086</ele>
        <time>2022-09-22T12:58:01.445Z</time>
      </trkpt>
      <trkpt lat="44.91746" lon="5.40843">
        <ele>1086</ele>
        <time>2022-09-22T12:58:02.444Z</time>
      </trkpt>
      <trkpt lat="44.91748" lon="5.40842">
        <ele>1086</ele>
        <time>2022-09-22T12:58:03.445Z</time>
      </trkpt>
      <trkpt lat="44.9175" lon="5.40842">
        <ele>1086</ele>
        <time>2022-09-22T12:58:04.445Z</time>
      </trkpt>
      <trkpt lat="44.91751" lon="5.40842">
        <ele>1086</ele>
        <time>2022-09-22T12:58:05.445Z</time>
      </trkpt>
      <trkpt lat="44.91753" lon="5.40841">
        <ele>1086</ele>
        <time>2022-09-22T12:58:06.445Z</time>
      </trkpt>
      <trkpt lat="44.91755" lon="5.4084">
        <ele>1086</ele>
        <time>2022-09-22T12:58:07.445Z</time>
      </trkpt>
      <trkpt lat="44.91756" lon="5.40839">
        <ele>1087</ele>
        <time>2022-09-22T12:58:08.445Z</time>
      </trkpt>
      <trkpt lat="44.91758" lon="5.40838">
        <ele>1087</ele>
        <time>2022-09-22T12:58:09.445Z</time>
      </trkpt>
      <trkpt lat="44.9176" lon="5.40837">
        <ele>1087</ele>
        <time>2022-09-22T12:58:10.445Z</time>
      </trkpt>
      <trkpt lat="44.91762" lon="5.40837">
        <ele>1087</ele>
        <time>2022-09-22T12:58:11.444Z</time>
      </trkpt>
      <trkpt lat="44.91763" lon="5.40836">
        <ele>1088</ele>
        <time>2022-09-22T12:58:12.445Z</time>
      </trkpt>
      <trkpt lat="44.91765" lon="5.40835">
        <ele>1089</ele>
        <time>2022-09-22T12:58:13.445Z</time>
      </trkpt>
      <trkpt lat="44.91767" lon="5.40834">
        <ele>1089</ele>
        <time>2022-09-22T12:58:14.445Z</time>
      </trkpt>
      <trkpt lat="44.91768" lon="5.40833">
        <ele>1089</ele>
        <time>2022-09-22T12:58:15.445Z</time>
      </trkpt>
      <trkpt lat="44.9177" lon="5.40833">
        <ele>1090</ele>
        <time>2022-09-22T12:58:16.445Z</time>
      </trkpt>
      <trkpt lat="44.91772" lon="5.40833">
        <ele>1090</ele>
        <time>2022-09-22T12:58:17.445Z</time>
      </trkpt>
      <trkpt lat="44.91774" lon="5.40832">
        <ele>1091</ele>
        <time>2022-09-22T12:58:18.445Z</time>
      </trkpt>
      <trkpt lat="44.91776" lon="5.40833">
        <ele>1091</ele>
        <time>2022-09-22T12:58:19.445Z</time>
      </trkpt>
      <trkpt lat="44.91777" lon="5.40833">
        <ele>1091</ele>
        <time>2022-09-22T12:58:20.445Z</time>
      </trkpt>
      <trkpt lat="44.91779" lon="5.40832">
        <ele>1091</ele>
        <time>2022-09-22T12:58:21.445Z</time>
      </trkpt>
      <trkpt lat="44.91781" lon="5.40833">
        <ele>1092</ele>
        <time>2022-09-22T12:58:22.445Z</time>
      </trkpt>
      <trkpt lat="44.91782" lon="5.40833">
        <ele>1092</ele>
        <time>2022-09-22T12:58:23.444Z</time>
      </trkpt>
      <trkpt lat="44.91784" lon="5.40833">
        <ele>1092</ele>
        <time>2022-09-22T12:58:24.444Z</time>
      </trkpt>
      <trkpt lat="44.91786" lon="5.40833">
        <ele>1092</ele>
        <time>2022-09-22T12:58:25.445Z</time>
      </trkpt>
      <trkpt lat="44.91787" lon="5.40834">
        <ele>1092</ele>
        <time>2022-09-22T12:58:26.444Z</time>
      </trkpt>
      <trkpt lat="44.91789" lon="5.40834">
        <ele>1092</ele>
        <time>2022-09-22T12:58:27.444Z</time>
      </trkpt>
      <trkpt lat="44.91791" lon="5.40834">
        <ele>1092</ele>
        <time>2022-09-22T12:58:28.445Z</time>
      </trkpt>
      <trkpt lat="44.91792" lon="5.40835">
        <ele>1092</ele>
        <time>2022-09-22T12:58:29.445Z</time>
      </trkpt>
      <trkpt lat="44.91794" lon="5.40835">
        <ele>1092</ele>
        <time>2022-09-22T12:58:30.444Z</time>
      </trkpt>
      <trkpt lat="44.91796" lon="5.40836">
        <ele>1092</ele>
        <time>2022-09-22T12:58:31.445Z</time>
      </trkpt>
      <trkpt lat="44.91797" lon="5.40836">
        <ele>1092</ele>
        <time>2022-09-22T12:58:32.444Z</time>
      </trkpt>
      <trkpt lat="44.91799" lon="5.40836">
        <ele>1093</ele>
        <time>2022-09-22T12:58:33.445Z</time>
      </trkpt>
      <trkpt lat="44.91801" lon="5.40837">
        <ele>1093</ele>
        <time>2022-09-22T12:58:34.445Z</time>
      </trkpt>
      <trkpt lat="44.91802" lon="5.40838">
        <ele>1093</ele>
        <time>2022-09-22T12:58:35.445Z</time>
      </trkpt>
      <trkpt lat="44.91803" lon="5.40839">
        <ele>1093</ele>
        <time>2022-09-22T12:58:36.444Z</time>
      </trkpt>
      <trkpt lat="44.91805" lon="5.40839">
        <ele>1093</ele>
        <time>2022-09-22T12:58:37.445Z</time>
      </trkpt>
      <trkpt lat="44.91806" lon="5.40839">
        <ele>1093</ele>
        <time>2022-09-22T12:58:38.445Z</time>
      </trkpt>
      <trkpt lat="44.91808" lon="5.4084">
        <ele>1093</ele>
        <time>2022-09-22T12:58:39.445Z</time>
      </trkpt>
      <trkpt lat="44.91809" lon="5.4084">
        <ele>1093</ele>
        <time>2022-09-22T12:58:40.445Z</time>
      </trkpt>
      <trkpt lat="44.91811" lon="5.40841">
        <ele>1092</ele>
        <time>2022-09-22T12:58:41.445Z</time>
      </trkpt>
      <trkpt lat="44.91812" lon="5.40841">
        <ele>1092</ele>
        <time>2022-09-22T12:58:42.445Z</time>
      </trkpt>
      <trkpt lat="44.91814" lon="5.40841">
        <ele>1092</ele>
        <time>2022-09-22T12:58:43.445Z</time>
      </trkpt>
      <trkpt lat="44.91816" lon="5.40842">
        <ele>1092</ele>
        <time>2022-09-22T12:58:44.444Z</time>
      </trkpt>
      <trkpt lat="44.91817" lon="5.40842">
        <ele>1092</ele>
        <time>2022-09-22T12:58:45.445Z</time>
      </trkpt>
      <trkpt lat="44.91819" lon="5.40842">
        <ele>1092</ele>
        <time>2022-09-22T12:58:46.445Z</time>
      </trkpt>
      <trkpt lat="44.91821" lon="5.40842">
        <ele>1093</ele>
        <time>2022-09-22T12:58:47.445Z</time>
      </trkpt>
      <trkpt lat="44.91822" lon="5.40842">
        <ele>1093</ele>
        <time>2022-09-22T12:58:48.445Z</time>
      </trkpt>
      <trkpt lat="44.91824" lon="5.40843">
        <ele>1093</ele>
        <time>2022-09-22T12:58:49.445Z</time>
      </trkpt>
      <trkpt lat="44.91825" lon="5.40843">
        <ele>1093</ele>
        <time>2022-09-22T12:58:50.445Z</time>
      </trkpt>
      <trkpt lat="44.91827" lon="5.40844">
        <ele>1094</ele>
        <time>2022-09-22T12:58:51.445Z</time>
      </trkpt>
      <trkpt lat="44.91828" lon="5.40845">
        <ele>1094</ele>
        <time>2022-09-22T12:58:52.445Z</time>
      </trkpt>
      <trkpt lat="44.9183" lon="5.40846">
        <ele>1095</ele>
        <time>2022-09-22T12:58:53.445Z</time>
      </trkpt>
      <trkpt lat="44.91832" lon="5.40847">
        <ele>1095</ele>
        <time>2022-09-22T12:58:54.444Z</time>
      </trkpt>
      <trkpt lat="44.91833" lon="5.40847">
        <ele>1095</ele>
        <time>2022-09-22T12:58:55.445Z</time>
      </trkpt>
      <trkpt lat="44.91835" lon="5.40848">
        <ele>1095</ele>
        <time>2022-09-22T12:58:56.445Z</time>
      </trkpt>
      <trkpt lat="44.91836" lon="5.40849">
        <ele>1095</ele>
        <time>2022-09-22T12:58:57.444Z</time>
      </trkpt>
      <trkpt lat="44.91837" lon="5.4085">
        <ele>1095</ele>
        <time>2022-09-22T12:58:58.445Z</time>
      </trkpt>
      <trkpt lat="44.91839" lon="5.4085">
        <ele>1095</ele>
        <time>2022-09-22T12:58:59.445Z</time>
      </trkpt>
      <trkpt lat="44.9184" lon="5.40851">
        <ele>1095</ele>
        <time>2022-09-22T12:59:00.445Z</time>
      </trkpt>
      <trkpt lat="44.91841" lon="5.40851">
        <ele>1096</ele>
        <time>2022-09-22T12:59:01.444Z</time>
      </trkpt>
      <trkpt lat="44.91843" lon="5.40851">
        <ele>1096</ele>
        <time>2022-09-22T12:59:02.445Z</time>
      </trkpt>
      <trkpt lat="44.91845" lon="5.40852">
        <ele>1097</ele>
        <time>2022-09-22T12:59:03.444Z</time>
      </trkpt>
      <trkpt lat="44.91846" lon="5.40852">
        <ele>1097</ele>
        <time>2022-09-22T12:59:04.445Z</time>
      </trkpt>
      <trkpt lat="44.91847" lon="5.40853">
        <ele>1097</ele>
        <time>2022-09-22T12:59:05.444Z</time>
      </trkpt>
      <trkpt lat="44.91849" lon="5.40853">
        <ele>1097</ele>
        <time>2022-09-22T12:59:06.445Z</time>
      </trkpt>
      <trkpt lat="44.9185" lon="5.40854">
        <ele>1097</ele>
        <time>2022-09-22T12:59:07.445Z</time>
      </trkpt>
      <trkpt lat="44.91852" lon="5.40855">
        <ele>1097</ele>
        <time>2022-09-22T12:59:08.445Z</time>
      </trkpt>
      <trkpt lat="44.91853" lon="5.40857">
        <ele>1097</ele>
        <time>2022-09-22T12:59:09.445Z</time>
      </trkpt>
      <trkpt lat="44.91854" lon="5.40858">
        <ele>1097</ele>
        <time>2022-09-22T12:59:10.445Z</time>
      </trkpt>
      <trkpt lat="44.91855" lon="5.40859">
        <ele>1097</ele>
        <time>2022-09-22T12:59:11.445Z</time>
      </trkpt>
      <trkpt lat="44.91857" lon="5.40861">
        <ele>1098</ele>
        <time>2022-09-22T12:59:12.444Z</time>
      </trkpt>
      <trkpt lat="44.91858" lon="5.40862">
        <ele>1098</ele>
        <time>2022-09-22T12:59:13.444Z</time>
      </trkpt>
      <trkpt lat="44.91859" lon="5.40863">
        <ele>1098</ele>
        <time>2022-09-22T12:59:14.445Z</time>
      </trkpt>
      <trkpt lat="44.9186" lon="5.40865">
        <ele>1098</ele>
        <time>2022-09-22T12:59:15.445Z</time>
      </trkpt>
      <trkpt lat="44.91861" lon="5.40866">
        <ele>1099</ele>
        <time>2022-09-22T12:59:16.444Z</time>
      </trkpt>
      <trkpt lat="44.91862" lon="5.40868">
        <ele>1099</ele>
        <time>2022-09-22T12:59:17.445Z</time>
      </trkpt>
      <trkpt lat="44.91862" lon="5.4087">
        <ele>1099</ele>
        <time>2022-09-22T12:59:18.445Z</time>
      </trkpt>
      <trkpt lat="44.91863" lon="5.40872">
        <ele>1099</ele>
        <time>2022-09-22T12:59:19.445Z</time>
      </trkpt>
      <trkpt lat="44.91864" lon="5.40874">
        <ele>1099</ele>
        <time>2022-09-22T12:59:20.444Z</time>
      </trkpt>
      <trkpt lat="44.91864" lon="5.40876">
        <ele>1099</ele>
        <time>2022-09-22T12:59:21.444Z</time>
      </trkpt>
      <trkpt lat="44.91864" lon="5.40877">
        <ele>1099</ele>
        <time>2022-09-22T12:59:22.445Z</time>
      </trkpt>
      <trkpt lat="44.91864" lon="5.40879">
        <ele>1100</ele>
        <time>2022-09-22T12:59:23.445Z</time>
      </trkpt>
      <trkpt lat="44.91864" lon="5.40881">
        <ele>1100</ele>
        <time>2022-09-22T12:59:24.445Z</time>
      </trkpt>
      <trkpt lat="44.91864" lon="5.40884">
        <ele>1100</ele>
        <time>2022-09-22T12:59:25.445Z</time>
      </trkpt>
      <trkpt lat="44.91864" lon="5.40886">
        <ele>1101</ele>
        <time>2022-09-22T12:59:26.445Z</time>
      </trkpt>
      <trkpt lat="44.91864" lon="5.40888">
        <ele>1101</ele>
        <time>2022-09-22T12:59:27.445Z</time>
      </trkpt>
      <trkpt lat="44.91864" lon="5.4089">
        <ele>1101</ele>
        <time>2022-09-22T12:59:28.445Z</time>
      </trkpt>
      <trkpt lat="44.91864" lon="5.40892">
        <ele>1102</ele>
        <time>2022-09-22T12:59:29.445Z</time>
      </trkpt>
      <trkpt lat="44.91864" lon="5.40894">
        <ele>1102</ele>
        <time>2022-09-22T12:59:30.445Z</time>
      </trkpt>
      <trkpt lat="44.91864" lon="5.40895">
        <ele>1102</ele>
        <time>2022-09-22T12:59:31.444Z</time>
      </trkpt>
      <trkpt lat="44.91864" lon="5.40897">
        <ele>1102</ele>
        <time>2022-09-22T12:59:32.445Z</time>
      </trkpt>
      <trkpt lat="44.91864" lon="5.409">
        <ele>1102</ele>
        <time>2022-09-22T12:59:33.445Z</time>
      </trkpt>
      <trkpt lat="44.91864" lon="5.40902">
        <ele>1102</ele>
        <time>2022-09-22T12:59:34.445Z</time>
      </trkpt>
      <trkpt lat="44.91865" lon="5.40904">
        <ele>1103</ele>
        <time>2022-09-22T12:59:35.445Z</time>
      </trkpt>
      <trkpt lat="44.91864" lon="5.40907">
        <ele>1103</ele>
        <time>2022-09-22T12:59:36.445Z</time>
      </trkpt>
      <trkpt lat="44.91864" lon="5.4091">
        <ele>1104</ele>
        <time>2022-09-22T12:59:37.445Z</time>
      </trkpt>
      <trkpt lat="44.91864" lon="5.40911">
        <ele>1105</ele>
        <time>2022-09-22T12:59:38.445Z</time>
      </trkpt>
      <trkpt lat="44.91865" lon="5.40913">
        <ele>1105</ele>
        <time>2022-09-22T12:59:39.445Z</time>
      </trkpt>
      <trkpt lat="44.91865" lon="5.40915">
        <ele>1105</ele>
        <time>2022-09-22T12:59:40.445Z</time>
      </trkpt>
      <trkpt lat="44.91865" lon="5.40917">
        <ele>1105</ele>
        <time>2022-09-22T12:59:41.445Z</time>
      </trkpt>
      <trkpt lat="44.91865" lon="5.4092">
        <ele>1105</ele>
        <time>2022-09-22T12:59:42.445Z</time>
      </trkpt>
      <trkpt lat="44.91866" lon="5.40922">
        <ele>1104</ele>
        <time>2022-09-22T12:59:43.445Z</time>
      </trkpt>
      <trkpt lat="44.91866" lon="5.40924">
        <ele>1104</ele>
        <time>2022-09-22T12:59:44.445Z</time>
      </trkpt>
      <trkpt lat="44.91866" lon="5.40926">
        <ele>1105</ele>
        <time>2022-09-22T12:59:45.445Z</time>
      </trkpt>
      <trkpt lat="44.91866" lon="5.40929">
        <ele>1104</ele>
        <time>2022-09-22T12:59:46.444Z</time>
      </trkpt>
      <trkpt lat="44.91866" lon="5.40931">
        <ele>1105</ele>
        <time>2022-09-22T12:59:47.445Z</time>
      </trkpt>
      <trkpt lat="44.91866" lon="5.40933">
        <ele>1105</ele>
        <time>2022-09-22T12:59:48.445Z</time>
      </trkpt>
      <trkpt lat="44.91866" lon="5.40935">
        <ele>1105</ele>
        <time>2022-09-22T12:59:49.445Z</time>
      </trkpt>
      <trkpt lat="44.91866" lon="5.40938">
        <ele>1105</ele>
        <time>2022-09-22T12:59:50.445Z</time>
      </trkpt>
      <trkpt lat="44.91866" lon="5.4094">
        <ele>1105</ele>
        <time>2022-09-22T12:59:51.445Z</time>
      </trkpt>
      <trkpt lat="44.91867" lon="5.40943">
        <ele>1106</ele>
        <time>2022-09-22T12:59:52.445Z</time>
      </trkpt>
      <trkpt lat="44.91866" lon="5.40945">
        <ele>1106</ele>
        <time>2022-09-22T12:59:53.445Z</time>
      </trkpt>
      <trkpt lat="44.91866" lon="5.40947">
        <ele>1106</ele>
        <time>2022-09-22T12:59:54.445Z</time>
      </trkpt>
      <trkpt lat="44.91866" lon="5.4095">
        <ele>1107</ele>
        <time>2022-09-22T12:59:55.444Z</time>
      </trkpt>
      <trkpt lat="44.91866" lon="5.40952">
        <ele>1107</ele>
        <time>2022-09-22T12:59:56.445Z</time>
      </trkpt>
      <trkpt lat="44.91866" lon="5.40954">
        <ele>1108</ele>
        <time>2022-09-22T12:59:57.445Z</time>
      </trkpt>
      <trkpt lat="44.91866" lon="5.40957">
        <ele>1108</ele>
        <time>2022-09-22T12:59:58.444Z</time>
      </trkpt>
      <trkpt lat="44.91866" lon="5.4096">
        <ele>1109</ele>
        <time>2022-09-22T12:59:59.445Z</time>
      </trkpt>
      <trkpt lat="44.91866" lon="5.40962">
        <ele>1109</ele>
        <time>2022-09-22T13:00:00.445Z</time>
      </trkpt>
      <trkpt lat="44.91867" lon="5.40963">
        <ele>1109</ele>
        <time>2022-09-22T13:00:01.445Z</time>
      </trkpt>
      <trkpt lat="44.91867" lon="5.40965">
        <ele>1109</ele>
        <time>2022-09-22T13:00:02.445Z</time>
      </trkpt>
      <trkpt lat="44.91867" lon="5.40967">
        <ele>1109</ele>
        <time>2022-09-22T13:00:03.444Z</time>
      </trkpt>
      <trkpt lat="44.91868" lon="5.40969">
        <ele>1109</ele>
        <time>2022-09-22T13:00:04.445Z</time>
      </trkpt>
      <trkpt lat="44.91868" lon="5.40971">
        <ele>1108</ele>
        <time>2022-09-22T13:00:05.445Z</time>
      </trkpt>
      <trkpt lat="44.91869" lon="5.40973">
        <ele>1108</ele>
        <time>2022-09-22T13:00:06.444Z</time>
      </trkpt>
      <trkpt lat="44.91869" lon="5.40976">
        <ele>1108</ele>
        <time>2022-09-22T13:00:07.445Z</time>
      </trkpt>
      <trkpt lat="44.9187" lon="5.40978">
        <ele>1108</ele>
        <time>2022-09-22T13:00:08.445Z</time>
      </trkpt>
      <trkpt lat="44.91871" lon="5.40981">
        <ele>1108</ele>
        <time>2022-09-22T13:00:09.445Z</time>
      </trkpt>
      <trkpt lat="44.91871" lon="5.40983">
        <ele>1108</ele>
        <time>2022-09-22T13:00:10.445Z</time>
      </trkpt>
      <trkpt lat="44.91872" lon="5.40986">
        <ele>1108</ele>
        <time>2022-09-22T13:00:11.445Z</time>
      </trkpt>
      <trkpt lat="44.91873" lon="5.40988">
        <ele>1108</ele>
        <time>2022-09-22T13:00:12.445Z</time>
      </trkpt>
      <trkpt lat="44.91874" lon="5.40991">
        <ele>1108</ele>
        <time>2022-09-22T13:00:13.444Z</time>
      </trkpt>
      <trkpt lat="44.91874" lon="5.40993">
        <ele>1107</ele>
        <time>2022-09-22T13:00:14.445Z</time>
      </trkpt>
      <trkpt lat="44.91875" lon="5.40996">
        <ele>1107</ele>
        <time>2022-09-22T13:00:15.445Z</time>
      </trkpt>
      <trkpt lat="44.91875" lon="5.40998">
        <ele>1107</ele>
        <time>2022-09-22T13:00:16.444Z</time>
      </trkpt>
      <trkpt lat="44.91876" lon="5.41001">
        <ele>1107</ele>
        <time>2022-09-22T13:00:17.445Z</time>
      </trkpt>
      <trkpt lat="44.91876" lon="5.41004">
        <ele>1107</ele>
        <time>2022-09-22T13:00:18.445Z</time>
      </trkpt>
      <trkpt lat="44.91877" lon="5.41007">
        <ele>1107</ele>
        <time>2022-09-22T13:00:19.444Z</time>
      </trkpt>
      <trkpt lat="44.91877" lon="5.41009">
        <ele>1107</ele>
        <time>2022-09-22T13:00:20.445Z</time>
      </trkpt>
      <trkpt lat="44.91878" lon="5.41011">
        <ele>1107</ele>
        <time>2022-09-22T13:00:21.445Z</time>
      </trkpt>
      <trkpt lat="44.91878" lon="5.41014">
        <ele>1108</ele>
        <time>2022-09-22T13:00:22.445Z</time>
      </trkpt>
      <trkpt lat="44.91879" lon="5.41017">
        <ele>1108</ele>
        <time>2022-09-22T13:00:23.445Z</time>
      </trkpt>
      <trkpt lat="44.91879" lon="5.41019">
        <ele>1108</ele>
        <time>2022-09-22T13:00:24.445Z</time>
      </trkpt>
      <trkpt lat="44.9188" lon="5.41021">
        <ele>1107</ele>
        <time>2022-09-22T13:00:25.445Z</time>
      </trkpt>
      <trkpt lat="44.9188" lon="5.41024">
        <ele>1107</ele>
        <time>2022-09-22T13:00:26.444Z</time>
      </trkpt>
      <trkpt lat="44.91881" lon="5.41026">
        <ele>1107</ele>
        <time>2022-09-22T13:00:27.444Z</time>
      </trkpt>
      <trkpt lat="44.91881" lon="5.41029">
        <ele>1107</ele>
        <time>2022-09-22T13:00:28.445Z</time>
      </trkpt>
      <trkpt lat="44.91882" lon="5.41031">
        <ele>1107</ele>
        <time>2022-09-22T13:00:29.445Z</time>
      </trkpt>
      <trkpt lat="44.91883" lon="5.41032">
        <ele>1107</ele>
        <time>2022-09-22T13:00:30.444Z</time>
      </trkpt>
      <trkpt lat="44.91884" lon="5.41034">
        <ele>1107</ele>
        <time>2022-09-22T13:00:31.444Z</time>
      </trkpt>
      <trkpt lat="44.91886" lon="5.41035">
        <ele>1106</ele>
        <time>2022-09-22T13:00:32.445Z</time>
      </trkpt>
      <trkpt lat="44.91888" lon="5.41036">
        <ele>1106</ele>
        <time>2022-09-22T13:00:33.444Z</time>
      </trkpt>
      <trkpt lat="44.91889" lon="5.41038">
        <ele>1106</ele>
        <time>2022-09-22T13:00:34.444Z</time>
      </trkpt>
      <trkpt lat="44.91891" lon="5.41039">
        <ele>1107</ele>
        <time>2022-09-22T13:00:35.445Z</time>
      </trkpt>
      <trkpt lat="44.91893" lon="5.4104">
        <ele>1107</ele>
        <time>2022-09-22T13:00:36.444Z</time>
      </trkpt>
      <trkpt lat="44.91894" lon="5.4104">
        <ele>1108</ele>
        <time>2022-09-22T13:00:37.444Z</time>
      </trkpt>
      <trkpt lat="44.91896" lon="5.41041">
        <ele>1108</ele>
        <time>2022-09-22T13:00:38.445Z</time>
      </trkpt>
      <trkpt lat="44.91897" lon="5.41041">
        <ele>1109</ele>
        <time>2022-09-22T13:00:39.445Z</time>
      </trkpt>
      <trkpt lat="44.91899" lon="5.41042">
        <ele>1110</ele>
        <time>2022-09-22T13:00:40.445Z</time>
      </trkpt>
      <trkpt lat="44.919" lon="5.41043">
        <ele>1110</ele>
        <time>2022-09-22T13:00:41.444Z</time>
      </trkpt>
      <trkpt lat="44.91902" lon="5.41045">
        <ele>1110</ele>
        <time>2022-09-22T13:00:42.445Z</time>
      </trkpt>
      <trkpt lat="44.91904" lon="5.41047">
        <ele>1110</ele>
        <time>2022-09-22T13:00:43.445Z</time>
      </trkpt>
      <trkpt lat="44.91907" lon="5.41049">
        <ele>1110</ele>
        <time>2022-09-22T13:00:44.444Z</time>
      </trkpt>
      <trkpt lat="44.9191" lon="5.41052">
        <ele>1110</ele>
        <time>2022-09-22T13:00:45.445Z</time>
      </trkpt>
      <trkpt lat="44.91913" lon="5.41056">
        <ele>1111</ele>
        <time>2022-09-22T13:00:46.445Z</time>
      </trkpt>
      <trkpt lat="44.91916" lon="5.41061">
        <ele>1110</ele>
        <time>2022-09-22T13:00:47.445Z</time>
      </trkpt>
      <trkpt lat="44.9192" lon="5.41067">
        <ele>1110</ele>
        <time>2022-09-22T13:00:48.445Z</time>
      </trkpt>
      <trkpt lat="44.91923" lon="5.41074">
        <ele>1110</ele>
        <time>2022-09-22T13:00:49.445Z</time>
      </trkpt>
      <trkpt lat="44.91927" lon="5.41082">
        <ele>1109</ele>
        <time>2022-09-22T13:00:50.444Z</time>
      </trkpt>
      <trkpt lat="44.91931" lon="5.41091">
        <ele>1109</ele>
        <time>2022-09-22T13:00:51.444Z</time>
      </trkpt>
      <trkpt lat="44.91934" lon="5.41099">
        <ele>1109</ele>
        <time>2022-09-22T13:00:52.445Z</time>
      </trkpt>
      <trkpt lat="44.91937" lon="5.41107">
        <ele>1108</ele>
        <time>2022-09-22T13:00:53.445Z</time>
      </trkpt>
      <trkpt lat="44.9194" lon="5.41113">
        <ele>1108</ele>
        <time>2022-09-22T13:00:54.445Z</time>
      </trkpt>
      <trkpt lat="44.91942" lon="5.4112">
        <ele>1107</ele>
        <time>2022-09-22T13:00:55.445Z</time>
      </trkpt>
      <trkpt lat="44.91943" lon="5.41126">
        <ele>1107</ele>
        <time>2022-09-22T13:00:56.444Z</time>
      </trkpt>
      <trkpt lat="44.91945" lon="5.41131">
        <ele>1107</ele>
        <time>2022-09-22T13:00:57.445Z</time>
      </trkpt>
      <trkpt lat="44.91946" lon="5.41136">
        <ele>1106</ele>
        <time>2022-09-22T13:00:58.445Z</time>
      </trkpt>
      <trkpt lat="44.91947" lon="5.4114">
        <ele>1106</ele>
        <time>2022-09-22T13:00:59.445Z</time>
      </trkpt>
      <trkpt lat="44.91947" lon="5.41143">
        <ele>1106</ele>
        <time>2022-09-22T13:01:00.445Z</time>
      </trkpt>
      <trkpt lat="44.91948" lon="5.41146">
        <ele>1106</ele>
        <time>2022-09-22T13:01:01.445Z</time>
      </trkpt>
      <trkpt lat="44.91949" lon="5.41149">
        <ele>1106</ele>
        <time>2022-09-22T13:01:02.445Z</time>
      </trkpt>
      <trkpt lat="44.91949" lon="5.41152">
        <ele>1106</ele>
        <time>2022-09-22T13:01:03.445Z</time>
      </trkpt>
      <trkpt lat="44.91951" lon="5.41154">
        <ele>1106</ele>
        <time>2022-09-22T13:01:04.444Z</time>
      </trkpt>
      <trkpt lat="44.91952" lon="5.41156">
        <ele>1106</ele>
        <time>2022-09-22T13:01:05.445Z</time>
      </trkpt>
      <trkpt lat="44.91953" lon="5.41158">
        <ele>1106</ele>
        <time>2022-09-22T13:01:06.445Z</time>
      </trkpt>
      <trkpt lat="44.91953" lon="5.4116">
        <ele>1106</ele>
        <time>2022-09-22T13:01:07.444Z</time>
      </trkpt>
      <trkpt lat="44.91954" lon="5.41162">
        <ele>1107</ele>
        <time>2022-09-22T13:01:08.445Z</time>
      </trkpt>
      <trkpt lat="44.91955" lon="5.41164">
        <ele>1107</ele>
        <time>2022-09-22T13:01:09.444Z</time>
      </trkpt>
      <trkpt lat="44.91956" lon="5.41166">
        <ele>1108</ele>
        <time>2022-09-22T13:01:10.444Z</time>
      </trkpt>
      <trkpt lat="44.91957" lon="5.41167">
        <ele>1108</ele>
        <time>2022-09-22T13:01:11.445Z</time>
      </trkpt>
      <trkpt lat="44.91957" lon="5.41168">
        <ele>1109</ele>
        <time>2022-09-22T13:01:12.445Z</time>
      </trkpt>
      <trkpt lat="44.91959" lon="5.41169">
        <ele>1109</ele>
        <time>2022-09-22T13:01:13.445Z</time>
      </trkpt>
      <trkpt lat="44.91959" lon="5.41169">
        <ele>1110</ele>
        <time>2022-09-22T13:01:14.445Z</time>
      </trkpt>
      <trkpt lat="44.9196" lon="5.41169">
        <ele>1110</ele>
        <time>2022-09-22T13:01:15.445Z</time>
      </trkpt>
      <trkpt lat="44.91962" lon="5.41169">
        <ele>1110</ele>
        <time>2022-09-22T13:01:16.444Z</time>
      </trkpt>
      <trkpt lat="44.91963" lon="5.41168">
        <ele>1110</ele>
        <time>2022-09-22T13:01:17.445Z</time>
      </trkpt>
      <trkpt lat="44.91965" lon="5.41167">
        <ele>1110</ele>
        <time>2022-09-22T13:01:18.445Z</time>
      </trkpt>
      <trkpt lat="44.91967" lon="5.41167">
        <ele>1110</ele>
        <time>2022-09-22T13:01:19.445Z</time>
      </trkpt>
      <trkpt lat="44.91969" lon="5.41166">
        <ele>1109</ele>
        <time>2022-09-22T13:01:20.445Z</time>
      </trkpt>
      <trkpt lat="44.91971" lon="5.41165">
        <ele>1109</ele>
        <time>2022-09-22T13:01:21.445Z</time>
      </trkpt>
      <trkpt lat="44.91973" lon="5.41163">
        <ele>1109</ele>
        <time>2022-09-22T13:01:22.445Z</time>
      </trkpt>
      <trkpt lat="44.91975" lon="5.41162">
        <ele>1109</ele>
        <time>2022-09-22T13:01:23.445Z</time>
      </trkpt>
      <trkpt lat="44.91977" lon="5.41161">
        <ele>1109</ele>
        <time>2022-09-22T13:01:24.444Z</time>
      </trkpt>
      <trkpt lat="44.91979" lon="5.4116">
        <ele>1109</ele>
        <time>2022-09-22T13:01:25.445Z</time>
      </trkpt>
      <trkpt lat="44.91981" lon="5.4116">
        <ele>1108</ele>
        <time>2022-09-22T13:01:26.445Z</time>
      </trkpt>
      <trkpt lat="44.91982" lon="5.41158">
        <ele>1108</ele>
        <time>2022-09-22T13:01:27.445Z</time>
      </trkpt>
      <trkpt lat="44.91984" lon="5.41157">
        <ele>1108</ele>
        <time>2022-09-22T13:01:28.445Z</time>
      </trkpt>
      <trkpt lat="44.91986" lon="5.41155">
        <ele>1108</ele>
        <time>2022-09-22T13:01:29.445Z</time>
      </trkpt>
      <trkpt lat="44.91988" lon="5.41154">
        <ele>1108</ele>
        <time>2022-09-22T13:01:30.444Z</time>
      </trkpt>
      <trkpt lat="44.9199" lon="5.41152">
        <ele>1108</ele>
        <time>2022-09-22T13:01:31.445Z</time>
      </trkpt>
      <trkpt lat="44.91992" lon="5.41151">
        <ele>1108</ele>
        <time>2022-09-22T13:01:32.445Z</time>
      </trkpt>
      <trkpt lat="44.91994" lon="5.41149">
        <ele>1108</ele>
        <time>2022-09-22T13:01:33.445Z</time>
      </trkpt>
      <trkpt lat="44.91996" lon="5.41148">
        <ele>1108</ele>
        <time>2022-09-22T13:01:34.445Z</time>
      </trkpt>
      <trkpt lat="44.91998" lon="5.41147">
        <ele>1108</ele>
        <time>2022-09-22T13:01:35.445Z</time>
      </trkpt>
      <trkpt lat="44.92" lon="5.41145">
        <ele>1108</ele>
        <time>2022-09-22T13:01:36.444Z</time>
      </trkpt>
      <trkpt lat="44.92002" lon="5.41145">
        <ele>1108</ele>
        <time>2022-09-22T13:01:37.445Z</time>
      </trkpt>
      <trkpt lat="44.92005" lon="5.41144">
        <ele>1107</ele>
        <time>2022-09-22T13:01:38.445Z</time>
      </trkpt>
      <trkpt lat="44.92007" lon="5.41144">
        <ele>1107</ele>
        <time>2022-09-22T13:01:39.444Z</time>
      </trkpt>
      <trkpt lat="44.92009" lon="5.41144">
        <ele>1107</ele>
        <time>2022-09-22T13:01:40.445Z</time>
      </trkpt>
      <trkpt lat="44.92012" lon="5.41144">
        <ele>1107</ele>
        <time>2022-09-22T13:01:41.445Z</time>
      </trkpt>
      <trkpt lat="44.92014" lon="5.41143">
        <ele>1107</ele>
        <time>2022-09-22T13:01:42.445Z</time>
      </trkpt>
      <trkpt lat="44.92016" lon="5.41143">
        <ele>1107</ele>
        <time>2022-09-22T13:01:43.445Z</time>
      </trkpt>
      <trkpt lat="44.92018" lon="5.41143">
        <ele>1108</ele>
        <time>2022-09-22T13:01:44.444Z</time>
      </trkpt>
      <trkpt lat="44.9202" lon="5.41142">
        <ele>1108</ele>
        <time>2022-09-22T13:01:45.445Z</time>
      </trkpt>
      <trkpt lat="44.92022" lon="5.41141">
        <ele>1108</ele>
        <time>2022-09-22T13:01:46.445Z</time>
      </trkpt>
      <trkpt lat="44.92024" lon="5.4114">
        <ele>1109</ele>
        <time>2022-09-22T13:01:47.444Z</time>
      </trkpt>
      <trkpt lat="44.92026" lon="5.41139">
        <ele>1109</ele>
        <time>2022-09-22T13:01:48.445Z</time>
      </trkpt>
      <trkpt lat="44.92028" lon="5.41137">
        <ele>1109</ele>
        <time>2022-09-22T13:01:49.445Z</time>
      </trkpt>
      <trkpt lat="44.92029" lon="5.41136">
        <ele>1110</ele>
        <time>2022-09-22T13:01:50.445Z</time>
      </trkpt>
      <trkpt lat="44.92031" lon="5.41135">
        <ele>1110</ele>
        <time>2022-09-22T13:01:51.444Z</time>
      </trkpt>
      <trkpt lat="44.92032" lon="5.41133">
        <ele>1110</ele>
        <time>2022-09-22T13:01:52.445Z</time>
      </trkpt>
      <trkpt lat="44.92034" lon="5.41131">
        <ele>1110</ele>
        <time>2022-09-22T13:01:53.445Z</time>
      </trkpt>
      <trkpt lat="44.92036" lon="5.4113">
        <ele>1110</ele>
        <time>2022-09-22T13:01:54.445Z</time>
      </trkpt>
      <trkpt lat="44.92038" lon="5.41128">
        <ele>1110</ele>
        <time>2022-09-22T13:01:55.444Z</time>
      </trkpt>
      <trkpt lat="44.9204" lon="5.41126">
        <ele>1110</ele>
        <time>2022-09-22T13:01:56.445Z</time>
      </trkpt>
      <trkpt lat="44.92042" lon="5.41124">
        <ele>1110</ele>
        <time>2022-09-22T13:01:57.445Z</time>
      </trkpt>
      <trkpt lat="44.92043" lon="5.41122">
        <ele>1110</ele>
        <time>2022-09-22T13:01:58.445Z</time>
      </trkpt>
      <trkpt lat="44.92045" lon="5.4112">
        <ele>1110</ele>
        <time>2022-09-22T13:01:59.445Z</time>
      </trkpt>
      <trkpt lat="44.92047" lon="5.41118">
        <ele>1110</ele>
        <time>2022-09-22T13:02:00.444Z</time>
      </trkpt>
      <trkpt lat="44.92049" lon="5.41117">
        <ele>1110</ele>
        <time>2022-09-22T13:02:01.445Z</time>
      </trkpt>
      <trkpt lat="44.92051" lon="5.41115">
        <ele>1110</ele>
        <time>2022-09-22T13:02:02.444Z</time>
      </trkpt>
      <trkpt lat="44.92053" lon="5.41114">
        <ele>1110</ele>
        <time>2022-09-22T13:02:03.445Z</time>
      </trkpt>
      <trkpt lat="44.92055" lon="5.41113">
        <ele>1110</ele>
        <time>2022-09-22T13:02:04.445Z</time>
      </trkpt>
      <trkpt lat="44.92056" lon="5.41111">
        <ele>1110</ele>
        <time>2022-09-22T13:02:05.445Z</time>
      </trkpt>
      <trkpt lat="44.92058" lon="5.4111">
        <ele>1110</ele>
        <time>2022-09-22T13:02:06.445Z</time>
      </trkpt>
      <trkpt lat="44.9206" lon="5.41109">
        <ele>1110</ele>
        <time>2022-09-22T13:02:07.444Z</time>
      </trkpt>
      <trkpt lat="44.92062" lon="5.41108">
        <ele>1110</ele>
        <time>2022-09-22T13:02:08.444Z</time>
      </trkpt>
      <trkpt lat="44.92064" lon="5.41107">
        <ele>1110</ele>
        <time>2022-09-22T13:02:09.444Z</time>
      </trkpt>
      <trkpt lat="44.92065" lon="5.41106">
        <ele>1110</ele>
        <time>2022-09-22T13:02:10.445Z</time>
      </trkpt>
      <trkpt lat="44.92067" lon="5.41104">
        <ele>1110</ele>
        <time>2022-09-22T13:02:11.445Z</time>
      </trkpt>
      <trkpt lat="44.92069" lon="5.41103">
        <ele>1110</ele>
        <time>2022-09-22T13:02:12.444Z</time>
      </trkpt>
      <trkpt lat="44.9207" lon="5.41102">
        <ele>1110</ele>
        <time>2022-09-22T13:02:13.445Z</time>
      </trkpt>
      <trkpt lat="44.92072" lon="5.41101">
        <ele>1110</ele>
        <time>2022-09-22T13:02:14.445Z</time>
      </trkpt>
      <trkpt lat="44.92073" lon="5.41099">
        <ele>1110</ele>
        <time>2022-09-22T13:02:15.445Z</time>
      </trkpt>
      <trkpt lat="44.92075" lon="5.41097">
        <ele>1110</ele>
        <time>2022-09-22T13:02:16.444Z</time>
      </trkpt>
      <trkpt lat="44.92077" lon="5.41094">
        <ele>1110</ele>
        <time>2022-09-22T13:02:17.445Z</time>
      </trkpt>
      <trkpt lat="44.92078" lon="5.41092">
        <ele>1110</ele>
        <time>2022-09-22T13:02:18.445Z</time>
      </trkpt>
      <trkpt lat="44.92079" lon="5.41088">
        <ele>1110</ele>
        <time>2022-09-22T13:02:19.444Z</time>
      </trkpt>
      <trkpt lat="44.92081" lon="5.41084">
        <ele>1110</ele>
        <time>2022-09-22T13:02:20.444Z</time>
      </trkpt>
      <trkpt lat="44.92082" lon="5.41081">
        <ele>1110</ele>
        <time>2022-09-22T13:02:21.444Z</time>
      </trkpt>
      <trkpt lat="44.92083" lon="5.41077">
        <ele>1110</ele>
        <time>2022-09-22T13:02:22.445Z</time>
      </trkpt>
      <trkpt lat="44.92084" lon="5.41072">
        <ele>1110</ele>
        <time>2022-09-22T13:02:23.444Z</time>
      </trkpt>
      <trkpt lat="44.92084" lon="5.41068">
        <ele>1110</ele>
        <time>2022-09-22T13:02:24.445Z</time>
      </trkpt>
      <trkpt lat="44.92084" lon="5.41063">
        <ele>1110</ele>
        <time>2022-09-22T13:02:25.445Z</time>
      </trkpt>
      <trkpt lat="44.92084" lon="5.4106">
        <ele>1110</ele>
        <time>2022-09-22T13:02:26.445Z</time>
      </trkpt>
      <trkpt lat="44.92084" lon="5.41056">
        <ele>1110</ele>
        <time>2022-09-22T13:02:27.445Z</time>
      </trkpt>
      <trkpt lat="44.92083" lon="5.41052">
        <ele>1111</ele>
        <time>2022-09-22T13:02:28.444Z</time>
      </trkpt>
      <trkpt lat="44.92082" lon="5.41048">
        <ele>1111</ele>
        <time>2022-09-22T13:02:29.445Z</time>
      </trkpt>
      <trkpt lat="44.92082" lon="5.41045">
        <ele>1111</ele>
        <time>2022-09-22T13:02:30.445Z</time>
      </trkpt>
      <trkpt lat="44.92081" lon="5.41042">
        <ele>1110</ele>
        <time>2022-09-22T13:02:31.445Z</time>
      </trkpt>
      <trkpt lat="44.92081" lon="5.41039">
        <ele>1110</ele>
        <time>2022-09-22T13:02:32.445Z</time>
      </trkpt>
      <trkpt lat="44.9208" lon="5.41035">
        <ele>1111</ele>
        <time>2022-09-22T13:02:33.444Z</time>
      </trkpt>
      <trkpt lat="44.9208" lon="5.41032">
        <ele>1111</ele>
        <time>2022-09-22T13:02:34.445Z</time>
      </trkpt>
      <trkpt lat="44.9208" lon="5.41029">
        <ele>1111</ele>
        <time>2022-09-22T13:02:35.445Z</time>
      </trkpt>
      <trkpt lat="44.9208" lon="5.41026">
        <ele>1111</ele>
        <time>2022-09-22T13:02:36.445Z</time>
      </trkpt>
      <trkpt lat="44.9208" lon="5.41023">
        <ele>1111</ele>
        <time>2022-09-22T13:02:37.445Z</time>
      </trkpt>
      <trkpt lat="44.9208" lon="5.4102">
        <ele>1111</ele>
        <time>2022-09-22T13:02:38.445Z</time>
      </trkpt>
      <trkpt lat="44.92081" lon="5.41017">
        <ele>1111</ele>
        <time>2022-09-22T13:02:39.444Z</time>
      </trkpt>
      <trkpt lat="44.92081" lon="5.41014">
        <ele>1111</ele>
        <time>2022-09-22T13:02:40.445Z</time>
      </trkpt>
      <trkpt lat="44.92082" lon="5.41011">
        <ele>1110</ele>
        <time>2022-09-22T13:02:41.445Z</time>
      </trkpt>
      <trkpt lat="44.92083" lon="5.41009">
        <ele>1110</ele>
        <time>2022-09-22T13:02:42.445Z</time>
      </trkpt>
      <trkpt lat="44.92083" lon="5.41006">
        <ele>1110</ele>
        <time>2022-09-22T13:02:43.445Z</time>
      </trkpt>
      <trkpt lat="44.92084" lon="5.41003">
        <ele>1110</ele>
        <time>2022-09-22T13:02:44.445Z</time>
      </trkpt>
      <trkpt lat="44.92085" lon="5.41">
        <ele>1110</ele>
        <time>2022-09-22T13:02:45.445Z</time>
      </trkpt>
      <trkpt lat="44.92086" lon="5.40996">
        <ele>1110</ele>
        <time>2022-09-22T13:02:46.445Z</time>
      </trkpt>
      <trkpt lat="44.92087" lon="5.40993">
        <ele>1111</ele>
        <time>2022-09-22T13:02:47.445Z</time>
      </trkpt>
      <trkpt lat="44.92087" lon="5.40989">
        <ele>1111</ele>
        <time>2022-09-22T13:02:48.444Z</time>
      </trkpt>
      <trkpt lat="44.92088" lon="5.40985">
        <ele>1111</ele>
        <time>2022-09-22T13:02:49.445Z</time>
      </trkpt>
      <trkpt lat="44.92088" lon="5.40982">
        <ele>1111</ele>
        <time>2022-09-22T13:02:50.444Z</time>
      </trkpt>
      <trkpt lat="44.92089" lon="5.40979">
        <ele>1112</ele>
        <time>2022-09-22T13:02:51.444Z</time>
      </trkpt>
      <trkpt lat="44.92089" lon="5.40976">
        <ele>1112</ele>
        <time>2022-09-22T13:02:52.445Z</time>
      </trkpt>
      <trkpt lat="44.9209" lon="5.40971">
        <ele>1112</ele>
        <time>2022-09-22T13:02:53.445Z</time>
      </trkpt>
      <trkpt lat="44.92091" lon="5.40968">
        <ele>1112</ele>
        <time>2022-09-22T13:02:54.444Z</time>
      </trkpt>
      <trkpt lat="44.92091" lon="5.40964">
        <ele>1112</ele>
        <time>2022-09-22T13:02:55.445Z</time>
      </trkpt>
      <trkpt lat="44.92092" lon="5.4096">
        <ele>1113</ele>
        <time>2022-09-22T13:02:56.445Z</time>
      </trkpt>
      <trkpt lat="44.92093" lon="5.40956">
        <ele>1113</ele>
        <time>2022-09-22T13:02:57.445Z</time>
      </trkpt>
      <trkpt lat="44.92094" lon="5.40954">
        <ele>1113</ele>
        <time>2022-09-22T13:02:58.445Z</time>
      </trkpt>
      <trkpt lat="44.92095" lon="5.40949">
        <ele>1113</ele>
        <time>2022-09-22T13:02:59.445Z</time>
      </trkpt>
      <trkpt lat="44.92095" lon="5.40946">
        <ele>1113</ele>
        <time>2022-09-22T13:03:00.445Z</time>
      </trkpt>
      <trkpt lat="44.92096" lon="5.40943">
        <ele>1113</ele>
        <time>2022-09-22T13:03:01.445Z</time>
      </trkpt>
      <trkpt lat="44.92097" lon="5.4094">
        <ele>1113</ele>
        <time>2022-09-22T13:03:02.445Z</time>
      </trkpt>
      <trkpt lat="44.92098" lon="5.40937">
        <ele>1113</ele>
        <time>2022-09-22T13:03:03.445Z</time>
      </trkpt>
      <trkpt lat="44.92099" lon="5.40935">
        <ele>1112</ele>
        <time>2022-09-22T13:03:04.445Z</time>
      </trkpt>
      <trkpt lat="44.921" lon="5.40932">
        <ele>1112</ele>
        <time>2022-09-22T13:03:05.445Z</time>
      </trkpt>
      <trkpt lat="44.92101" lon="5.4093">
        <ele>1111</ele>
        <time>2022-09-22T13:03:06.445Z</time>
      </trkpt>
      <trkpt lat="44.92102" lon="5.40927">
        <ele>1111</ele>
        <time>2022-09-22T13:03:07.445Z</time>
      </trkpt>
      <trkpt lat="44.92103" lon="5.40925">
        <ele>1111</ele>
        <time>2022-09-22T13:03:08.444Z</time>
      </trkpt>
      <trkpt lat="44.92104" lon="5.40923">
        <ele>1111</ele>
        <time>2022-09-22T13:03:09.445Z</time>
      </trkpt>
      <trkpt lat="44.92105" lon="5.4092">
        <ele>1111</ele>
        <time>2022-09-22T13:03:10.445Z</time>
      </trkpt>
      <trkpt lat="44.92107" lon="5.40918">
        <ele>1111</ele>
        <time>2022-09-22T13:03:11.444Z</time>
      </trkpt>
      <trkpt lat="44.92108" lon="5.40915">
        <ele>1110</ele>
        <time>2022-09-22T13:03:12.445Z</time>
      </trkpt>
      <trkpt lat="44.92109" lon="5.40913">
        <ele>1110</ele>
        <time>2022-09-22T13:03:13.445Z</time>
      </trkpt>
      <trkpt lat="44.9211" lon="5.4091">
        <ele>1110</ele>
        <time>2022-09-22T13:03:14.445Z</time>
      </trkpt>
      <trkpt lat="44.92111" lon="5.40907">
        <ele>1110</ele>
        <time>2022-09-22T13:03:15.445Z</time>
      </trkpt>
      <trkpt lat="44.92112" lon="5.40905">
        <ele>1110</ele>
        <time>2022-09-22T13:03:16.445Z</time>
      </trkpt>
      <trkpt lat="44.92113" lon="5.40902">
        <ele>1110</ele>
        <time>2022-09-22T13:03:17.444Z</time>
      </trkpt>
      <trkpt lat="44.92115" lon="5.409">
        <ele>1110</ele>
        <time>2022-09-22T13:03:18.445Z</time>
      </trkpt>
      <trkpt lat="44.92116" lon="5.40897">
        <ele>1110</ele>
        <time>2022-09-22T13:03:19.445Z</time>
      </trkpt>
      <trkpt lat="44.92117" lon="5.40894">
        <ele>1111</ele>
        <time>2022-09-22T13:03:20.445Z</time>
      </trkpt>
      <trkpt lat="44.92118" lon="5.40892">
        <ele>1111</ele>
        <time>2022-09-22T13:03:21.445Z</time>
      </trkpt>
      <trkpt lat="44.9212" lon="5.4089">
        <ele>1111</ele>
        <time>2022-09-22T13:03:22.445Z</time>
      </trkpt>
      <trkpt lat="44.92121" lon="5.40888">
        <ele>1111</ele>
        <time>2022-09-22T13:03:23.445Z</time>
      </trkpt>
      <trkpt lat="44.92123" lon="5.40885">
        <ele>1111</ele>
        <time>2022-09-22T13:03:24.445Z</time>
      </trkpt>
      <trkpt lat="44.92125" lon="5.40883">
        <ele>1112</ele>
        <time>2022-09-22T13:03:25.445Z</time>
      </trkpt>
      <trkpt lat="44.92127" lon="5.40881">
        <ele>1112</ele>
        <time>2022-09-22T13:03:26.445Z</time>
      </trkpt>
      <trkpt lat="44.92129" lon="5.40879">
        <ele>1113</ele>
        <time>2022-09-22T13:03:27.445Z</time>
      </trkpt>
      <trkpt lat="44.92131" lon="5.40878">
        <ele>1113</ele>
        <time>2022-09-22T13:03:28.444Z</time>
      </trkpt>
      <trkpt lat="44.92133" lon="5.40876">
        <ele>1113</ele>
        <time>2022-09-22T13:03:29.445Z</time>
      </trkpt>
      <trkpt lat="44.92135" lon="5.40874">
        <ele>1112</ele>
        <time>2022-09-22T13:03:30.445Z</time>
      </trkpt>
      <trkpt lat="44.92137" lon="5.40873">
        <ele>1112</ele>
        <time>2022-09-22T13:03:31.444Z</time>
      </trkpt>
      <trkpt lat="44.92139" lon="5.40872">
        <ele>1112</ele>
        <time>2022-09-22T13:03:32.444Z</time>
      </trkpt>
      <trkpt lat="44.92141" lon="5.40871">
        <ele>1111</ele>
        <time>2022-09-22T13:03:33.445Z</time>
      </trkpt>
      <trkpt lat="44.92144" lon="5.40869">
        <ele>1111</ele>
        <time>2022-09-22T13:03:34.445Z</time>
      </trkpt>
      <trkpt lat="44.92146" lon="5.40868">
        <ele>1111</ele>
        <time>2022-09-22T13:03:35.445Z</time>
      </trkpt>
      <trkpt lat="44.92148" lon="5.40867">
        <ele>1111</ele>
        <time>2022-09-22T13:03:36.445Z</time>
      </trkpt>
      <trkpt lat="44.9215" lon="5.40865">
        <ele>1111</ele>
        <time>2022-09-22T13:03:37.444Z</time>
      </trkpt>
      <trkpt lat="44.92152" lon="5.40864">
        <ele>1112</ele>
        <time>2022-09-22T13:03:38.445Z</time>
      </trkpt>
      <trkpt lat="44.92155" lon="5.40862">
        <ele>1112</ele>
        <time>2022-09-22T13:03:39.444Z</time>
      </trkpt>
      <trkpt lat="44.92158" lon="5.40861">
        <ele>1111</ele>
        <time>2022-09-22T13:03:40.445Z</time>
      </trkpt>
      <trkpt lat="44.92161" lon="5.4086">
        <ele>1111</ele>
        <time>2022-09-22T13:03:41.445Z</time>
      </trkpt>
      <trkpt lat="44.92163" lon="5.40859">
        <ele>1110</ele>
        <time>2022-09-22T13:03:42.444Z</time>
      </trkpt>
      <trkpt lat="44.92166" lon="5.40858">
        <ele>1110</ele>
        <time>2022-09-22T13:03:43.445Z</time>
      </trkpt>
      <trkpt lat="44.92169" lon="5.40856">
        <ele>1110</ele>
        <time>2022-09-22T13:03:44.445Z</time>
      </trkpt>
      <trkpt lat="44.92172" lon="5.40855">
        <ele>1109</ele>
        <time>2022-09-22T13:03:45.444Z</time>
      </trkpt>
      <trkpt lat="44.92176" lon="5.40853">
        <ele>1109</ele>
        <time>2022-09-22T13:03:46.445Z</time>
      </trkpt>
      <trkpt lat="44.92179" lon="5.40852">
        <ele>1108</ele>
        <time>2022-09-22T13:03:47.445Z</time>
      </trkpt>
      <trkpt lat="44.92183" lon="5.40852">
        <ele>1108</ele>
        <time>2022-09-22T13:03:48.445Z</time>
      </trkpt>
      <trkpt lat="44.92186" lon="5.40851">
        <ele>1108</ele>
        <time>2022-09-22T13:03:49.445Z</time>
      </trkpt>
      <trkpt lat="44.92189" lon="5.4085">
        <ele>1108</ele>
        <time>2022-09-22T13:03:50.445Z</time>
      </trkpt>
      <trkpt lat="44.92192" lon="5.40849">
        <ele>1108</ele>
        <time>2022-09-22T13:03:51.444Z</time>
      </trkpt>
      <trkpt lat="44.92196" lon="5.40848">
        <ele>1108</ele>
        <time>2022-09-22T13:03:52.445Z</time>
      </trkpt>
      <trkpt lat="44.92199" lon="5.40847">
        <ele>1108</ele>
        <time>2022-09-22T13:03:53.445Z</time>
      </trkpt>
      <trkpt lat="44.92202" lon="5.40846">
        <ele>1108</ele>
        <time>2022-09-22T13:03:54.444Z</time>
      </trkpt>
      <trkpt lat="44.92205" lon="5.40846">
        <ele>1108</ele>
        <time>2022-09-22T13:03:55.444Z</time>
      </trkpt>
      <trkpt lat="44.92208" lon="5.40846">
        <ele>1108</ele>
        <time>2022-09-22T13:03:56.444Z</time>
      </trkpt>
      <trkpt lat="44.92211" lon="5.40848">
        <ele>1108</ele>
        <time>2022-09-22T13:03:57.445Z</time>
      </trkpt>
      <trkpt lat="44.92214" lon="5.40851">
        <ele>1109</ele>
        <time>2022-09-22T13:03:58.445Z</time>
      </trkpt>
      <trkpt lat="44.92217" lon="5.40853">
        <ele>1109</ele>
        <time>2022-09-22T13:03:59.444Z</time>
      </trkpt>
      <trkpt lat="44.92219" lon="5.40856">
        <ele>1109</ele>
        <time>2022-09-22T13:04:00.444Z</time>
      </trkpt>
      <trkpt lat="44.92223" lon="5.4086">
        <ele>1109</ele>
        <time>2022-09-22T13:04:01.445Z</time>
      </trkpt>
      <trkpt lat="44.92226" lon="5.40863">
        <ele>1108</ele>
        <time>2022-09-22T13:04:02.445Z</time>
      </trkpt>
      <trkpt lat="44.92229" lon="5.40866">
        <ele>1108</ele>
        <time>2022-09-22T13:04:03.445Z</time>
      </trkpt>
      <trkpt lat="44.92232" lon="5.40871">
        <ele>1108</ele>
        <time>2022-09-22T13:04:04.444Z</time>
      </trkpt>
      <trkpt lat="44.92235" lon="5.40875">
        <ele>1107</ele>
        <time>2022-09-22T13:04:05.444Z</time>
      </trkpt>
      <trkpt lat="44.92239" lon="5.4088">
        <ele>1107</ele>
        <time>2022-09-22T13:04:06.444Z</time>
      </trkpt>
      <trkpt lat="44.92241" lon="5.40885">
        <ele>1107</ele>
        <time>2022-09-22T13:04:07.444Z</time>
      </trkpt>
      <trkpt lat="44.92244" lon="5.4089">
        <ele>1107</ele>
        <time>2022-09-22T13:04:08.444Z</time>
      </trkpt>
      <trkpt lat="44.92246" lon="5.40897">
        <ele>1106</ele>
        <time>2022-09-22T13:04:09.444Z</time>
      </trkpt>
      <trkpt lat="44.92249" lon="5.40903">
        <ele>1106</ele>
        <time>2022-09-22T13:04:10.444Z</time>
      </trkpt>
      <trkpt lat="44.92251" lon="5.4091">
        <ele>1106</ele>
        <time>2022-09-22T13:04:11.445Z</time>
      </trkpt>
      <trkpt lat="44.92254" lon="5.40918">
        <ele>1106</ele>
        <time>2022-09-22T13:04:12.445Z</time>
      </trkpt>
      <trkpt lat="44.92257" lon="5.40924">
        <ele>1105</ele>
        <time>2022-09-22T13:04:13.445Z</time>
      </trkpt>
      <trkpt lat="44.9226" lon="5.4093">
        <ele>1104</ele>
        <time>2022-09-22T13:04:14.445Z</time>
      </trkpt>
      <trkpt lat="44.92263" lon="5.40936">
        <ele>1104</ele>
        <time>2022-09-22T13:04:15.445Z</time>
      </trkpt>
      <trkpt lat="44.92267" lon="5.40941">
        <ele>1103</ele>
        <time>2022-09-22T13:04:16.444Z</time>
      </trkpt>
      <trkpt lat="44.92272" lon="5.40946">
        <ele>1103</ele>
        <time>2022-09-22T13:04:17.445Z</time>
      </trkpt>
      <trkpt lat="44.92277" lon="5.40951">
        <ele>1103</ele>
        <time>2022-09-22T13:04:18.444Z</time>
      </trkpt>
      <trkpt lat="44.92281" lon="5.40957">
        <ele>1102</ele>
        <time>2022-09-22T13:04:19.445Z</time>
      </trkpt>
      <trkpt lat="44.92285" lon="5.40963">
        <ele>1101</ele>
        <time>2022-09-22T13:04:20.445Z</time>
      </trkpt>
      <trkpt lat="44.92289" lon="5.40971">
        <ele>1101</ele>
        <time>2022-09-22T13:04:21.445Z</time>
      </trkpt>
      <trkpt lat="44.92292" lon="5.40978">
        <ele>1101</ele>
        <time>2022-09-22T13:04:22.445Z</time>
      </trkpt>
      <trkpt lat="44.92296" lon="5.40985">
        <ele>1101</ele>
        <time>2022-09-22T13:04:23.444Z</time>
      </trkpt>
      <trkpt lat="44.92299" lon="5.40991">
        <ele>1101</ele>
        <time>2022-09-22T13:04:24.445Z</time>
      </trkpt>
      <trkpt lat="44.92301" lon="5.40997">
        <ele>1101</ele>
        <time>2022-09-22T13:04:25.445Z</time>
      </trkpt>
      <trkpt lat="44.92303" lon="5.41003">
        <ele>1100</ele>
        <time>2022-09-22T13:04:26.445Z</time>
      </trkpt>
      <trkpt lat="44.92305" lon="5.41009">
        <ele>1100</ele>
        <time>2022-09-22T13:04:27.444Z</time>
      </trkpt>
      <trkpt lat="44.92306" lon="5.41015">
        <ele>1100</ele>
        <time>2022-09-22T13:04:28.444Z</time>
      </trkpt>
      <trkpt lat="44.92307" lon="5.41023">
        <ele>1100</ele>
        <time>2022-09-22T13:04:29.445Z</time>
      </trkpt>
      <trkpt lat="44.92308" lon="5.41031">
        <ele>1100</ele>
        <time>2022-09-22T13:04:30.445Z</time>
      </trkpt>
      <trkpt lat="44.9231" lon="5.41039">
        <ele>1100</ele>
        <time>2022-09-22T13:04:31.444Z</time>
      </trkpt>
      <trkpt lat="44.92311" lon="5.41047">
        <ele>1099</ele>
        <time>2022-09-22T13:04:32.445Z</time>
      </trkpt>
      <trkpt lat="44.92312" lon="5.41055">
        <ele>1099</ele>
        <time>2022-09-22T13:04:33.445Z</time>
      </trkpt>
      <trkpt lat="44.92314" lon="5.41064">
        <ele>1099</ele>
        <time>2022-09-22T13:04:34.445Z</time>
      </trkpt>
      <trkpt lat="44.92316" lon="5.41073">
        <ele>1098</ele>
        <time>2022-09-22T13:04:35.444Z</time>
      </trkpt>
      <trkpt lat="44.92318" lon="5.41082">
        <ele>1098</ele>
        <time>2022-09-22T13:04:36.445Z</time>
      </trkpt>
      <trkpt lat="44.9232" lon="5.41091">
        <ele>1097</ele>
        <time>2022-09-22T13:04:37.445Z</time>
      </trkpt>
      <trkpt lat="44.92323" lon="5.41099">
        <ele>1097</ele>
        <time>2022-09-22T13:04:38.445Z</time>
      </trkpt>
      <trkpt lat="44.92326" lon="5.41106">
        <ele>1096</ele>
        <time>2022-09-22T13:04:39.444Z</time>
      </trkpt>
      <trkpt lat="44.92328" lon="5.41114">
        <ele>1095</ele>
        <time>2022-09-22T13:04:40.445Z</time>
      </trkpt>
      <trkpt lat="44.92329" lon="5.41121">
        <ele>1095</ele>
        <time>2022-09-22T13:04:41.444Z</time>
      </trkpt>
      <trkpt lat="44.9233" lon="5.4113">
        <ele>1095</ele>
        <time>2022-09-22T13:04:42.444Z</time>
      </trkpt>
      <trkpt lat="44.9233" lon="5.41138">
        <ele>1094</ele>
        <time>2022-09-22T13:04:43.445Z</time>
      </trkpt>
      <trkpt lat="44.9233" lon="5.41148">
        <ele>1094</ele>
        <time>2022-09-22T13:04:44.445Z</time>
      </trkpt>
      <trkpt lat="44.9233" lon="5.41157">
        <ele>1094</ele>
        <time>2022-09-22T13:04:45.445Z</time>
      </trkpt>
      <trkpt lat="44.92331" lon="5.41166">
        <ele>1093</ele>
        <time>2022-09-22T13:04:46.445Z</time>
      </trkpt>
      <trkpt lat="44.92333" lon="5.41176">
        <ele>1093</ele>
        <time>2022-09-22T13:04:47.445Z</time>
      </trkpt>
      <trkpt lat="44.92335" lon="5.41183">
        <ele>1092</ele>
        <time>2022-09-22T13:04:48.445Z</time>
      </trkpt>
      <trkpt lat="44.92339" lon="5.4119">
        <ele>1092</ele>
        <time>2022-09-22T13:04:49.444Z</time>
      </trkpt>
      <trkpt lat="44.92342" lon="5.41197">
        <ele>1092</ele>
        <time>2022-09-22T13:04:50.445Z</time>
      </trkpt>
      <trkpt lat="44.92346" lon="5.41203">
        <ele>1092</ele>
        <time>2022-09-22T13:04:51.445Z</time>
      </trkpt>
      <trkpt lat="44.92351" lon="5.41209">
        <ele>1092</ele>
        <time>2022-09-22T13:04:52.445Z</time>
      </trkpt>
      <trkpt lat="44.92355" lon="5.41215">
        <ele>1092</ele>
        <time>2022-09-22T13:04:53.445Z</time>
      </trkpt>
      <trkpt lat="44.92359" lon="5.4122">
        <ele>1092</ele>
        <time>2022-09-22T13:04:54.445Z</time>
      </trkpt>
      <trkpt lat="44.92364" lon="5.41224">
        <ele>1092</ele>
        <time>2022-09-22T13:04:55.445Z</time>
      </trkpt>
      <trkpt lat="44.92367" lon="5.41227">
        <ele>1092</ele>
        <time>2022-09-22T13:04:56.445Z</time>
      </trkpt>
      <trkpt lat="44.92371" lon="5.4123">
        <ele>1092</ele>
        <time>2022-09-22T13:04:57.445Z</time>
      </trkpt>
      <trkpt lat="44.92373" lon="5.41231">
        <ele>1092</ele>
        <time>2022-09-22T13:04:58.444Z</time>
      </trkpt>
      <trkpt lat="44.92376" lon="5.41233">
        <ele>1091</ele>
        <time>2022-09-22T13:04:59.444Z</time>
      </trkpt>
      <trkpt lat="44.92378" lon="5.41234">
        <ele>1091</ele>
        <time>2022-09-22T13:05:00.445Z</time>
      </trkpt>
      <trkpt lat="44.9238" lon="5.41235">
        <ele>1090</ele>
        <time>2022-09-22T13:05:01.445Z</time>
      </trkpt>
      <trkpt lat="44.92382" lon="5.41237">
        <ele>1090</ele>
        <time>2022-09-22T13:05:02.445Z</time>
      </trkpt>
      <trkpt lat="44.92384" lon="5.41238">
        <ele>1089</ele>
        <time>2022-09-22T13:05:03.445Z</time>
      </trkpt>
      <trkpt lat="44.92386" lon="5.4124">
        <ele>1089</ele>
        <time>2022-09-22T13:05:04.444Z</time>
      </trkpt>
      <trkpt lat="44.92387" lon="5.41241">
        <ele>1089</ele>
        <time>2022-09-22T13:05:05.445Z</time>
      </trkpt>
      <trkpt lat="44.92389" lon="5.41242">
        <ele>1089</ele>
        <time>2022-09-22T13:05:06.445Z</time>
      </trkpt>
      <trkpt lat="44.92391" lon="5.41244">
        <ele>1089</ele>
        <time>2022-09-22T13:05:07.445Z</time>
      </trkpt>
      <trkpt lat="44.92393" lon="5.41245">
        <ele>1089</ele>
        <time>2022-09-22T13:05:08.445Z</time>
      </trkpt>
      <trkpt lat="44.92395" lon="5.41246">
        <ele>1089</ele>
        <time>2022-09-22T13:05:09.445Z</time>
      </trkpt>
      <trkpt lat="44.92397" lon="5.41247">
        <ele>1090</ele>
        <time>2022-09-22T13:05:10.445Z</time>
      </trkpt>
      <trkpt lat="44.92398" lon="5.41249">
        <ele>1090</ele>
        <time>2022-09-22T13:05:11.445Z</time>
      </trkpt>
      <trkpt lat="44.924" lon="5.4125">
        <ele>1091</ele>
        <time>2022-09-22T13:05:12.445Z</time>
      </trkpt>
      <trkpt lat="44.92402" lon="5.4125">
        <ele>1091</ele>
        <time>2022-09-22T13:05:13.445Z</time>
      </trkpt>
      <trkpt lat="44.92403" lon="5.41251">
        <ele>1092</ele>
        <time>2022-09-22T13:05:14.444Z</time>
      </trkpt>
      <trkpt lat="44.92405" lon="5.41252">
        <ele>1092</ele>
        <time>2022-09-22T13:05:15.445Z</time>
      </trkpt>
      <trkpt lat="44.92407" lon="5.41253">
        <ele>1092</ele>
        <time>2022-09-22T13:05:16.445Z</time>
      </trkpt>
      <trkpt lat="44.92409" lon="5.41254">
        <ele>1091</ele>
        <time>2022-09-22T13:05:17.445Z</time>
      </trkpt>
      <trkpt lat="44.92411" lon="5.41255">
        <ele>1091</ele>
        <time>2022-09-22T13:05:18.445Z</time>
      </trkpt>
      <trkpt lat="44.92413" lon="5.41256">
        <ele>1091</ele>
        <time>2022-09-22T13:05:19.445Z</time>
      </trkpt>
      <trkpt lat="44.92415" lon="5.41257">
        <ele>1091</ele>
        <time>2022-09-22T13:05:20.445Z</time>
      </trkpt>
      <trkpt lat="44.92416" lon="5.41257">
        <ele>1091</ele>
        <time>2022-09-22T13:05:21.445Z</time>
      </trkpt>
      <trkpt lat="44.92417" lon="5.41258">
        <ele>1091</ele>
        <time>2022-09-22T13:05:22.444Z</time>
      </trkpt>
      <trkpt lat="44.92419" lon="5.4126">
        <ele>1090</ele>
        <time>2022-09-22T13:05:23.444Z</time>
      </trkpt>
      <trkpt lat="44.92421" lon="5.41261">
        <ele>1090</ele>
        <time>2022-09-22T13:05:24.444Z</time>
      </trkpt>
      <trkpt lat="44.92422" lon="5.41262">
        <ele>1090</ele>
        <time>2022-09-22T13:05:25.445Z</time>
      </trkpt>
      <trkpt lat="44.92424" lon="5.41264">
        <ele>1090</ele>
        <time>2022-09-22T13:05:26.445Z</time>
      </trkpt>
      <trkpt lat="44.92426" lon="5.41265">
        <ele>1090</ele>
        <time>2022-09-22T13:05:27.445Z</time>
      </trkpt>
      <trkpt lat="44.92427" lon="5.41266">
        <ele>1090</ele>
        <time>2022-09-22T13:05:28.444Z</time>
      </trkpt>
      <trkpt lat="44.92429" lon="5.41267">
        <ele>1091</ele>
        <time>2022-09-22T13:05:29.445Z</time>
      </trkpt>
      <trkpt lat="44.9243" lon="5.41268">
        <ele>1091</ele>
        <time>2022-09-22T13:05:30.445Z</time>
      </trkpt>
      <trkpt lat="44.92431" lon="5.41269">
        <ele>1091</ele>
        <time>2022-09-22T13:05:31.445Z</time>
      </trkpt>
      <trkpt lat="44.92432" lon="5.4127">
        <ele>1092</ele>
        <time>2022-09-22T13:05:32.445Z</time>
      </trkpt>
      <trkpt lat="44.92434" lon="5.41271">
        <ele>1092</ele>
        <time>2022-09-22T13:05:33.444Z</time>
      </trkpt>
      <trkpt lat="44.92435" lon="5.41273">
        <ele>1092</ele>
        <time>2022-09-22T13:05:34.445Z</time>
      </trkpt>
      <trkpt lat="44.92437" lon="5.41274">
        <ele>1093</ele>
        <time>2022-09-22T13:05:35.445Z</time>
      </trkpt>
      <trkpt lat="44.92439" lon="5.41275">
        <ele>1093</ele>
        <time>2022-09-22T13:05:36.445Z</time>
      </trkpt>
      <trkpt lat="44.92441" lon="5.41276">
        <ele>1093</ele>
        <time>2022-09-22T13:05:37.445Z</time>
      </trkpt>
      <trkpt lat="44.92443" lon="5.41277">
        <ele>1093</ele>
        <time>2022-09-22T13:05:38.444Z</time>
      </trkpt>
      <trkpt lat="44.92445" lon="5.41278">
        <ele>1093</ele>
        <time>2022-09-22T13:05:39.445Z</time>
      </trkpt>
      <trkpt lat="44.92448" lon="5.4128">
        <ele>1093</ele>
        <time>2022-09-22T13:05:40.444Z</time>
      </trkpt>
      <trkpt lat="44.92452" lon="5.41281">
        <ele>1094</ele>
        <time>2022-09-22T13:05:41.445Z</time>
      </trkpt>
      <trkpt lat="44.92456" lon="5.41281">
        <ele>1093</ele>
        <time>2022-09-22T13:05:42.445Z</time>
      </trkpt>
      <trkpt lat="44.9246" lon="5.4128">
        <ele>1093</ele>
        <time>2022-09-22T13:05:43.445Z</time>
      </trkpt>
      <trkpt lat="44.92465" lon="5.41279">
        <ele>1092</ele>
        <time>2022-09-22T13:05:44.445Z</time>
      </trkpt>
      <trkpt lat="44.92469" lon="5.41278">
        <ele>1091</ele>
        <time>2022-09-22T13:05:45.445Z</time>
      </trkpt>
      <trkpt lat="44.92474" lon="5.41277">
        <ele>1091</ele>
        <time>2022-09-22T13:05:46.445Z</time>
      </trkpt>
      <trkpt lat="44.92478" lon="5.41276">
        <ele>1090</ele>
        <time>2022-09-22T13:05:47.445Z</time>
      </trkpt>
      <trkpt lat="44.92482" lon="5.41275">
        <ele>1090</ele>
        <time>2022-09-22T13:05:48.445Z</time>
      </trkpt>
      <trkpt lat="44.92486" lon="5.41274">
        <ele>1089</ele>
        <time>2022-09-22T13:05:49.445Z</time>
      </trkpt>
      <trkpt lat="44.92489" lon="5.41273">
        <ele>1089</ele>
        <time>2022-09-22T13:05:50.445Z</time>
      </trkpt>
      <trkpt lat="44.92492" lon="5.41272">
        <ele>1089</ele>
        <time>2022-09-22T13:05:51.445Z</time>
      </trkpt>
      <trkpt lat="44.92495" lon="5.41271">
        <ele>1089</ele>
        <time>2022-09-22T13:05:52.445Z</time>
      </trkpt>
      <trkpt lat="44.92498" lon="5.4127">
        <ele>1089</ele>
        <time>2022-09-22T13:05:53.445Z</time>
      </trkpt>
      <trkpt lat="44.925" lon="5.41269">
        <ele>1089</ele>
        <time>2022-09-22T13:05:54.445Z</time>
      </trkpt>
      <trkpt lat="44.92503" lon="5.41268">
        <ele>1089</ele>
        <time>2022-09-22T13:05:55.445Z</time>
      </trkpt>
      <trkpt lat="44.92505" lon="5.41267">
        <ele>1089</ele>
        <time>2022-09-22T13:05:56.444Z</time>
      </trkpt>
      <trkpt lat="44.92508" lon="5.41266">
        <ele>1089</ele>
        <time>2022-09-22T13:05:57.445Z</time>
      </trkpt>
      <trkpt lat="44.9251" lon="5.41265">
        <ele>1089</ele>
        <time>2022-09-22T13:05:58.445Z</time>
      </trkpt>
      <trkpt lat="44.92512" lon="5.41264">
        <ele>1090</ele>
        <time>2022-09-22T13:05:59.445Z</time>
      </trkpt>
      <trkpt lat="44.92514" lon="5.41263">
        <ele>1090</ele>
        <time>2022-09-22T13:06:00.445Z</time>
      </trkpt>
      <trkpt lat="44.92516" lon="5.41262">
        <ele>1090</ele>
        <time>2022-09-22T13:06:01.445Z</time>
      </trkpt>
      <trkpt lat="44.92518" lon="5.41261">
        <ele>1090</ele>
        <time>2022-09-22T13:06:02.445Z</time>
      </trkpt>
      <trkpt lat="44.9252" lon="5.4126">
        <ele>1090</ele>
        <time>2022-09-22T13:06:03.445Z</time>
      </trkpt>
      <trkpt lat="44.92522" lon="5.41259">
        <ele>1089</ele>
        <time>2022-09-22T13:06:04.445Z</time>
      </trkpt>
      <trkpt lat="44.92524" lon="5.41258">
        <ele>1089</ele>
        <time>2022-09-22T13:06:05.445Z</time>
      </trkpt>
      <trkpt lat="44.92526" lon="5.41258">
        <ele>1089</ele>
        <time>2022-09-22T13:06:06.445Z</time>
      </trkpt>
      <trkpt lat="44.92528" lon="5.41258">
        <ele>1089</ele>
        <time>2022-09-22T13:06:07.445Z</time>
      </trkpt>
      <trkpt lat="44.9253" lon="5.41258">
        <ele>1089</ele>
        <time>2022-09-22T13:06:08.445Z</time>
      </trkpt>
      <trkpt lat="44.92533" lon="5.41258">
        <ele>1089</ele>
        <time>2022-09-22T13:06:09.445Z</time>
      </trkpt>
      <trkpt lat="44.92535" lon="5.41258">
        <ele>1090</ele>
        <time>2022-09-22T13:06:10.445Z</time>
      </trkpt>
      <trkpt lat="44.92537" lon="5.41259">
        <ele>1090</ele>
        <time>2022-09-22T13:06:11.444Z</time>
      </trkpt>
      <trkpt lat="44.92539" lon="5.4126">
        <ele>1091</ele>
        <time>2022-09-22T13:06:12.445Z</time>
      </trkpt>
      <trkpt lat="44.92541" lon="5.4126">
        <ele>1091</ele>
        <time>2022-09-22T13:06:13.445Z</time>
      </trkpt>
      <trkpt lat="44.92543" lon="5.41261">
        <ele>1091</ele>
        <time>2022-09-22T13:06:14.444Z</time>
      </trkpt>
      <trkpt lat="44.92545" lon="5.41263">
        <ele>1091</ele>
        <time>2022-09-22T13:06:15.445Z</time>
      </trkpt>
      <trkpt lat="44.92547" lon="5.41264">
        <ele>1090</ele>
        <time>2022-09-22T13:06:16.445Z</time>
      </trkpt>
      <trkpt lat="44.92549" lon="5.41265">
        <ele>1090</ele>
        <time>2022-09-22T13:06:17.445Z</time>
      </trkpt>
      <trkpt lat="44.9255" lon="5.41266">
        <ele>1090</ele>
        <time>2022-09-22T13:06:18.445Z</time>
      </trkpt>
      <trkpt lat="44.92552" lon="5.41267">
        <ele>1090</ele>
        <time>2022-09-22T13:06:19.445Z</time>
      </trkpt>
      <trkpt lat="44.92554" lon="5.41268">
        <ele>1091</ele>
        <time>2022-09-22T13:06:20.445Z</time>
      </trkpt>
      <trkpt lat="44.92556" lon="5.41269">
        <ele>1091</ele>
        <time>2022-09-22T13:06:21.445Z</time>
      </trkpt>
      <trkpt lat="44.92558" lon="5.4127">
        <ele>1091</ele>
        <time>2022-09-22T13:06:22.445Z</time>
      </trkpt>
      <trkpt lat="44.9256" lon="5.41271">
        <ele>1091</ele>
        <time>2022-09-22T13:06:23.445Z</time>
      </trkpt>
      <trkpt lat="44.92562" lon="5.41272">
        <ele>1091</ele>
        <time>2022-09-22T13:06:24.445Z</time>
      </trkpt>
      <trkpt lat="44.92564" lon="5.41273">
        <ele>1091</ele>
        <time>2022-09-22T13:06:25.445Z</time>
      </trkpt>
      <trkpt lat="44.92566" lon="5.41274">
        <ele>1091</ele>
        <time>2022-09-22T13:06:26.444Z</time>
      </trkpt>
      <trkpt lat="44.92568" lon="5.41275">
        <ele>1091</ele>
        <time>2022-09-22T13:06:27.444Z</time>
      </trkpt>
      <trkpt lat="44.92569" lon="5.41276">
        <ele>1091</ele>
        <time>2022-09-22T13:06:28.445Z</time>
      </trkpt>
      <trkpt lat="44.92571" lon="5.41277">
        <ele>1091</ele>
        <time>2022-09-22T13:06:29.445Z</time>
      </trkpt>
      <trkpt lat="44.92573" lon="5.41278">
        <ele>1091</ele>
        <time>2022-09-22T13:06:30.445Z</time>
      </trkpt>
      <trkpt lat="44.92575" lon="5.41279">
        <ele>1091</ele>
        <time>2022-09-22T13:06:31.444Z</time>
      </trkpt>
      <trkpt lat="44.92577" lon="5.4128">
        <ele>1091</ele>
        <time>2022-09-22T13:06:32.444Z</time>
      </trkpt>
      <trkpt lat="44.92579" lon="5.41281">
        <ele>1092</ele>
        <time>2022-09-22T13:06:33.445Z</time>
      </trkpt>
      <trkpt lat="44.9258" lon="5.41281">
        <ele>1092</ele>
        <time>2022-09-22T13:06:34.445Z</time>
      </trkpt>
      <trkpt lat="44.92582" lon="5.41282">
        <ele>1092</ele>
        <time>2022-09-22T13:06:35.445Z</time>
      </trkpt>
      <trkpt lat="44.92583" lon="5.41283">
        <ele>1092</ele>
        <time>2022-09-22T13:06:36.445Z</time>
      </trkpt>
      <trkpt lat="44.92584" lon="5.41285">
        <ele>1092</ele>
        <time>2022-09-22T13:06:37.445Z</time>
      </trkpt>
      <trkpt lat="44.92585" lon="5.41286">
        <ele>1092</ele>
        <time>2022-09-22T13:06:38.444Z</time>
      </trkpt>
      <trkpt lat="44.92587" lon="5.41287">
        <ele>1093</ele>
        <time>2022-09-22T13:06:39.445Z</time>
      </trkpt>
      <trkpt lat="44.92588" lon="5.41289">
        <ele>1093</ele>
        <time>2022-09-22T13:06:40.444Z</time>
      </trkpt>
      <trkpt lat="44.9259" lon="5.4129">
        <ele>1093</ele>
        <time>2022-09-22T13:06:41.444Z</time>
      </trkpt>
      <trkpt lat="44.92592" lon="5.41291">
        <ele>1093</ele>
        <time>2022-09-22T13:06:42.445Z</time>
      </trkpt>
      <trkpt lat="44.92593" lon="5.41292">
        <ele>1094</ele>
        <time>2022-09-22T13:06:43.445Z</time>
      </trkpt>
      <trkpt lat="44.92595" lon="5.41294">
        <ele>1094</ele>
        <time>2022-09-22T13:06:44.445Z</time>
      </trkpt>
      <trkpt lat="44.92597" lon="5.41295">
        <ele>1094</ele>
        <time>2022-09-22T13:06:45.445Z</time>
      </trkpt>
      <trkpt lat="44.92598" lon="5.41296">
        <ele>1094</ele>
        <time>2022-09-22T13:06:46.445Z</time>
      </trkpt>
      <trkpt lat="44.926" lon="5.41297">
        <ele>1094</ele>
        <time>2022-09-22T13:06:47.445Z</time>
      </trkpt>
      <trkpt lat="44.92601" lon="5.41298">
        <ele>1094</ele>
        <time>2022-09-22T13:06:48.444Z</time>
      </trkpt>
      <trkpt lat="44.92602" lon="5.413">
        <ele>1094</ele>
        <time>2022-09-22T13:06:49.445Z</time>
      </trkpt>
      <trkpt lat="44.92604" lon="5.41301">
        <ele>1094</ele>
        <time>2022-09-22T13:06:50.445Z</time>
      </trkpt>
      <trkpt lat="44.92605" lon="5.41303">
        <ele>1094</ele>
        <time>2022-09-22T13:06:51.445Z</time>
      </trkpt>
      <trkpt lat="44.92607" lon="5.41304">
        <ele>1095</ele>
        <time>2022-09-22T13:06:52.445Z</time>
      </trkpt>
      <trkpt lat="44.92608" lon="5.41305">
        <ele>1095</ele>
        <time>2022-09-22T13:06:53.445Z</time>
      </trkpt>
      <trkpt lat="44.9261" lon="5.41307">
        <ele>1096</ele>
        <time>2022-09-22T13:06:54.445Z</time>
      </trkpt>
      <trkpt lat="44.92611" lon="5.41308">
        <ele>1096</ele>
        <time>2022-09-22T13:06:55.445Z</time>
      </trkpt>
      <trkpt lat="44.92613" lon="5.41308">
        <ele>1096</ele>
        <time>2022-09-22T13:06:56.445Z</time>
      </trkpt>
      <trkpt lat="44.92615" lon="5.41309">
        <ele>1096</ele>
        <time>2022-09-22T13:06:57.445Z</time>
      </trkpt>
      <trkpt lat="44.92616" lon="5.4131">
        <ele>1095</ele>
        <time>2022-09-22T13:06:58.445Z</time>
      </trkpt>
      <trkpt lat="44.92618" lon="5.41311">
        <ele>1095</ele>
        <time>2022-09-22T13:06:59.445Z</time>
      </trkpt>
      <trkpt lat="44.92619" lon="5.41311">
        <ele>1095</ele>
        <time>2022-09-22T13:07:00.444Z</time>
      </trkpt>
      <trkpt lat="44.9262" lon="5.41311">
        <ele>1094</ele>
        <time>2022-09-22T13:07:01.445Z</time>
      </trkpt>
      <trkpt lat="44.92622" lon="5.41312">
        <ele>1094</ele>
        <time>2022-09-22T13:07:02.445Z</time>
      </trkpt>
      <trkpt lat="44.92624" lon="5.41312">
        <ele>1094</ele>
        <time>2022-09-22T13:07:03.444Z</time>
      </trkpt>
      <trkpt lat="44.92625" lon="5.41313">
        <ele>1094</ele>
        <time>2022-09-22T13:07:04.445Z</time>
      </trkpt>
      <trkpt lat="44.92626" lon="5.41313">
        <ele>1095</ele>
        <time>2022-09-22T13:07:05.445Z</time>
      </trkpt>
      <trkpt lat="44.92627" lon="5.41313">
        <ele>1095</ele>
        <time>2022-09-22T13:07:06.445Z</time>
      </trkpt>
      <trkpt lat="44.92629" lon="5.41314">
        <ele>1095</ele>
        <time>2022-09-22T13:07:07.444Z</time>
      </trkpt>
      <trkpt lat="44.9263" lon="5.41314">
        <ele>1095</ele>
        <time>2022-09-22T13:07:08.445Z</time>
      </trkpt>
      <trkpt lat="44.92631" lon="5.41314">
        <ele>1096</ele>
        <time>2022-09-22T13:07:09.445Z</time>
      </trkpt>
      <trkpt lat="44.92632" lon="5.41313">
        <ele>1096</ele>
        <time>2022-09-22T13:07:10.445Z</time>
      </trkpt>
      <trkpt lat="44.92634" lon="5.41313">
        <ele>1096</ele>
        <time>2022-09-22T13:07:11.445Z</time>
      </trkpt>
      <trkpt lat="44.92635" lon="5.41313">
        <ele>1097</ele>
        <time>2022-09-22T13:07:12.444Z</time>
      </trkpt>
      <trkpt lat="44.92637" lon="5.41313">
        <ele>1097</ele>
        <time>2022-09-22T13:07:13.445Z</time>
      </trkpt>
      <trkpt lat="44.92638" lon="5.41313">
        <ele>1097</ele>
        <time>2022-09-22T13:07:14.445Z</time>
      </trkpt>
      <trkpt lat="44.9264" lon="5.41313">
        <ele>1097</ele>
        <time>2022-09-22T13:07:15.445Z</time>
      </trkpt>
      <trkpt lat="44.92641" lon="5.41313">
        <ele>1097</ele>
        <time>2022-09-22T13:07:16.445Z</time>
      </trkpt>
      <trkpt lat="44.92642" lon="5.41313">
        <ele>1098</ele>
        <time>2022-09-22T13:07:17.444Z</time>
      </trkpt>
      <trkpt lat="44.92644" lon="5.41313">
        <ele>1098</ele>
        <time>2022-09-22T13:07:18.445Z</time>
      </trkpt>
      <trkpt lat="44.92646" lon="5.41313">
        <ele>1098</ele>
        <time>2022-09-22T13:07:19.444Z</time>
      </trkpt>
      <trkpt lat="44.92647" lon="5.41314">
        <ele>1098</ele>
        <time>2022-09-22T13:07:20.445Z</time>
      </trkpt>
      <trkpt lat="44.92648" lon="5.41314">
        <ele>1098</ele>
        <time>2022-09-22T13:07:21.445Z</time>
      </trkpt>
      <trkpt lat="44.92649" lon="5.41315">
        <ele>1098</ele>
        <time>2022-09-22T13:07:22.445Z</time>
      </trkpt>
      <trkpt lat="44.9265" lon="5.41315">
        <ele>1098</ele>
        <time>2022-09-22T13:07:23.444Z</time>
      </trkpt>
      <trkpt lat="44.92652" lon="5.41316">
        <ele>1098</ele>
        <time>2022-09-22T13:07:24.445Z</time>
      </trkpt>
      <trkpt lat="44.92653" lon="5.41316">
        <ele>1098</ele>
        <time>2022-09-22T13:07:25.445Z</time>
      </trkpt>
      <trkpt lat="44.92655" lon="5.41317">
        <ele>1098</ele>
        <time>2022-09-22T13:07:26.445Z</time>
      </trkpt>
      <trkpt lat="44.92657" lon="5.41318">
        <ele>1098</ele>
        <time>2022-09-22T13:07:27.445Z</time>
      </trkpt>
      <trkpt lat="44.92658" lon="5.41318">
        <ele>1099</ele>
        <time>2022-09-22T13:07:28.444Z</time>
      </trkpt>
      <trkpt lat="44.9266" lon="5.41319">
        <ele>1099</ele>
        <time>2022-09-22T13:07:29.445Z</time>
      </trkpt>
      <trkpt lat="44.92662" lon="5.4132">
        <ele>1099</ele>
        <time>2022-09-22T13:07:30.445Z</time>
      </trkpt>
      <trkpt lat="44.92663" lon="5.41321">
        <ele>1099</ele>
        <time>2022-09-22T13:07:31.445Z</time>
      </trkpt>
      <trkpt lat="44.92664" lon="5.41322">
        <ele>1099</ele>
        <time>2022-09-22T13:07:32.445Z</time>
      </trkpt>
      <trkpt lat="44.92666" lon="5.41322">
        <ele>1099</ele>
        <time>2022-09-22T13:07:33.444Z</time>
      </trkpt>
      <trkpt lat="44.92667" lon="5.41323">
        <ele>1099</ele>
        <time>2022-09-22T13:07:34.445Z</time>
      </trkpt>
      <trkpt lat="44.92668" lon="5.41324">
        <ele>1099</ele>
        <time>2022-09-22T13:07:35.445Z</time>
      </trkpt>
      <trkpt lat="44.9267" lon="5.41325">
        <ele>1099</ele>
        <time>2022-09-22T13:07:36.444Z</time>
      </trkpt>
      <trkpt lat="44.92671" lon="5.41325">
        <ele>1099</ele>
        <time>2022-09-22T13:07:37.445Z</time>
      </trkpt>
      <trkpt lat="44.92673" lon="5.41326">
        <ele>1099</ele>
        <time>2022-09-22T13:07:38.444Z</time>
      </trkpt>
      <trkpt lat="44.92674" lon="5.41328">
        <ele>1099</ele>
        <time>2022-09-22T13:07:39.444Z</time>
      </trkpt>
      <trkpt lat="44.92675" lon="5.41329">
        <ele>1100</ele>
        <time>2022-09-22T13:07:40.444Z</time>
      </trkpt>
      <trkpt lat="44.92677" lon="5.4133">
        <ele>1100</ele>
        <time>2022-09-22T13:07:41.444Z</time>
      </trkpt>
      <trkpt lat="44.92678" lon="5.41331">
        <ele>1099</ele>
        <time>2022-09-22T13:07:42.445Z</time>
      </trkpt>
      <trkpt lat="44.92679" lon="5.41333">
        <ele>1100</ele>
        <time>2022-09-22T13:07:43.445Z</time>
      </trkpt>
      <trkpt lat="44.92681" lon="5.41334">
        <ele>1100</ele>
        <time>2022-09-22T13:07:44.444Z</time>
      </trkpt>
      <trkpt lat="44.92682" lon="5.41336">
        <ele>1100</ele>
        <time>2022-09-22T13:07:45.445Z</time>
      </trkpt>
      <trkpt lat="44.92683" lon="5.41337">
        <ele>1100</ele>
        <time>2022-09-22T13:07:46.444Z</time>
      </trkpt>
      <trkpt lat="44.92685" lon="5.41339">
        <ele>1100</ele>
        <time>2022-09-22T13:07:47.445Z</time>
      </trkpt>
      <trkpt lat="44.92686" lon="5.4134">
        <ele>1100</ele>
        <time>2022-09-22T13:07:48.445Z</time>
      </trkpt>
      <trkpt lat="44.92686" lon="5.41341">
        <ele>1101</ele>
        <time>2022-09-22T13:07:49.445Z</time>
      </trkpt>
      <trkpt lat="44.92686" lon="5.41342">
        <ele>1101</ele>
        <time>2022-09-22T13:07:50.444Z</time>
      </trkpt>
      <trkpt lat="44.92686" lon="5.41342">
        <ele>1101</ele>
        <time>2022-09-22T13:07:51.444Z</time>
      </trkpt>
      <trkpt lat="44.9268" lon="5.41337">
        <ele>1105</ele>
        <time>2022-09-22T13:08:23.589Z</time>
      </trkpt>
      <trkpt lat="44.92679" lon="5.41335">
        <ele>1105</ele>
        <time>2022-09-22T13:08:24.588Z</time>
      </trkpt>
      <trkpt lat="44.92677" lon="5.41333">
        <ele>1106</ele>
        <time>2022-09-22T13:08:25.589Z</time>
      </trkpt>
      <trkpt lat="44.92675" lon="5.41331">
        <ele>1105</ele>
        <time>2022-09-22T13:08:26.589Z</time>
      </trkpt>
      <trkpt lat="44.92673" lon="5.41329">
        <ele>1105</ele>
        <time>2022-09-22T13:08:27.589Z</time>
      </trkpt>
      <trkpt lat="44.92671" lon="5.41327">
        <ele>1105</ele>
        <time>2022-09-22T13:08:28.589Z</time>
      </trkpt>
      <trkpt lat="44.92669" lon="5.41326">
        <ele>1105</ele>
        <time>2022-09-22T13:08:29.588Z</time>
      </trkpt>
      <trkpt lat="44.92667" lon="5.41324">
        <ele>1105</ele>
        <time>2022-09-22T13:08:30.589Z</time>
      </trkpt>
      <trkpt lat="44.92665" lon="5.41322">
        <ele>1105</ele>
        <time>2022-09-22T13:08:31.589Z</time>
      </trkpt>
      <trkpt lat="44.92662" lon="5.41321">
        <ele>1105</ele>
        <time>2022-09-22T13:08:32.588Z</time>
      </trkpt>
      <trkpt lat="44.9266" lon="5.41319">
        <ele>1105</ele>
        <time>2022-09-22T13:08:33.588Z</time>
      </trkpt>
      <trkpt lat="44.92657" lon="5.41318">
        <ele>1105</ele>
        <time>2022-09-22T13:08:34.589Z</time>
      </trkpt>
      <trkpt lat="44.92653" lon="5.41317">
        <ele>1105</ele>
        <time>2022-09-22T13:08:35.588Z</time>
      </trkpt>
      <trkpt lat="44.9265" lon="5.41315">
        <ele>1105</ele>
        <time>2022-09-22T13:08:36.588Z</time>
      </trkpt>
      <trkpt lat="44.92646" lon="5.41315">
        <ele>1105</ele>
        <time>2022-09-22T13:08:37.589Z</time>
      </trkpt>
      <trkpt lat="44.92642" lon="5.41314">
        <ele>1106</ele>
        <time>2022-09-22T13:08:38.589Z</time>
      </trkpt>
      <trkpt lat="44.92638" lon="5.41315">
        <ele>1105</ele>
        <time>2022-09-22T13:08:39.588Z</time>
      </trkpt>
      <trkpt lat="44.92634" lon="5.41316">
        <ele>1105</ele>
        <time>2022-09-22T13:08:40.588Z</time>
      </trkpt>
      <trkpt lat="44.9263" lon="5.41317">
        <ele>1105</ele>
        <time>2022-09-22T13:08:41.589Z</time>
      </trkpt>
      <trkpt lat="44.92627" lon="5.41319">
        <ele>1104</ele>
        <time>2022-09-22T13:08:42.589Z</time>
      </trkpt>
      <trkpt lat="44.92624" lon="5.41322">
        <ele>1103</ele>
        <time>2022-09-22T13:08:43.589Z</time>
      </trkpt>
      <trkpt lat="44.92622" lon="5.41326">
        <ele>1102</ele>
        <time>2022-09-22T13:08:44.589Z</time>
      </trkpt>
      <trkpt lat="44.92622" lon="5.41332">
        <ele>1102</ele>
        <time>2022-09-22T13:08:45.589Z</time>
      </trkpt>
      <trkpt lat="44.92622" lon="5.41336">
        <ele>1101</ele>
        <time>2022-09-22T13:08:46.588Z</time>
      </trkpt>
      <trkpt lat="44.92623" lon="5.41341">
        <ele>1101</ele>
        <time>2022-09-22T13:08:47.589Z</time>
      </trkpt>
      <trkpt lat="44.92624" lon="5.41345">
        <ele>1100</ele>
        <time>2022-09-22T13:08:48.588Z</time>
      </trkpt>
      <trkpt lat="44.92624" lon="5.41348">
        <ele>1100</ele>
        <time>2022-09-22T13:08:49.589Z</time>
      </trkpt>
      <trkpt lat="44.92625" lon="5.41351">
        <ele>1099</ele>
        <time>2022-09-22T13:08:50.589Z</time>
      </trkpt>
      <trkpt lat="44.92626" lon="5.41354">
        <ele>1099</ele>
        <time>2022-09-22T13:08:51.589Z</time>
      </trkpt>
      <trkpt lat="44.92627" lon="5.41357">
        <ele>1098</ele>
        <time>2022-09-22T13:08:52.589Z</time>
      </trkpt>
      <trkpt lat="44.92628" lon="5.4136">
        <ele>1098</ele>
        <time>2022-09-22T13:08:53.588Z</time>
      </trkpt>
      <trkpt lat="44.92629" lon="5.41362">
        <ele>1098</ele>
        <time>2022-09-22T13:08:54.589Z</time>
      </trkpt>
      <trkpt lat="44.92629" lon="5.41365">
        <ele>1098</ele>
        <time>2022-09-22T13:08:55.589Z</time>
      </trkpt>
      <trkpt lat="44.92629" lon="5.41368">
        <ele>1098</ele>
        <time>2022-09-22T13:08:56.588Z</time>
      </trkpt>
      <trkpt lat="44.9263" lon="5.41371">
        <ele>1098</ele>
        <time>2022-09-22T13:08:57.589Z</time>
      </trkpt>
      <trkpt lat="44.9263" lon="5.41373">
        <ele>1098</ele>
        <time>2022-09-22T13:08:58.589Z</time>
      </trkpt>
      <trkpt lat="44.9263" lon="5.41376">
        <ele>1098</ele>
        <time>2022-09-22T13:08:59.589Z</time>
      </trkpt>
      <trkpt lat="44.9263" lon="5.41378">
        <ele>1099</ele>
        <time>2022-09-22T13:09:00.588Z</time>
      </trkpt>
      <trkpt lat="44.9263" lon="5.41381">
        <ele>1099</ele>
        <time>2022-09-22T13:09:01.588Z</time>
      </trkpt>
      <trkpt lat="44.9263" lon="5.41384">
        <ele>1099</ele>
        <time>2022-09-22T13:09:02.589Z</time>
      </trkpt>
      <trkpt lat="44.9263" lon="5.41386">
        <ele>1099</ele>
        <time>2022-09-22T13:09:03.589Z</time>
      </trkpt>
      <trkpt lat="44.9263" lon="5.41389">
        <ele>1099</ele>
        <time>2022-09-22T13:09:04.588Z</time>
      </trkpt>
      <trkpt lat="44.9263" lon="5.41391">
        <ele>1099</ele>
        <time>2022-09-22T13:09:05.589Z</time>
      </trkpt>
      <trkpt lat="44.9263" lon="5.41394">
        <ele>1099</ele>
        <time>2022-09-22T13:09:06.588Z</time>
      </trkpt>
      <trkpt lat="44.92629" lon="5.41397">
        <ele>1099</ele>
        <time>2022-09-22T13:09:07.588Z</time>
      </trkpt>
      <trkpt lat="44.92629" lon="5.41399">
        <ele>1099</ele>
        <time>2022-09-22T13:09:08.589Z</time>
      </trkpt>
      <trkpt lat="44.92628" lon="5.41402">
        <ele>1099</ele>
        <time>2022-09-22T13:09:09.589Z</time>
      </trkpt>
      <trkpt lat="44.92628" lon="5.41405">
        <ele>1099</ele>
        <time>2022-09-22T13:09:10.588Z</time>
      </trkpt>
      <trkpt lat="44.92627" lon="5.41407">
        <ele>1099</ele>
        <time>2022-09-22T13:09:11.588Z</time>
      </trkpt>
      <trkpt lat="44.92626" lon="5.4141">
        <ele>1099</ele>
        <time>2022-09-22T13:09:12.589Z</time>
      </trkpt>
      <trkpt lat="44.92625" lon="5.41412">
        <ele>1099</ele>
        <time>2022-09-22T13:09:13.589Z</time>
      </trkpt>
      <trkpt lat="44.92625" lon="5.41414">
        <ele>1099</ele>
        <time>2022-09-22T13:09:14.589Z</time>
      </trkpt>
      <trkpt lat="44.92624" lon="5.41417">
        <ele>1099</ele>
        <time>2022-09-22T13:09:15.589Z</time>
      </trkpt>
      <trkpt lat="44.92624" lon="5.41419">
        <ele>1099</ele>
        <time>2022-09-22T13:09:16.589Z</time>
      </trkpt>
      <trkpt lat="44.92624" lon="5.41422">
        <ele>1099</ele>
        <time>2022-09-22T13:09:17.588Z</time>
      </trkpt>
      <trkpt lat="44.92623" lon="5.41424">
        <ele>1100</ele>
        <time>2022-09-22T13:09:18.588Z</time>
      </trkpt>
      <trkpt lat="44.92623" lon="5.41427">
        <ele>1100</ele>
        <time>2022-09-22T13:09:19.589Z</time>
      </trkpt>
      <trkpt lat="44.92622" lon="5.41429">
        <ele>1101</ele>
        <time>2022-09-22T13:09:20.588Z</time>
      </trkpt>
      <trkpt lat="44.92622" lon="5.41432">
        <ele>1101</ele>
        <time>2022-09-22T13:09:21.589Z</time>
      </trkpt>
      <trkpt lat="44.92621" lon="5.41435">
        <ele>1101</ele>
        <time>2022-09-22T13:09:22.589Z</time>
      </trkpt>
      <trkpt lat="44.92621" lon="5.41437">
        <ele>1100</ele>
        <time>2022-09-22T13:09:23.589Z</time>
      </trkpt>
      <trkpt lat="44.92621" lon="5.4144">
        <ele>1100</ele>
        <time>2022-09-22T13:09:24.589Z</time>
      </trkpt>
      <trkpt lat="44.9262" lon="5.41443">
        <ele>1099</ele>
        <time>2022-09-22T13:09:25.589Z</time>
      </trkpt>
      <trkpt lat="44.9262" lon="5.41446">
        <ele>1099</ele>
        <time>2022-09-22T13:09:26.589Z</time>
      </trkpt>
      <trkpt lat="44.9262" lon="5.41449">
        <ele>1099</ele>
        <time>2022-09-22T13:09:27.588Z</time>
      </trkpt>
      <trkpt lat="44.9262" lon="5.41451">
        <ele>1098</ele>
        <time>2022-09-22T13:09:28.588Z</time>
      </trkpt>
      <trkpt lat="44.9262" lon="5.41454">
        <ele>1099</ele>
        <time>2022-09-22T13:09:29.589Z</time>
      </trkpt>
      <trkpt lat="44.9262" lon="5.41457">
        <ele>1099</ele>
        <time>2022-09-22T13:09:30.588Z</time>
      </trkpt>
      <trkpt lat="44.9262" lon="5.4146">
        <ele>1100</ele>
        <time>2022-09-22T13:09:31.589Z</time>
      </trkpt>
      <trkpt lat="44.9262" lon="5.41462">
        <ele>1100</ele>
        <time>2022-09-22T13:09:32.589Z</time>
      </trkpt>
      <trkpt lat="44.9262" lon="5.41465">
        <ele>1100</ele>
        <time>2022-09-22T13:09:33.588Z</time>
      </trkpt>
      <trkpt lat="44.92621" lon="5.41468">
        <ele>1101</ele>
        <time>2022-09-22T13:09:34.588Z</time>
      </trkpt>
      <trkpt lat="44.92621" lon="5.41471">
        <ele>1101</ele>
        <time>2022-09-22T13:09:35.589Z</time>
      </trkpt>
      <trkpt lat="44.92621" lon="5.41474">
        <ele>1102</ele>
        <time>2022-09-22T13:09:36.589Z</time>
      </trkpt>
      <trkpt lat="44.92621" lon="5.41478">
        <ele>1102</ele>
        <time>2022-09-22T13:09:37.589Z</time>
      </trkpt>
      <trkpt lat="44.92621" lon="5.41481">
        <ele>1102</ele>
        <time>2022-09-22T13:09:38.589Z</time>
      </trkpt>
      <trkpt lat="44.92621" lon="5.41484">
        <ele>1102</ele>
        <time>2022-09-22T13:09:39.588Z</time>
      </trkpt>
      <trkpt lat="44.92621" lon="5.41487">
        <ele>1101</ele>
        <time>2022-09-22T13:09:40.588Z</time>
      </trkpt>
      <trkpt lat="44.92621" lon="5.41491">
        <ele>1101</ele>
        <time>2022-09-22T13:09:41.589Z</time>
      </trkpt>
      <trkpt lat="44.92621" lon="5.41494">
        <ele>1101</ele>
        <time>2022-09-22T13:09:42.589Z</time>
      </trkpt>
      <trkpt lat="44.92621" lon="5.41497">
        <ele>1101</ele>
        <time>2022-09-22T13:09:43.588Z</time>
      </trkpt>
      <trkpt lat="44.92621" lon="5.415">
        <ele>1101</ele>
        <time>2022-09-22T13:09:44.589Z</time>
      </trkpt>
      <trkpt lat="44.92621" lon="5.41503">
        <ele>1101</ele>
        <time>2022-09-22T13:09:45.588Z</time>
      </trkpt>
      <trkpt lat="44.92621" lon="5.41506">
        <ele>1100</ele>
        <time>2022-09-22T13:09:46.589Z</time>
      </trkpt>
      <trkpt lat="44.92621" lon="5.41509">
        <ele>1100</ele>
        <time>2022-09-22T13:09:47.589Z</time>
      </trkpt>
      <trkpt lat="44.92621" lon="5.41512">
        <ele>1100</ele>
        <time>2022-09-22T13:09:48.589Z</time>
      </trkpt>
      <trkpt lat="44.92621" lon="5.41516">
        <ele>1100</ele>
        <time>2022-09-22T13:09:49.589Z</time>
      </trkpt>
      <trkpt lat="44.92621" lon="5.41519">
        <ele>1100</ele>
        <time>2022-09-22T13:09:50.589Z</time>
      </trkpt>
      <trkpt lat="44.92621" lon="5.41524">
        <ele>1100</ele>
        <time>2022-09-22T13:09:51.589Z</time>
      </trkpt>
      <trkpt lat="44.92621" lon="5.41526">
        <ele>1100</ele>
        <time>2022-09-22T13:09:52.589Z</time>
      </trkpt>
      <trkpt lat="44.92621" lon="5.4153">
        <ele>1100</ele>
        <time>2022-09-22T13:09:53.589Z</time>
      </trkpt>
      <trkpt lat="44.92621" lon="5.41534">
        <ele>1100</ele>
        <time>2022-09-22T13:09:54.589Z</time>
      </trkpt>
      <trkpt lat="44.92621" lon="5.41537">
        <ele>1100</ele>
        <time>2022-09-22T13:09:55.589Z</time>
      </trkpt>
      <trkpt lat="44.92621" lon="5.41541">
        <ele>1100</ele>
        <time>2022-09-22T13:09:56.588Z</time>
      </trkpt>
      <trkpt lat="44.9262" lon="5.41544">
        <ele>1100</ele>
        <time>2022-09-22T13:09:57.589Z</time>
      </trkpt>
      <trkpt lat="44.9262" lon="5.41547">
        <ele>1101</ele>
        <time>2022-09-22T13:09:58.588Z</time>
      </trkpt>
      <trkpt lat="44.9262" lon="5.41551">
        <ele>1101</ele>
        <time>2022-09-22T13:09:59.588Z</time>
      </trkpt>
      <trkpt lat="44.9262" lon="5.41556">
        <ele>1101</ele>
        <time>2022-09-22T13:10:00.588Z</time>
      </trkpt>
      <trkpt lat="44.92619" lon="5.4156">
        <ele>1101</ele>
        <time>2022-09-22T13:10:01.588Z</time>
      </trkpt>
      <trkpt lat="44.92619" lon="5.41564">
        <ele>1101</ele>
        <time>2022-09-22T13:10:02.588Z</time>
      </trkpt>
      <trkpt lat="44.92618" lon="5.41569">
        <ele>1100</ele>
        <time>2022-09-22T13:10:03.589Z</time>
      </trkpt>
      <trkpt lat="44.92617" lon="5.41573">
        <ele>1100</ele>
        <time>2022-09-22T13:10:04.589Z</time>
      </trkpt>
      <trkpt lat="44.92616" lon="5.41578">
        <ele>1100</ele>
        <time>2022-09-22T13:10:05.589Z</time>
      </trkpt>
      <trkpt lat="44.92615" lon="5.41582">
        <ele>1100</ele>
        <time>2022-09-22T13:10:06.588Z</time>
      </trkpt>
      <trkpt lat="44.92613" lon="5.41587">
        <ele>1100</ele>
        <time>2022-09-22T13:10:07.589Z</time>
      </trkpt>
      <trkpt lat="44.92612" lon="5.41591">
        <ele>1101</ele>
        <time>2022-09-22T13:10:08.588Z</time>
      </trkpt>
      <trkpt lat="44.92611" lon="5.41595">
        <ele>1101</ele>
        <time>2022-09-22T13:10:09.588Z</time>
      </trkpt>
      <trkpt lat="44.92609" lon="5.416">
        <ele>1101</ele>
        <time>2022-09-22T13:10:10.589Z</time>
      </trkpt>
      <trkpt lat="44.92608" lon="5.41603">
        <ele>1101</ele>
        <time>2022-09-22T13:10:11.588Z</time>
      </trkpt>
      <trkpt lat="44.92606" lon="5.41607">
        <ele>1102</ele>
        <time>2022-09-22T13:10:12.588Z</time>
      </trkpt>
      <trkpt lat="44.92604" lon="5.41609">
        <ele>1102</ele>
        <time>2022-09-22T13:10:13.589Z</time>
      </trkpt>
      <trkpt lat="44.92602" lon="5.41612">
        <ele>1102</ele>
        <time>2022-09-22T13:10:14.589Z</time>
      </trkpt>
      <trkpt lat="44.926" lon="5.41615">
        <ele>1102</ele>
        <time>2022-09-22T13:10:15.588Z</time>
      </trkpt>
      <trkpt lat="44.92598" lon="5.41618">
        <ele>1102</ele>
        <time>2022-09-22T13:10:16.589Z</time>
      </trkpt>
      <trkpt lat="44.92596" lon="5.41621">
        <ele>1102</ele>
        <time>2022-09-22T13:10:17.588Z</time>
      </trkpt>
      <trkpt lat="44.92594" lon="5.41624">
        <ele>1103</ele>
        <time>2022-09-22T13:10:18.589Z</time>
      </trkpt>
      <trkpt lat="44.92591" lon="5.41626">
        <ele>1102</ele>
        <time>2022-09-22T13:10:19.589Z</time>
      </trkpt>
      <trkpt lat="44.92589" lon="5.41629">
        <ele>1102</ele>
        <time>2022-09-22T13:10:20.588Z</time>
      </trkpt>
      <trkpt lat="44.92586" lon="5.41631">
        <ele>1102</ele>
        <time>2022-09-22T13:10:21.589Z</time>
      </trkpt>
      <trkpt lat="44.92584" lon="5.41633">
        <ele>1102</ele>
        <time>2022-09-22T13:10:22.589Z</time>
      </trkpt>
      <trkpt lat="44.92582" lon="5.41635">
        <ele>1102</ele>
        <time>2022-09-22T13:10:23.588Z</time>
      </trkpt>
      <trkpt lat="44.92581" lon="5.41637">
        <ele>1102</ele>
        <time>2022-09-22T13:10:24.588Z</time>
      </trkpt>
      <trkpt lat="44.92579" lon="5.4164">
        <ele>1101</ele>
        <time>2022-09-22T13:10:25.588Z</time>
      </trkpt>
      <trkpt lat="44.92579" lon="5.41643">
        <ele>1101</ele>
        <time>2022-09-22T13:10:26.589Z</time>
      </trkpt>
      <trkpt lat="44.92578" lon="5.41646">
        <ele>1101</ele>
        <time>2022-09-22T13:10:27.589Z</time>
      </trkpt>
      <trkpt lat="44.92579" lon="5.41648">
        <ele>1101</ele>
        <time>2022-09-22T13:10:28.588Z</time>
      </trkpt>
      <trkpt lat="44.92579" lon="5.41651">
        <ele>1100</ele>
        <time>2022-09-22T13:10:29.589Z</time>
      </trkpt>
      <trkpt lat="44.9258" lon="5.41654">
        <ele>1100</ele>
        <time>2022-09-22T13:10:30.589Z</time>
      </trkpt>
      <trkpt lat="44.92581" lon="5.41658">
        <ele>1100</ele>
        <time>2022-09-22T13:10:31.589Z</time>
      </trkpt>
      <trkpt lat="44.92582" lon="5.41662">
        <ele>1100</ele>
        <time>2022-09-22T13:10:32.589Z</time>
      </trkpt>
      <trkpt lat="44.92583" lon="5.41666">
        <ele>1100</ele>
        <time>2022-09-22T13:10:33.588Z</time>
      </trkpt>
      <trkpt lat="44.92584" lon="5.4167">
        <ele>1100</ele>
        <time>2022-09-22T13:10:34.588Z</time>
      </trkpt>
      <trkpt lat="44.92585" lon="5.41673">
        <ele>1100</ele>
        <time>2022-09-22T13:10:35.588Z</time>
      </trkpt>
      <trkpt lat="44.92587" lon="5.41676">
        <ele>1100</ele>
        <time>2022-09-22T13:10:36.589Z</time>
      </trkpt>
      <trkpt lat="44.9259" lon="5.41679">
        <ele>1100</ele>
        <time>2022-09-22T13:10:37.588Z</time>
      </trkpt>
      <trkpt lat="44.92592" lon="5.41683">
        <ele>1100</ele>
        <time>2022-09-22T13:10:38.589Z</time>
      </trkpt>
      <trkpt lat="44.92596" lon="5.41686">
        <ele>1100</ele>
        <time>2022-09-22T13:10:39.588Z</time>
      </trkpt>
      <trkpt lat="44.92599" lon="5.41689">
        <ele>1100</ele>
        <time>2022-09-22T13:10:40.588Z</time>
      </trkpt>
      <trkpt lat="44.92603" lon="5.41694">
        <ele>1100</ele>
        <time>2022-09-22T13:10:41.589Z</time>
      </trkpt>
      <trkpt lat="44.92607" lon="5.41698">
        <ele>1100</ele>
        <time>2022-09-22T13:10:42.589Z</time>
      </trkpt>
      <trkpt lat="44.92611" lon="5.41701">
        <ele>1100</ele>
        <time>2022-09-22T13:10:43.589Z</time>
      </trkpt>
      <trkpt lat="44.92615" lon="5.41705">
        <ele>1100</ele>
        <time>2022-09-22T13:10:44.588Z</time>
      </trkpt>
      <trkpt lat="44.92619" lon="5.41709">
        <ele>1100</ele>
        <time>2022-09-22T13:10:45.588Z</time>
      </trkpt>
      <trkpt lat="44.92623" lon="5.41713">
        <ele>1099</ele>
        <time>2022-09-22T13:10:46.589Z</time>
      </trkpt>
      <trkpt lat="44.92626" lon="5.41715">
        <ele>1099</ele>
        <time>2022-09-22T13:10:47.589Z</time>
      </trkpt>
      <trkpt lat="44.92629" lon="5.41719">
        <ele>1099</ele>
        <time>2022-09-22T13:10:48.589Z</time>
      </trkpt>
      <trkpt lat="44.9263" lon="5.41722">
        <ele>1099</ele>
        <time>2022-09-22T13:10:49.589Z</time>
      </trkpt>
      <trkpt lat="44.9263" lon="5.41725">
        <ele>1099</ele>
        <time>2022-09-22T13:10:50.589Z</time>
      </trkpt>
      <trkpt lat="44.9263" lon="5.41727">
        <ele>1099</ele>
        <time>2022-09-22T13:10:51.588Z</time>
      </trkpt>
      <trkpt lat="44.92628" lon="5.41728">
        <ele>1099</ele>
        <time>2022-09-22T13:10:52.589Z</time>
      </trkpt>
      <trkpt lat="44.92627" lon="5.41729">
        <ele>1100</ele>
        <time>2022-09-22T13:10:53.588Z</time>
      </trkpt>
      <trkpt lat="44.92624" lon="5.4173">
        <ele>1100</ele>
        <time>2022-09-22T13:10:54.589Z</time>
      </trkpt>
      <trkpt lat="44.92622" lon="5.41729">
        <ele>1100</ele>
        <time>2022-09-22T13:10:55.588Z</time>
      </trkpt>
      <trkpt lat="44.92619" lon="5.41729">
        <ele>1100</ele>
        <time>2022-09-22T13:10:56.589Z</time>
      </trkpt>
      <trkpt lat="44.92617" lon="5.41726">
        <ele>1101</ele>
        <time>2022-09-22T13:10:57.588Z</time>
      </trkpt>
      <trkpt lat="44.92613" lon="5.41724">
        <ele>1101</ele>
        <time>2022-09-22T13:10:58.588Z</time>
      </trkpt>
      <trkpt lat="44.9261" lon="5.41722">
        <ele>1101</ele>
        <time>2022-09-22T13:10:59.589Z</time>
      </trkpt>
      <trkpt lat="44.92606" lon="5.41721">
        <ele>1101</ele>
        <time>2022-09-22T13:11:00.588Z</time>
      </trkpt>
      <trkpt lat="44.926" lon="5.41721">
        <ele>1101</ele>
        <time>2022-09-22T13:11:01.588Z</time>
      </trkpt>
      <trkpt lat="44.92595" lon="5.41721">
        <ele>1101</ele>
        <time>2022-09-22T13:11:02.588Z</time>
      </trkpt>
      <trkpt lat="44.92589" lon="5.4172">
        <ele>1101</ele>
        <time>2022-09-22T13:11:03.589Z</time>
      </trkpt>
      <trkpt lat="44.92583" lon="5.4172">
        <ele>1101</ele>
        <time>2022-09-22T13:11:04.588Z</time>
      </trkpt>
      <trkpt lat="44.92578" lon="5.41719">
        <ele>1101</ele>
        <time>2022-09-22T13:11:05.588Z</time>
      </trkpt>
      <trkpt lat="44.92573" lon="5.41718">
        <ele>1101</ele>
        <time>2022-09-22T13:11:06.588Z</time>
      </trkpt>
      <trkpt lat="44.92567" lon="5.41717">
        <ele>1101</ele>
        <time>2022-09-22T13:11:07.589Z</time>
      </trkpt>
      <trkpt lat="44.92562" lon="5.41716">
        <ele>1101</ele>
        <time>2022-09-22T13:11:08.589Z</time>
      </trkpt>
      <trkpt lat="44.92557" lon="5.41716">
        <ele>1100</ele>
        <time>2022-09-22T13:11:09.588Z</time>
      </trkpt>
      <trkpt lat="44.92554" lon="5.41717">
        <ele>1100</ele>
        <time>2022-09-22T13:11:10.588Z</time>
      </trkpt>
      <trkpt lat="44.92552" lon="5.41718">
        <ele>1100</ele>
        <time>2022-09-22T13:11:11.588Z</time>
      </trkpt>
      <trkpt lat="44.92551" lon="5.41719">
        <ele>1099</ele>
        <time>2022-09-22T13:11:12.589Z</time>
      </trkpt>
      <trkpt lat="44.9255" lon="5.4172">
        <ele>1099</ele>
        <time>2022-09-22T13:11:13.589Z</time>
      </trkpt>
      <trkpt lat="44.92549" lon="5.41719">
        <ele>1099</ele>
        <time>2022-09-22T13:11:14.589Z</time>
      </trkpt>
      <trkpt lat="44.92548" lon="5.41719">
        <ele>1099</ele>
        <time>2022-09-22T13:11:15.588Z</time>
      </trkpt>
      <trkpt lat="44.92546" lon="5.41719">
        <ele>1099</ele>
        <time>2022-09-22T13:11:16.588Z</time>
      </trkpt>
      <trkpt lat="44.92545" lon="5.41721">
        <ele>1099</ele>
        <time>2022-09-22T13:11:17.589Z</time>
      </trkpt>
      <trkpt lat="44.92546" lon="5.41721">
        <ele>1098</ele>
        <time>2022-09-22T13:11:18.589Z</time>
      </trkpt>
      <trkpt lat="44.92547" lon="5.41721">
        <ele>1098</ele>
        <time>2022-09-22T13:11:19.588Z</time>
      </trkpt>
      <trkpt lat="44.92547" lon="5.41721">
        <ele>1097</ele>
        <time>2022-09-22T13:11:20.589Z</time>
      </trkpt>
      <trkpt lat="44.92547" lon="5.4172">
        <ele>1097</ele>
        <time>2022-09-22T13:11:21.589Z</time>
      </trkpt>
      <trkpt lat="44.9254" lon="5.4171">
        <ele>1092</ele>
        <time>2022-09-22T13:11:32.699Z</time>
      </trkpt>
      <trkpt lat="44.92541" lon="5.4171">
        <ele>1092</ele>
        <time>2022-09-22T13:11:33.699Z</time>
      </trkpt>
      <trkpt lat="44.92543" lon="5.4171">
        <ele>1092</ele>
        <time>2022-09-22T13:11:34.698Z</time>
      </trkpt>
      <trkpt lat="44.92545" lon="5.41711">
        <ele>1092</ele>
        <time>2022-09-22T13:11:35.699Z</time>
      </trkpt>
      <trkpt lat="44.92546" lon="5.41717">
        <ele>1098</ele>
        <time>2022-09-22T13:12:12.741Z</time>
      </trkpt>
      <trkpt lat="44.92546" lon="5.41717">
        <ele>1098</ele>
        <time>2022-09-22T13:12:13.741Z</time>
      </trkpt>
      <trkpt lat="44.92547" lon="5.41718">
        <ele>1098</ele>
        <time>2022-09-22T13:12:14.741Z</time>
      </trkpt>
      <trkpt lat="44.92547" lon="5.41719">
        <ele>1098</ele>
        <time>2022-09-22T13:12:15.742Z</time>
      </trkpt>
      <trkpt lat="44.92544" lon="5.41723">
        <ele>1098</ele>
        <time>2022-09-22T13:12:23.850Z</time>
      </trkpt>
      <trkpt lat="44.92541" lon="5.41725">
        <ele>1098</ele>
        <time>2022-09-22T13:12:24.850Z</time>
      </trkpt>
      <trkpt lat="44.92538" lon="5.41726">
        <ele>1097</ele>
        <time>2022-09-22T13:12:25.849Z</time>
      </trkpt>
      <trkpt lat="44.92535" lon="5.41728">
        <ele>1097</ele>
        <time>2022-09-22T13:12:26.850Z</time>
      </trkpt>
      <trkpt lat="44.92532" lon="5.4173">
        <ele>1097</ele>
        <time>2022-09-22T13:12:27.850Z</time>
      </trkpt>
      <trkpt lat="44.92527" lon="5.41731">
        <ele>1096</ele>
        <time>2022-09-22T13:12:28.850Z</time>
      </trkpt>
      <trkpt lat="44.92523" lon="5.41732">
        <ele>1096</ele>
        <time>2022-09-22T13:12:29.850Z</time>
      </trkpt>
      <trkpt lat="44.92518" lon="5.41734">
        <ele>1096</ele>
        <time>2022-09-22T13:12:30.850Z</time>
      </trkpt>
      <trkpt lat="44.92514" lon="5.41733">
        <ele>1095</ele>
        <time>2022-09-22T13:12:31.849Z</time>
      </trkpt>
      <trkpt lat="44.9251" lon="5.41733">
        <ele>1095</ele>
        <time>2022-09-22T13:12:32.850Z</time>
      </trkpt>
      <trkpt lat="44.92506" lon="5.41731">
        <ele>1095</ele>
        <time>2022-09-22T13:12:33.850Z</time>
      </trkpt>
      <trkpt lat="44.92501" lon="5.41731">
        <ele>1094</ele>
        <time>2022-09-22T13:12:34.850Z</time>
      </trkpt>
      <trkpt lat="44.92497" lon="5.41732">
        <ele>1094</ele>
        <time>2022-09-22T13:12:35.850Z</time>
      </trkpt>
      <trkpt lat="44.92492" lon="5.41732">
        <ele>1094</ele>
        <time>2022-09-22T13:12:36.849Z</time>
      </trkpt>
      <trkpt lat="44.92487" lon="5.41734">
        <ele>1094</ele>
        <time>2022-09-22T13:12:37.850Z</time>
      </trkpt>
      <trkpt lat="44.92483" lon="5.41737">
        <ele>1094</ele>
        <time>2022-09-22T13:12:38.850Z</time>
      </trkpt>
      <trkpt lat="44.9248" lon="5.41739">
        <ele>1094</ele>
        <time>2022-09-22T13:12:39.850Z</time>
      </trkpt>
      <trkpt lat="44.92477" lon="5.41742">
        <ele>1094</ele>
        <time>2022-09-22T13:12:40.849Z</time>
      </trkpt>
      <trkpt lat="44.92474" lon="5.41746">
        <ele>1093</ele>
        <time>2022-09-22T13:12:41.849Z</time>
      </trkpt>
      <trkpt lat="44.92469" lon="5.4175">
        <ele>1093</ele>
        <time>2022-09-22T13:12:42.850Z</time>
      </trkpt>
      <trkpt lat="44.92465" lon="5.41754">
        <ele>1093</ele>
        <time>2022-09-22T13:12:43.850Z</time>
      </trkpt>
      <trkpt lat="44.9246" lon="5.41757">
        <ele>1093</ele>
        <time>2022-09-22T13:12:44.850Z</time>
      </trkpt>
      <trkpt lat="44.92455" lon="5.41758">
        <ele>1092</ele>
        <time>2022-09-22T13:12:45.849Z</time>
      </trkpt>
      <trkpt lat="44.9245" lon="5.41761">
        <ele>1092</ele>
        <time>2022-09-22T13:12:46.850Z</time>
      </trkpt>
      <trkpt lat="44.92445" lon="5.41763">
        <ele>1091</ele>
        <time>2022-09-22T13:12:47.849Z</time>
      </trkpt>
      <trkpt lat="44.92439" lon="5.41764">
        <ele>1091</ele>
        <time>2022-09-22T13:12:48.850Z</time>
      </trkpt>
      <trkpt lat="44.92433" lon="5.41766">
        <ele>1090</ele>
        <time>2022-09-22T13:12:49.850Z</time>
      </trkpt>
      <trkpt lat="44.92427" lon="5.41767">
        <ele>1090</ele>
        <time>2022-09-22T13:12:50.850Z</time>
      </trkpt>
      <trkpt lat="44.92421" lon="5.41768">
        <ele>1089</ele>
        <time>2022-09-22T13:12:51.849Z</time>
      </trkpt>
      <trkpt lat="44.92414" lon="5.4177">
        <ele>1089</ele>
        <time>2022-09-22T13:12:52.850Z</time>
      </trkpt>
      <trkpt lat="44.92408" lon="5.41771">
        <ele>1088</ele>
        <time>2022-09-22T13:12:53.849Z</time>
      </trkpt>
      <trkpt lat="44.92401" lon="5.41772">
        <ele>1088</ele>
        <time>2022-09-22T13:12:54.850Z</time>
      </trkpt>
      <trkpt lat="44.92394" lon="5.41773">
        <ele>1087</ele>
        <time>2022-09-22T13:12:55.850Z</time>
      </trkpt>
      <trkpt lat="44.92388" lon="5.41775">
        <ele>1087</ele>
        <time>2022-09-22T13:12:56.850Z</time>
      </trkpt>
      <trkpt lat="44.92382" lon="5.41775">
        <ele>1086</ele>
        <time>2022-09-22T13:12:57.849Z</time>
      </trkpt>
      <trkpt lat="44.92376" lon="5.41777">
        <ele>1086</ele>
        <time>2022-09-22T13:12:58.849Z</time>
      </trkpt>
      <trkpt lat="44.9237" lon="5.41779">
        <ele>1086</ele>
        <time>2022-09-22T13:12:59.850Z</time>
      </trkpt>
      <trkpt lat="44.92364" lon="5.4178">
        <ele>1085</ele>
        <time>2022-09-22T13:13:00.849Z</time>
      </trkpt>
      <trkpt lat="44.92359" lon="5.41781">
        <ele>1084</ele>
        <time>2022-09-22T13:13:01.850Z</time>
      </trkpt>
      <trkpt lat="44.92353" lon="5.41782">
        <ele>1084</ele>
        <time>2022-09-22T13:13:02.849Z</time>
      </trkpt>
      <trkpt lat="44.92347" lon="5.41783">
        <ele>1083</ele>
        <time>2022-09-22T13:13:03.850Z</time>
      </trkpt>
      <trkpt lat="44.92342" lon="5.41784">
        <ele>1082</ele>
        <time>2022-09-22T13:13:04.850Z</time>
      </trkpt>
      <trkpt lat="44.92336" lon="5.41785">
        <ele>1081</ele>
        <time>2022-09-22T13:13:05.850Z</time>
      </trkpt>
      <trkpt lat="44.9233" lon="5.41785">
        <ele>1080</ele>
        <time>2022-09-22T13:13:06.850Z</time>
      </trkpt>
      <trkpt lat="44.92325" lon="5.41786">
        <ele>1080</ele>
        <time>2022-09-22T13:13:07.850Z</time>
      </trkpt>
      <trkpt lat="44.92318" lon="5.41788">
        <ele>1079</ele>
        <time>2022-09-22T13:13:08.849Z</time>
      </trkpt>
      <trkpt lat="44.92313" lon="5.41789">
        <ele>1079</ele>
        <time>2022-09-22T13:13:09.849Z</time>
      </trkpt>
      <trkpt lat="44.92308" lon="5.41791">
        <ele>1079</ele>
        <time>2022-09-22T13:13:10.850Z</time>
      </trkpt>
      <trkpt lat="44.92303" lon="5.41792">
        <ele>1078</ele>
        <time>2022-09-22T13:13:11.850Z</time>
      </trkpt>
      <trkpt lat="44.92298" lon="5.41794">
        <ele>1078</ele>
        <time>2022-09-22T13:13:12.849Z</time>
      </trkpt>
      <trkpt lat="44.92293" lon="5.41797">
        <ele>1078</ele>
        <time>2022-09-22T13:13:13.849Z</time>
      </trkpt>
      <trkpt lat="44.92288" lon="5.41798">
        <ele>1078</ele>
        <time>2022-09-22T13:13:14.850Z</time>
      </trkpt>
      <trkpt lat="44.92284" lon="5.41798">
        <ele>1078</ele>
        <time>2022-09-22T13:13:15.850Z</time>
      </trkpt>
      <trkpt lat="44.92279" lon="5.41801">
        <ele>1077</ele>
        <time>2022-09-22T13:13:16.850Z</time>
      </trkpt>
      <trkpt lat="44.92276" lon="5.41804">
        <ele>1077</ele>
        <time>2022-09-22T13:13:17.850Z</time>
      </trkpt>
      <trkpt lat="44.92275" lon="5.4181">
        <ele>1077</ele>
        <time>2022-09-22T13:13:18.849Z</time>
      </trkpt>
      <trkpt lat="44.92276" lon="5.41812">
        <ele>1077</ele>
        <time>2022-09-22T13:13:19.850Z</time>
      </trkpt>
      <trkpt lat="44.92278" lon="5.41812">
        <ele>1077</ele>
        <time>2022-09-22T13:13:20.850Z</time>
      </trkpt>
      <trkpt lat="44.92281" lon="5.41811">
        <ele>1076</ele>
        <time>2022-09-22T13:13:21.850Z</time>
      </trkpt>
      <trkpt lat="44.92284" lon="5.41811">
        <ele>1076</ele>
        <time>2022-09-22T13:13:22.850Z</time>
      </trkpt>
      <trkpt lat="44.92289" lon="5.41812">
        <ele>1076</ele>
        <time>2022-09-22T13:13:23.850Z</time>
      </trkpt>
      <trkpt lat="44.92294" lon="5.41811">
        <ele>1076</ele>
        <time>2022-09-22T13:13:24.850Z</time>
      </trkpt>
      <trkpt lat="44.92299" lon="5.4181">
        <ele>1075</ele>
        <time>2022-09-22T13:13:25.850Z</time>
      </trkpt>
      <trkpt lat="44.92304" lon="5.4181">
        <ele>1075</ele>
        <time>2022-09-22T13:13:26.850Z</time>
      </trkpt>
      <trkpt lat="44.9231" lon="5.41809">
        <ele>1075</ele>
        <time>2022-09-22T13:13:27.850Z</time>
      </trkpt>
      <trkpt lat="44.92314" lon="5.41809">
        <ele>1074</ele>
        <time>2022-09-22T13:13:28.849Z</time>
      </trkpt>
      <trkpt lat="44.92319" lon="5.41809">
        <ele>1074</ele>
        <time>2022-09-22T13:13:29.850Z</time>
      </trkpt>
      <trkpt lat="44.92325" lon="5.41808">
        <ele>1073</ele>
        <time>2022-09-22T13:13:30.850Z</time>
      </trkpt>
      <trkpt lat="44.92331" lon="5.41807">
        <ele>1073</ele>
        <time>2022-09-22T13:13:31.850Z</time>
      </trkpt>
      <trkpt lat="44.92337" lon="5.41806">
        <ele>1073</ele>
        <time>2022-09-22T13:13:32.849Z</time>
      </trkpt>
      <trkpt lat="44.92343" lon="5.41806">
        <ele>1072</ele>
        <time>2022-09-22T13:13:33.849Z</time>
      </trkpt>
      <trkpt lat="44.92348" lon="5.41807">
        <ele>1072</ele>
        <time>2022-09-22T13:13:34.850Z</time>
      </trkpt>
      <trkpt lat="44.92354" lon="5.41808">
        <ele>1071</ele>
        <time>2022-09-22T13:13:35.850Z</time>
      </trkpt>
      <trkpt lat="44.9236" lon="5.41809">
        <ele>1070</ele>
        <time>2022-09-22T13:13:36.849Z</time>
      </trkpt>
      <trkpt lat="44.92365" lon="5.4181">
        <ele>1069</ele>
        <time>2022-09-22T13:13:37.849Z</time>
      </trkpt>
      <trkpt lat="44.92371" lon="5.41811">
        <ele>1068</ele>
        <time>2022-09-22T13:13:38.850Z</time>
      </trkpt>
      <trkpt lat="44.92377" lon="5.41811">
        <ele>1067</ele>
        <time>2022-09-22T13:13:39.850Z</time>
      </trkpt>
      <trkpt lat="44.92383" lon="5.41812">
        <ele>1066</ele>
        <time>2022-09-22T13:13:40.849Z</time>
      </trkpt>
      <trkpt lat="44.92389" lon="5.41813">
        <ele>1065</ele>
        <time>2022-09-22T13:13:41.849Z</time>
      </trkpt>
      <trkpt lat="44.92395" lon="5.41814">
        <ele>1065</ele>
        <time>2022-09-22T13:13:42.850Z</time>
      </trkpt>
      <trkpt lat="44.92401" lon="5.41815">
        <ele>1064</ele>
        <time>2022-09-22T13:13:43.849Z</time>
      </trkpt>
      <trkpt lat="44.92407" lon="5.41817">
        <ele>1063</ele>
        <time>2022-09-22T13:13:44.850Z</time>
      </trkpt>
      <trkpt lat="44.92413" lon="5.41818">
        <ele>1063</ele>
        <time>2022-09-22T13:13:45.849Z</time>
      </trkpt>
      <trkpt lat="44.92419" lon="5.41819">
        <ele>1062</ele>
        <time>2022-09-22T13:13:46.850Z</time>
      </trkpt>
      <trkpt lat="44.92425" lon="5.41821">
        <ele>1061</ele>
        <time>2022-09-22T13:13:47.850Z</time>
      </trkpt>
      <trkpt lat="44.92431" lon="5.41823">
        <ele>1060</ele>
        <time>2022-09-22T13:13:48.849Z</time>
      </trkpt>
      <trkpt lat="44.92437" lon="5.41826">
        <ele>1060</ele>
        <time>2022-09-22T13:13:49.849Z</time>
      </trkpt>
      <trkpt lat="44.92443" lon="5.41827">
        <ele>1059</ele>
        <time>2022-09-22T13:13:50.850Z</time>
      </trkpt>
      <trkpt lat="44.92447" lon="5.41829">
        <ele>1058</ele>
        <time>2022-09-22T13:13:51.850Z</time>
      </trkpt>
      <trkpt lat="44.92453" lon="5.4183">
        <ele>1058</ele>
        <time>2022-09-22T13:13:52.850Z</time>
      </trkpt>
      <trkpt lat="44.9246" lon="5.41833">
        <ele>1057</ele>
        <time>2022-09-22T13:13:53.850Z</time>
      </trkpt>
      <trkpt lat="44.92465" lon="5.41835">
        <ele>1057</ele>
        <time>2022-09-22T13:13:54.850Z</time>
      </trkpt>
      <trkpt lat="44.92469" lon="5.41838">
        <ele>1056</ele>
        <time>2022-09-22T13:13:55.849Z</time>
      </trkpt>
      <trkpt lat="44.92473" lon="5.4184">
        <ele>1056</ele>
        <time>2022-09-22T13:13:56.849Z</time>
      </trkpt>
      <trkpt lat="44.92475" lon="5.4184">
        <ele>1056</ele>
        <time>2022-09-22T13:13:57.849Z</time>
      </trkpt>
      <trkpt lat="44.92477" lon="5.41841">
        <ele>1055</ele>
        <time>2022-09-22T13:13:58.850Z</time>
      </trkpt>
      <trkpt lat="44.92477" lon="5.41842">
        <ele>1055</ele>
        <time>2022-09-22T13:13:59.850Z</time>
      </trkpt>
      <trkpt lat="44.92476" lon="5.41843">
        <ele>1055</ele>
        <time>2022-09-22T13:14:00.850Z</time>
      </trkpt>
      <trkpt lat="44.92475" lon="5.41843">
        <ele>1054</ele>
        <time>2022-09-22T13:14:01.849Z</time>
      </trkpt>
      <trkpt lat="44.92475" lon="5.41843">
        <ele>1054</ele>
        <time>2022-09-22T13:14:02.850Z</time>
      </trkpt>
      <trkpt lat="44.92474" lon="5.41846">
        <ele>1055</ele>
        <time>2022-09-22T13:14:03.850Z</time>
      </trkpt>
      <trkpt lat="44.92472" lon="5.41848">
        <ele>1055</ele>
        <time>2022-09-22T13:14:04.850Z</time>
      </trkpt>
      <trkpt lat="44.92471" lon="5.41849">
        <ele>1055</ele>
        <time>2022-09-22T13:14:05.850Z</time>
      </trkpt>
      <trkpt lat="44.9247" lon="5.4185">
        <ele>1055</ele>
        <time>2022-09-22T13:14:06.850Z</time>
      </trkpt>
      <trkpt lat="44.92469" lon="5.4185">
        <ele>1056</ele>
        <time>2022-09-22T13:14:07.849Z</time>
      </trkpt>
      <trkpt lat="44.92469" lon="5.41852">
        <ele>1057</ele>
        <time>2022-09-22T13:14:10.961Z</time>
      </trkpt>
      <trkpt lat="44.9247" lon="5.41856">
        <ele>1059</ele>
        <time>2022-09-22T13:14:15.857Z</time>
      </trkpt>
      <trkpt lat="44.92472" lon="5.41857">
        <ele>1059</ele>
        <time>2022-09-22T13:14:16.858Z</time>
      </trkpt>
      <trkpt lat="44.92473" lon="5.41858">
        <ele>1059</ele>
        <time>2022-09-22T13:14:17.857Z</time>
      </trkpt>
      <trkpt lat="44.92474" lon="5.41859">
        <ele>1059</ele>
        <time>2022-09-22T13:14:18.857Z</time>
      </trkpt>
      <trkpt lat="44.92476" lon="5.4186">
        <ele>1059</ele>
        <time>2022-09-22T13:14:19.858Z</time>
      </trkpt>
      <trkpt lat="44.92477" lon="5.41861">
        <ele>1059</ele>
        <time>2022-09-22T13:14:20.858Z</time>
      </trkpt>
      <trkpt lat="44.92478" lon="5.41862">
        <ele>1059</ele>
        <time>2022-09-22T13:14:21.858Z</time>
      </trkpt>
      <trkpt lat="44.92481" lon="5.41861">
        <ele>1059</ele>
        <time>2022-09-22T13:14:22.857Z</time>
      </trkpt>
      <trkpt lat="44.92483" lon="5.41862">
        <ele>1059</ele>
        <time>2022-09-22T13:14:23.857Z</time>
      </trkpt>
      <trkpt lat="44.92486" lon="5.41863">
        <ele>1058</ele>
        <time>2022-09-22T13:14:24.858Z</time>
      </trkpt>
      <trkpt lat="44.92489" lon="5.41863">
        <ele>1058</ele>
        <time>2022-09-22T13:14:25.858Z</time>
      </trkpt>
      <trkpt lat="44.92491" lon="5.41864">
        <ele>1057</ele>
        <time>2022-09-22T13:14:26.857Z</time>
      </trkpt>
      <trkpt lat="44.92495" lon="5.41865">
        <ele>1057</ele>
        <time>2022-09-22T13:14:27.858Z</time>
      </trkpt>
      <trkpt lat="44.92499" lon="5.41867">
        <ele>1056</ele>
        <time>2022-09-22T13:14:28.858Z</time>
      </trkpt>
      <trkpt lat="44.92501" lon="5.41869">
        <ele>1056</ele>
        <time>2022-09-22T13:14:29.857Z</time>
      </trkpt>
      <trkpt lat="44.92505" lon="5.41872">
        <ele>1055</ele>
        <time>2022-09-22T13:14:30.858Z</time>
      </trkpt>
      <trkpt lat="44.92508" lon="5.41873">
        <ele>1054</ele>
        <time>2022-09-22T13:14:31.857Z</time>
      </trkpt>
      <trkpt lat="44.92513" lon="5.41875">
        <ele>1054</ele>
        <time>2022-09-22T13:14:32.858Z</time>
      </trkpt>
      <trkpt lat="44.92518" lon="5.41877">
        <ele>1053</ele>
        <time>2022-09-22T13:14:33.858Z</time>
      </trkpt>
      <trkpt lat="44.92522" lon="5.41878">
        <ele>1053</ele>
        <time>2022-09-22T13:14:34.858Z</time>
      </trkpt>
      <trkpt lat="44.92527" lon="5.4188">
        <ele>1052</ele>
        <time>2022-09-22T13:14:35.857Z</time>
      </trkpt>
      <trkpt lat="44.92533" lon="5.41882">
        <ele>1052</ele>
        <time>2022-09-22T13:14:36.858Z</time>
      </trkpt>
      <trkpt lat="44.92537" lon="5.41884">
        <ele>1051</ele>
        <time>2022-09-22T13:14:37.858Z</time>
      </trkpt>
      <trkpt lat="44.92543" lon="5.41885">
        <ele>1051</ele>
        <time>2022-09-22T13:14:38.857Z</time>
      </trkpt>
      <trkpt lat="44.9255" lon="5.41888">
        <ele>1050</ele>
        <time>2022-09-22T13:14:39.858Z</time>
      </trkpt>
      <trkpt lat="44.92555" lon="5.41891">
        <ele>1050</ele>
        <time>2022-09-22T13:14:40.857Z</time>
      </trkpt>
      <trkpt lat="44.9256" lon="5.41893">
        <ele>1049</ele>
        <time>2022-09-22T13:14:41.858Z</time>
      </trkpt>
      <trkpt lat="44.92565" lon="5.41897">
        <ele>1049</ele>
        <time>2022-09-22T13:14:42.858Z</time>
      </trkpt>
      <trkpt lat="44.92572" lon="5.41902">
        <ele>1048</ele>
        <time>2022-09-22T13:14:43.858Z</time>
      </trkpt>
      <trkpt lat="44.92577" lon="5.41906">
        <ele>1048</ele>
        <time>2022-09-22T13:14:44.858Z</time>
      </trkpt>
      <trkpt lat="44.92582" lon="5.41909">
        <ele>1047</ele>
        <time>2022-09-22T13:14:45.858Z</time>
      </trkpt>
      <trkpt lat="44.92588" lon="5.41912">
        <ele>1047</ele>
        <time>2022-09-22T13:14:46.857Z</time>
      </trkpt>
      <trkpt lat="44.92593" lon="5.41916">
        <ele>1046</ele>
        <time>2022-09-22T13:14:47.857Z</time>
      </trkpt>
      <trkpt lat="44.92598" lon="5.41919">
        <ele>1046</ele>
        <time>2022-09-22T13:14:48.858Z</time>
      </trkpt>
      <trkpt lat="44.92603" lon="5.4192">
        <ele>1045</ele>
        <time>2022-09-22T13:14:49.857Z</time>
      </trkpt>
      <trkpt lat="44.9261" lon="5.41922">
        <ele>1045</ele>
        <time>2022-09-22T13:14:50.857Z</time>
      </trkpt>
      <trkpt lat="44.92617" lon="5.41924">
        <ele>1044</ele>
        <time>2022-09-22T13:14:51.857Z</time>
      </trkpt>
      <trkpt lat="44.92622" lon="5.41927">
        <ele>1044</ele>
        <time>2022-09-22T13:14:52.857Z</time>
      </trkpt>
      <trkpt lat="44.92628" lon="5.4193">
        <ele>1044</ele>
        <time>2022-09-22T13:14:53.857Z</time>
      </trkpt>
      <trkpt lat="44.92635" lon="5.41934">
        <ele>1044</ele>
        <time>2022-09-22T13:14:54.858Z</time>
      </trkpt>
      <trkpt lat="44.92641" lon="5.41939">
        <ele>1043</ele>
        <time>2022-09-22T13:14:55.858Z</time>
      </trkpt>
      <trkpt lat="44.92646" lon="5.41944">
        <ele>1043</ele>
        <time>2022-09-22T13:14:56.858Z</time>
      </trkpt>
      <trkpt lat="44.92652" lon="5.4195">
        <ele>1043</ele>
        <time>2022-09-22T13:14:57.857Z</time>
      </trkpt>
      <trkpt lat="44.92657" lon="5.41955">
        <ele>1043</ele>
        <time>2022-09-22T13:14:58.857Z</time>
      </trkpt>
      <trkpt lat="44.92664" lon="5.41959">
        <ele>1043</ele>
        <time>2022-09-22T13:14:59.858Z</time>
      </trkpt>
      <trkpt lat="44.9267" lon="5.41963">
        <ele>1042</ele>
        <time>2022-09-22T13:15:00.858Z</time>
      </trkpt>
      <trkpt lat="44.92676" lon="5.41966">
        <ele>1042</ele>
        <time>2022-09-22T13:15:01.858Z</time>
      </trkpt>
      <trkpt lat="44.9268" lon="5.41969">
        <ele>1041</ele>
        <time>2022-09-22T13:15:02.857Z</time>
      </trkpt>
      <trkpt lat="44.92687" lon="5.41973">
        <ele>1041</ele>
        <time>2022-09-22T13:15:03.858Z</time>
      </trkpt>
      <trkpt lat="44.92694" lon="5.41978">
        <ele>1040</ele>
        <time>2022-09-22T13:15:04.858Z</time>
      </trkpt>
      <trkpt lat="44.927" lon="5.41982">
        <ele>1040</ele>
        <time>2022-09-22T13:15:05.857Z</time>
      </trkpt>
      <trkpt lat="44.92706" lon="5.41986">
        <ele>1040</ele>
        <time>2022-09-22T13:15:06.858Z</time>
      </trkpt>
      <trkpt lat="44.92712" lon="5.41993">
        <ele>1039</ele>
        <time>2022-09-22T13:15:07.858Z</time>
      </trkpt>
      <trkpt lat="44.92718" lon="5.41999">
        <ele>1038</ele>
        <time>2022-09-22T13:15:08.857Z</time>
      </trkpt>
      <trkpt lat="44.92723" lon="5.42006">
        <ele>1038</ele>
        <time>2022-09-22T13:15:09.858Z</time>
      </trkpt>
      <trkpt lat="44.92728" lon="5.42012">
        <ele>1037</ele>
        <time>2022-09-22T13:15:10.858Z</time>
      </trkpt>
      <trkpt lat="44.92732" lon="5.42018">
        <ele>1037</ele>
        <time>2022-09-22T13:15:11.858Z</time>
      </trkpt>
      <trkpt lat="44.92736" lon="5.42022">
        <ele>1036</ele>
        <time>2022-09-22T13:15:12.857Z</time>
      </trkpt>
      <trkpt lat="44.92741" lon="5.42027">
        <ele>1036</ele>
        <time>2022-09-22T13:15:13.857Z</time>
      </trkpt>
      <trkpt lat="44.92745" lon="5.42032">
        <ele>1035</ele>
        <time>2022-09-22T13:15:14.857Z</time>
      </trkpt>
      <trkpt lat="44.92749" lon="5.42038">
        <ele>1034</ele>
        <time>2022-09-22T13:15:15.857Z</time>
      </trkpt>
      <trkpt lat="44.92753" lon="5.42042">
        <ele>1034</ele>
        <time>2022-09-22T13:15:16.857Z</time>
      </trkpt>
      <trkpt lat="44.92757" lon="5.42047">
        <ele>1033</ele>
        <time>2022-09-22T13:15:17.857Z</time>
      </trkpt>
      <trkpt lat="44.92762" lon="5.42052">
        <ele>1033</ele>
        <time>2022-09-22T13:15:18.857Z</time>
      </trkpt>
      <trkpt lat="44.92768" lon="5.42057">
        <ele>1032</ele>
        <time>2022-09-22T13:15:19.858Z</time>
      </trkpt>
      <trkpt lat="44.92773" lon="5.4206">
        <ele>1031</ele>
        <time>2022-09-22T13:15:20.858Z</time>
      </trkpt>
      <trkpt lat="44.92777" lon="5.42064">
        <ele>1031</ele>
        <time>2022-09-22T13:15:21.857Z</time>
      </trkpt>
      <trkpt lat="44.92781" lon="5.42068">
        <ele>1030</ele>
        <time>2022-09-22T13:15:22.857Z</time>
      </trkpt>
      <trkpt lat="44.92786" lon="5.42074">
        <ele>1029</ele>
        <time>2022-09-22T13:15:23.857Z</time>
      </trkpt>
      <trkpt lat="44.92789" lon="5.42078">
        <ele>1029</ele>
        <time>2022-09-22T13:15:24.857Z</time>
      </trkpt>
      <trkpt lat="44.92794" lon="5.42082">
        <ele>1028</ele>
        <time>2022-09-22T13:15:25.857Z</time>
      </trkpt>
      <trkpt lat="44.92798" lon="5.42087">
        <ele>1027</ele>
        <time>2022-09-22T13:15:26.857Z</time>
      </trkpt>
      <trkpt lat="44.92802" lon="5.42092">
        <ele>1026</ele>
        <time>2022-09-22T13:15:27.857Z</time>
      </trkpt>
      <trkpt lat="44.92806" lon="5.42096">
        <ele>1026</ele>
        <time>2022-09-22T13:15:28.857Z</time>
      </trkpt>
      <trkpt lat="44.92811" lon="5.42102">
        <ele>1025</ele>
        <time>2022-09-22T13:15:29.858Z</time>
      </trkpt>
      <trkpt lat="44.92815" lon="5.42105">
        <ele>1025</ele>
        <time>2022-09-22T13:15:30.858Z</time>
      </trkpt>
      <trkpt lat="44.9282" lon="5.42109">
        <ele>1024</ele>
        <time>2022-09-22T13:15:31.857Z</time>
      </trkpt>
      <trkpt lat="44.92825" lon="5.42114">
        <ele>1024</ele>
        <time>2022-09-22T13:15:32.857Z</time>
      </trkpt>
      <trkpt lat="44.92829" lon="5.42117">
        <ele>1023</ele>
        <time>2022-09-22T13:15:33.857Z</time>
      </trkpt>
      <trkpt lat="44.92834" lon="5.42121">
        <ele>1023</ele>
        <time>2022-09-22T13:15:34.858Z</time>
      </trkpt>
      <trkpt lat="44.92839" lon="5.42124">
        <ele>1022</ele>
        <time>2022-09-22T13:15:35.858Z</time>
      </trkpt>
      <trkpt lat="44.92844" lon="5.42128">
        <ele>1022</ele>
        <time>2022-09-22T13:15:36.857Z</time>
      </trkpt>
      <trkpt lat="44.92848" lon="5.42132">
        <ele>1021</ele>
        <time>2022-09-22T13:15:37.858Z</time>
      </trkpt>
      <trkpt lat="44.92853" lon="5.42136">
        <ele>1020</ele>
        <time>2022-09-22T13:15:38.857Z</time>
      </trkpt>
      <trkpt lat="44.92857" lon="5.4214">
        <ele>1020</ele>
        <time>2022-09-22T13:15:39.858Z</time>
      </trkpt>
      <trkpt lat="44.92862" lon="5.42144">
        <ele>1019</ele>
        <time>2022-09-22T13:15:40.858Z</time>
      </trkpt>
      <trkpt lat="44.92867" lon="5.42148">
        <ele>1019</ele>
        <time>2022-09-22T13:15:41.857Z</time>
      </trkpt>
      <trkpt lat="44.92872" lon="5.42153">
        <ele>1018</ele>
        <time>2022-09-22T13:15:42.857Z</time>
      </trkpt>
      <trkpt lat="44.92877" lon="5.42157">
        <ele>1018</ele>
        <time>2022-09-22T13:15:43.858Z</time>
      </trkpt>
      <trkpt lat="44.92883" lon="5.42162">
        <ele>1017</ele>
        <time>2022-09-22T13:15:44.858Z</time>
      </trkpt>
      <trkpt lat="44.92887" lon="5.42166">
        <ele>1017</ele>
        <time>2022-09-22T13:15:45.857Z</time>
      </trkpt>
      <trkpt lat="44.92892" lon="5.42169">
        <ele>1016</ele>
        <time>2022-09-22T13:15:46.858Z</time>
      </trkpt>
      <trkpt lat="44.92898" lon="5.42173">
        <ele>1016</ele>
        <time>2022-09-22T13:15:47.857Z</time>
      </trkpt>
      <trkpt lat="44.92903" lon="5.42176">
        <ele>1015</ele>
        <time>2022-09-22T13:15:48.857Z</time>
      </trkpt>
      <trkpt lat="44.92909" lon="5.42179">
        <ele>1015</ele>
        <time>2022-09-22T13:15:49.858Z</time>
      </trkpt>
      <trkpt lat="44.92914" lon="5.42181">
        <ele>1015</ele>
        <time>2022-09-22T13:15:50.858Z</time>
      </trkpt>
      <trkpt lat="44.92919" lon="5.42183">
        <ele>1014</ele>
        <time>2022-09-22T13:15:51.857Z</time>
      </trkpt>
      <trkpt lat="44.92924" lon="5.42185">
        <ele>1014</ele>
        <time>2022-09-22T13:15:52.858Z</time>
      </trkpt>
      <trkpt lat="44.92927" lon="5.42188">
        <ele>1013</ele>
        <time>2022-09-22T13:15:53.857Z</time>
      </trkpt>
      <trkpt lat="44.92929" lon="5.42191">
        <ele>1013</ele>
        <time>2022-09-22T13:15:54.858Z</time>
      </trkpt>
      <trkpt lat="44.92929" lon="5.42193">
        <ele>1012</ele>
        <time>2022-09-22T13:15:55.857Z</time>
      </trkpt>
      <trkpt lat="44.92928" lon="5.42195">
        <ele>1012</ele>
        <time>2022-09-22T13:15:56.858Z</time>
      </trkpt>
      <trkpt lat="44.92927" lon="5.42196">
        <ele>1012</ele>
        <time>2022-09-22T13:15:57.857Z</time>
      </trkpt>
      <trkpt lat="44.92922" lon="5.42193">
        <ele>1012</ele>
        <time>2022-09-22T13:15:58.857Z</time>
      </trkpt>
      <trkpt lat="44.92918" lon="5.42191">
        <ele>1011</ele>
        <time>2022-09-22T13:15:59.857Z</time>
      </trkpt>
      <trkpt lat="44.92914" lon="5.42189">
        <ele>1011</ele>
        <time>2022-09-22T13:16:00.857Z</time>
      </trkpt>
      <trkpt lat="44.9291" lon="5.42187">
        <ele>1011</ele>
        <time>2022-09-22T13:16:01.857Z</time>
      </trkpt>
      <trkpt lat="44.92906" lon="5.42186">
        <ele>1010</ele>
        <time>2022-09-22T13:16:02.857Z</time>
      </trkpt>
      <trkpt lat="44.92901" lon="5.42185">
        <ele>1009</ele>
        <time>2022-09-22T13:16:03.857Z</time>
      </trkpt>
      <trkpt lat="44.92895" lon="5.42184">
        <ele>1009</ele>
        <time>2022-09-22T13:16:04.858Z</time>
      </trkpt>
      <trkpt lat="44.9289" lon="5.42183">
        <ele>1008</ele>
        <time>2022-09-22T13:16:05.858Z</time>
      </trkpt>
      <trkpt lat="44.92884" lon="5.42182">
        <ele>1008</ele>
        <time>2022-09-22T13:16:06.857Z</time>
      </trkpt>
      <trkpt lat="44.92878" lon="5.42182">
        <ele>1007</ele>
        <time>2022-09-22T13:16:07.858Z</time>
      </trkpt>
      <trkpt lat="44.92872" lon="5.42181">
        <ele>1007</ele>
        <time>2022-09-22T13:16:08.857Z</time>
      </trkpt>
      <trkpt lat="44.92867" lon="5.4218">
        <ele>1007</ele>
        <time>2022-09-22T13:16:09.857Z</time>
      </trkpt>
      <trkpt lat="44.92861" lon="5.42179">
        <ele>1006</ele>
        <time>2022-09-22T13:16:10.858Z</time>
      </trkpt>
      <trkpt lat="44.92855" lon="5.42177">
        <ele>1006</ele>
        <time>2022-09-22T13:16:11.858Z</time>
      </trkpt>
      <trkpt lat="44.92849" lon="5.42175">
        <ele>1006</ele>
        <time>2022-09-22T13:16:12.858Z</time>
      </trkpt>
      <trkpt lat="44.92843" lon="5.42172">
        <ele>1006</ele>
        <time>2022-09-22T13:16:13.858Z</time>
      </trkpt>
      <trkpt lat="44.92838" lon="5.4217">
        <ele>1006</ele>
        <time>2022-09-22T13:16:14.858Z</time>
      </trkpt>
      <trkpt lat="44.92832" lon="5.42168">
        <ele>1006</ele>
        <time>2022-09-22T13:16:15.858Z</time>
      </trkpt>
      <trkpt lat="44.92826" lon="5.42167">
        <ele>1005</ele>
        <time>2022-09-22T13:16:16.857Z</time>
      </trkpt>
      <trkpt lat="44.92819" lon="5.42165">
        <ele>1005</ele>
        <time>2022-09-22T13:16:17.858Z</time>
      </trkpt>
      <trkpt lat="44.92813" lon="5.42164">
        <ele>1004</ele>
        <time>2022-09-22T13:16:18.858Z</time>
      </trkpt>
      <trkpt lat="44.92807" lon="5.42162">
        <ele>1004</ele>
        <time>2022-09-22T13:16:19.858Z</time>
      </trkpt>
      <trkpt lat="44.928" lon="5.42159">
        <ele>1003</ele>
        <time>2022-09-22T13:16:20.858Z</time>
      </trkpt>
      <trkpt lat="44.92794" lon="5.42156">
        <ele>1002</ele>
        <time>2022-09-22T13:16:21.858Z</time>
      </trkpt>
      <trkpt lat="44.92788" lon="5.42153">
        <ele>1002</ele>
        <time>2022-09-22T13:16:22.858Z</time>
      </trkpt>
      <trkpt lat="44.92783" lon="5.42149">
        <ele>1001</ele>
        <time>2022-09-22T13:16:23.858Z</time>
      </trkpt>
      <trkpt lat="44.92777" lon="5.42145">
        <ele>1001</ele>
        <time>2022-09-22T13:16:24.857Z</time>
      </trkpt>
      <trkpt lat="44.92771" lon="5.42142">
        <ele>1001</ele>
        <time>2022-09-22T13:16:25.858Z</time>
      </trkpt>
      <trkpt lat="44.92765" lon="5.42138">
        <ele>1000</ele>
        <time>2022-09-22T13:16:26.858Z</time>
      </trkpt>
      <trkpt lat="44.92759" lon="5.42135">
        <ele>1000</ele>
        <time>2022-09-22T13:16:27.858Z</time>
      </trkpt>
      <trkpt lat="44.92753" lon="5.42133">
        <ele>1000</ele>
        <time>2022-09-22T13:16:28.858Z</time>
      </trkpt>
      <trkpt lat="44.92747" lon="5.42131">
        <ele>1000</ele>
        <time>2022-09-22T13:16:29.858Z</time>
      </trkpt>
      <trkpt lat="44.92741" lon="5.42128">
        <ele>999</ele>
        <time>2022-09-22T13:16:30.858Z</time>
      </trkpt>
      <trkpt lat="44.92736" lon="5.42125">
        <ele>998</ele>
        <time>2022-09-22T13:16:31.858Z</time>
      </trkpt>
      <trkpt lat="44.9273" lon="5.42122">
        <ele>998</ele>
        <time>2022-09-22T13:16:32.857Z</time>
      </trkpt>
      <trkpt lat="44.92725" lon="5.42119">
        <ele>997</ele>
        <time>2022-09-22T13:16:33.858Z</time>
      </trkpt>
      <trkpt lat="44.92719" lon="5.42117">
        <ele>996</ele>
        <time>2022-09-22T13:16:34.858Z</time>
      </trkpt>
      <trkpt lat="44.92713" lon="5.42115">
        <ele>995</ele>
        <time>2022-09-22T13:16:35.857Z</time>
      </trkpt>
      <trkpt lat="44.92707" lon="5.42113">
        <ele>994</ele>
        <time>2022-09-22T13:16:36.858Z</time>
      </trkpt>
      <trkpt lat="44.92701" lon="5.42111">
        <ele>993</ele>
        <time>2022-09-22T13:16:37.858Z</time>
      </trkpt>
      <trkpt lat="44.92696" lon="5.4211">
        <ele>993</ele>
        <time>2022-09-22T13:16:38.857Z</time>
      </trkpt>
      <trkpt lat="44.92691" lon="5.42108">
        <ele>992</ele>
        <time>2022-09-22T13:16:39.857Z</time>
      </trkpt>
      <trkpt lat="44.92686" lon="5.42107">
        <ele>991</ele>
        <time>2022-09-22T13:16:40.858Z</time>
      </trkpt>
      <trkpt lat="44.92682" lon="5.42105">
        <ele>991</ele>
        <time>2022-09-22T13:16:41.858Z</time>
      </trkpt>
      <trkpt lat="44.92679" lon="5.42102">
        <ele>991</ele>
        <time>2022-09-22T13:16:42.858Z</time>
      </trkpt>
      <trkpt lat="44.92676" lon="5.421">
        <ele>990</ele>
        <time>2022-09-22T13:16:43.858Z</time>
      </trkpt>
      <trkpt lat="44.92672" lon="5.42097">
        <ele>990</ele>
        <time>2022-09-22T13:16:44.857Z</time>
      </trkpt>
      <trkpt lat="44.92668" lon="5.42095">
        <ele>990</ele>
        <time>2022-09-22T13:16:45.858Z</time>
      </trkpt>
      <trkpt lat="44.92665" lon="5.42094">
        <ele>990</ele>
        <time>2022-09-22T13:16:46.857Z</time>
      </trkpt>
      <trkpt lat="44.92663" lon="5.42093">
        <ele>990</ele>
        <time>2022-09-22T13:16:47.857Z</time>
      </trkpt>
      <trkpt lat="44.92662" lon="5.42093">
        <ele>990</ele>
        <time>2022-09-22T13:16:48.858Z</time>
      </trkpt>
      <trkpt lat="44.92662" lon="5.42092">
        <ele>990</ele>
        <time>2022-09-22T13:16:49.858Z</time>
      </trkpt>
      <trkpt lat="44.92662" lon="5.42092">
        <ele>990</ele>
        <time>2022-09-22T13:16:50.858Z</time>
      </trkpt>
      <trkpt lat="44.92661" lon="5.42093">
        <ele>991</ele>
        <time>2022-09-22T13:16:51.857Z</time>
      </trkpt>
      <trkpt lat="44.92661" lon="5.42094">
        <ele>991</ele>
        <time>2022-09-22T13:16:52.858Z</time>
      </trkpt>
      <trkpt lat="44.92661" lon="5.42094">
        <ele>991</ele>
        <time>2022-09-22T13:16:53.858Z</time>
      </trkpt>
      <trkpt lat="44.92663" lon="5.42094">
        <ele>991</ele>
        <time>2022-09-22T13:16:56.963Z</time>
      </trkpt>
      <trkpt lat="44.92664" lon="5.42094">
        <ele>991</ele>
        <time>2022-09-22T13:16:57.963Z</time>
      </trkpt>
      <trkpt lat="44.92665" lon="5.42094">
        <ele>988</ele>
        <time>2022-09-22T13:19:03.831Z</time>
      </trkpt>
      <trkpt lat="44.92664" lon="5.42094">
        <ele>988</ele>
        <time>2022-09-22T13:19:04.831Z</time>
      </trkpt>
      <trkpt lat="44.92659" lon="5.42104">
        <ele>998</ele>
        <time>2022-09-22T13:20:01.749Z</time>
      </trkpt>
      <trkpt lat="44.92655" lon="5.42104">
        <ele>998</ele>
        <time>2022-09-22T13:20:02.750Z</time>
      </trkpt>
      <trkpt lat="44.9265" lon="5.42105">
        <ele>998</ele>
        <time>2022-09-22T13:20:03.749Z</time>
      </trkpt>
      <trkpt lat="44.92645" lon="5.42105">
        <ele>998</ele>
        <time>2022-09-22T13:20:04.749Z</time>
      </trkpt>
      <trkpt lat="44.9264" lon="5.42104">
        <ele>998</ele>
        <time>2022-09-22T13:20:05.749Z</time>
      </trkpt>
      <trkpt lat="44.92634" lon="5.42105">
        <ele>999</ele>
        <time>2022-09-22T13:20:06.750Z</time>
      </trkpt>
      <trkpt lat="44.92628" lon="5.42105">
        <ele>999</ele>
        <time>2022-09-22T13:20:07.749Z</time>
      </trkpt>
      <trkpt lat="44.92622" lon="5.42105">
        <ele>999</ele>
        <time>2022-09-22T13:20:08.750Z</time>
      </trkpt>
      <trkpt lat="44.92617" lon="5.42106">
        <ele>998</ele>
        <time>2022-09-22T13:20:09.749Z</time>
      </trkpt>
      <trkpt lat="44.92611" lon="5.42106">
        <ele>998</ele>
        <time>2022-09-22T13:20:10.750Z</time>
      </trkpt>
      <trkpt lat="44.92605" lon="5.42106">
        <ele>997</ele>
        <time>2022-09-22T13:20:11.749Z</time>
      </trkpt>
      <trkpt lat="44.92599" lon="5.42107">
        <ele>997</ele>
        <time>2022-09-22T13:20:12.749Z</time>
      </trkpt>
      <trkpt lat="44.92593" lon="5.42108">
        <ele>996</ele>
        <time>2022-09-22T13:20:13.749Z</time>
      </trkpt>
      <trkpt lat="44.92587" lon="5.42109">
        <ele>996</ele>
        <time>2022-09-22T13:20:14.749Z</time>
      </trkpt>
      <trkpt lat="44.92581" lon="5.4211">
        <ele>995</ele>
        <time>2022-09-22T13:20:15.749Z</time>
      </trkpt>
      <trkpt lat="44.92575" lon="5.42111">
        <ele>994</ele>
        <time>2022-09-22T13:20:16.749Z</time>
      </trkpt>
      <trkpt lat="44.92569" lon="5.42112">
        <ele>993</ele>
        <time>2022-09-22T13:20:17.749Z</time>
      </trkpt>
      <trkpt lat="44.92563" lon="5.42112">
        <ele>992</ele>
        <time>2022-09-22T13:20:18.749Z</time>
      </trkpt>
      <trkpt lat="44.92557" lon="5.42113">
        <ele>992</ele>
        <time>2022-09-22T13:20:19.749Z</time>
      </trkpt>
      <trkpt lat="44.92551" lon="5.42113">
        <ele>991</ele>
        <time>2022-09-22T13:20:20.749Z</time>
      </trkpt>
      <trkpt lat="44.92545" lon="5.42113">
        <ele>990</ele>
        <time>2022-09-22T13:20:21.749Z</time>
      </trkpt>
      <trkpt lat="44.92539" lon="5.42112">
        <ele>990</ele>
        <time>2022-09-22T13:20:22.750Z</time>
      </trkpt>
      <trkpt lat="44.92532" lon="5.42111">
        <ele>990</ele>
        <time>2022-09-22T13:20:23.749Z</time>
      </trkpt>
      <trkpt lat="44.92527" lon="5.42111">
        <ele>989</ele>
        <time>2022-09-22T13:20:24.750Z</time>
      </trkpt>
      <trkpt lat="44.92519" lon="5.42111">
        <ele>989</ele>
        <time>2022-09-22T13:20:25.750Z</time>
      </trkpt>
      <trkpt lat="44.92512" lon="5.42111">
        <ele>989</ele>
        <time>2022-09-22T13:20:26.750Z</time>
      </trkpt>
      <trkpt lat="44.92505" lon="5.42111">
        <ele>989</ele>
        <time>2022-09-22T13:20:27.750Z</time>
      </trkpt>
      <trkpt lat="44.92498" lon="5.42111">
        <ele>989</ele>
        <time>2022-09-22T13:20:28.749Z</time>
      </trkpt>
      <trkpt lat="44.92493" lon="5.42112">
        <ele>988</ele>
        <time>2022-09-22T13:20:29.750Z</time>
      </trkpt>
      <trkpt lat="44.92485" lon="5.42112">
        <ele>988</ele>
        <time>2022-09-22T13:20:30.750Z</time>
      </trkpt>
      <trkpt lat="44.92477" lon="5.42114">
        <ele>988</ele>
        <time>2022-09-22T13:20:31.749Z</time>
      </trkpt>
      <trkpt lat="44.92471" lon="5.42115">
        <ele>987</ele>
        <time>2022-09-22T13:20:32.749Z</time>
      </trkpt>
      <trkpt lat="44.92466" lon="5.42118">
        <ele>987</ele>
        <time>2022-09-22T13:20:33.749Z</time>
      </trkpt>
      <trkpt lat="44.92459" lon="5.4212">
        <ele>986</ele>
        <time>2022-09-22T13:20:34.750Z</time>
      </trkpt>
      <trkpt lat="44.92453" lon="5.42123">
        <ele>985</ele>
        <time>2022-09-22T13:20:35.750Z</time>
      </trkpt>
      <trkpt lat="44.92447" lon="5.42125">
        <ele>984</ele>
        <time>2022-09-22T13:20:36.750Z</time>
      </trkpt>
      <trkpt lat="44.92441" lon="5.42127">
        <ele>983</ele>
        <time>2022-09-22T13:20:37.749Z</time>
      </trkpt>
      <trkpt lat="44.92436" lon="5.42128">
        <ele>983</ele>
        <time>2022-09-22T13:20:38.750Z</time>
      </trkpt>
      <trkpt lat="44.92429" lon="5.42129">
        <ele>982</ele>
        <time>2022-09-22T13:20:39.749Z</time>
      </trkpt>
      <trkpt lat="44.92422" lon="5.4213">
        <ele>982</ele>
        <time>2022-09-22T13:20:40.750Z</time>
      </trkpt>
      <trkpt lat="44.92415" lon="5.42133">
        <ele>982</ele>
        <time>2022-09-22T13:20:41.750Z</time>
      </trkpt>
      <trkpt lat="44.92409" lon="5.42136">
        <ele>981</ele>
        <time>2022-09-22T13:20:42.749Z</time>
      </trkpt>
      <trkpt lat="44.92404" lon="5.42139">
        <ele>980</ele>
        <time>2022-09-22T13:20:43.750Z</time>
      </trkpt>
      <trkpt lat="44.92397" lon="5.42144">
        <ele>980</ele>
        <time>2022-09-22T13:20:44.750Z</time>
      </trkpt>
      <trkpt lat="44.92391" lon="5.42148">
        <ele>979</ele>
        <time>2022-09-22T13:20:45.750Z</time>
      </trkpt>
      <trkpt lat="44.92384" lon="5.42151">
        <ele>978</ele>
        <time>2022-09-22T13:20:46.750Z</time>
      </trkpt>
      <trkpt lat="44.92377" lon="5.42153">
        <ele>978</ele>
        <time>2022-09-22T13:20:47.750Z</time>
      </trkpt>
      <trkpt lat="44.9237" lon="5.42154">
        <ele>977</ele>
        <time>2022-09-22T13:20:48.749Z</time>
      </trkpt>
      <trkpt lat="44.92363" lon="5.42154">
        <ele>976</ele>
        <time>2022-09-22T13:20:49.750Z</time>
      </trkpt>
      <trkpt lat="44.92356" lon="5.42153">
        <ele>975</ele>
        <time>2022-09-22T13:20:50.750Z</time>
      </trkpt>
      <trkpt lat="44.92349" lon="5.42153">
        <ele>975</ele>
        <time>2022-09-22T13:20:51.750Z</time>
      </trkpt>
      <trkpt lat="44.92343" lon="5.42154">
        <ele>974</ele>
        <time>2022-09-22T13:20:52.749Z</time>
      </trkpt>
      <trkpt lat="44.92336" lon="5.42156">
        <ele>973</ele>
        <time>2022-09-22T13:20:53.749Z</time>
      </trkpt>
      <trkpt lat="44.92328" lon="5.42157">
        <ele>973</ele>
        <time>2022-09-22T13:20:54.750Z</time>
      </trkpt>
      <trkpt lat="44.92321" lon="5.42159">
        <ele>972</ele>
        <time>2022-09-22T13:20:55.749Z</time>
      </trkpt>
      <trkpt lat="44.92315" lon="5.42163">
        <ele>971</ele>
        <time>2022-09-22T13:20:56.750Z</time>
      </trkpt>
      <trkpt lat="44.92311" lon="5.42165">
        <ele>970</ele>
        <time>2022-09-22T13:20:57.749Z</time>
      </trkpt>
      <trkpt lat="44.92304" lon="5.42167">
        <ele>968</ele>
        <time>2022-09-22T13:20:58.749Z</time>
      </trkpt>
      <trkpt lat="44.92298" lon="5.4217">
        <ele>967</ele>
        <time>2022-09-22T13:20:59.750Z</time>
      </trkpt>
      <trkpt lat="44.92293" lon="5.42173">
        <ele>966</ele>
        <time>2022-09-22T13:21:00.750Z</time>
      </trkpt>
      <trkpt lat="44.92289" lon="5.42176">
        <ele>965</ele>
        <time>2022-09-22T13:21:01.749Z</time>
      </trkpt>
      <trkpt lat="44.92285" lon="5.42179">
        <ele>964</ele>
        <time>2022-09-22T13:21:02.749Z</time>
      </trkpt>
      <trkpt lat="44.92282" lon="5.42183">
        <ele>963</ele>
        <time>2022-09-22T13:21:03.750Z</time>
      </trkpt>
      <trkpt lat="44.9228" lon="5.42186">
        <ele>962</ele>
        <time>2022-09-22T13:21:04.750Z</time>
      </trkpt>
      <trkpt lat="44.92279" lon="5.42189">
        <ele>961</ele>
        <time>2022-09-22T13:21:05.750Z</time>
      </trkpt>
      <trkpt lat="44.92279" lon="5.42188">
        <ele>960</ele>
        <time>2022-09-22T13:21:06.750Z</time>
      </trkpt>
      <trkpt lat="44.92279" lon="5.42188">
        <ele>959</ele>
        <time>2022-09-22T13:21:07.750Z</time>
      </trkpt>
      <trkpt lat="44.92279" lon="5.42188">
        <ele>958</ele>
        <time>2022-09-22T13:21:08.749Z</time>
      </trkpt>
      <trkpt lat="44.92279" lon="5.42188">
        <ele>957</ele>
        <time>2022-09-22T13:21:09.750Z</time>
      </trkpt>
      <trkpt lat="44.92282" lon="5.4219">
        <ele>954</ele>
        <time>2022-09-22T13:21:16.877Z</time>
      </trkpt>
      <trkpt lat="44.92282" lon="5.4219">
        <ele>954</ele>
        <time>2022-09-22T13:21:17.877Z</time>
      </trkpt>
      <trkpt lat="44.92281" lon="5.42192">
        <ele>954</ele>
        <time>2022-09-22T13:21:18.876Z</time>
      </trkpt>
      <trkpt lat="44.92281" lon="5.42192">
        <ele>953</ele>
        <time>2022-09-22T13:21:19.876Z</time>
      </trkpt>
      <trkpt lat="44.92281" lon="5.42192">
        <ele>952</ele>
        <time>2022-09-22T13:21:20.877Z</time>
      </trkpt>
      <trkpt lat="44.92276" lon="5.42193">
        <ele>950</ele>
        <time>2022-09-22T13:22:50.983Z</time>
      </trkpt>
      <trkpt lat="44.92273" lon="5.42195">
        <ele>950</ele>
        <time>2022-09-22T13:22:51.983Z</time>
      </trkpt>
      <trkpt lat="44.92269" lon="5.42196">
        <ele>950</ele>
        <time>2022-09-22T13:22:52.982Z</time>
      </trkpt>
      <trkpt lat="44.92265" lon="5.42198">
        <ele>950</ele>
        <time>2022-09-22T13:22:53.982Z</time>
      </trkpt>
      <trkpt lat="44.9226" lon="5.422">
        <ele>951</ele>
        <time>2022-09-22T13:22:54.983Z</time>
      </trkpt>
      <trkpt lat="44.92255" lon="5.42201">
        <ele>950</ele>
        <time>2022-09-22T13:22:55.982Z</time>
      </trkpt>
      <trkpt lat="44.9225" lon="5.42203">
        <ele>950</ele>
        <time>2022-09-22T13:22:56.983Z</time>
      </trkpt>
      <trkpt lat="44.92243" lon="5.42204">
        <ele>949</ele>
        <time>2022-09-22T13:22:57.982Z</time>
      </trkpt>
      <trkpt lat="44.92239" lon="5.42204">
        <ele>949</ele>
        <time>2022-09-22T13:22:58.983Z</time>
      </trkpt>
      <trkpt lat="44.92234" lon="5.42205">
        <ele>948</ele>
        <time>2022-09-22T13:22:59.983Z</time>
      </trkpt>
      <trkpt lat="44.92228" lon="5.42207">
        <ele>948</ele>
        <time>2022-09-22T13:23:00.983Z</time>
      </trkpt>
      <trkpt lat="44.92223" lon="5.42208">
        <ele>948</ele>
        <time>2022-09-22T13:23:01.983Z</time>
      </trkpt>
      <trkpt lat="44.92217" lon="5.42211">
        <ele>948</ele>
        <time>2022-09-22T13:23:02.982Z</time>
      </trkpt>
      <trkpt lat="44.92212" lon="5.42213">
        <ele>948</ele>
        <time>2022-09-22T13:23:03.983Z</time>
      </trkpt>
      <trkpt lat="44.92206" lon="5.42216">
        <ele>947</ele>
        <time>2022-09-22T13:23:04.982Z</time>
      </trkpt>
      <trkpt lat="44.922" lon="5.42217">
        <ele>946</ele>
        <time>2022-09-22T13:23:05.983Z</time>
      </trkpt>
      <trkpt lat="44.92194" lon="5.42218">
        <ele>946</ele>
        <time>2022-09-22T13:23:06.983Z</time>
      </trkpt>
      <trkpt lat="44.92186" lon="5.42219">
        <ele>946</ele>
        <time>2022-09-22T13:23:07.983Z</time>
      </trkpt>
      <trkpt lat="44.92179" lon="5.42219">
        <ele>945</ele>
        <time>2022-09-22T13:23:08.983Z</time>
      </trkpt>
      <trkpt lat="44.92171" lon="5.42219">
        <ele>944</ele>
        <time>2022-09-22T13:23:09.983Z</time>
      </trkpt>
      <trkpt lat="44.92163" lon="5.4222">
        <ele>943</ele>
        <time>2022-09-22T13:23:10.983Z</time>
      </trkpt>
      <trkpt lat="44.92155" lon="5.42221">
        <ele>943</ele>
        <time>2022-09-22T13:23:11.982Z</time>
      </trkpt>
      <trkpt lat="44.92147" lon="5.42223">
        <ele>942</ele>
        <time>2022-09-22T13:23:12.983Z</time>
      </trkpt>
      <trkpt lat="44.9214" lon="5.42225">
        <ele>942</ele>
        <time>2022-09-22T13:23:13.982Z</time>
      </trkpt>
      <trkpt lat="44.92132" lon="5.42226">
        <ele>941</ele>
        <time>2022-09-22T13:23:14.983Z</time>
      </trkpt>
      <trkpt lat="44.92125" lon="5.42228">
        <ele>940</ele>
        <time>2022-09-22T13:23:15.983Z</time>
      </trkpt>
      <trkpt lat="44.92117" lon="5.42229">
        <ele>940</ele>
        <time>2022-09-22T13:23:16.982Z</time>
      </trkpt>
      <trkpt lat="44.9211" lon="5.42231">
        <ele>939</ele>
        <time>2022-09-22T13:23:17.983Z</time>
      </trkpt>
      <trkpt lat="44.92102" lon="5.42233">
        <ele>938</ele>
        <time>2022-09-22T13:23:18.983Z</time>
      </trkpt>
      <trkpt lat="44.92095" lon="5.42236">
        <ele>938</ele>
        <time>2022-09-22T13:23:19.983Z</time>
      </trkpt>
      <trkpt lat="44.92088" lon="5.42238">
        <ele>937</ele>
        <time>2022-09-22T13:23:20.983Z</time>
      </trkpt>
      <trkpt lat="44.9208" lon="5.42241">
        <ele>937</ele>
        <time>2022-09-22T13:23:21.983Z</time>
      </trkpt>
      <trkpt lat="44.92073" lon="5.42244">
        <ele>936</ele>
        <time>2022-09-22T13:23:22.982Z</time>
      </trkpt>
      <trkpt lat="44.92066" lon="5.42247">
        <ele>936</ele>
        <time>2022-09-22T13:23:23.982Z</time>
      </trkpt>
      <trkpt lat="44.9206" lon="5.42251">
        <ele>935</ele>
        <time>2022-09-22T13:23:24.983Z</time>
      </trkpt>
      <trkpt lat="44.92053" lon="5.42254">
        <ele>935</ele>
        <time>2022-09-22T13:23:25.983Z</time>
      </trkpt>
      <trkpt lat="44.92046" lon="5.42258">
        <ele>934</ele>
        <time>2022-09-22T13:23:26.982Z</time>
      </trkpt>
      <trkpt lat="44.9204" lon="5.42261">
        <ele>934</ele>
        <time>2022-09-22T13:23:27.982Z</time>
      </trkpt>
      <trkpt lat="44.92033" lon="5.42265">
        <ele>933</ele>
        <time>2022-09-22T13:23:28.983Z</time>
      </trkpt>
      <trkpt lat="44.92026" lon="5.42269">
        <ele>933</ele>
        <time>2022-09-22T13:23:29.982Z</time>
      </trkpt>
      <trkpt lat="44.9202" lon="5.42272">
        <ele>932</ele>
        <time>2022-09-22T13:23:30.982Z</time>
      </trkpt>
      <trkpt lat="44.92014" lon="5.42275">
        <ele>931</ele>
        <time>2022-09-22T13:23:31.983Z</time>
      </trkpt>
      <trkpt lat="44.92009" lon="5.42279">
        <ele>931</ele>
        <time>2022-09-22T13:23:32.983Z</time>
      </trkpt>
      <trkpt lat="44.92005" lon="5.42282">
        <ele>931</ele>
        <time>2022-09-22T13:23:33.983Z</time>
      </trkpt>
      <trkpt lat="44.92003" lon="5.42286">
        <ele>931</ele>
        <time>2022-09-22T13:23:34.982Z</time>
      </trkpt>
      <trkpt lat="44.92002" lon="5.4229">
        <ele>930</ele>
        <time>2022-09-22T13:23:35.983Z</time>
      </trkpt>
      <trkpt lat="44.92004" lon="5.42294">
        <ele>930</ele>
        <time>2022-09-22T13:23:36.983Z</time>
      </trkpt>
      <trkpt lat="44.92008" lon="5.42296">
        <ele>929</ele>
        <time>2022-09-22T13:23:37.982Z</time>
      </trkpt>
      <trkpt lat="44.92012" lon="5.42299">
        <ele>929</ele>
        <time>2022-09-22T13:23:38.983Z</time>
      </trkpt>
      <trkpt lat="44.92019" lon="5.423">
        <ele>929</ele>
        <time>2022-09-22T13:23:39.983Z</time>
      </trkpt>
      <trkpt lat="44.92025" lon="5.42302">
        <ele>928</ele>
        <time>2022-09-22T13:23:40.983Z</time>
      </trkpt>
      <trkpt lat="44.92031" lon="5.42303">
        <ele>928</ele>
        <time>2022-09-22T13:23:41.983Z</time>
      </trkpt>
      <trkpt lat="44.92038" lon="5.42305">
        <ele>927</ele>
        <time>2022-09-22T13:23:42.983Z</time>
      </trkpt>
      <trkpt lat="44.92045" lon="5.42306">
        <ele>927</ele>
        <time>2022-09-22T13:23:43.983Z</time>
      </trkpt>
      <trkpt lat="44.92051" lon="5.42308">
        <ele>926</ele>
        <time>2022-09-22T13:23:44.982Z</time>
      </trkpt>
      <trkpt lat="44.92058" lon="5.4231">
        <ele>925</ele>
        <time>2022-09-22T13:23:45.982Z</time>
      </trkpt>
      <trkpt lat="44.92065" lon="5.42312">
        <ele>924</ele>
        <time>2022-09-22T13:23:46.983Z</time>
      </trkpt>
      <trkpt lat="44.92072" lon="5.42314">
        <ele>924</ele>
        <time>2022-09-22T13:23:47.983Z</time>
      </trkpt>
      <trkpt lat="44.92079" lon="5.42317">
        <ele>923</ele>
        <time>2022-09-22T13:23:48.983Z</time>
      </trkpt>
      <trkpt lat="44.92086" lon="5.42321">
        <ele>922</ele>
        <time>2022-09-22T13:23:49.983Z</time>
      </trkpt>
      <trkpt lat="44.92092" lon="5.42326">
        <ele>922</ele>
        <time>2022-09-22T13:23:50.983Z</time>
      </trkpt>
      <trkpt lat="44.92098" lon="5.42332">
        <ele>921</ele>
        <time>2022-09-22T13:23:51.983Z</time>
      </trkpt>
      <trkpt lat="44.92102" lon="5.42339">
        <ele>920</ele>
        <time>2022-09-22T13:23:52.983Z</time>
      </trkpt>
      <trkpt lat="44.92106" lon="5.42347">
        <ele>920</ele>
        <time>2022-09-22T13:23:53.983Z</time>
      </trkpt>
      <trkpt lat="44.9211" lon="5.42355">
        <ele>919</ele>
        <time>2022-09-22T13:23:54.983Z</time>
      </trkpt>
      <trkpt lat="44.92114" lon="5.42362">
        <ele>918</ele>
        <time>2022-09-22T13:23:55.983Z</time>
      </trkpt>
      <trkpt lat="44.92118" lon="5.4237">
        <ele>917</ele>
        <time>2022-09-22T13:23:56.983Z</time>
      </trkpt>
      <trkpt lat="44.92123" lon="5.42378">
        <ele>917</ele>
        <time>2022-09-22T13:23:57.983Z</time>
      </trkpt>
      <trkpt lat="44.92128" lon="5.42385">
        <ele>916</ele>
        <time>2022-09-22T13:23:58.983Z</time>
      </trkpt>
      <trkpt lat="44.92133" lon="5.42393">
        <ele>915</ele>
        <time>2022-09-22T13:23:59.983Z</time>
      </trkpt>
      <trkpt lat="44.92139" lon="5.42399">
        <ele>915</ele>
        <time>2022-09-22T13:24:00.982Z</time>
      </trkpt>
      <trkpt lat="44.92145" lon="5.42404">
        <ele>914</ele>
        <time>2022-09-22T13:24:01.983Z</time>
      </trkpt>
      <trkpt lat="44.92152" lon="5.42409">
        <ele>914</ele>
        <time>2022-09-22T13:24:02.983Z</time>
      </trkpt>
      <trkpt lat="44.92158" lon="5.42413">
        <ele>913</ele>
        <time>2022-09-22T13:24:03.983Z</time>
      </trkpt>
      <trkpt lat="44.92163" lon="5.42417">
        <ele>913</ele>
        <time>2022-09-22T13:24:04.982Z</time>
      </trkpt>
      <trkpt lat="44.92168" lon="5.4242">
        <ele>912</ele>
        <time>2022-09-22T13:24:05.983Z</time>
      </trkpt>
      <trkpt lat="44.92171" lon="5.42422">
        <ele>912</ele>
        <time>2022-09-22T13:24:06.982Z</time>
      </trkpt>
      <trkpt lat="44.92174" lon="5.42425">
        <ele>912</ele>
        <time>2022-09-22T13:24:07.982Z</time>
      </trkpt>
      <trkpt lat="44.92175" lon="5.42428">
        <ele>911</ele>
        <time>2022-09-22T13:24:08.983Z</time>
      </trkpt>
      <trkpt lat="44.92177" lon="5.42432">
        <ele>910</ele>
        <time>2022-09-22T13:24:09.983Z</time>
      </trkpt>
      <trkpt lat="44.92178" lon="5.42438">
        <ele>910</ele>
        <time>2022-09-22T13:24:10.983Z</time>
      </trkpt>
      <trkpt lat="44.92178" lon="5.42441">
        <ele>909</ele>
        <time>2022-09-22T13:24:11.982Z</time>
      </trkpt>
      <trkpt lat="44.9218" lon="5.42445">
        <ele>909</ele>
        <time>2022-09-22T13:24:12.983Z</time>
      </trkpt>
      <trkpt lat="44.9218" lon="5.42446">
        <ele>909</ele>
        <time>2022-09-22T13:24:13.983Z</time>
      </trkpt>
      <trkpt lat="44.92181" lon="5.42447">
        <ele>908</ele>
        <time>2022-09-22T13:24:14.982Z</time>
      </trkpt>
      <trkpt lat="44.92182" lon="5.42447">
        <ele>908</ele>
        <time>2022-09-22T13:24:15.982Z</time>
      </trkpt>
      <trkpt lat="44.92181" lon="5.42446">
        <ele>907</ele>
        <time>2022-09-22T13:24:16.982Z</time>
      </trkpt>
      <trkpt lat="44.92181" lon="5.42447">
        <ele>907</ele>
        <time>2022-09-22T13:24:17.982Z</time>
      </trkpt>
      <trkpt lat="44.92179" lon="5.42445">
        <ele>905</ele>
        <time>2022-09-22T13:24:22.984Z</time>
      </trkpt>
      <trkpt lat="44.92179" lon="5.42443">
        <ele>905</ele>
        <time>2022-09-22T13:24:23.984Z</time>
      </trkpt>
      <trkpt lat="44.92179" lon="5.42442">
        <ele>905</ele>
        <time>2022-09-22T13:24:24.983Z</time>
      </trkpt>
      <trkpt lat="44.92178" lon="5.42441">
        <ele>904</ele>
        <time>2022-09-22T13:24:25.984Z</time>
      </trkpt>
      <trkpt lat="44.92177" lon="5.42441">
        <ele>903</ele>
        <time>2022-09-22T13:24:26.983Z</time>
      </trkpt>
      <trkpt lat="44.92177" lon="5.4244">
        <ele>902</ele>
        <time>2022-09-22T13:24:27.984Z</time>
      </trkpt>
      <trkpt lat="44.92177" lon="5.4244">
        <ele>901</ele>
        <time>2022-09-22T13:24:28.984Z</time>
      </trkpt>
      <trkpt lat="44.92181" lon="5.42441">
        <ele>902</ele>
        <time>2022-09-22T13:25:46.114Z</time>
      </trkpt>
      <trkpt lat="44.92182" lon="5.42441">
        <ele>902</ele>
        <time>2022-09-22T13:25:47.113Z</time>
      </trkpt>
      <trkpt lat="44.92183" lon="5.42442">
        <ele>902</ele>
        <time>2022-09-22T13:25:48.113Z</time>
      </trkpt>
      <trkpt lat="44.92183" lon="5.42442">
        <ele>902</ele>
        <time>2022-09-22T13:25:49.114Z</time>
      </trkpt>
      <trkpt lat="44.92184" lon="5.42442">
        <ele>902</ele>
        <time>2022-09-22T13:25:50.114Z</time>
      </trkpt>
      <trkpt lat="44.92186" lon="5.42442">
        <ele>902</ele>
        <time>2022-09-22T13:25:51.114Z</time>
      </trkpt>
      <trkpt lat="44.92188" lon="5.42442">
        <ele>903</ele>
        <time>2022-09-22T13:25:52.114Z</time>
      </trkpt>
      <trkpt lat="44.92192" lon="5.42443">
        <ele>903</ele>
        <time>2022-09-22T13:25:53.114Z</time>
      </trkpt>
      <trkpt lat="44.92194" lon="5.42444">
        <ele>903</ele>
        <time>2022-09-22T13:25:54.114Z</time>
      </trkpt>
      <trkpt lat="44.92198" lon="5.42445">
        <ele>903</ele>
        <time>2022-09-22T13:25:55.114Z</time>
      </trkpt>
      <trkpt lat="44.92202" lon="5.42447">
        <ele>904</ele>
        <time>2022-09-22T13:25:56.114Z</time>
      </trkpt>
      <trkpt lat="44.92205" lon="5.42448">
        <ele>903</ele>
        <time>2022-09-22T13:25:57.114Z</time>
      </trkpt>
      <trkpt lat="44.9221" lon="5.42451">
        <ele>903</ele>
        <time>2022-09-22T13:25:58.114Z</time>
      </trkpt>
      <trkpt lat="44.92216" lon="5.42454">
        <ele>903</ele>
        <time>2022-09-22T13:25:59.113Z</time>
      </trkpt>
      <trkpt lat="44.92221" lon="5.42458">
        <ele>902</ele>
        <time>2022-09-22T13:26:00.113Z</time>
      </trkpt>
      <trkpt lat="44.92228" lon="5.42462">
        <ele>901</ele>
        <time>2022-09-22T13:26:01.114Z</time>
      </trkpt>
      <trkpt lat="44.92233" lon="5.42466">
        <ele>901</ele>
        <time>2022-09-22T13:26:02.113Z</time>
      </trkpt>
      <trkpt lat="44.92242" lon="5.42471">
        <ele>900</ele>
        <time>2022-09-22T13:26:03.114Z</time>
      </trkpt>
      <trkpt lat="44.9225" lon="5.42475">
        <ele>899</ele>
        <time>2022-09-22T13:26:04.114Z</time>
      </trkpt>
      <trkpt lat="44.92258" lon="5.42478">
        <ele>899</ele>
        <time>2022-09-22T13:26:05.114Z</time>
      </trkpt>
      <trkpt lat="44.92267" lon="5.42482">
        <ele>898</ele>
        <time>2022-09-22T13:26:06.114Z</time>
      </trkpt>
      <trkpt lat="44.92277" lon="5.42485">
        <ele>897</ele>
        <time>2022-09-22T13:26:07.114Z</time>
      </trkpt>
      <trkpt lat="44.92289" lon="5.42488">
        <ele>897</ele>
        <time>2022-09-22T13:26:08.114Z</time>
      </trkpt>
      <trkpt lat="44.92301" lon="5.4249">
        <ele>896</ele>
        <time>2022-09-22T13:26:09.114Z</time>
      </trkpt>
      <trkpt lat="44.92312" lon="5.42494">
        <ele>895</ele>
        <time>2022-09-22T13:26:10.114Z</time>
      </trkpt>
      <trkpt lat="44.9232" lon="5.42496">
        <ele>894</ele>
        <time>2022-09-22T13:26:11.113Z</time>
      </trkpt>
      <trkpt lat="44.92331" lon="5.42498">
        <ele>893</ele>
        <time>2022-09-22T13:26:12.114Z</time>
      </trkpt>
      <trkpt lat="44.92341" lon="5.42499">
        <ele>892</ele>
        <time>2022-09-22T13:26:13.114Z</time>
      </trkpt>
      <trkpt lat="44.9235" lon="5.42498">
        <ele>891</ele>
        <time>2022-09-22T13:26:14.114Z</time>
      </trkpt>
      <trkpt lat="44.9236" lon="5.42495">
        <ele>891</ele>
        <time>2022-09-22T13:26:15.114Z</time>
      </trkpt>
      <trkpt lat="44.92371" lon="5.42493">
        <ele>890</ele>
        <time>2022-09-22T13:26:16.113Z</time>
      </trkpt>
      <trkpt lat="44.92383" lon="5.42489">
        <ele>888</ele>
        <time>2022-09-22T13:26:17.114Z</time>
      </trkpt>
      <trkpt lat="44.92393" lon="5.42486">
        <ele>887</ele>
        <time>2022-09-22T13:26:18.113Z</time>
      </trkpt>
      <trkpt lat="44.92406" lon="5.42484">
        <ele>886</ele>
        <time>2022-09-22T13:26:19.114Z</time>
      </trkpt>
      <trkpt lat="44.92414" lon="5.42483">
        <ele>885</ele>
        <time>2022-09-22T13:26:20.114Z</time>
      </trkpt>
      <trkpt lat="44.92424" lon="5.42482">
        <ele>884</ele>
        <time>2022-09-22T13:26:21.114Z</time>
      </trkpt>
      <trkpt lat="44.92434" lon="5.42483">
        <ele>884</ele>
        <time>2022-09-22T13:26:22.113Z</time>
      </trkpt>
      <trkpt lat="44.92443" lon="5.42483">
        <ele>883</ele>
        <time>2022-09-22T13:26:23.114Z</time>
      </trkpt>
      <trkpt lat="44.92451" lon="5.42484">
        <ele>882</ele>
        <time>2022-09-22T13:26:24.114Z</time>
      </trkpt>
      <trkpt lat="44.9246" lon="5.42484">
        <ele>881</ele>
        <time>2022-09-22T13:26:25.113Z</time>
      </trkpt>
      <trkpt lat="44.9247" lon="5.42483">
        <ele>881</ele>
        <time>2022-09-22T13:26:26.114Z</time>
      </trkpt>
      <trkpt lat="44.92479" lon="5.42481">
        <ele>880</ele>
        <time>2022-09-22T13:26:27.114Z</time>
      </trkpt>
      <trkpt lat="44.92489" lon="5.42478">
        <ele>879</ele>
        <time>2022-09-22T13:26:28.114Z</time>
      </trkpt>
      <trkpt lat="44.92498" lon="5.42476">
        <ele>878</ele>
        <time>2022-09-22T13:26:29.114Z</time>
      </trkpt>
      <trkpt lat="44.92507" lon="5.42474">
        <ele>876</ele>
        <time>2022-09-22T13:26:30.113Z</time>
      </trkpt>
      <trkpt lat="44.92517" lon="5.42475">
        <ele>875</ele>
        <time>2022-09-22T13:26:31.114Z</time>
      </trkpt>
      <trkpt lat="44.92526" lon="5.42478">
        <ele>874</ele>
        <time>2022-09-22T13:26:32.113Z</time>
      </trkpt>
      <trkpt lat="44.92535" lon="5.42482">
        <ele>872</ele>
        <time>2022-09-22T13:26:33.114Z</time>
      </trkpt>
      <trkpt lat="44.92543" lon="5.42486">
        <ele>871</ele>
        <time>2022-09-22T13:26:34.114Z</time>
      </trkpt>
      <trkpt lat="44.92552" lon="5.42488">
        <ele>870</ele>
        <time>2022-09-22T13:26:35.114Z</time>
      </trkpt>
      <trkpt lat="44.92561" lon="5.42489">
        <ele>869</ele>
        <time>2022-09-22T13:26:36.114Z</time>
      </trkpt>
      <trkpt lat="44.9257" lon="5.42489">
        <ele>868</ele>
        <time>2022-09-22T13:26:37.114Z</time>
      </trkpt>
      <trkpt lat="44.9258" lon="5.4249">
        <ele>867</ele>
        <time>2022-09-22T13:26:38.113Z</time>
      </trkpt>
      <trkpt lat="44.9259" lon="5.42492">
        <ele>866</ele>
        <time>2022-09-22T13:26:39.113Z</time>
      </trkpt>
      <trkpt lat="44.926" lon="5.42494">
        <ele>865</ele>
        <time>2022-09-22T13:26:40.114Z</time>
      </trkpt>
      <trkpt lat="44.9261" lon="5.42497">
        <ele>865</ele>
        <time>2022-09-22T13:26:41.114Z</time>
      </trkpt>
      <trkpt lat="44.9262" lon="5.42499">
        <ele>863</ele>
        <time>2022-09-22T13:26:42.114Z</time>
      </trkpt>
      <trkpt lat="44.92631" lon="5.425">
        <ele>862</ele>
        <time>2022-09-22T13:26:43.114Z</time>
      </trkpt>
      <trkpt lat="44.92641" lon="5.425">
        <ele>861</ele>
        <time>2022-09-22T13:26:44.113Z</time>
      </trkpt>
      <trkpt lat="44.92651" lon="5.42498">
        <ele>860</ele>
        <time>2022-09-22T13:26:45.114Z</time>
      </trkpt>
      <trkpt lat="44.92662" lon="5.42495">
        <ele>859</ele>
        <time>2022-09-22T13:26:46.114Z</time>
      </trkpt>
      <trkpt lat="44.92672" lon="5.42492">
        <ele>858</ele>
        <time>2022-09-22T13:26:47.114Z</time>
      </trkpt>
      <trkpt lat="44.92683" lon="5.42492">
        <ele>857</ele>
        <time>2022-09-22T13:26:48.114Z</time>
      </trkpt>
      <trkpt lat="44.92693" lon="5.42493">
        <ele>856</ele>
        <time>2022-09-22T13:26:49.113Z</time>
      </trkpt>
      <trkpt lat="44.92704" lon="5.42495">
        <ele>855</ele>
        <time>2022-09-22T13:26:50.114Z</time>
      </trkpt>
      <trkpt lat="44.92714" lon="5.42498">
        <ele>854</ele>
        <time>2022-09-22T13:26:51.113Z</time>
      </trkpt>
      <trkpt lat="44.92724" lon="5.42502">
        <ele>853</ele>
        <time>2022-09-22T13:26:52.114Z</time>
      </trkpt>
      <trkpt lat="44.92734" lon="5.42508">
        <ele>853</ele>
        <time>2022-09-22T13:26:53.114Z</time>
      </trkpt>
      <trkpt lat="44.92744" lon="5.42514">
        <ele>852</ele>
        <time>2022-09-22T13:26:54.114Z</time>
      </trkpt>
      <trkpt lat="44.92754" lon="5.42521">
        <ele>851</ele>
        <time>2022-09-22T13:26:55.114Z</time>
      </trkpt>
      <trkpt lat="44.92764" lon="5.42529">
        <ele>850</ele>
        <time>2022-09-22T13:26:56.114Z</time>
      </trkpt>
      <trkpt lat="44.92773" lon="5.42538">
        <ele>848</ele>
        <time>2022-09-22T13:26:57.114Z</time>
      </trkpt>
      <trkpt lat="44.92783" lon="5.42547">
        <ele>848</ele>
        <time>2022-09-22T13:26:58.114Z</time>
      </trkpt>
      <trkpt lat="44.92792" lon="5.42555">
        <ele>847</ele>
        <time>2022-09-22T13:26:59.113Z</time>
      </trkpt>
      <trkpt lat="44.928" lon="5.42562">
        <ele>846</ele>
        <time>2022-09-22T13:27:00.114Z</time>
      </trkpt>
      <trkpt lat="44.92807" lon="5.42567">
        <ele>844</ele>
        <time>2022-09-22T13:27:01.114Z</time>
      </trkpt>
      <trkpt lat="44.92814" lon="5.42571">
        <ele>843</ele>
        <time>2022-09-22T13:27:02.113Z</time>
      </trkpt>
      <trkpt lat="44.92819" lon="5.42573">
        <ele>842</ele>
        <time>2022-09-22T13:27:03.113Z</time>
      </trkpt>
      <trkpt lat="44.92823" lon="5.42576">
        <ele>841</ele>
        <time>2022-09-22T13:27:04.114Z</time>
      </trkpt>
      <trkpt lat="44.92825" lon="5.4258">
        <ele>841</ele>
        <time>2022-09-22T13:27:05.114Z</time>
      </trkpt>
      <trkpt lat="44.92824" lon="5.42584">
        <ele>840</ele>
        <time>2022-09-22T13:27:06.114Z</time>
      </trkpt>
      <trkpt lat="44.92821" lon="5.42587">
        <ele>840</ele>
        <time>2022-09-22T13:27:07.114Z</time>
      </trkpt>
      <trkpt lat="44.92817" lon="5.42588">
        <ele>839</ele>
        <time>2022-09-22T13:27:08.114Z</time>
      </trkpt>
      <trkpt lat="44.9281" lon="5.42589">
        <ele>839</ele>
        <time>2022-09-22T13:27:09.114Z</time>
      </trkpt>
      <trkpt lat="44.92803" lon="5.42589">
        <ele>838</ele>
        <time>2022-09-22T13:27:10.113Z</time>
      </trkpt>
      <trkpt lat="44.92796" lon="5.42589">
        <ele>838</ele>
        <time>2022-09-22T13:27:11.113Z</time>
      </trkpt>
      <trkpt lat="44.92789" lon="5.4259">
        <ele>837</ele>
        <time>2022-09-22T13:27:12.113Z</time>
      </trkpt>
      <trkpt lat="44.92784" lon="5.42592">
        <ele>837</ele>
        <time>2022-09-22T13:27:13.114Z</time>
      </trkpt>
      <trkpt lat="44.92782" lon="5.42597">
        <ele>836</ele>
        <time>2022-09-22T13:27:14.114Z</time>
      </trkpt>
      <trkpt lat="44.92781" lon="5.42603">
        <ele>835</ele>
        <time>2022-09-22T13:27:15.114Z</time>
      </trkpt>
      <trkpt lat="44.92783" lon="5.4261">
        <ele>834</ele>
        <time>2022-09-22T13:27:16.113Z</time>
      </trkpt>
      <trkpt lat="44.92787" lon="5.42618">
        <ele>833</ele>
        <time>2022-09-22T13:27:17.113Z</time>
      </trkpt>
      <trkpt lat="44.92791" lon="5.42626">
        <ele>833</ele>
        <time>2022-09-22T13:27:18.114Z</time>
      </trkpt>
      <trkpt lat="44.92796" lon="5.42633">
        <ele>832</ele>
        <time>2022-09-22T13:27:19.114Z</time>
      </trkpt>
      <trkpt lat="44.92801" lon="5.4264">
        <ele>831</ele>
        <time>2022-09-22T13:27:20.114Z</time>
      </trkpt>
      <trkpt lat="44.92808" lon="5.42646">
        <ele>830</ele>
        <time>2022-09-22T13:27:21.114Z</time>
      </trkpt>
      <trkpt lat="44.92815" lon="5.42651">
        <ele>829</ele>
        <time>2022-09-22T13:27:22.113Z</time>
      </trkpt>
      <trkpt lat="44.92823" lon="5.42655">
        <ele>828</ele>
        <time>2022-09-22T13:27:23.113Z</time>
      </trkpt>
      <trkpt lat="44.92832" lon="5.42658">
        <ele>827</ele>
        <time>2022-09-22T13:27:24.114Z</time>
      </trkpt>
      <trkpt lat="44.92841" lon="5.42661">
        <ele>826</ele>
        <time>2022-09-22T13:27:25.114Z</time>
      </trkpt>
      <trkpt lat="44.92851" lon="5.42664">
        <ele>825</ele>
        <time>2022-09-22T13:27:26.114Z</time>
      </trkpt>
      <trkpt lat="44.92861" lon="5.42667">
        <ele>824</ele>
        <time>2022-09-22T13:27:27.113Z</time>
      </trkpt>
      <trkpt lat="44.9287" lon="5.42669">
        <ele>823</ele>
        <time>2022-09-22T13:27:28.113Z</time>
      </trkpt>
      <trkpt lat="44.92881" lon="5.42671">
        <ele>823</ele>
        <time>2022-09-22T13:27:29.114Z</time>
      </trkpt>
      <trkpt lat="44.92891" lon="5.42674">
        <ele>822</ele>
        <time>2022-09-22T13:27:30.113Z</time>
      </trkpt>
      <trkpt lat="44.92902" lon="5.42677">
        <ele>821</ele>
        <time>2022-09-22T13:27:31.114Z</time>
      </trkpt>
      <trkpt lat="44.92914" lon="5.42681">
        <ele>820</ele>
        <time>2022-09-22T13:27:32.113Z</time>
      </trkpt>
      <trkpt lat="44.92925" lon="5.42685">
        <ele>819</ele>
        <time>2022-09-22T13:27:33.114Z</time>
      </trkpt>
      <trkpt lat="44.92936" lon="5.42688">
        <ele>818</ele>
        <time>2022-09-22T13:27:34.114Z</time>
      </trkpt>
      <trkpt lat="44.92947" lon="5.42691">
        <ele>817</ele>
        <time>2022-09-22T13:27:35.114Z</time>
      </trkpt>
      <trkpt lat="44.92958" lon="5.42694">
        <ele>816</ele>
        <time>2022-09-22T13:27:36.114Z</time>
      </trkpt>
      <trkpt lat="44.92968" lon="5.42698">
        <ele>815</ele>
        <time>2022-09-22T13:27:37.114Z</time>
      </trkpt>
      <trkpt lat="44.92979" lon="5.42702">
        <ele>814</ele>
        <time>2022-09-22T13:27:38.114Z</time>
      </trkpt>
      <trkpt lat="44.92988" lon="5.42707">
        <ele>813</ele>
        <time>2022-09-22T13:27:39.114Z</time>
      </trkpt>
      <trkpt lat="44.92998" lon="5.42712">
        <ele>812</ele>
        <time>2022-09-22T13:27:40.113Z</time>
      </trkpt>
      <trkpt lat="44.93006" lon="5.42717">
        <ele>812</ele>
        <time>2022-09-22T13:27:41.114Z</time>
      </trkpt>
      <trkpt lat="44.93015" lon="5.42722">
        <ele>811</ele>
        <time>2022-09-22T13:27:42.114Z</time>
      </trkpt>
      <trkpt lat="44.93024" lon="5.42726">
        <ele>810</ele>
        <time>2022-09-22T13:27:43.113Z</time>
      </trkpt>
      <trkpt lat="44.93033" lon="5.4273">
        <ele>810</ele>
        <time>2022-09-22T13:27:44.114Z</time>
      </trkpt>
      <trkpt lat="44.93042" lon="5.42734">
        <ele>809</ele>
        <time>2022-09-22T13:27:45.113Z</time>
      </trkpt>
      <trkpt lat="44.93051" lon="5.42738">
        <ele>809</ele>
        <time>2022-09-22T13:27:46.114Z</time>
      </trkpt>
      <trkpt lat="44.93059" lon="5.42743">
        <ele>809</ele>
        <time>2022-09-22T13:27:47.113Z</time>
      </trkpt>
      <trkpt lat="44.93067" lon="5.42748">
        <ele>808</ele>
        <time>2022-09-22T13:27:48.113Z</time>
      </trkpt>
      <trkpt lat="44.93075" lon="5.42753">
        <ele>808</ele>
        <time>2022-09-22T13:27:49.114Z</time>
      </trkpt>
      <trkpt lat="44.93082" lon="5.42759">
        <ele>808</ele>
        <time>2022-09-22T13:27:50.113Z</time>
      </trkpt>
      <trkpt lat="44.93088" lon="5.42765">
        <ele>807</ele>
        <time>2022-09-22T13:27:51.114Z</time>
      </trkpt>
      <trkpt lat="44.93095" lon="5.42771">
        <ele>807</ele>
        <time>2022-09-22T13:27:52.113Z</time>
      </trkpt>
      <trkpt lat="44.93101" lon="5.42777">
        <ele>806</ele>
        <time>2022-09-22T13:27:53.114Z</time>
      </trkpt>
      <trkpt lat="44.93107" lon="5.42782">
        <ele>805</ele>
        <time>2022-09-22T13:27:54.114Z</time>
      </trkpt>
      <trkpt lat="44.93113" lon="5.42788">
        <ele>804</ele>
        <time>2022-09-22T13:27:55.113Z</time>
      </trkpt>
      <trkpt lat="44.9312" lon="5.42793">
        <ele>803</ele>
        <time>2022-09-22T13:27:56.114Z</time>
      </trkpt>
      <trkpt lat="44.93126" lon="5.42799">
        <ele>803</ele>
        <time>2022-09-22T13:27:57.113Z</time>
      </trkpt>
      <trkpt lat="44.93132" lon="5.42804">
        <ele>803</ele>
        <time>2022-09-22T13:27:58.113Z</time>
      </trkpt>
      <trkpt lat="44.93138" lon="5.42809">
        <ele>802</ele>
        <time>2022-09-22T13:27:59.114Z</time>
      </trkpt>
      <trkpt lat="44.93145" lon="5.42815">
        <ele>802</ele>
        <time>2022-09-22T13:28:00.114Z</time>
      </trkpt>
      <trkpt lat="44.93151" lon="5.4282">
        <ele>801</ele>
        <time>2022-09-22T13:28:01.113Z</time>
      </trkpt>
      <trkpt lat="44.93156" lon="5.42823">
        <ele>801</ele>
        <time>2022-09-22T13:28:02.114Z</time>
      </trkpt>
      <trkpt lat="44.93161" lon="5.42827">
        <ele>801</ele>
        <time>2022-09-22T13:28:03.113Z</time>
      </trkpt>
      <trkpt lat="44.93167" lon="5.42831">
        <ele>800</ele>
        <time>2022-09-22T13:28:04.114Z</time>
      </trkpt>
      <trkpt lat="44.93172" lon="5.42835">
        <ele>800</ele>
        <time>2022-09-22T13:28:05.114Z</time>
      </trkpt>
      <trkpt lat="44.93177" lon="5.42839">
        <ele>800</ele>
        <time>2022-09-22T13:28:06.113Z</time>
      </trkpt>
      <trkpt lat="44.93182" lon="5.42843">
        <ele>800</ele>
        <time>2022-09-22T13:28:07.114Z</time>
      </trkpt>
      <trkpt lat="44.93187" lon="5.42847">
        <ele>800</ele>
        <time>2022-09-22T13:28:08.114Z</time>
      </trkpt>
      <trkpt lat="44.93192" lon="5.4285">
        <ele>800</ele>
        <time>2022-09-22T13:28:09.113Z</time>
      </trkpt>
      <trkpt lat="44.93197" lon="5.42855">
        <ele>799</ele>
        <time>2022-09-22T13:28:10.113Z</time>
      </trkpt>
      <trkpt lat="44.93201" lon="5.42857">
        <ele>799</ele>
        <time>2022-09-22T13:28:11.114Z</time>
      </trkpt>
      <trkpt lat="44.93205" lon="5.4286">
        <ele>799</ele>
        <time>2022-09-22T13:28:12.113Z</time>
      </trkpt>
      <trkpt lat="44.93209" lon="5.42864">
        <ele>799</ele>
        <time>2022-09-22T13:28:13.114Z</time>
      </trkpt>
      <trkpt lat="44.93213" lon="5.42867">
        <ele>799</ele>
        <time>2022-09-22T13:28:14.114Z</time>
      </trkpt>
      <trkpt lat="44.93218" lon="5.42871">
        <ele>799</ele>
        <time>2022-09-22T13:28:15.113Z</time>
      </trkpt>
      <trkpt lat="44.93222" lon="5.42874">
        <ele>799</ele>
        <time>2022-09-22T13:28:16.113Z</time>
      </trkpt>
      <trkpt lat="44.93226" lon="5.42877">
        <ele>799</ele>
        <time>2022-09-22T13:28:17.113Z</time>
      </trkpt>
      <trkpt lat="44.9323" lon="5.4288">
        <ele>798</ele>
        <time>2022-09-22T13:28:18.114Z</time>
      </trkpt>
      <trkpt lat="44.93234" lon="5.42883">
        <ele>798</ele>
        <time>2022-09-22T13:28:19.113Z</time>
      </trkpt>
      <trkpt lat="44.93239" lon="5.42887">
        <ele>798</ele>
        <time>2022-09-22T13:28:20.113Z</time>
      </trkpt>
      <trkpt lat="44.93242" lon="5.4289">
        <ele>798</ele>
        <time>2022-09-22T13:28:21.113Z</time>
      </trkpt>
      <trkpt lat="44.93246" lon="5.42893">
        <ele>798</ele>
        <time>2022-09-22T13:28:22.113Z</time>
      </trkpt>
      <trkpt lat="44.9325" lon="5.42896">
        <ele>798</ele>
        <time>2022-09-22T13:28:23.113Z</time>
      </trkpt>
      <trkpt lat="44.93255" lon="5.429">
        <ele>798</ele>
        <time>2022-09-22T13:28:24.114Z</time>
      </trkpt>
      <trkpt lat="44.9326" lon="5.42904">
        <ele>797</ele>
        <time>2022-09-22T13:28:25.113Z</time>
      </trkpt>
      <trkpt lat="44.93265" lon="5.42907">
        <ele>797</ele>
        <time>2022-09-22T13:28:26.113Z</time>
      </trkpt>
      <trkpt lat="44.9327" lon="5.4291">
        <ele>797</ele>
        <time>2022-09-22T13:28:27.113Z</time>
      </trkpt>
      <trkpt lat="44.93275" lon="5.42914">
        <ele>797</ele>
        <time>2022-09-22T13:28:28.114Z</time>
      </trkpt>
      <trkpt lat="44.9328" lon="5.42918">
        <ele>797</ele>
        <time>2022-09-22T13:28:29.114Z</time>
      </trkpt>
      <trkpt lat="44.93286" lon="5.42922">
        <ele>796</ele>
        <time>2022-09-22T13:28:30.113Z</time>
      </trkpt>
      <trkpt lat="44.93291" lon="5.42925">
        <ele>796</ele>
        <time>2022-09-22T13:28:31.113Z</time>
      </trkpt>
      <trkpt lat="44.93295" lon="5.42928">
        <ele>796</ele>
        <time>2022-09-22T13:28:32.113Z</time>
      </trkpt>
      <trkpt lat="44.933" lon="5.42931">
        <ele>795</ele>
        <time>2022-09-22T13:28:33.114Z</time>
      </trkpt>
      <trkpt lat="44.93305" lon="5.42935">
        <ele>795</ele>
        <time>2022-09-22T13:28:34.114Z</time>
      </trkpt>
      <trkpt lat="44.93311" lon="5.42938">
        <ele>795</ele>
        <time>2022-09-22T13:28:35.113Z</time>
      </trkpt>
      <trkpt lat="44.93315" lon="5.42941">
        <ele>795</ele>
        <time>2022-09-22T13:28:36.113Z</time>
      </trkpt>
      <trkpt lat="44.9332" lon="5.42943">
        <ele>795</ele>
        <time>2022-09-22T13:28:37.113Z</time>
      </trkpt>
      <trkpt lat="44.93326" lon="5.42946">
        <ele>795</ele>
        <time>2022-09-22T13:28:38.114Z</time>
      </trkpt>
      <trkpt lat="44.93331" lon="5.42948">
        <ele>794</ele>
        <time>2022-09-22T13:28:39.113Z</time>
      </trkpt>
      <trkpt lat="44.93336" lon="5.4295">
        <ele>794</ele>
        <time>2022-09-22T13:28:40.113Z</time>
      </trkpt>
      <trkpt lat="44.9334" lon="5.42952">
        <ele>794</ele>
        <time>2022-09-22T13:28:41.113Z</time>
      </trkpt>
      <trkpt lat="44.93345" lon="5.42954">
        <ele>794</ele>
        <time>2022-09-22T13:28:42.113Z</time>
      </trkpt>
      <trkpt lat="44.9335" lon="5.42956">
        <ele>794</ele>
        <time>2022-09-22T13:28:43.113Z</time>
      </trkpt>
      <trkpt lat="44.93354" lon="5.42958">
        <ele>794</ele>
        <time>2022-09-22T13:28:44.114Z</time>
      </trkpt>
      <trkpt lat="44.93358" lon="5.4296">
        <ele>794</ele>
        <time>2022-09-22T13:28:45.113Z</time>
      </trkpt>
      <trkpt lat="44.93362" lon="5.42963">
        <ele>794</ele>
        <time>2022-09-22T13:28:46.113Z</time>
      </trkpt>
      <trkpt lat="44.93366" lon="5.42966">
        <ele>794</ele>
        <time>2022-09-22T13:28:47.113Z</time>
      </trkpt>
      <trkpt lat="44.93371" lon="5.42969">
        <ele>794</ele>
        <time>2022-09-22T13:28:48.114Z</time>
      </trkpt>
      <trkpt lat="44.93375" lon="5.42971">
        <ele>794</ele>
        <time>2022-09-22T13:28:49.114Z</time>
      </trkpt>
      <trkpt lat="44.9338" lon="5.42974">
        <ele>794</ele>
        <time>2022-09-22T13:28:50.113Z</time>
      </trkpt>
      <trkpt lat="44.93383" lon="5.42975">
        <ele>794</ele>
        <time>2022-09-22T13:28:51.113Z</time>
      </trkpt>
      <trkpt lat="44.93386" lon="5.42977">
        <ele>794</ele>
        <time>2022-09-22T13:28:52.113Z</time>
      </trkpt>
      <trkpt lat="44.9339" lon="5.42979">
        <ele>793</ele>
        <time>2022-09-22T13:28:53.113Z</time>
      </trkpt>
      <trkpt lat="44.93395" lon="5.42981">
        <ele>793</ele>
        <time>2022-09-22T13:28:54.113Z</time>
      </trkpt>
      <trkpt lat="44.93397" lon="5.42982">
        <ele>793</ele>
        <time>2022-09-22T13:28:55.113Z</time>
      </trkpt>
      <trkpt lat="44.93401" lon="5.42983">
        <ele>793</ele>
        <time>2022-09-22T13:28:56.114Z</time>
      </trkpt>
      <trkpt lat="44.93405" lon="5.42984">
        <ele>793</ele>
        <time>2022-09-22T13:28:57.113Z</time>
      </trkpt>
      <trkpt lat="44.93408" lon="5.42986">
        <ele>793</ele>
        <time>2022-09-22T13:28:58.113Z</time>
      </trkpt>
      <trkpt lat="44.93412" lon="5.42987">
        <ele>793</ele>
        <time>2022-09-22T13:28:59.113Z</time>
      </trkpt>
      <trkpt lat="44.93416" lon="5.42988">
        <ele>793</ele>
        <time>2022-09-22T13:29:00.113Z</time>
      </trkpt>
      <trkpt lat="44.93418" lon="5.42989">
        <ele>793</ele>
        <time>2022-09-22T13:29:01.113Z</time>
      </trkpt>
      <trkpt lat="44.93421" lon="5.4299">
        <ele>793</ele>
        <time>2022-09-22T13:29:02.114Z</time>
      </trkpt>
      <trkpt lat="44.93425" lon="5.42991">
        <ele>794</ele>
        <time>2022-09-22T13:29:03.114Z</time>
      </trkpt>
      <trkpt lat="44.93428" lon="5.42992">
        <ele>794</ele>
        <time>2022-09-22T13:29:04.113Z</time>
      </trkpt>
      <trkpt lat="44.93431" lon="5.42993">
        <ele>794</ele>
        <time>2022-09-22T13:29:05.114Z</time>
      </trkpt>
      <trkpt lat="44.93434" lon="5.42994">
        <ele>794</ele>
        <time>2022-09-22T13:29:06.114Z</time>
      </trkpt>
      <trkpt lat="44.93437" lon="5.42995">
        <ele>794</ele>
        <time>2022-09-22T13:29:07.114Z</time>
      </trkpt>
      <trkpt lat="44.9344" lon="5.42997">
        <ele>794</ele>
        <time>2022-09-22T13:29:08.114Z</time>
      </trkpt>
      <trkpt lat="44.93443" lon="5.42998">
        <ele>794</ele>
        <time>2022-09-22T13:29:09.113Z</time>
      </trkpt>
      <trkpt lat="44.93445" lon="5.42999">
        <ele>794</ele>
        <time>2022-09-22T13:29:10.114Z</time>
      </trkpt>
      <trkpt lat="44.93448" lon="5.43">
        <ele>794</ele>
        <time>2022-09-22T13:29:11.114Z</time>
      </trkpt>
      <trkpt lat="44.93451" lon="5.43001">
        <ele>794</ele>
        <time>2022-09-22T13:29:12.114Z</time>
      </trkpt>
      <trkpt lat="44.93453" lon="5.43003">
        <ele>795</ele>
        <time>2022-09-22T13:29:13.113Z</time>
      </trkpt>
      <trkpt lat="44.93456" lon="5.43004">
        <ele>795</ele>
        <time>2022-09-22T13:29:14.114Z</time>
      </trkpt>
      <trkpt lat="44.93459" lon="5.43005">
        <ele>795</ele>
        <time>2022-09-22T13:29:15.113Z</time>
      </trkpt>
      <trkpt lat="44.93462" lon="5.43006">
        <ele>795</ele>
        <time>2022-09-22T13:29:16.113Z</time>
      </trkpt>
      <trkpt lat="44.93465" lon="5.43007">
        <ele>795</ele>
        <time>2022-09-22T13:29:17.114Z</time>
      </trkpt>
      <trkpt lat="44.93467" lon="5.43009">
        <ele>796</ele>
        <time>2022-09-22T13:29:18.114Z</time>
      </trkpt>
      <trkpt lat="44.93469" lon="5.4301">
        <ele>796</ele>
        <time>2022-09-22T13:29:19.114Z</time>
      </trkpt>
      <trkpt lat="44.93472" lon="5.43011">
        <ele>796</ele>
        <time>2022-09-22T13:29:20.114Z</time>
      </trkpt>
      <trkpt lat="44.93475" lon="5.43012">
        <ele>795</ele>
        <time>2022-09-22T13:29:21.114Z</time>
      </trkpt>
      <trkpt lat="44.93477" lon="5.43013">
        <ele>795</ele>
        <time>2022-09-22T13:29:22.114Z</time>
      </trkpt>
      <trkpt lat="44.9348" lon="5.43014">
        <ele>796</ele>
        <time>2022-09-22T13:29:23.113Z</time>
      </trkpt>
      <trkpt lat="44.93482" lon="5.43014">
        <ele>796</ele>
        <time>2022-09-22T13:29:24.114Z</time>
      </trkpt>
      <trkpt lat="44.93485" lon="5.43016">
        <ele>796</ele>
        <time>2022-09-22T13:29:25.114Z</time>
      </trkpt>
      <trkpt lat="44.93488" lon="5.43017">
        <ele>796</ele>
        <time>2022-09-22T13:29:26.113Z</time>
      </trkpt>
      <trkpt lat="44.93491" lon="5.43018">
        <ele>796</ele>
        <time>2022-09-22T13:29:27.114Z</time>
      </trkpt>
      <trkpt lat="44.93493" lon="5.43019">
        <ele>796</ele>
        <time>2022-09-22T13:29:28.114Z</time>
      </trkpt>
      <trkpt lat="44.93496" lon="5.4302">
        <ele>796</ele>
        <time>2022-09-22T13:29:29.114Z</time>
      </trkpt>
      <trkpt lat="44.93499" lon="5.43021">
        <ele>796</ele>
        <time>2022-09-22T13:29:30.113Z</time>
      </trkpt>
      <trkpt lat="44.93501" lon="5.43022">
        <ele>796</ele>
        <time>2022-09-22T13:29:31.113Z</time>
      </trkpt>
      <trkpt lat="44.93504" lon="5.43023">
        <ele>796</ele>
        <time>2022-09-22T13:29:32.114Z</time>
      </trkpt>
      <trkpt lat="44.93506" lon="5.43024">
        <ele>796</ele>
        <time>2022-09-22T13:29:33.113Z</time>
      </trkpt>
      <trkpt lat="44.93509" lon="5.43025">
        <ele>796</ele>
        <time>2022-09-22T13:29:34.113Z</time>
      </trkpt>
      <trkpt lat="44.93511" lon="5.43026">
        <ele>796</ele>
        <time>2022-09-22T13:29:35.114Z</time>
      </trkpt>
      <trkpt lat="44.93514" lon="5.43026">
        <ele>796</ele>
        <time>2022-09-22T13:29:36.113Z</time>
      </trkpt>
      <trkpt lat="44.93517" lon="5.43027">
        <ele>796</ele>
        <time>2022-09-22T13:29:37.114Z</time>
      </trkpt>
      <trkpt lat="44.93519" lon="5.43028">
        <ele>796</ele>
        <time>2022-09-22T13:29:38.114Z</time>
      </trkpt>
      <trkpt lat="44.93521" lon="5.43028">
        <ele>796</ele>
        <time>2022-09-22T13:29:39.114Z</time>
      </trkpt>
      <trkpt lat="44.93524" lon="5.43028">
        <ele>796</ele>
        <time>2022-09-22T13:29:40.114Z</time>
      </trkpt>
      <trkpt lat="44.93526" lon="5.43028">
        <ele>796</ele>
        <time>2022-09-22T13:29:41.114Z</time>
      </trkpt>
      <trkpt lat="44.93529" lon="5.43028">
        <ele>796</ele>
        <time>2022-09-22T13:29:42.113Z</time>
      </trkpt>
      <trkpt lat="44.93532" lon="5.43029">
        <ele>796</ele>
        <time>2022-09-22T13:29:43.114Z</time>
      </trkpt>
      <trkpt lat="44.93534" lon="5.43029">
        <ele>796</ele>
        <time>2022-09-22T13:29:44.114Z</time>
      </trkpt>
      <trkpt lat="44.93536" lon="5.43029">
        <ele>796</ele>
        <time>2022-09-22T13:29:45.114Z</time>
      </trkpt>
      <trkpt lat="44.93539" lon="5.4303">
        <ele>797</ele>
        <time>2022-09-22T13:29:46.114Z</time>
      </trkpt>
      <trkpt lat="44.93541" lon="5.4303">
        <ele>797</ele>
        <time>2022-09-22T13:29:47.114Z</time>
      </trkpt>
      <trkpt lat="44.93543" lon="5.4303">
        <ele>798</ele>
        <time>2022-09-22T13:29:48.113Z</time>
      </trkpt>
      <trkpt lat="44.93546" lon="5.4303">
        <ele>798</ele>
        <time>2022-09-22T13:29:49.113Z</time>
      </trkpt>
      <trkpt lat="44.93548" lon="5.4303">
        <ele>799</ele>
        <time>2022-09-22T13:29:50.114Z</time>
      </trkpt>
      <trkpt lat="44.9355" lon="5.4303">
        <ele>799</ele>
        <time>2022-09-22T13:29:51.113Z</time>
      </trkpt>
      <trkpt lat="44.93553" lon="5.43031">
        <ele>799</ele>
        <time>2022-09-22T13:29:52.114Z</time>
      </trkpt>
      <trkpt lat="44.93555" lon="5.43031">
        <ele>799</ele>
        <time>2022-09-22T13:29:53.114Z</time>
      </trkpt>
      <trkpt lat="44.93557" lon="5.43031">
        <ele>799</ele>
        <time>2022-09-22T13:29:54.113Z</time>
      </trkpt>
      <trkpt lat="44.93559" lon="5.43031">
        <ele>799</ele>
        <time>2022-09-22T13:29:55.114Z</time>
      </trkpt>
      <trkpt lat="44.93562" lon="5.43032">
        <ele>798</ele>
        <time>2022-09-22T13:29:56.113Z</time>
      </trkpt>
      <trkpt lat="44.93563" lon="5.43034">
        <ele>798</ele>
        <time>2022-09-22T13:29:57.114Z</time>
      </trkpt>
      <trkpt lat="44.93563" lon="5.43036">
        <ele>798</ele>
        <time>2022-09-22T13:29:58.114Z</time>
      </trkpt>
      <trkpt lat="44.93563" lon="5.43039">
        <ele>799</ele>
        <time>2022-09-22T13:29:59.114Z</time>
      </trkpt>
      <trkpt lat="44.93562" lon="5.43042">
        <ele>799</ele>
        <time>2022-09-22T13:30:00.114Z</time>
      </trkpt>
      <trkpt lat="44.93562" lon="5.43045">
        <ele>799</ele>
        <time>2022-09-22T13:30:01.114Z</time>
      </trkpt>
      <trkpt lat="44.93562" lon="5.43048">
        <ele>800</ele>
        <time>2022-09-22T13:30:02.114Z</time>
      </trkpt>
      <trkpt lat="44.93562" lon="5.4305">
        <ele>800</ele>
        <time>2022-09-22T13:30:03.114Z</time>
      </trkpt>
      <trkpt lat="44.93562" lon="5.43053">
        <ele>801</ele>
        <time>2022-09-22T13:30:04.114Z</time>
      </trkpt>
      <trkpt lat="44.93562" lon="5.43056">
        <ele>801</ele>
        <time>2022-09-22T13:30:05.113Z</time>
      </trkpt>
      <trkpt lat="44.93562" lon="5.43059">
        <ele>801</ele>
        <time>2022-09-22T13:30:06.114Z</time>
      </trkpt>
      <trkpt lat="44.93561" lon="5.4306">
        <ele>801</ele>
        <time>2022-09-22T13:30:07.114Z</time>
      </trkpt>
      <trkpt lat="44.93561" lon="5.43061">
        <ele>801</ele>
        <time>2022-09-22T13:30:08.114Z</time>
      </trkpt>
      <trkpt lat="44.9356" lon="5.43061">
        <ele>801</ele>
        <time>2022-09-22T13:30:09.113Z</time>
      </trkpt>
      <trkpt lat="44.9356" lon="5.43061">
        <ele>802</ele>
        <time>2022-09-22T13:30:10.113Z</time>
      </trkpt>
      <trkpt lat="44.9356" lon="5.43056">
        <ele>796</ele>
        <time>2022-09-22T13:30:56.247Z</time>
      </trkpt>
      <trkpt lat="44.93559" lon="5.43053">
        <ele>796</ele>
        <time>2022-09-22T13:30:57.247Z</time>
      </trkpt>
      <trkpt lat="44.93559" lon="5.4305">
        <ele>796</ele>
        <time>2022-09-22T13:30:58.247Z</time>
      </trkpt>
      <trkpt lat="44.93559" lon="5.43047">
        <ele>797</ele>
        <time>2022-09-22T13:30:59.247Z</time>
      </trkpt>
      <trkpt lat="44.93559" lon="5.43044">
        <ele>797</ele>
        <time>2022-09-22T13:31:00.247Z</time>
      </trkpt>
      <trkpt lat="44.93559" lon="5.43041">
        <ele>798</ele>
        <time>2022-09-22T13:31:01.246Z</time>
      </trkpt>
      <trkpt lat="44.93559" lon="5.43038">
        <ele>798</ele>
        <time>2022-09-22T13:31:02.246Z</time>
      </trkpt>
      <trkpt lat="44.93559" lon="5.43035">
        <ele>799</ele>
        <time>2022-09-22T13:31:03.247Z</time>
      </trkpt>
      <trkpt lat="44.93559" lon="5.43033">
        <ele>799</ele>
        <time>2022-09-22T13:31:04.247Z</time>
      </trkpt>
      <trkpt lat="44.93557" lon="5.43031">
        <ele>799</ele>
        <time>2022-09-22T13:31:05.246Z</time>
      </trkpt>
      <trkpt lat="44.93555" lon="5.4303">
        <ele>800</ele>
        <time>2022-09-22T13:31:06.247Z</time>
      </trkpt>
      <trkpt lat="44.93553" lon="5.43029">
        <ele>800</ele>
        <time>2022-09-22T13:31:07.247Z</time>
      </trkpt>
      <trkpt lat="44.93551" lon="5.43027">
        <ele>800</ele>
        <time>2022-09-22T13:31:08.247Z</time>
      </trkpt>
      <trkpt lat="44.93548" lon="5.43027">
        <ele>800</ele>
        <time>2022-09-22T13:31:09.247Z</time>
      </trkpt>
      <trkpt lat="44.93545" lon="5.43026">
        <ele>800</ele>
        <time>2022-09-22T13:31:10.247Z</time>
      </trkpt>
      <trkpt lat="44.93541" lon="5.43025">
        <ele>800</ele>
        <time>2022-09-22T13:31:11.246Z</time>
      </trkpt>
      <trkpt lat="44.93537" lon="5.43025">
        <ele>800</ele>
        <time>2022-09-22T13:31:12.247Z</time>
      </trkpt>
      <trkpt lat="44.93533" lon="5.43024">
        <ele>799</ele>
        <time>2022-09-22T13:31:13.247Z</time>
      </trkpt>
      <trkpt lat="44.93529" lon="5.43024">
        <ele>799</ele>
        <time>2022-09-22T13:31:14.247Z</time>
      </trkpt>
      <trkpt lat="44.93525" lon="5.43023">
        <ele>799</ele>
        <time>2022-09-22T13:31:15.247Z</time>
      </trkpt>
      <trkpt lat="44.9352" lon="5.43022">
        <ele>799</ele>
        <time>2022-09-22T13:31:16.246Z</time>
      </trkpt>
      <trkpt lat="44.93515" lon="5.43021">
        <ele>799</ele>
        <time>2022-09-22T13:31:17.247Z</time>
      </trkpt>
      <trkpt lat="44.93511" lon="5.4302">
        <ele>799</ele>
        <time>2022-09-22T13:31:18.247Z</time>
      </trkpt>
      <trkpt lat="44.93505" lon="5.43019">
        <ele>799</ele>
        <time>2022-09-22T13:31:19.247Z</time>
      </trkpt>
      <trkpt lat="44.935" lon="5.43017">
        <ele>799</ele>
        <time>2022-09-22T13:31:20.247Z</time>
      </trkpt>
      <trkpt lat="44.93494" lon="5.43016">
        <ele>800</ele>
        <time>2022-09-22T13:31:21.246Z</time>
      </trkpt>
      <trkpt lat="44.93488" lon="5.43014">
        <ele>800</ele>
        <time>2022-09-22T13:31:22.246Z</time>
      </trkpt>
      <trkpt lat="44.93482" lon="5.43012">
        <ele>800</ele>
        <time>2022-09-22T13:31:23.247Z</time>
      </trkpt>
      <trkpt lat="44.93476" lon="5.4301">
        <ele>800</ele>
        <time>2022-09-22T13:31:24.247Z</time>
      </trkpt>
      <trkpt lat="44.9347" lon="5.43009">
        <ele>800</ele>
        <time>2022-09-22T13:31:25.246Z</time>
      </trkpt>
      <trkpt lat="44.93464" lon="5.43008">
        <ele>800</ele>
        <time>2022-09-22T13:31:26.246Z</time>
      </trkpt>
      <trkpt lat="44.93458" lon="5.43007">
        <ele>800</ele>
        <time>2022-09-22T13:31:27.246Z</time>
      </trkpt>
      <trkpt lat="44.93451" lon="5.43007">
        <ele>800</ele>
        <time>2022-09-22T13:31:28.247Z</time>
      </trkpt>
      <trkpt lat="44.93444" lon="5.43006">
        <ele>800</ele>
        <time>2022-09-22T13:31:29.247Z</time>
      </trkpt>
      <trkpt lat="44.93437" lon="5.43005">
        <ele>800</ele>
        <time>2022-09-22T13:31:30.247Z</time>
      </trkpt>
      <trkpt lat="44.93429" lon="5.43003">
        <ele>799</ele>
        <time>2022-09-22T13:31:31.246Z</time>
      </trkpt>
      <trkpt lat="44.93421" lon="5.43001">
        <ele>799</ele>
        <time>2022-09-22T13:31:32.246Z</time>
      </trkpt>
      <trkpt lat="44.93413" lon="5.43">
        <ele>798</ele>
        <time>2022-09-22T13:31:33.247Z</time>
      </trkpt>
      <trkpt lat="44.93404" lon="5.43">
        <ele>798</ele>
        <time>2022-09-22T13:31:34.247Z</time>
      </trkpt>
      <trkpt lat="44.93395" lon="5.43003">
        <ele>797</ele>
        <time>2022-09-22T13:31:35.246Z</time>
      </trkpt>
      <trkpt lat="44.93387" lon="5.43008">
        <ele>796</ele>
        <time>2022-09-22T13:31:36.246Z</time>
      </trkpt>
      <trkpt lat="44.93378" lon="5.43016">
        <ele>795</ele>
        <time>2022-09-22T13:31:37.247Z</time>
      </trkpt>
      <trkpt lat="44.93369" lon="5.43025">
        <ele>794</ele>
        <time>2022-09-22T13:31:38.247Z</time>
      </trkpt>
      <trkpt lat="44.93361" lon="5.43035">
        <ele>793</ele>
        <time>2022-09-22T13:31:39.247Z</time>
      </trkpt>
      <trkpt lat="44.93352" lon="5.43046">
        <ele>792</ele>
        <time>2022-09-22T13:31:40.246Z</time>
      </trkpt>
      <trkpt lat="44.93345" lon="5.43057">
        <ele>792</ele>
        <time>2022-09-22T13:31:41.246Z</time>
      </trkpt>
      <trkpt lat="44.93339" lon="5.4307">
        <ele>791</ele>
        <time>2022-09-22T13:31:42.246Z</time>
      </trkpt>
      <trkpt lat="44.93335" lon="5.43082">
        <ele>790</ele>
        <time>2022-09-22T13:31:43.247Z</time>
      </trkpt>
      <trkpt lat="44.93332" lon="5.43091">
        <ele>790</ele>
        <time>2022-09-22T13:31:44.247Z</time>
      </trkpt>
      <trkpt lat="44.93328" lon="5.43098">
        <ele>789</ele>
        <time>2022-09-22T13:31:45.247Z</time>
      </trkpt>
      <trkpt lat="44.93324" lon="5.43101">
        <ele>789</ele>
        <time>2022-09-22T13:31:46.247Z</time>
      </trkpt>
      <trkpt lat="44.93319" lon="5.43102">
        <ele>789</ele>
        <time>2022-09-22T13:31:47.246Z</time>
      </trkpt>
      <trkpt lat="44.93314" lon="5.43102">
        <ele>789</ele>
        <time>2022-09-22T13:31:48.247Z</time>
      </trkpt>
      <trkpt lat="44.93309" lon="5.431">
        <ele>788</ele>
        <time>2022-09-22T13:31:49.247Z</time>
      </trkpt>
      <trkpt lat="44.93304" lon="5.43098">
        <ele>788</ele>
        <time>2022-09-22T13:31:50.247Z</time>
      </trkpt>
      <trkpt lat="44.93299" lon="5.43095">
        <ele>788</ele>
        <time>2022-09-22T13:31:51.246Z</time>
      </trkpt>
      <trkpt lat="44.93295" lon="5.43093">
        <ele>787</ele>
        <time>2022-09-22T13:31:52.246Z</time>
      </trkpt>
      <trkpt lat="44.9329" lon="5.43091">
        <ele>787</ele>
        <time>2022-09-22T13:31:53.247Z</time>
      </trkpt>
      <trkpt lat="44.93285" lon="5.43089">
        <ele>787</ele>
        <time>2022-09-22T13:31:54.247Z</time>
      </trkpt>
      <trkpt lat="44.93281" lon="5.43087">
        <ele>786</ele>
        <time>2022-09-22T13:31:55.246Z</time>
      </trkpt>
      <trkpt lat="44.93276" lon="5.43086">
        <ele>786</ele>
        <time>2022-09-22T13:31:56.247Z</time>
      </trkpt>
      <trkpt lat="44.93272" lon="5.43085">
        <ele>786</ele>
        <time>2022-09-22T13:31:57.246Z</time>
      </trkpt>
      <trkpt lat="44.93267" lon="5.43084">
        <ele>786</ele>
        <time>2022-09-22T13:31:58.247Z</time>
      </trkpt>
      <trkpt lat="44.93263" lon="5.43083">
        <ele>786</ele>
        <time>2022-09-22T13:31:59.246Z</time>
      </trkpt>
      <trkpt lat="44.93259" lon="5.43082">
        <ele>786</ele>
        <time>2022-09-22T13:32:00.246Z</time>
      </trkpt>
      <trkpt lat="44.93254" lon="5.4308">
        <ele>785</ele>
        <time>2022-09-22T13:32:01.246Z</time>
      </trkpt>
      <trkpt lat="44.93251" lon="5.43079">
        <ele>785</ele>
        <time>2022-09-22T13:32:02.246Z</time>
      </trkpt>
      <trkpt lat="44.93247" lon="5.43077">
        <ele>786</ele>
        <time>2022-09-22T13:32:03.247Z</time>
      </trkpt>
      <trkpt lat="44.93243" lon="5.43075">
        <ele>786</ele>
        <time>2022-09-22T13:32:04.247Z</time>
      </trkpt>
      <trkpt lat="44.9324" lon="5.43074">
        <ele>786</ele>
        <time>2022-09-22T13:32:05.246Z</time>
      </trkpt>
      <trkpt lat="44.93236" lon="5.43072">
        <ele>786</ele>
        <time>2022-09-22T13:32:06.246Z</time>
      </trkpt>
      <trkpt lat="44.93233" lon="5.4307">
        <ele>785</ele>
        <time>2022-09-22T13:32:07.246Z</time>
      </trkpt>
      <trkpt lat="44.9323" lon="5.43067">
        <ele>785</ele>
        <time>2022-09-22T13:32:08.247Z</time>
      </trkpt>
      <trkpt lat="44.93227" lon="5.43065">
        <ele>784</ele>
        <time>2022-09-22T13:32:09.247Z</time>
      </trkpt>
      <trkpt lat="44.93224" lon="5.43062">
        <ele>784</ele>
        <time>2022-09-22T13:32:10.246Z</time>
      </trkpt>
      <trkpt lat="44.93221" lon="5.4306">
        <ele>784</ele>
        <time>2022-09-22T13:32:11.246Z</time>
      </trkpt>
      <trkpt lat="44.93219" lon="5.43058">
        <ele>784</ele>
        <time>2022-09-22T13:32:12.246Z</time>
      </trkpt>
      <trkpt lat="44.93216" lon="5.43055">
        <ele>784</ele>
        <time>2022-09-22T13:32:13.247Z</time>
      </trkpt>
      <trkpt lat="44.93214" lon="5.43053">
        <ele>784</ele>
        <time>2022-09-22T13:32:14.247Z</time>
      </trkpt>
      <trkpt lat="44.93212" lon="5.43051">
        <ele>784</ele>
        <time>2022-09-22T13:32:15.246Z</time>
      </trkpt>
      <trkpt lat="44.9321" lon="5.43049">
        <ele>785</ele>
        <time>2022-09-22T13:32:16.246Z</time>
      </trkpt>
      <trkpt lat="44.93208" lon="5.43048">
        <ele>785</ele>
        <time>2022-09-22T13:32:17.247Z</time>
      </trkpt>
      <trkpt lat="44.93206" lon="5.43046">
        <ele>785</ele>
        <time>2022-09-22T13:32:18.247Z</time>
      </trkpt>
      <trkpt lat="44.93204" lon="5.43045">
        <ele>786</ele>
        <time>2022-09-22T13:32:19.247Z</time>
      </trkpt>
      <trkpt lat="44.93202" lon="5.43043">
        <ele>786</ele>
        <time>2022-09-22T13:32:20.246Z</time>
      </trkpt>
      <trkpt lat="44.932" lon="5.43042">
        <ele>786</ele>
        <time>2022-09-22T13:32:21.247Z</time>
      </trkpt>
      <trkpt lat="44.93198" lon="5.43041">
        <ele>786</ele>
        <time>2022-09-22T13:32:22.247Z</time>
      </trkpt>
      <trkpt lat="44.93195" lon="5.4304">
        <ele>786</ele>
        <time>2022-09-22T13:32:23.247Z</time>
      </trkpt>
      <trkpt lat="44.93193" lon="5.43039">
        <ele>786</ele>
        <time>2022-09-22T13:32:24.247Z</time>
      </trkpt>
      <trkpt lat="44.93191" lon="5.43037">
        <ele>786</ele>
        <time>2022-09-22T13:32:25.246Z</time>
      </trkpt>
      <trkpt lat="44.93189" lon="5.43035">
        <ele>786</ele>
        <time>2022-09-22T13:32:26.246Z</time>
      </trkpt>
      <trkpt lat="44.93187" lon="5.43033">
        <ele>786</ele>
        <time>2022-09-22T13:32:27.246Z</time>
      </trkpt>
      <trkpt lat="44.93185" lon="5.4303">
        <ele>786</ele>
        <time>2022-09-22T13:32:28.247Z</time>
      </trkpt>
      <trkpt lat="44.93182" lon="5.43026">
        <ele>786</ele>
        <time>2022-09-22T13:32:29.247Z</time>
      </trkpt>
      <trkpt lat="44.93179" lon="5.43024">
        <ele>786</ele>
        <time>2022-09-22T13:32:30.246Z</time>
      </trkpt>
      <trkpt lat="44.93176" lon="5.43022">
        <ele>786</ele>
        <time>2022-09-22T13:32:31.247Z</time>
      </trkpt>
      <trkpt lat="44.93174" lon="5.4302">
        <ele>787</ele>
        <time>2022-09-22T13:32:32.247Z</time>
      </trkpt>
      <trkpt lat="44.93171" lon="5.43018">
        <ele>787</ele>
        <time>2022-09-22T13:32:33.247Z</time>
      </trkpt>
      <trkpt lat="44.93169" lon="5.43017">
        <ele>788</ele>
        <time>2022-09-22T13:32:34.247Z</time>
      </trkpt>
      <trkpt lat="44.93167" lon="5.43016">
        <ele>788</ele>
        <time>2022-09-22T13:32:35.247Z</time>
      </trkpt>
      <trkpt lat="44.93165" lon="5.43014">
        <ele>788</ele>
        <time>2022-09-22T13:32:36.246Z</time>
      </trkpt>
      <trkpt lat="44.93163" lon="5.43013">
        <ele>788</ele>
        <time>2022-09-22T13:32:37.246Z</time>
      </trkpt>
      <trkpt lat="44.93162" lon="5.43013">
        <ele>789</ele>
        <time>2022-09-22T13:32:38.246Z</time>
      </trkpt>
      <trkpt lat="44.93159" lon="5.43013">
        <ele>789</ele>
        <time>2022-09-22T13:32:39.247Z</time>
      </trkpt>
      <trkpt lat="44.93157" lon="5.43012">
        <ele>790</ele>
        <time>2022-09-22T13:32:40.246Z</time>
      </trkpt>
      <trkpt lat="44.93156" lon="5.43011">
        <ele>790</ele>
        <time>2022-09-22T13:32:41.246Z</time>
      </trkpt>
      <trkpt lat="44.93154" lon="5.4301">
        <ele>790</ele>
        <time>2022-09-22T13:32:42.246Z</time>
      </trkpt>
      <trkpt lat="44.93152" lon="5.43009">
        <ele>790</ele>
        <time>2022-09-22T13:32:43.247Z</time>
      </trkpt>
      <trkpt lat="44.93149" lon="5.43008">
        <ele>791</ele>
        <time>2022-09-22T13:32:44.247Z</time>
      </trkpt>
      <trkpt lat="44.93148" lon="5.43008">
        <ele>791</ele>
        <time>2022-09-22T13:32:45.247Z</time>
      </trkpt>
      <trkpt lat="44.93146" lon="5.43007">
        <ele>791</ele>
        <time>2022-09-22T13:32:46.246Z</time>
      </trkpt>
      <trkpt lat="44.93144" lon="5.43006">
        <ele>791</ele>
        <time>2022-09-22T13:32:47.246Z</time>
      </trkpt>
      <trkpt lat="44.93142" lon="5.43005">
        <ele>791</ele>
        <time>2022-09-22T13:32:48.246Z</time>
      </trkpt>
      <trkpt lat="44.9314" lon="5.43004">
        <ele>790</ele>
        <time>2022-09-22T13:32:49.247Z</time>
      </trkpt>
      <trkpt lat="44.93138" lon="5.43004">
        <ele>790</ele>
        <time>2022-09-22T13:32:50.246Z</time>
      </trkpt>
      <trkpt lat="44.93136" lon="5.43003">
        <ele>790</ele>
        <time>2022-09-22T13:32:51.247Z</time>
      </trkpt>
      <trkpt lat="44.93134" lon="5.43003">
        <ele>790</ele>
        <time>2022-09-22T13:32:52.247Z</time>
      </trkpt>
      <trkpt lat="44.93132" lon="5.43002">
        <ele>790</ele>
        <time>2022-09-22T13:32:53.246Z</time>
      </trkpt>
      <trkpt lat="44.9313" lon="5.43002">
        <ele>791</ele>
        <time>2022-09-22T13:32:54.247Z</time>
      </trkpt>
      <trkpt lat="44.93127" lon="5.43001">
        <ele>790</ele>
        <time>2022-09-22T13:32:55.246Z</time>
      </trkpt>
      <trkpt lat="44.93126" lon="5.43001">
        <ele>790</ele>
        <time>2022-09-22T13:32:56.247Z</time>
      </trkpt>
      <trkpt lat="44.93124" lon="5.43001">
        <ele>790</ele>
        <time>2022-09-22T13:32:57.247Z</time>
      </trkpt>
      <trkpt lat="44.93122" lon="5.43">
        <ele>790</ele>
        <time>2022-09-22T13:32:58.247Z</time>
      </trkpt>
      <trkpt lat="44.93119" lon="5.43">
        <ele>790</ele>
        <time>2022-09-22T13:32:59.247Z</time>
      </trkpt>
      <trkpt lat="44.93118" lon="5.43">
        <ele>790</ele>
        <time>2022-09-22T13:33:00.246Z</time>
      </trkpt>
      <trkpt lat="44.93116" lon="5.43001">
        <ele>790</ele>
        <time>2022-09-22T13:33:01.247Z</time>
      </trkpt>
      <trkpt lat="44.93114" lon="5.43001">
        <ele>791</ele>
        <time>2022-09-22T13:33:02.246Z</time>
      </trkpt>
      <trkpt lat="44.93112" lon="5.43001">
        <ele>791</ele>
        <time>2022-09-22T13:33:03.247Z</time>
      </trkpt>
      <trkpt lat="44.9311" lon="5.43001">
        <ele>791</ele>
        <time>2022-09-22T13:33:04.247Z</time>
      </trkpt>
      <trkpt lat="44.93108" lon="5.43002">
        <ele>792</ele>
        <time>2022-09-22T13:33:05.247Z</time>
      </trkpt>
      <trkpt lat="44.93106" lon="5.43002">
        <ele>792</ele>
        <time>2022-09-22T13:33:06.246Z</time>
      </trkpt>
      <trkpt lat="44.93104" lon="5.43002">
        <ele>792</ele>
        <time>2022-09-22T13:33:07.247Z</time>
      </trkpt>
      <trkpt lat="44.93102" lon="5.43002">
        <ele>792</ele>
        <time>2022-09-22T13:33:08.247Z</time>
      </trkpt>
      <trkpt lat="44.931" lon="5.43002">
        <ele>792</ele>
        <time>2022-09-22T13:33:09.247Z</time>
      </trkpt>
      <trkpt lat="44.93098" lon="5.43002">
        <ele>792</ele>
        <time>2022-09-22T13:33:10.247Z</time>
      </trkpt>
      <trkpt lat="44.93096" lon="5.43002">
        <ele>792</ele>
        <time>2022-09-22T13:33:11.247Z</time>
      </trkpt>
      <trkpt lat="44.93094" lon="5.43002">
        <ele>791</ele>
        <time>2022-09-22T13:33:12.247Z</time>
      </trkpt>
      <trkpt lat="44.93092" lon="5.43002">
        <ele>791</ele>
        <time>2022-09-22T13:33:13.247Z</time>
      </trkpt>
      <trkpt lat="44.9309" lon="5.43002">
        <ele>791</ele>
        <time>2022-09-22T13:33:14.247Z</time>
      </trkpt>
      <trkpt lat="44.93088" lon="5.43002">
        <ele>791</ele>
        <time>2022-09-22T13:33:15.247Z</time>
      </trkpt>
      <trkpt lat="44.93086" lon="5.43002">
        <ele>791</ele>
        <time>2022-09-22T13:33:16.247Z</time>
      </trkpt>
      <trkpt lat="44.93083" lon="5.43002">
        <ele>792</ele>
        <time>2022-09-22T13:33:17.247Z</time>
      </trkpt>
      <trkpt lat="44.93081" lon="5.43002">
        <ele>792</ele>
        <time>2022-09-22T13:33:18.247Z</time>
      </trkpt>
      <trkpt lat="44.93079" lon="5.43002">
        <ele>792</ele>
        <time>2022-09-22T13:33:19.247Z</time>
      </trkpt>
      <trkpt lat="44.93077" lon="5.43002">
        <ele>793</ele>
        <time>2022-09-22T13:33:20.247Z</time>
      </trkpt>
      <trkpt lat="44.93074" lon="5.43002">
        <ele>793</ele>
        <time>2022-09-22T13:33:21.247Z</time>
      </trkpt>
      <trkpt lat="44.93073" lon="5.43002">
        <ele>793</ele>
        <time>2022-09-22T13:33:22.247Z</time>
      </trkpt>
      <trkpt lat="44.93071" lon="5.43002">
        <ele>793</ele>
        <time>2022-09-22T13:33:23.247Z</time>
      </trkpt>
      <trkpt lat="44.93069" lon="5.43002">
        <ele>793</ele>
        <time>2022-09-22T13:33:24.247Z</time>
      </trkpt>
      <trkpt lat="44.93067" lon="5.43002">
        <ele>792</ele>
        <time>2022-09-22T13:33:25.247Z</time>
      </trkpt>
      <trkpt lat="44.93064" lon="5.43003">
        <ele>792</ele>
        <time>2022-09-22T13:33:26.247Z</time>
      </trkpt>
      <trkpt lat="44.93062" lon="5.43003">
        <ele>792</ele>
        <time>2022-09-22T13:33:27.247Z</time>
      </trkpt>
      <trkpt lat="44.9306" lon="5.43003">
        <ele>792</ele>
        <time>2022-09-22T13:33:28.247Z</time>
      </trkpt>
      <trkpt lat="44.93058" lon="5.43004">
        <ele>793</ele>
        <time>2022-09-22T13:33:29.247Z</time>
      </trkpt>
      <trkpt lat="44.93056" lon="5.43005">
        <ele>793</ele>
        <time>2022-09-22T13:33:30.247Z</time>
      </trkpt>
      <trkpt lat="44.93054" lon="5.43005">
        <ele>793</ele>
        <time>2022-09-22T13:33:31.246Z</time>
      </trkpt>
      <trkpt lat="44.93052" lon="5.43006">
        <ele>793</ele>
        <time>2022-09-22T13:33:32.247Z</time>
      </trkpt>
      <trkpt lat="44.9305" lon="5.43006">
        <ele>793</ele>
        <time>2022-09-22T13:33:33.247Z</time>
      </trkpt>
      <trkpt lat="44.93048" lon="5.43006">
        <ele>793</ele>
        <time>2022-09-22T13:33:34.247Z</time>
      </trkpt>
      <trkpt lat="44.93046" lon="5.43007">
        <ele>793</ele>
        <time>2022-09-22T13:33:35.246Z</time>
      </trkpt>
      <trkpt lat="44.93044" lon="5.43007">
        <ele>793</ele>
        <time>2022-09-22T13:33:36.247Z</time>
      </trkpt>
      <trkpt lat="44.93042" lon="5.43007">
        <ele>793</ele>
        <time>2022-09-22T13:33:37.247Z</time>
      </trkpt>
      <trkpt lat="44.9304" lon="5.43007">
        <ele>794</ele>
        <time>2022-09-22T13:33:38.246Z</time>
      </trkpt>
      <trkpt lat="44.93038" lon="5.43007">
        <ele>794</ele>
        <time>2022-09-22T13:33:39.247Z</time>
      </trkpt>
      <trkpt lat="44.93035" lon="5.43008">
        <ele>795</ele>
        <time>2022-09-22T13:33:40.247Z</time>
      </trkpt>
      <trkpt lat="44.93034" lon="5.43008">
        <ele>795</ele>
        <time>2022-09-22T13:33:41.247Z</time>
      </trkpt>
      <trkpt lat="44.93031" lon="5.43008">
        <ele>795</ele>
        <time>2022-09-22T13:33:42.247Z</time>
      </trkpt>
      <trkpt lat="44.93029" lon="5.43009">
        <ele>795</ele>
        <time>2022-09-22T13:33:43.247Z</time>
      </trkpt>
      <trkpt lat="44.93027" lon="5.43009">
        <ele>795</ele>
        <time>2022-09-22T13:33:44.247Z</time>
      </trkpt>
      <trkpt lat="44.93025" lon="5.43009">
        <ele>795</ele>
        <time>2022-09-22T13:33:45.247Z</time>
      </trkpt>
      <trkpt lat="44.93024" lon="5.43009">
        <ele>796</ele>
        <time>2022-09-22T13:33:46.246Z</time>
      </trkpt>
      <trkpt lat="44.93022" lon="5.43009">
        <ele>796</ele>
        <time>2022-09-22T13:33:47.247Z</time>
      </trkpt>
      <trkpt lat="44.9302" lon="5.4301">
        <ele>796</ele>
        <time>2022-09-22T13:33:48.246Z</time>
      </trkpt>
      <trkpt lat="44.93018" lon="5.4301">
        <ele>796</ele>
        <time>2022-09-22T13:33:49.247Z</time>
      </trkpt>
      <trkpt lat="44.93016" lon="5.4301">
        <ele>796</ele>
        <time>2022-09-22T13:33:50.246Z</time>
      </trkpt>
      <trkpt lat="44.93014" lon="5.43011">
        <ele>796</ele>
        <time>2022-09-22T13:33:51.247Z</time>
      </trkpt>
      <trkpt lat="44.93012" lon="5.43012">
        <ele>795</ele>
        <time>2022-09-22T13:33:52.247Z</time>
      </trkpt>
      <trkpt lat="44.9301" lon="5.43012">
        <ele>795</ele>
        <time>2022-09-22T13:33:53.246Z</time>
      </trkpt>
      <trkpt lat="44.93008" lon="5.43013">
        <ele>795</ele>
        <time>2022-09-22T13:33:54.247Z</time>
      </trkpt>
      <trkpt lat="44.93005" lon="5.43014">
        <ele>795</ele>
        <time>2022-09-22T13:33:55.247Z</time>
      </trkpt>
      <trkpt lat="44.93001" lon="5.43015">
        <ele>795</ele>
        <time>2022-09-22T13:33:56.247Z</time>
      </trkpt>
      <trkpt lat="44.92997" lon="5.43016">
        <ele>795</ele>
        <time>2022-09-22T13:33:57.247Z</time>
      </trkpt>
      <trkpt lat="44.92994" lon="5.43017">
        <ele>795</ele>
        <time>2022-09-22T13:33:58.247Z</time>
      </trkpt>
      <trkpt lat="44.92992" lon="5.43018">
        <ele>796</ele>
        <time>2022-09-22T13:33:59.247Z</time>
      </trkpt>
      <trkpt lat="44.92989" lon="5.43019">
        <ele>796</ele>
        <time>2022-09-22T13:34:00.246Z</time>
      </trkpt>
      <trkpt lat="44.92987" lon="5.4302">
        <ele>797</ele>
        <time>2022-09-22T13:34:01.247Z</time>
      </trkpt>
      <trkpt lat="44.92985" lon="5.43021">
        <ele>797</ele>
        <time>2022-09-22T13:34:02.247Z</time>
      </trkpt>
      <trkpt lat="44.92983" lon="5.43022">
        <ele>797</ele>
        <time>2022-09-22T13:34:03.247Z</time>
      </trkpt>
      <trkpt lat="44.92981" lon="5.43022">
        <ele>797</ele>
        <time>2022-09-22T13:34:04.247Z</time>
      </trkpt>
      <trkpt lat="44.92979" lon="5.43022">
        <ele>797</ele>
        <time>2022-09-22T13:34:05.247Z</time>
      </trkpt>
      <trkpt lat="44.92977" lon="5.43023">
        <ele>797</ele>
        <time>2022-09-22T13:34:06.247Z</time>
      </trkpt>
      <trkpt lat="44.92976" lon="5.43023">
        <ele>797</ele>
        <time>2022-09-22T13:34:07.247Z</time>
      </trkpt>
      <trkpt lat="44.92974" lon="5.43023">
        <ele>797</ele>
        <time>2022-09-22T13:34:08.246Z</time>
      </trkpt>
      <trkpt lat="44.92972" lon="5.43023">
        <ele>797</ele>
        <time>2022-09-22T13:34:09.247Z</time>
      </trkpt>
      <trkpt lat="44.9297" lon="5.43023">
        <ele>797</ele>
        <time>2022-09-22T13:34:10.246Z</time>
      </trkpt>
      <trkpt lat="44.92968" lon="5.43024">
        <ele>798</ele>
        <time>2022-09-22T13:34:11.247Z</time>
      </trkpt>
      <trkpt lat="44.92966" lon="5.43024">
        <ele>798</ele>
        <time>2022-09-22T13:34:12.247Z</time>
      </trkpt>
      <trkpt lat="44.92964" lon="5.43024">
        <ele>799</ele>
        <time>2022-09-22T13:34:13.247Z</time>
      </trkpt>
      <trkpt lat="44.92962" lon="5.43024">
        <ele>800</ele>
        <time>2022-09-22T13:34:14.246Z</time>
      </trkpt>
      <trkpt lat="44.9296" lon="5.43023">
        <ele>800</ele>
        <time>2022-09-22T13:34:15.247Z</time>
      </trkpt>
      <trkpt lat="44.92958" lon="5.43023">
        <ele>800</ele>
        <time>2022-09-22T13:34:16.247Z</time>
      </trkpt>
      <trkpt lat="44.92956" lon="5.43023">
        <ele>800</ele>
        <time>2022-09-22T13:34:17.247Z</time>
      </trkpt>
      <trkpt lat="44.92954" lon="5.43023">
        <ele>800</ele>
        <time>2022-09-22T13:34:18.247Z</time>
      </trkpt>
      <trkpt lat="44.92952" lon="5.43022">
        <ele>799</ele>
        <time>2022-09-22T13:34:19.246Z</time>
      </trkpt>
      <trkpt lat="44.9295" lon="5.43022">
        <ele>799</ele>
        <time>2022-09-22T13:34:20.246Z</time>
      </trkpt>
      <trkpt lat="44.92947" lon="5.43022">
        <ele>799</ele>
        <time>2022-09-22T13:34:21.247Z</time>
      </trkpt>
      <trkpt lat="44.92945" lon="5.43021">
        <ele>799</ele>
        <time>2022-09-22T13:34:22.247Z</time>
      </trkpt>
      <trkpt lat="44.92943" lon="5.43021">
        <ele>799</ele>
        <time>2022-09-22T13:34:23.247Z</time>
      </trkpt>
      <trkpt lat="44.9294" lon="5.4302">
        <ele>799</ele>
        <time>2022-09-22T13:34:24.246Z</time>
      </trkpt>
      <trkpt lat="44.92938" lon="5.43019">
        <ele>799</ele>
        <time>2022-09-22T13:34:25.247Z</time>
      </trkpt>
      <trkpt lat="44.92936" lon="5.43018">
        <ele>799</ele>
        <time>2022-09-22T13:34:26.247Z</time>
      </trkpt>
      <trkpt lat="44.92934" lon="5.43017">
        <ele>798</ele>
        <time>2022-09-22T13:34:27.247Z</time>
      </trkpt>
      <trkpt lat="44.92932" lon="5.43017">
        <ele>798</ele>
        <time>2022-09-22T13:34:28.247Z</time>
      </trkpt>
      <trkpt lat="44.9293" lon="5.43016">
        <ele>798</ele>
        <time>2022-09-22T13:34:29.247Z</time>
      </trkpt>
      <trkpt lat="44.92927" lon="5.43015">
        <ele>797</ele>
        <time>2022-09-22T13:34:30.247Z</time>
      </trkpt>
      <trkpt lat="44.92925" lon="5.43015">
        <ele>797</ele>
        <time>2022-09-22T13:34:31.247Z</time>
      </trkpt>
      <trkpt lat="44.92923" lon="5.43014">
        <ele>797</ele>
        <time>2022-09-22T13:34:32.247Z</time>
      </trkpt>
      <trkpt lat="44.92921" lon="5.43014">
        <ele>797</ele>
        <time>2022-09-22T13:34:33.247Z</time>
      </trkpt>
      <trkpt lat="44.92919" lon="5.43014">
        <ele>797</ele>
        <time>2022-09-22T13:34:34.247Z</time>
      </trkpt>
      <trkpt lat="44.92917" lon="5.43013">
        <ele>797</ele>
        <time>2022-09-22T13:34:35.247Z</time>
      </trkpt>
      <trkpt lat="44.92914" lon="5.43013">
        <ele>797</ele>
        <time>2022-09-22T13:34:36.247Z</time>
      </trkpt>
      <trkpt lat="44.92912" lon="5.43012">
        <ele>796</ele>
        <time>2022-09-22T13:34:37.247Z</time>
      </trkpt>
      <trkpt lat="44.9291" lon="5.43012">
        <ele>796</ele>
        <time>2022-09-22T13:34:38.247Z</time>
      </trkpt>
      <trkpt lat="44.92908" lon="5.43011">
        <ele>796</ele>
        <time>2022-09-22T13:34:39.247Z</time>
      </trkpt>
      <trkpt lat="44.92905" lon="5.43011">
        <ele>796</ele>
        <time>2022-09-22T13:34:40.246Z</time>
      </trkpt>
      <trkpt lat="44.92903" lon="5.43011">
        <ele>796</ele>
        <time>2022-09-22T13:34:41.246Z</time>
      </trkpt>
      <trkpt lat="44.92901" lon="5.43011">
        <ele>796</ele>
        <time>2022-09-22T13:34:42.247Z</time>
      </trkpt>
      <trkpt lat="44.92898" lon="5.4301">
        <ele>796</ele>
        <time>2022-09-22T13:34:43.246Z</time>
      </trkpt>
      <trkpt lat="44.92896" lon="5.43009">
        <ele>796</ele>
        <time>2022-09-22T13:34:44.246Z</time>
      </trkpt>
      <trkpt lat="44.92894" lon="5.43009">
        <ele>796</ele>
        <time>2022-09-22T13:34:45.247Z</time>
      </trkpt>
      <trkpt lat="44.92891" lon="5.43008">
        <ele>796</ele>
        <time>2022-09-22T13:34:46.247Z</time>
      </trkpt>
      <trkpt lat="44.92889" lon="5.43007">
        <ele>796</ele>
        <time>2022-09-22T13:34:47.247Z</time>
      </trkpt>
      <trkpt lat="44.92887" lon="5.43006">
        <ele>796</ele>
        <time>2022-09-22T13:34:48.247Z</time>
      </trkpt>
      <trkpt lat="44.92885" lon="5.43005">
        <ele>796</ele>
        <time>2022-09-22T13:34:49.247Z</time>
      </trkpt>
      <trkpt lat="44.92882" lon="5.43003">
        <ele>796</ele>
        <time>2022-09-22T13:34:50.247Z</time>
      </trkpt>
      <trkpt lat="44.9288" lon="5.43001">
        <ele>796</ele>
        <time>2022-09-22T13:34:51.246Z</time>
      </trkpt>
      <trkpt lat="44.92878" lon="5.42999">
        <ele>795</ele>
        <time>2022-09-22T13:34:52.247Z</time>
      </trkpt>
      <trkpt lat="44.92876" lon="5.42997">
        <ele>795</ele>
        <time>2022-09-22T13:34:53.247Z</time>
      </trkpt>
      <trkpt lat="44.92873" lon="5.42996">
        <ele>796</ele>
        <time>2022-09-22T13:34:54.247Z</time>
      </trkpt>
      <trkpt lat="44.92871" lon="5.42994">
        <ele>796</ele>
        <time>2022-09-22T13:34:55.247Z</time>
      </trkpt>
      <trkpt lat="44.92869" lon="5.42992">
        <ele>796</ele>
        <time>2022-09-22T13:34:56.246Z</time>
      </trkpt>
      <trkpt lat="44.92867" lon="5.4299">
        <ele>796</ele>
        <time>2022-09-22T13:34:57.247Z</time>
      </trkpt>
      <trkpt lat="44.92865" lon="5.42988">
        <ele>796</ele>
        <time>2022-09-22T13:34:58.247Z</time>
      </trkpt>
      <trkpt lat="44.92863" lon="5.42986">
        <ele>796</ele>
        <time>2022-09-22T13:34:59.247Z</time>
      </trkpt>
      <trkpt lat="44.92861" lon="5.42984">
        <ele>796</ele>
        <time>2022-09-22T13:35:00.247Z</time>
      </trkpt>
      <trkpt lat="44.92859" lon="5.42982">
        <ele>797</ele>
        <time>2022-09-22T13:35:01.247Z</time>
      </trkpt>
      <trkpt lat="44.92857" lon="5.4298">
        <ele>796</ele>
        <time>2022-09-22T13:35:02.246Z</time>
      </trkpt>
      <trkpt lat="44.92856" lon="5.42978">
        <ele>796</ele>
        <time>2022-09-22T13:35:03.246Z</time>
      </trkpt>
      <trkpt lat="44.92854" lon="5.42976">
        <ele>796</ele>
        <time>2022-09-22T13:35:04.247Z</time>
      </trkpt>
      <trkpt lat="44.92852" lon="5.42975">
        <ele>796</ele>
        <time>2022-09-22T13:35:05.247Z</time>
      </trkpt>
      <trkpt lat="44.9285" lon="5.42973">
        <ele>796</ele>
        <time>2022-09-22T13:35:06.247Z</time>
      </trkpt>
      <trkpt lat="44.92847" lon="5.42971">
        <ele>796</ele>
        <time>2022-09-22T13:35:07.247Z</time>
      </trkpt>
      <trkpt lat="44.92845" lon="5.4297">
        <ele>795</ele>
        <time>2022-09-22T13:35:08.247Z</time>
      </trkpt>
      <trkpt lat="44.92843" lon="5.42969">
        <ele>795</ele>
        <time>2022-09-22T13:35:09.247Z</time>
      </trkpt>
      <trkpt lat="44.9284" lon="5.42968">
        <ele>795</ele>
        <time>2022-09-22T13:35:10.246Z</time>
      </trkpt>
      <trkpt lat="44.92838" lon="5.42967">
        <ele>795</ele>
        <time>2022-09-22T13:35:11.247Z</time>
      </trkpt>
      <trkpt lat="44.92835" lon="5.42967">
        <ele>795</ele>
        <time>2022-09-22T13:35:12.246Z</time>
      </trkpt>
      <trkpt lat="44.92833" lon="5.42967">
        <ele>795</ele>
        <time>2022-09-22T13:35:13.247Z</time>
      </trkpt>
      <trkpt lat="44.9283" lon="5.42967">
        <ele>795</ele>
        <time>2022-09-22T13:35:14.247Z</time>
      </trkpt>
      <trkpt lat="44.92828" lon="5.42966">
        <ele>795</ele>
        <time>2022-09-22T13:35:15.247Z</time>
      </trkpt>
      <trkpt lat="44.92825" lon="5.42966">
        <ele>795</ele>
        <time>2022-09-22T13:35:16.247Z</time>
      </trkpt>
      <trkpt lat="44.92823" lon="5.42966">
        <ele>795</ele>
        <time>2022-09-22T13:35:17.247Z</time>
      </trkpt>
      <trkpt lat="44.9282" lon="5.42966">
        <ele>795</ele>
        <time>2022-09-22T13:35:18.247Z</time>
      </trkpt>
      <trkpt lat="44.92817" lon="5.42966">
        <ele>795</ele>
        <time>2022-09-22T13:35:19.246Z</time>
      </trkpt>
      <trkpt lat="44.92815" lon="5.42966">
        <ele>795</ele>
        <time>2022-09-22T13:35:20.246Z</time>
      </trkpt>
      <trkpt lat="44.92813" lon="5.42966">
        <ele>795</ele>
        <time>2022-09-22T13:35:21.247Z</time>
      </trkpt>
      <trkpt lat="44.9281" lon="5.42965">
        <ele>795</ele>
        <time>2022-09-22T13:35:22.246Z</time>
      </trkpt>
      <trkpt lat="44.92808" lon="5.42965">
        <ele>795</ele>
        <time>2022-09-22T13:35:23.247Z</time>
      </trkpt>
      <trkpt lat="44.92805" lon="5.42965">
        <ele>795</ele>
        <time>2022-09-22T13:35:24.247Z</time>
      </trkpt>
      <trkpt lat="44.92803" lon="5.42965">
        <ele>796</ele>
        <time>2022-09-22T13:35:25.247Z</time>
      </trkpt>
      <trkpt lat="44.928" lon="5.42965">
        <ele>796</ele>
        <time>2022-09-22T13:35:26.247Z</time>
      </trkpt>
      <trkpt lat="44.92798" lon="5.42965">
        <ele>796</ele>
        <time>2022-09-22T13:35:27.247Z</time>
      </trkpt>
      <trkpt lat="44.92795" lon="5.42965">
        <ele>796</ele>
        <time>2022-09-22T13:35:28.247Z</time>
      </trkpt>
      <trkpt lat="44.92793" lon="5.42965">
        <ele>795</ele>
        <time>2022-09-22T13:35:29.246Z</time>
      </trkpt>
      <trkpt lat="44.92791" lon="5.42965">
        <ele>795</ele>
        <time>2022-09-22T13:35:30.247Z</time>
      </trkpt>
      <trkpt lat="44.92788" lon="5.42965">
        <ele>795</ele>
        <time>2022-09-22T13:35:31.247Z</time>
      </trkpt>
      <trkpt lat="44.92786" lon="5.42966">
        <ele>795</ele>
        <time>2022-09-22T13:35:32.246Z</time>
      </trkpt>
      <trkpt lat="44.92784" lon="5.42966">
        <ele>795</ele>
        <time>2022-09-22T13:35:33.247Z</time>
      </trkpt>
      <trkpt lat="44.92781" lon="5.42967">
        <ele>795</ele>
        <time>2022-09-22T13:35:34.247Z</time>
      </trkpt>
      <trkpt lat="44.92779" lon="5.42967">
        <ele>795</ele>
        <time>2022-09-22T13:35:35.246Z</time>
      </trkpt>
      <trkpt lat="44.92776" lon="5.42968">
        <ele>795</ele>
        <time>2022-09-22T13:35:36.247Z</time>
      </trkpt>
      <trkpt lat="44.92774" lon="5.42968">
        <ele>796</ele>
        <time>2022-09-22T13:35:37.247Z</time>
      </trkpt>
      <trkpt lat="44.92771" lon="5.42969">
        <ele>796</ele>
        <time>2022-09-22T13:35:38.247Z</time>
      </trkpt>
      <trkpt lat="44.92769" lon="5.42969">
        <ele>796</ele>
        <time>2022-09-22T13:35:39.247Z</time>
      </trkpt>
      <trkpt lat="44.92766" lon="5.4297">
        <ele>796</ele>
        <time>2022-09-22T13:35:40.246Z</time>
      </trkpt>
      <trkpt lat="44.92764" lon="5.4297">
        <ele>796</ele>
        <time>2022-09-22T13:35:41.247Z</time>
      </trkpt>
      <trkpt lat="44.92762" lon="5.42971">
        <ele>797</ele>
        <time>2022-09-22T13:35:42.246Z</time>
      </trkpt>
      <trkpt lat="44.92759" lon="5.42971">
        <ele>797</ele>
        <time>2022-09-22T13:35:43.246Z</time>
      </trkpt>
      <trkpt lat="44.92757" lon="5.42972">
        <ele>797</ele>
        <time>2022-09-22T13:35:44.247Z</time>
      </trkpt>
      <trkpt lat="44.92755" lon="5.42973">
        <ele>797</ele>
        <time>2022-09-22T13:35:45.247Z</time>
      </trkpt>
      <trkpt lat="44.92753" lon="5.42974">
        <ele>796</ele>
        <time>2022-09-22T13:35:46.246Z</time>
      </trkpt>
      <trkpt lat="44.9275" lon="5.42975">
        <ele>796</ele>
        <time>2022-09-22T13:35:47.247Z</time>
      </trkpt>
      <trkpt lat="44.92748" lon="5.42975">
        <ele>797</ele>
        <time>2022-09-22T13:35:48.247Z</time>
      </trkpt>
      <trkpt lat="44.92746" lon="5.42976">
        <ele>797</ele>
        <time>2022-09-22T13:35:49.247Z</time>
      </trkpt>
      <trkpt lat="44.92743" lon="5.42977">
        <ele>798</ele>
        <time>2022-09-22T13:35:50.246Z</time>
      </trkpt>
      <trkpt lat="44.92741" lon="5.42977">
        <ele>798</ele>
        <time>2022-09-22T13:35:51.247Z</time>
      </trkpt>
      <trkpt lat="44.92739" lon="5.42978">
        <ele>798</ele>
        <time>2022-09-22T13:35:52.246Z</time>
      </trkpt>
      <trkpt lat="44.92736" lon="5.42978">
        <ele>797</ele>
        <time>2022-09-22T13:35:53.246Z</time>
      </trkpt>
      <trkpt lat="44.92734" lon="5.42977">
        <ele>797</ele>
        <time>2022-09-22T13:35:54.247Z</time>
      </trkpt>
      <trkpt lat="44.92732" lon="5.42977">
        <ele>797</ele>
        <time>2022-09-22T13:35:55.247Z</time>
      </trkpt>
      <trkpt lat="44.9273" lon="5.42976">
        <ele>797</ele>
        <time>2022-09-22T13:35:56.247Z</time>
      </trkpt>
      <trkpt lat="44.92727" lon="5.42975">
        <ele>797</ele>
        <time>2022-09-22T13:35:57.247Z</time>
      </trkpt>
      <trkpt lat="44.92725" lon="5.42974">
        <ele>797</ele>
        <time>2022-09-22T13:35:58.246Z</time>
      </trkpt>
      <trkpt lat="44.92723" lon="5.42972">
        <ele>797</ele>
        <time>2022-09-22T13:35:59.246Z</time>
      </trkpt>
      <trkpt lat="44.92721" lon="5.4297">
        <ele>797</ele>
        <time>2022-09-22T13:36:00.247Z</time>
      </trkpt>
      <trkpt lat="44.92718" lon="5.42969">
        <ele>797</ele>
        <time>2022-09-22T13:36:01.247Z</time>
      </trkpt>
      <trkpt lat="44.92716" lon="5.42967">
        <ele>798</ele>
        <time>2022-09-22T13:36:02.246Z</time>
      </trkpt>
      <trkpt lat="44.92714" lon="5.42965">
        <ele>798</ele>
        <time>2022-09-22T13:36:03.246Z</time>
      </trkpt>
      <trkpt lat="44.92712" lon="5.42963">
        <ele>798</ele>
        <time>2022-09-22T13:36:04.247Z</time>
      </trkpt>
      <trkpt lat="44.9271" lon="5.42961">
        <ele>798</ele>
        <time>2022-09-22T13:36:05.247Z</time>
      </trkpt>
      <trkpt lat="44.92708" lon="5.4296">
        <ele>799</ele>
        <time>2022-09-22T13:36:06.247Z</time>
      </trkpt>
      <trkpt lat="44.92706" lon="5.42958">
        <ele>799</ele>
        <time>2022-09-22T13:36:07.247Z</time>
      </trkpt>
      <trkpt lat="44.92704" lon="5.42956">
        <ele>799</ele>
        <time>2022-09-22T13:36:08.247Z</time>
      </trkpt>
      <trkpt lat="44.92702" lon="5.42954">
        <ele>799</ele>
        <time>2022-09-22T13:36:09.247Z</time>
      </trkpt>
      <trkpt lat="44.92701" lon="5.42953">
        <ele>799</ele>
        <time>2022-09-22T13:36:10.246Z</time>
      </trkpt>
      <trkpt lat="44.92699" lon="5.42951">
        <ele>798</ele>
        <time>2022-09-22T13:36:11.246Z</time>
      </trkpt>
      <trkpt lat="44.92697" lon="5.42949">
        <ele>798</ele>
        <time>2022-09-22T13:36:12.247Z</time>
      </trkpt>
      <trkpt lat="44.92696" lon="5.42948">
        <ele>798</ele>
        <time>2022-09-22T13:36:13.247Z</time>
      </trkpt>
      <trkpt lat="44.92694" lon="5.42946">
        <ele>798</ele>
        <time>2022-09-22T13:36:14.247Z</time>
      </trkpt>
      <trkpt lat="44.92693" lon="5.42944">
        <ele>798</ele>
        <time>2022-09-22T13:36:15.247Z</time>
      </trkpt>
      <trkpt lat="44.92691" lon="5.42943">
        <ele>798</ele>
        <time>2022-09-22T13:36:16.247Z</time>
      </trkpt>
      <trkpt lat="44.92689" lon="5.42942">
        <ele>798</ele>
        <time>2022-09-22T13:36:17.247Z</time>
      </trkpt>
      <trkpt lat="44.92688" lon="5.42941">
        <ele>798</ele>
        <time>2022-09-22T13:36:18.247Z</time>
      </trkpt>
      <trkpt lat="44.92686" lon="5.4294">
        <ele>798</ele>
        <time>2022-09-22T13:36:19.247Z</time>
      </trkpt>
      <trkpt lat="44.92684" lon="5.42938">
        <ele>799</ele>
        <time>2022-09-22T13:36:20.247Z</time>
      </trkpt>
      <trkpt lat="44.92683" lon="5.42937">
        <ele>799</ele>
        <time>2022-09-22T13:36:21.247Z</time>
      </trkpt>
      <trkpt lat="44.92681" lon="5.42937">
        <ele>799</ele>
        <time>2022-09-22T13:36:22.246Z</time>
      </trkpt>
      <trkpt lat="44.92679" lon="5.42936">
        <ele>800</ele>
        <time>2022-09-22T13:36:23.247Z</time>
      </trkpt>
      <trkpt lat="44.92677" lon="5.42936">
        <ele>800</ele>
        <time>2022-09-22T13:36:24.247Z</time>
      </trkpt>
      <trkpt lat="44.92675" lon="5.42935">
        <ele>800</ele>
        <time>2022-09-22T13:36:25.247Z</time>
      </trkpt>
      <trkpt lat="44.92673" lon="5.42935">
        <ele>800</ele>
        <time>2022-09-22T13:36:26.247Z</time>
      </trkpt>
      <trkpt lat="44.92671" lon="5.42935">
        <ele>801</ele>
        <time>2022-09-22T13:36:27.246Z</time>
      </trkpt>
      <trkpt lat="44.92669" lon="5.42935">
        <ele>801</ele>
        <time>2022-09-22T13:36:28.247Z</time>
      </trkpt>
      <trkpt lat="44.92666" lon="5.42935">
        <ele>801</ele>
        <time>2022-09-22T13:36:29.247Z</time>
      </trkpt>
      <trkpt lat="44.92664" lon="5.42934">
        <ele>802</ele>
        <time>2022-09-22T13:36:30.247Z</time>
      </trkpt>
      <trkpt lat="44.92662" lon="5.42934">
        <ele>802</ele>
        <time>2022-09-22T13:36:31.247Z</time>
      </trkpt>
      <trkpt lat="44.92659" lon="5.42934">
        <ele>802</ele>
        <time>2022-09-22T13:36:32.247Z</time>
      </trkpt>
      <trkpt lat="44.92657" lon="5.42934">
        <ele>802</ele>
        <time>2022-09-22T13:36:33.246Z</time>
      </trkpt>
      <trkpt lat="44.92655" lon="5.42934">
        <ele>803</ele>
        <time>2022-09-22T13:36:34.246Z</time>
      </trkpt>
      <trkpt lat="44.92653" lon="5.42934">
        <ele>803</ele>
        <time>2022-09-22T13:36:35.247Z</time>
      </trkpt>
      <trkpt lat="44.9265" lon="5.42934">
        <ele>803</ele>
        <time>2022-09-22T13:36:36.247Z</time>
      </trkpt>
      <trkpt lat="44.92648" lon="5.42934">
        <ele>803</ele>
        <time>2022-09-22T13:36:37.246Z</time>
      </trkpt>
      <trkpt lat="44.92646" lon="5.42933">
        <ele>803</ele>
        <time>2022-09-22T13:36:38.247Z</time>
      </trkpt>
      <trkpt lat="44.92644" lon="5.42933">
        <ele>803</ele>
        <time>2022-09-22T13:36:39.246Z</time>
      </trkpt>
      <trkpt lat="44.92642" lon="5.42934">
        <ele>803</ele>
        <time>2022-09-22T13:36:40.247Z</time>
      </trkpt>
      <trkpt lat="44.9264" lon="5.42935">
        <ele>803</ele>
        <time>2022-09-22T13:36:41.246Z</time>
      </trkpt>
      <trkpt lat="44.92639" lon="5.42936">
        <ele>803</ele>
        <time>2022-09-22T13:36:42.247Z</time>
      </trkpt>
      <trkpt lat="44.92637" lon="5.42937">
        <ele>803</ele>
        <time>2022-09-22T13:36:43.247Z</time>
      </trkpt>
      <trkpt lat="44.92635" lon="5.42938">
        <ele>803</ele>
        <time>2022-09-22T13:36:44.247Z</time>
      </trkpt>
      <trkpt lat="44.92634" lon="5.4294">
        <ele>803</ele>
        <time>2022-09-22T13:36:45.247Z</time>
      </trkpt>
      <trkpt lat="44.92632" lon="5.42941">
        <ele>804</ele>
        <time>2022-09-22T13:36:46.247Z</time>
      </trkpt>
      <trkpt lat="44.9263" lon="5.42943">
        <ele>804</ele>
        <time>2022-09-22T13:36:47.246Z</time>
      </trkpt>
      <trkpt lat="44.92629" lon="5.42944">
        <ele>804</ele>
        <time>2022-09-22T13:36:48.247Z</time>
      </trkpt>
      <trkpt lat="44.92627" lon="5.42946">
        <ele>804</ele>
        <time>2022-09-22T13:36:49.246Z</time>
      </trkpt>
      <trkpt lat="44.92626" lon="5.42947">
        <ele>804</ele>
        <time>2022-09-22T13:36:50.247Z</time>
      </trkpt>
      <trkpt lat="44.92625" lon="5.42949">
        <ele>805</ele>
        <time>2022-09-22T13:36:51.247Z</time>
      </trkpt>
      <trkpt lat="44.92623" lon="5.42951">
        <ele>805</ele>
        <time>2022-09-22T13:36:52.246Z</time>
      </trkpt>
      <trkpt lat="44.92622" lon="5.42953">
        <ele>804</ele>
        <time>2022-09-22T13:36:53.246Z</time>
      </trkpt>
      <trkpt lat="44.92621" lon="5.42954">
        <ele>804</ele>
        <time>2022-09-22T13:36:54.246Z</time>
      </trkpt>
      <trkpt lat="44.9262" lon="5.42956">
        <ele>804</ele>
        <time>2022-09-22T13:36:55.246Z</time>
      </trkpt>
      <trkpt lat="44.92618" lon="5.42958">
        <ele>804</ele>
        <time>2022-09-22T13:36:56.247Z</time>
      </trkpt>
      <trkpt lat="44.92617" lon="5.42959">
        <ele>804</ele>
        <time>2022-09-22T13:36:57.247Z</time>
      </trkpt>
      <trkpt lat="44.92616" lon="5.42961">
        <ele>804</ele>
        <time>2022-09-22T13:36:58.247Z</time>
      </trkpt>
      <trkpt lat="44.92615" lon="5.42964">
        <ele>804</ele>
        <time>2022-09-22T13:36:59.246Z</time>
      </trkpt>
      <trkpt lat="44.92614" lon="5.42966">
        <ele>804</ele>
        <time>2022-09-22T13:37:00.247Z</time>
      </trkpt>
      <trkpt lat="44.92613" lon="5.42968">
        <ele>804</ele>
        <time>2022-09-22T13:37:01.246Z</time>
      </trkpt>
      <trkpt lat="44.92611" lon="5.4297">
        <ele>805</ele>
        <time>2022-09-22T13:37:02.247Z</time>
      </trkpt>
      <trkpt lat="44.9261" lon="5.42972">
        <ele>804</ele>
        <time>2022-09-22T13:37:03.247Z</time>
      </trkpt>
      <trkpt lat="44.92609" lon="5.42973">
        <ele>804</ele>
        <time>2022-09-22T13:37:04.246Z</time>
      </trkpt>
      <trkpt lat="44.92608" lon="5.42975">
        <ele>804</ele>
        <time>2022-09-22T13:37:05.247Z</time>
      </trkpt>
      <trkpt lat="44.92607" lon="5.42978">
        <ele>804</ele>
        <time>2022-09-22T13:37:06.247Z</time>
      </trkpt>
      <trkpt lat="44.92606" lon="5.4298">
        <ele>805</ele>
        <time>2022-09-22T13:37:07.246Z</time>
      </trkpt>
      <trkpt lat="44.92605" lon="5.42982">
        <ele>805</ele>
        <time>2022-09-22T13:37:08.247Z</time>
      </trkpt>
      <trkpt lat="44.92604" lon="5.42985">
        <ele>805</ele>
        <time>2022-09-22T13:37:09.246Z</time>
      </trkpt>
      <trkpt lat="44.92603" lon="5.42987">
        <ele>805</ele>
        <time>2022-09-22T13:37:10.246Z</time>
      </trkpt>
      <trkpt lat="44.92602" lon="5.42989">
        <ele>805</ele>
        <time>2022-09-22T13:37:11.246Z</time>
      </trkpt>
      <trkpt lat="44.92601" lon="5.42991">
        <ele>805</ele>
        <time>2022-09-22T13:37:12.247Z</time>
      </trkpt>
      <trkpt lat="44.926" lon="5.42993">
        <ele>806</ele>
        <time>2022-09-22T13:37:13.247Z</time>
      </trkpt>
      <trkpt lat="44.92599" lon="5.42995">
        <ele>806</ele>
        <time>2022-09-22T13:37:14.246Z</time>
      </trkpt>
      <trkpt lat="44.92598" lon="5.42996">
        <ele>806</ele>
        <time>2022-09-22T13:37:15.247Z</time>
      </trkpt>
      <trkpt lat="44.92597" lon="5.42998">
        <ele>806</ele>
        <time>2022-09-22T13:37:16.247Z</time>
      </trkpt>
      <trkpt lat="44.92596" lon="5.43">
        <ele>807</ele>
        <time>2022-09-22T13:37:17.247Z</time>
      </trkpt>
      <trkpt lat="44.92595" lon="5.43002">
        <ele>807</ele>
        <time>2022-09-22T13:37:18.247Z</time>
      </trkpt>
      <trkpt lat="44.92594" lon="5.43005">
        <ele>807</ele>
        <time>2022-09-22T13:37:19.247Z</time>
      </trkpt>
      <trkpt lat="44.92593" lon="5.43007">
        <ele>808</ele>
        <time>2022-09-22T13:37:20.247Z</time>
      </trkpt>
      <trkpt lat="44.92592" lon="5.43008">
        <ele>808</ele>
        <time>2022-09-22T13:37:21.247Z</time>
      </trkpt>
      <trkpt lat="44.92591" lon="5.43009">
        <ele>808</ele>
        <time>2022-09-22T13:37:22.247Z</time>
      </trkpt>
      <trkpt lat="44.92589" lon="5.43011">
        <ele>808</ele>
        <time>2022-09-22T13:37:23.247Z</time>
      </trkpt>
      <trkpt lat="44.92588" lon="5.43014">
        <ele>808</ele>
        <time>2022-09-22T13:37:24.247Z</time>
      </trkpt>
      <trkpt lat="44.92588" lon="5.43016">
        <ele>808</ele>
        <time>2022-09-22T13:37:25.246Z</time>
      </trkpt>
      <trkpt lat="44.92587" lon="5.43018">
        <ele>808</ele>
        <time>2022-09-22T13:37:26.247Z</time>
      </trkpt>
      <trkpt lat="44.92586" lon="5.43021">
        <ele>808</ele>
        <time>2022-09-22T13:37:27.247Z</time>
      </trkpt>
      <trkpt lat="44.92585" lon="5.43023">
        <ele>807</ele>
        <time>2022-09-22T13:37:28.247Z</time>
      </trkpt>
      <trkpt lat="44.92584" lon="5.43026">
        <ele>807</ele>
        <time>2022-09-22T13:37:29.247Z</time>
      </trkpt>
      <trkpt lat="44.92584" lon="5.43028">
        <ele>807</ele>
        <time>2022-09-22T13:37:30.247Z</time>
      </trkpt>
      <trkpt lat="44.92583" lon="5.4303">
        <ele>807</ele>
        <time>2022-09-22T13:37:31.247Z</time>
      </trkpt>
      <trkpt lat="44.92582" lon="5.43032">
        <ele>807</ele>
        <time>2022-09-22T13:37:32.246Z</time>
      </trkpt>
      <trkpt lat="44.92582" lon="5.43035">
        <ele>807</ele>
        <time>2022-09-22T13:37:33.247Z</time>
      </trkpt>
      <trkpt lat="44.92581" lon="5.43037">
        <ele>807</ele>
        <time>2022-09-22T13:37:34.246Z</time>
      </trkpt>
      <trkpt lat="44.9258" lon="5.43039">
        <ele>807</ele>
        <time>2022-09-22T13:37:35.247Z</time>
      </trkpt>
      <trkpt lat="44.9258" lon="5.43042">
        <ele>807</ele>
        <time>2022-09-22T13:37:36.246Z</time>
      </trkpt>
      <trkpt lat="44.92579" lon="5.43044">
        <ele>807</ele>
        <time>2022-09-22T13:37:37.247Z</time>
      </trkpt>
      <trkpt lat="44.92578" lon="5.43047">
        <ele>807</ele>
        <time>2022-09-22T13:37:38.246Z</time>
      </trkpt>
      <trkpt lat="44.92578" lon="5.43049">
        <ele>808</ele>
        <time>2022-09-22T13:37:39.247Z</time>
      </trkpt>
      <trkpt lat="44.92577" lon="5.4305">
        <ele>808</ele>
        <time>2022-09-22T13:37:40.247Z</time>
      </trkpt>
      <trkpt lat="44.92577" lon="5.43052">
        <ele>808</ele>
        <time>2022-09-22T13:37:41.246Z</time>
      </trkpt>
      <trkpt lat="44.92577" lon="5.43053">
        <ele>809</ele>
        <time>2022-09-22T13:37:42.247Z</time>
      </trkpt>
      <trkpt lat="44.92576" lon="5.43055">
        <ele>810</ele>
        <time>2022-09-22T13:37:43.247Z</time>
      </trkpt>
      <trkpt lat="44.92576" lon="5.43056">
        <ele>810</ele>
        <time>2022-09-22T13:37:44.247Z</time>
      </trkpt>
      <trkpt lat="44.92576" lon="5.43057">
        <ele>810</ele>
        <time>2022-09-22T13:37:45.247Z</time>
      </trkpt>
      <trkpt lat="44.92575" lon="5.43059">
        <ele>810</ele>
        <time>2022-09-22T13:37:46.247Z</time>
      </trkpt>
      <trkpt lat="44.92575" lon="5.43061">
        <ele>810</ele>
        <time>2022-09-22T13:37:47.247Z</time>
      </trkpt>
      <trkpt lat="44.92574" lon="5.43063">
        <ele>810</ele>
        <time>2022-09-22T13:37:48.247Z</time>
      </trkpt>
      <trkpt lat="44.92574" lon="5.43065">
        <ele>810</ele>
        <time>2022-09-22T13:37:49.247Z</time>
      </trkpt>
      <trkpt lat="44.92573" lon="5.43067">
        <ele>810</ele>
        <time>2022-09-22T13:37:50.247Z</time>
      </trkpt>
      <trkpt lat="44.92572" lon="5.43069">
        <ele>810</ele>
        <time>2022-09-22T13:37:51.247Z</time>
      </trkpt>
      <trkpt lat="44.92571" lon="5.43071">
        <ele>810</ele>
        <time>2022-09-22T13:37:52.247Z</time>
      </trkpt>
      <trkpt lat="44.92571" lon="5.43073">
        <ele>810</ele>
        <time>2022-09-22T13:37:53.247Z</time>
      </trkpt>
      <trkpt lat="44.9257" lon="5.43075">
        <ele>810</ele>
        <time>2022-09-22T13:37:54.247Z</time>
      </trkpt>
      <trkpt lat="44.92568" lon="5.43077">
        <ele>809</ele>
        <time>2022-09-22T13:37:55.246Z</time>
      </trkpt>
      <trkpt lat="44.92567" lon="5.43078">
        <ele>810</ele>
        <time>2022-09-22T13:37:56.247Z</time>
      </trkpt>
      <trkpt lat="44.92565" lon="5.4308">
        <ele>810</ele>
        <time>2022-09-22T13:37:57.247Z</time>
      </trkpt>
      <trkpt lat="44.92563" lon="5.43082">
        <ele>810</ele>
        <time>2022-09-22T13:37:58.247Z</time>
      </trkpt>
      <trkpt lat="44.92562" lon="5.43084">
        <ele>810</ele>
        <time>2022-09-22T13:37:59.247Z</time>
      </trkpt>
      <trkpt lat="44.9256" lon="5.43085">
        <ele>810</ele>
        <time>2022-09-22T13:38:00.247Z</time>
      </trkpt>
      <trkpt lat="44.92558" lon="5.43086">
        <ele>811</ele>
        <time>2022-09-22T13:38:01.246Z</time>
      </trkpt>
      <trkpt lat="44.92556" lon="5.43087">
        <ele>812</ele>
        <time>2022-09-22T13:38:02.247Z</time>
      </trkpt>
      <trkpt lat="44.92554" lon="5.43088">
        <ele>812</ele>
        <time>2022-09-22T13:38:03.246Z</time>
      </trkpt>
      <trkpt lat="44.92552" lon="5.43089">
        <ele>813</ele>
        <time>2022-09-22T13:38:04.247Z</time>
      </trkpt>
      <trkpt lat="44.9255" lon="5.4309">
        <ele>814</ele>
        <time>2022-09-22T13:38:05.246Z</time>
      </trkpt>
      <trkpt lat="44.92548" lon="5.43091">
        <ele>814</ele>
        <time>2022-09-22T13:38:06.247Z</time>
      </trkpt>
      <trkpt lat="44.92546" lon="5.43092">
        <ele>815</ele>
        <time>2022-09-22T13:38:07.247Z</time>
      </trkpt>
      <trkpt lat="44.92544" lon="5.43092">
        <ele>815</ele>
        <time>2022-09-22T13:38:08.246Z</time>
      </trkpt>
      <trkpt lat="44.92542" lon="5.43093">
        <ele>816</ele>
        <time>2022-09-22T13:38:09.247Z</time>
      </trkpt>
      <trkpt lat="44.9254" lon="5.43094">
        <ele>816</ele>
        <time>2022-09-22T13:38:10.247Z</time>
      </trkpt>
      <trkpt lat="44.92538" lon="5.43095">
        <ele>816</ele>
        <time>2022-09-22T13:38:11.247Z</time>
      </trkpt>
      <trkpt lat="44.92536" lon="5.43095">
        <ele>816</ele>
        <time>2022-09-22T13:38:12.247Z</time>
      </trkpt>
      <trkpt lat="44.92534" lon="5.43096">
        <ele>816</ele>
        <time>2022-09-22T13:38:13.246Z</time>
      </trkpt>
      <trkpt lat="44.92532" lon="5.43096">
        <ele>815</ele>
        <time>2022-09-22T13:38:14.246Z</time>
      </trkpt>
      <trkpt lat="44.9253" lon="5.43097">
        <ele>815</ele>
        <time>2022-09-22T13:38:15.246Z</time>
      </trkpt>
      <trkpt lat="44.92528" lon="5.43097">
        <ele>815</ele>
        <time>2022-09-22T13:38:16.247Z</time>
      </trkpt>
      <trkpt lat="44.92526" lon="5.43097">
        <ele>815</ele>
        <time>2022-09-22T13:38:17.247Z</time>
      </trkpt>
      <trkpt lat="44.92524" lon="5.43097">
        <ele>815</ele>
        <time>2022-09-22T13:38:18.247Z</time>
      </trkpt>
      <trkpt lat="44.92522" lon="5.43097">
        <ele>814</ele>
        <time>2022-09-22T13:38:19.247Z</time>
      </trkpt>
      <trkpt lat="44.9252" lon="5.43097">
        <ele>814</ele>
        <time>2022-09-22T13:38:20.246Z</time>
      </trkpt>
      <trkpt lat="44.92517" lon="5.43097">
        <ele>814</ele>
        <time>2022-09-22T13:38:21.246Z</time>
      </trkpt>
      <trkpt lat="44.92515" lon="5.43097">
        <ele>814</ele>
        <time>2022-09-22T13:38:22.246Z</time>
      </trkpt>
      <trkpt lat="44.92513" lon="5.43098">
        <ele>815</ele>
        <time>2022-09-22T13:38:23.246Z</time>
      </trkpt>
      <trkpt lat="44.92511" lon="5.43098">
        <ele>815</ele>
        <time>2022-09-22T13:38:24.246Z</time>
      </trkpt>
      <trkpt lat="44.92509" lon="5.43098">
        <ele>815</ele>
        <time>2022-09-22T13:38:25.247Z</time>
      </trkpt>
      <trkpt lat="44.92507" lon="5.43099">
        <ele>816</ele>
        <time>2022-09-22T13:38:26.246Z</time>
      </trkpt>
      <trkpt lat="44.92504" lon="5.43099">
        <ele>816</ele>
        <time>2022-09-22T13:38:27.246Z</time>
      </trkpt>
      <trkpt lat="44.92502" lon="5.43099">
        <ele>816</ele>
        <time>2022-09-22T13:38:28.247Z</time>
      </trkpt>
      <trkpt lat="44.925" lon="5.43099">
        <ele>816</ele>
        <time>2022-09-22T13:38:29.247Z</time>
      </trkpt>
      <trkpt lat="44.92499" lon="5.431">
        <ele>816</ele>
        <time>2022-09-22T13:38:30.246Z</time>
      </trkpt>
      <trkpt lat="44.92496" lon="5.431">
        <ele>816</ele>
        <time>2022-09-22T13:38:31.246Z</time>
      </trkpt>
      <trkpt lat="44.92494" lon="5.431">
        <ele>815</ele>
        <time>2022-09-22T13:38:32.246Z</time>
      </trkpt>
      <trkpt lat="44.92492" lon="5.43101">
        <ele>815</ele>
        <time>2022-09-22T13:38:33.247Z</time>
      </trkpt>
      <trkpt lat="44.9249" lon="5.43102">
        <ele>815</ele>
        <time>2022-09-22T13:38:34.247Z</time>
      </trkpt>
      <trkpt lat="44.92488" lon="5.43102">
        <ele>815</ele>
        <time>2022-09-22T13:38:35.247Z</time>
      </trkpt>
      <trkpt lat="44.92486" lon="5.43102">
        <ele>815</ele>
        <time>2022-09-22T13:38:36.247Z</time>
      </trkpt>
      <trkpt lat="44.92483" lon="5.43103">
        <ele>815</ele>
        <time>2022-09-22T13:38:37.247Z</time>
      </trkpt>
      <trkpt lat="44.92481" lon="5.43103">
        <ele>815</ele>
        <time>2022-09-22T13:38:38.247Z</time>
      </trkpt>
      <trkpt lat="44.92479" lon="5.43103">
        <ele>815</ele>
        <time>2022-09-22T13:38:39.247Z</time>
      </trkpt>
      <trkpt lat="44.92476" lon="5.43103">
        <ele>816</ele>
        <time>2022-09-22T13:38:40.247Z</time>
      </trkpt>
      <trkpt lat="44.92474" lon="5.43104">
        <ele>816</ele>
        <time>2022-09-22T13:38:41.247Z</time>
      </trkpt>
      <trkpt lat="44.92471" lon="5.43104">
        <ele>817</ele>
        <time>2022-09-22T13:38:42.247Z</time>
      </trkpt>
      <trkpt lat="44.92469" lon="5.43105">
        <ele>817</ele>
        <time>2022-09-22T13:38:43.247Z</time>
      </trkpt>
      <trkpt lat="44.92466" lon="5.43106">
        <ele>817</ele>
        <time>2022-09-22T13:38:44.247Z</time>
      </trkpt>
      <trkpt lat="44.92463" lon="5.43107">
        <ele>817</ele>
        <time>2022-09-22T13:38:45.247Z</time>
      </trkpt>
      <trkpt lat="44.9246" lon="5.43107">
        <ele>817</ele>
        <time>2022-09-22T13:38:46.247Z</time>
      </trkpt>
      <trkpt lat="44.92457" lon="5.43109">
        <ele>816</ele>
        <time>2022-09-22T13:38:47.246Z</time>
      </trkpt>
      <trkpt lat="44.92454" lon="5.4311">
        <ele>816</ele>
        <time>2022-09-22T13:38:48.247Z</time>
      </trkpt>
      <trkpt lat="44.92451" lon="5.43111">
        <ele>816</ele>
        <time>2022-09-22T13:38:49.247Z</time>
      </trkpt>
      <trkpt lat="44.92448" lon="5.43113">
        <ele>815</ele>
        <time>2022-09-22T13:38:50.247Z</time>
      </trkpt>
      <trkpt lat="44.92445" lon="5.43115">
        <ele>815</ele>
        <time>2022-09-22T13:38:51.247Z</time>
      </trkpt>
      <trkpt lat="44.92443" lon="5.43117">
        <ele>815</ele>
        <time>2022-09-22T13:38:52.247Z</time>
      </trkpt>
      <trkpt lat="44.9244" lon="5.4312">
        <ele>815</ele>
        <time>2022-09-22T13:38:53.247Z</time>
      </trkpt>
      <trkpt lat="44.92438" lon="5.43122">
        <ele>815</ele>
        <time>2022-09-22T13:38:54.247Z</time>
      </trkpt>
      <trkpt lat="44.92435" lon="5.43124">
        <ele>815</ele>
        <time>2022-09-22T13:38:55.246Z</time>
      </trkpt>
      <trkpt lat="44.92433" lon="5.43126">
        <ele>815</ele>
        <time>2022-09-22T13:38:56.247Z</time>
      </trkpt>
      <trkpt lat="44.92431" lon="5.43128">
        <ele>815</ele>
        <time>2022-09-22T13:38:57.247Z</time>
      </trkpt>
      <trkpt lat="44.92428" lon="5.4313">
        <ele>815</ele>
        <time>2022-09-22T13:38:58.247Z</time>
      </trkpt>
      <trkpt lat="44.92426" lon="5.43133">
        <ele>815</ele>
        <time>2022-09-22T13:38:59.247Z</time>
      </trkpt>
      <trkpt lat="44.92424" lon="5.43135">
        <ele>815</ele>
        <time>2022-09-22T13:39:00.247Z</time>
      </trkpt>
      <trkpt lat="44.92422" lon="5.43137">
        <ele>816</ele>
        <time>2022-09-22T13:39:01.246Z</time>
      </trkpt>
      <trkpt lat="44.9242" lon="5.4314">
        <ele>816</ele>
        <time>2022-09-22T13:39:02.247Z</time>
      </trkpt>
      <trkpt lat="44.92418" lon="5.43142">
        <ele>816</ele>
        <time>2022-09-22T13:39:03.247Z</time>
      </trkpt>
      <trkpt lat="44.92416" lon="5.43145">
        <ele>816</ele>
        <time>2022-09-22T13:39:04.247Z</time>
      </trkpt>
      <trkpt lat="44.92414" lon="5.43147">
        <ele>816</ele>
        <time>2022-09-22T13:39:05.247Z</time>
      </trkpt>
      <trkpt lat="44.92412" lon="5.43149">
        <ele>815</ele>
        <time>2022-09-22T13:39:06.247Z</time>
      </trkpt>
      <trkpt lat="44.9241" lon="5.43152">
        <ele>815</ele>
        <time>2022-09-22T13:39:07.247Z</time>
      </trkpt>
      <trkpt lat="44.92408" lon="5.43154">
        <ele>814</ele>
        <time>2022-09-22T13:39:08.247Z</time>
      </trkpt>
      <trkpt lat="44.92406" lon="5.43156">
        <ele>814</ele>
        <time>2022-09-22T13:39:09.247Z</time>
      </trkpt>
      <trkpt lat="44.92404" lon="5.43158">
        <ele>813</ele>
        <time>2022-09-22T13:39:10.247Z</time>
      </trkpt>
      <trkpt lat="44.92402" lon="5.4316">
        <ele>813</ele>
        <time>2022-09-22T13:39:11.247Z</time>
      </trkpt>
      <trkpt lat="44.924" lon="5.43162">
        <ele>813</ele>
        <time>2022-09-22T13:39:12.247Z</time>
      </trkpt>
      <trkpt lat="44.92399" lon="5.43164">
        <ele>813</ele>
        <time>2022-09-22T13:39:13.246Z</time>
      </trkpt>
      <trkpt lat="44.92397" lon="5.43166">
        <ele>813</ele>
        <time>2022-09-22T13:39:14.246Z</time>
      </trkpt>
      <trkpt lat="44.92395" lon="5.43168">
        <ele>812</ele>
        <time>2022-09-22T13:39:15.247Z</time>
      </trkpt>
      <trkpt lat="44.92393" lon="5.4317">
        <ele>812</ele>
        <time>2022-09-22T13:39:16.246Z</time>
      </trkpt>
      <trkpt lat="44.92392" lon="5.43172">
        <ele>813</ele>
        <time>2022-09-22T13:39:17.247Z</time>
      </trkpt>
      <trkpt lat="44.9239" lon="5.43174">
        <ele>813</ele>
        <time>2022-09-22T13:39:18.247Z</time>
      </trkpt>
      <trkpt lat="44.92388" lon="5.43176">
        <ele>813</ele>
        <time>2022-09-22T13:39:19.247Z</time>
      </trkpt>
      <trkpt lat="44.92387" lon="5.43178">
        <ele>813</ele>
        <time>2022-09-22T13:39:20.246Z</time>
      </trkpt>
      <trkpt lat="44.92386" lon="5.4318">
        <ele>813</ele>
        <time>2022-09-22T13:39:21.246Z</time>
      </trkpt>
      <trkpt lat="44.92384" lon="5.43182">
        <ele>813</ele>
        <time>2022-09-22T13:39:22.247Z</time>
      </trkpt>
      <trkpt lat="44.92383" lon="5.43184">
        <ele>813</ele>
        <time>2022-09-22T13:39:23.246Z</time>
      </trkpt>
      <trkpt lat="44.92381" lon="5.43186">
        <ele>813</ele>
        <time>2022-09-22T13:39:24.246Z</time>
      </trkpt>
      <trkpt lat="44.9238" lon="5.43188">
        <ele>813</ele>
        <time>2022-09-22T13:39:25.246Z</time>
      </trkpt>
      <trkpt lat="44.92378" lon="5.4319">
        <ele>814</ele>
        <time>2022-09-22T13:39:26.247Z</time>
      </trkpt>
      <trkpt lat="44.92376" lon="5.43191">
        <ele>814</ele>
        <time>2022-09-22T13:39:27.247Z</time>
      </trkpt>
      <trkpt lat="44.92375" lon="5.43192">
        <ele>814</ele>
        <time>2022-09-22T13:39:28.246Z</time>
      </trkpt>
      <trkpt lat="44.92373" lon="5.43193">
        <ele>814</ele>
        <time>2022-09-22T13:39:29.247Z</time>
      </trkpt>
      <trkpt lat="44.92371" lon="5.43195">
        <ele>815</ele>
        <time>2022-09-22T13:39:30.246Z</time>
      </trkpt>
      <trkpt lat="44.92369" lon="5.43196">
        <ele>815</ele>
        <time>2022-09-22T13:39:31.247Z</time>
      </trkpt>
      <trkpt lat="44.92367" lon="5.43197">
        <ele>815</ele>
        <time>2022-09-22T13:39:32.247Z</time>
      </trkpt>
      <trkpt lat="44.92365" lon="5.43198">
        <ele>816</ele>
        <time>2022-09-22T13:39:33.247Z</time>
      </trkpt>
      <trkpt lat="44.92363" lon="5.43199">
        <ele>816</ele>
        <time>2022-09-22T13:39:34.247Z</time>
      </trkpt>
      <trkpt lat="44.9236" lon="5.43201">
        <ele>816</ele>
        <time>2022-09-22T13:39:35.246Z</time>
      </trkpt>
      <trkpt lat="44.92358" lon="5.43202">
        <ele>817</ele>
        <time>2022-09-22T13:39:36.246Z</time>
      </trkpt>
      <trkpt lat="44.92356" lon="5.43202">
        <ele>817</ele>
        <time>2022-09-22T13:39:37.247Z</time>
      </trkpt>
      <trkpt lat="44.92354" lon="5.43203">
        <ele>818</ele>
        <time>2022-09-22T13:39:38.247Z</time>
      </trkpt>
      <trkpt lat="44.92351" lon="5.43204">
        <ele>818</ele>
        <time>2022-09-22T13:39:39.246Z</time>
      </trkpt>
      <trkpt lat="44.92349" lon="5.43204">
        <ele>819</ele>
        <time>2022-09-22T13:39:40.246Z</time>
      </trkpt>
      <trkpt lat="44.92347" lon="5.43205">
        <ele>819</ele>
        <time>2022-09-22T13:39:41.247Z</time>
      </trkpt>
      <trkpt lat="44.92344" lon="5.43206">
        <ele>820</ele>
        <time>2022-09-22T13:39:42.247Z</time>
      </trkpt>
      <trkpt lat="44.92342" lon="5.43206">
        <ele>820</ele>
        <time>2022-09-22T13:39:43.246Z</time>
      </trkpt>
      <trkpt lat="44.9234" lon="5.43207">
        <ele>820</ele>
        <time>2022-09-22T13:39:44.247Z</time>
      </trkpt>
      <trkpt lat="44.92338" lon="5.43208">
        <ele>820</ele>
        <time>2022-09-22T13:39:45.247Z</time>
      </trkpt>
      <trkpt lat="44.92336" lon="5.43209">
        <ele>820</ele>
        <time>2022-09-22T13:39:46.247Z</time>
      </trkpt>
      <trkpt lat="44.92334" lon="5.4321">
        <ele>820</ele>
        <time>2022-09-22T13:39:47.246Z</time>
      </trkpt>
      <trkpt lat="44.92332" lon="5.43212">
        <ele>819</ele>
        <time>2022-09-22T13:39:48.247Z</time>
      </trkpt>
      <trkpt lat="44.92331" lon="5.43213">
        <ele>819</ele>
        <time>2022-09-22T13:39:49.246Z</time>
      </trkpt>
      <trkpt lat="44.92329" lon="5.43216">
        <ele>819</ele>
        <time>2022-09-22T13:39:50.247Z</time>
      </trkpt>
      <trkpt lat="44.92328" lon="5.43218">
        <ele>819</ele>
        <time>2022-09-22T13:39:51.246Z</time>
      </trkpt>
      <trkpt lat="44.92327" lon="5.4322">
        <ele>819</ele>
        <time>2022-09-22T13:39:52.246Z</time>
      </trkpt>
      <trkpt lat="44.92326" lon="5.43223">
        <ele>819</ele>
        <time>2022-09-22T13:39:53.247Z</time>
      </trkpt>
      <trkpt lat="44.92325" lon="5.43225">
        <ele>819</ele>
        <time>2022-09-22T13:39:54.247Z</time>
      </trkpt>
      <trkpt lat="44.92324" lon="5.43228">
        <ele>819</ele>
        <time>2022-09-22T13:39:55.246Z</time>
      </trkpt>
      <trkpt lat="44.92323" lon="5.43231">
        <ele>818</ele>
        <time>2022-09-22T13:39:56.247Z</time>
      </trkpt>
      <trkpt lat="44.92322" lon="5.43234">
        <ele>818</ele>
        <time>2022-09-22T13:39:57.247Z</time>
      </trkpt>
      <trkpt lat="44.92322" lon="5.43237">
        <ele>817</ele>
        <time>2022-09-22T13:39:58.246Z</time>
      </trkpt>
      <trkpt lat="44.92322" lon="5.4324">
        <ele>817</ele>
        <time>2022-09-22T13:39:59.246Z</time>
      </trkpt>
      <trkpt lat="44.92322" lon="5.43243">
        <ele>817</ele>
        <time>2022-09-22T13:40:00.247Z</time>
      </trkpt>
      <trkpt lat="44.92322" lon="5.43246">
        <ele>818</ele>
        <time>2022-09-22T13:40:01.247Z</time>
      </trkpt>
      <trkpt lat="44.92321" lon="5.43249">
        <ele>818</ele>
        <time>2022-09-22T13:40:02.247Z</time>
      </trkpt>
      <trkpt lat="44.9232" lon="5.43252">
        <ele>818</ele>
        <time>2022-09-22T13:40:03.247Z</time>
      </trkpt>
      <trkpt lat="44.9232" lon="5.43254">
        <ele>819</ele>
        <time>2022-09-22T13:40:04.246Z</time>
      </trkpt>
      <trkpt lat="44.92319" lon="5.43257">
        <ele>819</ele>
        <time>2022-09-22T13:40:05.247Z</time>
      </trkpt>
      <trkpt lat="44.92318" lon="5.4326">
        <ele>820</ele>
        <time>2022-09-22T13:40:06.247Z</time>
      </trkpt>
      <trkpt lat="44.92317" lon="5.43262">
        <ele>820</ele>
        <time>2022-09-22T13:40:07.246Z</time>
      </trkpt>
      <trkpt lat="44.92317" lon="5.43265">
        <ele>820</ele>
        <time>2022-09-22T13:40:08.247Z</time>
      </trkpt>
      <trkpt lat="44.92316" lon="5.43268">
        <ele>821</ele>
        <time>2022-09-22T13:40:09.247Z</time>
      </trkpt>
      <trkpt lat="44.92315" lon="5.4327">
        <ele>821</ele>
        <time>2022-09-22T13:40:10.247Z</time>
      </trkpt>
      <trkpt lat="44.92314" lon="5.43273">
        <ele>821</ele>
        <time>2022-09-22T13:40:11.247Z</time>
      </trkpt>
      <trkpt lat="44.92313" lon="5.43276">
        <ele>822</ele>
        <time>2022-09-22T13:40:12.247Z</time>
      </trkpt>
      <trkpt lat="44.92312" lon="5.43279">
        <ele>822</ele>
        <time>2022-09-22T13:40:13.247Z</time>
      </trkpt>
      <trkpt lat="44.92311" lon="5.43281">
        <ele>823</ele>
        <time>2022-09-22T13:40:14.247Z</time>
      </trkpt>
      <trkpt lat="44.9231" lon="5.43284">
        <ele>822</ele>
        <time>2022-09-22T13:40:15.247Z</time>
      </trkpt>
      <trkpt lat="44.92309" lon="5.43287">
        <ele>823</ele>
        <time>2022-09-22T13:40:16.247Z</time>
      </trkpt>
      <trkpt lat="44.92307" lon="5.43289">
        <ele>823</ele>
        <time>2022-09-22T13:40:17.247Z</time>
      </trkpt>
      <trkpt lat="44.92306" lon="5.43292">
        <ele>823</ele>
        <time>2022-09-22T13:40:18.247Z</time>
      </trkpt>
      <trkpt lat="44.92305" lon="5.43294">
        <ele>823</ele>
        <time>2022-09-22T13:40:19.247Z</time>
      </trkpt>
      <trkpt lat="44.92304" lon="5.43296">
        <ele>823</ele>
        <time>2022-09-22T13:40:20.247Z</time>
      </trkpt>
      <trkpt lat="44.92304" lon="5.43299">
        <ele>822</ele>
        <time>2022-09-22T13:40:21.246Z</time>
      </trkpt>
      <trkpt lat="44.92303" lon="5.43302">
        <ele>822</ele>
        <time>2022-09-22T13:40:22.247Z</time>
      </trkpt>
      <trkpt lat="44.92302" lon="5.43304">
        <ele>822</ele>
        <time>2022-09-22T13:40:23.246Z</time>
      </trkpt>
      <trkpt lat="44.92301" lon="5.43307">
        <ele>822</ele>
        <time>2022-09-22T13:40:24.246Z</time>
      </trkpt>
      <trkpt lat="44.923" lon="5.43309">
        <ele>822</ele>
        <time>2022-09-22T13:40:25.247Z</time>
      </trkpt>
      <trkpt lat="44.92299" lon="5.43311">
        <ele>823</ele>
        <time>2022-09-22T13:40:26.247Z</time>
      </trkpt>
      <trkpt lat="44.92297" lon="5.43314">
        <ele>823</ele>
        <time>2022-09-22T13:40:27.247Z</time>
      </trkpt>
      <trkpt lat="44.92296" lon="5.43316">
        <ele>823</ele>
        <time>2022-09-22T13:40:28.246Z</time>
      </trkpt>
      <trkpt lat="44.92295" lon="5.43318">
        <ele>823</ele>
        <time>2022-09-22T13:40:29.247Z</time>
      </trkpt>
      <trkpt lat="44.92293" lon="5.4332">
        <ele>823</ele>
        <time>2022-09-22T13:40:30.247Z</time>
      </trkpt>
      <trkpt lat="44.92292" lon="5.43322">
        <ele>823</ele>
        <time>2022-09-22T13:40:31.247Z</time>
      </trkpt>
      <trkpt lat="44.92291" lon="5.43325">
        <ele>823</ele>
        <time>2022-09-22T13:40:32.247Z</time>
      </trkpt>
      <trkpt lat="44.92289" lon="5.43327">
        <ele>824</ele>
        <time>2022-09-22T13:40:33.247Z</time>
      </trkpt>
      <trkpt lat="44.92288" lon="5.43329">
        <ele>824</ele>
        <time>2022-09-22T13:40:34.247Z</time>
      </trkpt>
      <trkpt lat="44.92286" lon="5.43331">
        <ele>825</ele>
        <time>2022-09-22T13:40:35.247Z</time>
      </trkpt>
      <trkpt lat="44.92285" lon="5.43333">
        <ele>825</ele>
        <time>2022-09-22T13:40:36.247Z</time>
      </trkpt>
      <trkpt lat="44.92283" lon="5.43335">
        <ele>825</ele>
        <time>2022-09-22T13:40:37.247Z</time>
      </trkpt>
      <trkpt lat="44.92282" lon="5.43337">
        <ele>825</ele>
        <time>2022-09-22T13:40:38.247Z</time>
      </trkpt>
      <trkpt lat="44.9228" lon="5.43338">
        <ele>826</ele>
        <time>2022-09-22T13:40:39.247Z</time>
      </trkpt>
      <trkpt lat="44.92278" lon="5.4334">
        <ele>826</ele>
        <time>2022-09-22T13:40:40.247Z</time>
      </trkpt>
      <trkpt lat="44.92277" lon="5.43342">
        <ele>826</ele>
        <time>2022-09-22T13:40:41.247Z</time>
      </trkpt>
      <trkpt lat="44.92275" lon="5.43344">
        <ele>826</ele>
        <time>2022-09-22T13:40:42.247Z</time>
      </trkpt>
      <trkpt lat="44.92273" lon="5.43345">
        <ele>826</ele>
        <time>2022-09-22T13:40:43.246Z</time>
      </trkpt>
      <trkpt lat="44.92272" lon="5.43347">
        <ele>826</ele>
        <time>2022-09-22T13:40:44.247Z</time>
      </trkpt>
      <trkpt lat="44.9227" lon="5.43349">
        <ele>826</ele>
        <time>2022-09-22T13:40:45.247Z</time>
      </trkpt>
      <trkpt lat="44.92268" lon="5.4335">
        <ele>826</ele>
        <time>2022-09-22T13:40:46.247Z</time>
      </trkpt>
      <trkpt lat="44.92267" lon="5.43351">
        <ele>826</ele>
        <time>2022-09-22T13:40:47.247Z</time>
      </trkpt>
      <trkpt lat="44.92265" lon="5.43353">
        <ele>826</ele>
        <time>2022-09-22T13:40:48.247Z</time>
      </trkpt>
      <trkpt lat="44.92263" lon="5.43354">
        <ele>826</ele>
        <time>2022-09-22T13:40:49.247Z</time>
      </trkpt>
      <trkpt lat="44.92261" lon="5.43355">
        <ele>826</ele>
        <time>2022-09-22T13:40:50.247Z</time>
      </trkpt>
      <trkpt lat="44.92259" lon="5.43357">
        <ele>826</ele>
        <time>2022-09-22T13:40:51.247Z</time>
      </trkpt>
      <trkpt lat="44.92258" lon="5.43358">
        <ele>826</ele>
        <time>2022-09-22T13:40:52.247Z</time>
      </trkpt>
      <trkpt lat="44.92256" lon="5.43358">
        <ele>826</ele>
        <time>2022-09-22T13:40:53.247Z</time>
      </trkpt>
      <trkpt lat="44.92254" lon="5.43359">
        <ele>827</ele>
        <time>2022-09-22T13:40:54.246Z</time>
      </trkpt>
      <trkpt lat="44.92252" lon="5.4336">
        <ele>827</ele>
        <time>2022-09-22T13:40:55.247Z</time>
      </trkpt>
      <trkpt lat="44.9225" lon="5.4336">
        <ele>827</ele>
        <time>2022-09-22T13:40:56.247Z</time>
      </trkpt>
      <trkpt lat="44.92248" lon="5.43361">
        <ele>827</ele>
        <time>2022-09-22T13:40:57.246Z</time>
      </trkpt>
      <trkpt lat="44.92246" lon="5.43361">
        <ele>827</ele>
        <time>2022-09-22T13:40:58.246Z</time>
      </trkpt>
      <trkpt lat="44.92244" lon="5.43362">
        <ele>828</ele>
        <time>2022-09-22T13:40:59.247Z</time>
      </trkpt>
      <trkpt lat="44.92242" lon="5.43362">
        <ele>828</ele>
        <time>2022-09-22T13:41:00.247Z</time>
      </trkpt>
      <trkpt lat="44.9224" lon="5.43362">
        <ele>829</ele>
        <time>2022-09-22T13:41:01.247Z</time>
      </trkpt>
      <trkpt lat="44.92238" lon="5.43363">
        <ele>829</ele>
        <time>2022-09-22T13:41:02.247Z</time>
      </trkpt>
      <trkpt lat="44.92236" lon="5.43363">
        <ele>829</ele>
        <time>2022-09-22T13:41:03.247Z</time>
      </trkpt>
      <trkpt lat="44.92234" lon="5.43363">
        <ele>829</ele>
        <time>2022-09-22T13:41:04.246Z</time>
      </trkpt>
      <trkpt lat="44.92233" lon="5.43363">
        <ele>829</ele>
        <time>2022-09-22T13:41:05.246Z</time>
      </trkpt>
      <trkpt lat="44.92231" lon="5.43363">
        <ele>828</ele>
        <time>2022-09-22T13:41:06.246Z</time>
      </trkpt>
      <trkpt lat="44.92229" lon="5.43363">
        <ele>828</ele>
        <time>2022-09-22T13:41:07.247Z</time>
      </trkpt>
      <trkpt lat="44.92227" lon="5.43363">
        <ele>828</ele>
        <time>2022-09-22T13:41:08.247Z</time>
      </trkpt>
      <trkpt lat="44.92225" lon="5.43363">
        <ele>828</ele>
        <time>2022-09-22T13:41:09.247Z</time>
      </trkpt>
      <trkpt lat="44.92223" lon="5.43363">
        <ele>828</ele>
        <time>2022-09-22T13:41:10.247Z</time>
      </trkpt>
      <trkpt lat="44.92221" lon="5.43363">
        <ele>828</ele>
        <time>2022-09-22T13:41:11.246Z</time>
      </trkpt>
      <trkpt lat="44.92219" lon="5.43363">
        <ele>828</ele>
        <time>2022-09-22T13:41:12.247Z</time>
      </trkpt>
      <trkpt lat="44.92217" lon="5.43363">
        <ele>829</ele>
        <time>2022-09-22T13:41:13.247Z</time>
      </trkpt>
      <trkpt lat="44.92215" lon="5.43363">
        <ele>829</ele>
        <time>2022-09-22T13:41:14.247Z</time>
      </trkpt>
      <trkpt lat="44.92214" lon="5.43363">
        <ele>829</ele>
        <time>2022-09-22T13:41:15.247Z</time>
      </trkpt>
      <trkpt lat="44.92211" lon="5.43364">
        <ele>829</ele>
        <time>2022-09-22T13:41:16.247Z</time>
      </trkpt>
      <trkpt lat="44.92209" lon="5.43364">
        <ele>829</ele>
        <time>2022-09-22T13:41:17.247Z</time>
      </trkpt>
      <trkpt lat="44.92207" lon="5.43364">
        <ele>830</ele>
        <time>2022-09-22T13:41:18.247Z</time>
      </trkpt>
      <trkpt lat="44.92206" lon="5.43364">
        <ele>830</ele>
        <time>2022-09-22T13:41:19.247Z</time>
      </trkpt>
      <trkpt lat="44.92204" lon="5.43364">
        <ele>830</ele>
        <time>2022-09-22T13:41:20.246Z</time>
      </trkpt>
      <trkpt lat="44.92201" lon="5.43364">
        <ele>831</ele>
        <time>2022-09-22T13:41:21.247Z</time>
      </trkpt>
      <trkpt lat="44.92199" lon="5.43364">
        <ele>831</ele>
        <time>2022-09-22T13:41:22.247Z</time>
      </trkpt>
      <trkpt lat="44.92197" lon="5.43365">
        <ele>832</ele>
        <time>2022-09-22T13:41:23.247Z</time>
      </trkpt>
      <trkpt lat="44.92195" lon="5.43365">
        <ele>832</ele>
        <time>2022-09-22T13:41:24.247Z</time>
      </trkpt>
      <trkpt lat="44.92193" lon="5.43365">
        <ele>832</ele>
        <time>2022-09-22T13:41:25.246Z</time>
      </trkpt>
      <trkpt lat="44.92191" lon="5.43365">
        <ele>832</ele>
        <time>2022-09-22T13:41:26.247Z</time>
      </trkpt>
      <trkpt lat="44.92189" lon="5.43366">
        <ele>832</ele>
        <time>2022-09-22T13:41:27.247Z</time>
      </trkpt>
      <trkpt lat="44.92187" lon="5.43366">
        <ele>833</ele>
        <time>2022-09-22T13:41:28.247Z</time>
      </trkpt>
      <trkpt lat="44.92186" lon="5.43366">
        <ele>833</ele>
        <time>2022-09-22T13:41:29.246Z</time>
      </trkpt>
      <trkpt lat="44.92184" lon="5.43366">
        <ele>834</ele>
        <time>2022-09-22T13:41:30.247Z</time>
      </trkpt>
      <trkpt lat="44.92182" lon="5.43366">
        <ele>834</ele>
        <time>2022-09-22T13:41:31.247Z</time>
      </trkpt>
      <trkpt lat="44.9218" lon="5.43366">
        <ele>835</ele>
        <time>2022-09-22T13:41:32.247Z</time>
      </trkpt>
      <trkpt lat="44.92178" lon="5.43366">
        <ele>835</ele>
        <time>2022-09-22T13:41:33.247Z</time>
      </trkpt>
      <trkpt lat="44.92176" lon="5.43366">
        <ele>835</ele>
        <time>2022-09-22T13:41:34.247Z</time>
      </trkpt>
      <trkpt lat="44.92174" lon="5.43366">
        <ele>835</ele>
        <time>2022-09-22T13:41:35.247Z</time>
      </trkpt>
      <trkpt lat="44.92172" lon="5.43366">
        <ele>835</ele>
        <time>2022-09-22T13:41:36.247Z</time>
      </trkpt>
      <trkpt lat="44.9217" lon="5.43366">
        <ele>835</ele>
        <time>2022-09-22T13:41:37.247Z</time>
      </trkpt>
      <trkpt lat="44.92168" lon="5.43365">
        <ele>835</ele>
        <time>2022-09-22T13:41:38.246Z</time>
      </trkpt>
      <trkpt lat="44.92166" lon="5.43365">
        <ele>835</ele>
        <time>2022-09-22T13:41:39.247Z</time>
      </trkpt>
      <trkpt lat="44.92165" lon="5.43365">
        <ele>835</ele>
        <time>2022-09-22T13:41:40.246Z</time>
      </trkpt>
      <trkpt lat="44.92163" lon="5.43365">
        <ele>835</ele>
        <time>2022-09-22T13:41:41.247Z</time>
      </trkpt>
      <trkpt lat="44.92161" lon="5.43365">
        <ele>835</ele>
        <time>2022-09-22T13:41:42.247Z</time>
      </trkpt>
      <trkpt lat="44.92159" lon="5.43364">
        <ele>835</ele>
        <time>2022-09-22T13:41:43.247Z</time>
      </trkpt>
      <trkpt lat="44.92158" lon="5.43363">
        <ele>834</ele>
        <time>2022-09-22T13:41:44.247Z</time>
      </trkpt>
      <trkpt lat="44.92156" lon="5.43363">
        <ele>834</ele>
        <time>2022-09-22T13:41:45.247Z</time>
      </trkpt>
      <trkpt lat="44.92154" lon="5.43362">
        <ele>833</ele>
        <time>2022-09-22T13:41:46.247Z</time>
      </trkpt>
      <trkpt lat="44.92152" lon="5.43361">
        <ele>832</ele>
        <time>2022-09-22T13:41:47.247Z</time>
      </trkpt>
      <trkpt lat="44.9215" lon="5.43361">
        <ele>832</ele>
        <time>2022-09-22T13:41:48.247Z</time>
      </trkpt>
      <trkpt lat="44.92149" lon="5.4336">
        <ele>832</ele>
        <time>2022-09-22T13:41:49.246Z</time>
      </trkpt>
      <trkpt lat="44.92147" lon="5.43359">
        <ele>832</ele>
        <time>2022-09-22T13:41:50.246Z</time>
      </trkpt>
      <trkpt lat="44.92145" lon="5.43357">
        <ele>832</ele>
        <time>2022-09-22T13:41:51.246Z</time>
      </trkpt>
      <trkpt lat="44.92143" lon="5.43356">
        <ele>832</ele>
        <time>2022-09-22T13:41:52.246Z</time>
      </trkpt>
      <trkpt lat="44.92141" lon="5.43355">
        <ele>832</ele>
        <time>2022-09-22T13:41:53.246Z</time>
      </trkpt>
      <trkpt lat="44.92139" lon="5.43355">
        <ele>833</ele>
        <time>2022-09-22T13:41:54.247Z</time>
      </trkpt>
      <trkpt lat="44.92138" lon="5.43354">
        <ele>833</ele>
        <time>2022-09-22T13:41:55.246Z</time>
      </trkpt>
      <trkpt lat="44.92136" lon="5.43353">
        <ele>834</ele>
        <time>2022-09-22T13:41:56.247Z</time>
      </trkpt>
      <trkpt lat="44.92134" lon="5.43353">
        <ele>834</ele>
        <time>2022-09-22T13:41:57.247Z</time>
      </trkpt>
      <trkpt lat="44.92132" lon="5.43352">
        <ele>834</ele>
        <time>2022-09-22T13:41:58.247Z</time>
      </trkpt>
      <trkpt lat="44.9213" lon="5.43351">
        <ele>835</ele>
        <time>2022-09-22T13:41:59.247Z</time>
      </trkpt>
      <trkpt lat="44.92128" lon="5.4335">
        <ele>835</ele>
        <time>2022-09-22T13:42:00.247Z</time>
      </trkpt>
      <trkpt lat="44.92126" lon="5.43349">
        <ele>836</ele>
        <time>2022-09-22T13:42:01.246Z</time>
      </trkpt>
      <trkpt lat="44.92124" lon="5.43348">
        <ele>836</ele>
        <time>2022-09-22T13:42:02.246Z</time>
      </trkpt>
      <trkpt lat="44.92122" lon="5.43346">
        <ele>836</ele>
        <time>2022-09-22T13:42:03.247Z</time>
      </trkpt>
      <trkpt lat="44.9212" lon="5.43345">
        <ele>836</ele>
        <time>2022-09-22T13:42:04.246Z</time>
      </trkpt>
      <trkpt lat="44.92119" lon="5.43343">
        <ele>836</ele>
        <time>2022-09-22T13:42:05.246Z</time>
      </trkpt>
      <trkpt lat="44.92117" lon="5.43342">
        <ele>836</ele>
        <time>2022-09-22T13:42:06.247Z</time>
      </trkpt>
      <trkpt lat="44.92115" lon="5.43341">
        <ele>837</ele>
        <time>2022-09-22T13:42:07.247Z</time>
      </trkpt>
      <trkpt lat="44.92113" lon="5.43341">
        <ele>837</ele>
        <time>2022-09-22T13:42:08.247Z</time>
      </trkpt>
      <trkpt lat="44.92111" lon="5.4334">
        <ele>837</ele>
        <time>2022-09-22T13:42:09.247Z</time>
      </trkpt>
      <trkpt lat="44.92109" lon="5.43339">
        <ele>837</ele>
        <time>2022-09-22T13:42:10.247Z</time>
      </trkpt>
      <trkpt lat="44.92107" lon="5.43338">
        <ele>837</ele>
        <time>2022-09-22T13:42:11.246Z</time>
      </trkpt>
      <trkpt lat="44.92105" lon="5.43337">
        <ele>837</ele>
        <time>2022-09-22T13:42:12.247Z</time>
      </trkpt>
      <trkpt lat="44.92103" lon="5.43336">
        <ele>838</ele>
        <time>2022-09-22T13:42:13.246Z</time>
      </trkpt>
      <trkpt lat="44.92101" lon="5.43336">
        <ele>838</ele>
        <time>2022-09-22T13:42:14.247Z</time>
      </trkpt>
      <trkpt lat="44.92099" lon="5.43335">
        <ele>838</ele>
        <time>2022-09-22T13:42:15.247Z</time>
      </trkpt>
      <trkpt lat="44.92097" lon="5.43334">
        <ele>838</ele>
        <time>2022-09-22T13:42:16.247Z</time>
      </trkpt>
      <trkpt lat="44.92095" lon="5.43333">
        <ele>839</ele>
        <time>2022-09-22T13:42:17.247Z</time>
      </trkpt>
      <trkpt lat="44.92093" lon="5.43332">
        <ele>838</ele>
        <time>2022-09-22T13:42:18.247Z</time>
      </trkpt>
      <trkpt lat="44.92091" lon="5.43331">
        <ele>838</ele>
        <time>2022-09-22T13:42:19.247Z</time>
      </trkpt>
      <trkpt lat="44.92089" lon="5.43331">
        <ele>838</ele>
        <time>2022-09-22T13:42:20.247Z</time>
      </trkpt>
      <trkpt lat="44.92087" lon="5.4333">
        <ele>838</ele>
        <time>2022-09-22T13:42:21.247Z</time>
      </trkpt>
      <trkpt lat="44.92085" lon="5.43329">
        <ele>838</ele>
        <time>2022-09-22T13:42:22.247Z</time>
      </trkpt>
      <trkpt lat="44.92082" lon="5.43328">
        <ele>838</ele>
        <time>2022-09-22T13:42:23.247Z</time>
      </trkpt>
      <trkpt lat="44.9208" lon="5.43327">
        <ele>838</ele>
        <time>2022-09-22T13:42:24.247Z</time>
      </trkpt>
      <trkpt lat="44.92078" lon="5.43326">
        <ele>838</ele>
        <time>2022-09-22T13:42:25.247Z</time>
      </trkpt>
      <trkpt lat="44.92076" lon="5.43325">
        <ele>838</ele>
        <time>2022-09-22T13:42:26.247Z</time>
      </trkpt>
      <trkpt lat="44.92073" lon="5.43324">
        <ele>838</ele>
        <time>2022-09-22T13:42:27.247Z</time>
      </trkpt>
      <trkpt lat="44.92071" lon="5.43324">
        <ele>838</ele>
        <time>2022-09-22T13:42:28.247Z</time>
      </trkpt>
      <trkpt lat="44.92069" lon="5.43323">
        <ele>838</ele>
        <time>2022-09-22T13:42:29.247Z</time>
      </trkpt>
      <trkpt lat="44.92067" lon="5.43322">
        <ele>837</ele>
        <time>2022-09-22T13:42:30.246Z</time>
      </trkpt>
      <trkpt lat="44.92064" lon="5.43321">
        <ele>837</ele>
        <time>2022-09-22T13:42:31.247Z</time>
      </trkpt>
      <trkpt lat="44.92062" lon="5.4332">
        <ele>837</ele>
        <time>2022-09-22T13:42:32.246Z</time>
      </trkpt>
      <trkpt lat="44.9206" lon="5.43319">
        <ele>837</ele>
        <time>2022-09-22T13:42:33.247Z</time>
      </trkpt>
      <trkpt lat="44.92058" lon="5.43317">
        <ele>837</ele>
        <time>2022-09-22T13:42:34.247Z</time>
      </trkpt>
      <trkpt lat="44.92055" lon="5.43317">
        <ele>837</ele>
        <time>2022-09-22T13:42:35.246Z</time>
      </trkpt>
      <trkpt lat="44.92053" lon="5.43316">
        <ele>837</ele>
        <time>2022-09-22T13:42:36.247Z</time>
      </trkpt>
      <trkpt lat="44.92051" lon="5.43315">
        <ele>837</ele>
        <time>2022-09-22T13:42:37.247Z</time>
      </trkpt>
      <trkpt lat="44.92048" lon="5.43314">
        <ele>837</ele>
        <time>2022-09-22T13:42:38.247Z</time>
      </trkpt>
      <trkpt lat="44.92046" lon="5.43314">
        <ele>837</ele>
        <time>2022-09-22T13:42:39.247Z</time>
      </trkpt>
      <trkpt lat="44.92044" lon="5.43313">
        <ele>837</ele>
        <time>2022-09-22T13:42:40.247Z</time>
      </trkpt>
      <trkpt lat="44.92041" lon="5.43313">
        <ele>837</ele>
        <time>2022-09-22T13:42:41.247Z</time>
      </trkpt>
      <trkpt lat="44.92039" lon="5.43313">
        <ele>837</ele>
        <time>2022-09-22T13:42:42.247Z</time>
      </trkpt>
      <trkpt lat="44.92036" lon="5.43312">
        <ele>836</ele>
        <time>2022-09-22T13:42:43.247Z</time>
      </trkpt>
      <trkpt lat="44.92034" lon="5.43312">
        <ele>836</ele>
        <time>2022-09-22T13:42:44.247Z</time>
      </trkpt>
      <trkpt lat="44.92031" lon="5.43311">
        <ele>836</ele>
        <time>2022-09-22T13:42:45.246Z</time>
      </trkpt>
      <trkpt lat="44.92028" lon="5.43311">
        <ele>837</ele>
        <time>2022-09-22T13:42:46.246Z</time>
      </trkpt>
      <trkpt lat="44.92025" lon="5.43311">
        <ele>837</ele>
        <time>2022-09-22T13:42:47.247Z</time>
      </trkpt>
      <trkpt lat="44.92023" lon="5.43311">
        <ele>838</ele>
        <time>2022-09-22T13:42:48.247Z</time>
      </trkpt>
      <trkpt lat="44.9202" lon="5.4331">
        <ele>839</ele>
        <time>2022-09-22T13:42:49.247Z</time>
      </trkpt>
      <trkpt lat="44.92016" lon="5.4331">
        <ele>839</ele>
        <time>2022-09-22T13:42:50.247Z</time>
      </trkpt>
      <trkpt lat="44.92013" lon="5.4331">
        <ele>839</ele>
        <time>2022-09-22T13:42:51.247Z</time>
      </trkpt>
      <trkpt lat="44.9201" lon="5.43309">
        <ele>838</ele>
        <time>2022-09-22T13:42:52.247Z</time>
      </trkpt>
      <trkpt lat="44.92006" lon="5.43308">
        <ele>839</ele>
        <time>2022-09-22T13:42:53.247Z</time>
      </trkpt>
      <trkpt lat="44.92003" lon="5.43307">
        <ele>838</ele>
        <time>2022-09-22T13:42:54.247Z</time>
      </trkpt>
      <trkpt lat="44.92" lon="5.43305">
        <ele>838</ele>
        <time>2022-09-22T13:42:55.247Z</time>
      </trkpt>
      <trkpt lat="44.91997" lon="5.43304">
        <ele>838</ele>
        <time>2022-09-22T13:42:56.247Z</time>
      </trkpt>
      <trkpt lat="44.91993" lon="5.43303">
        <ele>838</ele>
        <time>2022-09-22T13:42:57.247Z</time>
      </trkpt>
      <trkpt lat="44.9199" lon="5.43302">
        <ele>838</ele>
        <time>2022-09-22T13:42:58.247Z</time>
      </trkpt>
      <trkpt lat="44.91987" lon="5.43302">
        <ele>838</ele>
        <time>2022-09-22T13:42:59.247Z</time>
      </trkpt>
      <trkpt lat="44.91984" lon="5.43301">
        <ele>838</ele>
        <time>2022-09-22T13:43:00.247Z</time>
      </trkpt>
      <trkpt lat="44.9198" lon="5.433">
        <ele>839</ele>
        <time>2022-09-22T13:43:01.246Z</time>
      </trkpt>
      <trkpt lat="44.91977" lon="5.43299">
        <ele>839</ele>
        <time>2022-09-22T13:43:02.247Z</time>
      </trkpt>
      <trkpt lat="44.91974" lon="5.43298">
        <ele>838</ele>
        <time>2022-09-22T13:43:03.247Z</time>
      </trkpt>
      <trkpt lat="44.91971" lon="5.43297">
        <ele>838</ele>
        <time>2022-09-22T13:43:04.247Z</time>
      </trkpt>
      <trkpt lat="44.91968" lon="5.43296">
        <ele>838</ele>
        <time>2022-09-22T13:43:05.246Z</time>
      </trkpt>
      <trkpt lat="44.91965" lon="5.43295">
        <ele>838</ele>
        <time>2022-09-22T13:43:06.246Z</time>
      </trkpt>
      <trkpt lat="44.91962" lon="5.43294">
        <ele>837</ele>
        <time>2022-09-22T13:43:07.247Z</time>
      </trkpt>
      <trkpt lat="44.91958" lon="5.43293">
        <ele>837</ele>
        <time>2022-09-22T13:43:08.246Z</time>
      </trkpt>
      <trkpt lat="44.91955" lon="5.43291">
        <ele>837</ele>
        <time>2022-09-22T13:43:09.247Z</time>
      </trkpt>
      <trkpt lat="44.91952" lon="5.4329">
        <ele>837</ele>
        <time>2022-09-22T13:43:10.247Z</time>
      </trkpt>
      <trkpt lat="44.91949" lon="5.43289">
        <ele>836</ele>
        <time>2022-09-22T13:43:11.247Z</time>
      </trkpt>
      <trkpt lat="44.91946" lon="5.43287">
        <ele>835</ele>
        <time>2022-09-22T13:43:12.247Z</time>
      </trkpt>
      <trkpt lat="44.91943" lon="5.43286">
        <ele>835</ele>
        <time>2022-09-22T13:43:13.247Z</time>
      </trkpt>
      <trkpt lat="44.9194" lon="5.43284">
        <ele>835</ele>
        <time>2022-09-22T13:43:14.247Z</time>
      </trkpt>
      <trkpt lat="44.91937" lon="5.43283">
        <ele>835</ele>
        <time>2022-09-22T13:43:15.246Z</time>
      </trkpt>
      <trkpt lat="44.91934" lon="5.43281">
        <ele>835</ele>
        <time>2022-09-22T13:43:16.246Z</time>
      </trkpt>
      <trkpt lat="44.91931" lon="5.4328">
        <ele>836</ele>
        <time>2022-09-22T13:43:17.247Z</time>
      </trkpt>
      <trkpt lat="44.91928" lon="5.43278">
        <ele>836</ele>
        <time>2022-09-22T13:43:18.247Z</time>
      </trkpt>
      <trkpt lat="44.91925" lon="5.43277">
        <ele>836</ele>
        <time>2022-09-22T13:43:19.247Z</time>
      </trkpt>
      <trkpt lat="44.91922" lon="5.43276">
        <ele>837</ele>
        <time>2022-09-22T13:43:20.246Z</time>
      </trkpt>
      <trkpt lat="44.91919" lon="5.43275">
        <ele>837</ele>
        <time>2022-09-22T13:43:21.246Z</time>
      </trkpt>
      <trkpt lat="44.91915" lon="5.43274">
        <ele>837</ele>
        <time>2022-09-22T13:43:22.247Z</time>
      </trkpt>
      <trkpt lat="44.91912" lon="5.43273">
        <ele>838</ele>
        <time>2022-09-22T13:43:23.247Z</time>
      </trkpt>
      <trkpt lat="44.91909" lon="5.43273">
        <ele>838</ele>
        <time>2022-09-22T13:43:24.247Z</time>
      </trkpt>
      <trkpt lat="44.91905" lon="5.43272">
        <ele>838</ele>
        <time>2022-09-22T13:43:25.247Z</time>
      </trkpt>
      <trkpt lat="44.91902" lon="5.43272">
        <ele>838</ele>
        <time>2022-09-22T13:43:26.246Z</time>
      </trkpt>
      <trkpt lat="44.91899" lon="5.43272">
        <ele>839</ele>
        <time>2022-09-22T13:43:27.247Z</time>
      </trkpt>
      <trkpt lat="44.91895" lon="5.43272">
        <ele>839</ele>
        <time>2022-09-22T13:43:28.247Z</time>
      </trkpt>
      <trkpt lat="44.91892" lon="5.43272">
        <ele>840</ele>
        <time>2022-09-22T13:43:29.247Z</time>
      </trkpt>
      <trkpt lat="44.91888" lon="5.43272">
        <ele>840</ele>
        <time>2022-09-22T13:43:30.247Z</time>
      </trkpt>
      <trkpt lat="44.91885" lon="5.43272">
        <ele>841</ele>
        <time>2022-09-22T13:43:31.247Z</time>
      </trkpt>
      <trkpt lat="44.91882" lon="5.43272">
        <ele>841</ele>
        <time>2022-09-22T13:43:32.247Z</time>
      </trkpt>
      <trkpt lat="44.91878" lon="5.43272">
        <ele>841</ele>
        <time>2022-09-22T13:43:33.246Z</time>
      </trkpt>
      <trkpt lat="44.91875" lon="5.43273">
        <ele>841</ele>
        <time>2022-09-22T13:43:34.246Z</time>
      </trkpt>
      <trkpt lat="44.91872" lon="5.43274">
        <ele>841</ele>
        <time>2022-09-22T13:43:35.247Z</time>
      </trkpt>
      <trkpt lat="44.91869" lon="5.43275">
        <ele>841</ele>
        <time>2022-09-22T13:43:36.247Z</time>
      </trkpt>
      <trkpt lat="44.91866" lon="5.43276">
        <ele>842</ele>
        <time>2022-09-22T13:43:37.246Z</time>
      </trkpt>
      <trkpt lat="44.91863" lon="5.43277">
        <ele>842</ele>
        <time>2022-09-22T13:43:38.246Z</time>
      </trkpt>
      <trkpt lat="44.9186" lon="5.43278">
        <ele>842</ele>
        <time>2022-09-22T13:43:39.246Z</time>
      </trkpt>
      <trkpt lat="44.91857" lon="5.43279">
        <ele>842</ele>
        <time>2022-09-22T13:43:40.247Z</time>
      </trkpt>
      <trkpt lat="44.91854" lon="5.4328">
        <ele>841</ele>
        <time>2022-09-22T13:43:41.247Z</time>
      </trkpt>
      <trkpt lat="44.91852" lon="5.43282">
        <ele>841</ele>
        <time>2022-09-22T13:43:42.247Z</time>
      </trkpt>
      <trkpt lat="44.91849" lon="5.43283">
        <ele>841</ele>
        <time>2022-09-22T13:43:43.247Z</time>
      </trkpt>
      <trkpt lat="44.91847" lon="5.43285">
        <ele>841</ele>
        <time>2022-09-22T13:43:44.247Z</time>
      </trkpt>
      <trkpt lat="44.91844" lon="5.43286">
        <ele>840</ele>
        <time>2022-09-22T13:43:45.246Z</time>
      </trkpt>
      <trkpt lat="44.91842" lon="5.43288">
        <ele>840</ele>
        <time>2022-09-22T13:43:46.247Z</time>
      </trkpt>
      <trkpt lat="44.91839" lon="5.43289">
        <ele>840</ele>
        <time>2022-09-22T13:43:47.246Z</time>
      </trkpt>
      <trkpt lat="44.91837" lon="5.4329">
        <ele>840</ele>
        <time>2022-09-22T13:43:48.247Z</time>
      </trkpt>
      <trkpt lat="44.91834" lon="5.43292">
        <ele>841</ele>
        <time>2022-09-22T13:43:49.247Z</time>
      </trkpt>
      <trkpt lat="44.91831" lon="5.43293">
        <ele>841</ele>
        <time>2022-09-22T13:43:50.247Z</time>
      </trkpt>
      <trkpt lat="44.91829" lon="5.43294">
        <ele>841</ele>
        <time>2022-09-22T13:43:51.247Z</time>
      </trkpt>
      <trkpt lat="44.91826" lon="5.43295">
        <ele>841</ele>
        <time>2022-09-22T13:43:52.247Z</time>
      </trkpt>
      <trkpt lat="44.91824" lon="5.43296">
        <ele>841</ele>
        <time>2022-09-22T13:43:53.247Z</time>
      </trkpt>
      <trkpt lat="44.91822" lon="5.43297">
        <ele>841</ele>
        <time>2022-09-22T13:43:54.247Z</time>
      </trkpt>
      <trkpt lat="44.9182" lon="5.43298">
        <ele>841</ele>
        <time>2022-09-22T13:43:55.247Z</time>
      </trkpt>
      <trkpt lat="44.91818" lon="5.43299">
        <ele>841</ele>
        <time>2022-09-22T13:43:56.247Z</time>
      </trkpt>
      <trkpt lat="44.91817" lon="5.433">
        <ele>841</ele>
        <time>2022-09-22T13:43:57.247Z</time>
      </trkpt>
      <trkpt lat="44.91815" lon="5.433">
        <ele>841</ele>
        <time>2022-09-22T13:43:58.246Z</time>
      </trkpt>
      <trkpt lat="44.91814" lon="5.43301">
        <ele>842</ele>
        <time>2022-09-22T13:43:59.246Z</time>
      </trkpt>
      <trkpt lat="44.91812" lon="5.43302">
        <ele>842</ele>
        <time>2022-09-22T13:44:00.247Z</time>
      </trkpt>
      <trkpt lat="44.9181" lon="5.43303">
        <ele>843</ele>
        <time>2022-09-22T13:44:01.247Z</time>
      </trkpt>
      <trkpt lat="44.91808" lon="5.43303">
        <ele>843</ele>
        <time>2022-09-22T13:44:02.246Z</time>
      </trkpt>
      <trkpt lat="44.91807" lon="5.43304">
        <ele>844</ele>
        <time>2022-09-22T13:44:03.247Z</time>
      </trkpt>
      <trkpt lat="44.91805" lon="5.43305">
        <ele>844</ele>
        <time>2022-09-22T13:44:04.246Z</time>
      </trkpt>
      <trkpt lat="44.91803" lon="5.43306">
        <ele>845</ele>
        <time>2022-09-22T13:44:05.247Z</time>
      </trkpt>
      <trkpt lat="44.91801" lon="5.43307">
        <ele>845</ele>
        <time>2022-09-22T13:44:06.247Z</time>
      </trkpt>
      <trkpt lat="44.91799" lon="5.43308">
        <ele>845</ele>
        <time>2022-09-22T13:44:07.247Z</time>
      </trkpt>
      <trkpt lat="44.91797" lon="5.43309">
        <ele>845</ele>
        <time>2022-09-22T13:44:08.247Z</time>
      </trkpt>
      <trkpt lat="44.91796" lon="5.4331">
        <ele>846</ele>
        <time>2022-09-22T13:44:09.246Z</time>
      </trkpt>
      <trkpt lat="44.91794" lon="5.43311">
        <ele>846</ele>
        <time>2022-09-22T13:44:10.247Z</time>
      </trkpt>
      <trkpt lat="44.91793" lon="5.43312">
        <ele>847</ele>
        <time>2022-09-22T13:44:11.247Z</time>
      </trkpt>
      <trkpt lat="44.91792" lon="5.43314">
        <ele>847</ele>
        <time>2022-09-22T13:44:12.247Z</time>
      </trkpt>
      <trkpt lat="44.91791" lon="5.43315">
        <ele>847</ele>
        <time>2022-09-22T13:44:13.247Z</time>
      </trkpt>
      <trkpt lat="44.91789" lon="5.43316">
        <ele>847</ele>
        <time>2022-09-22T13:44:14.247Z</time>
      </trkpt>
      <trkpt lat="44.91787" lon="5.43317">
        <ele>847</ele>
        <time>2022-09-22T13:44:15.246Z</time>
      </trkpt>
      <trkpt lat="44.91785" lon="5.43319">
        <ele>846</ele>
        <time>2022-09-22T13:44:16.246Z</time>
      </trkpt>
      <trkpt lat="44.91783" lon="5.4332">
        <ele>846</ele>
        <time>2022-09-22T13:44:17.247Z</time>
      </trkpt>
      <trkpt lat="44.91781" lon="5.43321">
        <ele>846</ele>
        <time>2022-09-22T13:44:18.246Z</time>
      </trkpt>
      <trkpt lat="44.91779" lon="5.43321">
        <ele>846</ele>
        <time>2022-09-22T13:44:19.247Z</time>
      </trkpt>
      <trkpt lat="44.91777" lon="5.43322">
        <ele>846</ele>
        <time>2022-09-22T13:44:20.246Z</time>
      </trkpt>
      <trkpt lat="44.91776" lon="5.43323">
        <ele>846</ele>
        <time>2022-09-22T13:44:21.246Z</time>
      </trkpt>
      <trkpt lat="44.91775" lon="5.43324">
        <ele>847</ele>
        <time>2022-09-22T13:44:22.247Z</time>
      </trkpt>
      <trkpt lat="44.91773" lon="5.43325">
        <ele>847</ele>
        <time>2022-09-22T13:44:23.247Z</time>
      </trkpt>
      <trkpt lat="44.91772" lon="5.43325">
        <ele>847</ele>
        <time>2022-09-22T13:44:24.247Z</time>
      </trkpt>
      <trkpt lat="44.91772" lon="5.43325">
        <ele>847</ele>
        <time>2022-09-22T13:44:25.247Z</time>
      </trkpt>
      <trkpt lat="44.91771" lon="5.43325">
        <ele>847</ele>
        <time>2022-09-22T13:44:26.247Z</time>
      </trkpt>
      <trkpt lat="44.91771" lon="5.43324">
        <ele>847</ele>
        <time>2022-09-22T13:44:27.247Z</time>
      </trkpt>
      <trkpt lat="44.9177" lon="5.4332">
        <ele>845</ele>
        <time>2022-09-22T13:44:34.372Z</time>
      </trkpt>
      <trkpt lat="44.91769" lon="5.43321">
        <ele>848</ele>
        <time>2022-09-22T13:45:40.269Z</time>
      </trkpt>
      <trkpt lat="44.91766" lon="5.43323">
        <ele>848</ele>
        <time>2022-09-22T13:45:41.269Z</time>
      </trkpt>
      <trkpt lat="44.91763" lon="5.43325">
        <ele>848</ele>
        <time>2022-09-22T13:45:42.268Z</time>
      </trkpt>
      <trkpt lat="44.91761" lon="5.43327">
        <ele>848</ele>
        <time>2022-09-22T13:45:43.269Z</time>
      </trkpt>
      <trkpt lat="44.91758" lon="5.43328">
        <ele>848</ele>
        <time>2022-09-22T13:45:44.268Z</time>
      </trkpt>
      <trkpt lat="44.91755" lon="5.43329">
        <ele>847</ele>
        <time>2022-09-22T13:45:45.269Z</time>
      </trkpt>
      <trkpt lat="44.91752" lon="5.4333">
        <ele>847</ele>
        <time>2022-09-22T13:45:46.269Z</time>
      </trkpt>
      <trkpt lat="44.9175" lon="5.43331">
        <ele>847</ele>
        <time>2022-09-22T13:45:47.269Z</time>
      </trkpt>
      <trkpt lat="44.91747" lon="5.43331">
        <ele>848</ele>
        <time>2022-09-22T13:45:48.268Z</time>
      </trkpt>
      <trkpt lat="44.91745" lon="5.43331">
        <ele>848</ele>
        <time>2022-09-22T13:45:49.269Z</time>
      </trkpt>
      <trkpt lat="44.91742" lon="5.43331">
        <ele>849</ele>
        <time>2022-09-22T13:45:50.269Z</time>
      </trkpt>
      <trkpt lat="44.9174" lon="5.43331">
        <ele>849</ele>
        <time>2022-09-22T13:45:51.269Z</time>
      </trkpt>
      <trkpt lat="44.91737" lon="5.43331">
        <ele>849</ele>
        <time>2022-09-22T13:45:52.269Z</time>
      </trkpt>
      <trkpt lat="44.91734" lon="5.43331">
        <ele>849</ele>
        <time>2022-09-22T13:45:53.269Z</time>
      </trkpt>
      <trkpt lat="44.91731" lon="5.43331">
        <ele>849</ele>
        <time>2022-09-22T13:45:54.269Z</time>
      </trkpt>
      <trkpt lat="44.91728" lon="5.4333">
        <ele>849</ele>
        <time>2022-09-22T13:45:55.269Z</time>
      </trkpt>
      <trkpt lat="44.91725" lon="5.43329">
        <ele>849</ele>
        <time>2022-09-22T13:45:56.269Z</time>
      </trkpt>
      <trkpt lat="44.91722" lon="5.43328">
        <ele>849</ele>
        <time>2022-09-22T13:45:57.269Z</time>
      </trkpt>
      <trkpt lat="44.91719" lon="5.43327">
        <ele>848</ele>
        <time>2022-09-22T13:45:58.269Z</time>
      </trkpt>
      <trkpt lat="44.91716" lon="5.43326">
        <ele>848</ele>
        <time>2022-09-22T13:45:59.268Z</time>
      </trkpt>
      <trkpt lat="44.91713" lon="5.43325">
        <ele>848</ele>
        <time>2022-09-22T13:46:00.268Z</time>
      </trkpt>
      <trkpt lat="44.9171" lon="5.43324">
        <ele>847</ele>
        <time>2022-09-22T13:46:01.269Z</time>
      </trkpt>
      <trkpt lat="44.91707" lon="5.43324">
        <ele>847</ele>
        <time>2022-09-22T13:46:02.269Z</time>
      </trkpt>
      <trkpt lat="44.91704" lon="5.43323">
        <ele>847</ele>
        <time>2022-09-22T13:46:03.269Z</time>
      </trkpt>
      <trkpt lat="44.91701" lon="5.43322">
        <ele>847</ele>
        <time>2022-09-22T13:46:04.269Z</time>
      </trkpt>
      <trkpt lat="44.91698" lon="5.43321">
        <ele>846</ele>
        <time>2022-09-22T13:46:05.269Z</time>
      </trkpt>
      <trkpt lat="44.91694" lon="5.4332">
        <ele>846</ele>
        <time>2022-09-22T13:46:06.269Z</time>
      </trkpt>
      <trkpt lat="44.91691" lon="5.4332">
        <ele>845</ele>
        <time>2022-09-22T13:46:07.268Z</time>
      </trkpt>
      <trkpt lat="44.91688" lon="5.43319">
        <ele>845</ele>
        <time>2022-09-22T13:46:08.268Z</time>
      </trkpt>
      <trkpt lat="44.91684" lon="5.43319">
        <ele>845</ele>
        <time>2022-09-22T13:46:09.269Z</time>
      </trkpt>
      <trkpt lat="44.91682" lon="5.43319">
        <ele>844</ele>
        <time>2022-09-22T13:46:10.269Z</time>
      </trkpt>
      <trkpt lat="44.91679" lon="5.43319">
        <ele>845</ele>
        <time>2022-09-22T13:46:11.269Z</time>
      </trkpt>
      <trkpt lat="44.91675" lon="5.43318">
        <ele>845</ele>
        <time>2022-09-22T13:46:12.269Z</time>
      </trkpt>
      <trkpt lat="44.91672" lon="5.43318">
        <ele>846</ele>
        <time>2022-09-22T13:46:13.269Z</time>
      </trkpt>
      <trkpt lat="44.91669" lon="5.43318">
        <ele>846</ele>
        <time>2022-09-22T13:46:14.269Z</time>
      </trkpt>
      <trkpt lat="44.91666" lon="5.43317">
        <ele>846</ele>
        <time>2022-09-22T13:46:15.269Z</time>
      </trkpt>
      <trkpt lat="44.91662" lon="5.43316">
        <ele>846</ele>
        <time>2022-09-22T13:46:16.269Z</time>
      </trkpt>
      <trkpt lat="44.91659" lon="5.43316">
        <ele>847</ele>
        <time>2022-09-22T13:46:17.269Z</time>
      </trkpt>
      <trkpt lat="44.91656" lon="5.43315">
        <ele>848</ele>
        <time>2022-09-22T13:46:18.269Z</time>
      </trkpt>
      <trkpt lat="44.91653" lon="5.43314">
        <ele>848</ele>
        <time>2022-09-22T13:46:19.269Z</time>
      </trkpt>
      <trkpt lat="44.9165" lon="5.43313">
        <ele>849</ele>
        <time>2022-09-22T13:46:20.269Z</time>
      </trkpt>
      <trkpt lat="44.91646" lon="5.43313">
        <ele>849</ele>
        <time>2022-09-22T13:46:21.269Z</time>
      </trkpt>
      <trkpt lat="44.91643" lon="5.43312">
        <ele>849</ele>
        <time>2022-09-22T13:46:22.268Z</time>
      </trkpt>
      <trkpt lat="44.9164" lon="5.43312">
        <ele>850</ele>
        <time>2022-09-22T13:46:23.269Z</time>
      </trkpt>
      <trkpt lat="44.91636" lon="5.43311">
        <ele>850</ele>
        <time>2022-09-22T13:46:24.269Z</time>
      </trkpt>
      <trkpt lat="44.91633" lon="5.4331">
        <ele>850</ele>
        <time>2022-09-22T13:46:25.268Z</time>
      </trkpt>
      <trkpt lat="44.9163" lon="5.4331">
        <ele>850</ele>
        <time>2022-09-22T13:46:26.269Z</time>
      </trkpt>
      <trkpt lat="44.91627" lon="5.43309">
        <ele>849</ele>
        <time>2022-09-22T13:46:27.269Z</time>
      </trkpt>
      <trkpt lat="44.91624" lon="5.43308">
        <ele>849</ele>
        <time>2022-09-22T13:46:28.268Z</time>
      </trkpt>
      <trkpt lat="44.91621" lon="5.43308">
        <ele>849</ele>
        <time>2022-09-22T13:46:29.268Z</time>
      </trkpt>
      <trkpt lat="44.91617" lon="5.43307">
        <ele>849</ele>
        <time>2022-09-22T13:46:30.269Z</time>
      </trkpt>
      <trkpt lat="44.91614" lon="5.43307">
        <ele>850</ele>
        <time>2022-09-22T13:46:31.268Z</time>
      </trkpt>
      <trkpt lat="44.91611" lon="5.43306">
        <ele>850</ele>
        <time>2022-09-22T13:46:32.268Z</time>
      </trkpt>
      <trkpt lat="44.91608" lon="5.43306">
        <ele>850</ele>
        <time>2022-09-22T13:46:33.269Z</time>
      </trkpt>
      <trkpt lat="44.91605" lon="5.43305">
        <ele>850</ele>
        <time>2022-09-22T13:46:34.269Z</time>
      </trkpt>
      <trkpt lat="44.91601" lon="5.43304">
        <ele>850</ele>
        <time>2022-09-22T13:46:35.269Z</time>
      </trkpt>
      <trkpt lat="44.91598" lon="5.43303">
        <ele>849</ele>
        <time>2022-09-22T13:46:36.268Z</time>
      </trkpt>
      <trkpt lat="44.91595" lon="5.43302">
        <ele>849</ele>
        <time>2022-09-22T13:46:37.269Z</time>
      </trkpt>
      <trkpt lat="44.91592" lon="5.43301">
        <ele>849</ele>
        <time>2022-09-22T13:46:38.269Z</time>
      </trkpt>
      <trkpt lat="44.91589" lon="5.43299">
        <ele>849</ele>
        <time>2022-09-22T13:46:39.269Z</time>
      </trkpt>
      <trkpt lat="44.91586" lon="5.43298">
        <ele>848</ele>
        <time>2022-09-22T13:46:40.268Z</time>
      </trkpt>
      <trkpt lat="44.91583" lon="5.43296">
        <ele>848</ele>
        <time>2022-09-22T13:46:41.268Z</time>
      </trkpt>
      <trkpt lat="44.9158" lon="5.43294">
        <ele>848</ele>
        <time>2022-09-22T13:46:42.269Z</time>
      </trkpt>
      <trkpt lat="44.91577" lon="5.43291">
        <ele>848</ele>
        <time>2022-09-22T13:46:43.268Z</time>
      </trkpt>
      <trkpt lat="44.91574" lon="5.43289">
        <ele>848</ele>
        <time>2022-09-22T13:46:44.269Z</time>
      </trkpt>
      <trkpt lat="44.91571" lon="5.43286">
        <ele>848</ele>
        <time>2022-09-22T13:46:45.269Z</time>
      </trkpt>
      <trkpt lat="44.91568" lon="5.43282">
        <ele>847</ele>
        <time>2022-09-22T13:46:46.269Z</time>
      </trkpt>
      <trkpt lat="44.91565" lon="5.4328">
        <ele>847</ele>
        <time>2022-09-22T13:46:47.269Z</time>
      </trkpt>
      <trkpt lat="44.91562" lon="5.43277">
        <ele>846</ele>
        <time>2022-09-22T13:46:48.269Z</time>
      </trkpt>
      <trkpt lat="44.91559" lon="5.43274">
        <ele>846</ele>
        <time>2022-09-22T13:46:49.269Z</time>
      </trkpt>
      <trkpt lat="44.91556" lon="5.4327">
        <ele>846</ele>
        <time>2022-09-22T13:46:50.268Z</time>
      </trkpt>
      <trkpt lat="44.91552" lon="5.43266">
        <ele>847</ele>
        <time>2022-09-22T13:46:51.268Z</time>
      </trkpt>
      <trkpt lat="44.91549" lon="5.43262">
        <ele>847</ele>
        <time>2022-09-22T13:46:52.269Z</time>
      </trkpt>
      <trkpt lat="44.91546" lon="5.43258">
        <ele>847</ele>
        <time>2022-09-22T13:46:53.269Z</time>
      </trkpt>
      <trkpt lat="44.91542" lon="5.43253">
        <ele>847</ele>
        <time>2022-09-22T13:46:54.269Z</time>
      </trkpt>
      <trkpt lat="44.91538" lon="5.43249">
        <ele>847</ele>
        <time>2022-09-22T13:46:55.269Z</time>
      </trkpt>
      <trkpt lat="44.91533" lon="5.43243">
        <ele>846</ele>
        <time>2022-09-22T13:46:56.269Z</time>
      </trkpt>
      <trkpt lat="44.91528" lon="5.43238">
        <ele>846</ele>
        <time>2022-09-22T13:46:57.269Z</time>
      </trkpt>
      <trkpt lat="44.91523" lon="5.43231">
        <ele>846</ele>
        <time>2022-09-22T13:46:58.269Z</time>
      </trkpt>
      <trkpt lat="44.91518" lon="5.43224">
        <ele>846</ele>
        <time>2022-09-22T13:46:59.269Z</time>
      </trkpt>
      <trkpt lat="44.91512" lon="5.43217">
        <ele>846</ele>
        <time>2022-09-22T13:47:00.268Z</time>
      </trkpt>
      <trkpt lat="44.91506" lon="5.4321">
        <ele>846</ele>
        <time>2022-09-22T13:47:01.268Z</time>
      </trkpt>
      <trkpt lat="44.91499" lon="5.43202">
        <ele>846</ele>
        <time>2022-09-22T13:47:02.268Z</time>
      </trkpt>
      <trkpt lat="44.91492" lon="5.43194">
        <ele>846</ele>
        <time>2022-09-22T13:47:03.269Z</time>
      </trkpt>
      <trkpt lat="44.91485" lon="5.43186">
        <ele>845</ele>
        <time>2022-09-22T13:47:04.269Z</time>
      </trkpt>
      <trkpt lat="44.91477" lon="5.43178">
        <ele>845</ele>
        <time>2022-09-22T13:47:05.269Z</time>
      </trkpt>
      <trkpt lat="44.91468" lon="5.43168">
        <ele>844</ele>
        <time>2022-09-22T13:47:06.269Z</time>
      </trkpt>
      <trkpt lat="44.9146" lon="5.43159">
        <ele>844</ele>
        <time>2022-09-22T13:47:07.269Z</time>
      </trkpt>
      <trkpt lat="44.91452" lon="5.4315">
        <ele>843</ele>
        <time>2022-09-22T13:47:08.269Z</time>
      </trkpt>
      <trkpt lat="44.91445" lon="5.43143">
        <ele>842</ele>
        <time>2022-09-22T13:47:09.268Z</time>
      </trkpt>
      <trkpt lat="44.91435" lon="5.43132">
        <ele>842</ele>
        <time>2022-09-22T13:47:10.268Z</time>
      </trkpt>
      <trkpt lat="44.91428" lon="5.43124">
        <ele>841</ele>
        <time>2022-09-22T13:47:11.269Z</time>
      </trkpt>
      <trkpt lat="44.91419" lon="5.43114">
        <ele>840</ele>
        <time>2022-09-22T13:47:12.269Z</time>
      </trkpt>
      <trkpt lat="44.91409" lon="5.43102">
        <ele>839</ele>
        <time>2022-09-22T13:47:13.268Z</time>
      </trkpt>
      <trkpt lat="44.91402" lon="5.43095">
        <ele>839</ele>
        <time>2022-09-22T13:47:14.269Z</time>
      </trkpt>
      <trkpt lat="44.91392" lon="5.43083">
        <ele>838</ele>
        <time>2022-09-22T13:47:15.269Z</time>
      </trkpt>
      <trkpt lat="44.91383" lon="5.43074">
        <ele>838</ele>
        <time>2022-09-22T13:47:16.269Z</time>
      </trkpt>
      <trkpt lat="44.91376" lon="5.43066">
        <ele>838</ele>
        <time>2022-09-22T13:47:17.269Z</time>
      </trkpt>
      <trkpt lat="44.91368" lon="5.43056">
        <ele>837</ele>
        <time>2022-09-22T13:47:18.269Z</time>
      </trkpt>
      <trkpt lat="44.91359" lon="5.43047">
        <ele>836</ele>
        <time>2022-09-22T13:47:19.269Z</time>
      </trkpt>
      <trkpt lat="44.91349" lon="5.43036">
        <ele>836</ele>
        <time>2022-09-22T13:47:20.269Z</time>
      </trkpt>
      <trkpt lat="44.91342" lon="5.43028">
        <ele>836</ele>
        <time>2022-09-22T13:47:21.269Z</time>
      </trkpt>
      <trkpt lat="44.91332" lon="5.43018">
        <ele>835</ele>
        <time>2022-09-22T13:47:22.269Z</time>
      </trkpt>
      <trkpt lat="44.91325" lon="5.43011">
        <ele>835</ele>
        <time>2022-09-22T13:47:23.269Z</time>
      </trkpt>
      <trkpt lat="44.91316" lon="5.43003">
        <ele>836</ele>
        <time>2022-09-22T13:47:24.268Z</time>
      </trkpt>
      <trkpt lat="44.91307" lon="5.42995">
        <ele>836</ele>
        <time>2022-09-22T13:47:25.269Z</time>
      </trkpt>
      <trkpt lat="44.91299" lon="5.42987">
        <ele>836</ele>
        <time>2022-09-22T13:47:26.269Z</time>
      </trkpt>
      <trkpt lat="44.91291" lon="5.4298">
        <ele>835</ele>
        <time>2022-09-22T13:47:27.269Z</time>
      </trkpt>
      <trkpt lat="44.91283" lon="5.42973">
        <ele>835</ele>
        <time>2022-09-22T13:47:28.269Z</time>
      </trkpt>
      <trkpt lat="44.91275" lon="5.42966">
        <ele>835</ele>
        <time>2022-09-22T13:47:29.268Z</time>
      </trkpt>
      <trkpt lat="44.91267" lon="5.42959">
        <ele>834</ele>
        <time>2022-09-22T13:47:30.269Z</time>
      </trkpt>
      <trkpt lat="44.9126" lon="5.42951">
        <ele>834</ele>
        <time>2022-09-22T13:47:31.268Z</time>
      </trkpt>
      <trkpt lat="44.91253" lon="5.42944">
        <ele>833</ele>
        <time>2022-09-22T13:47:32.268Z</time>
      </trkpt>
      <trkpt lat="44.91246" lon="5.42936">
        <ele>832</ele>
        <time>2022-09-22T13:47:33.269Z</time>
      </trkpt>
      <trkpt lat="44.91239" lon="5.42929">
        <ele>832</ele>
        <time>2022-09-22T13:47:34.269Z</time>
      </trkpt>
      <trkpt lat="44.91233" lon="5.42922">
        <ele>832</ele>
        <time>2022-09-22T13:47:35.269Z</time>
      </trkpt>
      <trkpt lat="44.91227" lon="5.42916">
        <ele>831</ele>
        <time>2022-09-22T13:47:36.268Z</time>
      </trkpt>
      <trkpt lat="44.91222" lon="5.4291">
        <ele>831</ele>
        <time>2022-09-22T13:47:37.269Z</time>
      </trkpt>
      <trkpt lat="44.91216" lon="5.42904">
        <ele>830</ele>
        <time>2022-09-22T13:47:38.269Z</time>
      </trkpt>
      <trkpt lat="44.91212" lon="5.42899">
        <ele>830</ele>
        <time>2022-09-22T13:47:39.269Z</time>
      </trkpt>
      <trkpt lat="44.91207" lon="5.42893">
        <ele>829</ele>
        <time>2022-09-22T13:47:40.269Z</time>
      </trkpt>
      <trkpt lat="44.91202" lon="5.42888">
        <ele>829</ele>
        <time>2022-09-22T13:47:41.269Z</time>
      </trkpt>
      <trkpt lat="44.91198" lon="5.42884">
        <ele>829</ele>
        <time>2022-09-22T13:47:42.269Z</time>
      </trkpt>
      <trkpt lat="44.91193" lon="5.4288">
        <ele>829</ele>
        <time>2022-09-22T13:47:43.269Z</time>
      </trkpt>
      <trkpt lat="44.91189" lon="5.42876">
        <ele>829</ele>
        <time>2022-09-22T13:47:44.269Z</time>
      </trkpt>
      <trkpt lat="44.91183" lon="5.42873">
        <ele>829</ele>
        <time>2022-09-22T13:47:45.269Z</time>
      </trkpt>
      <trkpt lat="44.91178" lon="5.4287">
        <ele>828</ele>
        <time>2022-09-22T13:47:46.269Z</time>
      </trkpt>
      <trkpt lat="44.91172" lon="5.42868">
        <ele>828</ele>
        <time>2022-09-22T13:47:47.268Z</time>
      </trkpt>
      <trkpt lat="44.91166" lon="5.42866">
        <ele>828</ele>
        <time>2022-09-22T13:47:48.269Z</time>
      </trkpt>
      <trkpt lat="44.91161" lon="5.42864">
        <ele>828</ele>
        <time>2022-09-22T13:47:49.269Z</time>
      </trkpt>
      <trkpt lat="44.91155" lon="5.42862">
        <ele>828</ele>
        <time>2022-09-22T13:47:50.268Z</time>
      </trkpt>
      <trkpt lat="44.9115" lon="5.4286">
        <ele>828</ele>
        <time>2022-09-22T13:47:51.269Z</time>
      </trkpt>
      <trkpt lat="44.91145" lon="5.42859">
        <ele>828</ele>
        <time>2022-09-22T13:47:52.269Z</time>
      </trkpt>
      <trkpt lat="44.9114" lon="5.42858">
        <ele>828</ele>
        <time>2022-09-22T13:47:53.269Z</time>
      </trkpt>
      <trkpt lat="44.91135" lon="5.42858">
        <ele>828</ele>
        <time>2022-09-22T13:47:54.269Z</time>
      </trkpt>
      <trkpt lat="44.9113" lon="5.42858">
        <ele>828</ele>
        <time>2022-09-22T13:47:55.269Z</time>
      </trkpt>
      <trkpt lat="44.91126" lon="5.42858">
        <ele>827</ele>
        <time>2022-09-22T13:47:56.269Z</time>
      </trkpt>
      <trkpt lat="44.91123" lon="5.42858">
        <ele>827</ele>
        <time>2022-09-22T13:47:57.269Z</time>
      </trkpt>
      <trkpt lat="44.91119" lon="5.42857">
        <ele>827</ele>
        <time>2022-09-22T13:47:58.269Z</time>
      </trkpt>
      <trkpt lat="44.91117" lon="5.42857">
        <ele>827</ele>
        <time>2022-09-22T13:47:59.268Z</time>
      </trkpt>
      <trkpt lat="44.91114" lon="5.42857">
        <ele>827</ele>
        <time>2022-09-22T13:48:00.268Z</time>
      </trkpt>
      <trkpt lat="44.91111" lon="5.42857">
        <ele>827</ele>
        <time>2022-09-22T13:48:01.269Z</time>
      </trkpt>
      <trkpt lat="44.91109" lon="5.42857">
        <ele>827</ele>
        <time>2022-09-22T13:48:02.269Z</time>
      </trkpt>
      <trkpt lat="44.91106" lon="5.42856">
        <ele>827</ele>
        <time>2022-09-22T13:48:03.268Z</time>
      </trkpt>
      <trkpt lat="44.91104" lon="5.42856">
        <ele>827</ele>
        <time>2022-09-22T13:48:04.269Z</time>
      </trkpt>
      <trkpt lat="44.91101" lon="5.42856">
        <ele>826</ele>
        <time>2022-09-22T13:48:05.269Z</time>
      </trkpt>
      <trkpt lat="44.91099" lon="5.42856">
        <ele>827</ele>
        <time>2022-09-22T13:48:06.268Z</time>
      </trkpt>
      <trkpt lat="44.91097" lon="5.42856">
        <ele>827</ele>
        <time>2022-09-22T13:48:07.268Z</time>
      </trkpt>
      <trkpt lat="44.91094" lon="5.42856">
        <ele>828</ele>
        <time>2022-09-22T13:48:08.268Z</time>
      </trkpt>
      <trkpt lat="44.91092" lon="5.42856">
        <ele>828</ele>
        <time>2022-09-22T13:48:09.269Z</time>
      </trkpt>
      <trkpt lat="44.9109" lon="5.42856">
        <ele>829</ele>
        <time>2022-09-22T13:48:10.269Z</time>
      </trkpt>
      <trkpt lat="44.91088" lon="5.42856">
        <ele>829</ele>
        <time>2022-09-22T13:48:11.269Z</time>
      </trkpt>
      <trkpt lat="44.91086" lon="5.42855">
        <ele>830</ele>
        <time>2022-09-22T13:48:12.269Z</time>
      </trkpt>
      <trkpt lat="44.91084" lon="5.42855">
        <ele>830</ele>
        <time>2022-09-22T13:48:13.269Z</time>
      </trkpt>
      <trkpt lat="44.91082" lon="5.42854">
        <ele>830</ele>
        <time>2022-09-22T13:48:14.268Z</time>
      </trkpt>
      <trkpt lat="44.9108" lon="5.42854">
        <ele>830</ele>
        <time>2022-09-22T13:48:15.269Z</time>
      </trkpt>
      <trkpt lat="44.91078" lon="5.42853">
        <ele>830</ele>
        <time>2022-09-22T13:48:16.269Z</time>
      </trkpt>
      <trkpt lat="44.91076" lon="5.42852">
        <ele>831</ele>
        <time>2022-09-22T13:48:17.269Z</time>
      </trkpt>
      <trkpt lat="44.91074" lon="5.42851">
        <ele>831</ele>
        <time>2022-09-22T13:48:18.269Z</time>
      </trkpt>
      <trkpt lat="44.91072" lon="5.42851">
        <ele>831</ele>
        <time>2022-09-22T13:48:19.269Z</time>
      </trkpt>
      <trkpt lat="44.9107" lon="5.42851">
        <ele>831</ele>
        <time>2022-09-22T13:48:20.269Z</time>
      </trkpt>
      <trkpt lat="44.91068" lon="5.42851">
        <ele>831</ele>
        <time>2022-09-22T13:48:21.269Z</time>
      </trkpt>
      <trkpt lat="44.91066" lon="5.4285">
        <ele>831</ele>
        <time>2022-09-22T13:48:22.269Z</time>
      </trkpt>
      <trkpt lat="44.91064" lon="5.4285">
        <ele>831</ele>
        <time>2022-09-22T13:48:23.269Z</time>
      </trkpt>
      <trkpt lat="44.91062" lon="5.4285">
        <ele>832</ele>
        <time>2022-09-22T13:48:24.268Z</time>
      </trkpt>
      <trkpt lat="44.9106" lon="5.4285">
        <ele>832</ele>
        <time>2022-09-22T13:48:25.269Z</time>
      </trkpt>
      <trkpt lat="44.91057" lon="5.4285">
        <ele>832</ele>
        <time>2022-09-22T13:48:26.269Z</time>
      </trkpt>
      <trkpt lat="44.91055" lon="5.4285">
        <ele>832</ele>
        <time>2022-09-22T13:48:27.269Z</time>
      </trkpt>
      <trkpt lat="44.91053" lon="5.4285">
        <ele>833</ele>
        <time>2022-09-22T13:48:28.269Z</time>
      </trkpt>
      <trkpt lat="44.9105" lon="5.4285">
        <ele>833</ele>
        <time>2022-09-22T13:48:29.269Z</time>
      </trkpt>
      <trkpt lat="44.91048" lon="5.42849">
        <ele>833</ele>
        <time>2022-09-22T13:48:30.269Z</time>
      </trkpt>
      <trkpt lat="44.91046" lon="5.42849">
        <ele>833</ele>
        <time>2022-09-22T13:48:31.268Z</time>
      </trkpt>
      <trkpt lat="44.91044" lon="5.42849">
        <ele>833</ele>
        <time>2022-09-22T13:48:32.269Z</time>
      </trkpt>
      <trkpt lat="44.91042" lon="5.4285">
        <ele>833</ele>
        <time>2022-09-22T13:48:33.269Z</time>
      </trkpt>
      <trkpt lat="44.9104" lon="5.4285">
        <ele>833</ele>
        <time>2022-09-22T13:48:34.268Z</time>
      </trkpt>
      <trkpt lat="44.91038" lon="5.4285">
        <ele>833</ele>
        <time>2022-09-22T13:48:35.268Z</time>
      </trkpt>
      <trkpt lat="44.91037" lon="5.42851">
        <ele>834</ele>
        <time>2022-09-22T13:48:36.269Z</time>
      </trkpt>
      <trkpt lat="44.91035" lon="5.42851">
        <ele>834</ele>
        <time>2022-09-22T13:48:37.269Z</time>
      </trkpt>
      <trkpt lat="44.91033" lon="5.42851">
        <ele>834</ele>
        <time>2022-09-22T13:48:38.269Z</time>
      </trkpt>
      <trkpt lat="44.91032" lon="5.42852">
        <ele>834</ele>
        <time>2022-09-22T13:48:39.269Z</time>
      </trkpt>
      <trkpt lat="44.9103" lon="5.42851">
        <ele>834</ele>
        <time>2022-09-22T13:48:40.269Z</time>
      </trkpt>
      <trkpt lat="44.91028" lon="5.42851">
        <ele>834</ele>
        <time>2022-09-22T13:48:41.268Z</time>
      </trkpt>
      <trkpt lat="44.91027" lon="5.4285">
        <ele>834</ele>
        <time>2022-09-22T13:48:42.268Z</time>
      </trkpt>
      <trkpt lat="44.91025" lon="5.42849">
        <ele>833</ele>
        <time>2022-09-22T13:48:43.269Z</time>
      </trkpt>
      <trkpt lat="44.91023" lon="5.4285">
        <ele>833</ele>
        <time>2022-09-22T13:48:44.269Z</time>
      </trkpt>
      <trkpt lat="44.91022" lon="5.42849">
        <ele>833</ele>
        <time>2022-09-22T13:48:45.269Z</time>
      </trkpt>
      <trkpt lat="44.9102" lon="5.42849">
        <ele>833</ele>
        <time>2022-09-22T13:48:46.269Z</time>
      </trkpt>
      <trkpt lat="44.91018" lon="5.4285">
        <ele>833</ele>
        <time>2022-09-22T13:48:47.269Z</time>
      </trkpt>
      <trkpt lat="44.91016" lon="5.4285">
        <ele>834</ele>
        <time>2022-09-22T13:48:48.268Z</time>
      </trkpt>
      <trkpt lat="44.91014" lon="5.4285">
        <ele>834</ele>
        <time>2022-09-22T13:48:49.269Z</time>
      </trkpt>
      <trkpt lat="44.91013" lon="5.42851">
        <ele>835</ele>
        <time>2022-09-22T13:48:50.269Z</time>
      </trkpt>
      <trkpt lat="44.91011" lon="5.42851">
        <ele>836</ele>
        <time>2022-09-22T13:48:51.269Z</time>
      </trkpt>
      <trkpt lat="44.91009" lon="5.42851">
        <ele>836</ele>
        <time>2022-09-22T13:48:52.268Z</time>
      </trkpt>
      <trkpt lat="44.91007" lon="5.42852">
        <ele>837</ele>
        <time>2022-09-22T13:48:53.268Z</time>
      </trkpt>
      <trkpt lat="44.91006" lon="5.42852">
        <ele>837</ele>
        <time>2022-09-22T13:48:54.269Z</time>
      </trkpt>
      <trkpt lat="44.91004" lon="5.42853">
        <ele>837</ele>
        <time>2022-09-22T13:48:55.269Z</time>
      </trkpt>
      <trkpt lat="44.91002" lon="5.42853">
        <ele>837</ele>
        <time>2022-09-22T13:48:56.269Z</time>
      </trkpt>
      <trkpt lat="44.91" lon="5.42854">
        <ele>837</ele>
        <time>2022-09-22T13:48:57.269Z</time>
      </trkpt>
      <trkpt lat="44.90999" lon="5.42854">
        <ele>837</ele>
        <time>2022-09-22T13:48:58.269Z</time>
      </trkpt>
      <trkpt lat="44.90997" lon="5.42855">
        <ele>836</ele>
        <time>2022-09-22T13:48:59.269Z</time>
      </trkpt>
      <trkpt lat="44.90995" lon="5.42856">
        <ele>836</ele>
        <time>2022-09-22T13:49:00.269Z</time>
      </trkpt>
      <trkpt lat="44.90994" lon="5.42857">
        <ele>835</ele>
        <time>2022-09-22T13:49:01.269Z</time>
      </trkpt>
      <trkpt lat="44.90991" lon="5.42858">
        <ele>835</ele>
        <time>2022-09-22T13:49:02.269Z</time>
      </trkpt>
      <trkpt lat="44.90989" lon="5.42858">
        <ele>835</ele>
        <time>2022-09-22T13:49:03.268Z</time>
      </trkpt>
      <trkpt lat="44.90987" lon="5.42859">
        <ele>835</ele>
        <time>2022-09-22T13:49:04.268Z</time>
      </trkpt>
      <trkpt lat="44.90986" lon="5.42859">
        <ele>835</ele>
        <time>2022-09-22T13:49:05.269Z</time>
      </trkpt>
      <trkpt lat="44.90984" lon="5.4286">
        <ele>835</ele>
        <time>2022-09-22T13:49:06.269Z</time>
      </trkpt>
      <trkpt lat="44.90982" lon="5.4286">
        <ele>835</ele>
        <time>2022-09-22T13:49:07.269Z</time>
      </trkpt>
      <trkpt lat="44.90981" lon="5.42859">
        <ele>835</ele>
        <time>2022-09-22T13:49:08.268Z</time>
      </trkpt>
      <trkpt lat="44.90979" lon="5.42859">
        <ele>835</ele>
        <time>2022-09-22T13:49:09.269Z</time>
      </trkpt>
      <trkpt lat="44.90977" lon="5.42859">
        <ele>835</ele>
        <time>2022-09-22T13:49:10.269Z</time>
      </trkpt>
      <trkpt lat="44.90975" lon="5.42859">
        <ele>834</ele>
        <time>2022-09-22T13:49:11.268Z</time>
      </trkpt>
      <trkpt lat="44.90974" lon="5.42859">
        <ele>834</ele>
        <time>2022-09-22T13:49:12.269Z</time>
      </trkpt>
      <trkpt lat="44.90972" lon="5.42859">
        <ele>834</ele>
        <time>2022-09-22T13:49:13.269Z</time>
      </trkpt>
      <trkpt lat="44.90971" lon="5.42859">
        <ele>834</ele>
        <time>2022-09-22T13:49:14.269Z</time>
      </trkpt>
      <trkpt lat="44.90969" lon="5.42858">
        <ele>833</ele>
        <time>2022-09-22T13:49:15.269Z</time>
      </trkpt>
      <trkpt lat="44.90967" lon="5.42858">
        <ele>833</ele>
        <time>2022-09-22T13:49:16.268Z</time>
      </trkpt>
      <trkpt lat="44.90966" lon="5.42858">
        <ele>834</ele>
        <time>2022-09-22T13:49:17.269Z</time>
      </trkpt>
      <trkpt lat="44.90964" lon="5.42858">
        <ele>834</ele>
        <time>2022-09-22T13:49:18.269Z</time>
      </trkpt>
      <trkpt lat="44.90963" lon="5.42858">
        <ele>834</ele>
        <time>2022-09-22T13:49:19.269Z</time>
      </trkpt>
      <trkpt lat="44.90961" lon="5.42858">
        <ele>835</ele>
        <time>2022-09-22T13:49:20.269Z</time>
      </trkpt>
      <trkpt lat="44.90959" lon="5.42858">
        <ele>836</ele>
        <time>2022-09-22T13:49:21.268Z</time>
      </trkpt>
      <trkpt lat="44.90957" lon="5.42858">
        <ele>837</ele>
        <time>2022-09-22T13:49:22.268Z</time>
      </trkpt>
      <trkpt lat="44.90956" lon="5.42859">
        <ele>837</ele>
        <time>2022-09-22T13:49:23.269Z</time>
      </trkpt>
      <trkpt lat="44.90954" lon="5.42859">
        <ele>838</ele>
        <time>2022-09-22T13:49:24.269Z</time>
      </trkpt>
      <trkpt lat="44.90952" lon="5.42859">
        <ele>839</ele>
        <time>2022-09-22T13:49:25.269Z</time>
      </trkpt>
      <trkpt lat="44.9095" lon="5.42859">
        <ele>839</ele>
        <time>2022-09-22T13:49:26.269Z</time>
      </trkpt>
      <trkpt lat="44.90949" lon="5.4286">
        <ele>840</ele>
        <time>2022-09-22T13:49:27.268Z</time>
      </trkpt>
      <trkpt lat="44.90947" lon="5.4286">
        <ele>840</ele>
        <time>2022-09-22T13:49:28.268Z</time>
      </trkpt>
      <trkpt lat="44.90946" lon="5.42861">
        <ele>840</ele>
        <time>2022-09-22T13:49:29.269Z</time>
      </trkpt>
      <trkpt lat="44.90943" lon="5.42861">
        <ele>840</ele>
        <time>2022-09-22T13:49:30.269Z</time>
      </trkpt>
      <trkpt lat="44.90942" lon="5.42862">
        <ele>840</ele>
        <time>2022-09-22T13:49:31.269Z</time>
      </trkpt>
      <trkpt lat="44.9094" lon="5.42862">
        <ele>839</ele>
        <time>2022-09-22T13:49:32.269Z</time>
      </trkpt>
      <trkpt lat="44.90938" lon="5.42863">
        <ele>839</ele>
        <time>2022-09-22T13:49:33.269Z</time>
      </trkpt>
      <trkpt lat="44.90937" lon="5.42863">
        <ele>839</ele>
        <time>2022-09-22T13:49:34.268Z</time>
      </trkpt>
      <trkpt lat="44.90935" lon="5.42864">
        <ele>840</ele>
        <time>2022-09-22T13:49:35.269Z</time>
      </trkpt>
      <trkpt lat="44.90934" lon="5.42864">
        <ele>840</ele>
        <time>2022-09-22T13:49:36.269Z</time>
      </trkpt>
      <trkpt lat="44.90932" lon="5.42865">
        <ele>840</ele>
        <time>2022-09-22T13:49:37.269Z</time>
      </trkpt>
      <trkpt lat="44.90931" lon="5.42866">
        <ele>840</ele>
        <time>2022-09-22T13:49:38.268Z</time>
      </trkpt>
      <trkpt lat="44.90929" lon="5.42867">
        <ele>840</ele>
        <time>2022-09-22T13:49:39.269Z</time>
      </trkpt>
      <trkpt lat="44.90927" lon="5.42867">
        <ele>839</ele>
        <time>2022-09-22T13:49:40.269Z</time>
      </trkpt>
      <trkpt lat="44.90926" lon="5.42868">
        <ele>839</ele>
        <time>2022-09-22T13:49:41.268Z</time>
      </trkpt>
      <trkpt lat="44.90924" lon="5.42868">
        <ele>839</ele>
        <time>2022-09-22T13:49:42.269Z</time>
      </trkpt>
      <trkpt lat="44.90923" lon="5.42868">
        <ele>839</ele>
        <time>2022-09-22T13:49:43.269Z</time>
      </trkpt>
      <trkpt lat="44.90921" lon="5.42869">
        <ele>839</ele>
        <time>2022-09-22T13:49:44.269Z</time>
      </trkpt>
      <trkpt lat="44.9092" lon="5.42869">
        <ele>839</ele>
        <time>2022-09-22T13:49:45.269Z</time>
      </trkpt>
      <trkpt lat="44.90918" lon="5.4287">
        <ele>840</ele>
        <time>2022-09-22T13:49:46.269Z</time>
      </trkpt>
      <trkpt lat="44.90916" lon="5.4287">
        <ele>840</ele>
        <time>2022-09-22T13:49:47.269Z</time>
      </trkpt>
      <trkpt lat="44.90915" lon="5.4287">
        <ele>839</ele>
        <time>2022-09-22T13:49:48.268Z</time>
      </trkpt>
      <trkpt lat="44.90913" lon="5.42871">
        <ele>839</ele>
        <time>2022-09-22T13:49:49.269Z</time>
      </trkpt>
      <trkpt lat="44.90912" lon="5.42871">
        <ele>839</ele>
        <time>2022-09-22T13:49:50.269Z</time>
      </trkpt>
      <trkpt lat="44.9091" lon="5.42871">
        <ele>839</ele>
        <time>2022-09-22T13:49:51.269Z</time>
      </trkpt>
      <trkpt lat="44.90909" lon="5.42871">
        <ele>839</ele>
        <time>2022-09-22T13:49:52.269Z</time>
      </trkpt>
      <trkpt lat="44.90907" lon="5.42872">
        <ele>839</ele>
        <time>2022-09-22T13:49:53.269Z</time>
      </trkpt>
      <trkpt lat="44.90906" lon="5.42873">
        <ele>839</ele>
        <time>2022-09-22T13:49:54.268Z</time>
      </trkpt>
      <trkpt lat="44.90904" lon="5.42873">
        <ele>839</ele>
        <time>2022-09-22T13:49:55.269Z</time>
      </trkpt>
      <trkpt lat="44.90903" lon="5.42874">
        <ele>839</ele>
        <time>2022-09-22T13:49:56.269Z</time>
      </trkpt>
      <trkpt lat="44.90901" lon="5.42874">
        <ele>839</ele>
        <time>2022-09-22T13:49:57.268Z</time>
      </trkpt>
      <trkpt lat="44.90899" lon="5.42874">
        <ele>840</ele>
        <time>2022-09-22T13:49:58.269Z</time>
      </trkpt>
      <trkpt lat="44.90898" lon="5.42874">
        <ele>840</ele>
        <time>2022-09-22T13:49:59.269Z</time>
      </trkpt>
      <trkpt lat="44.90896" lon="5.42874">
        <ele>841</ele>
        <time>2022-09-22T13:50:00.268Z</time>
      </trkpt>
      <trkpt lat="44.90894" lon="5.42874">
        <ele>841</ele>
        <time>2022-09-22T13:50:01.269Z</time>
      </trkpt>
      <trkpt lat="44.90893" lon="5.42874">
        <ele>841</ele>
        <time>2022-09-22T13:50:02.269Z</time>
      </trkpt>
      <trkpt lat="44.90891" lon="5.42874">
        <ele>842</ele>
        <time>2022-09-22T13:50:03.269Z</time>
      </trkpt>
      <trkpt lat="44.90889" lon="5.42874">
        <ele>842</ele>
        <time>2022-09-22T13:50:04.269Z</time>
      </trkpt>
      <trkpt lat="44.90888" lon="5.42873">
        <ele>842</ele>
        <time>2022-09-22T13:50:05.269Z</time>
      </trkpt>
      <trkpt lat="44.90886" lon="5.42873">
        <ele>842</ele>
        <time>2022-09-22T13:50:06.269Z</time>
      </trkpt>
      <trkpt lat="44.90885" lon="5.42873">
        <ele>843</ele>
        <time>2022-09-22T13:50:07.269Z</time>
      </trkpt>
      <trkpt lat="44.90883" lon="5.42872">
        <ele>843</ele>
        <time>2022-09-22T13:50:08.269Z</time>
      </trkpt>
      <trkpt lat="44.90881" lon="5.42872">
        <ele>843</ele>
        <time>2022-09-22T13:50:09.269Z</time>
      </trkpt>
      <trkpt lat="44.9088" lon="5.42871">
        <ele>844</ele>
        <time>2022-09-22T13:50:10.269Z</time>
      </trkpt>
      <trkpt lat="44.90878" lon="5.4287">
        <ele>844</ele>
        <time>2022-09-22T13:50:11.269Z</time>
      </trkpt>
      <trkpt lat="44.90877" lon="5.4287">
        <ele>844</ele>
        <time>2022-09-22T13:50:12.269Z</time>
      </trkpt>
      <trkpt lat="44.90875" lon="5.42869">
        <ele>844</ele>
        <time>2022-09-22T13:50:13.268Z</time>
      </trkpt>
      <trkpt lat="44.90874" lon="5.42868">
        <ele>844</ele>
        <time>2022-09-22T13:50:14.268Z</time>
      </trkpt>
      <trkpt lat="44.90872" lon="5.42867">
        <ele>844</ele>
        <time>2022-09-22T13:50:15.268Z</time>
      </trkpt>
      <trkpt lat="44.9087" lon="5.42866">
        <ele>845</ele>
        <time>2022-09-22T13:50:16.269Z</time>
      </trkpt>
      <trkpt lat="44.90868" lon="5.42865">
        <ele>845</ele>
        <time>2022-09-22T13:50:17.269Z</time>
      </trkpt>
      <trkpt lat="44.90867" lon="5.42865">
        <ele>846</ele>
        <time>2022-09-22T13:50:18.269Z</time>
      </trkpt>
      <trkpt lat="44.90865" lon="5.42864">
        <ele>846</ele>
        <time>2022-09-22T13:50:19.269Z</time>
      </trkpt>
      <trkpt lat="44.90863" lon="5.42864">
        <ele>847</ele>
        <time>2022-09-22T13:50:20.269Z</time>
      </trkpt>
      <trkpt lat="44.90862" lon="5.42864">
        <ele>847</ele>
        <time>2022-09-22T13:50:21.269Z</time>
      </trkpt>
      <trkpt lat="44.9086" lon="5.42864">
        <ele>848</ele>
        <time>2022-09-22T13:50:22.269Z</time>
      </trkpt>
      <trkpt lat="44.90858" lon="5.42865">
        <ele>848</ele>
        <time>2022-09-22T13:50:23.268Z</time>
      </trkpt>
      <trkpt lat="44.90856" lon="5.42865">
        <ele>848</ele>
        <time>2022-09-22T13:50:24.269Z</time>
      </trkpt>
      <trkpt lat="44.90854" lon="5.42865">
        <ele>849</ele>
        <time>2022-09-22T13:50:25.269Z</time>
      </trkpt>
      <trkpt lat="44.90853" lon="5.42865">
        <ele>849</ele>
        <time>2022-09-22T13:50:26.268Z</time>
      </trkpt>
      <trkpt lat="44.90851" lon="5.42865">
        <ele>849</ele>
        <time>2022-09-22T13:50:27.268Z</time>
      </trkpt>
      <trkpt lat="44.90849" lon="5.42865">
        <ele>849</ele>
        <time>2022-09-22T13:50:28.269Z</time>
      </trkpt>
      <trkpt lat="44.90847" lon="5.42864">
        <ele>849</ele>
        <time>2022-09-22T13:50:29.269Z</time>
      </trkpt>
      <trkpt lat="44.90846" lon="5.42864">
        <ele>850</ele>
        <time>2022-09-22T13:50:30.269Z</time>
      </trkpt>
      <trkpt lat="44.90844" lon="5.42863">
        <ele>850</ele>
        <time>2022-09-22T13:50:31.269Z</time>
      </trkpt>
      <trkpt lat="44.90842" lon="5.42863">
        <ele>850</ele>
        <time>2022-09-22T13:50:32.269Z</time>
      </trkpt>
      <trkpt lat="44.90841" lon="5.42862">
        <ele>850</ele>
        <time>2022-09-22T13:50:33.269Z</time>
      </trkpt>
      <trkpt lat="44.90839" lon="5.42862">
        <ele>850</ele>
        <time>2022-09-22T13:50:34.268Z</time>
      </trkpt>
      <trkpt lat="44.90838" lon="5.42863">
        <ele>850</ele>
        <time>2022-09-22T13:50:35.269Z</time>
      </trkpt>
      <trkpt lat="44.90836" lon="5.42863">
        <ele>850</ele>
        <time>2022-09-22T13:50:36.269Z</time>
      </trkpt>
      <trkpt lat="44.90834" lon="5.42864">
        <ele>850</ele>
        <time>2022-09-22T13:50:37.269Z</time>
      </trkpt>
      <trkpt lat="44.90833" lon="5.42864">
        <ele>850</ele>
        <time>2022-09-22T13:50:38.269Z</time>
      </trkpt>
      <trkpt lat="44.90832" lon="5.42865">
        <ele>851</ele>
        <time>2022-09-22T13:50:39.269Z</time>
      </trkpt>
      <trkpt lat="44.9083" lon="5.42866">
        <ele>851</ele>
        <time>2022-09-22T13:50:40.269Z</time>
      </trkpt>
      <trkpt lat="44.90829" lon="5.42867">
        <ele>851</ele>
        <time>2022-09-22T13:50:41.269Z</time>
      </trkpt>
      <trkpt lat="44.90827" lon="5.42868">
        <ele>851</ele>
        <time>2022-09-22T13:50:42.268Z</time>
      </trkpt>
      <trkpt lat="44.90826" lon="5.42868">
        <ele>851</ele>
        <time>2022-09-22T13:50:43.269Z</time>
      </trkpt>
      <trkpt lat="44.90824" lon="5.42869">
        <ele>851</ele>
        <time>2022-09-22T13:50:44.269Z</time>
      </trkpt>
      <trkpt lat="44.90822" lon="5.4287">
        <ele>851</ele>
        <time>2022-09-22T13:50:45.269Z</time>
      </trkpt>
      <trkpt lat="44.90821" lon="5.4287">
        <ele>851</ele>
        <time>2022-09-22T13:50:46.269Z</time>
      </trkpt>
      <trkpt lat="44.90819" lon="5.42871">
        <ele>851</ele>
        <time>2022-09-22T13:50:47.268Z</time>
      </trkpt>
      <trkpt lat="44.90818" lon="5.42872">
        <ele>851</ele>
        <time>2022-09-22T13:50:48.269Z</time>
      </trkpt>
      <trkpt lat="44.90817" lon="5.42873">
        <ele>851</ele>
        <time>2022-09-22T13:50:49.269Z</time>
      </trkpt>
      <trkpt lat="44.90815" lon="5.42874">
        <ele>850</ele>
        <time>2022-09-22T13:50:50.269Z</time>
      </trkpt>
      <trkpt lat="44.90814" lon="5.42875">
        <ele>850</ele>
        <time>2022-09-22T13:50:51.269Z</time>
      </trkpt>
      <trkpt lat="44.90812" lon="5.42876">
        <ele>850</ele>
        <time>2022-09-22T13:50:52.269Z</time>
      </trkpt>
      <trkpt lat="44.9081" lon="5.42876">
        <ele>850</ele>
        <time>2022-09-22T13:50:53.269Z</time>
      </trkpt>
      <trkpt lat="44.90809" lon="5.42877">
        <ele>850</ele>
        <time>2022-09-22T13:50:54.269Z</time>
      </trkpt>
      <trkpt lat="44.90807" lon="5.42878">
        <ele>850</ele>
        <time>2022-09-22T13:50:55.269Z</time>
      </trkpt>
      <trkpt lat="44.90806" lon="5.42879">
        <ele>851</ele>
        <time>2022-09-22T13:50:56.268Z</time>
      </trkpt>
      <trkpt lat="44.90805" lon="5.4288">
        <ele>851</ele>
        <time>2022-09-22T13:50:57.269Z</time>
      </trkpt>
      <trkpt lat="44.90804" lon="5.42882">
        <ele>851</ele>
        <time>2022-09-22T13:50:58.269Z</time>
      </trkpt>
      <trkpt lat="44.90802" lon="5.42883">
        <ele>851</ele>
        <time>2022-09-22T13:50:59.268Z</time>
      </trkpt>
      <trkpt lat="44.90801" lon="5.42884">
        <ele>851</ele>
        <time>2022-09-22T13:51:00.269Z</time>
      </trkpt>
      <trkpt lat="44.90799" lon="5.42886">
        <ele>851</ele>
        <time>2022-09-22T13:51:01.268Z</time>
      </trkpt>
      <trkpt lat="44.90798" lon="5.42888">
        <ele>851</ele>
        <time>2022-09-22T13:51:02.269Z</time>
      </trkpt>
      <trkpt lat="44.90796" lon="5.42889">
        <ele>851</ele>
        <time>2022-09-22T13:51:03.269Z</time>
      </trkpt>
      <trkpt lat="44.90795" lon="5.4289">
        <ele>851</ele>
        <time>2022-09-22T13:51:04.268Z</time>
      </trkpt>
      <trkpt lat="44.90793" lon="5.42891">
        <ele>851</ele>
        <time>2022-09-22T13:51:05.268Z</time>
      </trkpt>
      <trkpt lat="44.90791" lon="5.42892">
        <ele>851</ele>
        <time>2022-09-22T13:51:06.269Z</time>
      </trkpt>
      <trkpt lat="44.9079" lon="5.42894">
        <ele>850</ele>
        <time>2022-09-22T13:51:07.269Z</time>
      </trkpt>
      <trkpt lat="44.90788" lon="5.42895">
        <ele>851</ele>
        <time>2022-09-22T13:51:08.269Z</time>
      </trkpt>
      <trkpt lat="44.90787" lon="5.42896">
        <ele>851</ele>
        <time>2022-09-22T13:51:09.269Z</time>
      </trkpt>
      <trkpt lat="44.90785" lon="5.42897">
        <ele>850</ele>
        <time>2022-09-22T13:51:10.269Z</time>
      </trkpt>
      <trkpt lat="44.90783" lon="5.42898">
        <ele>850</ele>
        <time>2022-09-22T13:51:11.269Z</time>
      </trkpt>
      <trkpt lat="44.90782" lon="5.42898">
        <ele>851</ele>
        <time>2022-09-22T13:51:12.269Z</time>
      </trkpt>
      <trkpt lat="44.90779" lon="5.42899">
        <ele>851</ele>
        <time>2022-09-22T13:51:13.269Z</time>
      </trkpt>
      <trkpt lat="44.90778" lon="5.429">
        <ele>851</ele>
        <time>2022-09-22T13:51:14.269Z</time>
      </trkpt>
      <trkpt lat="44.90776" lon="5.42901">
        <ele>852</ele>
        <time>2022-09-22T13:51:15.269Z</time>
      </trkpt>
      <trkpt lat="44.90774" lon="5.42902">
        <ele>852</ele>
        <time>2022-09-22T13:51:16.269Z</time>
      </trkpt>
      <trkpt lat="44.90773" lon="5.42902">
        <ele>852</ele>
        <time>2022-09-22T13:51:17.269Z</time>
      </trkpt>
      <trkpt lat="44.9077" lon="5.42903">
        <ele>852</ele>
        <time>2022-09-22T13:51:18.269Z</time>
      </trkpt>
      <trkpt lat="44.90768" lon="5.42903">
        <ele>853</ele>
        <time>2022-09-22T13:51:19.268Z</time>
      </trkpt>
      <trkpt lat="44.90767" lon="5.42904">
        <ele>853</ele>
        <time>2022-09-22T13:51:20.269Z</time>
      </trkpt>
      <trkpt lat="44.90765" lon="5.42904">
        <ele>853</ele>
        <time>2022-09-22T13:51:21.269Z</time>
      </trkpt>
      <trkpt lat="44.90762" lon="5.42905">
        <ele>854</ele>
        <time>2022-09-22T13:51:22.269Z</time>
      </trkpt>
      <trkpt lat="44.9076" lon="5.42905">
        <ele>854</ele>
        <time>2022-09-22T13:51:23.269Z</time>
      </trkpt>
      <trkpt lat="44.90759" lon="5.42906">
        <ele>854</ele>
        <time>2022-09-22T13:51:24.269Z</time>
      </trkpt>
      <trkpt lat="44.90757" lon="5.42906">
        <ele>854</ele>
        <time>2022-09-22T13:51:25.269Z</time>
      </trkpt>
      <trkpt lat="44.90755" lon="5.42907">
        <ele>855</ele>
        <time>2022-09-22T13:51:26.269Z</time>
      </trkpt>
      <trkpt lat="44.90753" lon="5.42907">
        <ele>855</ele>
        <time>2022-09-22T13:51:27.269Z</time>
      </trkpt>
      <trkpt lat="44.90751" lon="5.42908">
        <ele>855</ele>
        <time>2022-09-22T13:51:28.269Z</time>
      </trkpt>
      <trkpt lat="44.9075" lon="5.42909">
        <ele>856</ele>
        <time>2022-09-22T13:51:29.269Z</time>
      </trkpt>
      <trkpt lat="44.90748" lon="5.42909">
        <ele>856</ele>
        <time>2022-09-22T13:51:30.269Z</time>
      </trkpt>
      <trkpt lat="44.90745" lon="5.4291">
        <ele>856</ele>
        <time>2022-09-22T13:51:31.269Z</time>
      </trkpt>
      <trkpt lat="44.90744" lon="5.4291">
        <ele>856</ele>
        <time>2022-09-22T13:51:32.269Z</time>
      </trkpt>
      <trkpt lat="44.90742" lon="5.4291">
        <ele>856</ele>
        <time>2022-09-22T13:51:33.269Z</time>
      </trkpt>
      <trkpt lat="44.9074" lon="5.42911">
        <ele>856</ele>
        <time>2022-09-22T13:51:34.268Z</time>
      </trkpt>
      <trkpt lat="44.90738" lon="5.42911">
        <ele>856</ele>
        <time>2022-09-22T13:51:35.269Z</time>
      </trkpt>
      <trkpt lat="44.90736" lon="5.42912">
        <ele>856</ele>
        <time>2022-09-22T13:51:36.269Z</time>
      </trkpt>
      <trkpt lat="44.90734" lon="5.42912">
        <ele>856</ele>
        <time>2022-09-22T13:51:37.269Z</time>
      </trkpt>
      <trkpt lat="44.90732" lon="5.42912">
        <ele>856</ele>
        <time>2022-09-22T13:51:38.269Z</time>
      </trkpt>
      <trkpt lat="44.9073" lon="5.42912">
        <ele>856</ele>
        <time>2022-09-22T13:51:39.269Z</time>
      </trkpt>
      <trkpt lat="44.90728" lon="5.42912">
        <ele>856</ele>
        <time>2022-09-22T13:51:40.269Z</time>
      </trkpt>
      <trkpt lat="44.90726" lon="5.42912">
        <ele>856</ele>
        <time>2022-09-22T13:51:41.269Z</time>
      </trkpt>
      <trkpt lat="44.90724" lon="5.42912">
        <ele>857</ele>
        <time>2022-09-22T13:51:42.269Z</time>
      </trkpt>
      <trkpt lat="44.90722" lon="5.42912">
        <ele>857</ele>
        <time>2022-09-22T13:51:43.269Z</time>
      </trkpt>
      <trkpt lat="44.90721" lon="5.42912">
        <ele>858</ele>
        <time>2022-09-22T13:51:44.268Z</time>
      </trkpt>
      <trkpt lat="44.90718" lon="5.42912">
        <ele>858</ele>
        <time>2022-09-22T13:51:45.269Z</time>
      </trkpt>
      <trkpt lat="44.90716" lon="5.42912">
        <ele>858</ele>
        <time>2022-09-22T13:51:46.269Z</time>
      </trkpt>
      <trkpt lat="44.90715" lon="5.42912">
        <ele>858</ele>
        <time>2022-09-22T13:51:47.269Z</time>
      </trkpt>
      <trkpt lat="44.90713" lon="5.42912">
        <ele>857</ele>
        <time>2022-09-22T13:51:48.269Z</time>
      </trkpt>
      <trkpt lat="44.90711" lon="5.42912">
        <ele>856</ele>
        <time>2022-09-22T13:51:49.269Z</time>
      </trkpt>
      <trkpt lat="44.90709" lon="5.42912">
        <ele>856</ele>
        <time>2022-09-22T13:51:50.268Z</time>
      </trkpt>
      <trkpt lat="44.90707" lon="5.42912">
        <ele>855</ele>
        <time>2022-09-22T13:51:51.269Z</time>
      </trkpt>
      <trkpt lat="44.90705" lon="5.42912">
        <ele>854</ele>
        <time>2022-09-22T13:51:52.269Z</time>
      </trkpt>
      <trkpt lat="44.90703" lon="5.42912">
        <ele>854</ele>
        <time>2022-09-22T13:51:53.269Z</time>
      </trkpt>
      <trkpt lat="44.90701" lon="5.42912">
        <ele>853</ele>
        <time>2022-09-22T13:51:54.269Z</time>
      </trkpt>
      <trkpt lat="44.90699" lon="5.42911">
        <ele>853</ele>
        <time>2022-09-22T13:51:55.269Z</time>
      </trkpt>
      <trkpt lat="44.90698" lon="5.4291">
        <ele>853</ele>
        <time>2022-09-22T13:51:56.269Z</time>
      </trkpt>
      <trkpt lat="44.90696" lon="5.42909">
        <ele>853</ele>
        <time>2022-09-22T13:51:57.268Z</time>
      </trkpt>
      <trkpt lat="44.90695" lon="5.42908">
        <ele>853</ele>
        <time>2022-09-22T13:51:58.269Z</time>
      </trkpt>
      <trkpt lat="44.90693" lon="5.42908">
        <ele>853</ele>
        <time>2022-09-22T13:51:59.269Z</time>
      </trkpt>
      <trkpt lat="44.90691" lon="5.42907">
        <ele>853</ele>
        <time>2022-09-22T13:52:00.269Z</time>
      </trkpt>
      <trkpt lat="44.9069" lon="5.42907">
        <ele>852</ele>
        <time>2022-09-22T13:52:01.268Z</time>
      </trkpt>
      <trkpt lat="44.90688" lon="5.42907">
        <ele>853</ele>
        <time>2022-09-22T13:52:02.269Z</time>
      </trkpt>
      <trkpt lat="44.90687" lon="5.42907">
        <ele>853</ele>
        <time>2022-09-22T13:52:03.269Z</time>
      </trkpt>
      <trkpt lat="44.90684" lon="5.42906">
        <ele>854</ele>
        <time>2022-09-22T13:52:04.269Z</time>
      </trkpt>
      <trkpt lat="44.90683" lon="5.42906">
        <ele>854</ele>
        <time>2022-09-22T13:52:05.269Z</time>
      </trkpt>
      <trkpt lat="44.90681" lon="5.42906">
        <ele>854</ele>
        <time>2022-09-22T13:52:06.269Z</time>
      </trkpt>
      <trkpt lat="44.90679" lon="5.42905">
        <ele>855</ele>
        <time>2022-09-22T13:52:07.269Z</time>
      </trkpt>
      <trkpt lat="44.90677" lon="5.42905">
        <ele>856</ele>
        <time>2022-09-22T13:52:08.269Z</time>
      </trkpt>
      <trkpt lat="44.90676" lon="5.42905">
        <ele>856</ele>
        <time>2022-09-22T13:52:09.268Z</time>
      </trkpt>
      <trkpt lat="44.90674" lon="5.42905">
        <ele>856</ele>
        <time>2022-09-22T13:52:10.269Z</time>
      </trkpt>
      <trkpt lat="44.90673" lon="5.42905">
        <ele>856</ele>
        <time>2022-09-22T13:52:11.269Z</time>
      </trkpt>
      <trkpt lat="44.90671" lon="5.42904">
        <ele>856</ele>
        <time>2022-09-22T13:52:12.269Z</time>
      </trkpt>
      <trkpt lat="44.90669" lon="5.42904">
        <ele>856</ele>
        <time>2022-09-22T13:52:13.269Z</time>
      </trkpt>
      <trkpt lat="44.90668" lon="5.42903">
        <ele>856</ele>
        <time>2022-09-22T13:52:14.269Z</time>
      </trkpt>
      <trkpt lat="44.90666" lon="5.42902">
        <ele>856</ele>
        <time>2022-09-22T13:52:15.269Z</time>
      </trkpt>
      <trkpt lat="44.90664" lon="5.42902">
        <ele>857</ele>
        <time>2022-09-22T13:52:16.269Z</time>
      </trkpt>
      <trkpt lat="44.90661" lon="5.42901">
        <ele>857</ele>
        <time>2022-09-22T13:52:17.269Z</time>
      </trkpt>
      <trkpt lat="44.9066" lon="5.429">
        <ele>857</ele>
        <time>2022-09-22T13:52:18.269Z</time>
      </trkpt>
      <trkpt lat="44.90658" lon="5.429">
        <ele>858</ele>
        <time>2022-09-22T13:52:19.268Z</time>
      </trkpt>
      <trkpt lat="44.90656" lon="5.42899">
        <ele>858</ele>
        <time>2022-09-22T13:52:20.269Z</time>
      </trkpt>
      <trkpt lat="44.90654" lon="5.42898">
        <ele>858</ele>
        <time>2022-09-22T13:52:21.269Z</time>
      </trkpt>
      <trkpt lat="44.90652" lon="5.42897">
        <ele>859</ele>
        <time>2022-09-22T13:52:22.269Z</time>
      </trkpt>
      <trkpt lat="44.90649" lon="5.42896">
        <ele>859</ele>
        <time>2022-09-22T13:52:23.268Z</time>
      </trkpt>
      <trkpt lat="44.90648" lon="5.42896">
        <ele>859</ele>
        <time>2022-09-22T13:52:24.269Z</time>
      </trkpt>
      <trkpt lat="44.90646" lon="5.42895">
        <ele>858</ele>
        <time>2022-09-22T13:52:25.269Z</time>
      </trkpt>
      <trkpt lat="44.90644" lon="5.42894">
        <ele>858</ele>
        <time>2022-09-22T13:52:26.269Z</time>
      </trkpt>
      <trkpt lat="44.90642" lon="5.42893">
        <ele>858</ele>
        <time>2022-09-22T13:52:27.268Z</time>
      </trkpt>
      <trkpt lat="44.9064" lon="5.42893">
        <ele>858</ele>
        <time>2022-09-22T13:52:28.269Z</time>
      </trkpt>
      <trkpt lat="44.90638" lon="5.42892">
        <ele>858</ele>
        <time>2022-09-22T13:52:29.269Z</time>
      </trkpt>
      <trkpt lat="44.90636" lon="5.42891">
        <ele>857</ele>
        <time>2022-09-22T13:52:30.269Z</time>
      </trkpt>
      <trkpt lat="44.90634" lon="5.4289">
        <ele>858</ele>
        <time>2022-09-22T13:52:31.269Z</time>
      </trkpt>
      <trkpt lat="44.90632" lon="5.4289">
        <ele>858</ele>
        <time>2022-09-22T13:52:32.269Z</time>
      </trkpt>
      <trkpt lat="44.90631" lon="5.42889">
        <ele>858</ele>
        <time>2022-09-22T13:52:33.269Z</time>
      </trkpt>
      <trkpt lat="44.90629" lon="5.42888">
        <ele>858</ele>
        <time>2022-09-22T13:52:34.269Z</time>
      </trkpt>
      <trkpt lat="44.90627" lon="5.42887">
        <ele>859</ele>
        <time>2022-09-22T13:52:35.269Z</time>
      </trkpt>
      <trkpt lat="44.90625" lon="5.42887">
        <ele>860</ele>
        <time>2022-09-22T13:52:36.269Z</time>
      </trkpt>
      <trkpt lat="44.90623" lon="5.42886">
        <ele>860</ele>
        <time>2022-09-22T13:52:37.269Z</time>
      </trkpt>
      <trkpt lat="44.90621" lon="5.42886">
        <ele>861</ele>
        <time>2022-09-22T13:52:38.269Z</time>
      </trkpt>
      <trkpt lat="44.90619" lon="5.42885">
        <ele>862</ele>
        <time>2022-09-22T13:52:39.269Z</time>
      </trkpt>
      <trkpt lat="44.90617" lon="5.42884">
        <ele>862</ele>
        <time>2022-09-22T13:52:40.268Z</time>
      </trkpt>
      <trkpt lat="44.90615" lon="5.42883">
        <ele>862</ele>
        <time>2022-09-22T13:52:41.269Z</time>
      </trkpt>
      <trkpt lat="44.90613" lon="5.42882">
        <ele>862</ele>
        <time>2022-09-22T13:52:42.269Z</time>
      </trkpt>
      <trkpt lat="44.90611" lon="5.42882">
        <ele>863</ele>
        <time>2022-09-22T13:52:43.268Z</time>
      </trkpt>
      <trkpt lat="44.90609" lon="5.42881">
        <ele>863</ele>
        <time>2022-09-22T13:52:44.268Z</time>
      </trkpt>
      <trkpt lat="44.90607" lon="5.4288">
        <ele>863</ele>
        <time>2022-09-22T13:52:45.269Z</time>
      </trkpt>
      <trkpt lat="44.90606" lon="5.4288">
        <ele>863</ele>
        <time>2022-09-22T13:52:46.269Z</time>
      </trkpt>
      <trkpt lat="44.90604" lon="5.42879">
        <ele>863</ele>
        <time>2022-09-22T13:52:47.269Z</time>
      </trkpt>
      <trkpt lat="44.90602" lon="5.42878">
        <ele>863</ele>
        <time>2022-09-22T13:52:48.269Z</time>
      </trkpt>
      <trkpt lat="44.906" lon="5.42877">
        <ele>863</ele>
        <time>2022-09-22T13:52:49.268Z</time>
      </trkpt>
      <trkpt lat="44.90597" lon="5.42876">
        <ele>863</ele>
        <time>2022-09-22T13:52:50.269Z</time>
      </trkpt>
      <trkpt lat="44.90595" lon="5.42875">
        <ele>863</ele>
        <time>2022-09-22T13:52:51.269Z</time>
      </trkpt>
      <trkpt lat="44.90593" lon="5.42874">
        <ele>863</ele>
        <time>2022-09-22T13:52:52.269Z</time>
      </trkpt>
      <trkpt lat="44.90591" lon="5.42873">
        <ele>863</ele>
        <time>2022-09-22T13:52:53.268Z</time>
      </trkpt>
      <trkpt lat="44.90588" lon="5.42872">
        <ele>863</ele>
        <time>2022-09-22T13:52:54.268Z</time>
      </trkpt>
      <trkpt lat="44.90587" lon="5.42872">
        <ele>863</ele>
        <time>2022-09-22T13:52:55.269Z</time>
      </trkpt>
      <trkpt lat="44.90585" lon="5.42871">
        <ele>863</ele>
        <time>2022-09-22T13:52:56.269Z</time>
      </trkpt>
      <trkpt lat="44.90583" lon="5.42871">
        <ele>863</ele>
        <time>2022-09-22T13:52:57.269Z</time>
      </trkpt>
      <trkpt lat="44.9058" lon="5.4287">
        <ele>862</ele>
        <time>2022-09-22T13:52:58.269Z</time>
      </trkpt>
      <trkpt lat="44.90577" lon="5.4287">
        <ele>862</ele>
        <time>2022-09-22T13:52:59.268Z</time>
      </trkpt>
      <trkpt lat="44.90574" lon="5.42869">
        <ele>862</ele>
        <time>2022-09-22T13:53:00.269Z</time>
      </trkpt>
      <trkpt lat="44.90572" lon="5.42868">
        <ele>861</ele>
        <time>2022-09-22T13:53:01.268Z</time>
      </trkpt>
      <trkpt lat="44.90569" lon="5.42867">
        <ele>861</ele>
        <time>2022-09-22T13:53:02.269Z</time>
      </trkpt>
      <trkpt lat="44.90566" lon="5.42866">
        <ele>861</ele>
        <time>2022-09-22T13:53:03.269Z</time>
      </trkpt>
      <trkpt lat="44.90563" lon="5.42865">
        <ele>861</ele>
        <time>2022-09-22T13:53:04.268Z</time>
      </trkpt>
      <trkpt lat="44.9056" lon="5.42863">
        <ele>861</ele>
        <time>2022-09-22T13:53:05.269Z</time>
      </trkpt>
      <trkpt lat="44.90557" lon="5.42862">
        <ele>861</ele>
        <time>2022-09-22T13:53:06.268Z</time>
      </trkpt>
      <trkpt lat="44.90553" lon="5.4286">
        <ele>861</ele>
        <time>2022-09-22T13:53:07.269Z</time>
      </trkpt>
      <trkpt lat="44.9055" lon="5.42859">
        <ele>861</ele>
        <time>2022-09-22T13:53:08.269Z</time>
      </trkpt>
      <trkpt lat="44.90545" lon="5.42857">
        <ele>861</ele>
        <time>2022-09-22T13:53:09.269Z</time>
      </trkpt>
      <trkpt lat="44.90542" lon="5.42855">
        <ele>861</ele>
        <time>2022-09-22T13:53:10.269Z</time>
      </trkpt>
      <trkpt lat="44.90538" lon="5.42853">
        <ele>862</ele>
        <time>2022-09-22T13:53:11.268Z</time>
      </trkpt>
      <trkpt lat="44.90534" lon="5.42852">
        <ele>861</ele>
        <time>2022-09-22T13:53:12.269Z</time>
      </trkpt>
      <trkpt lat="44.90529" lon="5.4285">
        <ele>861</ele>
        <time>2022-09-22T13:53:13.269Z</time>
      </trkpt>
      <trkpt lat="44.90525" lon="5.42849">
        <ele>862</ele>
        <time>2022-09-22T13:53:14.269Z</time>
      </trkpt>
      <trkpt lat="44.90521" lon="5.42848">
        <ele>862</ele>
        <time>2022-09-22T13:53:15.269Z</time>
      </trkpt>
      <trkpt lat="44.90517" lon="5.42846">
        <ele>862</ele>
        <time>2022-09-22T13:53:16.269Z</time>
      </trkpt>
      <trkpt lat="44.90513" lon="5.42844">
        <ele>861</ele>
        <time>2022-09-22T13:53:17.269Z</time>
      </trkpt>
      <trkpt lat="44.90508" lon="5.42841">
        <ele>861</ele>
        <time>2022-09-22T13:53:18.269Z</time>
      </trkpt>
      <trkpt lat="44.90504" lon="5.42839">
        <ele>861</ele>
        <time>2022-09-22T13:53:19.269Z</time>
      </trkpt>
      <trkpt lat="44.905" lon="5.42838">
        <ele>860</ele>
        <time>2022-09-22T13:53:20.269Z</time>
      </trkpt>
      <trkpt lat="44.90495" lon="5.42836">
        <ele>860</ele>
        <time>2022-09-22T13:53:21.269Z</time>
      </trkpt>
      <trkpt lat="44.9049" lon="5.42834">
        <ele>860</ele>
        <time>2022-09-22T13:53:22.269Z</time>
      </trkpt>
      <trkpt lat="44.90485" lon="5.42833">
        <ele>860</ele>
        <time>2022-09-22T13:53:23.269Z</time>
      </trkpt>
      <trkpt lat="44.9048" lon="5.42831">
        <ele>859</ele>
        <time>2022-09-22T13:53:24.268Z</time>
      </trkpt>
      <trkpt lat="44.90475" lon="5.42829">
        <ele>859</ele>
        <time>2022-09-22T13:53:25.269Z</time>
      </trkpt>
      <trkpt lat="44.9047" lon="5.42827">
        <ele>859</ele>
        <time>2022-09-22T13:53:26.269Z</time>
      </trkpt>
      <trkpt lat="44.90465" lon="5.42824">
        <ele>859</ele>
        <time>2022-09-22T13:53:27.268Z</time>
      </trkpt>
      <trkpt lat="44.90461" lon="5.42822">
        <ele>859</ele>
        <time>2022-09-22T13:53:28.269Z</time>
      </trkpt>
      <trkpt lat="44.90455" lon="5.4282">
        <ele>859</ele>
        <time>2022-09-22T13:53:29.269Z</time>
      </trkpt>
      <trkpt lat="44.90449" lon="5.42816">
        <ele>859</ele>
        <time>2022-09-22T13:53:30.269Z</time>
      </trkpt>
      <trkpt lat="44.90443" lon="5.42814">
        <ele>860</ele>
        <time>2022-09-22T13:53:31.268Z</time>
      </trkpt>
      <trkpt lat="44.90438" lon="5.42811">
        <ele>859</ele>
        <time>2022-09-22T13:53:32.268Z</time>
      </trkpt>
      <trkpt lat="44.90431" lon="5.42808">
        <ele>860</ele>
        <time>2022-09-22T13:53:33.268Z</time>
      </trkpt>
      <trkpt lat="44.90426" lon="5.42806">
        <ele>860</ele>
        <time>2022-09-22T13:53:34.268Z</time>
      </trkpt>
      <trkpt lat="44.90421" lon="5.42804">
        <ele>860</ele>
        <time>2022-09-22T13:53:35.269Z</time>
      </trkpt>
      <trkpt lat="44.90416" lon="5.42802">
        <ele>860</ele>
        <time>2022-09-22T13:53:36.269Z</time>
      </trkpt>
      <trkpt lat="44.90413" lon="5.428">
        <ele>860</ele>
        <time>2022-09-22T13:53:37.269Z</time>
      </trkpt>
      <trkpt lat="44.90409" lon="5.42798">
        <ele>860</ele>
        <time>2022-09-22T13:53:38.269Z</time>
      </trkpt>
      <trkpt lat="44.90405" lon="5.42796">
        <ele>860</ele>
        <time>2022-09-22T13:53:39.269Z</time>
      </trkpt>
      <trkpt lat="44.90401" lon="5.42794">
        <ele>860</ele>
        <time>2022-09-22T13:53:40.269Z</time>
      </trkpt>
      <trkpt lat="44.90398" lon="5.42793">
        <ele>861</ele>
        <time>2022-09-22T13:53:41.268Z</time>
      </trkpt>
      <trkpt lat="44.90395" lon="5.42792">
        <ele>862</ele>
        <time>2022-09-22T13:53:42.269Z</time>
      </trkpt>
      <trkpt lat="44.90392" lon="5.42793">
        <ele>862</ele>
        <time>2022-09-22T13:53:43.269Z</time>
      </trkpt>
      <trkpt lat="44.9039" lon="5.42795">
        <ele>862</ele>
        <time>2022-09-22T13:53:44.268Z</time>
      </trkpt>
      <trkpt lat="44.90389" lon="5.42796">
        <ele>861</ele>
        <time>2022-09-22T13:53:45.269Z</time>
      </trkpt>
      <trkpt lat="44.90388" lon="5.42799">
        <ele>861</ele>
        <time>2022-09-22T13:53:46.269Z</time>
      </trkpt>
      <trkpt lat="44.90388" lon="5.42802">
        <ele>861</ele>
        <time>2022-09-22T13:53:47.269Z</time>
      </trkpt>
      <trkpt lat="44.90387" lon="5.42805">
        <ele>860</ele>
        <time>2022-09-22T13:53:48.269Z</time>
      </trkpt>
      <trkpt lat="44.90386" lon="5.42808">
        <ele>860</ele>
        <time>2022-09-22T13:53:49.268Z</time>
      </trkpt>
      <trkpt lat="44.90386" lon="5.4281">
        <ele>860</ele>
        <time>2022-09-22T13:53:50.269Z</time>
      </trkpt>
      <trkpt lat="44.90385" lon="5.42812">
        <ele>860</ele>
        <time>2022-09-22T13:53:51.268Z</time>
      </trkpt>
      <trkpt lat="44.90384" lon="5.42813">
        <ele>860</ele>
        <time>2022-09-22T13:53:52.269Z</time>
      </trkpt>
      <trkpt lat="44.90383" lon="5.42816">
        <ele>860</ele>
        <time>2022-09-22T13:53:53.269Z</time>
      </trkpt>
      <trkpt lat="44.90383" lon="5.42818">
        <ele>859</ele>
        <time>2022-09-22T13:53:54.269Z</time>
      </trkpt>
      <trkpt lat="44.90383" lon="5.4282">
        <ele>859</ele>
        <time>2022-09-22T13:53:55.269Z</time>
      </trkpt>
      <trkpt lat="44.90382" lon="5.42822">
        <ele>859</ele>
        <time>2022-09-22T13:53:56.269Z</time>
      </trkpt>
      <trkpt lat="44.90382" lon="5.42825">
        <ele>859</ele>
        <time>2022-09-22T13:53:57.269Z</time>
      </trkpt>
      <trkpt lat="44.90382" lon="5.42827">
        <ele>859</ele>
        <time>2022-09-22T13:53:58.269Z</time>
      </trkpt>
      <trkpt lat="44.90381" lon="5.42829">
        <ele>859</ele>
        <time>2022-09-22T13:53:59.269Z</time>
      </trkpt>
      <trkpt lat="44.90381" lon="5.42829">
        <ele>858</ele>
        <time>2022-09-22T13:54:00.269Z</time>
      </trkpt>
    </trkseg>
  </trk>
</gpx>